| State | Missouri | Latest | Low (666 cfs) | |
| River | Saint Francis River | Rating | Observed | Estimated |
| Updated | 2026-05-05 10:00 (25 minutes ago) | Flood - The river is flooding. Obstacles can be treacherous or deadly. The river should be avoided at this stage for casual trips and definitely for the inexperienced. Trips should be attempted only with protective gear and equipment.Flood | (none) | 4333 |
| Discharge | 666 cfs (median: 1070 cfs) | High - The river is high and potentially dangerous, especially for the young and / or inexperienced. Normal stream obstacles are sometimes difficult to navigate. Extended distances can be attempted, but canoe travel may not be advisable.High | (none) | 793 |
| Height | 5.96 feet | Good - Conditions are ideal for a canoe or kayak. Boats typically will drag on fewer than one-quarter of riffles, if at all, and portages are unnecessary or rare. Normal float lengths can be attempted without a problem.Good | 2000 | 285 |
| Trend | Falling (falling over 24 hours) | Low - River is low but can still be floated. Some riffles are okay but most come with significant dragging and might need a portage. Float lengths should be reduced to accommodate low flow, dragging, and portages.Low | (none) | 126 |
| USGS | USGS Site ( Duck Duck Go Maps) | Poor - River is too low to float comfortably. Most or all riffles will drag or must be portaged and some obstacles (such as slick shelf rock) cause undue problems. Avoid the river at this stage for casual paddling trips.Poor | (none) | 28 |
A total of 2 rows are displayed.
| Miles | 3.3 |
| Trips | 2 |
| People | 3 |
| Dates | 2 |
| Years | 2 |
| Months | 2 |
| Rows | 2 |
| Sources | 2 |
BLG - Bluegill
CCF - Channel Catfish
CP - Chain Pickerel
FWD - Freshwater Drum
GSF - Green Sunfish
KSB - Kentucky Spotted Bass
LMB - Largemouth Bass
LSF - Longear Sunfish
RB - Rock Bass / Goggle Eye
RSF - Redear Sunfish
RT - Rainbow Trout
SMB - Smallmouth Bass
WB - White Bass
WF - Whitefish
WL - WalleyeThe classic River Trips application is still available for use. It is updated with the new system using a data retrofit. It is no longer maintained. The original River Trips application is no longer updated (as of 1 Dec 2016) but can be checked for errors or for the condition of the data before it was converted to the new system.
| Observation | Height | Discharge | Maximum Discharge | Minimum Discharge | Mean Discharge | P05 | P10 | P20 | P25 | P50 (Median) | P75 | P80 | P90 | P95 |
|---|---|---|---|---|---|---|---|---|---|---|---|---|---|---|
| 2026-05-05 10:00 | 5.96 | 666 | 20900 (2017) | 170 (1981) | 2260 | 228 | 284 | 361 | 448 | 1070 | 2220 | 2610 | 5840 | 10000 |
| 2026-05-05 09:30 | 5.97 | 671 | 20900 (2017) | 170 (1981) | 2260 | 228 | 284 | 361 | 448 | 1070 | 2220 | 2610 | 5840 | 10000 |
| 2026-05-05 09:00 | 5.97 | 671 | 20900 (2017) | 170 (1981) | 2260 | 228 | 284 | 361 | 448 | 1070 | 2220 | 2610 | 5840 | 10000 |
| 2026-05-05 08:30 | 5.97 | 671 | 20900 (2017) | 170 (1981) | 2260 | 228 | 284 | 361 | 448 | 1070 | 2220 | 2610 | 5840 | 10000 |
| 2026-05-05 08:00 | 5.97 | 671 | 20900 (2017) | 170 (1981) | 2260 | 228 | 284 | 361 | 448 | 1070 | 2220 | 2610 | 5840 | 10000 |
| 2026-05-05 07:30 | 5.98 | 676 | 20900 (2017) | 170 (1981) | 2260 | 228 | 284 | 361 | 448 | 1070 | 2220 | 2610 | 5840 | 10000 |
| 2026-05-05 07:00 | 5.97 | 671 | 20900 (2017) | 170 (1981) | 2260 | 228 | 284 | 361 | 448 | 1070 | 2220 | 2610 | 5840 | 10000 |
| 2026-05-05 06:30 | 5.96 | 666 | 20900 (2017) | 170 (1981) | 2260 | 228 | 284 | 361 | 448 | 1070 | 2220 | 2610 | 5840 | 10000 |
| 2026-05-05 06:00 | 5.98 | 676 | 20900 (2017) | 170 (1981) | 2260 | 228 | 284 | 361 | 448 | 1070 | 2220 | 2610 | 5840 | 10000 |
| 2026-05-05 05:30 | 5.98 | 676 | 20900 (2017) | 170 (1981) | 2260 | 228 | 284 | 361 | 448 | 1070 | 2220 | 2610 | 5840 | 10000 |
| 2026-05-05 05:00 | 5.98 | 676 | 20900 (2017) | 170 (1981) | 2260 | 228 | 284 | 361 | 448 | 1070 | 2220 | 2610 | 5840 | 10000 |
| 2026-05-05 04:30 | 5.99 | 680 | 20900 (2017) | 170 (1981) | 2260 | 228 | 284 | 361 | 448 | 1070 | 2220 | 2610 | 5840 | 10000 |
| 2026-05-05 04:00 | 5.99 | 680 | 20900 (2017) | 170 (1981) | 2260 | 228 | 284 | 361 | 448 | 1070 | 2220 | 2610 | 5840 | 10000 |
| 2026-05-05 03:30 | 5.99 | 680 | 20900 (2017) | 170 (1981) | 2260 | 228 | 284 | 361 | 448 | 1070 | 2220 | 2610 | 5840 | 10000 |
| 2026-05-05 03:00 | 5.99 | 680 | 20900 (2017) | 170 (1981) | 2260 | 228 | 284 | 361 | 448 | 1070 | 2220 | 2610 | 5840 | 10000 |
| 2026-05-05 02:30 | 6.00 | 685 | 20900 (2017) | 170 (1981) | 2260 | 228 | 284 | 361 | 448 | 1070 | 2220 | 2610 | 5840 | 10000 |
| 2026-05-05 02:00 | 6.00 | 685 | 20900 (2017) | 170 (1981) | 2260 | 228 | 284 | 361 | 448 | 1070 | 2220 | 2610 | 5840 | 10000 |
| 2026-05-05 01:30 | 6.01 | 689 | 20900 (2017) | 170 (1981) | 2260 | 228 | 284 | 361 | 448 | 1070 | 2220 | 2610 | 5840 | 10000 |
| 2026-05-05 01:00 | 6.01 | 689 | 20900 (2017) | 170 (1981) | 2260 | 228 | 284 | 361 | 448 | 1070 | 2220 | 2610 | 5840 | 10000 |
| 2026-05-05 00:30 | 6.01 | 689 | 20900 (2017) | 170 (1981) | 2260 | 228 | 284 | 361 | 448 | 1070 | 2220 | 2610 | 5840 | 10000 |
| 2026-05-05 00:00 | 6.01 | 689 | 20900 (2017) | 170 (1981) | 2260 | 228 | 284 | 361 | 448 | 1070 | 2220 | 2610 | 5840 | 10000 |
| 2026-05-04 23:30 | 6.01 | 689 | 20900 (2017) | 170 (1981) | 2260 | 228 | 284 | 361 | 448 | 1070 | 2220 | 2610 | 5840 | 10000 |
| 2026-05-04 23:00 | 6.02 | 694 | 20900 (2017) | 170 (1981) | 2260 | 228 | 284 | 361 | 448 | 1070 | 2220 | 2610 | 5840 | 10000 |
| 2026-05-04 22:30 | 6.02 | 694 | 24800 (2013) | 174 (2000) | 2800 | 241 | 300 | 370 | 491 | 1210 | 2680 | 2980 | 7640 | 15700 |
| 2026-05-04 22:00 | 6.02 | 694 | 24800 (2013) | 174 (2000) | 2800 | 241 | 300 | 370 | 491 | 1210 | 2680 | 2980 | 7640 | 15700 |
| 2026-05-04 21:30 | 6.03 | 699 | 24800 (2013) | 174 (2000) | 2800 | 241 | 300 | 370 | 491 | 1210 | 2680 | 2980 | 7640 | 15700 |
| 2026-05-04 21:00 | 6.03 | 699 | 24800 (2013) | 174 (2000) | 2800 | 241 | 300 | 370 | 491 | 1210 | 2680 | 2980 | 7640 | 15700 |
| 2026-05-04 20:30 | 6.03 | 699 | 24800 (2013) | 174 (2000) | 2800 | 241 | 300 | 370 | 491 | 1210 | 2680 | 2980 | 7640 | 15700 |
| 2026-05-04 20:00 | 6.03 | 699 | 24800 (2013) | 174 (2000) | 2800 | 241 | 300 | 370 | 491 | 1210 | 2680 | 2980 | 7640 | 15700 |
| 2026-05-04 19:30 | 6.04 | 704 | 24800 (2013) | 174 (2000) | 2800 | 241 | 300 | 370 | 491 | 1210 | 2680 | 2980 | 7640 | 15700 |
| 2026-05-04 19:00 | 6.02 | 694 | 24800 (2013) | 174 (2000) | 2800 | 241 | 300 | 370 | 491 | 1210 | 2680 | 2980 | 7640 | 15700 |
| 2026-05-04 18:30 | 6.01 | 689 | 24800 (2013) | 174 (2000) | 2800 | 241 | 300 | 370 | 491 | 1210 | 2680 | 2980 | 7640 | 15700 |
| 2026-05-04 18:00 | 6.02 | 694 | 24800 (2013) | 174 (2000) | 2800 | 241 | 300 | 370 | 491 | 1210 | 2680 | 2980 | 7640 | 15700 |
| 2026-05-04 17:30 | 6.03 | 699 | 24800 (2013) | 174 (2000) | 2800 | 241 | 300 | 370 | 491 | 1210 | 2680 | 2980 | 7640 | 15700 |
| 2026-05-04 17:00 | 6.01 | 689 | 24800 (2013) | 174 (2000) | 2800 | 241 | 300 | 370 | 491 | 1210 | 2680 | 2980 | 7640 | 15700 |
| 2026-05-04 16:30 | 6.02 | 694 | 24800 (2013) | 174 (2000) | 2800 | 241 | 300 | 370 | 491 | 1210 | 2680 | 2980 | 7640 | 15700 |
| 2026-05-04 16:00 | 6.02 | 694 | 24800 (2013) | 174 (2000) | 2800 | 241 | 300 | 370 | 491 | 1210 | 2680 | 2980 | 7640 | 15700 |
| 2026-05-04 15:30 | 6.03 | 699 | 24800 (2013) | 174 (2000) | 2800 | 241 | 300 | 370 | 491 | 1210 | 2680 | 2980 | 7640 | 15700 |
| 2026-05-04 15:00 | 6.03 | 699 | 24800 (2013) | 174 (2000) | 2800 | 241 | 300 | 370 | 491 | 1210 | 2680 | 2980 | 7640 | 15700 |
| 2026-05-04 14:30 | 6.03 | 699 | 24800 (2013) | 174 (2000) | 2800 | 241 | 300 | 370 | 491 | 1210 | 2680 | 2980 | 7640 | 15700 |
| 2026-05-04 14:00 | 6.02 | 694 | 24800 (2013) | 174 (2000) | 2800 | 241 | 300 | 370 | 491 | 1210 | 2680 | 2980 | 7640 | 15700 |
| 2026-05-04 13:30 | 6.05 | 708 | 24800 (2013) | 174 (2000) | 2800 | 241 | 300 | 370 | 491 | 1210 | 2680 | 2980 | 7640 | 15700 |
| 2026-05-04 13:00 | 6.03 | 699 | 24800 (2013) | 174 (2000) | 2800 | 241 | 300 | 370 | 491 | 1210 | 2680 | 2980 | 7640 | 15700 |
| 2026-05-04 12:30 | 6.01 | 689 | 24800 (2013) | 174 (2000) | 2800 | 241 | 300 | 370 | 491 | 1210 | 2680 | 2980 | 7640 | 15700 |
| 2026-05-04 12:00 | 6.04 | 704 | 24800 (2013) | 174 (2000) | 2800 | 241 | 300 | 370 | 491 | 1210 | 2680 | 2980 | 7640 | 15700 |
| 2026-05-04 11:30 | 6.04 | 704 | 24800 (2013) | 174 (2000) | 2800 | 241 | 300 | 370 | 491 | 1210 | 2680 | 2980 | 7640 | 15700 |
| 2026-05-04 11:00 | 6.06 | 713 | 24800 (2013) | 174 (2000) | 2800 | 241 | 300 | 370 | 491 | 1210 | 2680 | 2980 | 7640 | 15700 |
| 2026-05-04 10:30 | 6.07 | 718 | 24800 (2013) | 174 (2000) | 2800 | 241 | 300 | 370 | 491 | 1210 | 2680 | 2980 | 7640 | 15700 |
| 2026-05-04 10:00 | 6.08 | 723 | 24800 (2013) | 174 (2000) | 2800 | 241 | 300 | 370 | 491 | 1210 | 2680 | 2980 | 7640 | 15700 |
| 2026-05-04 09:30 | 6.09 | 727 | 24800 (2013) | 174 (2000) | 2800 | 241 | 300 | 370 | 491 | 1210 | 2680 | 2980 | 7640 | 15700 |
| 2026-05-04 09:00 | 6.10 | 732 | 24800 (2013) | 174 (2000) | 2800 | 241 | 300 | 370 | 491 | 1210 | 2680 | 2980 | 7640 | 15700 |
| 2026-05-04 08:30 | 6.10 | 732 | 24800 (2013) | 174 (2000) | 2800 | 241 | 300 | 370 | 491 | 1210 | 2680 | 2980 | 7640 | 15700 |
| 2026-05-04 08:00 | 6.10 | 732 | 24800 (2013) | 174 (2000) | 2800 | 241 | 300 | 370 | 491 | 1210 | 2680 | 2980 | 7640 | 15700 |
| 2026-05-04 07:30 | 6.11 | 737 | 24800 (2013) | 174 (2000) | 2800 | 241 | 300 | 370 | 491 | 1210 | 2680 | 2980 | 7640 | 15700 |
| 2026-05-04 07:00 | 6.11 | 737 | 24800 (2013) | 174 (2000) | 2800 | 241 | 300 | 370 | 491 | 1210 | 2680 | 2980 | 7640 | 15700 |
| 2026-05-04 06:30 | 6.11 | 737 | 24800 (2013) | 174 (2000) | 2800 | 241 | 300 | 370 | 491 | 1210 | 2680 | 2980 | 7640 | 15700 |
| 2026-05-04 06:00 | 6.12 | 742 | 24800 (2013) | 174 (2000) | 2800 | 241 | 300 | 370 | 491 | 1210 | 2680 | 2980 | 7640 | 15700 |
| 2026-05-04 05:30 | 6.12 | 742 | 24800 (2013) | 174 (2000) | 2800 | 241 | 300 | 370 | 491 | 1210 | 2680 | 2980 | 7640 | 15700 |
| 2026-05-04 05:00 | 6.12 | 742 | 24800 (2013) | 174 (2000) | 2800 | 241 | 300 | 370 | 491 | 1210 | 2680 | 2980 | 7640 | 15700 |
| 2026-05-04 04:30 | 6.12 | 742 | 24800 (2013) | 174 (2000) | 2800 | 241 | 300 | 370 | 491 | 1210 | 2680 | 2980 | 7640 | 15700 |
| 2026-05-04 04:00 | 6.13 | 747 | 24800 (2013) | 174 (2000) | 2800 | 241 | 300 | 370 | 491 | 1210 | 2680 | 2980 | 7640 | 15700 |
| 2026-05-04 03:30 | 6.13 | 747 | 24800 (2013) | 174 (2000) | 2800 | 241 | 300 | 370 | 491 | 1210 | 2680 | 2980 | 7640 | 15700 |
| 2026-05-04 03:00 | 6.13 | 747 | 24800 (2013) | 174 (2000) | 2800 | 241 | 300 | 370 | 491 | 1210 | 2680 | 2980 | 7640 | 15700 |
| 2026-05-04 02:30 | 6.14 | 752 | 24800 (2013) | 174 (2000) | 2800 | 241 | 300 | 370 | 491 | 1210 | 2680 | 2980 | 7640 | 15700 |
| 2026-05-04 02:00 | 6.14 | 752 | 24800 (2013) | 174 (2000) | 2800 | 241 | 300 | 370 | 491 | 1210 | 2680 | 2980 | 7640 | 15700 |
| 2026-05-04 01:30 | 6.14 | 752 | 24800 (2013) | 174 (2000) | 2800 | 241 | 300 | 370 | 491 | 1210 | 2680 | 2980 | 7640 | 15700 |
| 2026-05-04 01:00 | 6.14 | 752 | 24800 (2013) | 174 (2000) | 2800 | 241 | 300 | 370 | 491 | 1210 | 2680 | 2980 | 7640 | 15700 |
| 2026-05-04 00:30 | 6.15 | 757 | 24800 (2013) | 174 (2000) | 2800 | 241 | 300 | 370 | 491 | 1210 | 2680 | 2980 | 7640 | 15700 |
| 2026-05-04 00:00 | 6.15 | 757 | 24800 (2013) | 174 (2000) | 2800 | 241 | 300 | 370 | 491 | 1210 | 2680 | 2980 | 7640 | 15700 |
| 2026-05-03 23:30 | 6.15 | 757 | 24800 (2013) | 174 (2000) | 2800 | 241 | 300 | 370 | 491 | 1210 | 2680 | 2980 | 7640 | 15700 |
| 2026-05-03 23:00 | 6.16 | 762 | 24800 (2013) | 174 (2000) | 2800 | 241 | 300 | 370 | 491 | 1210 | 2680 | 2980 | 7640 | 15700 |
| 2026-05-03 22:30 | 6.16 | 762 | 23900 (2011) | 180 (2000) | 2810 | 248 | 316 | 423 | 513 | 1310 | 3000 | 4220 | 6870 | 14900 |
| 2026-05-03 22:00 | 6.16 | 762 | 23900 (2011) | 180 (2000) | 2810 | 248 | 316 | 423 | 513 | 1310 | 3000 | 4220 | 6870 | 14900 |
| 2026-05-03 21:30 | 6.16 | 762 | 23900 (2011) | 180 (2000) | 2810 | 248 | 316 | 423 | 513 | 1310 | 3000 | 4220 | 6870 | 14900 |
| 2026-05-03 21:00 | 6.17 | 767 | 23900 (2011) | 180 (2000) | 2810 | 248 | 316 | 423 | 513 | 1310 | 3000 | 4220 | 6870 | 14900 |
| 2026-05-03 20:30 | 6.17 | 767 | 23900 (2011) | 180 (2000) | 2810 | 248 | 316 | 423 | 513 | 1310 | 3000 | 4220 | 6870 | 14900 |
| 2026-05-03 20:00 | 6.18 | 771 | 23900 (2011) | 180 (2000) | 2810 | 248 | 316 | 423 | 513 | 1310 | 3000 | 4220 | 6870 | 14900 |
| 2026-05-03 19:30 | 6.18 | 771 | 23900 (2011) | 180 (2000) | 2810 | 248 | 316 | 423 | 513 | 1310 | 3000 | 4220 | 6870 | 14900 |
| 2026-05-03 19:00 | 6.18 | 771 | 23900 (2011) | 180 (2000) | 2810 | 248 | 316 | 423 | 513 | 1310 | 3000 | 4220 | 6870 | 14900 |
| 2026-05-03 18:30 | 6.18 | 771 | 23900 (2011) | 180 (2000) | 2810 | 248 | 316 | 423 | 513 | 1310 | 3000 | 4220 | 6870 | 14900 |
| 2026-05-03 18:00 | 6.18 | 771 | 23900 (2011) | 180 (2000) | 2810 | 248 | 316 | 423 | 513 | 1310 | 3000 | 4220 | 6870 | 14900 |
| 2026-05-03 17:30 | 6.15 | 757 | 23900 (2011) | 180 (2000) | 2810 | 248 | 316 | 423 | 513 | 1310 | 3000 | 4220 | 6870 | 14900 |
| 2026-05-03 17:00 | 6.16 | 762 | 23900 (2011) | 180 (2000) | 2810 | 248 | 316 | 423 | 513 | 1310 | 3000 | 4220 | 6870 | 14900 |
| 2026-05-03 16:30 | 6.20 | 781 | 23900 (2011) | 180 (2000) | 2810 | 248 | 316 | 423 | 513 | 1310 | 3000 | 4220 | 6870 | 14900 |
| 2026-05-03 16:00 | 6.16 | 762 | 23900 (2011) | 180 (2000) | 2810 | 248 | 316 | 423 | 513 | 1310 | 3000 | 4220 | 6870 | 14900 |
| 2026-05-03 15:30 | 6.18 | 771 | 23900 (2011) | 180 (2000) | 2810 | 248 | 316 | 423 | 513 | 1310 | 3000 | 4220 | 6870 | 14900 |
| 2026-05-03 15:00 | 6.18 | 771 | 23900 (2011) | 180 (2000) | 2810 | 248 | 316 | 423 | 513 | 1310 | 3000 | 4220 | 6870 | 14900 |
| 2026-05-03 14:30 | 6.18 | 771 | 23900 (2011) | 180 (2000) | 2810 | 248 | 316 | 423 | 513 | 1310 | 3000 | 4220 | 6870 | 14900 |
| 2026-05-03 14:00 | 6.22 | 792 | 23900 (2011) | 180 (2000) | 2810 | 248 | 316 | 423 | 513 | 1310 | 3000 | 4220 | 6870 | 14900 |
| 2026-05-03 13:30 | 6.19 | 776 | 23900 (2011) | 180 (2000) | 2810 | 248 | 316 | 423 | 513 | 1310 | 3000 | 4220 | 6870 | 14900 |
| 2026-05-03 13:00 | 6.22 | 792 | 23900 (2011) | 180 (2000) | 2810 | 248 | 316 | 423 | 513 | 1310 | 3000 | 4220 | 6870 | 14900 |
| 2026-05-03 12:30 | 6.19 | 776 | 23900 (2011) | 180 (2000) | 2810 | 248 | 316 | 423 | 513 | 1310 | 3000 | 4220 | 6870 | 14900 |
| 2026-05-03 12:00 | 6.20 | 781 | 23900 (2011) | 180 (2000) | 2810 | 248 | 316 | 423 | 513 | 1310 | 3000 | 4220 | 6870 | 14900 |
| 2026-05-03 11:30 | 6.20 | 781 | 23900 (2011) | 180 (2000) | 2810 | 248 | 316 | 423 | 513 | 1310 | 3000 | 4220 | 6870 | 14900 |
| 2026-05-03 11:00 | 6.21 | 786 | 23900 (2011) | 180 (2000) | 2810 | 248 | 316 | 423 | 513 | 1310 | 3000 | 4220 | 6870 | 14900 |
| 2026-05-03 10:30 | 6.21 | 786 | 23900 (2011) | 180 (2000) | 2810 | 248 | 316 | 423 | 513 | 1310 | 3000 | 4220 | 6870 | 14900 |
| 2026-05-03 10:00 | 6.22 | 792 | 23900 (2011) | 180 (2000) | 2810 | 248 | 316 | 423 | 513 | 1310 | 3000 | 4220 | 6870 | 14900 |
| 2026-05-03 09:30 | 6.22 | 792 | 23900 (2011) | 180 (2000) | 2810 | 248 | 316 | 423 | 513 | 1310 | 3000 | 4220 | 6870 | 14900 |
| 2026-05-03 09:00 | 6.26 | 812 | 23900 (2011) | 180 (2000) | 2810 | 248 | 316 | 423 | 513 | 1310 | 3000 | 4220 | 6870 | 14900 |
| 2026-05-03 08:30 | 6.26 | 812 | 23900 (2011) | 180 (2000) | 2810 | 248 | 316 | 423 | 513 | 1310 | 3000 | 4220 | 6870 | 14900 |
| 2026-05-03 08:00 | 6.26 | 812 | 23900 (2011) | 180 (2000) | 2810 | 248 | 316 | 423 | 513 | 1310 | 3000 | 4220 | 6870 | 14900 |
| 2026-05-03 07:30 | 6.27 | 817 | 23900 (2011) | 180 (2000) | 2810 | 248 | 316 | 423 | 513 | 1310 | 3000 | 4220 | 6870 | 14900 |
| 2026-05-03 07:00 | 6.27 | 817 | 23900 (2011) | 180 (2000) | 2810 | 248 | 316 | 423 | 513 | 1310 | 3000 | 4220 | 6870 | 14900 |
| 2026-05-03 06:30 | 6.28 | 822 | 23900 (2011) | 180 (2000) | 2810 | 248 | 316 | 423 | 513 | 1310 | 3000 | 4220 | 6870 | 14900 |
| 2026-05-03 06:00 | 6.28 | 822 | 23900 (2011) | 180 (2000) | 2810 | 248 | 316 | 423 | 513 | 1310 | 3000 | 4220 | 6870 | 14900 |
| 2026-05-03 05:30 | 6.28 | 822 | 23900 (2011) | 180 (2000) | 2810 | 248 | 316 | 423 | 513 | 1310 | 3000 | 4220 | 6870 | 14900 |
| 2026-05-03 05:00 | 6.29 | 827 | 23900 (2011) | 180 (2000) | 2810 | 248 | 316 | 423 | 513 | 1310 | 3000 | 4220 | 6870 | 14900 |
| 2026-05-03 04:30 | 6.29 | 827 | 23900 (2011) | 180 (2000) | 2810 | 248 | 316 | 423 | 513 | 1310 | 3000 | 4220 | 6870 | 14900 |
| 2026-05-03 04:00 | 6.29 | 827 | 23900 (2011) | 180 (2000) | 2810 | 248 | 316 | 423 | 513 | 1310 | 3000 | 4220 | 6870 | 14900 |
| 2026-05-03 03:30 | 6.30 | 833 | 23900 (2011) | 180 (2000) | 2810 | 248 | 316 | 423 | 513 | 1310 | 3000 | 4220 | 6870 | 14900 |
| 2026-05-03 03:00 | 6.30 | 833 | 23900 (2011) | 180 (2000) | 2810 | 248 | 316 | 423 | 513 | 1310 | 3000 | 4220 | 6870 | 14900 |
| 2026-05-03 02:30 | 6.31 | 838 | 23900 (2011) | 180 (2000) | 2810 | 248 | 316 | 423 | 513 | 1310 | 3000 | 4220 | 6870 | 14900 |
| 2026-05-03 02:00 | 6.31 | 838 | 23900 (2011) | 180 (2000) | 2810 | 248 | 316 | 423 | 513 | 1310 | 3000 | 4220 | 6870 | 14900 |
| 2026-05-03 01:30 | 6.31 | 838 | 23900 (2011) | 180 (2000) | 2810 | 248 | 316 | 423 | 513 | 1310 | 3000 | 4220 | 6870 | 14900 |
| 2026-05-03 01:00 | 6.32 | 843 | 23900 (2011) | 180 (2000) | 2810 | 248 | 316 | 423 | 513 | 1310 | 3000 | 4220 | 6870 | 14900 |
| 2026-05-03 00:30 | 6.32 | 843 | 23900 (2011) | 180 (2000) | 2810 | 248 | 316 | 423 | 513 | 1310 | 3000 | 4220 | 6870 | 14900 |
| 2026-05-03 00:00 | 6.32 | 843 | 23900 (2011) | 180 (2000) | 2810 | 248 | 316 | 423 | 513 | 1310 | 3000 | 4220 | 6870 | 14900 |
| 2026-05-02 23:30 | 6.33 | 848 | 23900 (2011) | 180 (2000) | 2810 | 248 | 316 | 423 | 513 | 1310 | 3000 | 4220 | 6870 | 14900 |
| 2026-05-02 23:00 | 6.33 | 848 | 23900 (2011) | 180 (2000) | 2810 | 248 | 316 | 423 | 513 | 1310 | 3000 | 4220 | 6870 | 14900 |
| 2026-05-02 22:30 | 6.34 | 854 | 34500 (2011) | 187 (2000) | 2890 | 253 | 313 | 442 | 539 | 1150 | 2640 | 2940 | 9690 | 13700 |
| 2026-05-02 22:00 | 6.34 | 854 | 34500 (2011) | 187 (2000) | 2890 | 253 | 313 | 442 | 539 | 1150 | 2640 | 2940 | 9690 | 13700 |
| 2026-05-02 21:30 | 6.35 | 859 | 34500 (2011) | 187 (2000) | 2890 | 253 | 313 | 442 | 539 | 1150 | 2640 | 2940 | 9690 | 13700 |
| 2026-05-02 21:00 | 6.35 | 859 | 34500 (2011) | 187 (2000) | 2890 | 253 | 313 | 442 | 539 | 1150 | 2640 | 2940 | 9690 | 13700 |
| 2026-05-02 20:30 | 6.35 | 859 | 34500 (2011) | 187 (2000) | 2890 | 253 | 313 | 442 | 539 | 1150 | 2640 | 2940 | 9690 | 13700 |
| 2026-05-02 20:00 | 6.36 | 864 | 34500 (2011) | 187 (2000) | 2890 | 253 | 313 | 442 | 539 | 1150 | 2640 | 2940 | 9690 | 13700 |
| 2026-05-02 19:30 | 6.36 | 864 | 34500 (2011) | 187 (2000) | 2890 | 253 | 313 | 442 | 539 | 1150 | 2640 | 2940 | 9690 | 13700 |
| 2026-05-02 19:00 | 6.37 | 869 | 34500 (2011) | 187 (2000) | 2890 | 253 | 313 | 442 | 539 | 1150 | 2640 | 2940 | 9690 | 13700 |
| 2026-05-02 18:30 | 6.38 | 875 | 34500 (2011) | 187 (2000) | 2890 | 253 | 313 | 442 | 539 | 1150 | 2640 | 2940 | 9690 | 13700 |
| 2026-05-02 18:00 | 6.38 | 875 | 34500 (2011) | 187 (2000) | 2890 | 253 | 313 | 442 | 539 | 1150 | 2640 | 2940 | 9690 | 13700 |
| 2026-05-02 17:30 | 6.39 | 880 | 34500 (2011) | 187 (2000) | 2890 | 253 | 313 | 442 | 539 | 1150 | 2640 | 2940 | 9690 | 13700 |
| 2026-05-02 17:00 | 6.38 | 875 | 34500 (2011) | 187 (2000) | 2890 | 253 | 313 | 442 | 539 | 1150 | 2640 | 2940 | 9690 | 13700 |
| 2026-05-02 16:30 | 6.40 | 885 | 34500 (2011) | 187 (2000) | 2890 | 253 | 313 | 442 | 539 | 1150 | 2640 | 2940 | 9690 | 13700 |
| 2026-05-02 16:00 | 6.40 | 885 | 34500 (2011) | 187 (2000) | 2890 | 253 | 313 | 442 | 539 | 1150 | 2640 | 2940 | 9690 | 13700 |
| 2026-05-02 15:30 | 6.41 | 891 | 34500 (2011) | 187 (2000) | 2890 | 253 | 313 | 442 | 539 | 1150 | 2640 | 2940 | 9690 | 13700 |
| 2026-05-02 15:00 | 6.41 | 891 | 34500 (2011) | 187 (2000) | 2890 | 253 | 313 | 442 | 539 | 1150 | 2640 | 2940 | 9690 | 13700 |
| 2026-05-02 14:30 | 6.42 | 896 | 34500 (2011) | 187 (2000) | 2890 | 253 | 313 | 442 | 539 | 1150 | 2640 | 2940 | 9690 | 13700 |
| 2026-05-02 14:00 | 6.42 | 896 | 34500 (2011) | 187 (2000) | 2890 | 253 | 313 | 442 | 539 | 1150 | 2640 | 2940 | 9690 | 13700 |
| 2026-05-02 13:30 | 6.42 | 896 | 34500 (2011) | 187 (2000) | 2890 | 253 | 313 | 442 | 539 | 1150 | 2640 | 2940 | 9690 | 13700 |
| 2026-05-02 13:00 | 6.41 | 891 | 34500 (2011) | 187 (2000) | 2890 | 253 | 313 | 442 | 539 | 1150 | 2640 | 2940 | 9690 | 13700 |
| 2026-05-02 12:30 | 6.43 | 902 | 34500 (2011) | 187 (2000) | 2890 | 253 | 313 | 442 | 539 | 1150 | 2640 | 2940 | 9690 | 13700 |
| 2026-05-02 12:00 | 6.42 | 896 | 34500 (2011) | 187 (2000) | 2890 | 253 | 313 | 442 | 539 | 1150 | 2640 | 2940 | 9690 | 13700 |
| 2026-05-02 11:30 | 6.42 | 896 | 34500 (2011) | 187 (2000) | 2890 | 253 | 313 | 442 | 539 | 1150 | 2640 | 2940 | 9690 | 13700 |
| 2026-05-02 11:00 | 6.42 | 896 | 34500 (2011) | 187 (2000) | 2890 | 253 | 313 | 442 | 539 | 1150 | 2640 | 2940 | 9690 | 13700 |
| 2026-05-02 10:30 | 6.45 | 913 | 34500 (2011) | 187 (2000) | 2890 | 253 | 313 | 442 | 539 | 1150 | 2640 | 2940 | 9690 | 13700 |
| 2026-05-02 10:00 | 6.46 | 918 | 34500 (2011) | 187 (2000) | 2890 | 253 | 313 | 442 | 539 | 1150 | 2640 | 2940 | 9690 | 13700 |
| 2026-05-02 09:30 | 6.46 | 918 | 34500 (2011) | 187 (2000) | 2890 | 253 | 313 | 442 | 539 | 1150 | 2640 | 2940 | 9690 | 13700 |
| 2026-05-02 09:00 | 6.47 | 924 | 34500 (2011) | 187 (2000) | 2890 | 253 | 313 | 442 | 539 | 1150 | 2640 | 2940 | 9690 | 13700 |
| 2026-05-02 08:30 | 6.47 | 924 | 34500 (2011) | 187 (2000) | 2890 | 253 | 313 | 442 | 539 | 1150 | 2640 | 2940 | 9690 | 13700 |
| 2026-05-02 08:00 | 6.48 | 929 | 34500 (2011) | 187 (2000) | 2890 | 253 | 313 | 442 | 539 | 1150 | 2640 | 2940 | 9690 | 13700 |
| 2026-05-02 07:30 | 6.48 | 929 | 34500 (2011) | 187 (2000) | 2890 | 253 | 313 | 442 | 539 | 1150 | 2640 | 2940 | 9690 | 13700 |
| 2026-05-02 07:00 | 6.49 | 935 | 34500 (2011) | 187 (2000) | 2890 | 253 | 313 | 442 | 539 | 1150 | 2640 | 2940 | 9690 | 13700 |
| 2026-05-02 06:30 | 6.50 | 940 | 34500 (2011) | 187 (2000) | 2890 | 253 | 313 | 442 | 539 | 1150 | 2640 | 2940 | 9690 | 13700 |
| 2026-05-02 06:00 | 6.50 | 940 | 34500 (2011) | 187 (2000) | 2890 | 253 | 313 | 442 | 539 | 1150 | 2640 | 2940 | 9690 | 13700 |
| 2026-05-02 05:30 | 6.51 | 946 | 34500 (2011) | 187 (2000) | 2890 | 253 | 313 | 442 | 539 | 1150 | 2640 | 2940 | 9690 | 13700 |
| 2026-05-02 05:00 | 6.51 | 946 | 34500 (2011) | 187 (2000) | 2890 | 253 | 313 | 442 | 539 | 1150 | 2640 | 2940 | 9690 | 13700 |
| 2026-05-02 04:30 | 6.52 | 951 | 34500 (2011) | 187 (2000) | 2890 | 253 | 313 | 442 | 539 | 1150 | 2640 | 2940 | 9690 | 13700 |
| 2026-05-02 04:00 | 6.52 | 951 | 34500 (2011) | 187 (2000) | 2890 | 253 | 313 | 442 | 539 | 1150 | 2640 | 2940 | 9690 | 13700 |
| 2026-05-02 03:30 | 6.53 | 957 | 34500 (2011) | 187 (2000) | 2890 | 253 | 313 | 442 | 539 | 1150 | 2640 | 2940 | 9690 | 13700 |
| 2026-05-02 03:00 | 6.53 | 957 | 34500 (2011) | 187 (2000) | 2890 | 253 | 313 | 442 | 539 | 1150 | 2640 | 2940 | 9690 | 13700 |
| 2026-05-02 02:30 | 6.54 | 963 | 34500 (2011) | 187 (2000) | 2890 | 253 | 313 | 442 | 539 | 1150 | 2640 | 2940 | 9690 | 13700 |
| 2026-05-02 02:00 | 6.55 | 968 | 34500 (2011) | 187 (2000) | 2890 | 253 | 313 | 442 | 539 | 1150 | 2640 | 2940 | 9690 | 13700 |
| 2026-05-02 01:30 | 6.55 | 968 | 34500 (2011) | 187 (2000) | 2890 | 253 | 313 | 442 | 539 | 1150 | 2640 | 2940 | 9690 | 13700 |
| 2026-05-02 01:00 | 6.56 | 974 | 34500 (2011) | 187 (2000) | 2890 | 253 | 313 | 442 | 539 | 1150 | 2640 | 2940 | 9690 | 13700 |
| 2026-05-02 00:30 | 6.57 | 980 | 34500 (2011) | 187 (2000) | 2890 | 253 | 313 | 442 | 539 | 1150 | 2640 | 2940 | 9690 | 13700 |
| 2026-05-02 00:00 | 6.57 | 980 | 34500 (2011) | 187 (2000) | 2890 | 253 | 313 | 442 | 539 | 1150 | 2640 | 2940 | 9690 | 13700 |
| 2026-05-01 23:30 | 6.58 | 985 | 34500 (2011) | 187 (2000) | 2890 | 253 | 313 | 442 | 539 | 1150 | 2640 | 2940 | 9690 | 13700 |
| 2026-05-01 23:00 | 6.59 | 991 | 34500 (2011) | 187 (2000) | 2890 | 253 | 313 | 442 | 539 | 1150 | 2640 | 2940 | 9690 | 13700 |
| 2026-05-01 22:30 | 6.59 | 991 | 67700 (2017) | 185 (2000) | 3370 | 262 | 336 | 442 | 524 | 1110 | 3110 | 3510 | 5060 | 11300 |
| 2026-05-01 22:00 | 6.59 | 991 | 67700 (2017) | 185 (2000) | 3370 | 262 | 336 | 442 | 524 | 1110 | 3110 | 3510 | 5060 | 11300 |
| 2026-05-01 21:30 | 6.60 | 997 | 67700 (2017) | 185 (2000) | 3370 | 262 | 336 | 442 | 524 | 1110 | 3110 | 3510 | 5060 | 11300 |
| 2026-05-01 21:00 | 6.61 | 1000 | 67700 (2017) | 185 (2000) | 3370 | 262 | 336 | 442 | 524 | 1110 | 3110 | 3510 | 5060 | 11300 |
| 2026-05-01 20:30 | 6.61 | 1000 | 67700 (2017) | 185 (2000) | 3370 | 262 | 336 | 442 | 524 | 1110 | 3110 | 3510 | 5060 | 11300 |
| 2026-05-01 20:00 | 6.62 | 1010 | 67700 (2017) | 185 (2000) | 3370 | 262 | 336 | 442 | 524 | 1110 | 3110 | 3510 | 5060 | 11300 |
| 2026-05-01 19:30 | 6.63 | 1010 | 67700 (2017) | 185 (2000) | 3370 | 262 | 336 | 442 | 524 | 1110 | 3110 | 3510 | 5060 | 11300 |
| 2026-05-01 19:00 | 6.64 | 1020 | 67700 (2017) | 185 (2000) | 3370 | 262 | 336 | 442 | 524 | 1110 | 3110 | 3510 | 5060 | 11300 |
| 2026-05-01 18:30 | 6.65 | 1030 | 67700 (2017) | 185 (2000) | 3370 | 262 | 336 | 442 | 524 | 1110 | 3110 | 3510 | 5060 | 11300 |
| 2026-05-01 18:00 | 6.65 | 1030 | 67700 (2017) | 185 (2000) | 3370 | 262 | 336 | 442 | 524 | 1110 | 3110 | 3510 | 5060 | 11300 |
| 2026-05-01 17:30 | 6.66 | 1030 | 67700 (2017) | 185 (2000) | 3370 | 262 | 336 | 442 | 524 | 1110 | 3110 | 3510 | 5060 | 11300 |
| 2026-05-01 17:00 | 6.67 | 1040 | 67700 (2017) | 185 (2000) | 3370 | 262 | 336 | 442 | 524 | 1110 | 3110 | 3510 | 5060 | 11300 |
| 2026-05-01 16:30 | 6.68 | 1040 | 67700 (2017) | 185 (2000) | 3370 | 262 | 336 | 442 | 524 | 1110 | 3110 | 3510 | 5060 | 11300 |
| 2026-05-01 16:00 | 6.69 | 1050 | 67700 (2017) | 185 (2000) | 3370 | 262 | 336 | 442 | 524 | 1110 | 3110 | 3510 | 5060 | 11300 |
| 2026-05-01 15:30 | 6.70 | 1060 | 67700 (2017) | 185 (2000) | 3370 | 262 | 336 | 442 | 524 | 1110 | 3110 | 3510 | 5060 | 11300 |
| 2026-05-01 15:00 | 6.71 | 1060 | 67700 (2017) | 185 (2000) | 3370 | 262 | 336 | 442 | 524 | 1110 | 3110 | 3510 | 5060 | 11300 |
| 2026-05-01 14:30 | 6.71 | 1060 | 67700 (2017) | 185 (2000) | 3370 | 262 | 336 | 442 | 524 | 1110 | 3110 | 3510 | 5060 | 11300 |
| 2026-05-01 14:00 | 6.72 | 1070 | 67700 (2017) | 185 (2000) | 3370 | 262 | 336 | 442 | 524 | 1110 | 3110 | 3510 | 5060 | 11300 |
| 2026-05-01 13:30 | 6.73 | 1070 | 67700 (2017) | 185 (2000) | 3370 | 262 | 336 | 442 | 524 | 1110 | 3110 | 3510 | 5060 | 11300 |
| 2026-05-01 13:00 | 6.69 | 1050 | 67700 (2017) | 185 (2000) | 3370 | 262 | 336 | 442 | 524 | 1110 | 3110 | 3510 | 5060 | 11300 |
| 2026-05-01 12:30 | 6.74 | 1080 | 67700 (2017) | 185 (2000) | 3370 | 262 | 336 | 442 | 524 | 1110 | 3110 | 3510 | 5060 | 11300 |
| 2026-05-01 12:00 | 6.75 | 1090 | 67700 (2017) | 185 (2000) | 3370 | 262 | 336 | 442 | 524 | 1110 | 3110 | 3510 | 5060 | 11300 |
| 2026-05-01 11:30 | 6.75 | 1090 | 67700 (2017) | 185 (2000) | 3370 | 262 | 336 | 442 | 524 | 1110 | 3110 | 3510 | 5060 | 11300 |
| 2026-05-01 11:00 | 6.76 | 1090 | 67700 (2017) | 185 (2000) | 3370 | 262 | 336 | 442 | 524 | 1110 | 3110 | 3510 | 5060 | 11300 |
| 2026-05-01 10:30 | 6.77 | 1100 | 67700 (2017) | 185 (2000) | 3370 | 262 | 336 | 442 | 524 | 1110 | 3110 | 3510 | 5060 | 11300 |
| 2026-05-01 10:00 | 6.78 | 1100 | 67700 (2017) | 185 (2000) | 3370 | 262 | 336 | 442 | 524 | 1110 | 3110 | 3510 | 5060 | 11300 |
| 2026-05-01 09:30 | 6.79 | 1110 | 67700 (2017) | 185 (2000) | 3370 | 262 | 336 | 442 | 524 | 1110 | 3110 | 3510 | 5060 | 11300 |
| 2026-05-01 09:00 | 6.77 | 1100 | 67700 (2017) | 185 (2000) | 3370 | 262 | 336 | 442 | 524 | 1110 | 3110 | 3510 | 5060 | 11300 |
| 2026-05-01 08:30 | 6.81 | 1120 | 67700 (2017) | 185 (2000) | 3370 | 262 | 336 | 442 | 524 | 1110 | 3110 | 3510 | 5060 | 11300 |
| 2026-05-01 08:00 | 6.82 | 1130 | 67700 (2017) | 185 (2000) | 3370 | 262 | 336 | 442 | 524 | 1110 | 3110 | 3510 | 5060 | 11300 |
| 2026-05-01 07:30 | 6.83 | 1130 | 67700 (2017) | 185 (2000) | 3370 | 262 | 336 | 442 | 524 | 1110 | 3110 | 3510 | 5060 | 11300 |
| 2026-05-01 07:00 | 6.84 | 1140 | 67700 (2017) | 185 (2000) | 3370 | 262 | 336 | 442 | 524 | 1110 | 3110 | 3510 | 5060 | 11300 |
| 2026-05-01 06:30 | 6.84 | 1140 | 67700 (2017) | 185 (2000) | 3370 | 262 | 336 | 442 | 524 | 1110 | 3110 | 3510 | 5060 | 11300 |
| 2026-05-01 06:00 | 6.86 | 1150 | 67700 (2017) | 185 (2000) | 3370 | 262 | 336 | 442 | 524 | 1110 | 3110 | 3510 | 5060 | 11300 |
| 2026-05-01 05:30 | 6.87 | 1160 | 67700 (2017) | 185 (2000) | 3370 | 262 | 336 | 442 | 524 | 1110 | 3110 | 3510 | 5060 | 11300 |
| 2026-05-01 05:00 | 6.88 | 1170 | 67700 (2017) | 185 (2000) | 3370 | 262 | 336 | 442 | 524 | 1110 | 3110 | 3510 | 5060 | 11300 |
| 2026-05-01 04:30 | 6.89 | 1170 | 67700 (2017) | 185 (2000) | 3370 | 262 | 336 | 442 | 524 | 1110 | 3110 | 3510 | 5060 | 11300 |
| 2026-05-01 04:00 | 6.90 | 1180 | 67700 (2017) | 185 (2000) | 3370 | 262 | 336 | 442 | 524 | 1110 | 3110 | 3510 | 5060 | 11300 |
| 2026-05-01 03:30 | 6.91 | 1180 | 67700 (2017) | 185 (2000) | 3370 | 262 | 336 | 442 | 524 | 1110 | 3110 | 3510 | 5060 | 11300 |
| 2026-05-01 03:00 | 6.92 | 1190 | 67700 (2017) | 185 (2000) | 3370 | 262 | 336 | 442 | 524 | 1110 | 3110 | 3510 | 5060 | 11300 |
| 2026-05-01 02:30 | 6.93 | 1200 | 67700 (2017) | 185 (2000) | 3370 | 262 | 336 | 442 | 524 | 1110 | 3110 | 3510 | 5060 | 11300 |
| 2026-05-01 02:00 | 6.94 | 1200 | 67700 (2017) | 185 (2000) | 3370 | 262 | 336 | 442 | 524 | 1110 | 3110 | 3510 | 5060 | 11300 |
| 2026-05-01 01:30 | 6.95 | 1210 | 67700 (2017) | 185 (2000) | 3370 | 262 | 336 | 442 | 524 | 1110 | 3110 | 3510 | 5060 | 11300 |
| 2026-05-01 01:00 | 6.97 | 1220 | 67700 (2017) | 185 (2000) | 3370 | 262 | 336 | 442 | 524 | 1110 | 3110 | 3510 | 5060 | 11300 |
| 2026-05-01 00:30 | 6.98 | 1230 | 67700 (2017) | 185 (2000) | 3370 | 262 | 336 | 442 | 524 | 1110 | 3110 | 3510 | 5060 | 11300 |
| 2026-05-01 00:00 | 6.99 | 1240 | 67700 (2017) | 185 (2000) | 3370 | 262 | 336 | 442 | 524 | 1110 | 3110 | 3510 | 5060 | 11300 |
| 2026-04-30 23:30 | 7.00 | 1240 | 67700 (2017) | 185 (2000) | 3370 | 262 | 336 | 442 | 524 | 1110 | 3110 | 3510 | 5060 | 11300 |
| 2026-04-30 23:00 | 7.01 | 1250 | 67700 (2017) | 185 (2000) | 3370 | 262 | 336 | 442 | 524 | 1110 | 3110 | 3510 | 5060 | 11300 |
| 2026-04-30 22:30 | 7.02 | 1260 | 113000 (2017) | 183 (2000) | 3750 | 277 | 323 | 476 | 547 | 1060 | 2490 | 2990 | 5570 | 8600 |
| 2026-04-30 22:00 | 7.04 | 1270 | 113000 (2017) | 183 (2000) | 3750 | 277 | 323 | 476 | 547 | 1060 | 2490 | 2990 | 5570 | 8600 |
| 2026-04-30 21:30 | 7.04 | 1270 | 113000 (2017) | 183 (2000) | 3750 | 277 | 323 | 476 | 547 | 1060 | 2490 | 2990 | 5570 | 8600 |
| 2026-04-30 21:00 | 7.06 | 1280 | 113000 (2017) | 183 (2000) | 3750 | 277 | 323 | 476 | 547 | 1060 | 2490 | 2990 | 5570 | 8600 |
| 2026-04-30 20:30 | 7.07 | 1290 | 113000 (2017) | 183 (2000) | 3750 | 277 | 323 | 476 | 547 | 1060 | 2490 | 2990 | 5570 | 8600 |
| 2026-04-30 20:00 | 7.09 | 1300 | 113000 (2017) | 183 (2000) | 3750 | 277 | 323 | 476 | 547 | 1060 | 2490 | 2990 | 5570 | 8600 |
| 2026-04-30 19:30 | 7.10 | 1310 | 113000 (2017) | 183 (2000) | 3750 | 277 | 323 | 476 | 547 | 1060 | 2490 | 2990 | 5570 | 8600 |
| 2026-04-30 19:00 | 7.11 | 1320 | 113000 (2017) | 183 (2000) | 3750 | 277 | 323 | 476 | 547 | 1060 | 2490 | 2990 | 5570 | 8600 |
| 2026-04-30 18:30 | 7.13 | 1330 | 113000 (2017) | 183 (2000) | 3750 | 277 | 323 | 476 | 547 | 1060 | 2490 | 2990 | 5570 | 8600 |
| 2026-04-30 18:00 | 7.15 | 1340 | 113000 (2017) | 183 (2000) | 3750 | 277 | 323 | 476 | 547 | 1060 | 2490 | 2990 | 5570 | 8600 |
| 2026-04-30 17:30 | 7.16 | 1350 | 113000 (2017) | 183 (2000) | 3750 | 277 | 323 | 476 | 547 | 1060 | 2490 | 2990 | 5570 | 8600 |
| 2026-04-30 17:00 | 7.18 | 1360 | 113000 (2017) | 183 (2000) | 3750 | 277 | 323 | 476 | 547 | 1060 | 2490 | 2990 | 5570 | 8600 |
| 2026-04-30 16:30 | 7.19 | 1370 | 113000 (2017) | 183 (2000) | 3750 | 277 | 323 | 476 | 547 | 1060 | 2490 | 2990 | 5570 | 8600 |
| 2026-04-30 16:00 | 7.21 | 1380 | 113000 (2017) | 183 (2000) | 3750 | 277 | 323 | 476 | 547 | 1060 | 2490 | 2990 | 5570 | 8600 |
| 2026-04-30 15:30 | 7.22 | 1390 | 113000 (2017) | 183 (2000) | 3750 | 277 | 323 | 476 | 547 | 1060 | 2490 | 2990 | 5570 | 8600 |
| 2026-04-30 15:00 | 7.24 | 1410 | 113000 (2017) | 183 (2000) | 3750 | 277 | 323 | 476 | 547 | 1060 | 2490 | 2990 | 5570 | 8600 |
| 2026-04-30 14:30 | 7.26 | 1420 | 113000 (2017) | 183 (2000) | 3750 | 277 | 323 | 476 | 547 | 1060 | 2490 | 2990 | 5570 | 8600 |
| 2026-04-30 14:00 | 7.27 | 1430 | 113000 (2017) | 183 (2000) | 3750 | 277 | 323 | 476 | 547 | 1060 | 2490 | 2990 | 5570 | 8600 |
| 2026-04-30 13:30 | 7.28 | 1430 | 113000 (2017) | 183 (2000) | 3750 | 277 | 323 | 476 | 547 | 1060 | 2490 | 2990 | 5570 | 8600 |
| 2026-04-30 13:00 | 7.28 | 1430 | 113000 (2017) | 183 (2000) | 3750 | 277 | 323 | 476 | 547 | 1060 | 2490 | 2990 | 5570 | 8600 |
| 2026-04-30 12:30 | 7.31 | 1450 | 113000 (2017) | 183 (2000) | 3750 | 277 | 323 | 476 | 547 | 1060 | 2490 | 2990 | 5570 | 8600 |
| 2026-04-30 12:00 | 7.33 | 1470 | 113000 (2017) | 183 (2000) | 3750 | 277 | 323 | 476 | 547 | 1060 | 2490 | 2990 | 5570 | 8600 |
| 2026-04-30 11:30 | 7.34 | 1480 | 113000 (2017) | 183 (2000) | 3750 | 277 | 323 | 476 | 547 | 1060 | 2490 | 2990 | 5570 | 8600 |
| 2026-04-30 11:00 | 7.36 | 1490 | 113000 (2017) | 183 (2000) | 3750 | 277 | 323 | 476 | 547 | 1060 | 2490 | 2990 | 5570 | 8600 |
| 2026-04-30 10:30 | 7.37 | 1500 | 113000 (2017) | 183 (2000) | 3750 | 277 | 323 | 476 | 547 | 1060 | 2490 | 2990 | 5570 | 8600 |
| 2026-04-30 10:00 | 7.38 | 1510 | 113000 (2017) | 183 (2000) | 3750 | 277 | 323 | 476 | 547 | 1060 | 2490 | 2990 | 5570 | 8600 |
| 2026-04-30 09:30 | 7.38 | 1510 | 113000 (2017) | 183 (2000) | 3750 | 277 | 323 | 476 | 547 | 1060 | 2490 | 2990 | 5570 | 8600 |
| 2026-04-30 09:00 | 7.40 | 1520 | 113000 (2017) | 183 (2000) | 3750 | 277 | 323 | 476 | 547 | 1060 | 2490 | 2990 | 5570 | 8600 |
| 2026-04-30 08:30 | 7.42 | 1530 | 113000 (2017) | 183 (2000) | 3750 | 277 | 323 | 476 | 547 | 1060 | 2490 | 2990 | 5570 | 8600 |
| 2026-04-30 08:00 | 7.42 | 1530 | 113000 (2017) | 183 (2000) | 3750 | 277 | 323 | 476 | 547 | 1060 | 2490 | 2990 | 5570 | 8600 |
| 2026-04-30 07:30 | 7.43 | 1540 | 113000 (2017) | 183 (2000) | 3750 | 277 | 323 | 476 | 547 | 1060 | 2490 | 2990 | 5570 | 8600 |
| 2026-04-30 07:00 | 7.42 | 1530 | 113000 (2017) | 183 (2000) | 3750 | 277 | 323 | 476 | 547 | 1060 | 2490 | 2990 | 5570 | 8600 |
| 2026-04-30 06:30 | 7.43 | 1540 | 113000 (2017) | 183 (2000) | 3750 | 277 | 323 | 476 | 547 | 1060 | 2490 | 2990 | 5570 | 8600 |
| 2026-04-30 06:00 | 7.42 | 1530 | 113000 (2017) | 183 (2000) | 3750 | 277 | 323 | 476 | 547 | 1060 | 2490 | 2990 | 5570 | 8600 |
| 2026-04-30 05:30 | 7.41 | 1530 | 113000 (2017) | 183 (2000) | 3750 | 277 | 323 | 476 | 547 | 1060 | 2490 | 2990 | 5570 | 8600 |
| 2026-04-30 05:00 | 7.40 | 1520 | 113000 (2017) | 183 (2000) | 3750 | 277 | 323 | 476 | 547 | 1060 | 2490 | 2990 | 5570 | 8600 |
| 2026-04-30 04:30 | 7.38 | 1510 | 113000 (2017) | 183 (2000) | 3750 | 277 | 323 | 476 | 547 | 1060 | 2490 | 2990 | 5570 | 8600 |
| 2026-04-30 04:00 | 7.36 | 1490 | 113000 (2017) | 183 (2000) | 3750 | 277 | 323 | 476 | 547 | 1060 | 2490 | 2990 | 5570 | 8600 |
| 2026-04-30 03:30 | 7.34 | 1480 | 113000 (2017) | 183 (2000) | 3750 | 277 | 323 | 476 | 547 | 1060 | 2490 | 2990 | 5570 | 8600 |
| 2026-04-30 03:00 | 7.31 | 1450 | 113000 (2017) | 183 (2000) | 3750 | 277 | 323 | 476 | 547 | 1060 | 2490 | 2990 | 5570 | 8600 |
| 2026-04-30 02:30 | 7.28 | 1430 | 113000 (2017) | 183 (2000) | 3750 | 277 | 323 | 476 | 547 | 1060 | 2490 | 2990 | 5570 | 8600 |
| 2026-04-30 02:00 | 7.24 | 1410 | 113000 (2017) | 183 (2000) | 3750 | 277 | 323 | 476 | 547 | 1060 | 2490 | 2990 | 5570 | 8600 |
| 2026-04-30 01:30 | 7.21 | 1380 | 113000 (2017) | 183 (2000) | 3750 | 277 | 323 | 476 | 547 | 1060 | 2490 | 2990 | 5570 | 8600 |
| 2026-04-30 01:00 | 7.18 | 1360 | 113000 (2017) | 183 (2000) | 3750 | 277 | 323 | 476 | 547 | 1060 | 2490 | 2990 | 5570 | 8600 |
| 2026-04-30 00:30 | 7.16 | 1350 | 113000 (2017) | 183 (2000) | 3750 | 277 | 323 | 476 | 547 | 1060 | 2490 | 2990 | 5570 | 8600 |
| 2026-04-30 00:00 | 7.14 | 1340 | 113000 (2017) | 183 (2000) | 3750 | 277 | 323 | 476 | 547 | 1060 | 2490 | 2990 | 5570 | 8600 |
| 2026-04-29 23:30 | 7.12 | 1320 | 113000 (2017) | 183 (2000) | 3750 | 277 | 323 | 476 | 547 | 1060 | 2490 | 2990 | 5570 | 8600 |
| 2026-04-29 23:00 | 7.12 | 1320 | 113000 (2017) | 183 (2000) | 3750 | 277 | 323 | 476 | 547 | 1060 | 2490 | 2990 | 5570 | 8600 |
| 2026-04-29 22:30 | 7.12 | 1320 | 35700 (2017) | 193 (2000) | 2390 | 266 | 328 | 459 | 567 | 1060 | 2030 | 2240 | 4820 | 11200 |
| 2026-04-29 22:00 | 7.12 | 1320 | 35700 (2017) | 193 (2000) | 2390 | 266 | 328 | 459 | 567 | 1060 | 2030 | 2240 | 4820 | 11200 |
| 2026-04-29 21:30 | 7.13 | 1330 | 35700 (2017) | 193 (2000) | 2390 | 266 | 328 | 459 | 567 | 1060 | 2030 | 2240 | 4820 | 11200 |
| 2026-04-29 21:00 | 7.14 | 1340 | 35700 (2017) | 193 (2000) | 2390 | 266 | 328 | 459 | 567 | 1060 | 2030 | 2240 | 4820 | 11200 |
| 2026-04-29 20:30 | 7.15 | 1340 | 35700 (2017) | 193 (2000) | 2390 | 266 | 328 | 459 | 567 | 1060 | 2030 | 2240 | 4820 | 11200 |
| 2026-04-29 20:00 | 7.16 | 1350 | 35700 (2017) | 193 (2000) | 2390 | 266 | 328 | 459 | 567 | 1060 | 2030 | 2240 | 4820 | 11200 |
| 2026-04-29 19:30 | 7.18 | 1360 | 35700 (2017) | 193 (2000) | 2390 | 266 | 328 | 459 | 567 | 1060 | 2030 | 2240 | 4820 | 11200 |
| 2026-04-29 19:00 | 7.19 | 1370 | 35700 (2017) | 193 (2000) | 2390 | 266 | 328 | 459 | 567 | 1060 | 2030 | 2240 | 4820 | 11200 |
| 2026-04-29 18:30 | 7.21 | 1380 | 35700 (2017) | 193 (2000) | 2390 | 266 | 328 | 459 | 567 | 1060 | 2030 | 2240 | 4820 | 11200 |
| 2026-04-29 18:00 | 7.23 | 1400 | 35700 (2017) | 193 (2000) | 2390 | 266 | 328 | 459 | 567 | 1060 | 2030 | 2240 | 4820 | 11200 |
| 2026-04-29 17:30 | 7.24 | 1410 | 35700 (2017) | 193 (2000) | 2390 | 266 | 328 | 459 | 567 | 1060 | 2030 | 2240 | 4820 | 11200 |
| 2026-04-29 17:00 | 7.27 | 1430 | 35700 (2017) | 193 (2000) | 2390 | 266 | 328 | 459 | 567 | 1060 | 2030 | 2240 | 4820 | 11200 |
| 2026-04-29 16:30 | 7.28 | 1430 | 35700 (2017) | 193 (2000) | 2390 | 266 | 328 | 459 | 567 | 1060 | 2030 | 2240 | 4820 | 11200 |
| 2026-04-29 16:00 | 7.31 | 1450 | 35700 (2017) | 193 (2000) | 2390 | 266 | 328 | 459 | 567 | 1060 | 2030 | 2240 | 4820 | 11200 |
| 2026-04-29 15:30 | 7.32 | 1460 | 35700 (2017) | 193 (2000) | 2390 | 266 | 328 | 459 | 567 | 1060 | 2030 | 2240 | 4820 | 11200 |
| 2026-04-29 15:00 | 7.33 | 1470 | 35700 (2017) | 193 (2000) | 2390 | 266 | 328 | 459 | 567 | 1060 | 2030 | 2240 | 4820 | 11200 |
| 2026-04-29 14:30 | 7.37 | 1500 | 35700 (2017) | 193 (2000) | 2390 | 266 | 328 | 459 | 567 | 1060 | 2030 | 2240 | 4820 | 11200 |
| 2026-04-29 14:00 | 7.39 | 1510 | 35700 (2017) | 193 (2000) | 2390 | 266 | 328 | 459 | 567 | 1060 | 2030 | 2240 | 4820 | 11200 |
| 2026-04-29 13:30 | 7.40 | 1520 | 35700 (2017) | 193 (2000) | 2390 | 266 | 328 | 459 | 567 | 1060 | 2030 | 2240 | 4820 | 11200 |
| 2026-04-29 13:00 | 7.43 | 1540 | 35700 (2017) | 193 (2000) | 2390 | 266 | 328 | 459 | 567 | 1060 | 2030 | 2240 | 4820 | 11200 |
| 2026-04-29 12:30 | 7.45 | 1560 | 35700 (2017) | 193 (2000) | 2390 | 266 | 328 | 459 | 567 | 1060 | 2030 | 2240 | 4820 | 11200 |
| 2026-04-29 12:00 | 7.47 | 1570 | 35700 (2017) | 193 (2000) | 2390 | 266 | 328 | 459 | 567 | 1060 | 2030 | 2240 | 4820 | 11200 |
| 2026-04-29 11:30 | 7.49 | 1590 | 35700 (2017) | 193 (2000) | 2390 | 266 | 328 | 459 | 567 | 1060 | 2030 | 2240 | 4820 | 11200 |
| 2026-04-29 11:00 | 7.51 | 1600 | 35700 (2017) | 193 (2000) | 2390 | 266 | 328 | 459 | 567 | 1060 | 2030 | 2240 | 4820 | 11200 |
| 2026-04-29 10:30 | 7.52 | 1610 | 35700 (2017) | 193 (2000) | 2390 | 266 | 328 | 459 | 567 | 1060 | 2030 | 2240 | 4820 | 11200 |
| 2026-04-29 10:00 | 7.54 | 1620 | 35700 (2017) | 193 (2000) | 2390 | 266 | 328 | 459 | 567 | 1060 | 2030 | 2240 | 4820 | 11200 |
| 2026-04-29 09:30 | 7.56 | 1640 | 35700 (2017) | 193 (2000) | 2390 | 266 | 328 | 459 | 567 | 1060 | 2030 | 2240 | 4820 | 11200 |
| 2026-04-29 09:00 | 7.56 | 1640 | 35700 (2017) | 193 (2000) | 2390 | 266 | 328 | 459 | 567 | 1060 | 2030 | 2240 | 4820 | 11200 |
| 2026-04-29 08:30 | 7.58 | 1650 | 35700 (2017) | 193 (2000) | 2390 | 266 | 328 | 459 | 567 | 1060 | 2030 | 2240 | 4820 | 11200 |
| 2026-04-29 08:00 | 7.58 | 1650 | 35700 (2017) | 193 (2000) | 2390 | 266 | 328 | 459 | 567 | 1060 | 2030 | 2240 | 4820 | 11200 |
| 2026-04-29 07:30 | 7.58 | 1650 | 35700 (2017) | 193 (2000) | 2390 | 266 | 328 | 459 | 567 | 1060 | 2030 | 2240 | 4820 | 11200 |
| 2026-04-29 07:00 | 7.57 | 1650 | 35700 (2017) | 193 (2000) | 2390 | 266 | 328 | 459 | 567 | 1060 | 2030 | 2240 | 4820 | 11200 |
| 2026-04-29 06:30 | 7.55 | 1630 | 35700 (2017) | 193 (2000) | 2390 | 266 | 328 | 459 | 567 | 1060 | 2030 | 2240 | 4820 | 11200 |
| 2026-04-29 06:00 | 7.51 | 1600 | 35700 (2017) | 193 (2000) | 2390 | 266 | 328 | 459 | 567 | 1060 | 2030 | 2240 | 4820 | 11200 |
| 2026-04-29 05:30 | 7.47 | 1570 | 35700 (2017) | 193 (2000) | 2390 | 266 | 328 | 459 | 567 | 1060 | 2030 | 2240 | 4820 | 11200 |
| 2026-04-29 05:00 | 7.40 | 1520 | 35700 (2017) | 193 (2000) | 2390 | 266 | 328 | 459 | 567 | 1060 | 2030 | 2240 | 4820 | 11200 |
| 2026-04-29 04:30 | 7.32 | 1460 | 35700 (2017) | 193 (2000) | 2390 | 266 | 328 | 459 | 567 | 1060 | 2030 | 2240 | 4820 | 11200 |
| 2026-04-29 04:00 | 7.24 | 1410 | 35700 (2017) | 193 (2000) | 2390 | 266 | 328 | 459 | 567 | 1060 | 2030 | 2240 | 4820 | 11200 |
| 2026-04-29 03:30 | 7.14 | 1340 | 35700 (2017) | 193 (2000) | 2390 | 266 | 328 | 459 | 567 | 1060 | 2030 | 2240 | 4820 | 11200 |
| 2026-04-29 03:00 | 7.07 | 1290 | 35700 (2017) | 193 (2000) | 2390 | 266 | 328 | 459 | 567 | 1060 | 2030 | 2240 | 4820 | 11200 |
| 2026-04-29 02:30 | 7.00 | 1240 | 35700 (2017) | 193 (2000) | 2390 | 266 | 328 | 459 | 567 | 1060 | 2030 | 2240 | 4820 | 11200 |
| 2026-04-29 02:00 | 6.94 | 1200 | 35700 (2017) | 193 (2000) | 2390 | 266 | 328 | 459 | 567 | 1060 | 2030 | 2240 | 4820 | 11200 |
| 2026-04-29 01:30 | 6.89 | 1170 | 35700 (2017) | 193 (2000) | 2390 | 266 | 328 | 459 | 567 | 1060 | 2030 | 2240 | 4820 | 11200 |
| 2026-04-29 01:00 | 6.84 | 1140 | 35700 (2017) | 193 (2000) | 2390 | 266 | 328 | 459 | 567 | 1060 | 2030 | 2240 | 4820 | 11200 |
| 2026-04-29 00:30 | 6.80 | 1120 | 35700 (2017) | 193 (2000) | 2390 | 266 | 328 | 459 | 567 | 1060 | 2030 | 2240 | 4820 | 11200 |
| 2026-04-29 00:00 | 6.75 | 1090 | 35700 (2017) | 193 (2000) | 2390 | 266 | 328 | 459 | 567 | 1060 | 2030 | 2240 | 4820 | 11200 |
| 2026-04-28 23:30 | 6.72 | 1070 | 35700 (2017) | 193 (2000) | 2390 | 266 | 328 | 459 | 567 | 1060 | 2030 | 2240 | 4820 | 11200 |
| 2026-04-28 23:00 | 6.72 | 1070 | 35700 (2017) | 193 (2000) | 2390 | 266 | 328 | 459 | 567 | 1060 | 2030 | 2240 | 4820 | 11200 |
| 2026-04-28 22:30 | 6.63 | 1010 | 36200 (2011) | 192 (1963) | 2300 | 241 | 341 | 475 | 561 | 1070 | 2100 | 2560 | 3700 | 10600 |
| 2026-04-28 22:00 | 6.66 | 1030 | 36200 (2011) | 192 (1963) | 2300 | 241 | 341 | 475 | 561 | 1070 | 2100 | 2560 | 3700 | 10600 |
| 2026-04-28 21:30 | 6.65 | 1030 | 36200 (2011) | 192 (1963) | 2300 | 241 | 341 | 475 | 561 | 1070 | 2100 | 2560 | 3700 | 10600 |
| 2026-04-28 21:00 | 6.65 | 1030 | 36200 (2011) | 192 (1963) | 2300 | 241 | 341 | 475 | 561 | 1070 | 2100 | 2560 | 3700 | 10600 |
| 2026-04-28 20:30 | 6.64 | 1020 | 36200 (2011) | 192 (1963) | 2300 | 241 | 341 | 475 | 561 | 1070 | 2100 | 2560 | 3700 | 10600 |
| 2026-04-28 20:00 | 6.64 | 1020 | 36200 (2011) | 192 (1963) | 2300 | 241 | 341 | 475 | 561 | 1070 | 2100 | 2560 | 3700 | 10600 |
| 2026-04-28 19:30 | 6.63 | 1010 | 36200 (2011) | 192 (1963) | 2300 | 241 | 341 | 475 | 561 | 1070 | 2100 | 2560 | 3700 | 10600 |
| 2026-04-28 19:00 | 6.63 | 1010 | 36200 (2011) | 192 (1963) | 2300 | 241 | 341 | 475 | 561 | 1070 | 2100 | 2560 | 3700 | 10600 |
| 2026-04-28 18:30 | 6.63 | 1010 | 36200 (2011) | 192 (1963) | 2300 | 241 | 341 | 475 | 561 | 1070 | 2100 | 2560 | 3700 | 10600 |
| 2026-04-28 18:00 | 6.63 | 1010 | 36200 (2011) | 192 (1963) | 2300 | 241 | 341 | 475 | 561 | 1070 | 2100 | 2560 | 3700 | 10600 |
| 2026-04-28 17:30 | 6.63 | 1010 | 36200 (2011) | 192 (1963) | 2300 | 241 | 341 | 475 | 561 | 1070 | 2100 | 2560 | 3700 | 10600 |
| 2026-04-28 17:00 | 6.62 | 1010 | 36200 (2011) | 192 (1963) | 2300 | 241 | 341 | 475 | 561 | 1070 | 2100 | 2560 | 3700 | 10600 |
| 2026-04-28 16:30 | 6.61 | 1000 | 36200 (2011) | 192 (1963) | 2300 | 241 | 341 | 475 | 561 | 1070 | 2100 | 2560 | 3700 | 10600 |
| 2026-04-28 16:00 | 6.62 | 1010 | 36200 (2011) | 192 (1963) | 2300 | 241 | 341 | 475 | 561 | 1070 | 2100 | 2560 | 3700 | 10600 |
| 2026-04-28 15:30 | 6.63 | 1010 | 36200 (2011) | 192 (1963) | 2300 | 241 | 341 | 475 | 561 | 1070 | 2100 | 2560 | 3700 | 10600 |
| 2026-04-28 15:00 | 6.64 | 1020 | 36200 (2011) | 192 (1963) | 2300 | 241 | 341 | 475 | 561 | 1070 | 2100 | 2560 | 3700 | 10600 |
| 2026-04-28 14:30 | 6.64 | 1020 | 36200 (2011) | 192 (1963) | 2300 | 241 | 341 | 475 | 561 | 1070 | 2100 | 2560 | 3700 | 10600 |
| 2026-04-28 14:00 | 6.64 | 1020 | 36200 (2011) | 192 (1963) | 2300 | 241 | 341 | 475 | 561 | 1070 | 2100 | 2560 | 3700 | 10600 |
| 2026-04-28 13:30 | 6.64 | 1020 | 36200 (2011) | 192 (1963) | 2300 | 241 | 341 | 475 | 561 | 1070 | 2100 | 2560 | 3700 | 10600 |
| 2026-04-28 13:00 | 6.65 | 1030 | 36200 (2011) | 192 (1963) | 2300 | 241 | 341 | 475 | 561 | 1070 | 2100 | 2560 | 3700 | 10600 |
| 2026-04-28 12:30 | 6.65 | 1030 | 36200 (2011) | 192 (1963) | 2300 | 241 | 341 | 475 | 561 | 1070 | 2100 | 2560 | 3700 | 10600 |
| 2026-04-28 12:00 | 6.66 | 1030 | 36200 (2011) | 192 (1963) | 2300 | 241 | 341 | 475 | 561 | 1070 | 2100 | 2560 | 3700 | 10600 |
| 2026-04-28 11:30 | 6.66 | 1030 | 36200 (2011) | 192 (1963) | 2300 | 241 | 341 | 475 | 561 | 1070 | 2100 | 2560 | 3700 | 10600 |
| 2026-04-28 11:00 | 6.67 | 1040 | 36200 (2011) | 192 (1963) | 2300 | 241 | 341 | 475 | 561 | 1070 | 2100 | 2560 | 3700 | 10600 |
| 2026-04-28 10:30 | 6.67 | 1040 | 36200 (2011) | 192 (1963) | 2300 | 241 | 341 | 475 | 561 | 1070 | 2100 | 2560 | 3700 | 10600 |
| 2026-04-28 10:00 | 6.67 | 1040 | 36200 (2011) | 192 (1963) | 2300 | 241 | 341 | 475 | 561 | 1070 | 2100 | 2560 | 3700 | 10600 |
| 2026-04-28 09:30 | 6.68 | 1040 | 36200 (2011) | 192 (1963) | 2300 | 241 | 341 | 475 | 561 | 1070 | 2100 | 2560 | 3700 | 10600 |
| 2026-04-28 09:00 | 6.69 | 1050 | 36200 (2011) | 192 (1963) | 2300 | 241 | 341 | 475 | 561 | 1070 | 2100 | 2560 | 3700 | 10600 |
| 2026-04-28 08:30 | 6.69 | 1050 | 36200 (2011) | 192 (1963) | 2300 | 241 | 341 | 475 | 561 | 1070 | 2100 | 2560 | 3700 | 10600 |
| 2026-04-28 08:00 | 6.70 | 1060 | 36200 (2011) | 192 (1963) | 2300 | 241 | 341 | 475 | 561 | 1070 | 2100 | 2560 | 3700 | 10600 |
| 2026-04-28 07:30 | 6.70 | 1060 | 36200 (2011) | 192 (1963) | 2300 | 241 | 341 | 475 | 561 | 1070 | 2100 | 2560 | 3700 | 10600 |
| 2026-04-28 07:00 | 6.71 | 1060 | 36200 (2011) | 192 (1963) | 2300 | 241 | 341 | 475 | 561 | 1070 | 2100 | 2560 | 3700 | 10600 |
| 2026-04-28 06:30 | 6.71 | 1060 | 36200 (2011) | 192 (1963) | 2300 | 241 | 341 | 475 | 561 | 1070 | 2100 | 2560 | 3700 | 10600 |
| 2026-04-28 06:00 | 6.72 | 1070 | 36200 (2011) | 192 (1963) | 2300 | 241 | 341 | 475 | 561 | 1070 | 2100 | 2560 | 3700 | 10600 |
| 2026-04-28 05:30 | 6.73 | 1070 | 36200 (2011) | 192 (1963) | 2300 | 241 | 341 | 475 | 561 | 1070 | 2100 | 2560 | 3700 | 10600 |
| 2026-04-28 05:00 | 6.73 | 1070 | 36200 (2011) | 192 (1963) | 2300 | 241 | 341 | 475 | 561 | 1070 | 2100 | 2560 | 3700 | 10600 |
| 2026-04-28 04:30 | 6.73 | 1070 | 36200 (2011) | 192 (1963) | 2300 | 241 | 341 | 475 | 561 | 1070 | 2100 | 2560 | 3700 | 10600 |
| 2026-04-28 04:00 | 6.74 | 1080 | 36200 (2011) | 192 (1963) | 2300 | 241 | 341 | 475 | 561 | 1070 | 2100 | 2560 | 3700 | 10600 |
| 2026-04-28 03:30 | 6.74 | 1080 | 36200 (2011) | 192 (1963) | 2300 | 241 | 341 | 475 | 561 | 1070 | 2100 | 2560 | 3700 | 10600 |
| 2026-04-28 03:00 | 6.75 | 1090 | 36200 (2011) | 192 (1963) | 2300 | 241 | 341 | 475 | 561 | 1070 | 2100 | 2560 | 3700 | 10600 |
| 2026-04-28 02:30 | 6.76 | 1090 | 36200 (2011) | 192 (1963) | 2300 | 241 | 341 | 475 | 561 | 1070 | 2100 | 2560 | 3700 | 10600 |
| 2026-04-28 02:00 | 6.77 | 1100 | 36200 (2011) | 192 (1963) | 2300 | 241 | 341 | 475 | 561 | 1070 | 2100 | 2560 | 3700 | 10600 |
| 2026-04-28 01:30 | 6.78 | 1100 | 36200 (2011) | 192 (1963) | 2300 | 241 | 341 | 475 | 561 | 1070 | 2100 | 2560 | 3700 | 10600 |
| 2026-04-28 01:00 | 6.78 | 1100 | 36200 (2011) | 192 (1963) | 2300 | 241 | 341 | 475 | 561 | 1070 | 2100 | 2560 | 3700 | 10600 |
| 2026-04-28 00:30 | 6.78 | 1100 | 36200 (2011) | 192 (1963) | 2300 | 241 | 341 | 475 | 561 | 1070 | 2100 | 2560 | 3700 | 10600 |
| 2026-04-28 00:00 | 6.78 | 1100 | 36200 (2011) | 192 (1963) | 2300 | 241 | 341 | 475 | 561 | 1070 | 2100 | 2560 | 3700 | 10600 |
| 2026-04-27 23:30 | 6.77 | 1100 | 36200 (2011) | 192 (1963) | 2300 | 241 | 341 | 475 | 561 | 1070 | 2100 | 2560 | 3700 | 10600 |
| 2026-04-27 23:00 | 6.76 | 1090 | 36200 (2011) | 192 (1963) | 2300 | 241 | 341 | 475 | 561 | 1070 | 2100 | 2560 | 3700 | 10600 |
| 2026-04-27 22:00 | 6.77 | 1100 | 33100 (2011) | 164 (1963) | 2070 | 265 | 361 | 518 | 597 | 1040 | 2040 | 2310 | 4480 | 6030 |
| 2026-04-27 21:30 | 6.77 | 1100 | 33100 (2011) | 164 (1963) | 2070 | 265 | 361 | 518 | 597 | 1040 | 2040 | 2310 | 4480 | 6030 |
| 2026-04-27 21:00 | 6.67 | 1040 | 33100 (2011) | 164 (1963) | 2070 | 265 | 361 | 518 | 597 | 1040 | 2040 | 2310 | 4480 | 6030 |
| 2026-04-27 20:30 | 6.69 | 1050 | 33100 (2011) | 164 (1963) | 2070 | 265 | 361 | 518 | 597 | 1040 | 2040 | 2310 | 4480 | 6030 |
| 2026-04-27 20:00 | 6.69 | 1050 | 33100 (2011) | 164 (1963) | 2070 | 265 | 361 | 518 | 597 | 1040 | 2040 | 2310 | 4480 | 6030 |
| 2026-04-27 19:30 | 6.71 | 1060 | 33100 (2011) | 164 (1963) | 2070 | 265 | 361 | 518 | 597 | 1040 | 2040 | 2310 | 4480 | 6030 |
| 2026-04-27 19:00 | 6.73 | 1070 | 33100 (2011) | 164 (1963) | 2070 | 265 | 361 | 518 | 597 | 1040 | 2040 | 2310 | 4480 | 6030 |
| 2026-04-27 18:30 | 6.72 | 1070 | 33100 (2011) | 164 (1963) | 2070 | 265 | 361 | 518 | 597 | 1040 | 2040 | 2310 | 4480 | 6030 |
| 2026-04-27 18:00 | 6.73 | 1070 | 33100 (2011) | 164 (1963) | 2070 | 265 | 361 | 518 | 597 | 1040 | 2040 | 2310 | 4480 | 6030 |
| 2026-04-27 17:30 | 6.73 | 1070 | 33100 (2011) | 164 (1963) | 2070 | 265 | 361 | 518 | 597 | 1040 | 2040 | 2310 | 4480 | 6030 |
| 2026-04-27 17:00 | 6.73 | 1070 | 33100 (2011) | 164 (1963) | 2070 | 265 | 361 | 518 | 597 | 1040 | 2040 | 2310 | 4480 | 6030 |
| 2026-04-27 16:30 | 6.73 | 1070 | 33100 (2011) | 164 (1963) | 2070 | 265 | 361 | 518 | 597 | 1040 | 2040 | 2310 | 4480 | 6030 |
| 2026-04-27 16:00 | 6.74 | 1080 | 33100 (2011) | 164 (1963) | 2070 | 265 | 361 | 518 | 597 | 1040 | 2040 | 2310 | 4480 | 6030 |
| 2026-04-27 15:30 | 6.73 | 1070 | 33100 (2011) | 164 (1963) | 2070 | 265 | 361 | 518 | 597 | 1040 | 2040 | 2310 | 4480 | 6030 |
| 2026-04-27 15:00 | 6.75 | 1090 | 33100 (2011) | 164 (1963) | 2070 | 265 | 361 | 518 | 597 | 1040 | 2040 | 2310 | 4480 | 6030 |
| 2026-04-27 14:30 | 6.76 | 1090 | 33100 (2011) | 164 (1963) | 2070 | 265 | 361 | 518 | 597 | 1040 | 2040 | 2310 | 4480 | 6030 |
| 2026-04-27 14:00 | 6.78 | 1100 | 33100 (2011) | 164 (1963) | 2070 | 265 | 361 | 518 | 597 | 1040 | 2040 | 2310 | 4480 | 6030 |
| 2026-04-27 13:30 | 6.78 | 1100 | 33100 (2011) | 164 (1963) | 2070 | 265 | 361 | 518 | 597 | 1040 | 2040 | 2310 | 4480 | 6030 |
| 2026-04-27 13:00 | 6.77 | 1100 | 33100 (2011) | 164 (1963) | 2070 | 265 | 361 | 518 | 597 | 1040 | 2040 | 2310 | 4480 | 6030 |
| 2026-04-27 12:30 | 6.78 | 1100 | 33100 (2011) | 164 (1963) | 2070 | 265 | 361 | 518 | 597 | 1040 | 2040 | 2310 | 4480 | 6030 |
| 2026-04-27 12:00 | 6.78 | 1100 | 33100 (2011) | 164 (1963) | 2070 | 265 | 361 | 518 | 597 | 1040 | 2040 | 2310 | 4480 | 6030 |
| 2026-04-27 11:30 | 6.79 | 1110 | 33100 (2011) | 164 (1963) | 2070 | 265 | 361 | 518 | 597 | 1040 | 2040 | 2310 | 4480 | 6030 |
| 2026-04-27 11:00 | 6.82 | 1130 | 33100 (2011) | 164 (1963) | 2070 | 265 | 361 | 518 | 597 | 1040 | 2040 | 2310 | 4480 | 6030 |
| 2026-04-27 10:30 | 6.82 | 1130 | 33100 (2011) | 164 (1963) | 2070 | 265 | 361 | 518 | 597 | 1040 | 2040 | 2310 | 4480 | 6030 |
| 2026-04-27 10:00 | 6.85 | 1150 | 33100 (2011) | 164 (1963) | 2070 | 265 | 361 | 518 | 597 | 1040 | 2040 | 2310 | 4480 | 6030 |
| 2026-04-27 09:30 | 6.87 | 1160 | 33100 (2011) | 164 (1963) | 2070 | 265 | 361 | 518 | 597 | 1040 | 2040 | 2310 | 4480 | 6030 |
| 2026-04-27 09:00 | 6.87 | 1160 | 33100 (2011) | 164 (1963) | 2070 | 265 | 361 | 518 | 597 | 1040 | 2040 | 2310 | 4480 | 6030 |
| 2026-04-27 08:30 | 6.88 | 1170 | 33100 (2011) | 164 (1963) | 2070 | 265 | 361 | 518 | 597 | 1040 | 2040 | 2310 | 4480 | 6030 |
| 2026-04-27 08:00 | 6.89 | 1170 | 33100 (2011) | 164 (1963) | 2070 | 265 | 361 | 518 | 597 | 1040 | 2040 | 2310 | 4480 | 6030 |
| 2026-04-27 07:30 | 6.89 | 1170 | 33100 (2011) | 164 (1963) | 2070 | 265 | 361 | 518 | 597 | 1040 | 2040 | 2310 | 4480 | 6030 |
| 2026-04-27 07:00 | 6.90 | 1180 | 33100 (2011) | 164 (1963) | 2070 | 265 | 361 | 518 | 597 | 1040 | 2040 | 2310 | 4480 | 6030 |
| 2026-04-27 06:30 | 6.91 | 1180 | 33100 (2011) | 164 (1963) | 2070 | 265 | 361 | 518 | 597 | 1040 | 2040 | 2310 | 4480 | 6030 |
| 2026-04-27 06:00 | 6.91 | 1180 | 33100 (2011) | 164 (1963) | 2070 | 265 | 361 | 518 | 597 | 1040 | 2040 | 2310 | 4480 | 6030 |
| 2026-04-27 05:30 | 6.91 | 1180 | 33100 (2011) | 164 (1963) | 2070 | 265 | 361 | 518 | 597 | 1040 | 2040 | 2310 | 4480 | 6030 |
| 2026-04-27 05:00 | 6.93 | 1200 | 33100 (2011) | 164 (1963) | 2070 | 265 | 361 | 518 | 597 | 1040 | 2040 | 2310 | 4480 | 6030 |
| 2026-04-27 04:30 | 6.91 | 1180 | 33100 (2011) | 164 (1963) | 2070 | 265 | 361 | 518 | 597 | 1040 | 2040 | 2310 | 4480 | 6030 |
| 2026-04-27 04:00 | 6.90 | 1180 | 33100 (2011) | 164 (1963) | 2070 | 265 | 361 | 518 | 597 | 1040 | 2040 | 2310 | 4480 | 6030 |
| 2026-04-27 03:30 | 6.94 | 1200 | 33100 (2011) | 164 (1963) | 2070 | 265 | 361 | 518 | 597 | 1040 | 2040 | 2310 | 4480 | 6030 |
| 2026-04-27 03:00 | 6.95 | 1210 | 33100 (2011) | 164 (1963) | 2070 | 265 | 361 | 518 | 597 | 1040 | 2040 | 2310 | 4480 | 6030 |
| 2026-04-27 02:30 | 6.96 | 1220 | 33100 (2011) | 164 (1963) | 2070 | 265 | 361 | 518 | 597 | 1040 | 2040 | 2310 | 4480 | 6030 |
| 2026-04-27 02:00 | 6.97 | 1220 | 33100 (2011) | 164 (1963) | 2070 | 265 | 361 | 518 | 597 | 1040 | 2040 | 2310 | 4480 | 6030 |
| 2026-04-27 01:30 | 6.98 | 1230 | 33100 (2011) | 164 (1963) | 2070 | 265 | 361 | 518 | 597 | 1040 | 2040 | 2310 | 4480 | 6030 |
| 2026-04-27 01:00 | 6.98 | 1230 | 33100 (2011) | 164 (1963) | 2070 | 265 | 361 | 518 | 597 | 1040 | 2040 | 2310 | 4480 | 6030 |
| 2026-04-27 00:30 | 6.99 | 1240 | 33100 (2011) | 164 (1963) | 2070 | 265 | 361 | 518 | 597 | 1040 | 2040 | 2310 | 4480 | 6030 |
| 2026-04-27 00:00 | 7.00 | 1240 | 33100 (2011) | 164 (1963) | 2070 | 265 | 361 | 518 | 597 | 1040 | 2040 | 2310 | 4480 | 6030 |
| 2026-04-26 23:30 | 7.01 | 1250 | 33100 (2011) | 164 (1963) | 2070 | 265 | 361 | 518 | 597 | 1040 | 2040 | 2310 | 4480 | 6030 |
| 2026-04-26 23:00 | 7.01 | 1250 | 33100 (2011) | 164 (1963) | 2070 | 265 | 361 | 518 | 597 | 1040 | 2040 | 2310 | 4480 | 6030 |
| 2026-04-26 22:30 | 7.02 | 1260 | 65700 (2011) | 166 (1963) | 2670 | 287 | 382 | 542 | 615 | 1090 | 2000 | 2360 | 4580 | 10300 |
| 2026-04-26 22:00 | 7.03 | 1260 | 65700 (2011) | 166 (1963) | 2670 | 287 | 382 | 542 | 615 | 1090 | 2000 | 2360 | 4580 | 10300 |
| 2026-04-26 21:30 | 7.04 | 1270 | 65700 (2011) | 166 (1963) | 2670 | 287 | 382 | 542 | 615 | 1090 | 2000 | 2360 | 4580 | 10300 |
| 2026-04-26 21:00 | 7.05 | 1280 | 65700 (2011) | 166 (1963) | 2670 | 287 | 382 | 542 | 615 | 1090 | 2000 | 2360 | 4580 | 10300 |
| 2026-04-26 20:30 | 7.06 | 1280 | 65700 (2011) | 166 (1963) | 2670 | 287 | 382 | 542 | 615 | 1090 | 2000 | 2360 | 4580 | 10300 |
| 2026-04-26 20:00 | 7.07 | 1290 | 65700 (2011) | 166 (1963) | 2670 | 287 | 382 | 542 | 615 | 1090 | 2000 | 2360 | 4580 | 10300 |
| 2026-04-26 19:30 | 7.07 | 1290 | 65700 (2011) | 166 (1963) | 2670 | 287 | 382 | 542 | 615 | 1090 | 2000 | 2360 | 4580 | 10300 |
| 2026-04-26 19:00 | 7.09 | 1300 | 65700 (2011) | 166 (1963) | 2670 | 287 | 382 | 542 | 615 | 1090 | 2000 | 2360 | 4580 | 10300 |
| 2026-04-26 18:30 | 7.09 | 1300 | 65700 (2011) | 166 (1963) | 2670 | 287 | 382 | 542 | 615 | 1090 | 2000 | 2360 | 4580 | 10300 |
| 2026-04-26 18:00 | 7.10 | 1310 | 65700 (2011) | 166 (1963) | 2670 | 287 | 382 | 542 | 615 | 1090 | 2000 | 2360 | 4580 | 10300 |
| 2026-04-26 17:30 | 7.08 | 1300 | 65700 (2011) | 166 (1963) | 2670 | 287 | 382 | 542 | 615 | 1090 | 2000 | 2360 | 4580 | 10300 |
| 2026-04-26 17:00 | 7.12 | 1320 | 65700 (2011) | 166 (1963) | 2670 | 287 | 382 | 542 | 615 | 1090 | 2000 | 2360 | 4580 | 10300 |
| 2026-04-26 16:30 | 7.12 | 1320 | 65700 (2011) | 166 (1963) | 2670 | 287 | 382 | 542 | 615 | 1090 | 2000 | 2360 | 4580 | 10300 |
| 2026-04-26 16:00 | 7.15 | 1340 | 65700 (2011) | 166 (1963) | 2670 | 287 | 382 | 542 | 615 | 1090 | 2000 | 2360 | 4580 | 10300 |
| 2026-04-26 15:30 | 7.14 | 1340 | 65700 (2011) | 166 (1963) | 2670 | 287 | 382 | 542 | 615 | 1090 | 2000 | 2360 | 4580 | 10300 |
| 2026-04-26 15:00 | 7.17 | 1360 | 65700 (2011) | 166 (1963) | 2670 | 287 | 382 | 542 | 615 | 1090 | 2000 | 2360 | 4580 | 10300 |
| 2026-04-26 14:30 | 7.14 | 1340 | 65700 (2011) | 166 (1963) | 2670 | 287 | 382 | 542 | 615 | 1090 | 2000 | 2360 | 4580 | 10300 |
| 2026-04-26 14:00 | 7.18 | 1360 | 65700 (2011) | 166 (1963) | 2670 | 287 | 382 | 542 | 615 | 1090 | 2000 | 2360 | 4580 | 10300 |
| 2026-04-26 13:30 | 7.14 | 1340 | 65700 (2011) | 166 (1963) | 2670 | 287 | 382 | 542 | 615 | 1090 | 2000 | 2360 | 4580 | 10300 |
| 2026-04-26 13:00 | 7.19 | 1370 | 65700 (2011) | 166 (1963) | 2670 | 287 | 382 | 542 | 615 | 1090 | 2000 | 2360 | 4580 | 10300 |
| 2026-04-26 12:30 | 7.19 | 1370 | 65700 (2011) | 166 (1963) | 2670 | 287 | 382 | 542 | 615 | 1090 | 2000 | 2360 | 4580 | 10300 |
| 2026-04-26 12:00 | 7.21 | 1380 | 65700 (2011) | 166 (1963) | 2670 | 287 | 382 | 542 | 615 | 1090 | 2000 | 2360 | 4580 | 10300 |
| 2026-04-26 11:30 | 7.18 | 1360 | 65700 (2011) | 166 (1963) | 2670 | 287 | 382 | 542 | 615 | 1090 | 2000 | 2360 | 4580 | 10300 |
| 2026-04-26 11:00 | 7.19 | 1370 | 65700 (2011) | 166 (1963) | 2670 | 287 | 382 | 542 | 615 | 1090 | 2000 | 2360 | 4580 | 10300 |
| 2026-04-26 10:30 | 7.23 | 1400 | 65700 (2011) | 166 (1963) | 2670 | 287 | 382 | 542 | 615 | 1090 | 2000 | 2360 | 4580 | 10300 |
| 2026-04-26 10:00 | 7.25 | 1410 | 65700 (2011) | 166 (1963) | 2670 | 287 | 382 | 542 | 615 | 1090 | 2000 | 2360 | 4580 | 10300 |
| 2026-04-26 09:30 | 7.25 | 1410 | 65700 (2011) | 166 (1963) | 2670 | 287 | 382 | 542 | 615 | 1090 | 2000 | 2360 | 4580 | 10300 |
| 2026-04-26 09:00 | 7.26 | 1420 | 65700 (2011) | 166 (1963) | 2670 | 287 | 382 | 542 | 615 | 1090 | 2000 | 2360 | 4580 | 10300 |
| 2026-04-26 08:30 | 7.27 | 1430 | 65700 (2011) | 166 (1963) | 2670 | 287 | 382 | 542 | 615 | 1090 | 2000 | 2360 | 4580 | 10300 |
| 2026-04-26 08:00 | 7.27 | 1430 | 65700 (2011) | 166 (1963) | 2670 | 287 | 382 | 542 | 615 | 1090 | 2000 | 2360 | 4580 | 10300 |
| 2026-04-26 07:30 | 7.28 | 1430 | 65700 (2011) | 166 (1963) | 2670 | 287 | 382 | 542 | 615 | 1090 | 2000 | 2360 | 4580 | 10300 |
| 2026-04-26 07:00 | 7.30 | 1450 | 65700 (2011) | 166 (1963) | 2670 | 287 | 382 | 542 | 615 | 1090 | 2000 | 2360 | 4580 | 10300 |
| 2026-04-26 06:30 | 7.30 | 1450 | 65700 (2011) | 166 (1963) | 2670 | 287 | 382 | 542 | 615 | 1090 | 2000 | 2360 | 4580 | 10300 |
| 2026-04-26 06:00 | 7.31 | 1450 | 65700 (2011) | 166 (1963) | 2670 | 287 | 382 | 542 | 615 | 1090 | 2000 | 2360 | 4580 | 10300 |
| 2026-04-26 05:30 | 7.31 | 1450 | 65700 (2011) | 166 (1963) | 2670 | 287 | 382 | 542 | 615 | 1090 | 2000 | 2360 | 4580 | 10300 |
| 2026-04-26 05:00 | 7.31 | 1450 | 65700 (2011) | 166 (1963) | 2670 | 287 | 382 | 542 | 615 | 1090 | 2000 | 2360 | 4580 | 10300 |
| 2026-04-26 04:30 | 7.32 | 1460 | 65700 (2011) | 166 (1963) | 2670 | 287 | 382 | 542 | 615 | 1090 | 2000 | 2360 | 4580 | 10300 |
| 2026-04-26 04:00 | 7.33 | 1470 | 65700 (2011) | 166 (1963) | 2670 | 287 | 382 | 542 | 615 | 1090 | 2000 | 2360 | 4580 | 10300 |
| 2026-04-26 03:30 | 7.33 | 1470 | 65700 (2011) | 166 (1963) | 2670 | 287 | 382 | 542 | 615 | 1090 | 2000 | 2360 | 4580 | 10300 |
| 2026-04-26 03:00 | 7.34 | 1480 | 65700 (2011) | 166 (1963) | 2670 | 287 | 382 | 542 | 615 | 1090 | 2000 | 2360 | 4580 | 10300 |
| 2026-04-26 02:30 | 7.35 | 1480 | 65700 (2011) | 166 (1963) | 2670 | 287 | 382 | 542 | 615 | 1090 | 2000 | 2360 | 4580 | 10300 |
| 2026-04-26 02:00 | 7.35 | 1480 | 65700 (2011) | 166 (1963) | 2670 | 287 | 382 | 542 | 615 | 1090 | 2000 | 2360 | 4580 | 10300 |
| 2026-04-26 01:30 | 7.35 | 1480 | 65700 (2011) | 166 (1963) | 2670 | 287 | 382 | 542 | 615 | 1090 | 2000 | 2360 | 4580 | 10300 |
| 2026-04-26 01:00 | 7.35 | 1480 | 65700 (2011) | 166 (1963) | 2670 | 287 | 382 | 542 | 615 | 1090 | 2000 | 2360 | 4580 | 10300 |
| 2026-04-26 00:30 | 7.36 | 1490 | 65700 (2011) | 166 (1963) | 2670 | 287 | 382 | 542 | 615 | 1090 | 2000 | 2360 | 4580 | 10300 |
| 2026-04-26 00:00 | 7.36 | 1490 | 65700 (2011) | 166 (1963) | 2670 | 287 | 382 | 542 | 615 | 1090 | 2000 | 2360 | 4580 | 10300 |
| 2026-04-25 23:30 | 7.37 | 1500 | 65700 (2011) | 166 (1963) | 2670 | 287 | 382 | 542 | 615 | 1090 | 2000 | 2360 | 4580 | 10300 |
| 2026-04-25 23:00 | 7.37 | 1500 | 65700 (2011) | 166 (1963) | 2670 | 287 | 382 | 542 | 615 | 1090 | 2000 | 2360 | 4580 | 10300 |
| 2026-04-25 22:30 | 7.37 | 1500 | 42900 (2011) | 176 (1963) | 2920 | 304 | 396 | 552 | 626 | 1120 | 2420 | 2800 | 5060 | 19000 |
| 2026-04-25 22:00 | 7.37 | 1500 | 42900 (2011) | 176 (1963) | 2920 | 304 | 396 | 552 | 626 | 1120 | 2420 | 2800 | 5060 | 19000 |
| 2026-04-25 21:30 | 7.37 | 1500 | 42900 (2011) | 176 (1963) | 2920 | 304 | 396 | 552 | 626 | 1120 | 2420 | 2800 | 5060 | 19000 |
| 2026-04-25 21:00 | 7.38 | 1510 | 42900 (2011) | 176 (1963) | 2920 | 304 | 396 | 552 | 626 | 1120 | 2420 | 2800 | 5060 | 19000 |
| 2026-04-25 20:30 | 7.37 | 1500 | 42900 (2011) | 176 (1963) | 2920 | 304 | 396 | 552 | 626 | 1120 | 2420 | 2800 | 5060 | 19000 |
| 2026-04-25 20:00 | 7.38 | 1510 | 42900 (2011) | 176 (1963) | 2920 | 304 | 396 | 552 | 626 | 1120 | 2420 | 2800 | 5060 | 19000 |
| 2026-04-25 19:30 | 7.38 | 1510 | 42900 (2011) | 176 (1963) | 2920 | 304 | 396 | 552 | 626 | 1120 | 2420 | 2800 | 5060 | 19000 |
| 2026-04-25 19:00 | 7.37 | 1500 | 42900 (2011) | 176 (1963) | 2920 | 304 | 396 | 552 | 626 | 1120 | 2420 | 2800 | 5060 | 19000 |
| 2026-04-25 18:30 | 7.37 | 1500 | 42900 (2011) | 176 (1963) | 2920 | 304 | 396 | 552 | 626 | 1120 | 2420 | 2800 | 5060 | 19000 |
| 2026-04-25 18:00 | 7.37 | 1500 | 42900 (2011) | 176 (1963) | 2920 | 304 | 396 | 552 | 626 | 1120 | 2420 | 2800 | 5060 | 19000 |
| 2026-04-25 17:30 | 7.36 | 1490 | 42900 (2011) | 176 (1963) | 2920 | 304 | 396 | 552 | 626 | 1120 | 2420 | 2800 | 5060 | 19000 |
| 2026-04-25 17:00 | 7.36 | 1490 | 42900 (2011) | 176 (1963) | 2920 | 304 | 396 | 552 | 626 | 1120 | 2420 | 2800 | 5060 | 19000 |
| 2026-04-25 16:30 | 7.35 | 1480 | 42900 (2011) | 176 (1963) | 2920 | 304 | 396 | 552 | 626 | 1120 | 2420 | 2800 | 5060 | 19000 |
| 2026-04-25 16:00 | 7.34 | 1480 | 42900 (2011) | 176 (1963) | 2920 | 304 | 396 | 552 | 626 | 1120 | 2420 | 2800 | 5060 | 19000 |
| 2026-04-25 15:30 | 7.33 | 1470 | 42900 (2011) | 176 (1963) | 2920 | 304 | 396 | 552 | 626 | 1120 | 2420 | 2800 | 5060 | 19000 |
| 2026-04-25 15:00 | 7.31 | 1450 | 42900 (2011) | 176 (1963) | 2920 | 304 | 396 | 552 | 626 | 1120 | 2420 | 2800 | 5060 | 19000 |
| 2026-04-25 14:30 | 7.29 | 1440 | 42900 (2011) | 176 (1963) | 2920 | 304 | 396 | 552 | 626 | 1120 | 2420 | 2800 | 5060 | 19000 |
| 2026-04-25 14:00 | 7.28 | 1430 | 42900 (2011) | 176 (1963) | 2920 | 304 | 396 | 552 | 626 | 1120 | 2420 | 2800 | 5060 | 19000 |
| 2026-04-25 13:30 | 7.26 | 1420 | 42900 (2011) | 176 (1963) | 2920 | 304 | 396 | 552 | 626 | 1120 | 2420 | 2800 | 5060 | 19000 |
| 2026-04-25 13:00 | 7.25 | 1410 | 42900 (2011) | 176 (1963) | 2920 | 304 | 396 | 552 | 626 | 1120 | 2420 | 2800 | 5060 | 19000 |
| 2026-04-25 12:30 | 7.23 | 1400 | 42900 (2011) | 176 (1963) | 2920 | 304 | 396 | 552 | 626 | 1120 | 2420 | 2800 | 5060 | 19000 |
| 2026-04-25 12:00 | 7.21 | 1380 | 42900 (2011) | 176 (1963) | 2920 | 304 | 396 | 552 | 626 | 1120 | 2420 | 2800 | 5060 | 19000 |
| 2026-04-25 11:30 | 7.19 | 1370 | 42900 (2011) | 176 (1963) | 2920 | 304 | 396 | 552 | 626 | 1120 | 2420 | 2800 | 5060 | 19000 |
| 2026-04-25 11:00 | 7.17 | 1360 | 42900 (2011) | 176 (1963) | 2920 | 304 | 396 | 552 | 626 | 1120 | 2420 | 2800 | 5060 | 19000 |
| 2026-04-25 10:30 | 7.16 | 1350 | 42900 (2011) | 176 (1963) | 2920 | 304 | 396 | 552 | 626 | 1120 | 2420 | 2800 | 5060 | 19000 |
| 2026-04-25 10:00 | 7.14 | 1340 | 42900 (2011) | 176 (1963) | 2920 | 304 | 396 | 552 | 626 | 1120 | 2420 | 2800 | 5060 | 19000 |
| 2026-04-25 09:30 | 7.12 | 1320 | 42900 (2011) | 176 (1963) | 2920 | 304 | 396 | 552 | 626 | 1120 | 2420 | 2800 | 5060 | 19000 |
| 2026-04-25 09:00 | 7.11 | 1320 | 42900 (2011) | 176 (1963) | 2920 | 304 | 396 | 552 | 626 | 1120 | 2420 | 2800 | 5060 | 19000 |
| 2026-04-25 08:30 | 7.09 | 1300 | 42900 (2011) | 176 (1963) | 2920 | 304 | 396 | 552 | 626 | 1120 | 2420 | 2800 | 5060 | 19000 |
| 2026-04-25 08:00 | 7.06 | 1280 | 42900 (2011) | 176 (1963) | 2920 | 304 | 396 | 552 | 626 | 1120 | 2420 | 2800 | 5060 | 19000 |
| 2026-04-25 07:30 | 7.04 | 1270 | 42900 (2011) | 176 (1963) | 2920 | 304 | 396 | 552 | 626 | 1120 | 2420 | 2800 | 5060 | 19000 |
| 2026-04-25 07:00 | 7.02 | 1260 | 42900 (2011) | 176 (1963) | 2920 | 304 | 396 | 552 | 626 | 1120 | 2420 | 2800 | 5060 | 19000 |
| 2026-04-25 06:30 | 7.00 | 1240 | 42900 (2011) | 176 (1963) | 2920 | 304 | 396 | 552 | 626 | 1120 | 2420 | 2800 | 5060 | 19000 |
| 2026-04-25 06:00 | 6.98 | 1230 | 42900 (2011) | 176 (1963) | 2920 | 304 | 396 | 552 | 626 | 1120 | 2420 | 2800 | 5060 | 19000 |
| 2026-04-25 05:30 | 6.96 | 1220 | 42900 (2011) | 176 (1963) | 2920 | 304 | 396 | 552 | 626 | 1120 | 2420 | 2800 | 5060 | 19000 |
| 2026-04-25 05:00 | 6.93 | 1200 | 42900 (2011) | 176 (1963) | 2920 | 304 | 396 | 552 | 626 | 1120 | 2420 | 2800 | 5060 | 19000 |
| 2026-04-25 04:30 | 6.92 | 1190 | 42900 (2011) | 176 (1963) | 2920 | 304 | 396 | 552 | 626 | 1120 | 2420 | 2800 | 5060 | 19000 |
| 2026-04-25 04:00 | 6.90 | 1180 | 42900 (2011) | 176 (1963) | 2920 | 304 | 396 | 552 | 626 | 1120 | 2420 | 2800 | 5060 | 19000 |
| 2026-04-25 03:30 | 6.88 | 1170 | 42900 (2011) | 176 (1963) | 2920 | 304 | 396 | 552 | 626 | 1120 | 2420 | 2800 | 5060 | 19000 |
| 2026-04-25 03:00 | 6.87 | 1160 | 42900 (2011) | 176 (1963) | 2920 | 304 | 396 | 552 | 626 | 1120 | 2420 | 2800 | 5060 | 19000 |
| 2026-04-25 02:30 | 6.86 | 1150 | 42900 (2011) | 176 (1963) | 2920 | 304 | 396 | 552 | 626 | 1120 | 2420 | 2800 | 5060 | 19000 |
| 2026-04-25 02:00 | 6.85 | 1150 | 42900 (2011) | 176 (1963) | 2920 | 304 | 396 | 552 | 626 | 1120 | 2420 | 2800 | 5060 | 19000 |
| 2026-04-25 01:30 | 6.84 | 1140 | 42900 (2011) | 176 (1963) | 2920 | 304 | 396 | 552 | 626 | 1120 | 2420 | 2800 | 5060 | 19000 |
| 2026-04-25 01:00 | 6.84 | 1140 | 42900 (2011) | 176 (1963) | 2920 | 304 | 396 | 552 | 626 | 1120 | 2420 | 2800 | 5060 | 19000 |
| 2026-04-25 00:30 | 6.83 | 1130 | 42900 (2011) | 176 (1963) | 2920 | 304 | 396 | 552 | 626 | 1120 | 2420 | 2800 | 5060 | 19000 |
| 2026-04-25 00:00 | 6.83 | 1130 | 42900 (2011) | 176 (1963) | 2920 | 304 | 396 | 552 | 626 | 1120 | 2420 | 2800 | 5060 | 19000 |
| 2026-04-24 23:30 | 6.83 | 1130 | 42900 (2011) | 176 (1963) | 2920 | 304 | 396 | 552 | 626 | 1120 | 2420 | 2800 | 5060 | 19000 |
| 2026-04-24 23:00 | 6.83 | 1130 | 42900 (2011) | 176 (1963) | 2920 | 304 | 396 | 552 | 626 | 1120 | 2420 | 2800 | 5060 | 19000 |
| 2026-04-24 22:30 | 6.83 | 1130 | 63800 (2011) | 189 (1963) | 3130 | 330 | 416 | 543 | 603 | 1230 | 2490 | 3200 | 5930 | 11800 |
| 2026-04-24 22:00 | 6.84 | 1140 | 63800 (2011) | 189 (1963) | 3130 | 330 | 416 | 543 | 603 | 1230 | 2490 | 3200 | 5930 | 11800 |
| 2026-04-24 21:30 | 6.84 | 1140 | 63800 (2011) | 189 (1963) | 3130 | 330 | 416 | 543 | 603 | 1230 | 2490 | 3200 | 5930 | 11800 |
| 2026-04-24 21:00 | 6.84 | 1140 | 63800 (2011) | 189 (1963) | 3130 | 330 | 416 | 543 | 603 | 1230 | 2490 | 3200 | 5930 | 11800 |
| 2026-04-24 20:30 | 6.84 | 1140 | 63800 (2011) | 189 (1963) | 3130 | 330 | 416 | 543 | 603 | 1230 | 2490 | 3200 | 5930 | 11800 |
| 2026-04-24 20:00 | 6.85 | 1150 | 63800 (2011) | 189 (1963) | 3130 | 330 | 416 | 543 | 603 | 1230 | 2490 | 3200 | 5930 | 11800 |
| 2026-04-24 19:30 | 6.85 | 1150 | 63800 (2011) | 189 (1963) | 3130 | 330 | 416 | 543 | 603 | 1230 | 2490 | 3200 | 5930 | 11800 |
| 2026-04-24 19:00 | 6.84 | 1140 | 63800 (2011) | 189 (1963) | 3130 | 330 | 416 | 543 | 603 | 1230 | 2490 | 3200 | 5930 | 11800 |
| 2026-04-24 18:30 | 6.86 | 1150 | 63800 (2011) | 189 (1963) | 3130 | 330 | 416 | 543 | 603 | 1230 | 2490 | 3200 | 5930 | 11800 |
| 2026-04-24 18:00 | 6.86 | 1150 | 63800 (2011) | 189 (1963) | 3130 | 330 | 416 | 543 | 603 | 1230 | 2490 | 3200 | 5930 | 11800 |
| 2026-04-24 17:30 | 6.86 | 1150 | 63800 (2011) | 189 (1963) | 3130 | 330 | 416 | 543 | 603 | 1230 | 2490 | 3200 | 5930 | 11800 |
| 2026-04-24 17:00 | 6.85 | 1150 | 63800 (2011) | 189 (1963) | 3130 | 330 | 416 | 543 | 603 | 1230 | 2490 | 3200 | 5930 | 11800 |
| 2026-04-24 16:30 | 6.86 | 1150 | 63800 (2011) | 189 (1963) | 3130 | 330 | 416 | 543 | 603 | 1230 | 2490 | 3200 | 5930 | 11800 |
| 2026-04-24 16:00 | 6.85 | 1150 | 63800 (2011) | 189 (1963) | 3130 | 330 | 416 | 543 | 603 | 1230 | 2490 | 3200 | 5930 | 11800 |
| 2026-04-24 15:30 | 6.84 | 1140 | 63800 (2011) | 189 (1963) | 3130 | 330 | 416 | 543 | 603 | 1230 | 2490 | 3200 | 5930 | 11800 |
| 2026-04-24 15:00 | 6.83 | 1130 | 63800 (2011) | 189 (1963) | 3130 | 330 | 416 | 543 | 603 | 1230 | 2490 | 3200 | 5930 | 11800 |
| 2026-04-24 14:30 | 6.82 | 1130 | 63800 (2011) | 189 (1963) | 3130 | 330 | 416 | 543 | 603 | 1230 | 2490 | 3200 | 5930 | 11800 |
| 2026-04-24 14:00 | 6.80 | 1120 | 63800 (2011) | 189 (1963) | 3130 | 330 | 416 | 543 | 603 | 1230 | 2490 | 3200 | 5930 | 11800 |
| 2026-04-24 13:30 | 6.79 | 1110 | 63800 (2011) | 189 (1963) | 3130 | 330 | 416 | 543 | 603 | 1230 | 2490 | 3200 | 5930 | 11800 |
| 2026-04-24 13:00 | 6.78 | 1100 | 63800 (2011) | 189 (1963) | 3130 | 330 | 416 | 543 | 603 | 1230 | 2490 | 3200 | 5930 | 11800 |
| 2026-04-24 12:30 | 6.77 | 1100 | 63800 (2011) | 189 (1963) | 3130 | 330 | 416 | 543 | 603 | 1230 | 2490 | 3200 | 5930 | 11800 |
| 2026-04-24 12:00 | 6.76 | 1090 | 63800 (2011) | 189 (1963) | 3130 | 330 | 416 | 543 | 603 | 1230 | 2490 | 3200 | 5930 | 11800 |
| 2026-04-24 11:30 | 6.74 | 1080 | 63800 (2011) | 189 (1963) | 3130 | 330 | 416 | 543 | 603 | 1230 | 2490 | 3200 | 5930 | 11800 |
| 2026-04-24 11:00 | 6.70 | 1060 | 63800 (2011) | 189 (1963) | 3130 | 330 | 416 | 543 | 603 | 1230 | 2490 | 3200 | 5930 | 11800 |
| 2026-04-24 10:30 | 6.72 | 1070 | 63800 (2011) | 189 (1963) | 3130 | 330 | 416 | 543 | 603 | 1230 | 2490 | 3200 | 5930 | 11800 |
| 2026-04-24 10:00 | 6.70 | 1060 | 63800 (2011) | 189 (1963) | 3130 | 330 | 416 | 543 | 603 | 1230 | 2490 | 3200 | 5930 | 11800 |
| 2026-04-24 09:30 | 6.67 | 1040 | 63800 (2011) | 189 (1963) | 3130 | 330 | 416 | 543 | 603 | 1230 | 2490 | 3200 | 5930 | 11800 |
| 2026-04-24 09:00 | 6.67 | 1040 | 63800 (2011) | 189 (1963) | 3130 | 330 | 416 | 543 | 603 | 1230 | 2490 | 3200 | 5930 | 11800 |
| 2026-04-24 08:30 | 6.66 | 1030 | 63800 (2011) | 189 (1963) | 3130 | 330 | 416 | 543 | 603 | 1230 | 2490 | 3200 | 5930 | 11800 |
| 2026-04-24 08:00 | 6.68 | 1040 | 63800 (2011) | 189 (1963) | 3130 | 330 | 416 | 543 | 603 | 1230 | 2490 | 3200 | 5930 | 11800 |
| 2026-04-24 07:30 | 6.68 | 1040 | 63800 (2011) | 189 (1963) | 3130 | 330 | 416 | 543 | 603 | 1230 | 2490 | 3200 | 5930 | 11800 |
| 2026-04-24 07:00 | 6.63 | 1010 | 63800 (2011) | 189 (1963) | 3130 | 330 | 416 | 543 | 603 | 1230 | 2490 | 3200 | 5930 | 11800 |
| 2026-04-24 06:30 | 6.64 | 1020 | 63800 (2011) | 189 (1963) | 3130 | 330 | 416 | 543 | 603 | 1230 | 2490 | 3200 | 5930 | 11800 |
| 2026-04-24 06:00 | 6.62 | 1010 | 63800 (2011) | 189 (1963) | 3130 | 330 | 416 | 543 | 603 | 1230 | 2490 | 3200 | 5930 | 11800 |
| 2026-04-24 05:30 | 6.65 | 1030 | 63800 (2011) | 189 (1963) | 3130 | 330 | 416 | 543 | 603 | 1230 | 2490 | 3200 | 5930 | 11800 |
| 2026-04-24 05:00 | 6.66 | 1030 | 63800 (2011) | 189 (1963) | 3130 | 330 | 416 | 543 | 603 | 1230 | 2490 | 3200 | 5930 | 11800 |
| 2026-04-24 04:30 | 6.66 | 1030 | 63800 (2011) | 189 (1963) | 3130 | 330 | 416 | 543 | 603 | 1230 | 2490 | 3200 | 5930 | 11800 |
| 2026-04-24 04:00 | 6.66 | 1030 | 63800 (2011) | 189 (1963) | 3130 | 330 | 416 | 543 | 603 | 1230 | 2490 | 3200 | 5930 | 11800 |
| 2026-04-24 03:30 | 6.67 | 1040 | 63800 (2011) | 189 (1963) | 3130 | 330 | 416 | 543 | 603 | 1230 | 2490 | 3200 | 5930 | 11800 |
| 2026-04-24 03:00 | 6.67 | 1040 | 63800 (2011) | 189 (1963) | 3130 | 330 | 416 | 543 | 603 | 1230 | 2490 | 3200 | 5930 | 11800 |
| 2026-04-24 02:30 | 6.67 | 1040 | 63800 (2011) | 189 (1963) | 3130 | 330 | 416 | 543 | 603 | 1230 | 2490 | 3200 | 5930 | 11800 |
| 2026-04-24 02:00 | 6.68 | 1040 | 63800 (2011) | 189 (1963) | 3130 | 330 | 416 | 543 | 603 | 1230 | 2490 | 3200 | 5930 | 11800 |
| 2026-04-24 01:30 | 6.68 | 1040 | 63800 (2011) | 189 (1963) | 3130 | 330 | 416 | 543 | 603 | 1230 | 2490 | 3200 | 5930 | 11800 |
| 2026-04-24 01:00 | 6.69 | 1050 | 63800 (2011) | 189 (1963) | 3130 | 330 | 416 | 543 | 603 | 1230 | 2490 | 3200 | 5930 | 11800 |
| 2026-04-24 00:30 | 6.69 | 1050 | 63800 (2011) | 189 (1963) | 3130 | 330 | 416 | 543 | 603 | 1230 | 2490 | 3200 | 5930 | 11800 |
| 2026-04-24 00:00 | 6.70 | 1060 | 63800 (2011) | 189 (1963) | 3130 | 330 | 416 | 543 | 603 | 1230 | 2490 | 3200 | 5930 | 11800 |
| 2026-04-23 23:30 | 6.70 | 1060 | 63800 (2011) | 189 (1963) | 3130 | 330 | 416 | 543 | 603 | 1230 | 2490 | 3200 | 5930 | 11800 |
| 2026-04-23 23:00 | 6.71 | 1060 | 63800 (2011) | 189 (1963) | 3130 | 330 | 416 | 543 | 603 | 1230 | 2490 | 3200 | 5930 | 11800 |
| 2026-04-23 22:30 | 6.71 | 1060 | 40000 (1996) | 186 (2000) | 2750 | 351 | 417 | 553 | 612 | 1230 | 2180 | 2690 | 7480 | 9400 |
| 2026-04-23 22:00 | 6.72 | 1070 | 40000 (1996) | 186 (2000) | 2750 | 351 | 417 | 553 | 612 | 1230 | 2180 | 2690 | 7480 | 9400 |
| 2026-04-23 21:30 | 6.73 | 1070 | 40000 (1996) | 186 (2000) | 2750 | 351 | 417 | 553 | 612 | 1230 | 2180 | 2690 | 7480 | 9400 |
| 2026-04-23 21:00 | 6.73 | 1070 | 40000 (1996) | 186 (2000) | 2750 | 351 | 417 | 553 | 612 | 1230 | 2180 | 2690 | 7480 | 9400 |
| 2026-04-23 20:30 | 6.74 | 1080 | 40000 (1996) | 186 (2000) | 2750 | 351 | 417 | 553 | 612 | 1230 | 2180 | 2690 | 7480 | 9400 |
| 2026-04-23 20:00 | 6.74 | 1080 | 40000 (1996) | 186 (2000) | 2750 | 351 | 417 | 553 | 612 | 1230 | 2180 | 2690 | 7480 | 9400 |
| 2026-04-23 19:30 | 6.75 | 1090 | 40000 (1996) | 186 (2000) | 2750 | 351 | 417 | 553 | 612 | 1230 | 2180 | 2690 | 7480 | 9400 |
| 2026-04-23 19:00 | 6.76 | 1090 | 40000 (1996) | 186 (2000) | 2750 | 351 | 417 | 553 | 612 | 1230 | 2180 | 2690 | 7480 | 9400 |
| 2026-04-23 18:30 | 6.76 | 1090 | 40000 (1996) | 186 (2000) | 2750 | 351 | 417 | 553 | 612 | 1230 | 2180 | 2690 | 7480 | 9400 |
| 2026-04-23 18:00 | 6.75 | 1090 | 40000 (1996) | 186 (2000) | 2750 | 351 | 417 | 553 | 612 | 1230 | 2180 | 2690 | 7480 | 9400 |
| 2026-04-23 17:30 | 6.75 | 1090 | 40000 (1996) | 186 (2000) | 2750 | 351 | 417 | 553 | 612 | 1230 | 2180 | 2690 | 7480 | 9400 |
| 2026-04-23 17:00 | 6.78 | 1100 | 40000 (1996) | 186 (2000) | 2750 | 351 | 417 | 553 | 612 | 1230 | 2180 | 2690 | 7480 | 9400 |
| 2026-04-23 16:30 | 6.74 | 1080 | 40000 (1996) | 186 (2000) | 2750 | 351 | 417 | 553 | 612 | 1230 | 2180 | 2690 | 7480 | 9400 |
| 2026-04-23 16:00 | 6.75 | 1090 | 40000 (1996) | 186 (2000) | 2750 | 351 | 417 | 553 | 612 | 1230 | 2180 | 2690 | 7480 | 9400 |
| 2026-04-23 15:30 | 6.75 | 1090 | 40000 (1996) | 186 (2000) | 2750 | 351 | 417 | 553 | 612 | 1230 | 2180 | 2690 | 7480 | 9400 |
| 2026-04-23 15:00 | 6.76 | 1090 | 40000 (1996) | 186 (2000) | 2750 | 351 | 417 | 553 | 612 | 1230 | 2180 | 2690 | 7480 | 9400 |
| 2026-04-23 14:30 | 6.76 | 1090 | 40000 (1996) | 186 (2000) | 2750 | 351 | 417 | 553 | 612 | 1230 | 2180 | 2690 | 7480 | 9400 |
| 2026-04-23 14:00 | 6.77 | 1100 | 40000 (1996) | 186 (2000) | 2750 | 351 | 417 | 553 | 612 | 1230 | 2180 | 2690 | 7480 | 9400 |
| 2026-04-23 13:30 | 6.78 | 1100 | 40000 (1996) | 186 (2000) | 2750 | 351 | 417 | 553 | 612 | 1230 | 2180 | 2690 | 7480 | 9400 |
| 2026-04-23 13:00 | 6.77 | 1100 | 40000 (1996) | 186 (2000) | 2750 | 351 | 417 | 553 | 612 | 1230 | 2180 | 2690 | 7480 | 9400 |
| 2026-04-23 12:30 | 6.77 | 1100 | 40000 (1996) | 186 (2000) | 2750 | 351 | 417 | 553 | 612 | 1230 | 2180 | 2690 | 7480 | 9400 |
| 2026-04-23 12:00 | 6.78 | 1100 | 40000 (1996) | 186 (2000) | 2750 | 351 | 417 | 553 | 612 | 1230 | 2180 | 2690 | 7480 | 9400 |
| 2026-04-23 11:30 | 6.79 | 1110 | 40000 (1996) | 186 (2000) | 2750 | 351 | 417 | 553 | 612 | 1230 | 2180 | 2690 | 7480 | 9400 |
| 2026-04-23 11:00 | 6.82 | 1130 | 40000 (1996) | 186 (2000) | 2750 | 351 | 417 | 553 | 612 | 1230 | 2180 | 2690 | 7480 | 9400 |
| 2026-04-23 10:30 | 6.82 | 1130 | 40000 (1996) | 186 (2000) | 2750 | 351 | 417 | 553 | 612 | 1230 | 2180 | 2690 | 7480 | 9400 |
| 2026-04-23 10:00 | 6.83 | 1130 | 40000 (1996) | 186 (2000) | 2750 | 351 | 417 | 553 | 612 | 1230 | 2180 | 2690 | 7480 | 9400 |
| 2026-04-23 09:30 | 6.86 | 1150 | 40000 (1996) | 186 (2000) | 2750 | 351 | 417 | 553 | 612 | 1230 | 2180 | 2690 | 7480 | 9400 |
| 2026-04-23 09:00 | 6.86 | 1150 | 40000 (1996) | 186 (2000) | 2750 | 351 | 417 | 553 | 612 | 1230 | 2180 | 2690 | 7480 | 9400 |
| 2026-04-23 08:30 | 6.87 | 1160 | 40000 (1996) | 186 (2000) | 2750 | 351 | 417 | 553 | 612 | 1230 | 2180 | 2690 | 7480 | 9400 |
| 2026-04-23 08:00 | 6.88 | 1170 | 40000 (1996) | 186 (2000) | 2750 | 351 | 417 | 553 | 612 | 1230 | 2180 | 2690 | 7480 | 9400 |
| 2026-04-23 07:30 | 6.89 | 1170 | 40000 (1996) | 186 (2000) | 2750 | 351 | 417 | 553 | 612 | 1230 | 2180 | 2690 | 7480 | 9400 |
| 2026-04-23 07:00 | 6.89 | 1170 | 40000 (1996) | 186 (2000) | 2750 | 351 | 417 | 553 | 612 | 1230 | 2180 | 2690 | 7480 | 9400 |
| 2026-04-23 06:30 | 6.90 | 1180 | 40000 (1996) | 186 (2000) | 2750 | 351 | 417 | 553 | 612 | 1230 | 2180 | 2690 | 7480 | 9400 |
| 2026-04-23 06:00 | 6.90 | 1180 | 40000 (1996) | 186 (2000) | 2750 | 351 | 417 | 553 | 612 | 1230 | 2180 | 2690 | 7480 | 9400 |
| 2026-04-23 05:30 | 6.91 | 1180 | 40000 (1996) | 186 (2000) | 2750 | 351 | 417 | 553 | 612 | 1230 | 2180 | 2690 | 7480 | 9400 |
| 2026-04-23 05:00 | 6.92 | 1190 | 40000 (1996) | 186 (2000) | 2750 | 351 | 417 | 553 | 612 | 1230 | 2180 | 2690 | 7480 | 9400 |
| 2026-04-23 04:30 | 6.92 | 1190 | 40000 (1996) | 186 (2000) | 2750 | 351 | 417 | 553 | 612 | 1230 | 2180 | 2690 | 7480 | 9400 |
| 2026-04-23 04:00 | 6.92 | 1190 | 40000 (1996) | 186 (2000) | 2750 | 351 | 417 | 553 | 612 | 1230 | 2180 | 2690 | 7480 | 9400 |
| 2026-04-23 03:30 | 6.93 | 1200 | 40000 (1996) | 186 (2000) | 2750 | 351 | 417 | 553 | 612 | 1230 | 2180 | 2690 | 7480 | 9400 |
| 2026-04-23 03:00 | 6.94 | 1200 | 40000 (1996) | 186 (2000) | 2750 | 351 | 417 | 553 | 612 | 1230 | 2180 | 2690 | 7480 | 9400 |
| 2026-04-23 02:30 | 6.94 | 1200 | 40000 (1996) | 186 (2000) | 2750 | 351 | 417 | 553 | 612 | 1230 | 2180 | 2690 | 7480 | 9400 |
| 2026-04-23 02:00 | 6.95 | 1210 | 40000 (1996) | 186 (2000) | 2750 | 351 | 417 | 553 | 612 | 1230 | 2180 | 2690 | 7480 | 9400 |
| 2026-04-23 01:30 | 6.95 | 1210 | 40000 (1996) | 186 (2000) | 2750 | 351 | 417 | 553 | 612 | 1230 | 2180 | 2690 | 7480 | 9400 |
| 2026-04-23 01:00 | 6.96 | 1220 | 40000 (1996) | 186 (2000) | 2750 | 351 | 417 | 553 | 612 | 1230 | 2180 | 2690 | 7480 | 9400 |
| 2026-04-23 00:30 | 6.96 | 1220 | 40000 (1996) | 186 (2000) | 2750 | 351 | 417 | 553 | 612 | 1230 | 2180 | 2690 | 7480 | 9400 |
| 2026-04-23 00:00 | 6.97 | 1220 | 40000 (1996) | 186 (2000) | 2750 | 351 | 417 | 553 | 612 | 1230 | 2180 | 2690 | 7480 | 9400 |
| 2026-04-22 23:30 | 6.98 | 1230 | 40000 (1996) | 186 (2000) | 2750 | 351 | 417 | 553 | 612 | 1230 | 2180 | 2690 | 7480 | 9400 |
| 2026-04-22 23:00 | 6.99 | 1240 | 40000 (1996) | 186 (2000) | 2750 | 351 | 417 | 553 | 612 | 1230 | 2180 | 2690 | 7480 | 9400 |
| 2026-04-22 22:30 | 7.00 | 1240 | 14400 (1984) | 194 (2000) | 2210 | 333 | 400 | 548 | 614 | 1120 | 2580 | 2750 | 5610 | 10000 |
| 2026-04-22 22:00 | 7.00 | 1240 | 14400 (1984) | 194 (2000) | 2210 | 333 | 400 | 548 | 614 | 1120 | 2580 | 2750 | 5610 | 10000 |
| 2026-04-22 21:30 | 7.01 | 1250 | 14400 (1984) | 194 (2000) | 2210 | 333 | 400 | 548 | 614 | 1120 | 2580 | 2750 | 5610 | 10000 |
| 2026-04-22 21:00 | 7.01 | 1250 | 14400 (1984) | 194 (2000) | 2210 | 333 | 400 | 548 | 614 | 1120 | 2580 | 2750 | 5610 | 10000 |
| 2026-04-22 20:30 | 7.03 | 1260 | 14400 (1984) | 194 (2000) | 2210 | 333 | 400 | 548 | 614 | 1120 | 2580 | 2750 | 5610 | 10000 |
| 2026-04-22 20:00 | 7.04 | 1270 | 14400 (1984) | 194 (2000) | 2210 | 333 | 400 | 548 | 614 | 1120 | 2580 | 2750 | 5610 | 10000 |
| 2026-04-22 19:30 | 7.04 | 1270 | 14400 (1984) | 194 (2000) | 2210 | 333 | 400 | 548 | 614 | 1120 | 2580 | 2750 | 5610 | 10000 |
| 2026-04-22 19:00 | 7.05 | 1280 | 14400 (1984) | 194 (2000) | 2210 | 333 | 400 | 548 | 614 | 1120 | 2580 | 2750 | 5610 | 10000 |
| 2026-04-22 18:30 | 7.04 | 1270 | 14400 (1984) | 194 (2000) | 2210 | 333 | 400 | 548 | 614 | 1120 | 2580 | 2750 | 5610 | 10000 |
| 2026-04-22 18:00 | 7.06 | 1280 | 14400 (1984) | 194 (2000) | 2210 | 333 | 400 | 548 | 614 | 1120 | 2580 | 2750 | 5610 | 10000 |
| 2026-04-22 17:30 | 7.07 | 1290 | 14400 (1984) | 194 (2000) | 2210 | 333 | 400 | 548 | 614 | 1120 | 2580 | 2750 | 5610 | 10000 |
| 2026-04-22 17:00 | 7.07 | 1290 | 14400 (1984) | 194 (2000) | 2210 | 333 | 400 | 548 | 614 | 1120 | 2580 | 2750 | 5610 | 10000 |
| 2026-04-22 16:30 | 7.08 | 1300 | 14400 (1984) | 194 (2000) | 2210 | 333 | 400 | 548 | 614 | 1120 | 2580 | 2750 | 5610 | 10000 |
| 2026-04-22 16:00 | 7.08 | 1300 | 14400 (1984) | 194 (2000) | 2210 | 333 | 400 | 548 | 614 | 1120 | 2580 | 2750 | 5610 | 10000 |
| 2026-04-22 15:30 | 7.10 | 1310 | 14400 (1984) | 194 (2000) | 2210 | 333 | 400 | 548 | 614 | 1120 | 2580 | 2750 | 5610 | 10000 |
| 2026-04-22 15:00 | 7.10 | 1310 | 14400 (1984) | 194 (2000) | 2210 | 333 | 400 | 548 | 614 | 1120 | 2580 | 2750 | 5610 | 10000 |
| 2026-04-22 14:30 | 7.11 | 1320 | 14400 (1984) | 194 (2000) | 2210 | 333 | 400 | 548 | 614 | 1120 | 2580 | 2750 | 5610 | 10000 |
| 2026-04-22 14:00 | 7.12 | 1320 | 14400 (1984) | 194 (2000) | 2210 | 333 | 400 | 548 | 614 | 1120 | 2580 | 2750 | 5610 | 10000 |
| 2026-04-22 13:30 | 7.13 | 1330 | 14400 (1984) | 194 (2000) | 2210 | 333 | 400 | 548 | 614 | 1120 | 2580 | 2750 | 5610 | 10000 |
| 2026-04-22 13:00 | 7.14 | 1340 | 14400 (1984) | 194 (2000) | 2210 | 333 | 400 | 548 | 614 | 1120 | 2580 | 2750 | 5610 | 10000 |
| 2026-04-22 12:30 | 7.15 | 1340 | 14400 (1984) | 194 (2000) | 2210 | 333 | 400 | 548 | 614 | 1120 | 2580 | 2750 | 5610 | 10000 |
| 2026-04-22 12:00 | 7.15 | 1340 | 14400 (1984) | 194 (2000) | 2210 | 333 | 400 | 548 | 614 | 1120 | 2580 | 2750 | 5610 | 10000 |
| 2026-04-22 11:30 | 7.16 | 1350 | 14400 (1984) | 194 (2000) | 2210 | 333 | 400 | 548 | 614 | 1120 | 2580 | 2750 | 5610 | 10000 |
| 2026-04-22 11:00 | 7.17 | 1360 | 14400 (1984) | 194 (2000) | 2210 | 333 | 400 | 548 | 614 | 1120 | 2580 | 2750 | 5610 | 10000 |
| 2026-04-22 10:30 | 7.15 | 1340 | 14400 (1984) | 194 (2000) | 2210 | 333 | 400 | 548 | 614 | 1120 | 2580 | 2750 | 5610 | 10000 |
| 2026-04-22 10:00 | 7.18 | 1360 | 14400 (1984) | 194 (2000) | 2210 | 333 | 400 | 548 | 614 | 1120 | 2580 | 2750 | 5610 | 10000 |
| 2026-04-22 09:30 | 7.19 | 1370 | 14400 (1984) | 194 (2000) | 2210 | 333 | 400 | 548 | 614 | 1120 | 2580 | 2750 | 5610 | 10000 |
| 2026-04-22 09:00 | 7.21 | 1380 | 14400 (1984) | 194 (2000) | 2210 | 333 | 400 | 548 | 614 | 1120 | 2580 | 2750 | 5610 | 10000 |
| 2026-04-22 08:30 | 7.21 | 1380 | 14400 (1984) | 194 (2000) | 2210 | 333 | 400 | 548 | 614 | 1120 | 2580 | 2750 | 5610 | 10000 |
| 2026-04-22 08:00 | 7.22 | 1390 | 14400 (1984) | 194 (2000) | 2210 | 333 | 400 | 548 | 614 | 1120 | 2580 | 2750 | 5610 | 10000 |
| 2026-04-22 07:30 | 7.23 | 1400 | 14400 (1984) | 194 (2000) | 2210 | 333 | 400 | 548 | 614 | 1120 | 2580 | 2750 | 5610 | 10000 |
| 2026-04-22 07:00 | 7.25 | 1410 | 14400 (1984) | 194 (2000) | 2210 | 333 | 400 | 548 | 614 | 1120 | 2580 | 2750 | 5610 | 10000 |
| 2026-04-22 06:30 | 7.25 | 1410 | 14400 (1984) | 194 (2000) | 2210 | 333 | 400 | 548 | 614 | 1120 | 2580 | 2750 | 5610 | 10000 |
| 2026-04-22 06:00 | 7.26 | 1420 | 14400 (1984) | 194 (2000) | 2210 | 333 | 400 | 548 | 614 | 1120 | 2580 | 2750 | 5610 | 10000 |
| 2026-04-22 05:30 | 7.27 | 1430 | 14400 (1984) | 194 (2000) | 2210 | 333 | 400 | 548 | 614 | 1120 | 2580 | 2750 | 5610 | 10000 |
| 2026-04-22 05:00 | 7.28 | 1430 | 14400 (1984) | 194 (2000) | 2210 | 333 | 400 | 548 | 614 | 1120 | 2580 | 2750 | 5610 | 10000 |
| 2026-04-22 04:30 | 7.29 | 1440 | 14400 (1984) | 194 (2000) | 2210 | 333 | 400 | 548 | 614 | 1120 | 2580 | 2750 | 5610 | 10000 |
| 2026-04-22 04:00 | 7.30 | 1450 | 14400 (1984) | 194 (2000) | 2210 | 333 | 400 | 548 | 614 | 1120 | 2580 | 2750 | 5610 | 10000 |
| 2026-04-22 03:30 | 7.31 | 1450 | 14400 (1984) | 194 (2000) | 2210 | 333 | 400 | 548 | 614 | 1120 | 2580 | 2750 | 5610 | 10000 |
| 2026-04-22 03:00 | 7.31 | 1450 | 14400 (1984) | 194 (2000) | 2210 | 333 | 400 | 548 | 614 | 1120 | 2580 | 2750 | 5610 | 10000 |
| 2026-04-22 02:30 | 7.32 | 1460 | 14400 (1984) | 194 (2000) | 2210 | 333 | 400 | 548 | 614 | 1120 | 2580 | 2750 | 5610 | 10000 |
| 2026-04-22 02:00 | 7.33 | 1470 | 14400 (1984) | 194 (2000) | 2210 | 333 | 400 | 548 | 614 | 1120 | 2580 | 2750 | 5610 | 10000 |
| 2026-04-22 01:30 | 7.35 | 1480 | 14400 (1984) | 194 (2000) | 2210 | 333 | 400 | 548 | 614 | 1120 | 2580 | 2750 | 5610 | 10000 |
| 2026-04-22 01:00 | 7.35 | 1480 | 14400 (1984) | 194 (2000) | 2210 | 333 | 400 | 548 | 614 | 1120 | 2580 | 2750 | 5610 | 10000 |
| 2026-04-22 00:30 | 7.37 | 1500 | 14400 (1984) | 194 (2000) | 2210 | 333 | 400 | 548 | 614 | 1120 | 2580 | 2750 | 5610 | 10000 |
| 2026-04-22 00:00 | 7.38 | 1510 | 14400 (1984) | 194 (2000) | 2210 | 333 | 400 | 548 | 614 | 1120 | 2580 | 2750 | 5610 | 10000 |
| 2026-04-21 23:30 | 7.39 | 1510 | 14400 (1984) | 194 (2000) | 2210 | 333 | 400 | 548 | 614 | 1120 | 2580 | 2750 | 5610 | 10000 |
| 2026-04-21 23:00 | 7.39 | 1510 | 14400 (1984) | 194 (2000) | 2210 | 333 | 400 | 548 | 614 | 1120 | 2580 | 2750 | 5610 | 10000 |
| 2026-04-21 22:30 | 7.41 | 1530 | 19500 (1928) | 204 (2000) | 2350 | 295 | 418 | 547 | 616 | 1110 | 2390 | 2800 | 5730 | 10700 |
| 2026-04-21 22:00 | 7.42 | 1530 | 19500 (1928) | 204 (2000) | 2350 | 295 | 418 | 547 | 616 | 1110 | 2390 | 2800 | 5730 | 10700 |
| 2026-04-21 21:30 | 7.43 | 1540 | 19500 (1928) | 204 (2000) | 2350 | 295 | 418 | 547 | 616 | 1110 | 2390 | 2800 | 5730 | 10700 |
| 2026-04-21 21:00 | 7.44 | 1550 | 19500 (1928) | 204 (2000) | 2350 | 295 | 418 | 547 | 616 | 1110 | 2390 | 2800 | 5730 | 10700 |
| 2026-04-21 20:30 | 7.45 | 1560 | 19500 (1928) | 204 (2000) | 2350 | 295 | 418 | 547 | 616 | 1110 | 2390 | 2800 | 5730 | 10700 |
| 2026-04-21 20:00 | 7.48 | 1580 | 19500 (1928) | 204 (2000) | 2350 | 295 | 418 | 547 | 616 | 1110 | 2390 | 2800 | 5730 | 10700 |
| 2026-04-21 19:30 | 7.48 | 1580 | 19500 (1928) | 204 (2000) | 2350 | 295 | 418 | 547 | 616 | 1110 | 2390 | 2800 | 5730 | 10700 |
| 2026-04-21 19:00 | 7.48 | 1580 | 19500 (1928) | 204 (2000) | 2350 | 295 | 418 | 547 | 616 | 1110 | 2390 | 2800 | 5730 | 10700 |
| 2026-04-21 18:30 | 7.49 | 1590 | 19500 (1928) | 204 (2000) | 2350 | 295 | 418 | 547 | 616 | 1110 | 2390 | 2800 | 5730 | 10700 |
| 2026-04-21 18:00 | 7.50 | 1590 | 19500 (1928) | 204 (2000) | 2350 | 295 | 418 | 547 | 616 | 1110 | 2390 | 2800 | 5730 | 10700 |
| 2026-04-21 17:30 | 7.51 | 1600 | 19500 (1928) | 204 (2000) | 2350 | 295 | 418 | 547 | 616 | 1110 | 2390 | 2800 | 5730 | 10700 |
| 2026-04-21 17:00 | 7.53 | 1620 | 19500 (1928) | 204 (2000) | 2350 | 295 | 418 | 547 | 616 | 1110 | 2390 | 2800 | 5730 | 10700 |
| 2026-04-21 16:30 | 7.54 | 1620 | 19500 (1928) | 204 (2000) | 2350 | 295 | 418 | 547 | 616 | 1110 | 2390 | 2800 | 5730 | 10700 |
| 2026-04-21 16:00 | 7.55 | 1630 | 19500 (1928) | 204 (2000) | 2350 | 295 | 418 | 547 | 616 | 1110 | 2390 | 2800 | 5730 | 10700 |
| 2026-04-21 15:30 | 7.55 | 1630 | 19500 (1928) | 204 (2000) | 2350 | 295 | 418 | 547 | 616 | 1110 | 2390 | 2800 | 5730 | 10700 |
| 2026-04-21 15:00 | 7.59 | 1660 | 19500 (1928) | 204 (2000) | 2350 | 295 | 418 | 547 | 616 | 1110 | 2390 | 2800 | 5730 | 10700 |
| 2026-04-21 14:30 | 7.61 | 1680 | 19500 (1928) | 204 (2000) | 2350 | 295 | 418 | 547 | 616 | 1110 | 2390 | 2800 | 5730 | 10700 |
| 2026-04-21 14:00 | 7.61 | 1680 | 19500 (1928) | 204 (2000) | 2350 | 295 | 418 | 547 | 616 | 1110 | 2390 | 2800 | 5730 | 10700 |
| 2026-04-21 13:30 | 7.62 | 1690 | 19500 (1928) | 204 (2000) | 2350 | 295 | 418 | 547 | 616 | 1110 | 2390 | 2800 | 5730 | 10700 |
| 2026-04-21 13:00 | 7.62 | 1690 | 19500 (1928) | 204 (2000) | 2350 | 295 | 418 | 547 | 616 | 1110 | 2390 | 2800 | 5730 | 10700 |
| 2026-04-21 12:30 | 7.65 | 1710 | 19500 (1928) | 204 (2000) | 2350 | 295 | 418 | 547 | 616 | 1110 | 2390 | 2800 | 5730 | 10700 |
| 2026-04-21 12:00 | 7.66 | 1720 | 19500 (1928) | 204 (2000) | 2350 | 295 | 418 | 547 | 616 | 1110 | 2390 | 2800 | 5730 | 10700 |
| 2026-04-21 11:30 | 7.68 | 1730 | 19500 (1928) | 204 (2000) | 2350 | 295 | 418 | 547 | 616 | 1110 | 2390 | 2800 | 5730 | 10700 |
| 2026-04-21 11:00 | 7.70 | 1750 | 19500 (1928) | 204 (2000) | 2350 | 295 | 418 | 547 | 616 | 1110 | 2390 | 2800 | 5730 | 10700 |
| 2026-04-21 10:30 | 7.70 | 1750 | 19500 (1928) | 204 (2000) | 2350 | 295 | 418 | 547 | 616 | 1110 | 2390 | 2800 | 5730 | 10700 |
| 2026-04-21 10:00 | 7.73 | 1770 | 19500 (1928) | 204 (2000) | 2350 | 295 | 418 | 547 | 616 | 1110 | 2390 | 2800 | 5730 | 10700 |
| 2026-04-21 09:30 | 7.74 | 1780 | 19500 (1928) | 204 (2000) | 2350 | 295 | 418 | 547 | 616 | 1110 | 2390 | 2800 | 5730 | 10700 |
| 2026-04-21 09:00 | 7.76 | 1800 | 19500 (1928) | 204 (2000) | 2350 | 295 | 418 | 547 | 616 | 1110 | 2390 | 2800 | 5730 | 10700 |
| 2026-04-21 08:30 | 7.76 | 1800 | 19500 (1928) | 204 (2000) | 2350 | 295 | 418 | 547 | 616 | 1110 | 2390 | 2800 | 5730 | 10700 |
| 2026-04-21 08:00 | 7.78 | 1810 | 19500 (1928) | 204 (2000) | 2350 | 295 | 418 | 547 | 616 | 1110 | 2390 | 2800 | 5730 | 10700 |
| 2026-04-21 07:30 | 7.80 | 1830 | 19500 (1928) | 204 (2000) | 2350 | 295 | 418 | 547 | 616 | 1110 | 2390 | 2800 | 5730 | 10700 |
| 2026-04-21 07:00 | 7.81 | 1840 | 19500 (1928) | 204 (2000) | 2350 | 295 | 418 | 547 | 616 | 1110 | 2390 | 2800 | 5730 | 10700 |
| 2026-04-21 06:30 | 7.83 | 1850 | 19500 (1928) | 204 (2000) | 2350 | 295 | 418 | 547 | 616 | 1110 | 2390 | 2800 | 5730 | 10700 |
| 2026-04-21 06:00 | 7.85 | 1870 | 19500 (1928) | 204 (2000) | 2350 | 295 | 418 | 547 | 616 | 1110 | 2390 | 2800 | 5730 | 10700 |
| 2026-04-21 05:30 | 7.88 | 1900 | 19500 (1928) | 204 (2000) | 2350 | 295 | 418 | 547 | 616 | 1110 | 2390 | 2800 | 5730 | 10700 |
| 2026-04-21 05:00 | 7.89 | 1910 | 19500 (1928) | 204 (2000) | 2350 | 295 | 418 | 547 | 616 | 1110 | 2390 | 2800 | 5730 | 10700 |
| 2026-04-21 04:30 | 7.90 | 1910 | 19500 (1928) | 204 (2000) | 2350 | 295 | 418 | 547 | 616 | 1110 | 2390 | 2800 | 5730 | 10700 |
| 2026-04-21 04:00 | 7.91 | 1920 | 19500 (1928) | 204 (2000) | 2350 | 295 | 418 | 547 | 616 | 1110 | 2390 | 2800 | 5730 | 10700 |
| 2026-04-21 03:30 | 7.93 | 1940 | 19500 (1928) | 204 (2000) | 2350 | 295 | 418 | 547 | 616 | 1110 | 2390 | 2800 | 5730 | 10700 |
| 2026-04-21 03:00 | 7.95 | 1960 | 19500 (1928) | 204 (2000) | 2350 | 295 | 418 | 547 | 616 | 1110 | 2390 | 2800 | 5730 | 10700 |
| 2026-04-21 02:30 | 7.96 | 1970 | 19500 (1928) | 204 (2000) | 2350 | 295 | 418 | 547 | 616 | 1110 | 2390 | 2800 | 5730 | 10700 |
| 2026-04-21 02:00 | 7.99 | 2000 | 19500 (1928) | 204 (2000) | 2350 | 295 | 418 | 547 | 616 | 1110 | 2390 | 2800 | 5730 | 10700 |
| 2026-04-21 01:30 | 8.00 | 2010 | 19500 (1928) | 204 (2000) | 2350 | 295 | 418 | 547 | 616 | 1110 | 2390 | 2800 | 5730 | 10700 |
| 2026-04-21 01:00 | 8.01 | 2020 | 19500 (1928) | 204 (2000) | 2350 | 295 | 418 | 547 | 616 | 1110 | 2390 | 2800 | 5730 | 10700 |
| 2026-04-21 00:30 | 8.04 | 2040 | 19500 (1928) | 204 (2000) | 2350 | 295 | 418 | 547 | 616 | 1110 | 2390 | 2800 | 5730 | 10700 |
| 2026-04-21 00:00 | 8.06 | 2060 | 19500 (1928) | 204 (2000) | 2350 | 295 | 418 | 547 | 616 | 1110 | 2390 | 2800 | 5730 | 10700 |
| 2026-04-20 23:30 | 8.07 | 2070 | 19500 (1928) | 204 (2000) | 2350 | 295 | 418 | 547 | 616 | 1110 | 2390 | 2800 | 5730 | 10700 |
| 2026-04-20 23:00 | 8.08 | 2080 | 19500 (1928) | 204 (2000) | 2350 | 295 | 418 | 547 | 616 | 1110 | 2390 | 2800 | 5730 | 10700 |
| 2026-04-20 22:30 | 8.11 | 2110 | 24600 (1970) | 217 (2000) | 2530 | 292 | 420 | 602 | 660 | 1030 | 1970 | 2410 | 6780 | 14000 |
| 2026-04-20 22:00 | 8.14 | 2140 | 24600 (1970) | 217 (2000) | 2530 | 292 | 420 | 602 | 660 | 1030 | 1970 | 2410 | 6780 | 14000 |
| 2026-04-20 21:30 | 8.15 | 2150 | 24600 (1970) | 217 (2000) | 2530 | 292 | 420 | 602 | 660 | 1030 | 1970 | 2410 | 6780 | 14000 |
| 2026-04-20 21:00 | 8.17 | 2170 | 24600 (1970) | 217 (2000) | 2530 | 292 | 420 | 602 | 660 | 1030 | 1970 | 2410 | 6780 | 14000 |
| 2026-04-20 20:30 | 8.19 | 2190 | 24600 (1970) | 217 (2000) | 2530 | 292 | 420 | 602 | 660 | 1030 | 1970 | 2410 | 6780 | 14000 |
| 2026-04-20 20:00 | 8.22 | 2220 | 24600 (1970) | 217 (2000) | 2530 | 292 | 420 | 602 | 660 | 1030 | 1970 | 2410 | 6780 | 14000 |
| 2026-04-20 19:30 | 8.24 | 2240 | 24600 (1970) | 217 (2000) | 2530 | 292 | 420 | 602 | 660 | 1030 | 1970 | 2410 | 6780 | 14000 |
| 2026-04-20 19:00 | 8.27 | 2270 | 24600 (1970) | 217 (2000) | 2530 | 292 | 420 | 602 | 660 | 1030 | 1970 | 2410 | 6780 | 14000 |
| 2026-04-20 18:30 | 8.29 | 2290 | 24600 (1970) | 217 (2000) | 2530 | 292 | 420 | 602 | 660 | 1030 | 1970 | 2410 | 6780 | 14000 |
| 2026-04-20 18:00 | 8.31 | 2310 | 24600 (1970) | 217 (2000) | 2530 | 292 | 420 | 602 | 660 | 1030 | 1970 | 2410 | 6780 | 14000 |
| 2026-04-20 17:30 | 8.34 | 2340 | 24600 (1970) | 217 (2000) | 2530 | 292 | 420 | 602 | 660 | 1030 | 1970 | 2410 | 6780 | 14000 |
| 2026-04-20 17:00 | 8.35 | 2350 | 24600 (1970) | 217 (2000) | 2530 | 292 | 420 | 602 | 660 | 1030 | 1970 | 2410 | 6780 | 14000 |
| 2026-04-20 16:30 | 8.38 | 2380 | 24600 (1970) | 217 (2000) | 2530 | 292 | 420 | 602 | 660 | 1030 | 1970 | 2410 | 6780 | 14000 |
| 2026-04-20 16:00 | 8.40 | 2400 | 24600 (1970) | 217 (2000) | 2530 | 292 | 420 | 602 | 660 | 1030 | 1970 | 2410 | 6780 | 14000 |
| 2026-04-20 15:30 | 8.44 | 2440 | 24600 (1970) | 217 (2000) | 2530 | 292 | 420 | 602 | 660 | 1030 | 1970 | 2410 | 6780 | 14000 |
| 2026-04-20 15:00 | 8.46 | 2460 | 24600 (1970) | 217 (2000) | 2530 | 292 | 420 | 602 | 660 | 1030 | 1970 | 2410 | 6780 | 14000 |
| 2026-04-20 14:30 | 8.50 | 2500 | 24600 (1970) | 217 (2000) | 2530 | 292 | 420 | 602 | 660 | 1030 | 1970 | 2410 | 6780 | 14000 |
| 2026-04-20 14:00 | 8.52 | 2520 | 24600 (1970) | 217 (2000) | 2530 | 292 | 420 | 602 | 660 | 1030 | 1970 | 2410 | 6780 | 14000 |
| 2026-04-20 13:30 | 8.55 | 2550 | 24600 (1970) | 217 (2000) | 2530 | 292 | 420 | 602 | 660 | 1030 | 1970 | 2410 | 6780 | 14000 |
| 2026-04-20 13:00 | 8.57 | 2580 | 24600 (1970) | 217 (2000) | 2530 | 292 | 420 | 602 | 660 | 1030 | 1970 | 2410 | 6780 | 14000 |
| 2026-04-20 12:30 | 8.60 | 2610 | 24600 (1970) | 217 (2000) | 2530 | 292 | 420 | 602 | 660 | 1030 | 1970 | 2410 | 6780 | 14000 |
| 2026-04-20 12:00 | 8.62 | 2630 | 24600 (1970) | 217 (2000) | 2530 | 292 | 420 | 602 | 660 | 1030 | 1970 | 2410 | 6780 | 14000 |
| 2026-04-20 11:30 | 8.65 | 2660 | 24600 (1970) | 217 (2000) | 2530 | 292 | 420 | 602 | 660 | 1030 | 1970 | 2410 | 6780 | 14000 |
| 2026-04-20 11:00 | 8.68 | 2690 | 24600 (1970) | 217 (2000) | 2530 | 292 | 420 | 602 | 660 | 1030 | 1970 | 2410 | 6780 | 14000 |
| 2026-04-20 10:30 | 8.71 | 2150 | 24600 (1970) | 217 (2000) | 2530 | 292 | 420 | 602 | 660 | 1030 | 1970 | 2410 | 6780 | 14000 |
| 2026-04-20 10:00 | 8.75 | 2190 | 24600 (1970) | 217 (2000) | 2530 | 292 | 420 | 602 | 660 | 1030 | 1970 | 2410 | 6780 | 14000 |
| 2026-04-20 09:30 | 8.79 | 2230 | 24600 (1970) | 217 (2000) | 2530 | 292 | 420 | 602 | 660 | 1030 | 1970 | 2410 | 6780 | 14000 |
| 2026-04-20 09:00 | 8.81 | 2250 | 24600 (1970) | 217 (2000) | 2530 | 292 | 420 | 602 | 660 | 1030 | 1970 | 2410 | 6780 | 14000 |
| 2026-04-20 08:30 | 8.85 | 2300 | 24600 (1970) | 217 (2000) | 2530 | 292 | 420 | 602 | 660 | 1030 | 1970 | 2410 | 6780 | 14000 |
| 2026-04-20 08:00 | 8.88 | 2330 | 24600 (1970) | 217 (2000) | 2530 | 292 | 420 | 602 | 660 | 1030 | 1970 | 2410 | 6780 | 14000 |
| 2026-04-20 07:30 | 8.92 | 2370 | 24600 (1970) | 217 (2000) | 2530 | 292 | 420 | 602 | 660 | 1030 | 1970 | 2410 | 6780 | 14000 |
| 2026-04-20 07:00 | 8.96 | 2420 | 24600 (1970) | 217 (2000) | 2530 | 292 | 420 | 602 | 660 | 1030 | 1970 | 2410 | 6780 | 14000 |
| 2026-04-20 06:30 | 9.00 | 2460 | 24600 (1970) | 217 (2000) | 2530 | 292 | 420 | 602 | 660 | 1030 | 1970 | 2410 | 6780 | 14000 |
| 2026-04-20 06:00 | 9.04 | 2510 | 24600 (1970) | 217 (2000) | 2530 | 292 | 420 | 602 | 660 | 1030 | 1970 | 2410 | 6780 | 14000 |
| 2026-04-20 05:30 | 9.07 | 2540 | 24600 (1970) | 217 (2000) | 2530 | 292 | 420 | 602 | 660 | 1030 | 1970 | 2410 | 6780 | 14000 |
| 2026-04-20 05:00 | 9.12 | 2600 | 24600 (1970) | 217 (2000) | 2530 | 292 | 420 | 602 | 660 | 1030 | 1970 | 2410 | 6780 | 14000 |
| 2026-04-20 04:30 | 9.16 | 2650 | 24600 (1970) | 217 (2000) | 2530 | 292 | 420 | 602 | 660 | 1030 | 1970 | 2410 | 6780 | 14000 |
| 2026-04-20 04:00 | 9.20 | 2700 | 24600 (1970) | 217 (2000) | 2530 | 292 | 420 | 602 | 660 | 1030 | 1970 | 2410 | 6780 | 14000 |
| 2026-04-20 03:30 | 9.24 | 2740 | 24600 (1970) | 217 (2000) | 2530 | 292 | 420 | 602 | 660 | 1030 | 1970 | 2410 | 6780 | 14000 |
| 2026-04-20 03:00 | 9.28 | 2790 | 24600 (1970) | 217 (2000) | 2530 | 292 | 420 | 602 | 660 | 1030 | 1970 | 2410 | 6780 | 14000 |
| 2026-04-20 02:30 | 9.34 | 2850 | 24600 (1970) | 217 (2000) | 2530 | 292 | 420 | 602 | 660 | 1030 | 1970 | 2410 | 6780 | 14000 |
| 2026-04-20 02:00 | 9.37 | 2890 | 24600 (1970) | 217 (2000) | 2530 | 292 | 420 | 602 | 660 | 1030 | 1970 | 2410 | 6780 | 14000 |
| 2026-04-20 01:30 | 9.43 | 2960 | 24600 (1970) | 217 (2000) | 2530 | 292 | 420 | 602 | 660 | 1030 | 1970 | 2410 | 6780 | 14000 |
| 2026-04-20 01:00 | 9.47 | 3010 | 24600 (1970) | 217 (2000) | 2530 | 292 | 420 | 602 | 660 | 1030 | 1970 | 2410 | 6780 | 14000 |
| 2026-04-20 00:30 | 9.51 | 3050 | 24600 (1970) | 217 (2000) | 2530 | 292 | 420 | 602 | 660 | 1030 | 1970 | 2410 | 6780 | 14000 |
| 2026-04-20 00:00 | 9.57 | 3120 | 24600 (1970) | 217 (2000) | 2530 | 292 | 420 | 602 | 660 | 1030 | 1970 | 2410 | 6780 | 14000 |
| 2026-04-19 23:30 | 9.62 | 3190 | 24600 (1970) | 217 (2000) | 2530 | 292 | 420 | 602 | 660 | 1030 | 1970 | 2410 | 6780 | 14000 |
| 2026-04-19 23:00 | 9.68 | 3260 | 24600 (1970) | 217 (2000) | 2530 | 292 | 420 | 602 | 660 | 1030 | 1970 | 2410 | 6780 | 14000 |
| 2026-04-19 22:30 | 9.72 | 3310 | 12700 (1940) | 224 (2000) | 1970 | 307 | 435 | 575 | 651 | 1110 | 2140 | 2330 | 4910 | 8480 |
| 2026-04-19 22:00 | 9.76 | 3360 | 12700 (1940) | 224 (2000) | 1970 | 307 | 435 | 575 | 651 | 1110 | 2140 | 2330 | 4910 | 8480 |
| 2026-04-19 21:30 | 9.83 | 3450 | 12700 (1940) | 224 (2000) | 1970 | 307 | 435 | 575 | 651 | 1110 | 2140 | 2330 | 4910 | 8480 |
| 2026-04-19 21:00 | 9.88 | 3510 | 12700 (1940) | 224 (2000) | 1970 | 307 | 435 | 575 | 651 | 1110 | 2140 | 2330 | 4910 | 8480 |
| 2026-04-19 20:30 | 9.94 | 3590 | 12700 (1940) | 224 (2000) | 1970 | 307 | 435 | 575 | 651 | 1110 | 2140 | 2330 | 4910 | 8480 |
| 2026-04-19 20:00 | 1 | 3660 | 12700 (1940) | 224 (2000) | 1970 | 307 | 435 | 575 | 651 | 1110 | 2140 | 2330 | 4910 | 8480 |
| 2026-04-19 19:30 | 10.06 | 3740 | 12700 (1940) | 224 (2000) | 1970 | 307 | 435 | 575 | 651 | 1110 | 2140 | 2330 | 4910 | 8480 |
| 2026-04-19 19:00 | 10.12 | 3820 | 12700 (1940) | 224 (2000) | 1970 | 307 | 435 | 575 | 651 | 1110 | 2140 | 2330 | 4910 | 8480 |
| 2026-04-19 18:30 | 10.20 | 3930 | 12700 (1940) | 224 (2000) | 1970 | 307 | 435 | 575 | 651 | 1110 | 2140 | 2330 | 4910 | 8480 |
| 2026-04-19 18:00 | 10.24 | 3990 | 12700 (1940) | 224 (2000) | 1970 | 307 | 435 | 575 | 651 | 1110 | 2140 | 2330 | 4910 | 8480 |
| 2026-04-19 17:30 | 10.31 | 4080 | 12700 (1940) | 224 (2000) | 1970 | 307 | 435 | 575 | 651 | 1110 | 2140 | 2330 | 4910 | 8480 |
| 2026-04-19 17:00 | 10.39 | 4190 | 12700 (1940) | 224 (2000) | 1970 | 307 | 435 | 575 | 651 | 1110 | 2140 | 2330 | 4910 | 8480 |
| 2026-04-19 16:30 | 10.46 | 4290 | 12700 (1940) | 224 (2000) | 1970 | 307 | 435 | 575 | 651 | 1110 | 2140 | 2330 | 4910 | 8480 |
| 2026-04-19 16:00 | 10.52 | 4380 | 12700 (1940) | 224 (2000) | 1970 | 307 | 435 | 575 | 651 | 1110 | 2140 | 2330 | 4910 | 8480 |
| 2026-04-19 15:30 | 10.57 | 4450 | 12700 (1940) | 224 (2000) | 1970 | 307 | 435 | 575 | 651 | 1110 | 2140 | 2330 | 4910 | 8480 |
| 2026-04-19 15:00 | 10.64 | 4550 | 12700 (1940) | 224 (2000) | 1970 | 307 | 435 | 575 | 651 | 1110 | 2140 | 2330 | 4910 | 8480 |
| 2026-04-19 14:30 | 10.71 | 4660 | 12700 (1940) | 224 (2000) | 1970 | 307 | 435 | 575 | 651 | 1110 | 2140 | 2330 | 4910 | 8480 |
| 2026-04-19 14:00 | 10.78 | 4760 | 12700 (1940) | 224 (2000) | 1970 | 307 | 435 | 575 | 651 | 1110 | 2140 | 2330 | 4910 | 8480 |
| 2026-04-19 13:30 | 10.86 | 4880 | 12700 (1940) | 224 (2000) | 1970 | 307 | 435 | 575 | 651 | 1110 | 2140 | 2330 | 4910 | 8480 |
| 2026-04-19 13:00 | 10.91 | 4960 | 12700 (1940) | 224 (2000) | 1970 | 307 | 435 | 575 | 651 | 1110 | 2140 | 2330 | 4910 | 8480 |
| 2026-04-19 12:30 | 10.97 | 5050 | 12700 (1940) | 224 (2000) | 1970 | 307 | 435 | 575 | 651 | 1110 | 2140 | 2330 | 4910 | 8480 |
| 2026-04-19 12:00 | 11.03 | 5150 | 12700 (1940) | 224 (2000) | 1970 | 307 | 435 | 575 | 651 | 1110 | 2140 | 2330 | 4910 | 8480 |
| 2026-04-19 11:30 | 11.08 | 5230 | 12700 (1940) | 224 (2000) | 1970 | 307 | 435 | 575 | 651 | 1110 | 2140 | 2330 | 4910 | 8480 |
| 2026-04-19 11:00 | 11.16 | 5350 | 12700 (1940) | 224 (2000) | 1970 | 307 | 435 | 575 | 651 | 1110 | 2140 | 2330 | 4910 | 8480 |
| 2026-04-19 10:30 | 11.21 | 5430 | 12700 (1940) | 224 (2000) | 1970 | 307 | 435 | 575 | 651 | 1110 | 2140 | 2330 | 4910 | 8480 |
| 2026-04-19 10:00 | 11.27 | 5530 | 12700 (1940) | 224 (2000) | 1970 | 307 | 435 | 575 | 651 | 1110 | 2140 | 2330 | 4910 | 8480 |
| 2026-04-19 09:30 | 11.34 | 5650 | 12700 (1940) | 224 (2000) | 1970 | 307 | 435 | 575 | 651 | 1110 | 2140 | 2330 | 4910 | 8480 |
| 2026-04-19 09:00 | 11.40 | 5750 | 12700 (1940) | 224 (2000) | 1970 | 307 | 435 | 575 | 651 | 1110 | 2140 | 2330 | 4910 | 8480 |
| 2026-04-19 08:30 | 11.44 | 5810 | 12700 (1940) | 224 (2000) | 1970 | 307 | 435 | 575 | 651 | 1110 | 2140 | 2330 | 4910 | 8480 |
| 2026-04-19 08:00 | 11.50 | 5910 | 12700 (1940) | 224 (2000) | 1970 | 307 | 435 | 575 | 651 | 1110 | 2140 | 2330 | 4910 | 8480 |
| 2026-04-19 07:30 | 11.55 | 6000 | 12700 (1940) | 224 (2000) | 1970 | 307 | 435 | 575 | 651 | 1110 | 2140 | 2330 | 4910 | 8480 |
| 2026-04-19 07:00 | 11.60 | 6080 | 12700 (1940) | 224 (2000) | 1970 | 307 | 435 | 575 | 651 | 1110 | 2140 | 2330 | 4910 | 8480 |
| 2026-04-19 06:30 | 11.65 | 6170 | 12700 (1940) | 224 (2000) | 1970 | 307 | 435 | 575 | 651 | 1110 | 2140 | 2330 | 4910 | 8480 |
| 2026-04-19 06:00 | 11.72 | 6290 | 12700 (1940) | 224 (2000) | 1970 | 307 | 435 | 575 | 651 | 1110 | 2140 | 2330 | 4910 | 8480 |
| 2026-04-19 05:30 | 11.76 | 6360 | 12700 (1940) | 224 (2000) | 1970 | 307 | 435 | 575 | 651 | 1110 | 2140 | 2330 | 4910 | 8480 |
| 2026-04-19 05:00 | 11.80 | 6430 | 12700 (1940) | 224 (2000) | 1970 | 307 | 435 | 575 | 651 | 1110 | 2140 | 2330 | 4910 | 8480 |
| 2026-04-19 04:30 | 11.82 | 6470 | 12700 (1940) | 224 (2000) | 1970 | 307 | 435 | 575 | 651 | 1110 | 2140 | 2330 | 4910 | 8480 |
| 2026-04-19 04:00 | 11.85 | 6520 | 12700 (1940) | 224 (2000) | 1970 | 307 | 435 | 575 | 651 | 1110 | 2140 | 2330 | 4910 | 8480 |
| 2026-04-19 03:30 | 11.86 | 6540 | 12700 (1940) | 224 (2000) | 1970 | 307 | 435 | 575 | 651 | 1110 | 2140 | 2330 | 4910 | 8480 |
| 2026-04-19 03:00 | 11.87 | 6560 | 12700 (1940) | 224 (2000) | 1970 | 307 | 435 | 575 | 651 | 1110 | 2140 | 2330 | 4910 | 8480 |
| 2026-04-19 02:30 | 11.85 | 6520 | 12700 (1940) | 224 (2000) | 1970 | 307 | 435 | 575 | 651 | 1110 | 2140 | 2330 | 4910 | 8480 |
| 2026-04-19 02:00 | 11.81 | 6450 | 12700 (1940) | 224 (2000) | 1970 | 307 | 435 | 575 | 651 | 1110 | 2140 | 2330 | 4910 | 8480 |
| 2026-04-19 01:30 | 11.74 | 6330 | 12700 (1940) | 224 (2000) | 1970 | 307 | 435 | 575 | 651 | 1110 | 2140 | 2330 | 4910 | 8480 |
| 2026-04-19 01:00 | 11.67 | 6210 | 12700 (1940) | 224 (2000) | 1970 | 307 | 435 | 575 | 651 | 1110 | 2140 | 2330 | 4910 | 8480 |
| 2026-04-19 00:00 | 11.44 | 5810 | 12700 (1940) | 224 (2000) | 1970 | 307 | 435 | 575 | 651 | 1110 | 2140 | 2330 | 4910 | 8480 |
| 2026-04-18 23:30 | 11.28 | 5550 | 12700 (1940) | 224 (2000) | 1970 | 307 | 435 | 575 | 651 | 1110 | 2140 | 2330 | 4910 | 8480 |
| 2026-04-18 23:00 | 11.11 | 5270 | 12700 (1940) | 224 (2000) | 1970 | 307 | 435 | 575 | 651 | 1110 | 2140 | 2330 | 4910 | 8480 |
| 2026-04-18 22:30 | 10.93 | 4990 | 10800 (1939) | 227 (2000) | 1690 | 325 | 426 | 588 | 629 | 1100 | 2050 | 2320 | 3550 | 5970 |
| 2026-04-18 22:00 | 10.72 | 4670 | 10800 (1939) | 227 (2000) | 1690 | 325 | 426 | 588 | 629 | 1100 | 2050 | 2320 | 3550 | 5970 |
| 2026-04-18 21:30 | 10.54 | 4410 | 10800 (1939) | 227 (2000) | 1690 | 325 | 426 | 588 | 629 | 1100 | 2050 | 2320 | 3550 | 5970 |
| 2026-04-18 21:00 | 10.39 | 4190 | 10800 (1939) | 227 (2000) | 1690 | 325 | 426 | 588 | 629 | 1100 | 2050 | 2320 | 3550 | 5970 |
| 2026-04-18 20:30 | 10.26 | 4010 | 10800 (1939) | 227 (2000) | 1690 | 325 | 426 | 588 | 629 | 1100 | 2050 | 2320 | 3550 | 5970 |
| 2026-04-18 20:00 | 10.17 | 3890 | 10800 (1939) | 227 (2000) | 1690 | 325 | 426 | 588 | 629 | 1100 | 2050 | 2320 | 3550 | 5970 |
| 2026-04-18 19:30 | 10.08 | 3770 | 10800 (1939) | 227 (2000) | 1690 | 325 | 426 | 588 | 629 | 1100 | 2050 | 2320 | 3550 | 5970 |
| 2026-04-18 19:00 | 9.99 | 3650 | 10800 (1939) | 227 (2000) | 1690 | 325 | 426 | 588 | 629 | 1100 | 2050 | 2320 | 3550 | 5970 |
| 2026-04-18 18:30 | 9.91 | 3550 | 10800 (1939) | 227 (2000) | 1690 | 325 | 426 | 588 | 629 | 1100 | 2050 | 2320 | 3550 | 5970 |
| 2026-04-18 18:00 | 9.79 | 3400 | 10800 (1939) | 227 (2000) | 1690 | 325 | 426 | 588 | 629 | 1100 | 2050 | 2320 | 3550 | 5970 |
| 2026-04-18 17:30 | 9.66 | 3230 | 10800 (1939) | 227 (2000) | 1690 | 325 | 426 | 588 | 629 | 1100 | 2050 | 2320 | 3550 | 5970 |
| 2026-04-18 17:00 | 9.50 | 3040 | 10800 (1939) | 227 (2000) | 1690 | 325 | 426 | 588 | 629 | 1100 | 2050 | 2320 | 3550 | 5970 |
| 2026-04-18 16:30 | 9.30 | 2810 | 10800 (1939) | 227 (2000) | 1690 | 325 | 426 | 588 | 629 | 1100 | 2050 | 2320 | 3550 | 5970 |
| 2026-04-18 16:00 | 9.12 | 2600 | 10800 (1939) | 227 (2000) | 1690 | 325 | 426 | 588 | 629 | 1100 | 2050 | 2320 | 3550 | 5970 |
| 2026-04-18 15:30 | 8.94 | 2400 | 10800 (1939) | 227 (2000) | 1690 | 325 | 426 | 588 | 629 | 1100 | 2050 | 2320 | 3550 | 5970 |
| 2026-04-18 15:00 | 8.78 | 2220 | 10800 (1939) | 227 (2000) | 1690 | 325 | 426 | 588 | 629 | 1100 | 2050 | 2320 | 3550 | 5970 |
| 2026-04-18 14:30 | 8.70 | 2140 | 10800 (1939) | 227 (2000) | 1690 | 325 | 426 | 588 | 629 | 1100 | 2050 | 2320 | 3550 | 5970 |
| 2026-04-18 14:00 | 8.64 | 2070 | 10800 (1939) | 227 (2000) | 1690 | 325 | 426 | 588 | 629 | 1100 | 2050 | 2320 | 3550 | 5970 |
| 2026-04-18 13:30 | 8.59 | 2020 | 10800 (1939) | 227 (2000) | 1690 | 325 | 426 | 588 | 629 | 1100 | 2050 | 2320 | 3550 | 5970 |
| 2026-04-18 13:00 | 8.55 | 1980 | 10800 (1939) | 227 (2000) | 1690 | 325 | 426 | 588 | 629 | 1100 | 2050 | 2320 | 3550 | 5970 |
| 2026-04-18 12:30 | 8.50 | 1930 | 10800 (1939) | 227 (2000) | 1690 | 325 | 426 | 588 | 629 | 1100 | 2050 | 2320 | 3550 | 5970 |
| 2026-04-18 12:00 | 8.46 | 1890 | 10800 (1939) | 227 (2000) | 1690 | 325 | 426 | 588 | 629 | 1100 | 2050 | 2320 | 3550 | 5970 |
| 2026-04-18 11:30 | 8.39 | 1830 | 10800 (1939) | 227 (2000) | 1690 | 325 | 426 | 588 | 629 | 1100 | 2050 | 2320 | 3550 | 5970 |
| 2026-04-18 11:00 | 8.34 | 1780 | 10800 (1939) | 227 (2000) | 1690 | 325 | 426 | 588 | 629 | 1100 | 2050 | 2320 | 3550 | 5970 |
| 2026-04-18 10:30 | 8.27 | 1710 | 10800 (1939) | 227 (2000) | 1690 | 325 | 426 | 588 | 629 | 1100 | 2050 | 2320 | 3550 | 5970 |
| 2026-04-18 10:00 | 8.22 | 1670 | 10800 (1939) | 227 (2000) | 1690 | 325 | 426 | 588 | 629 | 1100 | 2050 | 2320 | 3550 | 5970 |
| 2026-04-18 09:30 | 8.17 | 1620 | 10800 (1939) | 227 (2000) | 1690 | 325 | 426 | 588 | 629 | 1100 | 2050 | 2320 | 3550 | 5970 |
| 2026-04-18 09:00 | 8.09 | 1550 | 10800 (1939) | 227 (2000) | 1690 | 325 | 426 | 588 | 629 | 1100 | 2050 | 2320 | 3550 | 5970 |
| 2026-04-18 08:30 | 7.98 | 1460 | 10800 (1939) | 227 (2000) | 1690 | 325 | 426 | 588 | 629 | 1100 | 2050 | 2320 | 3550 | 5970 |
| 2026-04-18 08:00 | 7.84 | 1340 | 10800 (1939) | 227 (2000) | 1690 | 325 | 426 | 588 | 629 | 1100 | 2050 | 2320 | 3550 | 5970 |
| 2026-04-18 07:30 | 7.67 | 1230 | 10800 (1939) | 227 (2000) | 1690 | 325 | 426 | 588 | 629 | 1100 | 2050 | 2320 | 3550 | 5970 |
| 2026-04-18 07:00 | 7.51 | 1130 | 10800 (1939) | 227 (2000) | 1690 | 325 | 426 | 588 | 629 | 1100 | 2050 | 2320 | 3550 | 5970 |
| 2026-04-18 06:30 | 7.39 | 1060 | 10800 (1939) | 227 (2000) | 1690 | 325 | 426 | 588 | 629 | 1100 | 2050 | 2320 | 3550 | 5970 |
| 2026-04-18 06:00 | 7.35 | 1030 | 10800 (1939) | 227 (2000) | 1690 | 325 | 426 | 588 | 629 | 1100 | 2050 | 2320 | 3550 | 5970 |
| 2026-04-18 05:30 | 7.30 | 1000 | 10800 (1939) | 227 (2000) | 1690 | 325 | 426 | 588 | 629 | 1100 | 2050 | 2320 | 3550 | 5970 |
| 2026-04-18 05:00 | 7.28 | 991 | 10800 (1939) | 227 (2000) | 1690 | 325 | 426 | 588 | 629 | 1100 | 2050 | 2320 | 3550 | 5970 |
| 2026-04-18 04:30 | 7.24 | 968 | 10800 (1939) | 227 (2000) | 1690 | 325 | 426 | 588 | 629 | 1100 | 2050 | 2320 | 3550 | 5970 |
| 2026-04-18 04:00 | 7.25 | 974 | 10800 (1939) | 227 (2000) | 1690 | 325 | 426 | 588 | 629 | 1100 | 2050 | 2320 | 3550 | 5970 |
| 2026-04-18 03:30 | 7.19 | 940 | 10800 (1939) | 227 (2000) | 1690 | 325 | 426 | 588 | 629 | 1100 | 2050 | 2320 | 3550 | 5970 |
| 2026-04-18 03:00 | 7.21 | 951 | 10800 (1939) | 227 (2000) | 1690 | 325 | 426 | 588 | 629 | 1100 | 2050 | 2320 | 3550 | 5970 |
| 2026-04-18 02:30 | 7.18 | 935 | 10800 (1939) | 227 (2000) | 1690 | 325 | 426 | 588 | 629 | 1100 | 2050 | 2320 | 3550 | 5970 |
| 2026-04-18 02:00 | 7.21 | 951 | 10800 (1939) | 227 (2000) | 1690 | 325 | 426 | 588 | 629 | 1100 | 2050 | 2320 | 3550 | 5970 |
| 2026-04-18 01:30 | 7.23 | 963 | 10800 (1939) | 227 (2000) | 1690 | 325 | 426 | 588 | 629 | 1100 | 2050 | 2320 | 3550 | 5970 |
| 2026-04-18 01:00 | 7.21 | 951 | 10800 (1939) | 227 (2000) | 1690 | 325 | 426 | 588 | 629 | 1100 | 2050 | 2320 | 3550 | 5970 |
| 2026-04-18 00:30 | 7.24 | 968 | 10800 (1939) | 227 (2000) | 1690 | 325 | 426 | 588 | 629 | 1100 | 2050 | 2320 | 3550 | 5970 |
| 2026-04-18 00:00 | 7.24 | 968 | 10800 (1939) | 227 (2000) | 1690 | 325 | 426 | 588 | 629 | 1100 | 2050 | 2320 | 3550 | 5970 |
| 2026-04-17 23:30 | 7.24 | 968 | 10800 (1939) | 227 (2000) | 1690 | 325 | 426 | 588 | 629 | 1100 | 2050 | 2320 | 3550 | 5970 |
| 2026-04-17 23:00 | 7.25 | 974 | 10800 (1939) | 227 (2000) | 1690 | 325 | 426 | 588 | 629 | 1100 | 2050 | 2320 | 3550 | 5970 |
| 2026-04-17 22:30 | 7.26 | 980 | 29900 (1939) | 237 (2000) | 2100 | 337 | 455 | 610 | 661 | 1100 | 2360 | 2850 | 4740 | 6240 |
| 2026-04-17 22:00 | 7.26 | 980 | 29900 (1939) | 237 (2000) | 2100 | 337 | 455 | 610 | 661 | 1100 | 2360 | 2850 | 4740 | 6240 |
| 2026-04-17 21:30 | 7.27 | 985 | 29900 (1939) | 237 (2000) | 2100 | 337 | 455 | 610 | 661 | 1100 | 2360 | 2850 | 4740 | 6240 |
| 2026-04-17 21:00 | 7.27 | 985 | 29900 (1939) | 237 (2000) | 2100 | 337 | 455 | 610 | 661 | 1100 | 2360 | 2850 | 4740 | 6240 |
| 2026-04-17 20:30 | 7.27 | 985 | 29900 (1939) | 237 (2000) | 2100 | 337 | 455 | 610 | 661 | 1100 | 2360 | 2850 | 4740 | 6240 |
| 2026-04-17 20:00 | 7.27 | 985 | 29900 (1939) | 237 (2000) | 2100 | 337 | 455 | 610 | 661 | 1100 | 2360 | 2850 | 4740 | 6240 |
| 2026-04-17 19:30 | 7.27 | 985 | 29900 (1939) | 237 (2000) | 2100 | 337 | 455 | 610 | 661 | 1100 | 2360 | 2850 | 4740 | 6240 |
| 2026-04-17 19:00 | 7.26 | 980 | 29900 (1939) | 237 (2000) | 2100 | 337 | 455 | 610 | 661 | 1100 | 2360 | 2850 | 4740 | 6240 |
| 2026-04-17 18:30 | 7.24 | 968 | 29900 (1939) | 237 (2000) | 2100 | 337 | 455 | 610 | 661 | 1100 | 2360 | 2850 | 4740 | 6240 |
| 2026-04-17 18:00 | 7.23 | 963 | 29900 (1939) | 237 (2000) | 2100 | 337 | 455 | 610 | 661 | 1100 | 2360 | 2850 | 4740 | 6240 |
| 2026-04-17 17:30 | 7.22 | 957 | 29900 (1939) | 237 (2000) | 2100 | 337 | 455 | 610 | 661 | 1100 | 2360 | 2850 | 4740 | 6240 |
| 2026-04-17 17:00 | 7.21 | 951 | 29900 (1939) | 237 (2000) | 2100 | 337 | 455 | 610 | 661 | 1100 | 2360 | 2850 | 4740 | 6240 |
| 2026-04-17 16:30 | 7.21 | 951 | 29900 (1939) | 237 (2000) | 2100 | 337 | 455 | 610 | 661 | 1100 | 2360 | 2850 | 4740 | 6240 |
| 2026-04-17 16:00 | 7.19 | 940 | 29900 (1939) | 237 (2000) | 2100 | 337 | 455 | 610 | 661 | 1100 | 2360 | 2850 | 4740 | 6240 |
| 2026-04-17 15:30 | 7.19 | 940 | 29900 (1939) | 237 (2000) | 2100 | 337 | 455 | 610 | 661 | 1100 | 2360 | 2850 | 4740 | 6240 |
| 2026-04-17 15:00 | 7.17 | 929 | 29900 (1939) | 237 (2000) | 2100 | 337 | 455 | 610 | 661 | 1100 | 2360 | 2850 | 4740 | 6240 |
| 2026-04-17 14:30 | 7.16 | 924 | 29900 (1939) | 237 (2000) | 2100 | 337 | 455 | 610 | 661 | 1100 | 2360 | 2850 | 4740 | 6240 |
| 2026-04-17 14:00 | 7.15 | 918 | 29900 (1939) | 237 (2000) | 2100 | 337 | 455 | 610 | 661 | 1100 | 2360 | 2850 | 4740 | 6240 |
| 2026-04-17 13:30 | 7.11 | 896 | 29900 (1939) | 237 (2000) | 2100 | 337 | 455 | 610 | 661 | 1100 | 2360 | 2850 | 4740 | 6240 |
| 2026-04-17 13:00 | 7.08 | 880 | 29900 (1939) | 237 (2000) | 2100 | 337 | 455 | 610 | 661 | 1100 | 2360 | 2850 | 4740 | 6240 |
| 2026-04-17 12:30 | 7.03 | 854 | 29900 (1939) | 237 (2000) | 2100 | 337 | 455 | 610 | 661 | 1100 | 2360 | 2850 | 4740 | 6240 |
| 2026-04-17 12:00 | 6.99 | 833 | 29900 (1939) | 237 (2000) | 2100 | 337 | 455 | 610 | 661 | 1100 | 2360 | 2850 | 4740 | 6240 |
| 2026-04-17 11:30 | 6.93 | 802 | 29900 (1939) | 237 (2000) | 2100 | 337 | 455 | 610 | 661 | 1100 | 2360 | 2850 | 4740 | 6240 |
| 2026-04-17 11:00 | 6.81 | 742 | 29900 (1939) | 237 (2000) | 2100 | 337 | 455 | 610 | 661 | 1100 | 2360 | 2850 | 4740 | 6240 |
| 2026-04-17 10:30 | 6.75 | 713 | 29900 (1939) | 237 (2000) | 2100 | 337 | 455 | 610 | 661 | 1100 | 2360 | 2850 | 4740 | 6240 |
| 2026-04-17 10:00 | 6.64 | 662 | 29900 (1939) | 237 (2000) | 2100 | 337 | 455 | 610 | 661 | 1100 | 2360 | 2850 | 4740 | 6240 |
| 2026-04-17 09:30 | 6.55 | 621 | 29900 (1939) | 237 (2000) | 2100 | 337 | 455 | 610 | 661 | 1100 | 2360 | 2850 | 4740 | 6240 |
| 2026-04-17 09:00 | 6.46 | 582 | 29900 (1939) | 237 (2000) | 2100 | 337 | 455 | 610 | 661 | 1100 | 2360 | 2850 | 4740 | 6240 |
| 2026-04-17 08:30 | 6.40 | 557 | 29900 (1939) | 237 (2000) | 2100 | 337 | 455 | 610 | 661 | 1100 | 2360 | 2850 | 4740 | 6240 |
| 2026-04-17 08:00 | 6.36 | 541 | 29900 (1939) | 237 (2000) | 2100 | 337 | 455 | 610 | 661 | 1100 | 2360 | 2850 | 4740 | 6240 |
| 2026-04-17 07:30 | 6.34 | 533 | 29900 (1939) | 237 (2000) | 2100 | 337 | 455 | 610 | 661 | 1100 | 2360 | 2850 | 4740 | 6240 |
| 2026-04-17 07:00 | 6.32 | 525 | 29900 (1939) | 237 (2000) | 2100 | 337 | 455 | 610 | 661 | 1100 | 2360 | 2850 | 4740 | 6240 |
| 2026-04-17 06:30 | 6.31 | 521 | 29900 (1939) | 237 (2000) | 2100 | 337 | 455 | 610 | 661 | 1100 | 2360 | 2850 | 4740 | 6240 |
| 2026-04-17 06:00 | 6.31 | 521 | 29900 (1939) | 237 (2000) | 2100 | 337 | 455 | 610 | 661 | 1100 | 2360 | 2850 | 4740 | 6240 |
| 2026-04-17 05:30 | 6.30 | 517 | 29900 (1939) | 237 (2000) | 2100 | 337 | 455 | 610 | 661 | 1100 | 2360 | 2850 | 4740 | 6240 |
| 2026-04-17 05:00 | 6.30 | 517 | 29900 (1939) | 237 (2000) | 2100 | 337 | 455 | 610 | 661 | 1100 | 2360 | 2850 | 4740 | 6240 |
| 2026-04-17 04:30 | 6.30 | 517 | 29900 (1939) | 237 (2000) | 2100 | 337 | 455 | 610 | 661 | 1100 | 2360 | 2850 | 4740 | 6240 |
| 2026-04-17 04:00 | 6.30 | 517 | 29900 (1939) | 237 (2000) | 2100 | 337 | 455 | 610 | 661 | 1100 | 2360 | 2850 | 4740 | 6240 |
| 2026-04-17 03:30 | 6.30 | 517 | 29900 (1939) | 237 (2000) | 2100 | 337 | 455 | 610 | 661 | 1100 | 2360 | 2850 | 4740 | 6240 |
| 2026-04-17 03:00 | 6.30 | 517 | 29900 (1939) | 237 (2000) | 2100 | 337 | 455 | 610 | 661 | 1100 | 2360 | 2850 | 4740 | 6240 |
| 2026-04-17 02:30 | 6.30 | 517 | 29900 (1939) | 237 (2000) | 2100 | 337 | 455 | 610 | 661 | 1100 | 2360 | 2850 | 4740 | 6240 |
| 2026-04-17 02:00 | 6.29 | 513 | 29900 (1939) | 237 (2000) | 2100 | 337 | 455 | 610 | 661 | 1100 | 2360 | 2850 | 4740 | 6240 |
| 2026-04-17 01:30 | 6.29 | 513 | 29900 (1939) | 237 (2000) | 2100 | 337 | 455 | 610 | 661 | 1100 | 2360 | 2850 | 4740 | 6240 |
| 2026-04-17 01:00 | 6.28 | 509 | 29900 (1939) | 237 (2000) | 2100 | 337 | 455 | 610 | 661 | 1100 | 2360 | 2850 | 4740 | 6240 |
| 2026-04-17 00:30 | 6.28 | 509 | 29900 (1939) | 237 (2000) | 2100 | 337 | 455 | 610 | 661 | 1100 | 2360 | 2850 | 4740 | 6240 |
| 2026-04-17 00:00 | 6.27 | 505 | 29900 (1939) | 237 (2000) | 2100 | 337 | 455 | 610 | 661 | 1100 | 2360 | 2850 | 4740 | 6240 |
| 2026-04-16 23:30 | 6.25 | 497 | 29900 (1939) | 237 (2000) | 2100 | 337 | 455 | 610 | 661 | 1100 | 2360 | 2850 | 4740 | 6240 |
| 2026-04-16 23:00 | 6.23 | 489 | 29900 (1939) | 237 (2000) | 2100 | 337 | 455 | 610 | 661 | 1100 | 2360 | 2850 | 4740 | 6240 |
| 2026-04-16 22:30 | 6.21 | 482 | 38500 (1933) | 241 (2000) | 2790 | 357 | 497 | 599 | 665 | 1250 | 2480 | 3450 | 4790 | 11100 |
| 2026-04-16 22:00 | 6.19 | 474 | 38500 (1933) | 241 (2000) | 2790 | 357 | 497 | 599 | 665 | 1250 | 2480 | 3450 | 4790 | 11100 |
| 2026-04-16 21:30 | 6.16 | 463 | 38500 (1933) | 241 (2000) | 2790 | 357 | 497 | 599 | 665 | 1250 | 2480 | 3450 | 4790 | 11100 |
| 2026-04-16 21:00 | 6.13 | 452 | 38500 (1933) | 241 (2000) | 2790 | 357 | 497 | 599 | 665 | 1250 | 2480 | 3450 | 4790 | 11100 |
| 2026-04-16 20:30 | 6.11 | 444 | 38500 (1933) | 241 (2000) | 2790 | 357 | 497 | 599 | 665 | 1250 | 2480 | 3450 | 4790 | 11100 |
| 2026-04-16 20:00 | 6.08 | 434 | 38500 (1933) | 241 (2000) | 2790 | 357 | 497 | 599 | 665 | 1250 | 2480 | 3450 | 4790 | 11100 |
| 2026-04-16 19:30 | 6.06 | 426 | 38500 (1933) | 241 (2000) | 2790 | 357 | 497 | 599 | 665 | 1250 | 2480 | 3450 | 4790 | 11100 |
| 2026-04-16 19:00 | 6.03 | 416 | 38500 (1933) | 241 (2000) | 2790 | 357 | 497 | 599 | 665 | 1250 | 2480 | 3450 | 4790 | 11100 |
| 2026-04-16 18:30 | 6.02 | 412 | 38500 (1933) | 241 (2000) | 2790 | 357 | 497 | 599 | 665 | 1250 | 2480 | 3450 | 4790 | 11100 |
| 2026-04-16 18:00 | 6.00 | 405 | 38500 (1933) | 241 (2000) | 2790 | 357 | 497 | 599 | 665 | 1250 | 2480 | 3450 | 4790 | 11100 |
| 2026-04-16 17:30 | 5.98 | 398 | 38500 (1933) | 241 (2000) | 2790 | 357 | 497 | 599 | 665 | 1250 | 2480 | 3450 | 4790 | 11100 |
| 2026-04-16 17:00 | 5.97 | 395 | 38500 (1933) | 241 (2000) | 2790 | 357 | 497 | 599 | 665 | 1250 | 2480 | 3450 | 4790 | 11100 |
| 2026-04-16 16:30 | 5.96 | 392 | 38500 (1933) | 241 (2000) | 2790 | 357 | 497 | 599 | 665 | 1250 | 2480 | 3450 | 4790 | 11100 |
| 2026-04-16 16:00 | 5.91 | 375 | 38500 (1933) | 241 (2000) | 2790 | 357 | 497 | 599 | 665 | 1250 | 2480 | 3450 | 4790 | 11100 |
| 2026-04-16 15:30 | 5.93 | 381 | 38500 (1933) | 241 (2000) | 2790 | 357 | 497 | 599 | 665 | 1250 | 2480 | 3450 | 4790 | 11100 |
| 2026-04-16 15:00 | 5.93 | 381 | 38500 (1933) | 241 (2000) | 2790 | 357 | 497 | 599 | 665 | 1250 | 2480 | 3450 | 4790 | 11100 |
| 2026-04-16 14:30 | 5.92 | 378 | 38500 (1933) | 241 (2000) | 2790 | 357 | 497 | 599 | 665 | 1250 | 2480 | 3450 | 4790 | 11100 |
| 2026-04-16 14:00 | 5.92 | 378 | 38500 (1933) | 241 (2000) | 2790 | 357 | 497 | 599 | 665 | 1250 | 2480 | 3450 | 4790 | 11100 |
| 2026-04-16 13:30 | 5.91 | 375 | 38500 (1933) | 241 (2000) | 2790 | 357 | 497 | 599 | 665 | 1250 | 2480 | 3450 | 4790 | 11100 |
| 2026-04-16 13:00 | 5.92 | 378 | 38500 (1933) | 241 (2000) | 2790 | 357 | 497 | 599 | 665 | 1250 | 2480 | 3450 | 4790 | 11100 |
| 2026-04-16 12:30 | 5.91 | 375 | 38500 (1933) | 241 (2000) | 2790 | 357 | 497 | 599 | 665 | 1250 | 2480 | 3450 | 4790 | 11100 |
| 2026-04-16 12:00 | 5.92 | 378 | 38500 (1933) | 241 (2000) | 2790 | 357 | 497 | 599 | 665 | 1250 | 2480 | 3450 | 4790 | 11100 |
| 2026-04-16 11:30 | 5.91 | 375 | 38500 (1933) | 241 (2000) | 2790 | 357 | 497 | 599 | 665 | 1250 | 2480 | 3450 | 4790 | 11100 |
| 2026-04-16 11:00 | 5.90 | 372 | 38500 (1933) | 241 (2000) | 2790 | 357 | 497 | 599 | 665 | 1250 | 2480 | 3450 | 4790 | 11100 |
| 2026-04-16 10:30 | 5.92 | 378 | 38500 (1933) | 241 (2000) | 2790 | 357 | 497 | 599 | 665 | 1250 | 2480 | 3450 | 4790 | 11100 |
| 2026-04-16 10:00 | 5.92 | 378 | 38500 (1933) | 241 (2000) | 2790 | 357 | 497 | 599 | 665 | 1250 | 2480 | 3450 | 4790 | 11100 |
| 2026-04-16 09:30 | 5.92 | 378 | 38500 (1933) | 241 (2000) | 2790 | 357 | 497 | 599 | 665 | 1250 | 2480 | 3450 | 4790 | 11100 |
| 2026-04-16 09:00 | 5.92 | 378 | 38500 (1933) | 241 (2000) | 2790 | 357 | 497 | 599 | 665 | 1250 | 2480 | 3450 | 4790 | 11100 |
| 2026-04-16 08:30 | 5.92 | 378 | 38500 (1933) | 241 (2000) | 2790 | 357 | 497 | 599 | 665 | 1250 | 2480 | 3450 | 4790 | 11100 |
| 2026-04-16 08:00 | 5.92 | 378 | 38500 (1933) | 241 (2000) | 2790 | 357 | 497 | 599 | 665 | 1250 | 2480 | 3450 | 4790 | 11100 |
| 2026-04-16 07:30 | 5.92 | 378 | 38500 (1933) | 241 (2000) | 2790 | 357 | 497 | 599 | 665 | 1250 | 2480 | 3450 | 4790 | 11100 |
| 2026-04-16 07:00 | 5.92 | 378 | 38500 (1933) | 241 (2000) | 2790 | 357 | 497 | 599 | 665 | 1250 | 2480 | 3450 | 4790 | 11100 |
| 2026-04-16 06:30 | 5.92 | 378 | 38500 (1933) | 241 (2000) | 2790 | 357 | 497 | 599 | 665 | 1250 | 2480 | 3450 | 4790 | 11100 |
| 2026-04-16 06:00 | 5.92 | 378 | 38500 (1933) | 241 (2000) | 2790 | 357 | 497 | 599 | 665 | 1250 | 2480 | 3450 | 4790 | 11100 |
| 2026-04-16 05:30 | 5.92 | 378 | 38500 (1933) | 241 (2000) | 2790 | 357 | 497 | 599 | 665 | 1250 | 2480 | 3450 | 4790 | 11100 |
| 2026-04-16 05:00 | 5.88 | 365 | 38500 (1933) | 241 (2000) | 2790 | 357 | 497 | 599 | 665 | 1250 | 2480 | 3450 | 4790 | 11100 |
| 2026-04-16 04:30 | 5.92 | 378 | 38500 (1933) | 241 (2000) | 2790 | 357 | 497 | 599 | 665 | 1250 | 2480 | 3450 | 4790 | 11100 |
| 2026-04-16 04:00 | 5.91 | 375 | 38500 (1933) | 241 (2000) | 2790 | 357 | 497 | 599 | 665 | 1250 | 2480 | 3450 | 4790 | 11100 |
| 2026-04-16 03:30 | 5.91 | 375 | 38500 (1933) | 241 (2000) | 2790 | 357 | 497 | 599 | 665 | 1250 | 2480 | 3450 | 4790 | 11100 |
| 2026-04-16 03:00 | 5.88 | 365 | 38500 (1933) | 241 (2000) | 2790 | 357 | 497 | 599 | 665 | 1250 | 2480 | 3450 | 4790 | 11100 |
| 2026-04-16 02:30 | 5.89 | 368 | 38500 (1933) | 241 (2000) | 2790 | 357 | 497 | 599 | 665 | 1250 | 2480 | 3450 | 4790 | 11100 |
| 2026-04-16 02:00 | 5.84 | 352 | 38500 (1933) | 241 (2000) | 2790 | 357 | 497 | 599 | 665 | 1250 | 2480 | 3450 | 4790 | 11100 |
| 2026-04-16 01:30 | 5.88 | 365 | 38500 (1933) | 241 (2000) | 2790 | 357 | 497 | 599 | 665 | 1250 | 2480 | 3450 | 4790 | 11100 |
| 2026-04-16 01:00 | 5.89 | 368 | 38500 (1933) | 241 (2000) | 2790 | 357 | 497 | 599 | 665 | 1250 | 2480 | 3450 | 4790 | 11100 |
| 2026-04-16 00:30 | 5.89 | 368 | 38500 (1933) | 241 (2000) | 2790 | 357 | 497 | 599 | 665 | 1250 | 2480 | 3450 | 4790 | 11100 |
| 2026-04-16 00:00 | 5.89 | 368 | 38500 (1933) | 241 (2000) | 2790 | 357 | 497 | 599 | 665 | 1250 | 2480 | 3450 | 4790 | 11100 |
| 2026-04-15 23:30 | 5.89 | 368 | 38500 (1933) | 241 (2000) | 2790 | 357 | 497 | 599 | 665 | 1250 | 2480 | 3450 | 4790 | 11100 |
| 2026-04-15 23:00 | 5.89 | 368 | 38500 (1933) | 241 (2000) | 2790 | 357 | 497 | 599 | 665 | 1250 | 2480 | 3450 | 4790 | 11100 |
| 2026-04-15 22:30 | 5.89 | 368 | 44100 (1927) | 243 (2000) | 3180 | 337 | 422 | 599 | 655 | 1150 | 2560 | 3380 | 10200 | 14700 |
| 2026-04-15 22:00 | 5.89 | 368 | 44100 (1927) | 243 (2000) | 3180 | 337 | 422 | 599 | 655 | 1150 | 2560 | 3380 | 10200 | 14700 |
| 2026-04-15 21:30 | 5.89 | 368 | 44100 (1927) | 243 (2000) | 3180 | 337 | 422 | 599 | 655 | 1150 | 2560 | 3380 | 10200 | 14700 |
| 2026-04-15 21:00 | 5.89 | 368 | 44100 (1927) | 243 (2000) | 3180 | 337 | 422 | 599 | 655 | 1150 | 2560 | 3380 | 10200 | 14700 |
| 2026-04-15 20:30 | 5.89 | 368 | 44100 (1927) | 243 (2000) | 3180 | 337 | 422 | 599 | 655 | 1150 | 2560 | 3380 | 10200 | 14700 |
| 2026-04-15 20:00 | 5.89 | 368 | 44100 (1927) | 243 (2000) | 3180 | 337 | 422 | 599 | 655 | 1150 | 2560 | 3380 | 10200 | 14700 |
| 2026-04-15 19:30 | 5.89 | 368 | 44100 (1927) | 243 (2000) | 3180 | 337 | 422 | 599 | 655 | 1150 | 2560 | 3380 | 10200 | 14700 |
| 2026-04-15 19:00 | 5.89 | 368 | 44100 (1927) | 243 (2000) | 3180 | 337 | 422 | 599 | 655 | 1150 | 2560 | 3380 | 10200 | 14700 |
| 2026-04-15 18:30 | 5.89 | 368 | 44100 (1927) | 243 (2000) | 3180 | 337 | 422 | 599 | 655 | 1150 | 2560 | 3380 | 10200 | 14700 |
| 2026-04-15 18:00 | 5.89 | 368 | 44100 (1927) | 243 (2000) | 3180 | 337 | 422 | 599 | 655 | 1150 | 2560 | 3380 | 10200 | 14700 |
| 2026-04-15 17:30 | 5.89 | 368 | 44100 (1927) | 243 (2000) | 3180 | 337 | 422 | 599 | 655 | 1150 | 2560 | 3380 | 10200 | 14700 |
| 2026-04-15 17:00 | 5.89 | 368 | 44100 (1927) | 243 (2000) | 3180 | 337 | 422 | 599 | 655 | 1150 | 2560 | 3380 | 10200 | 14700 |
| 2026-04-15 16:30 | 5.86 | 358 | 44100 (1927) | 243 (2000) | 3180 | 337 | 422 | 599 | 655 | 1150 | 2560 | 3380 | 10200 | 14700 |
| 2026-04-15 16:00 | 5.88 | 365 | 44100 (1927) | 243 (2000) | 3180 | 337 | 422 | 599 | 655 | 1150 | 2560 | 3380 | 10200 | 14700 |
| 2026-04-15 15:30 | 5.87 | 362 | 44100 (1927) | 243 (2000) | 3180 | 337 | 422 | 599 | 655 | 1150 | 2560 | 3380 | 10200 | 14700 |
| 2026-04-15 15:00 | 5.85 | 355 | 44100 (1927) | 243 (2000) | 3180 | 337 | 422 | 599 | 655 | 1150 | 2560 | 3380 | 10200 | 14700 |
| 2026-04-15 14:30 | 5.87 | 362 | 44100 (1927) | 243 (2000) | 3180 | 337 | 422 | 599 | 655 | 1150 | 2560 | 3380 | 10200 | 14700 |
| 2026-04-15 14:00 | 5.85 | 355 | 44100 (1927) | 243 (2000) | 3180 | 337 | 422 | 599 | 655 | 1150 | 2560 | 3380 | 10200 | 14700 |
| 2026-04-15 13:30 | 5.86 | 358 | 44100 (1927) | 243 (2000) | 3180 | 337 | 422 | 599 | 655 | 1150 | 2560 | 3380 | 10200 | 14700 |
| 2026-04-15 13:00 | 5.83 | 349 | 44100 (1927) | 243 (2000) | 3180 | 337 | 422 | 599 | 655 | 1150 | 2560 | 3380 | 10200 | 14700 |
| 2026-04-15 12:30 | 5.87 | 362 | 44100 (1927) | 243 (2000) | 3180 | 337 | 422 | 599 | 655 | 1150 | 2560 | 3380 | 10200 | 14700 |
| 2026-04-15 12:00 | 5.85 | 355 | 44100 (1927) | 243 (2000) | 3180 | 337 | 422 | 599 | 655 | 1150 | 2560 | 3380 | 10200 | 14700 |
| 2026-04-15 11:30 | 5.90 | 372 | 44100 (1927) | 243 (2000) | 3180 | 337 | 422 | 599 | 655 | 1150 | 2560 | 3380 | 10200 | 14700 |
| 2026-04-15 11:00 | 5.90 | 372 | 44100 (1927) | 243 (2000) | 3180 | 337 | 422 | 599 | 655 | 1150 | 2560 | 3380 | 10200 | 14700 |
| 2026-04-15 10:30 | 5.90 | 372 | 44100 (1927) | 243 (2000) | 3180 | 337 | 422 | 599 | 655 | 1150 | 2560 | 3380 | 10200 | 14700 |
| 2026-04-15 10:00 | 5.91 | 375 | 44100 (1927) | 243 (2000) | 3180 | 337 | 422 | 599 | 655 | 1150 | 2560 | 3380 | 10200 | 14700 |
| 2026-04-15 09:30 | 5.91 | 375 | 44100 (1927) | 243 (2000) | 3180 | 337 | 422 | 599 | 655 | 1150 | 2560 | 3380 | 10200 | 14700 |
| 2026-04-15 09:00 | 5.91 | 375 | 44100 (1927) | 243 (2000) | 3180 | 337 | 422 | 599 | 655 | 1150 | 2560 | 3380 | 10200 | 14700 |
| 2026-04-15 08:30 | 5.91 | 375 | 44100 (1927) | 243 (2000) | 3180 | 337 | 422 | 599 | 655 | 1150 | 2560 | 3380 | 10200 | 14700 |
| 2026-04-15 08:00 | 5.91 | 375 | 44100 (1927) | 243 (2000) | 3180 | 337 | 422 | 599 | 655 | 1150 | 2560 | 3380 | 10200 | 14700 |
| 2026-04-15 07:30 | 5.87 | 362 | 44100 (1927) | 243 (2000) | 3180 | 337 | 422 | 599 | 655 | 1150 | 2560 | 3380 | 10200 | 14700 |
| 2026-04-15 07:00 | 5.92 | 378 | 44100 (1927) | 243 (2000) | 3180 | 337 | 422 | 599 | 655 | 1150 | 2560 | 3380 | 10200 | 14700 |
| 2026-04-15 06:30 | 5.92 | 378 | 44100 (1927) | 243 (2000) | 3180 | 337 | 422 | 599 | 655 | 1150 | 2560 | 3380 | 10200 | 14700 |
| 2026-04-15 06:00 | 5.92 | 378 | 44100 (1927) | 243 (2000) | 3180 | 337 | 422 | 599 | 655 | 1150 | 2560 | 3380 | 10200 | 14700 |
| 2026-04-15 05:30 | 5.92 | 378 | 44100 (1927) | 243 (2000) | 3180 | 337 | 422 | 599 | 655 | 1150 | 2560 | 3380 | 10200 | 14700 |
| 2026-04-15 05:00 | 5.93 | 381 | 44100 (1927) | 243 (2000) | 3180 | 337 | 422 | 599 | 655 | 1150 | 2560 | 3380 | 10200 | 14700 |
| 2026-04-15 04:30 | 5.93 | 381 | 44100 (1927) | 243 (2000) | 3180 | 337 | 422 | 599 | 655 | 1150 | 2560 | 3380 | 10200 | 14700 |
| 2026-04-15 04:00 | 5.93 | 381 | 44100 (1927) | 243 (2000) | 3180 | 337 | 422 | 599 | 655 | 1150 | 2560 | 3380 | 10200 | 14700 |
| 2026-04-15 03:30 | 5.93 | 381 | 44100 (1927) | 243 (2000) | 3180 | 337 | 422 | 599 | 655 | 1150 | 2560 | 3380 | 10200 | 14700 |
| 2026-04-15 03:00 | 5.93 | 381 | 44100 (1927) | 243 (2000) | 3180 | 337 | 422 | 599 | 655 | 1150 | 2560 | 3380 | 10200 | 14700 |
| 2026-04-15 02:30 | 5.94 | 385 | 44100 (1927) | 243 (2000) | 3180 | 337 | 422 | 599 | 655 | 1150 | 2560 | 3380 | 10200 | 14700 |
| 2026-04-15 02:00 | 5.94 | 385 | 44100 (1927) | 243 (2000) | 3180 | 337 | 422 | 599 | 655 | 1150 | 2560 | 3380 | 10200 | 14700 |
| 2026-04-15 01:30 | 5.94 | 385 | 44100 (1927) | 243 (2000) | 3180 | 337 | 422 | 599 | 655 | 1150 | 2560 | 3380 | 10200 | 14700 |
| 2026-04-15 01:00 | 5.94 | 385 | 44100 (1927) | 243 (2000) | 3180 | 337 | 422 | 599 | 655 | 1150 | 2560 | 3380 | 10200 | 14700 |
| 2026-04-15 00:30 | 5.94 | 385 | 44100 (1927) | 243 (2000) | 3180 | 337 | 422 | 599 | 655 | 1150 | 2560 | 3380 | 10200 | 14700 |
| 2026-04-15 00:00 | 5.95 | 388 | 44100 (1927) | 243 (2000) | 3180 | 337 | 422 | 599 | 655 | 1150 | 2560 | 3380 | 10200 | 14700 |
| 2026-04-14 23:30 | 5.95 | 388 | 44100 (1927) | 243 (2000) | 3180 | 337 | 422 | 599 | 655 | 1150 | 2560 | 3380 | 10200 | 14700 |
| 2026-04-14 23:00 | 5.95 | 388 | 44100 (1927) | 243 (2000) | 3180 | 337 | 422 | 599 | 655 | 1150 | 2560 | 3380 | 10200 | 14700 |
| 2026-04-14 22:30 | 5.95 | 388 | 35900 (1927) | 166 (1981) | 2810 | 344 | 439 | 612 | 702 | 1170 | 2390 | 3000 | 6320 | 11400 |
| 2026-04-14 22:00 | 5.95 | 388 | 35900 (1927) | 166 (1981) | 2810 | 344 | 439 | 612 | 702 | 1170 | 2390 | 3000 | 6320 | 11400 |
| 2026-04-14 21:30 | 5.96 | 392 | 35900 (1927) | 166 (1981) | 2810 | 344 | 439 | 612 | 702 | 1170 | 2390 | 3000 | 6320 | 11400 |
| 2026-04-14 21:00 | 5.96 | 392 | 35900 (1927) | 166 (1981) | 2810 | 344 | 439 | 612 | 702 | 1170 | 2390 | 3000 | 6320 | 11400 |
| 2026-04-14 20:30 | 5.96 | 392 | 35900 (1927) | 166 (1981) | 2810 | 344 | 439 | 612 | 702 | 1170 | 2390 | 3000 | 6320 | 11400 |
| 2026-04-14 20:00 | 5.95 | 388 | 35900 (1927) | 166 (1981) | 2810 | 344 | 439 | 612 | 702 | 1170 | 2390 | 3000 | 6320 | 11400 |
| 2026-04-14 19:30 | 5.95 | 388 | 35900 (1927) | 166 (1981) | 2810 | 344 | 439 | 612 | 702 | 1170 | 2390 | 3000 | 6320 | 11400 |
| 2026-04-14 19:00 | 5.91 | 375 | 35900 (1927) | 166 (1981) | 2810 | 344 | 439 | 612 | 702 | 1170 | 2390 | 3000 | 6320 | 11400 |
| 2026-04-14 18:30 | 5.95 | 388 | 35900 (1927) | 166 (1981) | 2810 | 344 | 439 | 612 | 702 | 1170 | 2390 | 3000 | 6320 | 11400 |
| 2026-04-14 18:00 | 5.95 | 388 | 35900 (1927) | 166 (1981) | 2810 | 344 | 439 | 612 | 702 | 1170 | 2390 | 3000 | 6320 | 11400 |
| 2026-04-14 17:30 | 5.95 | 388 | 35900 (1927) | 166 (1981) | 2810 | 344 | 439 | 612 | 702 | 1170 | 2390 | 3000 | 6320 | 11400 |
| 2026-04-14 17:00 | 5.93 | 381 | 35900 (1927) | 166 (1981) | 2810 | 344 | 439 | 612 | 702 | 1170 | 2390 | 3000 | 6320 | 11400 |
| 2026-04-14 16:30 | 5.90 | 372 | 35900 (1927) | 166 (1981) | 2810 | 344 | 439 | 612 | 702 | 1170 | 2390 | 3000 | 6320 | 11400 |
| 2026-04-14 16:00 | 5.94 | 385 | 35900 (1927) | 166 (1981) | 2810 | 344 | 439 | 612 | 702 | 1170 | 2390 | 3000 | 6320 | 11400 |
| 2026-04-14 15:30 | 5.93 | 381 | 35900 (1927) | 166 (1981) | 2810 | 344 | 439 | 612 | 702 | 1170 | 2390 | 3000 | 6320 | 11400 |
| 2026-04-14 15:00 | 5.95 | 388 | 35900 (1927) | 166 (1981) | 2810 | 344 | 439 | 612 | 702 | 1170 | 2390 | 3000 | 6320 | 11400 |
| 2026-04-14 14:30 | 5.97 | 395 | 35900 (1927) | 166 (1981) | 2810 | 344 | 439 | 612 | 702 | 1170 | 2390 | 3000 | 6320 | 11400 |
| 2026-04-14 14:00 | 5.94 | 385 | 35900 (1927) | 166 (1981) | 2810 | 344 | 439 | 612 | 702 | 1170 | 2390 | 3000 | 6320 | 11400 |
| 2026-04-14 13:30 | 5.92 | 378 | 35900 (1927) | 166 (1981) | 2810 | 344 | 439 | 612 | 702 | 1170 | 2390 | 3000 | 6320 | 11400 |
| 2026-04-14 13:00 | 5.97 | 395 | 35900 (1927) | 166 (1981) | 2810 | 344 | 439 | 612 | 702 | 1170 | 2390 | 3000 | 6320 | 11400 |
| 2026-04-14 12:30 | 5.95 | 388 | 35900 (1927) | 166 (1981) | 2810 | 344 | 439 | 612 | 702 | 1170 | 2390 | 3000 | 6320 | 11400 |
| 2026-04-14 12:00 | 5.96 | 392 | 35900 (1927) | 166 (1981) | 2810 | 344 | 439 | 612 | 702 | 1170 | 2390 | 3000 | 6320 | 11400 |
| 2026-04-14 10:00 | 5.95 | 388 | 35900 (1927) | 166 (1981) | 2810 | 344 | 439 | 612 | 702 | 1170 | 2390 | 3000 | 6320 | 11400 |
| 2026-04-14 09:00 | 5.98 | 398 | 35900 (1927) | 166 (1981) | 2810 | 344 | 439 | 612 | 702 | 1170 | 2390 | 3000 | 6320 | 11400 |
| 2026-04-14 08:30 | 5.97 | 395 | 35900 (1927) | 166 (1981) | 2810 | 344 | 439 | 612 | 702 | 1170 | 2390 | 3000 | 6320 | 11400 |
| 2026-04-14 08:00 | 6.00 | 405 | 35900 (1927) | 166 (1981) | 2810 | 344 | 439 | 612 | 702 | 1170 | 2390 | 3000 | 6320 | 11400 |
| 2026-04-14 07:30 | 6.00 | 405 | 35900 (1927) | 166 (1981) | 2810 | 344 | 439 | 612 | 702 | 1170 | 2390 | 3000 | 6320 | 11400 |
| 2026-04-14 07:00 | 6.00 | 405 | 35900 (1927) | 166 (1981) | 2810 | 344 | 439 | 612 | 702 | 1170 | 2390 | 3000 | 6320 | 11400 |
| 2026-04-14 06:30 | 6.01 | 409 | 35900 (1927) | 166 (1981) | 2810 | 344 | 439 | 612 | 702 | 1170 | 2390 | 3000 | 6320 | 11400 |
| 2026-04-14 06:00 | 6.01 | 409 | 35900 (1927) | 166 (1981) | 2810 | 344 | 439 | 612 | 702 | 1170 | 2390 | 3000 | 6320 | 11400 |
| 2026-04-14 05:30 | 6.01 | 409 | 35900 (1927) | 166 (1981) | 2810 | 344 | 439 | 612 | 702 | 1170 | 2390 | 3000 | 6320 | 11400 |
| 2026-04-14 05:00 | 6.01 | 409 | 35900 (1927) | 166 (1981) | 2810 | 344 | 439 | 612 | 702 | 1170 | 2390 | 3000 | 6320 | 11400 |
| 2026-04-14 04:30 | 6.02 | 412 | 35900 (1927) | 166 (1981) | 2810 | 344 | 439 | 612 | 702 | 1170 | 2390 | 3000 | 6320 | 11400 |
| 2026-04-14 04:00 | 6.02 | 412 | 35900 (1927) | 166 (1981) | 2810 | 344 | 439 | 612 | 702 | 1170 | 2390 | 3000 | 6320 | 11400 |
| 2026-04-14 03:30 | 6.02 | 412 | 35900 (1927) | 166 (1981) | 2810 | 344 | 439 | 612 | 702 | 1170 | 2390 | 3000 | 6320 | 11400 |
| 2026-04-14 03:00 | 6.02 | 412 | 35900 (1927) | 166 (1981) | 2810 | 344 | 439 | 612 | 702 | 1170 | 2390 | 3000 | 6320 | 11400 |
| 2026-04-14 02:30 | 6.02 | 412 | 35900 (1927) | 166 (1981) | 2810 | 344 | 439 | 612 | 702 | 1170 | 2390 | 3000 | 6320 | 11400 |
| 2026-04-14 02:00 | 6.02 | 412 | 35900 (1927) | 166 (1981) | 2810 | 344 | 439 | 612 | 702 | 1170 | 2390 | 3000 | 6320 | 11400 |
| 2026-04-14 01:30 | 6.02 | 412 | 35900 (1927) | 166 (1981) | 2810 | 344 | 439 | 612 | 702 | 1170 | 2390 | 3000 | 6320 | 11400 |
| 2026-04-14 01:00 | 6.02 | 412 | 35900 (1927) | 166 (1981) | 2810 | 344 | 439 | 612 | 702 | 1170 | 2390 | 3000 | 6320 | 11400 |
| 2026-04-14 00:30 | 6.03 | 416 | 35900 (1927) | 166 (1981) | 2810 | 344 | 439 | 612 | 702 | 1170 | 2390 | 3000 | 6320 | 11400 |
| 2026-04-14 00:00 | 6.03 | 416 | 35900 (1927) | 166 (1981) | 2810 | 344 | 439 | 612 | 702 | 1170 | 2390 | 3000 | 6320 | 11400 |
| 2026-04-13 23:30 | 6.03 | 416 | 35900 (1927) | 166 (1981) | 2810 | 344 | 439 | 612 | 702 | 1170 | 2390 | 3000 | 6320 | 11400 |
| 2026-04-13 23:00 | 5.99 | 402 | 35900 (1927) | 166 (1981) | 2810 | 344 | 439 | 612 | 702 | 1170 | 2390 | 3000 | 6320 | 11400 |
| 2026-04-13 22:30 | 6.00 | 405 | 19000 (1945) | 168 (1981) | 2300 | 358 | 438 | 648 | 710 | 1080 | 2400 | 2790 | 4020 | 13000 |
| 2026-04-13 22:00 | 6.04 | 419 | 19000 (1945) | 168 (1981) | 2300 | 358 | 438 | 648 | 710 | 1080 | 2400 | 2790 | 4020 | 13000 |
| 2026-04-13 21:30 | 6.04 | 419 | 19000 (1945) | 168 (1981) | 2300 | 358 | 438 | 648 | 710 | 1080 | 2400 | 2790 | 4020 | 13000 |
| 2026-04-13 21:00 | 6.01 | 409 | 19000 (1945) | 168 (1981) | 2300 | 358 | 438 | 648 | 710 | 1080 | 2400 | 2790 | 4020 | 13000 |
| 2026-04-13 20:30 | 6.04 | 419 | 19000 (1945) | 168 (1981) | 2300 | 358 | 438 | 648 | 710 | 1080 | 2400 | 2790 | 4020 | 13000 |
| 2026-04-13 20:00 | 5.99 | 402 | 19000 (1945) | 168 (1981) | 2300 | 358 | 438 | 648 | 710 | 1080 | 2400 | 2790 | 4020 | 13000 |
| 2026-04-13 19:30 | 6.05 | 423 | 19000 (1945) | 168 (1981) | 2300 | 358 | 438 | 648 | 710 | 1080 | 2400 | 2790 | 4020 | 13000 |
| 2026-04-13 19:00 | 6.05 | 423 | 19000 (1945) | 168 (1981) | 2300 | 358 | 438 | 648 | 710 | 1080 | 2400 | 2790 | 4020 | 13000 |
| 2026-04-13 18:30 | 6.04 | 419 | 19000 (1945) | 168 (1981) | 2300 | 358 | 438 | 648 | 710 | 1080 | 2400 | 2790 | 4020 | 13000 |
| 2026-04-13 18:00 | 6.00 | 405 | 19000 (1945) | 168 (1981) | 2300 | 358 | 438 | 648 | 710 | 1080 | 2400 | 2790 | 4020 | 13000 |
| 2026-04-13 17:30 | 6.01 | 409 | 19000 (1945) | 168 (1981) | 2300 | 358 | 438 | 648 | 710 | 1080 | 2400 | 2790 | 4020 | 13000 |
| 2026-04-13 17:00 | 6.04 | 419 | 19000 (1945) | 168 (1981) | 2300 | 358 | 438 | 648 | 710 | 1080 | 2400 | 2790 | 4020 | 13000 |
| 2026-04-13 16:30 | 6.04 | 419 | 19000 (1945) | 168 (1981) | 2300 | 358 | 438 | 648 | 710 | 1080 | 2400 | 2790 | 4020 | 13000 |
| 2026-04-13 16:00 | 6.06 | 426 | 19000 (1945) | 168 (1981) | 2300 | 358 | 438 | 648 | 710 | 1080 | 2400 | 2790 | 4020 | 13000 |
| 2026-04-13 15:30 | 6.04 | 419 | 19000 (1945) | 168 (1981) | 2300 | 358 | 438 | 648 | 710 | 1080 | 2400 | 2790 | 4020 | 13000 |
| 2026-04-13 15:00 | 6.02 | 412 | 19000 (1945) | 168 (1981) | 2300 | 358 | 438 | 648 | 710 | 1080 | 2400 | 2790 | 4020 | 13000 |
| 2026-04-13 14:30 | 6.02 | 412 | 19000 (1945) | 168 (1981) | 2300 | 358 | 438 | 648 | 710 | 1080 | 2400 | 2790 | 4020 | 13000 |
| 2026-04-13 14:00 | 6.05 | 423 | 19000 (1945) | 168 (1981) | 2300 | 358 | 438 | 648 | 710 | 1080 | 2400 | 2790 | 4020 | 13000 |
| 2026-04-13 13:30 | 6.00 | 405 | 19000 (1945) | 168 (1981) | 2300 | 358 | 438 | 648 | 710 | 1080 | 2400 | 2790 | 4020 | 13000 |
| 2026-04-13 13:00 | 6.06 | 426 | 19000 (1945) | 168 (1981) | 2300 | 358 | 438 | 648 | 710 | 1080 | 2400 | 2790 | 4020 | 13000 |
| 2026-04-13 12:30 | 6.04 | 419 | 19000 (1945) | 168 (1981) | 2300 | 358 | 438 | 648 | 710 | 1080 | 2400 | 2790 | 4020 | 13000 |
| 2026-04-13 12:00 | 6.03 | 416 | 19000 (1945) | 168 (1981) | 2300 | 358 | 438 | 648 | 710 | 1080 | 2400 | 2790 | 4020 | 13000 |
| 2026-04-13 11:30 | 6.03 | 416 | 19000 (1945) | 168 (1981) | 2300 | 358 | 438 | 648 | 710 | 1080 | 2400 | 2790 | 4020 | 13000 |
| 2026-04-13 11:00 | 6.05 | 423 | 19000 (1945) | 168 (1981) | 2300 | 358 | 438 | 648 | 710 | 1080 | 2400 | 2790 | 4020 | 13000 |
| 2026-04-13 10:30 | 6.05 | 423 | 19000 (1945) | 168 (1981) | 2300 | 358 | 438 | 648 | 710 | 1080 | 2400 | 2790 | 4020 | 13000 |
| 2026-04-13 10:00 | 6.04 | 419 | 19000 (1945) | 168 (1981) | 2300 | 358 | 438 | 648 | 710 | 1080 | 2400 | 2790 | 4020 | 13000 |
| 2026-04-13 09:30 | 6.07 | 430 | 19000 (1945) | 168 (1981) | 2300 | 358 | 438 | 648 | 710 | 1080 | 2400 | 2790 | 4020 | 13000 |
| 2026-04-13 09:00 | 6.08 | 434 | 19000 (1945) | 168 (1981) | 2300 | 358 | 438 | 648 | 710 | 1080 | 2400 | 2790 | 4020 | 13000 |
| 2026-04-13 08:30 | 6.06 | 426 | 19000 (1945) | 168 (1981) | 2300 | 358 | 438 | 648 | 710 | 1080 | 2400 | 2790 | 4020 | 13000 |
| 2026-04-13 08:00 | 6.04 | 419 | 19000 (1945) | 168 (1981) | 2300 | 358 | 438 | 648 | 710 | 1080 | 2400 | 2790 | 4020 | 13000 |
| 2026-04-13 07:30 | 6.09 | 437 | 19000 (1945) | 168 (1981) | 2300 | 358 | 438 | 648 | 710 | 1080 | 2400 | 2790 | 4020 | 13000 |
| 2026-04-13 07:00 | 6.09 | 437 | 19000 (1945) | 168 (1981) | 2300 | 358 | 438 | 648 | 710 | 1080 | 2400 | 2790 | 4020 | 13000 |
| 2026-04-13 06:30 | 6.09 | 437 | 19000 (1945) | 168 (1981) | 2300 | 358 | 438 | 648 | 710 | 1080 | 2400 | 2790 | 4020 | 13000 |
| 2026-04-13 06:00 | 6.09 | 437 | 19000 (1945) | 168 (1981) | 2300 | 358 | 438 | 648 | 710 | 1080 | 2400 | 2790 | 4020 | 13000 |
| 2026-04-13 05:30 | 6.10 | 441 | 19000 (1945) | 168 (1981) | 2300 | 358 | 438 | 648 | 710 | 1080 | 2400 | 2790 | 4020 | 13000 |
| 2026-04-13 05:00 | 6.10 | 441 | 19000 (1945) | 168 (1981) | 2300 | 358 | 438 | 648 | 710 | 1080 | 2400 | 2790 | 4020 | 13000 |
| 2026-04-13 04:30 | 6.10 | 441 | 19000 (1945) | 168 (1981) | 2300 | 358 | 438 | 648 | 710 | 1080 | 2400 | 2790 | 4020 | 13000 |
| 2026-04-13 04:00 | 6.10 | 441 | 19000 (1945) | 168 (1981) | 2300 | 358 | 438 | 648 | 710 | 1080 | 2400 | 2790 | 4020 | 13000 |
| 2026-04-13 03:30 | 6.11 | 444 | 19000 (1945) | 168 (1981) | 2300 | 358 | 438 | 648 | 710 | 1080 | 2400 | 2790 | 4020 | 13000 |
| 2026-04-13 03:00 | 6.11 | 444 | 19000 (1945) | 168 (1981) | 2300 | 358 | 438 | 648 | 710 | 1080 | 2400 | 2790 | 4020 | 13000 |
| 2026-04-13 02:30 | 6.11 | 444 | 19000 (1945) | 168 (1981) | 2300 | 358 | 438 | 648 | 710 | 1080 | 2400 | 2790 | 4020 | 13000 |
| 2026-04-13 02:00 | 6.11 | 444 | 19000 (1945) | 168 (1981) | 2300 | 358 | 438 | 648 | 710 | 1080 | 2400 | 2790 | 4020 | 13000 |
| 2026-04-13 01:30 | 6.11 | 444 | 19000 (1945) | 168 (1981) | 2300 | 358 | 438 | 648 | 710 | 1080 | 2400 | 2790 | 4020 | 13000 |
| 2026-04-13 01:00 | 6.10 | 441 | 19000 (1945) | 168 (1981) | 2300 | 358 | 438 | 648 | 710 | 1080 | 2400 | 2790 | 4020 | 13000 |
| 2026-04-13 00:30 | 6.12 | 448 | 19000 (1945) | 168 (1981) | 2300 | 358 | 438 | 648 | 710 | 1080 | 2400 | 2790 | 4020 | 13000 |
| 2026-04-13 00:00 | 6.12 | 448 | 19000 (1945) | 168 (1981) | 2300 | 358 | 438 | 648 | 710 | 1080 | 2400 | 2790 | 4020 | 13000 |
| 2026-04-12 23:30 | 6.12 | 448 | 19000 (1945) | 168 (1981) | 2300 | 358 | 438 | 648 | 710 | 1080 | 2400 | 2790 | 4020 | 13000 |
| 2026-04-12 23:00 | 6.12 | 448 | 19000 (1945) | 168 (1981) | 2300 | 358 | 438 | 648 | 710 | 1080 | 2400 | 2790 | 4020 | 13000 |
| 2026-04-12 22:30 | 6.13 | 452 | 40200 (1979) | 175 (1981) | 2740 | 330 | 446 | 641 | 732 | 1220 | 2280 | 2810 | 4740 | 11700 |
| 2026-04-12 22:00 | 6.11 | 444 | 40200 (1979) | 175 (1981) | 2740 | 330 | 446 | 641 | 732 | 1220 | 2280 | 2810 | 4740 | 11700 |
| 2026-04-12 21:30 | 6.13 | 452 | 40200 (1979) | 175 (1981) | 2740 | 330 | 446 | 641 | 732 | 1220 | 2280 | 2810 | 4740 | 11700 |
| 2026-04-12 21:00 | 6.13 | 452 | 40200 (1979) | 175 (1981) | 2740 | 330 | 446 | 641 | 732 | 1220 | 2280 | 2810 | 4740 | 11700 |
| 2026-04-12 20:30 | 6.11 | 444 | 40200 (1979) | 175 (1981) | 2740 | 330 | 446 | 641 | 732 | 1220 | 2280 | 2810 | 4740 | 11700 |
| 2026-04-12 20:00 | 6.10 | 441 | 40200 (1979) | 175 (1981) | 2740 | 330 | 446 | 641 | 732 | 1220 | 2280 | 2810 | 4740 | 11700 |
| 2026-04-12 19:30 | 6.12 | 448 | 40200 (1979) | 175 (1981) | 2740 | 330 | 446 | 641 | 732 | 1220 | 2280 | 2810 | 4740 | 11700 |
| 2026-04-12 19:00 | 6.14 | 455 | 40200 (1979) | 175 (1981) | 2740 | 330 | 446 | 641 | 732 | 1220 | 2280 | 2810 | 4740 | 11700 |
| 2026-04-12 18:30 | 6.15 | 459 | 40200 (1979) | 175 (1981) | 2740 | 330 | 446 | 641 | 732 | 1220 | 2280 | 2810 | 4740 | 11700 |
| 2026-04-12 18:00 | 6.14 | 455 | 40200 (1979) | 175 (1981) | 2740 | 330 | 446 | 641 | 732 | 1220 | 2280 | 2810 | 4740 | 11700 |
| 2026-04-12 17:30 | 6.12 | 448 | 40200 (1979) | 175 (1981) | 2740 | 330 | 446 | 641 | 732 | 1220 | 2280 | 2810 | 4740 | 11700 |
| 2026-04-12 17:00 | 6.12 | 448 | 40200 (1979) | 175 (1981) | 2740 | 330 | 446 | 641 | 732 | 1220 | 2280 | 2810 | 4740 | 11700 |
| 2026-04-12 16:30 | 6.14 | 455 | 40200 (1979) | 175 (1981) | 2740 | 330 | 446 | 641 | 732 | 1220 | 2280 | 2810 | 4740 | 11700 |
| 2026-04-12 16:00 | 6.10 | 441 | 40200 (1979) | 175 (1981) | 2740 | 330 | 446 | 641 | 732 | 1220 | 2280 | 2810 | 4740 | 11700 |
| 2026-04-12 15:30 | 6.10 | 441 | 40200 (1979) | 175 (1981) | 2740 | 330 | 446 | 641 | 732 | 1220 | 2280 | 2810 | 4740 | 11700 |
| 2026-04-12 15:00 | 6.12 | 448 | 40200 (1979) | 175 (1981) | 2740 | 330 | 446 | 641 | 732 | 1220 | 2280 | 2810 | 4740 | 11700 |
| 2026-04-12 14:30 | 6.12 | 448 | 40200 (1979) | 175 (1981) | 2740 | 330 | 446 | 641 | 732 | 1220 | 2280 | 2810 | 4740 | 11700 |
| 2026-04-12 14:00 | 6.10 | 441 | 40200 (1979) | 175 (1981) | 2740 | 330 | 446 | 641 | 732 | 1220 | 2280 | 2810 | 4740 | 11700 |
| 2026-04-12 13:30 | 6.13 | 452 | 40200 (1979) | 175 (1981) | 2740 | 330 | 446 | 641 | 732 | 1220 | 2280 | 2810 | 4740 | 11700 |
| 2026-04-12 13:00 | 6.13 | 452 | 40200 (1979) | 175 (1981) | 2740 | 330 | 446 | 641 | 732 | 1220 | 2280 | 2810 | 4740 | 11700 |
| 2026-04-12 12:30 | 6.11 | 444 | 40200 (1979) | 175 (1981) | 2740 | 330 | 446 | 641 | 732 | 1220 | 2280 | 2810 | 4740 | 11700 |
| 2026-04-12 12:00 | 6.15 | 459 | 40200 (1979) | 175 (1981) | 2740 | 330 | 446 | 641 | 732 | 1220 | 2280 | 2810 | 4740 | 11700 |
| 2026-04-12 11:30 | 6.13 | 452 | 40200 (1979) | 175 (1981) | 2740 | 330 | 446 | 641 | 732 | 1220 | 2280 | 2810 | 4740 | 11700 |
| 2026-04-12 11:00 | 6.17 | 467 | 40200 (1979) | 175 (1981) | 2740 | 330 | 446 | 641 | 732 | 1220 | 2280 | 2810 | 4740 | 11700 |
| 2026-04-12 10:30 | 6.17 | 467 | 40200 (1979) | 175 (1981) | 2740 | 330 | 446 | 641 | 732 | 1220 | 2280 | 2810 | 4740 | 11700 |
| 2026-04-12 10:00 | 6.14 | 455 | 40200 (1979) | 175 (1981) | 2740 | 330 | 446 | 641 | 732 | 1220 | 2280 | 2810 | 4740 | 11700 |
| 2026-04-12 09:30 | 6.18 | 470 | 40200 (1979) | 175 (1981) | 2740 | 330 | 446 | 641 | 732 | 1220 | 2280 | 2810 | 4740 | 11700 |
| 2026-04-12 09:00 | 6.18 | 470 | 40200 (1979) | 175 (1981) | 2740 | 330 | 446 | 641 | 732 | 1220 | 2280 | 2810 | 4740 | 11700 |
| 2026-04-12 08:30 | 6.18 | 470 | 40200 (1979) | 175 (1981) | 2740 | 330 | 446 | 641 | 732 | 1220 | 2280 | 2810 | 4740 | 11700 |
| 2026-04-12 08:00 | 6.19 | 474 | 40200 (1979) | 175 (1981) | 2740 | 330 | 446 | 641 | 732 | 1220 | 2280 | 2810 | 4740 | 11700 |
| 2026-04-12 07:30 | 6.19 | 474 | 40200 (1979) | 175 (1981) | 2740 | 330 | 446 | 641 | 732 | 1220 | 2280 | 2810 | 4740 | 11700 |
| 2026-04-12 07:00 | 6.19 | 474 | 40200 (1979) | 175 (1981) | 2740 | 330 | 446 | 641 | 732 | 1220 | 2280 | 2810 | 4740 | 11700 |
| 2026-04-12 06:30 | 6.20 | 478 | 40200 (1979) | 175 (1981) | 2740 | 330 | 446 | 641 | 732 | 1220 | 2280 | 2810 | 4740 | 11700 |
| 2026-04-12 06:00 | 6.20 | 478 | 40200 (1979) | 175 (1981) | 2740 | 330 | 446 | 641 | 732 | 1220 | 2280 | 2810 | 4740 | 11700 |
| 2026-04-12 05:30 | 6.20 | 478 | 40200 (1979) | 175 (1981) | 2740 | 330 | 446 | 641 | 732 | 1220 | 2280 | 2810 | 4740 | 11700 |
| 2026-04-12 05:00 | 6.20 | 478 | 40200 (1979) | 175 (1981) | 2740 | 330 | 446 | 641 | 732 | 1220 | 2280 | 2810 | 4740 | 11700 |
| 2026-04-12 04:30 | 6.21 | 482 | 40200 (1979) | 175 (1981) | 2740 | 330 | 446 | 641 | 732 | 1220 | 2280 | 2810 | 4740 | 11700 |
| 2026-04-12 04:00 | 6.21 | 482 | 40200 (1979) | 175 (1981) | 2740 | 330 | 446 | 641 | 732 | 1220 | 2280 | 2810 | 4740 | 11700 |
| 2026-04-12 03:30 | 6.21 | 482 | 40200 (1979) | 175 (1981) | 2740 | 330 | 446 | 641 | 732 | 1220 | 2280 | 2810 | 4740 | 11700 |
| 2026-04-12 03:00 | 6.21 | 482 | 40200 (1979) | 175 (1981) | 2740 | 330 | 446 | 641 | 732 | 1220 | 2280 | 2810 | 4740 | 11700 |
| 2026-04-12 02:30 | 6.22 | 486 | 40200 (1979) | 175 (1981) | 2740 | 330 | 446 | 641 | 732 | 1220 | 2280 | 2810 | 4740 | 11700 |
| 2026-04-12 02:00 | 6.22 | 486 | 40200 (1979) | 175 (1981) | 2740 | 330 | 446 | 641 | 732 | 1220 | 2280 | 2810 | 4740 | 11700 |
| 2026-04-12 01:30 | 6.22 | 486 | 40200 (1979) | 175 (1981) | 2740 | 330 | 446 | 641 | 732 | 1220 | 2280 | 2810 | 4740 | 11700 |
| 2026-04-12 01:00 | 6.22 | 486 | 40200 (1979) | 175 (1981) | 2740 | 330 | 446 | 641 | 732 | 1220 | 2280 | 2810 | 4740 | 11700 |
| 2026-04-12 00:30 | 6.23 | 489 | 40200 (1979) | 175 (1981) | 2740 | 330 | 446 | 641 | 732 | 1220 | 2280 | 2810 | 4740 | 11700 |
| 2026-04-12 00:00 | 6.23 | 489 | 40200 (1979) | 175 (1981) | 2740 | 330 | 446 | 641 | 732 | 1220 | 2280 | 2810 | 4740 | 11700 |
| 2026-04-11 23:30 | 6.23 | 489 | 40200 (1979) | 175 (1981) | 2740 | 330 | 446 | 641 | 732 | 1220 | 2280 | 2810 | 4740 | 11700 |
| 2026-04-11 23:00 | 6.23 | 489 | 40200 (1979) | 175 (1981) | 2740 | 330 | 446 | 641 | 732 | 1220 | 2280 | 2810 | 4740 | 11700 |
| 2026-04-11 22:30 | 6.24 | 493 | 47500 (2008) | 157 (1966) | 2650 | 319 | 424 | 587 | 755 | 1180 | 2280 | 2680 | 5970 | 11100 |
| 2026-04-11 22:00 | 6.24 | 493 | 47500 (2008) | 157 (1966) | 2650 | 319 | 424 | 587 | 755 | 1180 | 2280 | 2680 | 5970 | 11100 |
| 2026-04-11 21:30 | 6.24 | 493 | 47500 (2008) | 157 (1966) | 2650 | 319 | 424 | 587 | 755 | 1180 | 2280 | 2680 | 5970 | 11100 |
| 2026-04-11 21:00 | 6.25 | 497 | 47500 (2008) | 157 (1966) | 2650 | 319 | 424 | 587 | 755 | 1180 | 2280 | 2680 | 5970 | 11100 |
| 2026-04-11 20:30 | 6.25 | 497 | 47500 (2008) | 157 (1966) | 2650 | 319 | 424 | 587 | 755 | 1180 | 2280 | 2680 | 5970 | 11100 |
| 2026-04-11 20:00 | 6.25 | 497 | 47500 (2008) | 157 (1966) | 2650 | 319 | 424 | 587 | 755 | 1180 | 2280 | 2680 | 5970 | 11100 |
| 2026-04-11 19:30 | 6.26 | 501 | 47500 (2008) | 157 (1966) | 2650 | 319 | 424 | 587 | 755 | 1180 | 2280 | 2680 | 5970 | 11100 |
| 2026-04-11 19:00 | 6.25 | 497 | 47500 (2008) | 157 (1966) | 2650 | 319 | 424 | 587 | 755 | 1180 | 2280 | 2680 | 5970 | 11100 |
| 2026-04-11 18:30 | 6.26 | 501 | 47500 (2008) | 157 (1966) | 2650 | 319 | 424 | 587 | 755 | 1180 | 2280 | 2680 | 5970 | 11100 |
| 2026-04-11 18:00 | 6.26 | 501 | 47500 (2008) | 157 (1966) | 2650 | 319 | 424 | 587 | 755 | 1180 | 2280 | 2680 | 5970 | 11100 |
| 2026-04-11 17:30 | 6.25 | 497 | 47500 (2008) | 157 (1966) | 2650 | 319 | 424 | 587 | 755 | 1180 | 2280 | 2680 | 5970 | 11100 |
| 2026-04-11 17:00 | 6.20 | 478 | 47500 (2008) | 157 (1966) | 2650 | 319 | 424 | 587 | 755 | 1180 | 2280 | 2680 | 5970 | 11100 |
| 2026-04-11 16:30 | 6.27 | 505 | 47500 (2008) | 157 (1966) | 2650 | 319 | 424 | 587 | 755 | 1180 | 2280 | 2680 | 5970 | 11100 |
| 2026-04-11 16:00 | 6.24 | 493 | 47500 (2008) | 157 (1966) | 2650 | 319 | 424 | 587 | 755 | 1180 | 2280 | 2680 | 5970 | 11100 |
| 2026-04-11 15:30 | 6.28 | 509 | 47500 (2008) | 157 (1966) | 2650 | 319 | 424 | 587 | 755 | 1180 | 2280 | 2680 | 5970 | 11100 |
| 2026-04-11 15:00 | 6.27 | 505 | 47500 (2008) | 157 (1966) | 2650 | 319 | 424 | 587 | 755 | 1180 | 2280 | 2680 | 5970 | 11100 |
| 2026-04-11 14:30 | 6.28 | 509 | 47500 (2008) | 157 (1966) | 2650 | 319 | 424 | 587 | 755 | 1180 | 2280 | 2680 | 5970 | 11100 |
| 2026-04-11 14:00 | 6.28 | 509 | 47500 (2008) | 157 (1966) | 2650 | 319 | 424 | 587 | 755 | 1180 | 2280 | 2680 | 5970 | 11100 |
| 2026-04-11 13:30 | 6.26 | 501 | 47500 (2008) | 157 (1966) | 2650 | 319 | 424 | 587 | 755 | 1180 | 2280 | 2680 | 5970 | 11100 |
| 2026-04-11 13:00 | 6.28 | 509 | 47500 (2008) | 157 (1966) | 2650 | 319 | 424 | 587 | 755 | 1180 | 2280 | 2680 | 5970 | 11100 |
| 2026-04-11 12:30 | 6.29 | 513 | 47500 (2008) | 157 (1966) | 2650 | 319 | 424 | 587 | 755 | 1180 | 2280 | 2680 | 5970 | 11100 |
| 2026-04-11 12:00 | 6.29 | 513 | 47500 (2008) | 157 (1966) | 2650 | 319 | 424 | 587 | 755 | 1180 | 2280 | 2680 | 5970 | 11100 |
| 2026-04-11 11:30 | 6.29 | 513 | 47500 (2008) | 157 (1966) | 2650 | 319 | 424 | 587 | 755 | 1180 | 2280 | 2680 | 5970 | 11100 |
| 2026-04-11 11:00 | 6.29 | 513 | 47500 (2008) | 157 (1966) | 2650 | 319 | 424 | 587 | 755 | 1180 | 2280 | 2680 | 5970 | 11100 |
| 2026-04-11 10:30 | 6.30 | 517 | 47500 (2008) | 157 (1966) | 2650 | 319 | 424 | 587 | 755 | 1180 | 2280 | 2680 | 5970 | 11100 |
| 2026-04-11 10:00 | 6.30 | 517 | 47500 (2008) | 157 (1966) | 2650 | 319 | 424 | 587 | 755 | 1180 | 2280 | 2680 | 5970 | 11100 |
| 2026-04-11 09:30 | 6.30 | 517 | 47500 (2008) | 157 (1966) | 2650 | 319 | 424 | 587 | 755 | 1180 | 2280 | 2680 | 5970 | 11100 |
| 2026-04-11 09:00 | 6.30 | 517 | 47500 (2008) | 157 (1966) | 2650 | 319 | 424 | 587 | 755 | 1180 | 2280 | 2680 | 5970 | 11100 |
| 2026-04-11 08:30 | 6.30 | 517 | 47500 (2008) | 157 (1966) | 2650 | 319 | 424 | 587 | 755 | 1180 | 2280 | 2680 | 5970 | 11100 |
| 2026-04-11 08:00 | 6.30 | 517 | 47500 (2008) | 157 (1966) | 2650 | 319 | 424 | 587 | 755 | 1180 | 2280 | 2680 | 5970 | 11100 |
| 2026-04-11 07:30 | 6.31 | 521 | 47500 (2008) | 157 (1966) | 2650 | 319 | 424 | 587 | 755 | 1180 | 2280 | 2680 | 5970 | 11100 |
| 2026-04-11 07:00 | 6.31 | 521 | 47500 (2008) | 157 (1966) | 2650 | 319 | 424 | 587 | 755 | 1180 | 2280 | 2680 | 5970 | 11100 |
| 2026-04-11 06:30 | 6.31 | 521 | 47500 (2008) | 157 (1966) | 2650 | 319 | 424 | 587 | 755 | 1180 | 2280 | 2680 | 5970 | 11100 |
| 2026-04-11 06:00 | 6.32 | 525 | 47500 (2008) | 157 (1966) | 2650 | 319 | 424 | 587 | 755 | 1180 | 2280 | 2680 | 5970 | 11100 |
| 2026-04-11 05:30 | 6.32 | 525 | 47500 (2008) | 157 (1966) | 2650 | 319 | 424 | 587 | 755 | 1180 | 2280 | 2680 | 5970 | 11100 |
| 2026-04-11 05:00 | 6.32 | 525 | 47500 (2008) | 157 (1966) | 2650 | 319 | 424 | 587 | 755 | 1180 | 2280 | 2680 | 5970 | 11100 |
| 2026-04-11 04:30 | 6.32 | 525 | 47500 (2008) | 157 (1966) | 2650 | 319 | 424 | 587 | 755 | 1180 | 2280 | 2680 | 5970 | 11100 |
| 2026-04-11 04:00 | 6.33 | 529 | 47500 (2008) | 157 (1966) | 2650 | 319 | 424 | 587 | 755 | 1180 | 2280 | 2680 | 5970 | 11100 |
| 2026-04-11 03:30 | 6.33 | 529 | 47500 (2008) | 157 (1966) | 2650 | 319 | 424 | 587 | 755 | 1180 | 2280 | 2680 | 5970 | 11100 |
| 2026-04-11 03:00 | 6.33 | 529 | 47500 (2008) | 157 (1966) | 2650 | 319 | 424 | 587 | 755 | 1180 | 2280 | 2680 | 5970 | 11100 |
| 2026-04-11 02:30 | 6.34 | 533 | 47500 (2008) | 157 (1966) | 2650 | 319 | 424 | 587 | 755 | 1180 | 2280 | 2680 | 5970 | 11100 |
| 2026-04-11 02:00 | 6.34 | 533 | 47500 (2008) | 157 (1966) | 2650 | 319 | 424 | 587 | 755 | 1180 | 2280 | 2680 | 5970 | 11100 |
| 2026-04-11 01:30 | 6.34 | 533 | 47500 (2008) | 157 (1966) | 2650 | 319 | 424 | 587 | 755 | 1180 | 2280 | 2680 | 5970 | 11100 |
| 2026-04-11 01:00 | 6.34 | 533 | 47500 (2008) | 157 (1966) | 2650 | 319 | 424 | 587 | 755 | 1180 | 2280 | 2680 | 5970 | 11100 |
| 2026-04-11 00:30 | 6.35 | 537 | 47500 (2008) | 157 (1966) | 2650 | 319 | 424 | 587 | 755 | 1180 | 2280 | 2680 | 5970 | 11100 |
| 2026-04-11 00:00 | 6.35 | 537 | 47500 (2008) | 157 (1966) | 2650 | 319 | 424 | 587 | 755 | 1180 | 2280 | 2680 | 5970 | 11100 |
| 2026-04-10 23:30 | 6.35 | 537 | 47500 (2008) | 157 (1966) | 2650 | 319 | 424 | 587 | 755 | 1180 | 2280 | 2680 | 5970 | 11100 |
| 2026-04-10 23:00 | 6.35 | 537 | 47500 (2008) | 157 (1966) | 2650 | 319 | 424 | 587 | 755 | 1180 | 2280 | 2680 | 5970 | 11100 |
| 2026-04-10 22:30 | 6.36 | 541 | 21100 (2008) | 155 (1966) | 2120 | 294 | 438 | 564 | 636 | 1190 | 1970 | 2800 | 3890 | 7020 |
| 2026-04-10 22:00 | 6.36 | 541 | 21100 (2008) | 155 (1966) | 2120 | 294 | 438 | 564 | 636 | 1190 | 1970 | 2800 | 3890 | 7020 |
| 2026-04-10 21:30 | 6.36 | 541 | 21100 (2008) | 155 (1966) | 2120 | 294 | 438 | 564 | 636 | 1190 | 1970 | 2800 | 3890 | 7020 |
| 2026-04-10 21:00 | 6.37 | 545 | 21100 (2008) | 155 (1966) | 2120 | 294 | 438 | 564 | 636 | 1190 | 1970 | 2800 | 3890 | 7020 |
| 2026-04-10 20:30 | 6.37 | 545 | 21100 (2008) | 155 (1966) | 2120 | 294 | 438 | 564 | 636 | 1190 | 1970 | 2800 | 3890 | 7020 |
| 2026-04-10 20:00 | 6.37 | 545 | 21100 (2008) | 155 (1966) | 2120 | 294 | 438 | 564 | 636 | 1190 | 1970 | 2800 | 3890 | 7020 |
| 2026-04-10 19:30 | 6.38 | 549 | 21100 (2008) | 155 (1966) | 2120 | 294 | 438 | 564 | 636 | 1190 | 1970 | 2800 | 3890 | 7020 |
| 2026-04-10 19:00 | 6.38 | 549 | 21100 (2008) | 155 (1966) | 2120 | 294 | 438 | 564 | 636 | 1190 | 1970 | 2800 | 3890 | 7020 |
| 2026-04-10 18:30 | 6.38 | 549 | 21100 (2008) | 155 (1966) | 2120 | 294 | 438 | 564 | 636 | 1190 | 1970 | 2800 | 3890 | 7020 |
| 2026-04-10 18:00 | 6.39 | 553 | 21100 (2008) | 155 (1966) | 2120 | 294 | 438 | 564 | 636 | 1190 | 1970 | 2800 | 3890 | 7020 |
| 2026-04-10 17:30 | 6.39 | 553 | 21100 (2008) | 155 (1966) | 2120 | 294 | 438 | 564 | 636 | 1190 | 1970 | 2800 | 3890 | 7020 |
| 2026-04-10 17:00 | 6.40 | 557 | 21100 (2008) | 155 (1966) | 2120 | 294 | 438 | 564 | 636 | 1190 | 1970 | 2800 | 3890 | 7020 |
| 2026-04-10 16:30 | 6.39 | 553 | 21100 (2008) | 155 (1966) | 2120 | 294 | 438 | 564 | 636 | 1190 | 1970 | 2800 | 3890 | 7020 |
| 2026-04-10 16:00 | 6.39 | 553 | 21100 (2008) | 155 (1966) | 2120 | 294 | 438 | 564 | 636 | 1190 | 1970 | 2800 | 3890 | 7020 |
| 2026-04-10 15:30 | 6.40 | 557 | 21100 (2008) | 155 (1966) | 2120 | 294 | 438 | 564 | 636 | 1190 | 1970 | 2800 | 3890 | 7020 |
| 2026-04-10 15:00 | 6.39 | 553 | 21100 (2008) | 155 (1966) | 2120 | 294 | 438 | 564 | 636 | 1190 | 1970 | 2800 | 3890 | 7020 |
| 2026-04-10 14:30 | 6.38 | 549 | 21100 (2008) | 155 (1966) | 2120 | 294 | 438 | 564 | 636 | 1190 | 1970 | 2800 | 3890 | 7020 |
| 2026-04-10 14:00 | 6.40 | 557 | 21100 (2008) | 155 (1966) | 2120 | 294 | 438 | 564 | 636 | 1190 | 1970 | 2800 | 3890 | 7020 |
| 2026-04-10 13:30 | 6.41 | 561 | 21100 (2008) | 155 (1966) | 2120 | 294 | 438 | 564 | 636 | 1190 | 1970 | 2800 | 3890 | 7020 |
| 2026-04-10 13:00 | 6.39 | 553 | 21100 (2008) | 155 (1966) | 2120 | 294 | 438 | 564 | 636 | 1190 | 1970 | 2800 | 3890 | 7020 |
| 2026-04-10 12:30 | 6.39 | 553 | 21100 (2008) | 155 (1966) | 2120 | 294 | 438 | 564 | 636 | 1190 | 1970 | 2800 | 3890 | 7020 |
| 2026-04-10 12:00 | 6.41 | 561 | 21100 (2008) | 155 (1966) | 2120 | 294 | 438 | 564 | 636 | 1190 | 1970 | 2800 | 3890 | 7020 |
| 2026-04-10 11:30 | 6.42 | 566 | 21100 (2008) | 155 (1966) | 2120 | 294 | 438 | 564 | 636 | 1190 | 1970 | 2800 | 3890 | 7020 |
| 2026-04-10 11:00 | 6.42 | 566 | 21100 (2008) | 155 (1966) | 2120 | 294 | 438 | 564 | 636 | 1190 | 1970 | 2800 | 3890 | 7020 |
| 2026-04-10 10:30 | 6.42 | 566 | 21100 (2008) | 155 (1966) | 2120 | 294 | 438 | 564 | 636 | 1190 | 1970 | 2800 | 3890 | 7020 |
| 2026-04-10 10:00 | 6.42 | 566 | 21100 (2008) | 155 (1966) | 2120 | 294 | 438 | 564 | 636 | 1190 | 1970 | 2800 | 3890 | 7020 |
| 2026-04-10 09:30 | 6.43 | 570 | 21100 (2008) | 155 (1966) | 2120 | 294 | 438 | 564 | 636 | 1190 | 1970 | 2800 | 3890 | 7020 |
| 2026-04-10 09:00 | 6.43 | 570 | 21100 (2008) | 155 (1966) | 2120 | 294 | 438 | 564 | 636 | 1190 | 1970 | 2800 | 3890 | 7020 |
| 2026-04-10 08:30 | 6.43 | 570 | 21100 (2008) | 155 (1966) | 2120 | 294 | 438 | 564 | 636 | 1190 | 1970 | 2800 | 3890 | 7020 |
| 2026-04-10 08:00 | 6.44 | 574 | 21100 (2008) | 155 (1966) | 2120 | 294 | 438 | 564 | 636 | 1190 | 1970 | 2800 | 3890 | 7020 |
| 2026-04-10 07:30 | 6.44 | 574 | 21100 (2008) | 155 (1966) | 2120 | 294 | 438 | 564 | 636 | 1190 | 1970 | 2800 | 3890 | 7020 |
| 2026-04-10 07:00 | 6.45 | 578 | 21100 (2008) | 155 (1966) | 2120 | 294 | 438 | 564 | 636 | 1190 | 1970 | 2800 | 3890 | 7020 |
| 2026-04-10 06:30 | 6.45 | 578 | 21100 (2008) | 155 (1966) | 2120 | 294 | 438 | 564 | 636 | 1190 | 1970 | 2800 | 3890 | 7020 |
| 2026-04-10 06:00 | 6.45 | 578 | 21100 (2008) | 155 (1966) | 2120 | 294 | 438 | 564 | 636 | 1190 | 1970 | 2800 | 3890 | 7020 |
| 2026-04-10 05:30 | 6.45 | 578 | 21100 (2008) | 155 (1966) | 2120 | 294 | 438 | 564 | 636 | 1190 | 1970 | 2800 | 3890 | 7020 |
| 2026-04-10 05:00 | 6.46 | 582 | 21100 (2008) | 155 (1966) | 2120 | 294 | 438 | 564 | 636 | 1190 | 1970 | 2800 | 3890 | 7020 |
| 2026-04-10 04:30 | 6.46 | 582 | 21100 (2008) | 155 (1966) | 2120 | 294 | 438 | 564 | 636 | 1190 | 1970 | 2800 | 3890 | 7020 |
| 2026-04-10 04:00 | 6.46 | 582 | 21100 (2008) | 155 (1966) | 2120 | 294 | 438 | 564 | 636 | 1190 | 1970 | 2800 | 3890 | 7020 |
| 2026-04-10 03:30 | 6.47 | 587 | 21100 (2008) | 155 (1966) | 2120 | 294 | 438 | 564 | 636 | 1190 | 1970 | 2800 | 3890 | 7020 |
| 2026-04-10 03:00 | 6.47 | 587 | 21100 (2008) | 155 (1966) | 2120 | 294 | 438 | 564 | 636 | 1190 | 1970 | 2800 | 3890 | 7020 |
| 2026-04-10 02:30 | 6.48 | 591 | 21100 (2008) | 155 (1966) | 2120 | 294 | 438 | 564 | 636 | 1190 | 1970 | 2800 | 3890 | 7020 |
| 2026-04-10 02:00 | 6.48 | 591 | 21100 (2008) | 155 (1966) | 2120 | 294 | 438 | 564 | 636 | 1190 | 1970 | 2800 | 3890 | 7020 |
| 2026-04-10 01:30 | 6.48 | 591 | 21100 (2008) | 155 (1966) | 2120 | 294 | 438 | 564 | 636 | 1190 | 1970 | 2800 | 3890 | 7020 |
| 2026-04-10 01:00 | 6.49 | 595 | 21100 (2008) | 155 (1966) | 2120 | 294 | 438 | 564 | 636 | 1190 | 1970 | 2800 | 3890 | 7020 |
| 2026-04-10 00:30 | 6.49 | 595 | 21100 (2008) | 155 (1966) | 2120 | 294 | 438 | 564 | 636 | 1190 | 1970 | 2800 | 3890 | 7020 |
| 2026-04-10 00:00 | 6.49 | 595 | 21100 (2008) | 155 (1966) | 2120 | 294 | 438 | 564 | 636 | 1190 | 1970 | 2800 | 3890 | 7020 |
| 2026-04-09 23:30 | 6.50 | 600 | 21100 (2008) | 155 (1966) | 2120 | 294 | 438 | 564 | 636 | 1190 | 1970 | 2800 | 3890 | 7020 |
| 2026-04-09 23:00 | 6.50 | 600 | 21100 (2008) | 155 (1966) | 2120 | 294 | 438 | 564 | 636 | 1190 | 1970 | 2800 | 3890 | 7020 |
| 2026-04-09 22:30 | 6.51 | 604 | 13300 (1942) | 163 (1966) | 1840 | 307 | 412 | 544 | 633 | 1160 | 2100 | 2420 | 4160 | 6770 |
| 2026-04-09 22:00 | 6.51 | 604 | 13300 (1942) | 163 (1966) | 1840 | 307 | 412 | 544 | 633 | 1160 | 2100 | 2420 | 4160 | 6770 |
| 2026-04-09 21:30 | 6.52 | 608 | 13300 (1942) | 163 (1966) | 1840 | 307 | 412 | 544 | 633 | 1160 | 2100 | 2420 | 4160 | 6770 |
| 2026-04-09 21:00 | 6.52 | 608 | 13300 (1942) | 163 (1966) | 1840 | 307 | 412 | 544 | 633 | 1160 | 2100 | 2420 | 4160 | 6770 |
| 2026-04-09 20:30 | 6.52 | 608 | 13300 (1942) | 163 (1966) | 1840 | 307 | 412 | 544 | 633 | 1160 | 2100 | 2420 | 4160 | 6770 |
| 2026-04-09 20:00 | 6.53 | 613 | 13300 (1942) | 163 (1966) | 1840 | 307 | 412 | 544 | 633 | 1160 | 2100 | 2420 | 4160 | 6770 |
| 2026-04-09 19:30 | 6.52 | 608 | 13300 (1942) | 163 (1966) | 1840 | 307 | 412 | 544 | 633 | 1160 | 2100 | 2420 | 4160 | 6770 |
| 2026-04-09 19:00 | 6.52 | 608 | 13300 (1942) | 163 (1966) | 1840 | 307 | 412 | 544 | 633 | 1160 | 2100 | 2420 | 4160 | 6770 |
| 2026-04-09 18:30 | 6.53 | 613 | 13300 (1942) | 163 (1966) | 1840 | 307 | 412 | 544 | 633 | 1160 | 2100 | 2420 | 4160 | 6770 |
| 2026-04-09 18:00 | 6.53 | 613 | 13300 (1942) | 163 (1966) | 1840 | 307 | 412 | 544 | 633 | 1160 | 2100 | 2420 | 4160 | 6770 |
| 2026-04-09 17:30 | 6.51 | 604 | 13300 (1942) | 163 (1966) | 1840 | 307 | 412 | 544 | 633 | 1160 | 2100 | 2420 | 4160 | 6770 |
| 2026-04-09 17:00 | 6.53 | 613 | 13300 (1942) | 163 (1966) | 1840 | 307 | 412 | 544 | 633 | 1160 | 2100 | 2420 | 4160 | 6770 |
| 2026-04-09 16:30 | 6.51 | 604 | 13300 (1942) | 163 (1966) | 1840 | 307 | 412 | 544 | 633 | 1160 | 2100 | 2420 | 4160 | 6770 |
| 2026-04-09 16:00 | 6.53 | 613 | 13300 (1942) | 163 (1966) | 1840 | 307 | 412 | 544 | 633 | 1160 | 2100 | 2420 | 4160 | 6770 |
| 2026-04-09 15:30 | 6.53 | 613 | 13300 (1942) | 163 (1966) | 1840 | 307 | 412 | 544 | 633 | 1160 | 2100 | 2420 | 4160 | 6770 |
| 2026-04-09 15:00 | 6.57 | 630 | 13300 (1942) | 163 (1966) | 1840 | 307 | 412 | 544 | 633 | 1160 | 2100 | 2420 | 4160 | 6770 |
| 2026-04-09 14:30 | 6.55 | 621 | 13300 (1942) | 163 (1966) | 1840 | 307 | 412 | 544 | 633 | 1160 | 2100 | 2420 | 4160 | 6770 |
| 2026-04-09 14:00 | 6.55 | 621 | 13300 (1942) | 163 (1966) | 1840 | 307 | 412 | 544 | 633 | 1160 | 2100 | 2420 | 4160 | 6770 |
| 2026-04-09 13:30 | 6.54 | 617 | 13300 (1942) | 163 (1966) | 1840 | 307 | 412 | 544 | 633 | 1160 | 2100 | 2420 | 4160 | 6770 |
| 2026-04-09 13:00 | 6.56 | 626 | 13300 (1942) | 163 (1966) | 1840 | 307 | 412 | 544 | 633 | 1160 | 2100 | 2420 | 4160 | 6770 |
| 2026-04-09 12:30 | 6.58 | 635 | 13300 (1942) | 163 (1966) | 1840 | 307 | 412 | 544 | 633 | 1160 | 2100 | 2420 | 4160 | 6770 |
| 2026-04-09 12:00 | 6.57 | 630 | 13300 (1942) | 163 (1966) | 1840 | 307 | 412 | 544 | 633 | 1160 | 2100 | 2420 | 4160 | 6770 |
| 2026-04-09 11:30 | 6.55 | 621 | 13300 (1942) | 163 (1966) | 1840 | 307 | 412 | 544 | 633 | 1160 | 2100 | 2420 | 4160 | 6770 |
| 2026-04-09 11:00 | 6.56 | 626 | 13300 (1942) | 163 (1966) | 1840 | 307 | 412 | 544 | 633 | 1160 | 2100 | 2420 | 4160 | 6770 |
| 2026-04-09 10:30 | 6.57 | 630 | 13300 (1942) | 163 (1966) | 1840 | 307 | 412 | 544 | 633 | 1160 | 2100 | 2420 | 4160 | 6770 |
| 2026-04-09 10:00 | 644 | 13300 (1942) | 163 (1966) | 1840 | 307 | 412 | 544 | 633 | 1160 | 2100 | 2420 | 4160 | 6770 | |
| 2026-04-09 09:30 | 6.61 | 648 | 13300 (1942) | 163 (1966) | 1840 | 307 | 412 | 544 | 633 | 1160 | 2100 | 2420 | 4160 | 6770 |
| 2026-04-09 09:00 | 6.61 | 648 | 13300 (1942) | 163 (1966) | 1840 | 307 | 412 | 544 | 633 | 1160 | 2100 | 2420 | 4160 | 6770 |
| 2026-04-09 08:30 | 6.62 | 653 | 13300 (1942) | 163 (1966) | 1840 | 307 | 412 | 544 | 633 | 1160 | 2100 | 2420 | 4160 | 6770 |
| 2026-04-09 08:00 | 6.62 | 653 | 13300 (1942) | 163 (1966) | 1840 | 307 | 412 | 544 | 633 | 1160 | 2100 | 2420 | 4160 | 6770 |
| 2026-04-09 07:30 | 6.63 | 657 | 13300 (1942) | 163 (1966) | 1840 | 307 | 412 | 544 | 633 | 1160 | 2100 | 2420 | 4160 | 6770 |
| 2026-04-09 07:00 | 6.63 | 657 | 13300 (1942) | 163 (1966) | 1840 | 307 | 412 | 544 | 633 | 1160 | 2100 | 2420 | 4160 | 6770 |
| 2026-04-09 06:30 | 6.64 | 662 | 13300 (1942) | 163 (1966) | 1840 | 307 | 412 | 544 | 633 | 1160 | 2100 | 2420 | 4160 | 6770 |
| 2026-04-09 06:00 | 6.64 | 662 | 13300 (1942) | 163 (1966) | 1840 | 307 | 412 | 544 | 633 | 1160 | 2100 | 2420 | 4160 | 6770 |
| 2026-04-09 05:30 | 6.64 | 662 | 13300 (1942) | 163 (1966) | 1840 | 307 | 412 | 544 | 633 | 1160 | 2100 | 2420 | 4160 | 6770 |
| 2026-04-09 05:00 | 6.65 | 666 | 13300 (1942) | 163 (1966) | 1840 | 307 | 412 | 544 | 633 | 1160 | 2100 | 2420 | 4160 | 6770 |
| 2026-04-09 04:30 | 6.65 | 666 | 13300 (1942) | 163 (1966) | 1840 | 307 | 412 | 544 | 633 | 1160 | 2100 | 2420 | 4160 | 6770 |
| 2026-04-09 04:00 | 6.66 | 671 | 13300 (1942) | 163 (1966) | 1840 | 307 | 412 | 544 | 633 | 1160 | 2100 | 2420 | 4160 | 6770 |
| 2026-04-09 03:30 | 6.66 | 671 | 13300 (1942) | 163 (1966) | 1840 | 307 | 412 | 544 | 633 | 1160 | 2100 | 2420 | 4160 | 6770 |
| 2026-04-09 03:00 | 6.67 | 676 | 13300 (1942) | 163 (1966) | 1840 | 307 | 412 | 544 | 633 | 1160 | 2100 | 2420 | 4160 | 6770 |
| 2026-04-09 02:30 | 6.67 | 676 | 13300 (1942) | 163 (1966) | 1840 | 307 | 412 | 544 | 633 | 1160 | 2100 | 2420 | 4160 | 6770 |
| 2026-04-09 02:00 | 6.68 | 680 | 13300 (1942) | 163 (1966) | 1840 | 307 | 412 | 544 | 633 | 1160 | 2100 | 2420 | 4160 | 6770 |
| 2026-04-09 01:30 | 6.68 | 680 | 13300 (1942) | 163 (1966) | 1840 | 307 | 412 | 544 | 633 | 1160 | 2100 | 2420 | 4160 | 6770 |
| 2026-04-09 01:00 | 6.69 | 685 | 13300 (1942) | 163 (1966) | 1840 | 307 | 412 | 544 | 633 | 1160 | 2100 | 2420 | 4160 | 6770 |
| 2026-04-09 00:30 | 6.69 | 685 | 13300 (1942) | 163 (1966) | 1840 | 307 | 412 | 544 | 633 | 1160 | 2100 | 2420 | 4160 | 6770 |
| 2026-04-09 00:00 | 6.70 | 689 | 13300 (1942) | 163 (1966) | 1840 | 307 | 412 | 544 | 633 | 1160 | 2100 | 2420 | 4160 | 6770 |
| 2026-04-08 23:30 | 6.70 | 689 | 13300 (1942) | 163 (1966) | 1840 | 307 | 412 | 544 | 633 | 1160 | 2100 | 2420 | 4160 | 6770 |
| 2026-04-08 23:00 | 6.70 | 689 | 13300 (1942) | 163 (1966) | 1840 | 307 | 412 | 544 | 633 | 1160 | 2100 | 2420 | 4160 | 6770 |
| 2026-04-08 22:30 | 6.71 | 694 | 12600 (1927) | 168 (1966) | 1650 | 283 | 345 | 563 | 655 | 1270 | 2050 | 2240 | 3430 | 4120 |
| 2026-04-08 22:00 | 6.72 | 699 | 12600 (1927) | 168 (1966) | 1650 | 283 | 345 | 563 | 655 | 1270 | 2050 | 2240 | 3430 | 4120 |
| 2026-04-08 21:30 | 6.72 | 699 | 12600 (1927) | 168 (1966) | 1650 | 283 | 345 | 563 | 655 | 1270 | 2050 | 2240 | 3430 | 4120 |
| 2026-04-08 21:00 | 6.72 | 699 | 12600 (1927) | 168 (1966) | 1650 | 283 | 345 | 563 | 655 | 1270 | 2050 | 2240 | 3430 | 4120 |
| 2026-04-08 20:30 | 6.73 | 704 | 12600 (1927) | 168 (1966) | 1650 | 283 | 345 | 563 | 655 | 1270 | 2050 | 2240 | 3430 | 4120 |
| 2026-04-08 20:00 | 6.73 | 704 | 12600 (1927) | 168 (1966) | 1650 | 283 | 345 | 563 | 655 | 1270 | 2050 | 2240 | 3430 | 4120 |
| 2026-04-08 19:30 | 6.74 | 708 | 12600 (1927) | 168 (1966) | 1650 | 283 | 345 | 563 | 655 | 1270 | 2050 | 2240 | 3430 | 4120 |
| 2026-04-08 19:00 | 6.74 | 708 | 12600 (1927) | 168 (1966) | 1650 | 283 | 345 | 563 | 655 | 1270 | 2050 | 2240 | 3430 | 4120 |
| 2026-04-08 18:30 | 6.75 | 713 | 12600 (1927) | 168 (1966) | 1650 | 283 | 345 | 563 | 655 | 1270 | 2050 | 2240 | 3430 | 4120 |
| 2026-04-08 18:00 | 6.73 | 704 | 12600 (1927) | 168 (1966) | 1650 | 283 | 345 | 563 | 655 | 1270 | 2050 | 2240 | 3430 | 4120 |
| 2026-04-08 17:30 | 6.75 | 713 | 12600 (1927) | 168 (1966) | 1650 | 283 | 345 | 563 | 655 | 1270 | 2050 | 2240 | 3430 | 4120 |
| 2026-04-08 17:00 | 6.75 | 713 | 12600 (1927) | 168 (1966) | 1650 | 283 | 345 | 563 | 655 | 1270 | 2050 | 2240 | 3430 | 4120 |
| 2026-04-08 16:30 | 6.76 | 718 | 12600 (1927) | 168 (1966) | 1650 | 283 | 345 | 563 | 655 | 1270 | 2050 | 2240 | 3430 | 4120 |
| 2026-04-08 16:00 | 6.77 | 723 | 12600 (1927) | 168 (1966) | 1650 | 283 | 345 | 563 | 655 | 1270 | 2050 | 2240 | 3430 | 4120 |
| 2026-04-08 15:30 | 6.78 | 727 | 12600 (1927) | 168 (1966) | 1650 | 283 | 345 | 563 | 655 | 1270 | 2050 | 2240 | 3430 | 4120 |
| 2026-04-08 15:00 | 6.76 | 718 | 12600 (1927) | 168 (1966) | 1650 | 283 | 345 | 563 | 655 | 1270 | 2050 | 2240 | 3430 | 4120 |
| 2026-04-08 14:30 | 6.79 | 732 | 12600 (1927) | 168 (1966) | 1650 | 283 | 345 | 563 | 655 | 1270 | 2050 | 2240 | 3430 | 4120 |
| 2026-04-08 14:00 | 6.79 | 732 | 12600 (1927) | 168 (1966) | 1650 | 283 | 345 | 563 | 655 | 1270 | 2050 | 2240 | 3430 | 4120 |
| 2026-04-08 13:30 | 6.76 | 718 | 12600 (1927) | 168 (1966) | 1650 | 283 | 345 | 563 | 655 | 1270 | 2050 | 2240 | 3430 | 4120 |
| 2026-04-08 13:00 | 6.79 | 732 | 12600 (1927) | 168 (1966) | 1650 | 283 | 345 | 563 | 655 | 1270 | 2050 | 2240 | 3430 | 4120 |
| 2026-04-08 12:30 | 6.80 | 737 | 12600 (1927) | 168 (1966) | 1650 | 283 | 345 | 563 | 655 | 1270 | 2050 | 2240 | 3430 | 4120 |
| 2026-04-08 12:00 | 6.78 | 727 | 12600 (1927) | 168 (1966) | 1650 | 283 | 345 | 563 | 655 | 1270 | 2050 | 2240 | 3430 | 4120 |
| 2026-04-08 11:30 | 6.81 | 742 | 12600 (1927) | 168 (1966) | 1650 | 283 | 345 | 563 | 655 | 1270 | 2050 | 2240 | 3430 | 4120 |
| 2026-04-08 11:00 | 6.81 | 742 | 12600 (1927) | 168 (1966) | 1650 | 283 | 345 | 563 | 655 | 1270 | 2050 | 2240 | 3430 | 4120 |
| 2026-04-08 10:30 | 6.81 | 742 | 12600 (1927) | 168 (1966) | 1650 | 283 | 345 | 563 | 655 | 1270 | 2050 | 2240 | 3430 | 4120 |
| 2026-04-08 10:00 | 6.84 | 757 | 12600 (1927) | 168 (1966) | 1650 | 283 | 345 | 563 | 655 | 1270 | 2050 | 2240 | 3430 | 4120 |
| 2026-04-08 09:30 | 6.85 | 762 | 12600 (1927) | 168 (1966) | 1650 | 283 | 345 | 563 | 655 | 1270 | 2050 | 2240 | 3430 | 4120 |
| 2026-04-08 09:00 | 6.86 | 767 | 12600 (1927) | 168 (1966) | 1650 | 283 | 345 | 563 | 655 | 1270 | 2050 | 2240 | 3430 | 4120 |
| 2026-04-08 08:30 | 6.86 | 767 | 12600 (1927) | 168 (1966) | 1650 | 283 | 345 | 563 | 655 | 1270 | 2050 | 2240 | 3430 | 4120 |
| 2026-04-08 08:00 | 6.87 | 771 | 12600 (1927) | 168 (1966) | 1650 | 283 | 345 | 563 | 655 | 1270 | 2050 | 2240 | 3430 | 4120 |
| 2026-04-08 07:30 | 6.88 | 776 | 12600 (1927) | 168 (1966) | 1650 | 283 | 345 | 563 | 655 | 1270 | 2050 | 2240 | 3430 | 4120 |
| 2026-04-08 07:00 | 6.88 | 776 | 12600 (1927) | 168 (1966) | 1650 | 283 | 345 | 563 | 655 | 1270 | 2050 | 2240 | 3430 | 4120 |
| 2026-04-08 06:30 | 6.89 | 781 | 12600 (1927) | 168 (1966) | 1650 | 283 | 345 | 563 | 655 | 1270 | 2050 | 2240 | 3430 | 4120 |
| 2026-04-08 06:00 | 6.90 | 786 | 12600 (1927) | 168 (1966) | 1650 | 283 | 345 | 563 | 655 | 1270 | 2050 | 2240 | 3430 | 4120 |
| 2026-04-08 05:30 | 6.90 | 786 | 12600 (1927) | 168 (1966) | 1650 | 283 | 345 | 563 | 655 | 1270 | 2050 | 2240 | 3430 | 4120 |
| 2026-04-08 05:00 | 6.91 | 792 | 12600 (1927) | 168 (1966) | 1650 | 283 | 345 | 563 | 655 | 1270 | 2050 | 2240 | 3430 | 4120 |
| 2026-04-08 04:30 | 6.91 | 792 | 12600 (1927) | 168 (1966) | 1650 | 283 | 345 | 563 | 655 | 1270 | 2050 | 2240 | 3430 | 4120 |
| 2026-04-08 04:00 | 6.92 | 797 | 12600 (1927) | 168 (1966) | 1650 | 283 | 345 | 563 | 655 | 1270 | 2050 | 2240 | 3430 | 4120 |
| 2026-04-08 03:30 | 6.93 | 802 | 12600 (1927) | 168 (1966) | 1650 | 283 | 345 | 563 | 655 | 1270 | 2050 | 2240 | 3430 | 4120 |
| 2026-04-08 03:00 | 6.94 | 807 | 12600 (1927) | 168 (1966) | 1650 | 283 | 345 | 563 | 655 | 1270 | 2050 | 2240 | 3430 | 4120 |
| 2026-04-08 02:30 | 6.94 | 807 | 12600 (1927) | 168 (1966) | 1650 | 283 | 345 | 563 | 655 | 1270 | 2050 | 2240 | 3430 | 4120 |
| 2026-04-08 02:00 | 6.95 | 812 | 12600 (1927) | 168 (1966) | 1650 | 283 | 345 | 563 | 655 | 1270 | 2050 | 2240 | 3430 | 4120 |
| 2026-04-08 01:30 | 6.96 | 817 | 12600 (1927) | 168 (1966) | 1650 | 283 | 345 | 563 | 655 | 1270 | 2050 | 2240 | 3430 | 4120 |
| 2026-04-08 01:00 | 6.97 | 822 | 12600 (1927) | 168 (1966) | 1650 | 283 | 345 | 563 | 655 | 1270 | 2050 | 2240 | 3430 | 4120 |
| 2026-04-08 00:30 | 6.97 | 822 | 12600 (1927) | 168 (1966) | 1650 | 283 | 345 | 563 | 655 | 1270 | 2050 | 2240 | 3430 | 4120 |
| 2026-04-08 00:00 | 6.98 | 827 | 12600 (1927) | 168 (1966) | 1650 | 283 | 345 | 563 | 655 | 1270 | 2050 | 2240 | 3430 | 4120 |
| 2026-04-07 23:30 | 6.98 | 827 | 12600 (1927) | 168 (1966) | 1650 | 283 | 345 | 563 | 655 | 1270 | 2050 | 2240 | 3430 | 4120 |
| 2026-04-07 23:00 | 6.99 | 833 | 12600 (1927) | 168 (1966) | 1650 | 283 | 345 | 563 | 655 | 1270 | 2050 | 2240 | 3430 | 4120 |
| 2026-04-07 22:30 | 7.00 | 838 | 13200 (1928) | 172 (1966) | 1950 | 286 | 371 | 585 | 645 | 1180 | 2250 | 2480 | 3940 | 7440 |
| 2026-04-07 22:00 | 7.01 | 843 | 13200 (1928) | 172 (1966) | 1950 | 286 | 371 | 585 | 645 | 1180 | 2250 | 2480 | 3940 | 7440 |
| 2026-04-07 21:30 | 7.02 | 848 | 13200 (1928) | 172 (1966) | 1950 | 286 | 371 | 585 | 645 | 1180 | 2250 | 2480 | 3940 | 7440 |
| 2026-04-07 21:00 | 7.02 | 848 | 13200 (1928) | 172 (1966) | 1950 | 286 | 371 | 585 | 645 | 1180 | 2250 | 2480 | 3940 | 7440 |
| 2026-04-07 20:30 | 7.03 | 854 | 13200 (1928) | 172 (1966) | 1950 | 286 | 371 | 585 | 645 | 1180 | 2250 | 2480 | 3940 | 7440 |
| 2026-04-07 20:00 | 7.04 | 859 | 13200 (1928) | 172 (1966) | 1950 | 286 | 371 | 585 | 645 | 1180 | 2250 | 2480 | 3940 | 7440 |
| 2026-04-07 19:30 | 7.04 | 859 | 13200 (1928) | 172 (1966) | 1950 | 286 | 371 | 585 | 645 | 1180 | 2250 | 2480 | 3940 | 7440 |
| 2026-04-07 19:00 | 7.05 | 864 | 13200 (1928) | 172 (1966) | 1950 | 286 | 371 | 585 | 645 | 1180 | 2250 | 2480 | 3940 | 7440 |
| 2026-04-07 18:30 | 7.05 | 864 | 13200 (1928) | 172 (1966) | 1950 | 286 | 371 | 585 | 645 | 1180 | 2250 | 2480 | 3940 | 7440 |
| 2026-04-07 18:00 | 7.05 | 864 | 13200 (1928) | 172 (1966) | 1950 | 286 | 371 | 585 | 645 | 1180 | 2250 | 2480 | 3940 | 7440 |
| 2026-04-07 17:30 | 7.08 | 880 | 13200 (1928) | 172 (1966) | 1950 | 286 | 371 | 585 | 645 | 1180 | 2250 | 2480 | 3940 | 7440 |
| 2026-04-07 17:00 | 7.08 | 880 | 13200 (1928) | 172 (1966) | 1950 | 286 | 371 | 585 | 645 | 1180 | 2250 | 2480 | 3940 | 7440 |
| 2026-04-07 16:30 | 7.10 | 891 | 13200 (1928) | 172 (1966) | 1950 | 286 | 371 | 585 | 645 | 1180 | 2250 | 2480 | 3940 | 7440 |
| 2026-04-07 16:00 | 7.11 | 896 | 13200 (1928) | 172 (1966) | 1950 | 286 | 371 | 585 | 645 | 1180 | 2250 | 2480 | 3940 | 7440 |
| 2026-04-07 15:30 | 7.12 | 902 | 13200 (1928) | 172 (1966) | 1950 | 286 | 371 | 585 | 645 | 1180 | 2250 | 2480 | 3940 | 7440 |
| 2026-04-07 15:00 | 7.13 | 907 | 13200 (1928) | 172 (1966) | 1950 | 286 | 371 | 585 | 645 | 1180 | 2250 | 2480 | 3940 | 7440 |
| 2026-04-07 14:30 | 7.13 | 907 | 13200 (1928) | 172 (1966) | 1950 | 286 | 371 | 585 | 645 | 1180 | 2250 | 2480 | 3940 | 7440 |
| 2026-04-07 14:00 | 7.11 | 896 | 13200 (1928) | 172 (1966) | 1950 | 286 | 371 | 585 | 645 | 1180 | 2250 | 2480 | 3940 | 7440 |
| 2026-04-07 13:30 | 7.14 | 913 | 13200 (1928) | 172 (1966) | 1950 | 286 | 371 | 585 | 645 | 1180 | 2250 | 2480 | 3940 | 7440 |
| 2026-04-07 13:00 | 7.15 | 918 | 13200 (1928) | 172 (1966) | 1950 | 286 | 371 | 585 | 645 | 1180 | 2250 | 2480 | 3940 | 7440 |
| 2026-04-07 12:30 | 7.16 | 924 | 13200 (1928) | 172 (1966) | 1950 | 286 | 371 | 585 | 645 | 1180 | 2250 | 2480 | 3940 | 7440 |
| 2026-04-07 12:00 | 7.17 | 929 | 13200 (1928) | 172 (1966) | 1950 | 286 | 371 | 585 | 645 | 1180 | 2250 | 2480 | 3940 | 7440 |
| 2026-04-07 11:30 | 7.18 | 935 | 13200 (1928) | 172 (1966) | 1950 | 286 | 371 | 585 | 645 | 1180 | 2250 | 2480 | 3940 | 7440 |
| 2026-04-07 11:00 | 7.19 | 940 | 13200 (1928) | 172 (1966) | 1950 | 286 | 371 | 585 | 645 | 1180 | 2250 | 2480 | 3940 | 7440 |
| 2026-04-07 10:30 | 7.20 | 946 | 13200 (1928) | 172 (1966) | 1950 | 286 | 371 | 585 | 645 | 1180 | 2250 | 2480 | 3940 | 7440 |
| 2026-04-07 10:00 | 7.21 | 951 | 13200 (1928) | 172 (1966) | 1950 | 286 | 371 | 585 | 645 | 1180 | 2250 | 2480 | 3940 | 7440 |
| 2026-04-07 09:30 | 7.23 | 963 | 13200 (1928) | 172 (1966) | 1950 | 286 | 371 | 585 | 645 | 1180 | 2250 | 2480 | 3940 | 7440 |
| 2026-04-07 09:00 | 7.23 | 963 | 13200 (1928) | 172 (1966) | 1950 | 286 | 371 | 585 | 645 | 1180 | 2250 | 2480 | 3940 | 7440 |
| 2026-04-07 08:30 | 7.24 | 968 | 13200 (1928) | 172 (1966) | 1950 | 286 | 371 | 585 | 645 | 1180 | 2250 | 2480 | 3940 | 7440 |
| 2026-04-07 08:00 | 7.25 | 974 | 13200 (1928) | 172 (1966) | 1950 | 286 | 371 | 585 | 645 | 1180 | 2250 | 2480 | 3940 | 7440 |
| 2026-04-07 07:30 | 7.27 | 985 | 13200 (1928) | 172 (1966) | 1950 | 286 | 371 | 585 | 645 | 1180 | 2250 | 2480 | 3940 | 7440 |
| 2026-04-07 07:00 | 7.28 | 991 | 13200 (1928) | 172 (1966) | 1950 | 286 | 371 | 585 | 645 | 1180 | 2250 | 2480 | 3940 | 7440 |
| 2026-04-07 06:30 | 7.29 | 997 | 13200 (1928) | 172 (1966) | 1950 | 286 | 371 | 585 | 645 | 1180 | 2250 | 2480 | 3940 | 7440 |
| 2026-04-07 06:00 | 7.30 | 1000 | 13200 (1928) | 172 (1966) | 1950 | 286 | 371 | 585 | 645 | 1180 | 2250 | 2480 | 3940 | 7440 |
| 2026-04-07 05:30 | 7.31 | 1010 | 13200 (1928) | 172 (1966) | 1950 | 286 | 371 | 585 | 645 | 1180 | 2250 | 2480 | 3940 | 7440 |
| 2026-04-07 05:00 | 7.33 | 1020 | 13200 (1928) | 172 (1966) | 1950 | 286 | 371 | 585 | 645 | 1180 | 2250 | 2480 | 3940 | 7440 |
| 2026-04-07 04:30 | 7.34 | 1030 | 13200 (1928) | 172 (1966) | 1950 | 286 | 371 | 585 | 645 | 1180 | 2250 | 2480 | 3940 | 7440 |
| 2026-04-07 04:00 | 7.35 | 1030 | 13200 (1928) | 172 (1966) | 1950 | 286 | 371 | 585 | 645 | 1180 | 2250 | 2480 | 3940 | 7440 |
| 2026-04-07 03:30 | 7.36 | 1040 | 13200 (1928) | 172 (1966) | 1950 | 286 | 371 | 585 | 645 | 1180 | 2250 | 2480 | 3940 | 7440 |
| 2026-04-07 03:00 | 7.37 | 1040 | 13200 (1928) | 172 (1966) | 1950 | 286 | 371 | 585 | 645 | 1180 | 2250 | 2480 | 3940 | 7440 |
| 2026-04-07 02:30 | 7.38 | 1050 | 13200 (1928) | 172 (1966) | 1950 | 286 | 371 | 585 | 645 | 1180 | 2250 | 2480 | 3940 | 7440 |
| 2026-04-07 02:00 | 7.40 | 1060 | 13200 (1928) | 172 (1966) | 1950 | 286 | 371 | 585 | 645 | 1180 | 2250 | 2480 | 3940 | 7440 |
| 2026-04-07 01:30 | 7.41 | 1070 | 13200 (1928) | 172 (1966) | 1950 | 286 | 371 | 585 | 645 | 1180 | 2250 | 2480 | 3940 | 7440 |
| 2026-04-07 01:00 | 7.43 | 1080 | 13200 (1928) | 172 (1966) | 1950 | 286 | 371 | 585 | 645 | 1180 | 2250 | 2480 | 3940 | 7440 |
| 2026-04-07 00:30 | 7.43 | 1080 | 13200 (1928) | 172 (1966) | 1950 | 286 | 371 | 585 | 645 | 1180 | 2250 | 2480 | 3940 | 7440 |
| 2026-04-07 00:00 | 7.45 | 1090 | 13200 (1928) | 172 (1966) | 1950 | 286 | 371 | 585 | 645 | 1180 | 2250 | 2480 | 3940 | 7440 |
| 2026-04-06 23:30 | 7.46 | 1100 | 13200 (1928) | 172 (1966) | 1950 | 286 | 371 | 585 | 645 | 1180 | 2250 | 2480 | 3940 | 7440 |
| 2026-04-06 23:00 | 7.47 | 1100 | 13200 (1928) | 172 (1966) | 1950 | 286 | 371 | 585 | 645 | 1180 | 2250 | 2480 | 3940 | 7440 |
| 2026-04-06 22:30 | 7.49 | 1120 | 43800 (2025) | 182 (1966) | 2950 | 285 | 390 | 605 | 683 | 1240 | 2330 | 2930 | 5200 | 14200 |
| 2026-04-06 22:00 | 7.51 | 1130 | 43800 (2025) | 182 (1966) | 2950 | 285 | 390 | 605 | 683 | 1240 | 2330 | 2930 | 5200 | 14200 |
| 2026-04-06 21:30 | 7.52 | 1130 | 43800 (2025) | 182 (1966) | 2950 | 285 | 390 | 605 | 683 | 1240 | 2330 | 2930 | 5200 | 14200 |
| 2026-04-06 21:00 | 7.53 | 1140 | 43800 (2025) | 182 (1966) | 2950 | 285 | 390 | 605 | 683 | 1240 | 2330 | 2930 | 5200 | 14200 |
| 2026-04-06 20:30 | 7.55 | 1150 | 43800 (2025) | 182 (1966) | 2950 | 285 | 390 | 605 | 683 | 1240 | 2330 | 2930 | 5200 | 14200 |
| 2026-04-06 20:00 | 7.56 | 1160 | 43800 (2025) | 182 (1966) | 2950 | 285 | 390 | 605 | 683 | 1240 | 2330 | 2930 | 5200 | 14200 |
| 2026-04-06 19:30 | 7.58 | 1170 | 43800 (2025) | 182 (1966) | 2950 | 285 | 390 | 605 | 683 | 1240 | 2330 | 2930 | 5200 | 14200 |
| 2026-04-06 19:00 | 7.60 | 1180 | 43800 (2025) | 182 (1966) | 2950 | 285 | 390 | 605 | 683 | 1240 | 2330 | 2930 | 5200 | 14200 |
| 2026-04-06 18:30 | 7.61 | 1190 | 43800 (2025) | 182 (1966) | 2950 | 285 | 390 | 605 | 683 | 1240 | 2330 | 2930 | 5200 | 14200 |
| 2026-04-06 18:00 | 7.63 | 1200 | 43800 (2025) | 182 (1966) | 2950 | 285 | 390 | 605 | 683 | 1240 | 2330 | 2930 | 5200 | 14200 |
| 2026-04-06 17:30 | 7.65 | 1220 | 43800 (2025) | 182 (1966) | 2950 | 285 | 390 | 605 | 683 | 1240 | 2330 | 2930 | 5200 | 14200 |
| 2026-04-06 17:00 | 7.67 | 1230 | 43800 (2025) | 182 (1966) | 2950 | 285 | 390 | 605 | 683 | 1240 | 2330 | 2930 | 5200 | 14200 |
| 2026-04-06 16:30 | 7.69 | 1240 | 43800 (2025) | 182 (1966) | 2950 | 285 | 390 | 605 | 683 | 1240 | 2330 | 2930 | 5200 | 14200 |
| 2026-04-06 16:00 | 7.70 | 1250 | 43800 (2025) | 182 (1966) | 2950 | 285 | 390 | 605 | 683 | 1240 | 2330 | 2930 | 5200 | 14200 |
| 2026-04-06 15:30 | 7.72 | 1260 | 43800 (2025) | 182 (1966) | 2950 | 285 | 390 | 605 | 683 | 1240 | 2330 | 2930 | 5200 | 14200 |
| 2026-04-06 15:00 | 7.74 | 1280 | 43800 (2025) | 182 (1966) | 2950 | 285 | 390 | 605 | 683 | 1240 | 2330 | 2930 | 5200 | 14200 |
| 2026-04-06 14:30 | 7.75 | 1280 | 43800 (2025) | 182 (1966) | 2950 | 285 | 390 | 605 | 683 | 1240 | 2330 | 2930 | 5200 | 14200 |
| 2026-04-06 14:00 | 7.77 | 1300 | 43800 (2025) | 182 (1966) | 2950 | 285 | 390 | 605 | 683 | 1240 | 2330 | 2930 | 5200 | 14200 |
| 2026-04-06 13:30 | 7.79 | 1310 | 43800 (2025) | 182 (1966) | 2950 | 285 | 390 | 605 | 683 | 1240 | 2330 | 2930 | 5200 | 14200 |
| 2026-04-06 13:00 | 7.81 | 1320 | 43800 (2025) | 182 (1966) | 2950 | 285 | 390 | 605 | 683 | 1240 | 2330 | 2930 | 5200 | 14200 |
| 2026-04-06 12:30 | 7.83 | 1340 | 43800 (2025) | 182 (1966) | 2950 | 285 | 390 | 605 | 683 | 1240 | 2330 | 2930 | 5200 | 14200 |
| 2026-04-06 12:00 | 7.84 | 1340 | 43800 (2025) | 182 (1966) | 2950 | 285 | 390 | 605 | 683 | 1240 | 2330 | 2930 | 5200 | 14200 |
| 2026-04-06 11:30 | 7.87 | 1370 | 43800 (2025) | 182 (1966) | 2950 | 285 | 390 | 605 | 683 | 1240 | 2330 | 2930 | 5200 | 14200 |
| 2026-04-06 11:00 | 7.88 | 1370 | 43800 (2025) | 182 (1966) | 2950 | 285 | 390 | 605 | 683 | 1240 | 2330 | 2930 | 5200 | 14200 |
| 2026-04-06 10:30 | 7.90 | 1390 | 43800 (2025) | 182 (1966) | 2950 | 285 | 390 | 605 | 683 | 1240 | 2330 | 2930 | 5200 | 14200 |
| 2026-04-06 10:00 | 7.92 | 1410 | 43800 (2025) | 182 (1966) | 2950 | 285 | 390 | 605 | 683 | 1240 | 2330 | 2930 | 5200 | 14200 |
| 2026-04-06 09:30 | 7.95 | 1430 | 43800 (2025) | 182 (1966) | 2950 | 285 | 390 | 605 | 683 | 1240 | 2330 | 2930 | 5200 | 14200 |
| 2026-04-06 09:00 | 7.97 | 1450 | 43800 (2025) | 182 (1966) | 2950 | 285 | 390 | 605 | 683 | 1240 | 2330 | 2930 | 5200 | 14200 |
| 2026-04-06 08:30 | 7.99 | 1470 | 43800 (2025) | 182 (1966) | 2950 | 285 | 390 | 605 | 683 | 1240 | 2330 | 2930 | 5200 | 14200 |
| 2026-04-06 08:00 | 8.02 | 1490 | 43800 (2025) | 182 (1966) | 2950 | 285 | 390 | 605 | 683 | 1240 | 2330 | 2930 | 5200 | 14200 |
| 2026-04-06 07:30 | 8.03 | 1500 | 43800 (2025) | 182 (1966) | 2950 | 285 | 390 | 605 | 683 | 1240 | 2330 | 2930 | 5200 | 14200 |
| 2026-04-06 07:00 | 8.07 | 1530 | 43800 (2025) | 182 (1966) | 2950 | 285 | 390 | 605 | 683 | 1240 | 2330 | 2930 | 5200 | 14200 |
| 2026-04-06 06:30 | 8.08 | 1540 | 43800 (2025) | 182 (1966) | 2950 | 285 | 390 | 605 | 683 | 1240 | 2330 | 2930 | 5200 | 14200 |
| 2026-04-06 06:00 | 8.11 | 1570 | 43800 (2025) | 182 (1966) | 2950 | 285 | 390 | 605 | 683 | 1240 | 2330 | 2930 | 5200 | 14200 |
| 2026-04-06 05:30 | 8.13 | 1590 | 43800 (2025) | 182 (1966) | 2950 | 285 | 390 | 605 | 683 | 1240 | 2330 | 2930 | 5200 | 14200 |
| 2026-04-06 05:00 | 8.16 | 1610 | 43800 (2025) | 182 (1966) | 2950 | 285 | 390 | 605 | 683 | 1240 | 2330 | 2930 | 5200 | 14200 |
| 2026-04-06 04:30 | 8.18 | 1630 | 43800 (2025) | 182 (1966) | 2950 | 285 | 390 | 605 | 683 | 1240 | 2330 | 2930 | 5200 | 14200 |
| 2026-04-06 04:00 | 8.21 | 1660 | 43800 (2025) | 182 (1966) | 2950 | 285 | 390 | 605 | 683 | 1240 | 2330 | 2930 | 5200 | 14200 |
| 2026-04-06 03:30 | 8.25 | 1690 | 43800 (2025) | 182 (1966) | 2950 | 285 | 390 | 605 | 683 | 1240 | 2330 | 2930 | 5200 | 14200 |
| 2026-04-06 03:00 | 8.27 | 1710 | 43800 (2025) | 182 (1966) | 2950 | 285 | 390 | 605 | 683 | 1240 | 2330 | 2930 | 5200 | 14200 |
| 2026-04-06 02:30 | 8.29 | 1730 | 43800 (2025) | 182 (1966) | 2950 | 285 | 390 | 605 | 683 | 1240 | 2330 | 2930 | 5200 | 14200 |
| 2026-04-06 02:00 | 8.32 | 1760 | 43800 (2025) | 182 (1966) | 2950 | 285 | 390 | 605 | 683 | 1240 | 2330 | 2930 | 5200 | 14200 |
| 2026-04-06 01:30 | 8.35 | 1790 | 43800 (2025) | 182 (1966) | 2950 | 285 | 390 | 605 | 683 | 1240 | 2330 | 2930 | 5200 | 14200 |
| 2026-04-06 01:00 | 8.39 | 1830 | 43800 (2025) | 182 (1966) | 2950 | 285 | 390 | 605 | 683 | 1240 | 2330 | 2930 | 5200 | 14200 |
| 2026-04-06 00:30 | 8.43 | 1860 | 43800 (2025) | 182 (1966) | 2950 | 285 | 390 | 605 | 683 | 1240 | 2330 | 2930 | 5200 | 14200 |
| 2026-04-06 00:00 | 8.46 | 1890 | 43800 (2025) | 182 (1966) | 2950 | 285 | 390 | 605 | 683 | 1240 | 2330 | 2930 | 5200 | 14200 |
| 2026-04-05 23:30 | 8.49 | 1920 | 43800 (2025) | 182 (1966) | 2950 | 285 | 390 | 605 | 683 | 1240 | 2330 | 2930 | 5200 | 14200 |
| 2026-04-05 23:00 | 8.52 | 1950 | 43800 (2025) | 182 (1966) | 2950 | 285 | 390 | 605 | 683 | 1240 | 2330 | 2930 | 5200 | 14200 |
| 2026-04-05 22:30 | 8.56 | 1990 | 54200 (2025) | 191 (1966) | 2880 | 297 | 422 | 629 | 678 | 1280 | 2550 | 3300 | 6250 | 10500 |
| 2026-04-05 22:00 | 8.59 | 2020 | 54200 (2025) | 191 (1966) | 2880 | 297 | 422 | 629 | 678 | 1280 | 2550 | 3300 | 6250 | 10500 |
| 2026-04-05 21:30 | 8.63 | 2060 | 54200 (2025) | 191 (1966) | 2880 | 297 | 422 | 629 | 678 | 1280 | 2550 | 3300 | 6250 | 10500 |
| 2026-04-05 21:00 | 8.67 | 2110 | 54200 (2025) | 191 (1966) | 2880 | 297 | 422 | 629 | 678 | 1280 | 2550 | 3300 | 6250 | 10500 |
| 2026-04-05 20:30 | 8.70 | 2140 | 54200 (2025) | 191 (1966) | 2880 | 297 | 422 | 629 | 678 | 1280 | 2550 | 3300 | 6250 | 10500 |
| 2026-04-05 20:00 | 8.73 | 2170 | 54200 (2025) | 191 (1966) | 2880 | 297 | 422 | 629 | 678 | 1280 | 2550 | 3300 | 6250 | 10500 |
| 2026-04-05 19:30 | 8.78 | 2220 | 54200 (2025) | 191 (1966) | 2880 | 297 | 422 | 629 | 678 | 1280 | 2550 | 3300 | 6250 | 10500 |
| 2026-04-05 19:00 | 8.82 | 2260 | 54200 (2025) | 191 (1966) | 2880 | 297 | 422 | 629 | 678 | 1280 | 2550 | 3300 | 6250 | 10500 |
| 2026-04-05 18:30 | 8.87 | 2320 | 54200 (2025) | 191 (1966) | 2880 | 297 | 422 | 629 | 678 | 1280 | 2550 | 3300 | 6250 | 10500 |
| 2026-04-05 18:00 | 8.89 | 2340 | 54200 (2025) | 191 (1966) | 2880 | 297 | 422 | 629 | 678 | 1280 | 2550 | 3300 | 6250 | 10500 |
| 2026-04-05 17:30 | 8.93 | 2390 | 54200 (2025) | 191 (1966) | 2880 | 297 | 422 | 629 | 678 | 1280 | 2550 | 3300 | 6250 | 10500 |
| 2026-04-05 17:00 | 8.99 | 2450 | 54200 (2025) | 191 (1966) | 2880 | 297 | 422 | 629 | 678 | 1280 | 2550 | 3300 | 6250 | 10500 |
| 2026-04-05 16:30 | 9.03 | 2500 | 54200 (2025) | 191 (1966) | 2880 | 297 | 422 | 629 | 678 | 1280 | 2550 | 3300 | 6250 | 10500 |
| 2026-04-05 16:00 | 9.06 | 2530 | 54200 (2025) | 191 (1966) | 2880 | 297 | 422 | 629 | 678 | 1280 | 2550 | 3300 | 6250 | 10500 |
| 2026-04-05 15:30 | 9.09 | 2570 | 54200 (2025) | 191 (1966) | 2880 | 297 | 422 | 629 | 678 | 1280 | 2550 | 3300 | 6250 | 10500 |
| 2026-04-05 15:00 | 9.14 | 2630 | 54200 (2025) | 191 (1966) | 2880 | 297 | 422 | 629 | 678 | 1280 | 2550 | 3300 | 6250 | 10500 |
| 2026-04-05 14:30 | 9.16 | 2650 | 54200 (2025) | 191 (1966) | 2880 | 297 | 422 | 629 | 678 | 1280 | 2550 | 3300 | 6250 | 10500 |
| 2026-04-05 14:00 | 9.21 | 2710 | 54200 (2025) | 191 (1966) | 2880 | 297 | 422 | 629 | 678 | 1280 | 2550 | 3300 | 6250 | 10500 |
| 2026-04-05 13:30 | 9.24 | 2740 | 54200 (2025) | 191 (1966) | 2880 | 297 | 422 | 629 | 678 | 1280 | 2550 | 3300 | 6250 | 10500 |
| 2026-04-05 13:00 | 9.27 | 2780 | 54200 (2025) | 191 (1966) | 2880 | 297 | 422 | 629 | 678 | 1280 | 2550 | 3300 | 6250 | 10500 |
| 2026-04-05 12:30 | 9.29 | 2800 | 54200 (2025) | 191 (1966) | 2880 | 297 | 422 | 629 | 678 | 1280 | 2550 | 3300 | 6250 | 10500 |
| 2026-04-05 12:00 | 9.32 | 2830 | 54200 (2025) | 191 (1966) | 2880 | 297 | 422 | 629 | 678 | 1280 | 2550 | 3300 | 6250 | 10500 |
| 2026-04-05 11:30 | 9.33 | 2840 | 54200 (2025) | 191 (1966) | 2880 | 297 | 422 | 629 | 678 | 1280 | 2550 | 3300 | 6250 | 10500 |
| 2026-04-05 11:00 | 9.36 | 2880 | 54200 (2025) | 191 (1966) | 2880 | 297 | 422 | 629 | 678 | 1280 | 2550 | 3300 | 6250 | 10500 |
| 2026-04-05 10:30 | 9.38 | 2900 | 54200 (2025) | 191 (1966) | 2880 | 297 | 422 | 629 | 678 | 1280 | 2550 | 3300 | 6250 | 10500 |
| 2026-04-05 10:00 | 9.40 | 2920 | 54200 (2025) | 191 (1966) | 2880 | 297 | 422 | 629 | 678 | 1280 | 2550 | 3300 | 6250 | 10500 |
| 2026-04-05 09:30 | 9.41 | 2940 | 54200 (2025) | 191 (1966) | 2880 | 297 | 422 | 629 | 678 | 1280 | 2550 | 3300 | 6250 | 10500 |
| 2026-04-05 09:00 | 9.44 | 2970 | 54200 (2025) | 191 (1966) | 2880 | 297 | 422 | 629 | 678 | 1280 | 2550 | 3300 | 6250 | 10500 |
| 2026-04-05 08:30 | 9.43 | 2960 | 54200 (2025) | 191 (1966) | 2880 | 297 | 422 | 629 | 678 | 1280 | 2550 | 3300 | 6250 | 10500 |
| 2026-04-05 08:00 | 9.44 | 2970 | 54200 (2025) | 191 (1966) | 2880 | 297 | 422 | 629 | 678 | 1280 | 2550 | 3300 | 6250 | 10500 |
| 2026-04-05 07:30 | 9.46 | 2990 | 54200 (2025) | 191 (1966) | 2880 | 297 | 422 | 629 | 678 | 1280 | 2550 | 3300 | 6250 | 10500 |
| 2026-04-05 07:00 | 9.46 | 2990 | 54200 (2025) | 191 (1966) | 2880 | 297 | 422 | 629 | 678 | 1280 | 2550 | 3300 | 6250 | 10500 |
| 2026-04-05 06:30 | 9.45 | 2980 | 54200 (2025) | 191 (1966) | 2880 | 297 | 422 | 629 | 678 | 1280 | 2550 | 3300 | 6250 | 10500 |
| 2026-04-05 06:00 | 9.46 | 54200 (2025) | 191 (1966) | 2880 | 297 | 422 | 629 | 678 | 1280 | 2550 | 3300 | 6250 | 10500 | |
| 2026-04-05 05:30 | 2980 | 54200 (2025) | 191 (1966) | 2880 | 297 | 422 | 629 | 678 | 1280 | 2550 | 3300 | 6250 | 10500 | |
| 2026-04-05 04:30 | 9.36 | 2880 | 54200 (2025) | 191 (1966) | 2880 | 297 | 422 | 629 | 678 | 1280 | 2550 | 3300 | 6250 | 10500 |
| 2026-04-05 04:00 | 9.31 | 2820 | 54200 (2025) | 191 (1966) | 2880 | 297 | 422 | 629 | 678 | 1280 | 2550 | 3300 | 6250 | 10500 |
| 2026-04-05 03:00 | 9.12 | 2600 | 54200 (2025) | 191 (1966) | 2880 | 297 | 422 | 629 | 678 | 1280 | 2550 | 3300 | 6250 | 10500 |
| 2026-04-05 02:30 | 8.98 | 2440 | 54200 (2025) | 191 (1966) | 2880 | 297 | 422 | 629 | 678 | 1280 | 2550 | 3300 | 6250 | 10500 |
| 2026-04-05 02:00 | 8.86 | 54200 (2025) | 191 (1966) | 2880 | 297 | 422 | 629 | 678 | 1280 | 2550 | 3300 | 6250 | 10500 | |
| 2026-04-05 01:30 | 2140 | 54200 (2025) | 191 (1966) | 2880 | 297 | 422 | 629 | 678 | 1280 | 2550 | 3300 | 6250 | 10500 | |
| 2026-04-05 01:00 | 8.56 | 1990 | 54200 (2025) | 191 (1966) | 2880 | 297 | 422 | 629 | 678 | 1280 | 2550 | 3300 | 6250 | 10500 |
| 2026-04-05 00:30 | 8.42 | 1850 | 54200 (2025) | 191 (1966) | 2880 | 297 | 422 | 629 | 678 | 1280 | 2550 | 3300 | 6250 | 10500 |
| 2026-04-05 00:00 | 8.29 | 1730 | 54200 (2025) | 191 (1966) | 2880 | 297 | 422 | 629 | 678 | 1280 | 2550 | 3300 | 6250 | 10500 |
| 2026-04-04 23:30 | 8.19 | 1640 | 54200 (2025) | 191 (1966) | 2880 | 297 | 422 | 629 | 678 | 1280 | 2550 | 3300 | 6250 | 10500 |
| 2026-04-04 23:00 | 8.07 | 1530 | 54200 (2025) | 191 (1966) | 2880 | 297 | 422 | 629 | 678 | 1280 | 2550 | 3300 | 6250 | 10500 |
| 2026-04-04 22:30 | 7.91 | 1400 | 63800 (1999) | 204 (1966) | 3150 | 293 | 401 | 612 | 690 | 1210 | 2220 | 2750 | 6130 | 10400 |
| 2026-04-04 22:00 | 7.70 | 1250 | 63800 (1999) | 204 (1966) | 3150 | 293 | 401 | 612 | 690 | 1210 | 2220 | 2750 | 6130 | 10400 |
| 2026-04-04 21:30 | 7.45 | 1090 | 63800 (1999) | 204 (1966) | 3150 | 293 | 401 | 612 | 690 | 1210 | 2220 | 2750 | 6130 | 10400 |
| 2026-04-04 21:00 | 7.09 | 885 | 63800 (1999) | 204 (1966) | 3150 | 293 | 401 | 612 | 690 | 1210 | 2220 | 2750 | 6130 | 10400 |
| 2026-04-04 20:30 | 6.69 | 685 | 63800 (1999) | 204 (1966) | 3150 | 293 | 401 | 612 | 690 | 1210 | 2220 | 2750 | 6130 | 10400 |
| 2026-04-04 20:00 | 6.37 | 545 | 63800 (1999) | 204 (1966) | 3150 | 293 | 401 | 612 | 690 | 1210 | 2220 | 2750 | 6130 | 10400 |
| 2026-04-04 19:30 | 6.20 | 478 | 63800 (1999) | 204 (1966) | 3150 | 293 | 401 | 612 | 690 | 1210 | 2220 | 2750 | 6130 | 10400 |
| 2026-04-04 19:00 | 6.14 | 455 | 63800 (1999) | 204 (1966) | 3150 | 293 | 401 | 612 | 690 | 1210 | 2220 | 2750 | 6130 | 10400 |
| 2026-04-04 18:30 | 6.11 | 444 | 63800 (1999) | 204 (1966) | 3150 | 293 | 401 | 612 | 690 | 1210 | 2220 | 2750 | 6130 | 10400 |
| 2026-04-04 18:00 | 6.06 | 426 | 63800 (1999) | 204 (1966) | 3150 | 293 | 401 | 612 | 690 | 1210 | 2220 | 2750 | 6130 | 10400 |
| 2026-04-04 17:30 | 6.06 | 426 | 63800 (1999) | 204 (1966) | 3150 | 293 | 401 | 612 | 690 | 1210 | 2220 | 2750 | 6130 | 10400 |
| 2026-04-04 17:00 | 6.05 | 423 | 63800 (1999) | 204 (1966) | 3150 | 293 | 401 | 612 | 690 | 1210 | 2220 | 2750 | 6130 | 10400 |
| 2026-04-04 16:30 | 6.02 | 412 | 63800 (1999) | 204 (1966) | 3150 | 293 | 401 | 612 | 690 | 1210 | 2220 | 2750 | 6130 | 10400 |
| 2026-04-04 16:00 | 6.00 | 405 | 63800 (1999) | 204 (1966) | 3150 | 293 | 401 | 612 | 690 | 1210 | 2220 | 2750 | 6130 | 10400 |
| 2026-04-04 15:30 | 6.03 | 416 | 63800 (1999) | 204 (1966) | 3150 | 293 | 401 | 612 | 690 | 1210 | 2220 | 2750 | 6130 | 10400 |
| 2026-04-04 15:00 | 6.02 | 412 | 63800 (1999) | 204 (1966) | 3150 | 293 | 401 | 612 | 690 | 1210 | 2220 | 2750 | 6130 | 10400 |
| 2026-04-04 14:30 | 6.01 | 409 | 63800 (1999) | 204 (1966) | 3150 | 293 | 401 | 612 | 690 | 1210 | 2220 | 2750 | 6130 | 10400 |
| 2026-04-04 14:00 | 5.97 | 395 | 63800 (1999) | 204 (1966) | 3150 | 293 | 401 | 612 | 690 | 1210 | 2220 | 2750 | 6130 | 10400 |
| 2026-04-04 13:30 | 5.97 | 395 | 63800 (1999) | 204 (1966) | 3150 | 293 | 401 | 612 | 690 | 1210 | 2220 | 2750 | 6130 | 10400 |
| 2026-04-04 13:00 | 5.94 | 385 | 63800 (1999) | 204 (1966) | 3150 | 293 | 401 | 612 | 690 | 1210 | 2220 | 2750 | 6130 | 10400 |
| 2026-04-04 12:30 | 5.86 | 358 | 63800 (1999) | 204 (1966) | 3150 | 293 | 401 | 612 | 690 | 1210 | 2220 | 2750 | 6130 | 10400 |
| 2026-04-04 12:00 | 5.88 | 365 | 63800 (1999) | 204 (1966) | 3150 | 293 | 401 | 612 | 690 | 1210 | 2220 | 2750 | 6130 | 10400 |
| 2026-04-04 11:30 | 5.85 | 355 | 63800 (1999) | 204 (1966) | 3150 | 293 | 401 | 612 | 690 | 1210 | 2220 | 2750 | 6130 | 10400 |
| 2026-04-04 11:00 | 5.84 | 352 | 63800 (1999) | 204 (1966) | 3150 | 293 | 401 | 612 | 690 | 1210 | 2220 | 2750 | 6130 | 10400 |
| 2026-04-04 10:30 | 5.82 | 346 | 63800 (1999) | 204 (1966) | 3150 | 293 | 401 | 612 | 690 | 1210 | 2220 | 2750 | 6130 | 10400 |
| 2026-04-04 10:00 | 5.80 | 339 | 63800 (1999) | 204 (1966) | 3150 | 293 | 401 | 612 | 690 | 1210 | 2220 | 2750 | 6130 | 10400 |
| 2026-04-04 09:30 | 5.79 | 336 | 63800 (1999) | 204 (1966) | 3150 | 293 | 401 | 612 | 690 | 1210 | 2220 | 2750 | 6130 | 10400 |
| 2026-04-04 09:00 | 5.74 | 321 | 63800 (1999) | 204 (1966) | 3150 | 293 | 401 | 612 | 690 | 1210 | 2220 | 2750 | 6130 | 10400 |
| 2026-04-04 08:30 | 5.71 | 312 | 63800 (1999) | 204 (1966) | 3150 | 293 | 401 | 612 | 690 | 1210 | 2220 | 2750 | 6130 | 10400 |
| 2026-04-04 08:00 | 5.74 | 321 | 63800 (1999) | 204 (1966) | 3150 | 293 | 401 | 612 | 690 | 1210 | 2220 | 2750 | 6130 | 10400 |
| 2026-04-04 07:30 | 5.73 | 318 | 63800 (1999) | 204 (1966) | 3150 | 293 | 401 | 612 | 690 | 1210 | 2220 | 2750 | 6130 | 10400 |
| 2026-04-04 07:00 | 5.73 | 318 | 63800 (1999) | 204 (1966) | 3150 | 293 | 401 | 612 | 690 | 1210 | 2220 | 2750 | 6130 | 10400 |
| 2026-04-04 06:30 | 5.67 | 300 | 63800 (1999) | 204 (1966) | 3150 | 293 | 401 | 612 | 690 | 1210 | 2220 | 2750 | 6130 | 10400 |
| 2026-04-04 06:00 | 5.67 | 300 | 63800 (1999) | 204 (1966) | 3150 | 293 | 401 | 612 | 690 | 1210 | 2220 | 2750 | 6130 | 10400 |
| 2026-04-04 05:30 | 5.66 | 297 | 63800 (1999) | 204 (1966) | 3150 | 293 | 401 | 612 | 690 | 1210 | 2220 | 2750 | 6130 | 10400 |
| 2026-04-04 05:00 | 5.67 | 300 | 63800 (1999) | 204 (1966) | 3150 | 293 | 401 | 612 | 690 | 1210 | 2220 | 2750 | 6130 | 10400 |
| 2026-04-04 04:30 | 5.66 | 297 | 63800 (1999) | 204 (1966) | 3150 | 293 | 401 | 612 | 690 | 1210 | 2220 | 2750 | 6130 | 10400 |
| 2026-04-04 04:00 | 5.65 | 294 | 63800 (1999) | 204 (1966) | 3150 | 293 | 401 | 612 | 690 | 1210 | 2220 | 2750 | 6130 | 10400 |
| 2026-04-04 03:30 | 5.62 | 286 | 63800 (1999) | 204 (1966) | 3150 | 293 | 401 | 612 | 690 | 1210 | 2220 | 2750 | 6130 | 10400 |
| 2026-04-04 03:00 | 5.62 | 286 | 63800 (1999) | 204 (1966) | 3150 | 293 | 401 | 612 | 690 | 1210 | 2220 | 2750 | 6130 | 10400 |
| 2026-04-04 02:30 | 5.63 | 289 | 63800 (1999) | 204 (1966) | 3150 | 293 | 401 | 612 | 690 | 1210 | 2220 | 2750 | 6130 | 10400 |
| 2026-04-04 02:00 | 5.63 | 289 | 63800 (1999) | 204 (1966) | 3150 | 293 | 401 | 612 | 690 | 1210 | 2220 | 2750 | 6130 | 10400 |
| 2026-04-04 01:30 | 5.61 | 283 | 63800 (1999) | 204 (1966) | 3150 | 293 | 401 | 612 | 690 | 1210 | 2220 | 2750 | 6130 | 10400 |
| 2026-04-04 01:00 | 5.61 | 283 | 63800 (1999) | 204 (1966) | 3150 | 293 | 401 | 612 | 690 | 1210 | 2220 | 2750 | 6130 | 10400 |
| 2026-04-04 00:30 | 5.59 | 277 | 63800 (1999) | 204 (1966) | 3150 | 293 | 401 | 612 | 690 | 1210 | 2220 | 2750 | 6130 | 10400 |
| 2026-04-04 00:00 | 5.61 | 283 | 63800 (1999) | 204 (1966) | 3150 | 293 | 401 | 612 | 690 | 1210 | 2220 | 2750 | 6130 | 10400 |
| 2026-04-03 23:30 | 5.61 | 283 | 63800 (1999) | 204 (1966) | 3150 | 293 | 401 | 612 | 690 | 1210 | 2220 | 2750 | 6130 | 10400 |
| 2026-04-03 23:00 | 5.61 | 283 | 63800 (1999) | 204 (1966) | 3150 | 293 | 401 | 612 | 690 | 1210 | 2220 | 2750 | 6130 | 10400 |
| 2026-04-03 22:30 | 5.61 | 283 | 16900 (1950) | 220 (1966) | 2040 | 297 | 381 | 591 | 678 | 1210 | 2250 | 2440 | 3810 | 7650 |
| 2026-04-03 22:00 | 5.62 | 286 | 16900 (1950) | 220 (1966) | 2040 | 297 | 381 | 591 | 678 | 1210 | 2250 | 2440 | 3810 | 7650 |
| 2026-04-03 21:30 | 5.62 | 286 | 16900 (1950) | 220 (1966) | 2040 | 297 | 381 | 591 | 678 | 1210 | 2250 | 2440 | 3810 | 7650 |
| 2026-04-03 21:00 | 5.62 | 286 | 16900 (1950) | 220 (1966) | 2040 | 297 | 381 | 591 | 678 | 1210 | 2250 | 2440 | 3810 | 7650 |
| 2026-04-03 20:30 | 5.62 | 286 | 16900 (1950) | 220 (1966) | 2040 | 297 | 381 | 591 | 678 | 1210 | 2250 | 2440 | 3810 | 7650 |
| 2026-04-03 20:00 | 5.62 | 286 | 16900 (1950) | 220 (1966) | 2040 | 297 | 381 | 591 | 678 | 1210 | 2250 | 2440 | 3810 | 7650 |
| 2026-04-03 19:30 | 5.62 | 286 | 16900 (1950) | 220 (1966) | 2040 | 297 | 381 | 591 | 678 | 1210 | 2250 | 2440 | 3810 | 7650 |
| 2026-04-03 19:00 | 5.62 | 286 | 16900 (1950) | 220 (1966) | 2040 | 297 | 381 | 591 | 678 | 1210 | 2250 | 2440 | 3810 | 7650 |
| 2026-04-03 18:30 | 5.60 | 280 | 16900 (1950) | 220 (1966) | 2040 | 297 | 381 | 591 | 678 | 1210 | 2250 | 2440 | 3810 | 7650 |
| 2026-04-03 18:00 | 5.59 | 277 | 16900 (1950) | 220 (1966) | 2040 | 297 | 381 | 591 | 678 | 1210 | 2250 | 2440 | 3810 | 7650 |
| 2026-04-03 17:30 | 5.58 | 275 | 16900 (1950) | 220 (1966) | 2040 | 297 | 381 | 591 | 678 | 1210 | 2250 | 2440 | 3810 | 7650 |
| 2026-04-03 17:00 | 5.60 | 280 | 16900 (1950) | 220 (1966) | 2040 | 297 | 381 | 591 | 678 | 1210 | 2250 | 2440 | 3810 | 7650 |
| 2026-04-03 16:30 | 5.59 | 277 | 16900 (1950) | 220 (1966) | 2040 | 297 | 381 | 591 | 678 | 1210 | 2250 | 2440 | 3810 | 7650 |
| 2026-04-03 16:00 | 5.60 | 280 | 16900 (1950) | 220 (1966) | 2040 | 297 | 381 | 591 | 678 | 1210 | 2250 | 2440 | 3810 | 7650 |
| 2026-04-03 15:30 | 5.61 | 283 | 16900 (1950) | 220 (1966) | 2040 | 297 | 381 | 591 | 678 | 1210 | 2250 | 2440 | 3810 | 7650 |
| 2026-04-03 15:00 | 5.57 | 272 | 16900 (1950) | 220 (1966) | 2040 | 297 | 381 | 591 | 678 | 1210 | 2250 | 2440 | 3810 | 7650 |
| 2026-04-03 14:30 | 5.62 | 286 | 16900 (1950) | 220 (1966) | 2040 | 297 | 381 | 591 | 678 | 1210 | 2250 | 2440 | 3810 | 7650 |
| 2026-04-03 14:00 | 5.59 | 277 | 16900 (1950) | 220 (1966) | 2040 | 297 | 381 | 591 | 678 | 1210 | 2250 | 2440 | 3810 | 7650 |
| 2026-04-03 13:30 | 5.60 | 280 | 16900 (1950) | 220 (1966) | 2040 | 297 | 381 | 591 | 678 | 1210 | 2250 | 2440 | 3810 | 7650 |
| 2026-04-03 13:00 | 5.59 | 277 | 16900 (1950) | 220 (1966) | 2040 | 297 | 381 | 591 | 678 | 1210 | 2250 | 2440 | 3810 | 7650 |
| 2026-04-03 12:30 | 5.61 | 283 | 16900 (1950) | 220 (1966) | 2040 | 297 | 381 | 591 | 678 | 1210 | 2250 | 2440 | 3810 | 7650 |
| 2026-04-03 12:00 | 5.59 | 277 | 16900 (1950) | 220 (1966) | 2040 | 297 | 381 | 591 | 678 | 1210 | 2250 | 2440 | 3810 | 7650 |
| 2026-04-03 11:30 | 5.64 | 291 | 16900 (1950) | 220 (1966) | 2040 | 297 | 381 | 591 | 678 | 1210 | 2250 | 2440 | 3810 | 7650 |
| 2026-04-03 11:00 | 5.60 | 280 | 16900 (1950) | 220 (1966) | 2040 | 297 | 381 | 591 | 678 | 1210 | 2250 | 2440 | 3810 | 7650 |
| 2026-04-03 10:30 | 5.63 | 289 | 16900 (1950) | 220 (1966) | 2040 | 297 | 381 | 591 | 678 | 1210 | 2250 | 2440 | 3810 | 7650 |
| 2026-04-03 10:00 | 5.59 | 277 | 16900 (1950) | 220 (1966) | 2040 | 297 | 381 | 591 | 678 | 1210 | 2250 | 2440 | 3810 | 7650 |
| 2026-04-03 09:30 | 5.63 | 289 | 16900 (1950) | 220 (1966) | 2040 | 297 | 381 | 591 | 678 | 1210 | 2250 | 2440 | 3810 | 7650 |
| 2026-04-03 09:00 | 5.64 | 291 | 16900 (1950) | 220 (1966) | 2040 | 297 | 381 | 591 | 678 | 1210 | 2250 | 2440 | 3810 | 7650 |
| 2026-04-03 08:30 | 5.64 | 291 | 16900 (1950) | 220 (1966) | 2040 | 297 | 381 | 591 | 678 | 1210 | 2250 | 2440 | 3810 | 7650 |
| 2026-04-03 08:00 | 5.64 | 291 | 16900 (1950) | 220 (1966) | 2040 | 297 | 381 | 591 | 678 | 1210 | 2250 | 2440 | 3810 | 7650 |
| 2026-04-03 07:30 | 5.64 | 291 | 16900 (1950) | 220 (1966) | 2040 | 297 | 381 | 591 | 678 | 1210 | 2250 | 2440 | 3810 | 7650 |
| 2026-04-03 07:00 | 5.64 | 291 | 16900 (1950) | 220 (1966) | 2040 | 297 | 381 | 591 | 678 | 1210 | 2250 | 2440 | 3810 | 7650 |
| 2026-04-03 06:30 | 5.64 | 291 | 16900 (1950) | 220 (1966) | 2040 | 297 | 381 | 591 | 678 | 1210 | 2250 | 2440 | 3810 | 7650 |
| 2026-04-03 06:00 | 5.65 | 294 | 16900 (1950) | 220 (1966) | 2040 | 297 | 381 | 591 | 678 | 1210 | 2250 | 2440 | 3810 | 7650 |
| 2026-04-03 05:30 | 5.65 | 294 | 16900 (1950) | 220 (1966) | 2040 | 297 | 381 | 591 | 678 | 1210 | 2250 | 2440 | 3810 | 7650 |
| 2026-04-03 05:00 | 5.65 | 294 | 16900 (1950) | 220 (1966) | 2040 | 297 | 381 | 591 | 678 | 1210 | 2250 | 2440 | 3810 | 7650 |
| 2026-04-03 04:30 | 5.65 | 294 | 16900 (1950) | 220 (1966) | 2040 | 297 | 381 | 591 | 678 | 1210 | 2250 | 2440 | 3810 | 7650 |
| 2026-04-03 04:00 | 5.65 | 294 | 16900 (1950) | 220 (1966) | 2040 | 297 | 381 | 591 | 678 | 1210 | 2250 | 2440 | 3810 | 7650 |
| 2026-04-03 03:30 | 5.65 | 294 | 16900 (1950) | 220 (1966) | 2040 | 297 | 381 | 591 | 678 | 1210 | 2250 | 2440 | 3810 | 7650 |
| 2026-04-03 03:00 | 5.65 | 294 | 16900 (1950) | 220 (1966) | 2040 | 297 | 381 | 591 | 678 | 1210 | 2250 | 2440 | 3810 | 7650 |
| 2026-04-03 02:30 | 5.65 | 294 | 16900 (1950) | 220 (1966) | 2040 | 297 | 381 | 591 | 678 | 1210 | 2250 | 2440 | 3810 | 7650 |
| 2026-04-03 02:00 | 5.65 | 294 | 16900 (1950) | 220 (1966) | 2040 | 297 | 381 | 591 | 678 | 1210 | 2250 | 2440 | 3810 | 7650 |
| 2026-04-03 01:30 | 5.66 | 297 | 16900 (1950) | 220 (1966) | 2040 | 297 | 381 | 591 | 678 | 1210 | 2250 | 2440 | 3810 | 7650 |
| 2026-04-03 01:00 | 5.66 | 297 | 16900 (1950) | 220 (1966) | 2040 | 297 | 381 | 591 | 678 | 1210 | 2250 | 2440 | 3810 | 7650 |
| 2026-04-03 00:30 | 5.66 | 297 | 16900 (1950) | 220 (1966) | 2040 | 297 | 381 | 591 | 678 | 1210 | 2250 | 2440 | 3810 | 7650 |
| 2026-04-03 00:00 | 5.66 | 297 | 16900 (1950) | 220 (1966) | 2040 | 297 | 381 | 591 | 678 | 1210 | 2250 | 2440 | 3810 | 7650 |
| 2026-04-02 23:30 | 5.66 | 297 | 16900 (1950) | 220 (1966) | 2040 | 297 | 381 | 591 | 678 | 1210 | 2250 | 2440 | 3810 | 7650 |
| 2026-04-02 23:00 | 5.66 | 297 | 16900 (1950) | 220 (1966) | 2040 | 297 | 381 | 591 | 678 | 1210 | 2250 | 2440 | 3810 | 7650 |
| 2026-04-02 22:30 | 5.67 | 300 | 10000 (1945) | 148 (1941) | 1830 | 312 | 406 | 586 | 690 | 1230 | 2450 | 2720 | 3570 | 5480 |
| 2026-04-02 22:00 | 5.65 | 294 | 10000 (1945) | 148 (1941) | 1830 | 312 | 406 | 586 | 690 | 1230 | 2450 | 2720 | 3570 | 5480 |
| 2026-04-02 21:30 | 5.65 | 294 | 10000 (1945) | 148 (1941) | 1830 | 312 | 406 | 586 | 690 | 1230 | 2450 | 2720 | 3570 | 5480 |
| 2026-04-02 21:00 | 5.67 | 300 | 10000 (1945) | 148 (1941) | 1830 | 312 | 406 | 586 | 690 | 1230 | 2450 | 2720 | 3570 | 5480 |
| 2026-04-02 20:30 | 5.67 | 300 | 10000 (1945) | 148 (1941) | 1830 | 312 | 406 | 586 | 690 | 1230 | 2450 | 2720 | 3570 | 5480 |
| 2026-04-02 20:00 | 5.67 | 300 | 10000 (1945) | 148 (1941) | 1830 | 312 | 406 | 586 | 690 | 1230 | 2450 | 2720 | 3570 | 5480 |
| 2026-04-02 19:30 | 5.67 | 300 | 10000 (1945) | 148 (1941) | 1830 | 312 | 406 | 586 | 690 | 1230 | 2450 | 2720 | 3570 | 5480 |
| 2026-04-02 19:00 | 5.67 | 300 | 10000 (1945) | 148 (1941) | 1830 | 312 | 406 | 586 | 690 | 1230 | 2450 | 2720 | 3570 | 5480 |
| 2026-04-02 18:30 | 5.67 | 300 | 10000 (1945) | 148 (1941) | 1830 | 312 | 406 | 586 | 690 | 1230 | 2450 | 2720 | 3570 | 5480 |
| 2026-04-02 18:00 | 5.64 | 291 | 10000 (1945) | 148 (1941) | 1830 | 312 | 406 | 586 | 690 | 1230 | 2450 | 2720 | 3570 | 5480 |
| 2026-04-02 17:30 | 5.68 | 303 | 10000 (1945) | 148 (1941) | 1830 | 312 | 406 | 586 | 690 | 1230 | 2450 | 2720 | 3570 | 5480 |
| 2026-04-02 17:00 | 5.68 | 303 | 10000 (1945) | 148 (1941) | 1830 | 312 | 406 | 586 | 690 | 1230 | 2450 | 2720 | 3570 | 5480 |
| 2026-04-02 16:30 | 5.68 | 303 | 10000 (1945) | 148 (1941) | 1830 | 312 | 406 | 586 | 690 | 1230 | 2450 | 2720 | 3570 | 5480 |
| 2026-04-02 16:00 | 5.68 | 303 | 10000 (1945) | 148 (1941) | 1830 | 312 | 406 | 586 | 690 | 1230 | 2450 | 2720 | 3570 | 5480 |
| 2026-04-02 15:30 | 5.66 | 297 | 10000 (1945) | 148 (1941) | 1830 | 312 | 406 | 586 | 690 | 1230 | 2450 | 2720 | 3570 | 5480 |
| 2026-04-02 15:00 | 5.65 | 294 | 10000 (1945) | 148 (1941) | 1830 | 312 | 406 | 586 | 690 | 1230 | 2450 | 2720 | 3570 | 5480 |
| 2026-04-02 14:30 | 5.58 | 275 | 10000 (1945) | 148 (1941) | 1830 | 312 | 406 | 586 | 690 | 1230 | 2450 | 2720 | 3570 | 5480 |
| 2026-04-02 14:00 | 5.60 | 280 | 10000 (1945) | 148 (1941) | 1830 | 312 | 406 | 586 | 690 | 1230 | 2450 | 2720 | 3570 | 5480 |
| 2026-04-02 13:30 | 5.58 | 275 | 10000 (1945) | 148 (1941) | 1830 | 312 | 406 | 586 | 690 | 1230 | 2450 | 2720 | 3570 | 5480 |
| 2026-04-02 13:00 | 5.58 | 275 | 10000 (1945) | 148 (1941) | 1830 | 312 | 406 | 586 | 690 | 1230 | 2450 | 2720 | 3570 | 5480 |
| 2026-04-02 12:30 | 5.58 | 275 | 10000 (1945) | 148 (1941) | 1830 | 312 | 406 | 586 | 690 | 1230 | 2450 | 2720 | 3570 | 5480 |
| 2026-04-02 12:00 | 5.57 | 272 | 10000 (1945) | 148 (1941) | 1830 | 312 | 406 | 586 | 690 | 1230 | 2450 | 2720 | 3570 | 5480 |
| 2026-04-02 11:30 | 5.57 | 272 | 10000 (1945) | 148 (1941) | 1830 | 312 | 406 | 586 | 690 | 1230 | 2450 | 2720 | 3570 | 5480 |
| 2026-04-02 09:30 | 5.59 | 277 | 10000 (1945) | 148 (1941) | 1830 | 312 | 406 | 586 | 690 | 1230 | 2450 | 2720 | 3570 | 5480 |
| 2026-04-02 09:00 | 5.58 | 275 | 10000 (1945) | 148 (1941) | 1830 | 312 | 406 | 586 | 690 | 1230 | 2450 | 2720 | 3570 | 5480 |
| 2026-04-02 08:30 | 5.57 | 272 | 10000 (1945) | 148 (1941) | 1830 | 312 | 406 | 586 | 690 | 1230 | 2450 | 2720 | 3570 | 5480 |
| 2026-04-02 08:00 | 5.59 | 277 | 10000 (1945) | 148 (1941) | 1830 | 312 | 406 | 586 | 690 | 1230 | 2450 | 2720 | 3570 | 5480 |
| 2026-04-02 07:30 | 5.60 | 280 | 10000 (1945) | 148 (1941) | 1830 | 312 | 406 | 586 | 690 | 1230 | 2450 | 2720 | 3570 | 5480 |
| 2026-04-02 07:00 | 5.58 | 275 | 10000 (1945) | 148 (1941) | 1830 | 312 | 406 | 586 | 690 | 1230 | 2450 | 2720 | 3570 | 5480 |
| 2026-04-02 06:30 | 5.61 | 283 | 10000 (1945) | 148 (1941) | 1830 | 312 | 406 | 586 | 690 | 1230 | 2450 | 2720 | 3570 | 5480 |
| 2026-04-02 06:00 | 5.62 | 286 | 10000 (1945) | 148 (1941) | 1830 | 312 | 406 | 586 | 690 | 1230 | 2450 | 2720 | 3570 | 5480 |
| 2026-04-02 05:30 | 5.62 | 286 | 10000 (1945) | 148 (1941) | 1830 | 312 | 406 | 586 | 690 | 1230 | 2450 | 2720 | 3570 | 5480 |
| 2026-04-02 05:00 | 5.62 | 286 | 10000 (1945) | 148 (1941) | 1830 | 312 | 406 | 586 | 690 | 1230 | 2450 | 2720 | 3570 | 5480 |
| 2026-04-02 04:30 | 5.59 | 277 | 10000 (1945) | 148 (1941) | 1830 | 312 | 406 | 586 | 690 | 1230 | 2450 | 2720 | 3570 | 5480 |
| 2026-04-02 04:00 | 5.62 | 286 | 10000 (1945) | 148 (1941) | 1830 | 312 | 406 | 586 | 690 | 1230 | 2450 | 2720 | 3570 | 5480 |
| 2026-04-02 03:30 | 5.62 | 286 | 10000 (1945) | 148 (1941) | 1830 | 312 | 406 | 586 | 690 | 1230 | 2450 | 2720 | 3570 | 5480 |
| 2026-04-02 03:00 | 5.60 | 280 | 10000 (1945) | 148 (1941) | 1830 | 312 | 406 | 586 | 690 | 1230 | 2450 | 2720 | 3570 | 5480 |
| 2026-04-02 02:30 | 5.63 | 289 | 10000 (1945) | 148 (1941) | 1830 | 312 | 406 | 586 | 690 | 1230 | 2450 | 2720 | 3570 | 5480 |
| 2026-04-02 02:00 | 5.63 | 289 | 10000 (1945) | 148 (1941) | 1830 | 312 | 406 | 586 | 690 | 1230 | 2450 | 2720 | 3570 | 5480 |
| 2026-04-02 01:30 | 5.63 | 289 | 10000 (1945) | 148 (1941) | 1830 | 312 | 406 | 586 | 690 | 1230 | 2450 | 2720 | 3570 | 5480 |
| 2026-04-02 01:00 | 5.63 | 289 | 10000 (1945) | 148 (1941) | 1830 | 312 | 406 | 586 | 690 | 1230 | 2450 | 2720 | 3570 | 5480 |
| 2026-04-02 00:30 | 5.63 | 289 | 10000 (1945) | 148 (1941) | 1830 | 312 | 406 | 586 | 690 | 1230 | 2450 | 2720 | 3570 | 5480 |
| 2026-04-02 00:00 | 5.63 | 289 | 10000 (1945) | 148 (1941) | 1830 | 312 | 406 | 586 | 690 | 1230 | 2450 | 2720 | 3570 | 5480 |
| 2026-04-01 23:30 | 5.63 | 289 | 10000 (1945) | 148 (1941) | 1830 | 312 | 406 | 586 | 690 | 1230 | 2450 | 2720 | 3570 | 5480 |
| 2026-04-01 23:00 | 5.63 | 289 | 10000 (1945) | 148 (1941) | 1830 | 312 | 406 | 586 | 690 | 1230 | 2450 | 2720 | 3570 | 5480 |
| 2026-04-01 22:30 | 5.63 | 289 | 50000 (1927) | 150 (1941) | 2920 | 336 | 414 | 636 | 694 | 1260 | 2790 | 3320 | 7140 | 10300 |
| 2026-04-01 22:00 | 5.63 | 289 | 50000 (1927) | 150 (1941) | 2920 | 336 | 414 | 636 | 694 | 1260 | 2790 | 3320 | 7140 | 10300 |
| 2026-04-01 21:30 | 5.63 | 289 | 50000 (1927) | 150 (1941) | 2920 | 336 | 414 | 636 | 694 | 1260 | 2790 | 3320 | 7140 | 10300 |
| 2026-04-01 21:00 | 5.63 | 289 | 50000 (1927) | 150 (1941) | 2920 | 336 | 414 | 636 | 694 | 1260 | 2790 | 3320 | 7140 | 10300 |
| 2026-04-01 20:30 | 5.63 | 289 | 50000 (1927) | 150 (1941) | 2920 | 336 | 414 | 636 | 694 | 1260 | 2790 | 3320 | 7140 | 10300 |
| 2026-04-01 20:00 | 5.64 | 291 | 50000 (1927) | 150 (1941) | 2920 | 336 | 414 | 636 | 694 | 1260 | 2790 | 3320 | 7140 | 10300 |
| 2026-04-01 19:30 | 5.63 | 289 | 50000 (1927) | 150 (1941) | 2920 | 336 | 414 | 636 | 694 | 1260 | 2790 | 3320 | 7140 | 10300 |
| 2026-04-01 19:00 | 5.63 | 289 | 50000 (1927) | 150 (1941) | 2920 | 336 | 414 | 636 | 694 | 1260 | 2790 | 3320 | 7140 | 10300 |
| 2026-04-01 18:30 | 5.64 | 291 | 50000 (1927) | 150 (1941) | 2920 | 336 | 414 | 636 | 694 | 1260 | 2790 | 3320 | 7140 | 10300 |
| 2026-04-01 18:00 | 5.60 | 280 | 50000 (1927) | 150 (1941) | 2920 | 336 | 414 | 636 | 694 | 1260 | 2790 | 3320 | 7140 | 10300 |
| 2026-04-01 17:30 | 5.63 | 289 | 50000 (1927) | 150 (1941) | 2920 | 336 | 414 | 636 | 694 | 1260 | 2790 | 3320 | 7140 | 10300 |
| 2026-04-01 17:00 | 5.59 | 277 | 50000 (1927) | 150 (1941) | 2920 | 336 | 414 | 636 | 694 | 1260 | 2790 | 3320 | 7140 | 10300 |
| 2026-04-01 16:30 | 5.61 | 283 | 50000 (1927) | 150 (1941) | 2920 | 336 | 414 | 636 | 694 | 1260 | 2790 | 3320 | 7140 | 10300 |
| 2026-04-01 16:00 | 5.63 | 289 | 50000 (1927) | 150 (1941) | 2920 | 336 | 414 | 636 | 694 | 1260 | 2790 | 3320 | 7140 | 10300 |
| 2026-04-01 15:30 | 5.59 | 277 | 50000 (1927) | 150 (1941) | 2920 | 336 | 414 | 636 | 694 | 1260 | 2790 | 3320 | 7140 | 10300 |
| 2026-04-01 15:00 | 5.61 | 283 | 50000 (1927) | 150 (1941) | 2920 | 336 | 414 | 636 | 694 | 1260 | 2790 | 3320 | 7140 | 10300 |
| 2026-04-01 14:30 | 5.64 | 291 | 50000 (1927) | 150 (1941) | 2920 | 336 | 414 | 636 | 694 | 1260 | 2790 | 3320 | 7140 | 10300 |
| 2026-04-01 14:00 | 5.61 | 283 | 50000 (1927) | 150 (1941) | 2920 | 336 | 414 | 636 | 694 | 1260 | 2790 | 3320 | 7140 | 10300 |
| 2026-04-01 13:30 | 5.62 | 286 | 50000 (1927) | 150 (1941) | 2920 | 336 | 414 | 636 | 694 | 1260 | 2790 | 3320 | 7140 | 10300 |
| 2026-04-01 13:00 | 5.62 | 286 | 50000 (1927) | 150 (1941) | 2920 | 336 | 414 | 636 | 694 | 1260 | 2790 | 3320 | 7140 | 10300 |
| 2026-04-01 12:30 | 5.64 | 291 | 50000 (1927) | 150 (1941) | 2920 | 336 | 414 | 636 | 694 | 1260 | 2790 | 3320 | 7140 | 10300 |
| 2026-04-01 12:00 | 5.63 | 289 | 50000 (1927) | 150 (1941) | 2920 | 336 | 414 | 636 | 694 | 1260 | 2790 | 3320 | 7140 | 10300 |
| 2026-04-01 11:30 | 5.64 | 291 | 50000 (1927) | 150 (1941) | 2920 | 336 | 414 | 636 | 694 | 1260 | 2790 | 3320 | 7140 | 10300 |
| 2026-04-01 11:00 | 5.60 | 280 | 50000 (1927) | 150 (1941) | 2920 | 336 | 414 | 636 | 694 | 1260 | 2790 | 3320 | 7140 | 10300 |
| 2026-04-01 10:30 | 5.59 | 277 | 50000 (1927) | 150 (1941) | 2920 | 336 | 414 | 636 | 694 | 1260 | 2790 | 3320 | 7140 | 10300 |
| 2026-04-01 10:00 | 5.64 | 291 | 50000 (1927) | 150 (1941) | 2920 | 336 | 414 | 636 | 694 | 1260 | 2790 | 3320 | 7140 | 10300 |
| 2026-04-01 09:30 | 5.64 | 291 | 50000 (1927) | 150 (1941) | 2920 | 336 | 414 | 636 | 694 | 1260 | 2790 | 3320 | 7140 | 10300 |
| 2026-04-01 09:00 | 5.64 | 291 | 50000 (1927) | 150 (1941) | 2920 | 336 | 414 | 636 | 694 | 1260 | 2790 | 3320 | 7140 | 10300 |
| 2026-04-01 08:30 | 5.64 | 291 | 50000 (1927) | 150 (1941) | 2920 | 336 | 414 | 636 | 694 | 1260 | 2790 | 3320 | 7140 | 10300 |
| 2026-04-01 08:00 | 5.64 | 291 | 50000 (1927) | 150 (1941) | 2920 | 336 | 414 | 636 | 694 | 1260 | 2790 | 3320 | 7140 | 10300 |
| 2026-04-01 07:30 | 5.64 | 291 | 50000 (1927) | 150 (1941) | 2920 | 336 | 414 | 636 | 694 | 1260 | 2790 | 3320 | 7140 | 10300 |
| 2026-04-01 07:00 | 5.64 | 291 | 50000 (1927) | 150 (1941) | 2920 | 336 | 414 | 636 | 694 | 1260 | 2790 | 3320 | 7140 | 10300 |
| 2026-04-01 06:30 | 5.64 | 291 | 50000 (1927) | 150 (1941) | 2920 | 336 | 414 | 636 | 694 | 1260 | 2790 | 3320 | 7140 | 10300 |
| 2026-04-01 06:00 | 5.64 | 291 | 50000 (1927) | 150 (1941) | 2920 | 336 | 414 | 636 | 694 | 1260 | 2790 | 3320 | 7140 | 10300 |
| 2026-04-01 05:00 | 5.65 | 294 | 50000 (1927) | 150 (1941) | 2920 | 336 | 414 | 636 | 694 | 1260 | 2790 | 3320 | 7140 | 10300 |
| 2026-04-01 04:30 | 5.64 | 291 | 50000 (1927) | 150 (1941) | 2920 | 336 | 414 | 636 | 694 | 1260 | 2790 | 3320 | 7140 | 10300 |
| 2026-04-01 04:00 | 5.64 | 291 | 50000 (1927) | 150 (1941) | 2920 | 336 | 414 | 636 | 694 | 1260 | 2790 | 3320 | 7140 | 10300 |
| 2026-04-01 03:30 | 5.64 | 291 | 50000 (1927) | 150 (1941) | 2920 | 336 | 414 | 636 | 694 | 1260 | 2790 | 3320 | 7140 | 10300 |
| 2026-04-01 03:00 | 5.64 | 291 | 50000 (1927) | 150 (1941) | 2920 | 336 | 414 | 636 | 694 | 1260 | 2790 | 3320 | 7140 | 10300 |
| 2026-04-01 02:30 | 5.64 | 291 | 50000 (1927) | 150 (1941) | 2920 | 336 | 414 | 636 | 694 | 1260 | 2790 | 3320 | 7140 | 10300 |
| 2026-04-01 02:00 | 5.64 | 291 | 50000 (1927) | 150 (1941) | 2920 | 336 | 414 | 636 | 694 | 1260 | 2790 | 3320 | 7140 | 10300 |
| 2026-04-01 01:30 | 5.64 | 291 | 50000 (1927) | 150 (1941) | 2920 | 336 | 414 | 636 | 694 | 1260 | 2790 | 3320 | 7140 | 10300 |
| 2026-04-01 01:00 | 5.64 | 291 | 50000 (1927) | 150 (1941) | 2920 | 336 | 414 | 636 | 694 | 1260 | 2790 | 3320 | 7140 | 10300 |
| 2026-04-01 00:30 | 5.64 | 291 | 50000 (1927) | 150 (1941) | 2920 | 336 | 414 | 636 | 694 | 1260 | 2790 | 3320 | 7140 | 10300 |
| 2026-04-01 00:00 | 5.64 | 291 | 50000 (1927) | 150 (1941) | 2920 | 336 | 414 | 636 | 694 | 1260 | 2790 | 3320 | 7140 | 10300 |
| 2026-03-31 23:30 | 5.64 | 291 | 50000 (1927) | 150 (1941) | 2920 | 336 | 414 | 636 | 694 | 1260 | 2790 | 3320 | 7140 | 10300 |
| 2026-03-31 23:00 | 5.64 | 291 | 50000 (1927) | 150 (1941) | 2920 | 336 | 414 | 636 | 694 | 1260 | 2790 | 3320 | 7140 | 10300 |
| 2026-03-31 22:30 | 5.65 | 294 | 42700 (1985) | 150 (1941) | 3620 | 356 | 447 | 645 | 738 | 1300 | 2810 | 3890 | 9980 | 17000 |
| 2026-03-31 22:00 | 5.64 | 291 | 42700 (1985) | 150 (1941) | 3620 | 356 | 447 | 645 | 738 | 1300 | 2810 | 3890 | 9980 | 17000 |
| 2026-03-31 21:30 | 5.64 | 291 | 42700 (1985) | 150 (1941) | 3620 | 356 | 447 | 645 | 738 | 1300 | 2810 | 3890 | 9980 | 17000 |
| 2026-03-31 21:00 | 5.65 | 294 | 42700 (1985) | 150 (1941) | 3620 | 356 | 447 | 645 | 738 | 1300 | 2810 | 3890 | 9980 | 17000 |
| 2026-03-31 20:30 | 5.64 | 291 | 42700 (1985) | 150 (1941) | 3620 | 356 | 447 | 645 | 738 | 1300 | 2810 | 3890 | 9980 | 17000 |
| 2026-03-31 20:00 | 5.64 | 291 | 42700 (1985) | 150 (1941) | 3620 | 356 | 447 | 645 | 738 | 1300 | 2810 | 3890 | 9980 | 17000 |
| 2026-03-31 19:30 | 5.63 | 289 | 42700 (1985) | 150 (1941) | 3620 | 356 | 447 | 645 | 738 | 1300 | 2810 | 3890 | 9980 | 17000 |
| 2026-03-31 19:00 | 5.65 | 294 | 42700 (1985) | 150 (1941) | 3620 | 356 | 447 | 645 | 738 | 1300 | 2810 | 3890 | 9980 | 17000 |
| 2026-03-31 18:30 | 5.65 | 294 | 42700 (1985) | 150 (1941) | 3620 | 356 | 447 | 645 | 738 | 1300 | 2810 | 3890 | 9980 | 17000 |
| 2026-03-31 18:00 | 5.61 | 283 | 42700 (1985) | 150 (1941) | 3620 | 356 | 447 | 645 | 738 | 1300 | 2810 | 3890 | 9980 | 17000 |
| 2026-03-31 17:30 | 5.61 | 283 | 42700 (1985) | 150 (1941) | 3620 | 356 | 447 | 645 | 738 | 1300 | 2810 | 3890 | 9980 | 17000 |
| 2026-03-31 17:00 | 5.61 | 283 | 42700 (1985) | 150 (1941) | 3620 | 356 | 447 | 645 | 738 | 1300 | 2810 | 3890 | 9980 | 17000 |
| 2026-03-31 16:30 | 5.61 | 283 | 42700 (1985) | 150 (1941) | 3620 | 356 | 447 | 645 | 738 | 1300 | 2810 | 3890 | 9980 | 17000 |
| 2026-03-31 16:00 | 5.63 | 289 | 42700 (1985) | 150 (1941) | 3620 | 356 | 447 | 645 | 738 | 1300 | 2810 | 3890 | 9980 | 17000 |
| 2026-03-31 15:30 | 5.63 | 289 | 42700 (1985) | 150 (1941) | 3620 | 356 | 447 | 645 | 738 | 1300 | 2810 | 3890 | 9980 | 17000 |
| 2026-03-31 15:00 | 5.62 | 286 | 42700 (1985) | 150 (1941) | 3620 | 356 | 447 | 645 | 738 | 1300 | 2810 | 3890 | 9980 | 17000 |
| 2026-03-31 14:30 | 5.63 | 289 | 42700 (1985) | 150 (1941) | 3620 | 356 | 447 | 645 | 738 | 1300 | 2810 | 3890 | 9980 | 17000 |
| 2026-03-31 14:00 | 5.62 | 286 | 42700 (1985) | 150 (1941) | 3620 | 356 | 447 | 645 | 738 | 1300 | 2810 | 3890 | 9980 | 17000 |
| 2026-03-31 13:30 | 5.62 | 286 | 42700 (1985) | 150 (1941) | 3620 | 356 | 447 | 645 | 738 | 1300 | 2810 | 3890 | 9980 | 17000 |
| 2026-03-31 13:00 | 5.64 | 291 | 42700 (1985) | 150 (1941) | 3620 | 356 | 447 | 645 | 738 | 1300 | 2810 | 3890 | 9980 | 17000 |
| 2026-03-31 12:30 | 5.65 | 294 | 42700 (1985) | 150 (1941) | 3620 | 356 | 447 | 645 | 738 | 1300 | 2810 | 3890 | 9980 | 17000 |
| 2026-03-31 12:00 | 5.64 | 291 | 42700 (1985) | 150 (1941) | 3620 | 356 | 447 | 645 | 738 | 1300 | 2810 | 3890 | 9980 | 17000 |
| 2026-03-31 11:30 | 5.61 | 283 | 42700 (1985) | 150 (1941) | 3620 | 356 | 447 | 645 | 738 | 1300 | 2810 | 3890 | 9980 | 17000 |
| 2026-03-31 11:00 | 5.62 | 286 | 42700 (1985) | 150 (1941) | 3620 | 356 | 447 | 645 | 738 | 1300 | 2810 | 3890 | 9980 | 17000 |
| 2026-03-31 10:30 | 5.65 | 294 | 42700 (1985) | 150 (1941) | 3620 | 356 | 447 | 645 | 738 | 1300 | 2810 | 3890 | 9980 | 17000 |
| 2026-03-31 10:00 | 5.62 | 286 | 42700 (1985) | 150 (1941) | 3620 | 356 | 447 | 645 | 738 | 1300 | 2810 | 3890 | 9980 | 17000 |
| 2026-03-31 09:30 | 5.65 | 294 | 42700 (1985) | 150 (1941) | 3620 | 356 | 447 | 645 | 738 | 1300 | 2810 | 3890 | 9980 | 17000 |
| 2026-03-31 09:00 | 5.65 | 294 | 42700 (1985) | 150 (1941) | 3620 | 356 | 447 | 645 | 738 | 1300 | 2810 | 3890 | 9980 | 17000 |
| 2026-03-31 08:30 | 5.63 | 289 | 42700 (1985) | 150 (1941) | 3620 | 356 | 447 | 645 | 738 | 1300 | 2810 | 3890 | 9980 | 17000 |
| 2026-03-31 08:00 | 5.67 | 300 | 42700 (1985) | 150 (1941) | 3620 | 356 | 447 | 645 | 738 | 1300 | 2810 | 3890 | 9980 | 17000 |
| 2026-03-31 07:30 | 5.68 | 303 | 42700 (1985) | 150 (1941) | 3620 | 356 | 447 | 645 | 738 | 1300 | 2810 | 3890 | 9980 | 17000 |
| 2026-03-31 07:00 | 5.67 | 300 | 42700 (1985) | 150 (1941) | 3620 | 356 | 447 | 645 | 738 | 1300 | 2810 | 3890 | 9980 | 17000 |
| 2026-03-31 06:30 | 5.68 | 303 | 42700 (1985) | 150 (1941) | 3620 | 356 | 447 | 645 | 738 | 1300 | 2810 | 3890 | 9980 | 17000 |
| 2026-03-31 06:00 | 5.68 | 303 | 42700 (1985) | 150 (1941) | 3620 | 356 | 447 | 645 | 738 | 1300 | 2810 | 3890 | 9980 | 17000 |
| 2026-03-31 05:30 | 5.69 | 306 | 42700 (1985) | 150 (1941) | 3620 | 356 | 447 | 645 | 738 | 1300 | 2810 | 3890 | 9980 | 17000 |
| 2026-03-31 05:00 | 5.69 | 306 | 42700 (1985) | 150 (1941) | 3620 | 356 | 447 | 645 | 738 | 1300 | 2810 | 3890 | 9980 | 17000 |
| 2026-03-31 04:30 | 5.69 | 306 | 42700 (1985) | 150 (1941) | 3620 | 356 | 447 | 645 | 738 | 1300 | 2810 | 3890 | 9980 | 17000 |
| 2026-03-31 04:00 | 5.69 | 306 | 42700 (1985) | 150 (1941) | 3620 | 356 | 447 | 645 | 738 | 1300 | 2810 | 3890 | 9980 | 17000 |
| 2026-03-31 03:30 | 5.69 | 306 | 42700 (1985) | 150 (1941) | 3620 | 356 | 447 | 645 | 738 | 1300 | 2810 | 3890 | 9980 | 17000 |
| 2026-03-31 03:00 | 5.69 | 306 | 42700 (1985) | 150 (1941) | 3620 | 356 | 447 | 645 | 738 | 1300 | 2810 | 3890 | 9980 | 17000 |
| 2026-03-31 02:30 | 5.70 | 309 | 42700 (1985) | 150 (1941) | 3620 | 356 | 447 | 645 | 738 | 1300 | 2810 | 3890 | 9980 | 17000 |
| 2026-03-31 02:00 | 5.70 | 309 | 42700 (1985) | 150 (1941) | 3620 | 356 | 447 | 645 | 738 | 1300 | 2810 | 3890 | 9980 | 17000 |
| 2026-03-31 01:30 | 5.70 | 309 | 42700 (1985) | 150 (1941) | 3620 | 356 | 447 | 645 | 738 | 1300 | 2810 | 3890 | 9980 | 17000 |
| 2026-03-31 01:00 | 5.70 | 309 | 42700 (1985) | 150 (1941) | 3620 | 356 | 447 | 645 | 738 | 1300 | 2810 | 3890 | 9980 | 17000 |
| 2026-03-31 00:30 | 5.70 | 309 | 42700 (1985) | 150 (1941) | 3620 | 356 | 447 | 645 | 738 | 1300 | 2810 | 3890 | 9980 | 17000 |
| 2026-03-31 00:00 | 5.70 | 309 | 42700 (1985) | 150 (1941) | 3620 | 356 | 447 | 645 | 738 | 1300 | 2810 | 3890 | 9980 | 17000 |
| 2026-03-30 23:30 | 5.71 | 312 | 42700 (1985) | 150 (1941) | 3620 | 356 | 447 | 645 | 738 | 1300 | 2810 | 3890 | 9980 | 17000 |
| 2026-03-30 23:00 | 5.71 | 312 | 42700 (1985) | 150 (1941) | 3620 | 356 | 447 | 645 | 738 | 1300 | 2810 | 3890 | 9980 | 17000 |
| 2026-03-30 22:30 | 5.71 | 312 | 26600 (2018) | 147 (1941) | 2660 | 369 | 454 | 677 | 749 | 1240 | 2290 | 2480 | 5020 | 11900 |
| 2026-03-30 22:00 | 5.71 | 312 | 26600 (2018) | 147 (1941) | 2660 | 369 | 454 | 677 | 749 | 1240 | 2290 | 2480 | 5020 | 11900 |
| 2026-03-30 21:30 | 5.72 | 315 | 26600 (2018) | 147 (1941) | 2660 | 369 | 454 | 677 | 749 | 1240 | 2290 | 2480 | 5020 | 11900 |
| 2026-03-30 21:00 | 5.72 | 315 | 26600 (2018) | 147 (1941) | 2660 | 369 | 454 | 677 | 749 | 1240 | 2290 | 2480 | 5020 | 11900 |
| 2026-03-30 20:30 | 5.70 | 309 | 26600 (2018) | 147 (1941) | 2660 | 369 | 454 | 677 | 749 | 1240 | 2290 | 2480 | 5020 | 11900 |
| 2026-03-30 20:00 | 5.72 | 315 | 26600 (2018) | 147 (1941) | 2660 | 369 | 454 | 677 | 749 | 1240 | 2290 | 2480 | 5020 | 11900 |
| 2026-03-30 19:30 | 5.73 | 318 | 26600 (2018) | 147 (1941) | 2660 | 369 | 454 | 677 | 749 | 1240 | 2290 | 2480 | 5020 | 11900 |
| 2026-03-30 19:00 | 5.71 | 312 | 26600 (2018) | 147 (1941) | 2660 | 369 | 454 | 677 | 749 | 1240 | 2290 | 2480 | 5020 | 11900 |
| 2026-03-30 18:30 | 5.73 | 318 | 26600 (2018) | 147 (1941) | 2660 | 369 | 454 | 677 | 749 | 1240 | 2290 | 2480 | 5020 | 11900 |
| 2026-03-30 18:00 | 5.69 | 306 | 26600 (2018) | 147 (1941) | 2660 | 369 | 454 | 677 | 749 | 1240 | 2290 | 2480 | 5020 | 11900 |
| 2026-03-30 17:30 | 5.69 | 306 | 26600 (2018) | 147 (1941) | 2660 | 369 | 454 | 677 | 749 | 1240 | 2290 | 2480 | 5020 | 11900 |
| 2026-03-30 17:00 | 5.70 | 309 | 26600 (2018) | 147 (1941) | 2660 | 369 | 454 | 677 | 749 | 1240 | 2290 | 2480 | 5020 | 11900 |
| 2026-03-30 16:30 | 5.70 | 309 | 26600 (2018) | 147 (1941) | 2660 | 369 | 454 | 677 | 749 | 1240 | 2290 | 2480 | 5020 | 11900 |
| 2026-03-30 16:00 | 5.70 | 309 | 26600 (2018) | 147 (1941) | 2660 | 369 | 454 | 677 | 749 | 1240 | 2290 | 2480 | 5020 | 11900 |
| 2026-03-30 15:30 | 5.72 | 315 | 26600 (2018) | 147 (1941) | 2660 | 369 | 454 | 677 | 749 | 1240 | 2290 | 2480 | 5020 | 11900 |
| 2026-03-30 15:00 | 5.70 | 309 | 26600 (2018) | 147 (1941) | 2660 | 369 | 454 | 677 | 749 | 1240 | 2290 | 2480 | 5020 | 11900 |
| 2026-03-30 14:30 | 5.71 | 312 | 26600 (2018) | 147 (1941) | 2660 | 369 | 454 | 677 | 749 | 1240 | 2290 | 2480 | 5020 | 11900 |
| 2026-03-30 14:00 | 5.72 | 315 | 26600 (2018) | 147 (1941) | 2660 | 369 | 454 | 677 | 749 | 1240 | 2290 | 2480 | 5020 | 11900 |
| 2026-03-30 13:30 | 5.72 | 315 | 26600 (2018) | 147 (1941) | 2660 | 369 | 454 | 677 | 749 | 1240 | 2290 | 2480 | 5020 | 11900 |
| 2026-03-30 13:00 | 5.71 | 312 | 26600 (2018) | 147 (1941) | 2660 | 369 | 454 | 677 | 749 | 1240 | 2290 | 2480 | 5020 | 11900 |
| 2026-03-30 12:30 | 5.70 | 309 | 26600 (2018) | 147 (1941) | 2660 | 369 | 454 | 677 | 749 | 1240 | 2290 | 2480 | 5020 | 11900 |
| 2026-03-30 12:00 | 5.72 | 315 | 26600 (2018) | 147 (1941) | 2660 | 369 | 454 | 677 | 749 | 1240 | 2290 | 2480 | 5020 | 11900 |
| 2026-03-30 11:30 | 5.72 | 315 | 26600 (2018) | 147 (1941) | 2660 | 369 | 454 | 677 | 749 | 1240 | 2290 | 2480 | 5020 | 11900 |
| 2026-03-30 11:00 | 5.74 | 321 | 26600 (2018) | 147 (1941) | 2660 | 369 | 454 | 677 | 749 | 1240 | 2290 | 2480 | 5020 | 11900 |
| 2026-03-30 10:30 | 5.72 | 315 | 26600 (2018) | 147 (1941) | 2660 | 369 | 454 | 677 | 749 | 1240 | 2290 | 2480 | 5020 | 11900 |
| 2026-03-30 10:00 | 5.73 | 318 | 26600 (2018) | 147 (1941) | 2660 | 369 | 454 | 677 | 749 | 1240 | 2290 | 2480 | 5020 | 11900 |
| 2026-03-30 09:30 | 5.71 | 312 | 26600 (2018) | 147 (1941) | 2660 | 369 | 454 | 677 | 749 | 1240 | 2290 | 2480 | 5020 | 11900 |
| 2026-03-30 09:00 | 5.76 | 327 | 26600 (2018) | 147 (1941) | 2660 | 369 | 454 | 677 | 749 | 1240 | 2290 | 2480 | 5020 | 11900 |
| 2026-03-30 08:30 | 5.77 | 330 | 26600 (2018) | 147 (1941) | 2660 | 369 | 454 | 677 | 749 | 1240 | 2290 | 2480 | 5020 | 11900 |
| 2026-03-30 08:00 | 5.77 | 330 | 26600 (2018) | 147 (1941) | 2660 | 369 | 454 | 677 | 749 | 1240 | 2290 | 2480 | 5020 | 11900 |
| 2026-03-30 07:30 | 5.77 | 330 | 26600 (2018) | 147 (1941) | 2660 | 369 | 454 | 677 | 749 | 1240 | 2290 | 2480 | 5020 | 11900 |
| 2026-03-30 07:00 | 5.77 | 330 | 26600 (2018) | 147 (1941) | 2660 | 369 | 454 | 677 | 749 | 1240 | 2290 | 2480 | 5020 | 11900 |
| 2026-03-30 06:30 | 5.78 | 333 | 26600 (2018) | 147 (1941) | 2660 | 369 | 454 | 677 | 749 | 1240 | 2290 | 2480 | 5020 | 11900 |
| 2026-03-30 06:00 | 5.78 | 333 | 26600 (2018) | 147 (1941) | 2660 | 369 | 454 | 677 | 749 | 1240 | 2290 | 2480 | 5020 | 11900 |
| 2026-03-30 05:30 | 5.78 | 333 | 26600 (2018) | 147 (1941) | 2660 | 369 | 454 | 677 | 749 | 1240 | 2290 | 2480 | 5020 | 11900 |
| 2026-03-30 05:00 | 5.78 | 333 | 26600 (2018) | 147 (1941) | 2660 | 369 | 454 | 677 | 749 | 1240 | 2290 | 2480 | 5020 | 11900 |
| 2026-03-30 04:30 | 5.78 | 333 | 26600 (2018) | 147 (1941) | 2660 | 369 | 454 | 677 | 749 | 1240 | 2290 | 2480 | 5020 | 11900 |
| 2026-03-30 04:00 | 5.78 | 333 | 26600 (2018) | 147 (1941) | 2660 | 369 | 454 | 677 | 749 | 1240 | 2290 | 2480 | 5020 | 11900 |
| 2026-03-30 03:30 | 5.79 | 336 | 26600 (2018) | 147 (1941) | 2660 | 369 | 454 | 677 | 749 | 1240 | 2290 | 2480 | 5020 | 11900 |
| 2026-03-30 03:00 | 5.79 | 336 | 26600 (2018) | 147 (1941) | 2660 | 369 | 454 | 677 | 749 | 1240 | 2290 | 2480 | 5020 | 11900 |
| 2026-03-30 02:30 | 5.79 | 336 | 26600 (2018) | 147 (1941) | 2660 | 369 | 454 | 677 | 749 | 1240 | 2290 | 2480 | 5020 | 11900 |
| 2026-03-30 02:00 | 5.79 | 336 | 26600 (2018) | 147 (1941) | 2660 | 369 | 454 | 677 | 749 | 1240 | 2290 | 2480 | 5020 | 11900 |
| 2026-03-30 01:30 | 5.79 | 336 | 26600 (2018) | 147 (1941) | 2660 | 369 | 454 | 677 | 749 | 1240 | 2290 | 2480 | 5020 | 11900 |
| 2026-03-30 01:00 | 5.79 | 336 | 26600 (2018) | 147 (1941) | 2660 | 369 | 454 | 677 | 749 | 1240 | 2290 | 2480 | 5020 | 11900 |
| 2026-03-30 00:30 | 5.79 | 336 | 26600 (2018) | 147 (1941) | 2660 | 369 | 454 | 677 | 749 | 1240 | 2290 | 2480 | 5020 | 11900 |
| 2026-03-30 00:00 | 5.79 | 336 | 26600 (2018) | 147 (1941) | 2660 | 369 | 454 | 677 | 749 | 1240 | 2290 | 2480 | 5020 | 11900 |
| 2026-03-29 23:30 | 5.79 | 336 | 26600 (2018) | 147 (1941) | 2660 | 369 | 454 | 677 | 749 | 1240 | 2290 | 2480 | 5020 | 11900 |
| 2026-03-29 23:00 | 5.79 | 336 | 26600 (2018) | 147 (1941) | 2660 | 369 | 454 | 677 | 749 | 1240 | 2290 | 2480 | 5020 | 11900 |
| 2026-03-29 22:30 | 5.80 | 339 | 47400 (1977) | 150 (1941) | 2650 | 379 | 455 | 696 | 750 | 1270 | 2270 | 2480 | 3510 | 8230 |
| 2026-03-29 22:00 | 5.80 | 339 | 47400 (1977) | 150 (1941) | 2650 | 379 | 455 | 696 | 750 | 1270 | 2270 | 2480 | 3510 | 8230 |
| 2026-03-29 21:30 | 5.80 | 339 | 47400 (1977) | 150 (1941) | 2650 | 379 | 455 | 696 | 750 | 1270 | 2270 | 2480 | 3510 | 8230 |
| 2026-03-29 21:00 | 5.80 | 339 | 47400 (1977) | 150 (1941) | 2650 | 379 | 455 | 696 | 750 | 1270 | 2270 | 2480 | 3510 | 8230 |
| 2026-03-29 20:30 | 5.80 | 339 | 47400 (1977) | 150 (1941) | 2650 | 379 | 455 | 696 | 750 | 1270 | 2270 | 2480 | 3510 | 8230 |
| 2026-03-29 20:00 | 5.80 | 339 | 47400 (1977) | 150 (1941) | 2650 | 379 | 455 | 696 | 750 | 1270 | 2270 | 2480 | 3510 | 8230 |
| 2026-03-29 19:30 | 5.80 | 339 | 47400 (1977) | 150 (1941) | 2650 | 379 | 455 | 696 | 750 | 1270 | 2270 | 2480 | 3510 | 8230 |
| 2026-03-29 19:00 | 5.80 | 339 | 47400 (1977) | 150 (1941) | 2650 | 379 | 455 | 696 | 750 | 1270 | 2270 | 2480 | 3510 | 8230 |
| 2026-03-29 18:30 | 5.80 | 339 | 47400 (1977) | 150 (1941) | 2650 | 379 | 455 | 696 | 750 | 1270 | 2270 | 2480 | 3510 | 8230 |
| 2026-03-29 18:00 | 5.75 | 324 | 47400 (1977) | 150 (1941) | 2650 | 379 | 455 | 696 | 750 | 1270 | 2270 | 2480 | 3510 | 8230 |
| 2026-03-29 17:30 | 5.77 | 330 | 47400 (1977) | 150 (1941) | 2650 | 379 | 455 | 696 | 750 | 1270 | 2270 | 2480 | 3510 | 8230 |
| 2026-03-29 17:00 | 5.78 | 333 | 47400 (1977) | 150 (1941) | 2650 | 379 | 455 | 696 | 750 | 1270 | 2270 | 2480 | 3510 | 8230 |
| 2026-03-29 16:30 | 5.76 | 327 | 47400 (1977) | 150 (1941) | 2650 | 379 | 455 | 696 | 750 | 1270 | 2270 | 2480 | 3510 | 8230 |
| 2026-03-29 16:00 | 5.78 | 333 | 47400 (1977) | 150 (1941) | 2650 | 379 | 455 | 696 | 750 | 1270 | 2270 | 2480 | 3510 | 8230 |
| 2026-03-29 15:30 | 5.78 | 333 | 47400 (1977) | 150 (1941) | 2650 | 379 | 455 | 696 | 750 | 1270 | 2270 | 2480 | 3510 | 8230 |
| 2026-03-29 15:00 | 5.77 | 330 | 47400 (1977) | 150 (1941) | 2650 | 379 | 455 | 696 | 750 | 1270 | 2270 | 2480 | 3510 | 8230 |
| 2026-03-29 14:30 | 5.80 | 339 | 47400 (1977) | 150 (1941) | 2650 | 379 | 455 | 696 | 750 | 1270 | 2270 | 2480 | 3510 | 8230 |
| 2026-03-29 14:00 | 5.78 | 333 | 47400 (1977) | 150 (1941) | 2650 | 379 | 455 | 696 | 750 | 1270 | 2270 | 2480 | 3510 | 8230 |
| 2026-03-29 13:30 | 5.77 | 330 | 47400 (1977) | 150 (1941) | 2650 | 379 | 455 | 696 | 750 | 1270 | 2270 | 2480 | 3510 | 8230 |
| 2026-03-29 13:00 | 5.79 | 336 | 47400 (1977) | 150 (1941) | 2650 | 379 | 455 | 696 | 750 | 1270 | 2270 | 2480 | 3510 | 8230 |
| 2026-03-29 12:30 | 5.79 | 336 | 47400 (1977) | 150 (1941) | 2650 | 379 | 455 | 696 | 750 | 1270 | 2270 | 2480 | 3510 | 8230 |
| 2026-03-29 12:00 | 5.78 | 333 | 47400 (1977) | 150 (1941) | 2650 | 379 | 455 | 696 | 750 | 1270 | 2270 | 2480 | 3510 | 8230 |
| 2026-03-29 11:30 | 5.79 | 336 | 47400 (1977) | 150 (1941) | 2650 | 379 | 455 | 696 | 750 | 1270 | 2270 | 2480 | 3510 | 8230 |
| 2026-03-29 11:00 | 5.78 | 333 | 47400 (1977) | 150 (1941) | 2650 | 379 | 455 | 696 | 750 | 1270 | 2270 | 2480 | 3510 | 8230 |
| 2026-03-29 10:30 | 5.78 | 333 | 47400 (1977) | 150 (1941) | 2650 | 379 | 455 | 696 | 750 | 1270 | 2270 | 2480 | 3510 | 8230 |
| 2026-03-29 10:00 | 5.82 | 346 | 47400 (1977) | 150 (1941) | 2650 | 379 | 455 | 696 | 750 | 1270 | 2270 | 2480 | 3510 | 8230 |
| 2026-03-29 09:30 | 5.83 | 349 | 47400 (1977) | 150 (1941) | 2650 | 379 | 455 | 696 | 750 | 1270 | 2270 | 2480 | 3510 | 8230 |
| 2026-03-29 09:00 | 5.83 | 349 | 47400 (1977) | 150 (1941) | 2650 | 379 | 455 | 696 | 750 | 1270 | 2270 | 2480 | 3510 | 8230 |
| 2026-03-29 08:30 | 5.83 | 349 | 47400 (1977) | 150 (1941) | 2650 | 379 | 455 | 696 | 750 | 1270 | 2270 | 2480 | 3510 | 8230 |
| 2026-03-29 08:00 | 5.83 | 349 | 47400 (1977) | 150 (1941) | 2650 | 379 | 455 | 696 | 750 | 1270 | 2270 | 2480 | 3510 | 8230 |
| 2026-03-29 07:30 | 5.84 | 352 | 47400 (1977) | 150 (1941) | 2650 | 379 | 455 | 696 | 750 | 1270 | 2270 | 2480 | 3510 | 8230 |
| 2026-03-29 07:00 | 5.84 | 352 | 47400 (1977) | 150 (1941) | 2650 | 379 | 455 | 696 | 750 | 1270 | 2270 | 2480 | 3510 | 8230 |
| 2026-03-29 06:30 | 5.84 | 352 | 47400 (1977) | 150 (1941) | 2650 | 379 | 455 | 696 | 750 | 1270 | 2270 | 2480 | 3510 | 8230 |
| 2026-03-29 06:00 | 5.84 | 352 | 47400 (1977) | 150 (1941) | 2650 | 379 | 455 | 696 | 750 | 1270 | 2270 | 2480 | 3510 | 8230 |
| 2026-03-29 05:30 | 5.84 | 352 | 47400 (1977) | 150 (1941) | 2650 | 379 | 455 | 696 | 750 | 1270 | 2270 | 2480 | 3510 | 8230 |
| 2026-03-29 05:00 | 5.84 | 352 | 47400 (1977) | 150 (1941) | 2650 | 379 | 455 | 696 | 750 | 1270 | 2270 | 2480 | 3510 | 8230 |
| 2026-03-29 04:30 | 5.84 | 352 | 47400 (1977) | 150 (1941) | 2650 | 379 | 455 | 696 | 750 | 1270 | 2270 | 2480 | 3510 | 8230 |
| 2026-03-29 04:00 | 5.84 | 352 | 47400 (1977) | 150 (1941) | 2650 | 379 | 455 | 696 | 750 | 1270 | 2270 | 2480 | 3510 | 8230 |
| 2026-03-29 03:30 | 5.85 | 355 | 47400 (1977) | 150 (1941) | 2650 | 379 | 455 | 696 | 750 | 1270 | 2270 | 2480 | 3510 | 8230 |
| 2026-03-29 03:00 | 5.85 | 355 | 47400 (1977) | 150 (1941) | 2650 | 379 | 455 | 696 | 750 | 1270 | 2270 | 2480 | 3510 | 8230 |
| 2026-03-29 02:30 | 5.85 | 355 | 47400 (1977) | 150 (1941) | 2650 | 379 | 455 | 696 | 750 | 1270 | 2270 | 2480 | 3510 | 8230 |
| 2026-03-29 02:00 | 5.85 | 355 | 47400 (1977) | 150 (1941) | 2650 | 379 | 455 | 696 | 750 | 1270 | 2270 | 2480 | 3510 | 8230 |
| 2026-03-29 01:30 | 5.85 | 355 | 47400 (1977) | 150 (1941) | 2650 | 379 | 455 | 696 | 750 | 1270 | 2270 | 2480 | 3510 | 8230 |
| 2026-03-29 01:00 | 5.85 | 355 | 47400 (1977) | 150 (1941) | 2650 | 379 | 455 | 696 | 750 | 1270 | 2270 | 2480 | 3510 | 8230 |
| 2026-03-29 00:30 | 5.85 | 355 | 47400 (1977) | 150 (1941) | 2650 | 379 | 455 | 696 | 750 | 1270 | 2270 | 2480 | 3510 | 8230 |
| 2026-03-29 00:00 | 5.85 | 355 | 47400 (1977) | 150 (1941) | 2650 | 379 | 455 | 696 | 750 | 1270 | 2270 | 2480 | 3510 | 8230 |
| 2026-03-28 23:30 | 5.85 | 355 | 47400 (1977) | 150 (1941) | 2650 | 379 | 455 | 696 | 750 | 1270 | 2270 | 2480 | 3510 | 8230 |
| 2026-03-28 23:00 | 5.85 | 355 | 47400 (1977) | 150 (1941) | 2650 | 379 | 455 | 696 | 750 | 1270 | 2270 | 2480 | 3510 | 8230 |
| 2026-03-28 22:30 | 5.85 | 355 | 49200 (1977) | 153 (1941) | 2350 | 349 | 486 | 665 | 761 | 1180 | 2520 | 2720 | 4040 | 5700 |
| 2026-03-28 22:00 | 5.86 | 358 | 49200 (1977) | 153 (1941) | 2350 | 349 | 486 | 665 | 761 | 1180 | 2520 | 2720 | 4040 | 5700 |
| 2026-03-28 21:30 | 5.86 | 358 | 49200 (1977) | 153 (1941) | 2350 | 349 | 486 | 665 | 761 | 1180 | 2520 | 2720 | 4040 | 5700 |
| 2026-03-28 21:00 | 5.86 | 358 | 49200 (1977) | 153 (1941) | 2350 | 349 | 486 | 665 | 761 | 1180 | 2520 | 2720 | 4040 | 5700 |
| 2026-03-28 20:30 | 5.86 | 358 | 49200 (1977) | 153 (1941) | 2350 | 349 | 486 | 665 | 761 | 1180 | 2520 | 2720 | 4040 | 5700 |
| 2026-03-28 20:00 | 5.86 | 358 | 49200 (1977) | 153 (1941) | 2350 | 349 | 486 | 665 | 761 | 1180 | 2520 | 2720 | 4040 | 5700 |
| 2026-03-28 19:30 | 5.86 | 358 | 49200 (1977) | 153 (1941) | 2350 | 349 | 486 | 665 | 761 | 1180 | 2520 | 2720 | 4040 | 5700 |
| 2026-03-28 19:00 | 5.87 | 362 | 49200 (1977) | 153 (1941) | 2350 | 349 | 486 | 665 | 761 | 1180 | 2520 | 2720 | 4040 | 5700 |
| 2026-03-28 18:30 | 5.85 | 355 | 49200 (1977) | 153 (1941) | 2350 | 349 | 486 | 665 | 761 | 1180 | 2520 | 2720 | 4040 | 5700 |
| 2026-03-28 18:00 | 5.82 | 346 | 49200 (1977) | 153 (1941) | 2350 | 349 | 486 | 665 | 761 | 1180 | 2520 | 2720 | 4040 | 5700 |
| 2026-03-28 17:30 | 5.85 | 355 | 49200 (1977) | 153 (1941) | 2350 | 349 | 486 | 665 | 761 | 1180 | 2520 | 2720 | 4040 | 5700 |
| 2026-03-28 17:00 | 5.82 | 346 | 49200 (1977) | 153 (1941) | 2350 | 349 | 486 | 665 | 761 | 1180 | 2520 | 2720 | 4040 | 5700 |
| 2026-03-28 16:30 | 5.87 | 362 | 49200 (1977) | 153 (1941) | 2350 | 349 | 486 | 665 | 761 | 1180 | 2520 | 2720 | 4040 | 5700 |
| 2026-03-28 16:00 | 5.88 | 365 | 49200 (1977) | 153 (1941) | 2350 | 349 | 486 | 665 | 761 | 1180 | 2520 | 2720 | 4040 | 5700 |
| 2026-03-28 15:30 | 5.83 | 349 | 49200 (1977) | 153 (1941) | 2350 | 349 | 486 | 665 | 761 | 1180 | 2520 | 2720 | 4040 | 5700 |
| 2026-03-28 15:00 | 5.87 | 362 | 49200 (1977) | 153 (1941) | 2350 | 349 | 486 | 665 | 761 | 1180 | 2520 | 2720 | 4040 | 5700 |
| 2026-03-28 14:30 | 5.88 | 365 | 49200 (1977) | 153 (1941) | 2350 | 349 | 486 | 665 | 761 | 1180 | 2520 | 2720 | 4040 | 5700 |
| 2026-03-28 14:00 | 5.88 | 365 | 49200 (1977) | 153 (1941) | 2350 | 349 | 486 | 665 | 761 | 1180 | 2520 | 2720 | 4040 | 5700 |
| 2026-03-28 13:30 | 5.88 | 365 | 49200 (1977) | 153 (1941) | 2350 | 349 | 486 | 665 | 761 | 1180 | 2520 | 2720 | 4040 | 5700 |
| 2026-03-28 13:00 | 5.88 | 365 | 49200 (1977) | 153 (1941) | 2350 | 349 | 486 | 665 | 761 | 1180 | 2520 | 2720 | 4040 | 5700 |
| 2026-03-28 12:30 | 5.85 | 355 | 49200 (1977) | 153 (1941) | 2350 | 349 | 486 | 665 | 761 | 1180 | 2520 | 2720 | 4040 | 5700 |
| 2026-03-28 12:00 | 5.86 | 358 | 49200 (1977) | 153 (1941) | 2350 | 349 | 486 | 665 | 761 | 1180 | 2520 | 2720 | 4040 | 5700 |
| 2026-03-28 11:30 | 5.86 | 358 | 49200 (1977) | 153 (1941) | 2350 | 349 | 486 | 665 | 761 | 1180 | 2520 | 2720 | 4040 | 5700 |
| 2026-03-28 11:00 | 5.87 | 362 | 49200 (1977) | 153 (1941) | 2350 | 349 | 486 | 665 | 761 | 1180 | 2520 | 2720 | 4040 | 5700 |
| 2026-03-28 10:30 | 5.88 | 365 | 49200 (1977) | 153 (1941) | 2350 | 349 | 486 | 665 | 761 | 1180 | 2520 | 2720 | 4040 | 5700 |
| 2026-03-28 10:00 | 5.88 | 365 | 49200 (1977) | 153 (1941) | 2350 | 349 | 486 | 665 | 761 | 1180 | 2520 | 2720 | 4040 | 5700 |
| 2026-03-28 09:30 | 5.85 | 355 | 49200 (1977) | 153 (1941) | 2350 | 349 | 486 | 665 | 761 | 1180 | 2520 | 2720 | 4040 | 5700 |
| 2026-03-28 09:00 | 5.89 | 368 | 49200 (1977) | 153 (1941) | 2350 | 349 | 486 | 665 | 761 | 1180 | 2520 | 2720 | 4040 | 5700 |
| 2026-03-28 08:30 | 5.90 | 372 | 49200 (1977) | 153 (1941) | 2350 | 349 | 486 | 665 | 761 | 1180 | 2520 | 2720 | 4040 | 5700 |
| 2026-03-28 08:00 | 5.90 | 372 | 49200 (1977) | 153 (1941) | 2350 | 349 | 486 | 665 | 761 | 1180 | 2520 | 2720 | 4040 | 5700 |
| 2026-03-28 07:30 | 5.90 | 372 | 49200 (1977) | 153 (1941) | 2350 | 349 | 486 | 665 | 761 | 1180 | 2520 | 2720 | 4040 | 5700 |
| 2026-03-28 07:00 | 5.90 | 372 | 49200 (1977) | 153 (1941) | 2350 | 349 | 486 | 665 | 761 | 1180 | 2520 | 2720 | 4040 | 5700 |
| 2026-03-28 06:30 | 5.90 | 372 | 49200 (1977) | 153 (1941) | 2350 | 349 | 486 | 665 | 761 | 1180 | 2520 | 2720 | 4040 | 5700 |
| 2026-03-28 06:00 | 5.91 | 375 | 49200 (1977) | 153 (1941) | 2350 | 349 | 486 | 665 | 761 | 1180 | 2520 | 2720 | 4040 | 5700 |
| 2026-03-28 05:30 | 5.91 | 375 | 49200 (1977) | 153 (1941) | 2350 | 349 | 486 | 665 | 761 | 1180 | 2520 | 2720 | 4040 | 5700 |
| 2026-03-28 05:00 | 5.91 | 375 | 49200 (1977) | 153 (1941) | 2350 | 349 | 486 | 665 | 761 | 1180 | 2520 | 2720 | 4040 | 5700 |
| 2026-03-28 04:30 | 5.91 | 375 | 49200 (1977) | 153 (1941) | 2350 | 349 | 486 | 665 | 761 | 1180 | 2520 | 2720 | 4040 | 5700 |
| 2026-03-28 04:00 | 5.91 | 375 | 49200 (1977) | 153 (1941) | 2350 | 349 | 486 | 665 | 761 | 1180 | 2520 | 2720 | 4040 | 5700 |
| 2026-03-28 03:30 | 5.91 | 375 | 49200 (1977) | 153 (1941) | 2350 | 349 | 486 | 665 | 761 | 1180 | 2520 | 2720 | 4040 | 5700 |
| 2026-03-28 03:00 | 5.91 | 375 | 49200 (1977) | 153 (1941) | 2350 | 349 | 486 | 665 | 761 | 1180 | 2520 | 2720 | 4040 | 5700 |
| 2026-03-28 02:30 | 5.90 | 372 | 49200 (1977) | 153 (1941) | 2350 | 349 | 486 | 665 | 761 | 1180 | 2520 | 2720 | 4040 | 5700 |
| 2026-03-28 02:00 | 5.90 | 372 | 49200 (1977) | 153 (1941) | 2350 | 349 | 486 | 665 | 761 | 1180 | 2520 | 2720 | 4040 | 5700 |
| 2026-03-28 01:30 | 5.91 | 375 | 49200 (1977) | 153 (1941) | 2350 | 349 | 486 | 665 | 761 | 1180 | 2520 | 2720 | 4040 | 5700 |
| 2026-03-28 01:00 | 5.92 | 378 | 49200 (1977) | 153 (1941) | 2350 | 349 | 486 | 665 | 761 | 1180 | 2520 | 2720 | 4040 | 5700 |
| 2026-03-28 00:30 | 5.91 | 375 | 49200 (1977) | 153 (1941) | 2350 | 349 | 486 | 665 | 761 | 1180 | 2520 | 2720 | 4040 | 5700 |
| 2026-03-28 00:00 | 5.92 | 378 | 49200 (1977) | 153 (1941) | 2350 | 349 | 486 | 665 | 761 | 1180 | 2520 | 2720 | 4040 | 5700 |
| 2026-03-27 23:30 | 5.91 | 375 | 49200 (1977) | 153 (1941) | 2350 | 349 | 486 | 665 | 761 | 1180 | 2520 | 2720 | 4040 | 5700 |
| 2026-03-27 23:00 | 5.91 | 375 | 49200 (1977) | 153 (1941) | 2350 | 349 | 486 | 665 | 761 | 1180 | 2520 | 2720 | 4040 | 5700 |
| 2026-03-27 22:30 | 5.93 | 381 | 12400 (1949) | 157 (1941) | 1930 | 374 | 461 | 666 | 747 | 1320 | 2390 | 2620 | 4370 | 6130 |
| 2026-03-27 22:00 | 5.93 | 381 | 12400 (1949) | 157 (1941) | 1930 | 374 | 461 | 666 | 747 | 1320 | 2390 | 2620 | 4370 | 6130 |
| 2026-03-27 21:30 | 5.93 | 381 | 12400 (1949) | 157 (1941) | 1930 | 374 | 461 | 666 | 747 | 1320 | 2390 | 2620 | 4370 | 6130 |
| 2026-03-27 21:00 | 5.92 | 378 | 12400 (1949) | 157 (1941) | 1930 | 374 | 461 | 666 | 747 | 1320 | 2390 | 2620 | 4370 | 6130 |
| 2026-03-27 20:30 | 5.91 | 375 | 12400 (1949) | 157 (1941) | 1930 | 374 | 461 | 666 | 747 | 1320 | 2390 | 2620 | 4370 | 6130 |
| 2026-03-27 20:00 | 5.89 | 368 | 12400 (1949) | 157 (1941) | 1930 | 374 | 461 | 666 | 747 | 1320 | 2390 | 2620 | 4370 | 6130 |
| 2026-03-27 19:30 | 5.91 | 375 | 12400 (1949) | 157 (1941) | 1930 | 374 | 461 | 666 | 747 | 1320 | 2390 | 2620 | 4370 | 6130 |
| 2026-03-27 19:00 | 5.90 | 372 | 12400 (1949) | 157 (1941) | 1930 | 374 | 461 | 666 | 747 | 1320 | 2390 | 2620 | 4370 | 6130 |
| 2026-03-27 18:30 | 5.90 | 372 | 12400 (1949) | 157 (1941) | 1930 | 374 | 461 | 666 | 747 | 1320 | 2390 | 2620 | 4370 | 6130 |
| 2026-03-27 18:00 | 5.90 | 372 | 12400 (1949) | 157 (1941) | 1930 | 374 | 461 | 666 | 747 | 1320 | 2390 | 2620 | 4370 | 6130 |
| 2026-03-27 17:30 | 5.89 | 368 | 12400 (1949) | 157 (1941) | 1930 | 374 | 461 | 666 | 747 | 1320 | 2390 | 2620 | 4370 | 6130 |
| 2026-03-27 17:00 | 5.89 | 368 | 12400 (1949) | 157 (1941) | 1930 | 374 | 461 | 666 | 747 | 1320 | 2390 | 2620 | 4370 | 6130 |
| 2026-03-27 16:30 | 5.88 | 365 | 12400 (1949) | 157 (1941) | 1930 | 374 | 461 | 666 | 747 | 1320 | 2390 | 2620 | 4370 | 6130 |
| 2026-03-27 16:00 | 5.95 | 388 | 12400 (1949) | 157 (1941) | 1930 | 374 | 461 | 666 | 747 | 1320 | 2390 | 2620 | 4370 | 6130 |
| 2026-03-27 15:30 | 5.90 | 372 | 12400 (1949) | 157 (1941) | 1930 | 374 | 461 | 666 | 747 | 1320 | 2390 | 2620 | 4370 | 6130 |
| 2026-03-27 15:00 | 5.90 | 372 | 12400 (1949) | 157 (1941) | 1930 | 374 | 461 | 666 | 747 | 1320 | 2390 | 2620 | 4370 | 6130 |
| 2026-03-27 14:30 | 5.90 | 372 | 12400 (1949) | 157 (1941) | 1930 | 374 | 461 | 666 | 747 | 1320 | 2390 | 2620 | 4370 | 6130 |
| 2026-03-27 14:00 | 5.91 | 375 | 12400 (1949) | 157 (1941) | 1930 | 374 | 461 | 666 | 747 | 1320 | 2390 | 2620 | 4370 | 6130 |
| 2026-03-27 13:30 | 5.93 | 381 | 12400 (1949) | 157 (1941) | 1930 | 374 | 461 | 666 | 747 | 1320 | 2390 | 2620 | 4370 | 6130 |
| 2026-03-27 13:00 | 5.89 | 368 | 12400 (1949) | 157 (1941) | 1930 | 374 | 461 | 666 | 747 | 1320 | 2390 | 2620 | 4370 | 6130 |
| 2026-03-27 12:30 | 5.92 | 378 | 12400 (1949) | 157 (1941) | 1930 | 374 | 461 | 666 | 747 | 1320 | 2390 | 2620 | 4370 | 6130 |
| 2026-03-27 12:00 | 5.92 | 378 | 12400 (1949) | 157 (1941) | 1930 | 374 | 461 | 666 | 747 | 1320 | 2390 | 2620 | 4370 | 6130 |
| 2026-03-27 11:30 | 5.92 | 378 | 12400 (1949) | 157 (1941) | 1930 | 374 | 461 | 666 | 747 | 1320 | 2390 | 2620 | 4370 | 6130 |
| 2026-03-27 11:00 | 5.91 | 375 | 12400 (1949) | 157 (1941) | 1930 | 374 | 461 | 666 | 747 | 1320 | 2390 | 2620 | 4370 | 6130 |
| 2026-03-27 10:30 | 5.95 | 388 | 12400 (1949) | 157 (1941) | 1930 | 374 | 461 | 666 | 747 | 1320 | 2390 | 2620 | 4370 | 6130 |
| 2026-03-27 10:00 | 5.93 | 381 | 12400 (1949) | 157 (1941) | 1930 | 374 | 461 | 666 | 747 | 1320 | 2390 | 2620 | 4370 | 6130 |
| 2026-03-27 09:30 | 5.89 | 368 | 12400 (1949) | 157 (1941) | 1930 | 374 | 461 | 666 | 747 | 1320 | 2390 | 2620 | 4370 | 6130 |
| 2026-03-27 09:00 | 5.95 | 388 | 12400 (1949) | 157 (1941) | 1930 | 374 | 461 | 666 | 747 | 1320 | 2390 | 2620 | 4370 | 6130 |
| 2026-03-27 08:30 | 5.92 | 378 | 12400 (1949) | 157 (1941) | 1930 | 374 | 461 | 666 | 747 | 1320 | 2390 | 2620 | 4370 | 6130 |
| 2026-03-27 08:00 | 5.92 | 378 | 12400 (1949) | 157 (1941) | 1930 | 374 | 461 | 666 | 747 | 1320 | 2390 | 2620 | 4370 | 6130 |
| 2026-03-27 07:30 | 5.91 | 375 | 12400 (1949) | 157 (1941) | 1930 | 374 | 461 | 666 | 747 | 1320 | 2390 | 2620 | 4370 | 6130 |
| 2026-03-27 07:00 | 5.95 | 388 | 12400 (1949) | 157 (1941) | 1930 | 374 | 461 | 666 | 747 | 1320 | 2390 | 2620 | 4370 | 6130 |
| 2026-03-27 06:30 | 5.94 | 385 | 12400 (1949) | 157 (1941) | 1930 | 374 | 461 | 666 | 747 | 1320 | 2390 | 2620 | 4370 | 6130 |
| 2026-03-27 06:00 | 5.97 | 395 | 12400 (1949) | 157 (1941) | 1930 | 374 | 461 | 666 | 747 | 1320 | 2390 | 2620 | 4370 | 6130 |
| 2026-03-27 05:30 | 5.93 | 381 | 12400 (1949) | 157 (1941) | 1930 | 374 | 461 | 666 | 747 | 1320 | 2390 | 2620 | 4370 | 6130 |
| 2026-03-27 05:00 | 5.94 | 385 | 12400 (1949) | 157 (1941) | 1930 | 374 | 461 | 666 | 747 | 1320 | 2390 | 2620 | 4370 | 6130 |
| 2026-03-27 04:30 | 5.95 | 388 | 12400 (1949) | 157 (1941) | 1930 | 374 | 461 | 666 | 747 | 1320 | 2390 | 2620 | 4370 | 6130 |
| 2026-03-27 04:00 | 5.94 | 385 | 12400 (1949) | 157 (1941) | 1930 | 374 | 461 | 666 | 747 | 1320 | 2390 | 2620 | 4370 | 6130 |
| 2026-03-27 03:30 | 5.95 | 388 | 12400 (1949) | 157 (1941) | 1930 | 374 | 461 | 666 | 747 | 1320 | 2390 | 2620 | 4370 | 6130 |
| 2026-03-27 03:00 | 5.95 | 388 | 12400 (1949) | 157 (1941) | 1930 | 374 | 461 | 666 | 747 | 1320 | 2390 | 2620 | 4370 | 6130 |
| 2026-03-27 02:30 | 5.98 | 398 | 12400 (1949) | 157 (1941) | 1930 | 374 | 461 | 666 | 747 | 1320 | 2390 | 2620 | 4370 | 6130 |
| 2026-03-27 02:00 | 5.99 | 402 | 12400 (1949) | 157 (1941) | 1930 | 374 | 461 | 666 | 747 | 1320 | 2390 | 2620 | 4370 | 6130 |
| 2026-03-27 01:30 | 5.99 | 402 | 12400 (1949) | 157 (1941) | 1930 | 374 | 461 | 666 | 747 | 1320 | 2390 | 2620 | 4370 | 6130 |
| 2026-03-27 01:00 | 5.99 | 402 | 12400 (1949) | 157 (1941) | 1930 | 374 | 461 | 666 | 747 | 1320 | 2390 | 2620 | 4370 | 6130 |
| 2026-03-27 00:30 | 5.99 | 402 | 12400 (1949) | 157 (1941) | 1930 | 374 | 461 | 666 | 747 | 1320 | 2390 | 2620 | 4370 | 6130 |
| 2026-03-27 00:00 | 5.99 | 402 | 12400 (1949) | 157 (1941) | 1930 | 374 | 461 | 666 | 747 | 1320 | 2390 | 2620 | 4370 | 6130 |
| 2026-03-26 23:30 | 5.99 | 402 | 12400 (1949) | 157 (1941) | 1930 | 374 | 461 | 666 | 747 | 1320 | 2390 | 2620 | 4370 | 6130 |
| 2026-03-26 23:00 | 5.99 | 402 | 12400 (1949) | 157 (1941) | 1930 | 374 | 461 | 666 | 747 | 1320 | 2390 | 2620 | 4370 | 6130 |
| 2026-03-26 22:30 | 6.00 | 405 | 10500 (1957) | 164 (1941) | 1940 | 402 | 453 | 598 | 671 | 1080 | 2050 | 2330 | 5400 | 7030 |
| 2026-03-26 22:00 | 6.00 | 405 | 10500 (1957) | 164 (1941) | 1940 | 402 | 453 | 598 | 671 | 1080 | 2050 | 2330 | 5400 | 7030 |
| 2026-03-26 21:30 | 6.00 | 405 | 10500 (1957) | 164 (1941) | 1940 | 402 | 453 | 598 | 671 | 1080 | 2050 | 2330 | 5400 | 7030 |
| 2026-03-26 21:00 | 6.00 | 405 | 10500 (1957) | 164 (1941) | 1940 | 402 | 453 | 598 | 671 | 1080 | 2050 | 2330 | 5400 | 7030 |
| 2026-03-26 20:30 | 6.00 | 405 | 10500 (1957) | 164 (1941) | 1940 | 402 | 453 | 598 | 671 | 1080 | 2050 | 2330 | 5400 | 7030 |
| 2026-03-26 20:00 | 5.99 | 402 | 10500 (1957) | 164 (1941) | 1940 | 402 | 453 | 598 | 671 | 1080 | 2050 | 2330 | 5400 | 7030 |
| 2026-03-26 19:30 | 5.98 | 398 | 10500 (1957) | 164 (1941) | 1940 | 402 | 453 | 598 | 671 | 1080 | 2050 | 2330 | 5400 | 7030 |
| 2026-03-26 19:00 | 5.99 | 402 | 10500 (1957) | 164 (1941) | 1940 | 402 | 453 | 598 | 671 | 1080 | 2050 | 2330 | 5400 | 7030 |
| 2026-03-26 18:30 | 5.98 | 398 | 10500 (1957) | 164 (1941) | 1940 | 402 | 453 | 598 | 671 | 1080 | 2050 | 2330 | 5400 | 7030 |
| 2026-03-26 18:00 | 5.97 | 395 | 10500 (1957) | 164 (1941) | 1940 | 402 | 453 | 598 | 671 | 1080 | 2050 | 2330 | 5400 | 7030 |
| 2026-03-26 17:30 | 5.96 | 392 | 10500 (1957) | 164 (1941) | 1940 | 402 | 453 | 598 | 671 | 1080 | 2050 | 2330 | 5400 | 7030 |
| 2026-03-26 17:00 | 5.97 | 395 | 10500 (1957) | 164 (1941) | 1940 | 402 | 453 | 598 | 671 | 1080 | 2050 | 2330 | 5400 | 7030 |
| 2026-03-26 16:30 | 5.96 | 392 | 10500 (1957) | 164 (1941) | 1940 | 402 | 453 | 598 | 671 | 1080 | 2050 | 2330 | 5400 | 7030 |
| 2026-03-26 16:00 | 5.96 | 392 | 10500 (1957) | 164 (1941) | 1940 | 402 | 453 | 598 | 671 | 1080 | 2050 | 2330 | 5400 | 7030 |
| 2026-03-26 15:30 | 5.97 | 395 | 10500 (1957) | 164 (1941) | 1940 | 402 | 453 | 598 | 671 | 1080 | 2050 | 2330 | 5400 | 7030 |
| 2026-03-26 15:00 | 5.97 | 395 | 10500 (1957) | 164 (1941) | 1940 | 402 | 453 | 598 | 671 | 1080 | 2050 | 2330 | 5400 | 7030 |
| 2026-03-26 14:30 | 5.97 | 395 | 10500 (1957) | 164 (1941) | 1940 | 402 | 453 | 598 | 671 | 1080 | 2050 | 2330 | 5400 | 7030 |
| 2026-03-26 14:00 | 5.96 | 392 | 10500 (1957) | 164 (1941) | 1940 | 402 | 453 | 598 | 671 | 1080 | 2050 | 2330 | 5400 | 7030 |
| 2026-03-26 13:30 | 5.98 | 398 | 10500 (1957) | 164 (1941) | 1940 | 402 | 453 | 598 | 671 | 1080 | 2050 | 2330 | 5400 | 7030 |
| 2026-03-26 13:00 | 5.99 | 402 | 10500 (1957) | 164 (1941) | 1940 | 402 | 453 | 598 | 671 | 1080 | 2050 | 2330 | 5400 | 7030 |
| 2026-03-26 12:30 | 5.98 | 398 | 10500 (1957) | 164 (1941) | 1940 | 402 | 453 | 598 | 671 | 1080 | 2050 | 2330 | 5400 | 7030 |
| 2026-03-26 12:00 | 5.98 | 398 | 10500 (1957) | 164 (1941) | 1940 | 402 | 453 | 598 | 671 | 1080 | 2050 | 2330 | 5400 | 7030 |
| 2026-03-26 11:30 | 6.01 | 409 | 10500 (1957) | 164 (1941) | 1940 | 402 | 453 | 598 | 671 | 1080 | 2050 | 2330 | 5400 | 7030 |
| 2026-03-26 11:00 | 6.02 | 412 | 10500 (1957) | 164 (1941) | 1940 | 402 | 453 | 598 | 671 | 1080 | 2050 | 2330 | 5400 | 7030 |
| 2026-03-26 10:30 | 6.01 | 409 | 10500 (1957) | 164 (1941) | 1940 | 402 | 453 | 598 | 671 | 1080 | 2050 | 2330 | 5400 | 7030 |
| 2026-03-26 10:00 | 6.02 | 412 | 10500 (1957) | 164 (1941) | 1940 | 402 | 453 | 598 | 671 | 1080 | 2050 | 2330 | 5400 | 7030 |
| 2026-03-26 09:30 | 6.03 | 416 | 10500 (1957) | 164 (1941) | 1940 | 402 | 453 | 598 | 671 | 1080 | 2050 | 2330 | 5400 | 7030 |
| 2026-03-26 09:00 | 6.03 | 416 | 10500 (1957) | 164 (1941) | 1940 | 402 | 453 | 598 | 671 | 1080 | 2050 | 2330 | 5400 | 7030 |
| 2026-03-26 08:30 | 6.03 | 416 | 10500 (1957) | 164 (1941) | 1940 | 402 | 453 | 598 | 671 | 1080 | 2050 | 2330 | 5400 | 7030 |
| 2026-03-26 08:00 | 6.03 | 416 | 10500 (1957) | 164 (1941) | 1940 | 402 | 453 | 598 | 671 | 1080 | 2050 | 2330 | 5400 | 7030 |
| 2026-03-26 07:30 | 6.04 | 419 | 10500 (1957) | 164 (1941) | 1940 | 402 | 453 | 598 | 671 | 1080 | 2050 | 2330 | 5400 | 7030 |
| 2026-03-26 07:00 | 6.04 | 419 | 10500 (1957) | 164 (1941) | 1940 | 402 | 453 | 598 | 671 | 1080 | 2050 | 2330 | 5400 | 7030 |
| 2026-03-26 06:30 | 6.04 | 419 | 10500 (1957) | 164 (1941) | 1940 | 402 | 453 | 598 | 671 | 1080 | 2050 | 2330 | 5400 | 7030 |
| 2026-03-26 06:00 | 6.04 | 419 | 10500 (1957) | 164 (1941) | 1940 | 402 | 453 | 598 | 671 | 1080 | 2050 | 2330 | 5400 | 7030 |
| 2026-03-26 05:30 | 6.04 | 419 | 10500 (1957) | 164 (1941) | 1940 | 402 | 453 | 598 | 671 | 1080 | 2050 | 2330 | 5400 | 7030 |
| 2026-03-26 05:00 | 6.04 | 419 | 10500 (1957) | 164 (1941) | 1940 | 402 | 453 | 598 | 671 | 1080 | 2050 | 2330 | 5400 | 7030 |
| 2026-03-26 04:30 | 6.05 | 423 | 10500 (1957) | 164 (1941) | 1940 | 402 | 453 | 598 | 671 | 1080 | 2050 | 2330 | 5400 | 7030 |
| 2026-03-26 04:00 | 6.05 | 423 | 10500 (1957) | 164 (1941) | 1940 | 402 | 453 | 598 | 671 | 1080 | 2050 | 2330 | 5400 | 7030 |
| 2026-03-26 03:30 | 6.05 | 423 | 10500 (1957) | 164 (1941) | 1940 | 402 | 453 | 598 | 671 | 1080 | 2050 | 2330 | 5400 | 7030 |
| 2026-03-26 03:00 | 6.05 | 423 | 10500 (1957) | 164 (1941) | 1940 | 402 | 453 | 598 | 671 | 1080 | 2050 | 2330 | 5400 | 7030 |
| 2026-03-26 02:30 | 6.05 | 423 | 10500 (1957) | 164 (1941) | 1940 | 402 | 453 | 598 | 671 | 1080 | 2050 | 2330 | 5400 | 7030 |
| 2026-03-26 02:00 | 6.05 | 423 | 10500 (1957) | 164 (1941) | 1940 | 402 | 453 | 598 | 671 | 1080 | 2050 | 2330 | 5400 | 7030 |
| 2026-03-26 01:30 | 6.05 | 423 | 10500 (1957) | 164 (1941) | 1940 | 402 | 453 | 598 | 671 | 1080 | 2050 | 2330 | 5400 | 7030 |
| 2026-03-26 01:00 | 6.06 | 426 | 10500 (1957) | 164 (1941) | 1940 | 402 | 453 | 598 | 671 | 1080 | 2050 | 2330 | 5400 | 7030 |
| 2026-03-26 00:30 | 6.06 | 426 | 10500 (1957) | 164 (1941) | 1940 | 402 | 453 | 598 | 671 | 1080 | 2050 | 2330 | 5400 | 7030 |
| 2026-03-26 00:00 | 6.06 | 426 | 10500 (1957) | 164 (1941) | 1940 | 402 | 453 | 598 | 671 | 1080 | 2050 | 2330 | 5400 | 7030 |
| 2026-03-25 23:30 | 6.06 | 426 | 10500 (1957) | 164 (1941) | 1940 | 402 | 453 | 598 | 671 | 1080 | 2050 | 2330 | 5400 | 7030 |
| 2026-03-25 23:00 | 6.06 | 426 | 10500 (1957) | 164 (1941) | 1940 | 402 | 453 | 598 | 671 | 1080 | 2050 | 2330 | 5400 | 7030 |
| 2026-03-25 22:30 | 6.07 | 430 | 41900 (2023) | 167 (1941) | 2220 | 363 | 451 | 603 | 687 | 1090 | 2120 | 2310 | 3540 | 8650 |
| 2026-03-25 22:00 | 6.07 | 430 | 41900 (2023) | 167 (1941) | 2220 | 363 | 451 | 603 | 687 | 1090 | 2120 | 2310 | 3540 | 8650 |
| 2026-03-25 21:30 | 6.07 | 430 | 41900 (2023) | 167 (1941) | 2220 | 363 | 451 | 603 | 687 | 1090 | 2120 | 2310 | 3540 | 8650 |
| 2026-03-25 21:00 | 6.07 | 430 | 41900 (2023) | 167 (1941) | 2220 | 363 | 451 | 603 | 687 | 1090 | 2120 | 2310 | 3540 | 8650 |
| 2026-03-25 20:30 | 6.07 | 430 | 41900 (2023) | 167 (1941) | 2220 | 363 | 451 | 603 | 687 | 1090 | 2120 | 2310 | 3540 | 8650 |
| 2026-03-25 20:00 | 6.07 | 430 | 41900 (2023) | 167 (1941) | 2220 | 363 | 451 | 603 | 687 | 1090 | 2120 | 2310 | 3540 | 8650 |
| 2026-03-25 19:30 | 6.07 | 430 | 41900 (2023) | 167 (1941) | 2220 | 363 | 451 | 603 | 687 | 1090 | 2120 | 2310 | 3540 | 8650 |
| 2026-03-25 19:00 | 6.08 | 434 | 41900 (2023) | 167 (1941) | 2220 | 363 | 451 | 603 | 687 | 1090 | 2120 | 2310 | 3540 | 8650 |
| 2026-03-25 18:30 | 6.07 | 430 | 41900 (2023) | 167 (1941) | 2220 | 363 | 451 | 603 | 687 | 1090 | 2120 | 2310 | 3540 | 8650 |
| 2026-03-25 18:00 | 6.08 | 434 | 41900 (2023) | 167 (1941) | 2220 | 363 | 451 | 603 | 687 | 1090 | 2120 | 2310 | 3540 | 8650 |
| 2026-03-25 17:30 | 6.05 | 423 | 41900 (2023) | 167 (1941) | 2220 | 363 | 451 | 603 | 687 | 1090 | 2120 | 2310 | 3540 | 8650 |
| 2026-03-25 17:00 | 6.05 | 423 | 41900 (2023) | 167 (1941) | 2220 | 363 | 451 | 603 | 687 | 1090 | 2120 | 2310 | 3540 | 8650 |
| 2026-03-25 16:30 | 6.06 | 426 | 41900 (2023) | 167 (1941) | 2220 | 363 | 451 | 603 | 687 | 1090 | 2120 | 2310 | 3540 | 8650 |
| 2026-03-25 16:00 | 6.04 | 419 | 41900 (2023) | 167 (1941) | 2220 | 363 | 451 | 603 | 687 | 1090 | 2120 | 2310 | 3540 | 8650 |
| 2026-03-25 15:30 | 6.09 | 437 | 41900 (2023) | 167 (1941) | 2220 | 363 | 451 | 603 | 687 | 1090 | 2120 | 2310 | 3540 | 8650 |
| 2026-03-25 15:00 | 6.06 | 426 | 41900 (2023) | 167 (1941) | 2220 | 363 | 451 | 603 | 687 | 1090 | 2120 | 2310 | 3540 | 8650 |
| 2026-03-25 14:30 | 6.07 | 430 | 41900 (2023) | 167 (1941) | 2220 | 363 | 451 | 603 | 687 | 1090 | 2120 | 2310 | 3540 | 8650 |
| 2026-03-25 14:00 | 6.06 | 426 | 41900 (2023) | 167 (1941) | 2220 | 363 | 451 | 603 | 687 | 1090 | 2120 | 2310 | 3540 | 8650 |
| 2026-03-25 13:30 | 6.08 | 434 | 41900 (2023) | 167 (1941) | 2220 | 363 | 451 | 603 | 687 | 1090 | 2120 | 2310 | 3540 | 8650 |
| 2026-03-25 13:00 | 6.04 | 419 | 41900 (2023) | 167 (1941) | 2220 | 363 | 451 | 603 | 687 | 1090 | 2120 | 2310 | 3540 | 8650 |
| 2026-03-25 12:30 | 6.06 | 426 | 41900 (2023) | 167 (1941) | 2220 | 363 | 451 | 603 | 687 | 1090 | 2120 | 2310 | 3540 | 8650 |
| 2026-03-25 12:00 | 6.10 | 441 | 41900 (2023) | 167 (1941) | 2220 | 363 | 451 | 603 | 687 | 1090 | 2120 | 2310 | 3540 | 8650 |
| 2026-03-25 11:30 | 6.08 | 434 | 41900 (2023) | 167 (1941) | 2220 | 363 | 451 | 603 | 687 | 1090 | 2120 | 2310 | 3540 | 8650 |
| 2026-03-25 11:00 | 6.10 | 441 | 41900 (2023) | 167 (1941) | 2220 | 363 | 451 | 603 | 687 | 1090 | 2120 | 2310 | 3540 | 8650 |
| 2026-03-25 10:30 | 6.11 | 444 | 41900 (2023) | 167 (1941) | 2220 | 363 | 451 | 603 | 687 | 1090 | 2120 | 2310 | 3540 | 8650 |
| 2026-03-25 10:00 | 6.11 | 444 | 41900 (2023) | 167 (1941) | 2220 | 363 | 451 | 603 | 687 | 1090 | 2120 | 2310 | 3540 | 8650 |
| 2026-03-25 09:30 | 6.11 | 444 | 41900 (2023) | 167 (1941) | 2220 | 363 | 451 | 603 | 687 | 1090 | 2120 | 2310 | 3540 | 8650 |
| 2026-03-25 09:00 | 6.11 | 444 | 41900 (2023) | 167 (1941) | 2220 | 363 | 451 | 603 | 687 | 1090 | 2120 | 2310 | 3540 | 8650 |
| 2026-03-25 08:30 | 6.12 | 448 | 41900 (2023) | 167 (1941) | 2220 | 363 | 451 | 603 | 687 | 1090 | 2120 | 2310 | 3540 | 8650 |
| 2026-03-25 08:00 | 6.12 | 448 | 41900 (2023) | 167 (1941) | 2220 | 363 | 451 | 603 | 687 | 1090 | 2120 | 2310 | 3540 | 8650 |
| 2026-03-25 07:30 | 6.12 | 448 | 41900 (2023) | 167 (1941) | 2220 | 363 | 451 | 603 | 687 | 1090 | 2120 | 2310 | 3540 | 8650 |
| 2026-03-25 07:00 | 6.13 | 452 | 41900 (2023) | 167 (1941) | 2220 | 363 | 451 | 603 | 687 | 1090 | 2120 | 2310 | 3540 | 8650 |
| 2026-03-25 06:30 | 6.13 | 452 | 41900 (2023) | 167 (1941) | 2220 | 363 | 451 | 603 | 687 | 1090 | 2120 | 2310 | 3540 | 8650 |
| 2026-03-25 06:00 | 6.13 | 452 | 41900 (2023) | 167 (1941) | 2220 | 363 | 451 | 603 | 687 | 1090 | 2120 | 2310 | 3540 | 8650 |
| 2026-03-25 05:30 | 6.13 | 452 | 41900 (2023) | 167 (1941) | 2220 | 363 | 451 | 603 | 687 | 1090 | 2120 | 2310 | 3540 | 8650 |
| 2026-03-25 05:00 | 6.14 | 455 | 41900 (2023) | 167 (1941) | 2220 | 363 | 451 | 603 | 687 | 1090 | 2120 | 2310 | 3540 | 8650 |
| 2026-03-25 04:30 | 6.14 | 455 | 41900 (2023) | 167 (1941) | 2220 | 363 | 451 | 603 | 687 | 1090 | 2120 | 2310 | 3540 | 8650 |
| 2026-03-25 04:00 | 6.14 | 455 | 41900 (2023) | 167 (1941) | 2220 | 363 | 451 | 603 | 687 | 1090 | 2120 | 2310 | 3540 | 8650 |
| 2026-03-25 03:30 | 6.14 | 455 | 41900 (2023) | 167 (1941) | 2220 | 363 | 451 | 603 | 687 | 1090 | 2120 | 2310 | 3540 | 8650 |
| 2026-03-25 03:00 | 6.14 | 455 | 41900 (2023) | 167 (1941) | 2220 | 363 | 451 | 603 | 687 | 1090 | 2120 | 2310 | 3540 | 8650 |
| 2026-03-25 02:30 | 6.14 | 455 | 41900 (2023) | 167 (1941) | 2220 | 363 | 451 | 603 | 687 | 1090 | 2120 | 2310 | 3540 | 8650 |
| 2026-03-25 02:00 | 6.15 | 459 | 41900 (2023) | 167 (1941) | 2220 | 363 | 451 | 603 | 687 | 1090 | 2120 | 2310 | 3540 | 8650 |
| 2026-03-25 01:30 | 6.15 | 459 | 41900 (2023) | 167 (1941) | 2220 | 363 | 451 | 603 | 687 | 1090 | 2120 | 2310 | 3540 | 8650 |
| 2026-03-25 01:00 | 6.15 | 459 | 41900 (2023) | 167 (1941) | 2220 | 363 | 451 | 603 | 687 | 1090 | 2120 | 2310 | 3540 | 8650 |
| 2026-03-25 00:30 | 6.16 | 463 | 41900 (2023) | 167 (1941) | 2220 | 363 | 451 | 603 | 687 | 1090 | 2120 | 2310 | 3540 | 8650 |
| 2026-03-25 00:00 | 6.16 | 463 | 41900 (2023) | 167 (1941) | 2220 | 363 | 451 | 603 | 687 | 1090 | 2120 | 2310 | 3540 | 8650 |
| 2026-03-24 23:30 | 6.16 | 463 | 41900 (2023) | 167 (1941) | 2220 | 363 | 451 | 603 | 687 | 1090 | 2120 | 2310 | 3540 | 8650 |
| 2026-03-24 23:00 | 6.16 | 463 | 41900 (2023) | 167 (1941) | 2220 | 363 | 451 | 603 | 687 | 1090 | 2120 | 2310 | 3540 | 8650 |
| 2026-03-24 22:30 | 6.16 | 463 | 30300 (1958) | 169 (1941) | 2050 | 378 | 447 | 631 | 699 | 1200 | 2260 | 2590 | 3520 | 5620 |
| 2026-03-24 22:00 | 6.17 | 467 | 30300 (1958) | 169 (1941) | 2050 | 378 | 447 | 631 | 699 | 1200 | 2260 | 2590 | 3520 | 5620 |
| 2026-03-24 21:30 | 6.17 | 467 | 30300 (1958) | 169 (1941) | 2050 | 378 | 447 | 631 | 699 | 1200 | 2260 | 2590 | 3520 | 5620 |
| 2026-03-24 21:00 | 6.17 | 467 | 30300 (1958) | 169 (1941) | 2050 | 378 | 447 | 631 | 699 | 1200 | 2260 | 2590 | 3520 | 5620 |
| 2026-03-24 20:30 | 6.17 | 467 | 30300 (1958) | 169 (1941) | 2050 | 378 | 447 | 631 | 699 | 1200 | 2260 | 2590 | 3520 | 5620 |
| 2026-03-24 20:00 | 6.17 | 467 | 30300 (1958) | 169 (1941) | 2050 | 378 | 447 | 631 | 699 | 1200 | 2260 | 2590 | 3520 | 5620 |
| 2026-03-24 19:30 | 6.18 | 470 | 30300 (1958) | 169 (1941) | 2050 | 378 | 447 | 631 | 699 | 1200 | 2260 | 2590 | 3520 | 5620 |
| 2026-03-24 19:00 | 6.18 | 470 | 30300 (1958) | 169 (1941) | 2050 | 378 | 447 | 631 | 699 | 1200 | 2260 | 2590 | 3520 | 5620 |
| 2026-03-24 18:30 | 6.18 | 470 | 30300 (1958) | 169 (1941) | 2050 | 378 | 447 | 631 | 699 | 1200 | 2260 | 2590 | 3520 | 5620 |
| 2026-03-24 18:00 | 6.18 | 470 | 30300 (1958) | 169 (1941) | 2050 | 378 | 447 | 631 | 699 | 1200 | 2260 | 2590 | 3520 | 5620 |
| 2026-03-24 17:30 | 6.18 | 470 | 30300 (1958) | 169 (1941) | 2050 | 378 | 447 | 631 | 699 | 1200 | 2260 | 2590 | 3520 | 5620 |
| 2026-03-24 17:00 | 6.19 | 474 | 30300 (1958) | 169 (1941) | 2050 | 378 | 447 | 631 | 699 | 1200 | 2260 | 2590 | 3520 | 5620 |
| 2026-03-24 16:30 | 6.16 | 463 | 30300 (1958) | 169 (1941) | 2050 | 378 | 447 | 631 | 699 | 1200 | 2260 | 2590 | 3520 | 5620 |
| 2026-03-24 16:00 | 6.19 | 474 | 30300 (1958) | 169 (1941) | 2050 | 378 | 447 | 631 | 699 | 1200 | 2260 | 2590 | 3520 | 5620 |
| 2026-03-24 15:30 | 6.16 | 463 | 30300 (1958) | 169 (1941) | 2050 | 378 | 447 | 631 | 699 | 1200 | 2260 | 2590 | 3520 | 5620 |
| 2026-03-24 15:00 | 6.15 | 459 | 30300 (1958) | 169 (1941) | 2050 | 378 | 447 | 631 | 699 | 1200 | 2260 | 2590 | 3520 | 5620 |
| 2026-03-24 14:30 | 6.17 | 467 | 30300 (1958) | 169 (1941) | 2050 | 378 | 447 | 631 | 699 | 1200 | 2260 | 2590 | 3520 | 5620 |
| 2026-03-24 14:00 | 6.17 | 467 | 30300 (1958) | 169 (1941) | 2050 | 378 | 447 | 631 | 699 | 1200 | 2260 | 2590 | 3520 | 5620 |
| 2026-03-24 13:30 | 6.20 | 478 | 30300 (1958) | 169 (1941) | 2050 | 378 | 447 | 631 | 699 | 1200 | 2260 | 2590 | 3520 | 5620 |
| 2026-03-24 13:00 | 6.18 | 470 | 30300 (1958) | 169 (1941) | 2050 | 378 | 447 | 631 | 699 | 1200 | 2260 | 2590 | 3520 | 5620 |
| 2026-03-24 12:30 | 6.18 | 470 | 30300 (1958) | 169 (1941) | 2050 | 378 | 447 | 631 | 699 | 1200 | 2260 | 2590 | 3520 | 5620 |
| 2026-03-24 12:00 | 6.19 | 474 | 30300 (1958) | 169 (1941) | 2050 | 378 | 447 | 631 | 699 | 1200 | 2260 | 2590 | 3520 | 5620 |
| 2026-03-24 11:30 | 6.21 | 482 | 30300 (1958) | 169 (1941) | 2050 | 378 | 447 | 631 | 699 | 1200 | 2260 | 2590 | 3520 | 5620 |
| 2026-03-24 11:00 | 6.20 | 478 | 30300 (1958) | 169 (1941) | 2050 | 378 | 447 | 631 | 699 | 1200 | 2260 | 2590 | 3520 | 5620 |
| 2026-03-24 10:30 | 6.20 | 478 | 30300 (1958) | 169 (1941) | 2050 | 378 | 447 | 631 | 699 | 1200 | 2260 | 2590 | 3520 | 5620 |
| 2026-03-24 10:00 | 6.22 | 486 | 30300 (1958) | 169 (1941) | 2050 | 378 | 447 | 631 | 699 | 1200 | 2260 | 2590 | 3520 | 5620 |
| 2026-03-24 09:30 | 6.19 | 474 | 30300 (1958) | 169 (1941) | 2050 | 378 | 447 | 631 | 699 | 1200 | 2260 | 2590 | 3520 | 5620 |
| 2026-03-24 09:00 | 6.23 | 489 | 30300 (1958) | 169 (1941) | 2050 | 378 | 447 | 631 | 699 | 1200 | 2260 | 2590 | 3520 | 5620 |
| 2026-03-24 08:30 | 6.23 | 489 | 30300 (1958) | 169 (1941) | 2050 | 378 | 447 | 631 | 699 | 1200 | 2260 | 2590 | 3520 | 5620 |
| 2026-03-24 08:00 | 6.23 | 489 | 30300 (1958) | 169 (1941) | 2050 | 378 | 447 | 631 | 699 | 1200 | 2260 | 2590 | 3520 | 5620 |
| 2026-03-24 07:30 | 6.23 | 489 | 30300 (1958) | 169 (1941) | 2050 | 378 | 447 | 631 | 699 | 1200 | 2260 | 2590 | 3520 | 5620 |
| 2026-03-24 07:00 | 6.23 | 489 | 30300 (1958) | 169 (1941) | 2050 | 378 | 447 | 631 | 699 | 1200 | 2260 | 2590 | 3520 | 5620 |
| 2026-03-24 06:30 | 6.24 | 493 | 30300 (1958) | 169 (1941) | 2050 | 378 | 447 | 631 | 699 | 1200 | 2260 | 2590 | 3520 | 5620 |
| 2026-03-24 06:00 | 6.24 | 493 | 30300 (1958) | 169 (1941) | 2050 | 378 | 447 | 631 | 699 | 1200 | 2260 | 2590 | 3520 | 5620 |
| 2026-03-24 05:30 | 6.24 | 493 | 30300 (1958) | 169 (1941) | 2050 | 378 | 447 | 631 | 699 | 1200 | 2260 | 2590 | 3520 | 5620 |
| 2026-03-24 05:00 | 6.24 | 493 | 30300 (1958) | 169 (1941) | 2050 | 378 | 447 | 631 | 699 | 1200 | 2260 | 2590 | 3520 | 5620 |
| 2026-03-24 04:30 | 6.25 | 497 | 30300 (1958) | 169 (1941) | 2050 | 378 | 447 | 631 | 699 | 1200 | 2260 | 2590 | 3520 | 5620 |
| 2026-03-24 04:00 | 6.25 | 497 | 30300 (1958) | 169 (1941) | 2050 | 378 | 447 | 631 | 699 | 1200 | 2260 | 2590 | 3520 | 5620 |
| 2026-03-24 03:30 | 6.25 | 497 | 30300 (1958) | 169 (1941) | 2050 | 378 | 447 | 631 | 699 | 1200 | 2260 | 2590 | 3520 | 5620 |
| 2026-03-24 03:00 | 6.26 | 501 | 30300 (1958) | 169 (1941) | 2050 | 378 | 447 | 631 | 699 | 1200 | 2260 | 2590 | 3520 | 5620 |
| 2026-03-24 02:30 | 6.26 | 501 | 30300 (1958) | 169 (1941) | 2050 | 378 | 447 | 631 | 699 | 1200 | 2260 | 2590 | 3520 | 5620 |
| 2026-03-24 02:00 | 6.26 | 501 | 30300 (1958) | 169 (1941) | 2050 | 378 | 447 | 631 | 699 | 1200 | 2260 | 2590 | 3520 | 5620 |
| 2026-03-24 01:30 | 6.26 | 501 | 30300 (1958) | 169 (1941) | 2050 | 378 | 447 | 631 | 699 | 1200 | 2260 | 2590 | 3520 | 5620 |
| 2026-03-24 01:00 | 6.27 | 505 | 30300 (1958) | 169 (1941) | 2050 | 378 | 447 | 631 | 699 | 1200 | 2260 | 2590 | 3520 | 5620 |
| 2026-03-24 00:30 | 6.27 | 505 | 30300 (1958) | 169 (1941) | 2050 | 378 | 447 | 631 | 699 | 1200 | 2260 | 2590 | 3520 | 5620 |
| 2026-03-24 00:00 | 6.27 | 505 | 30300 (1958) | 169 (1941) | 2050 | 378 | 447 | 631 | 699 | 1200 | 2260 | 2590 | 3520 | 5620 |
| 2026-03-23 23:30 | 6.27 | 505 | 30300 (1958) | 169 (1941) | 2050 | 378 | 447 | 631 | 699 | 1200 | 2260 | 2590 | 3520 | 5620 |
| 2026-03-23 23:00 | 6.28 | 509 | 30300 (1958) | 169 (1941) | 2050 | 378 | 447 | 631 | 699 | 1200 | 2260 | 2590 | 3520 | 5620 |
| 2026-03-23 22:30 | 6.28 | 509 | 11400 (1991) | 167 (1954) | 1910 | 334 | 444 | 661 | 755 | 1140 | 2150 | 2700 | 4410 | 5830 |
| 2026-03-23 22:00 | 6.28 | 509 | 11400 (1991) | 167 (1954) | 1910 | 334 | 444 | 661 | 755 | 1140 | 2150 | 2700 | 4410 | 5830 |
| 2026-03-23 21:30 | 6.29 | 513 | 11400 (1991) | 167 (1954) | 1910 | 334 | 444 | 661 | 755 | 1140 | 2150 | 2700 | 4410 | 5830 |
| 2026-03-23 21:00 | 6.29 | 513 | 11400 (1991) | 167 (1954) | 1910 | 334 | 444 | 661 | 755 | 1140 | 2150 | 2700 | 4410 | 5830 |
| 2026-03-23 20:30 | 6.29 | 513 | 11400 (1991) | 167 (1954) | 1910 | 334 | 444 | 661 | 755 | 1140 | 2150 | 2700 | 4410 | 5830 |
| 2026-03-23 20:00 | 6.29 | 513 | 11400 (1991) | 167 (1954) | 1910 | 334 | 444 | 661 | 755 | 1140 | 2150 | 2700 | 4410 | 5830 |
| 2026-03-23 19:30 | 6.29 | 513 | 11400 (1991) | 167 (1954) | 1910 | 334 | 444 | 661 | 755 | 1140 | 2150 | 2700 | 4410 | 5830 |
| 2026-03-23 19:00 | 6.29 | 513 | 11400 (1991) | 167 (1954) | 1910 | 334 | 444 | 661 | 755 | 1140 | 2150 | 2700 | 4410 | 5830 |
| 2026-03-23 18:30 | 6.30 | 517 | 11400 (1991) | 167 (1954) | 1910 | 334 | 444 | 661 | 755 | 1140 | 2150 | 2700 | 4410 | 5830 |
| 2026-03-23 18:00 | 6.30 | 517 | 11400 (1991) | 167 (1954) | 1910 | 334 | 444 | 661 | 755 | 1140 | 2150 | 2700 | 4410 | 5830 |
| 2026-03-23 17:30 | 6.31 | 521 | 11400 (1991) | 167 (1954) | 1910 | 334 | 444 | 661 | 755 | 1140 | 2150 | 2700 | 4410 | 5830 |
| 2026-03-23 17:00 | 6.31 | 521 | 11400 (1991) | 167 (1954) | 1910 | 334 | 444 | 661 | 755 | 1140 | 2150 | 2700 | 4410 | 5830 |
| 2026-03-23 16:30 | 6.29 | 513 | 11400 (1991) | 167 (1954) | 1910 | 334 | 444 | 661 | 755 | 1140 | 2150 | 2700 | 4410 | 5830 |
| 2026-03-23 16:00 | 6.31 | 521 | 11400 (1991) | 167 (1954) | 1910 | 334 | 444 | 661 | 755 | 1140 | 2150 | 2700 | 4410 | 5830 |
| 2026-03-23 15:30 | 6.32 | 525 | 11400 (1991) | 167 (1954) | 1910 | 334 | 444 | 661 | 755 | 1140 | 2150 | 2700 | 4410 | 5830 |
| 2026-03-23 15:00 | 6.32 | 525 | 11400 (1991) | 167 (1954) | 1910 | 334 | 444 | 661 | 755 | 1140 | 2150 | 2700 | 4410 | 5830 |
| 2026-03-23 14:30 | 6.27 | 505 | 11400 (1991) | 167 (1954) | 1910 | 334 | 444 | 661 | 755 | 1140 | 2150 | 2700 | 4410 | 5830 |
| 2026-03-23 14:00 | 6.28 | 509 | 11400 (1991) | 167 (1954) | 1910 | 334 | 444 | 661 | 755 | 1140 | 2150 | 2700 | 4410 | 5830 |
| 2026-03-23 13:30 | 6.28 | 509 | 11400 (1991) | 167 (1954) | 1910 | 334 | 444 | 661 | 755 | 1140 | 2150 | 2700 | 4410 | 5830 |
| 2026-03-23 13:00 | 6.33 | 529 | 11400 (1991) | 167 (1954) | 1910 | 334 | 444 | 661 | 755 | 1140 | 2150 | 2700 | 4410 | 5830 |
| 2026-03-23 12:30 | 6.29 | 513 | 11400 (1991) | 167 (1954) | 1910 | 334 | 444 | 661 | 755 | 1140 | 2150 | 2700 | 4410 | 5830 |
| 2026-03-23 12:00 | 6.31 | 521 | 11400 (1991) | 167 (1954) | 1910 | 334 | 444 | 661 | 755 | 1140 | 2150 | 2700 | 4410 | 5830 |
| 2026-03-23 11:30 | 6.28 | 509 | 11400 (1991) | 167 (1954) | 1910 | 334 | 444 | 661 | 755 | 1140 | 2150 | 2700 | 4410 | 5830 |
| 2026-03-23 11:00 | 6.33 | 529 | 11400 (1991) | 167 (1954) | 1910 | 334 | 444 | 661 | 755 | 1140 | 2150 | 2700 | 4410 | 5830 |
| 2026-03-23 10:30 | 6.29 | 513 | 11400 (1991) | 167 (1954) | 1910 | 334 | 444 | 661 | 755 | 1140 | 2150 | 2700 | 4410 | 5830 |
| 2026-03-23 10:00 | 6.29 | 513 | 11400 (1991) | 167 (1954) | 1910 | 334 | 444 | 661 | 755 | 1140 | 2150 | 2700 | 4410 | 5830 |
| 2026-03-23 09:30 | 6.32 | 525 | 11400 (1991) | 167 (1954) | 1910 | 334 | 444 | 661 | 755 | 1140 | 2150 | 2700 | 4410 | 5830 |
| 2026-03-23 09:00 | 6.33 | 529 | 11400 (1991) | 167 (1954) | 1910 | 334 | 444 | 661 | 755 | 1140 | 2150 | 2700 | 4410 | 5830 |
| 2026-03-23 08:30 | 6.33 | 529 | 11400 (1991) | 167 (1954) | 1910 | 334 | 444 | 661 | 755 | 1140 | 2150 | 2700 | 4410 | 5830 |
| 2026-03-23 08:00 | 6.30 | 517 | 11400 (1991) | 167 (1954) | 1910 | 334 | 444 | 661 | 755 | 1140 | 2150 | 2700 | 4410 | 5830 |
| 2026-03-23 07:30 | 6.34 | 533 | 11400 (1991) | 167 (1954) | 1910 | 334 | 444 | 661 | 755 | 1140 | 2150 | 2700 | 4410 | 5830 |
| 2026-03-23 07:00 | 6.35 | 537 | 11400 (1991) | 167 (1954) | 1910 | 334 | 444 | 661 | 755 | 1140 | 2150 | 2700 | 4410 | 5830 |
| 2026-03-23 06:30 | 6.36 | 541 | 11400 (1991) | 167 (1954) | 1910 | 334 | 444 | 661 | 755 | 1140 | 2150 | 2700 | 4410 | 5830 |
| 2026-03-23 06:00 | 6.34 | 533 | 11400 (1991) | 167 (1954) | 1910 | 334 | 444 | 661 | 755 | 1140 | 2150 | 2700 | 4410 | 5830 |
| 2026-03-23 05:30 | 6.36 | 541 | 11400 (1991) | 167 (1954) | 1910 | 334 | 444 | 661 | 755 | 1140 | 2150 | 2700 | 4410 | 5830 |
| 2026-03-23 05:00 | 6.36 | 541 | 11400 (1991) | 167 (1954) | 1910 | 334 | 444 | 661 | 755 | 1140 | 2150 | 2700 | 4410 | 5830 |
| 2026-03-23 04:30 | 6.36 | 541 | 11400 (1991) | 167 (1954) | 1910 | 334 | 444 | 661 | 755 | 1140 | 2150 | 2700 | 4410 | 5830 |
| 2026-03-23 04:00 | 6.35 | 537 | 11400 (1991) | 167 (1954) | 1910 | 334 | 444 | 661 | 755 | 1140 | 2150 | 2700 | 4410 | 5830 |
| 2026-03-23 03:30 | 6.36 | 541 | 11400 (1991) | 167 (1954) | 1910 | 334 | 444 | 661 | 755 | 1140 | 2150 | 2700 | 4410 | 5830 |
| 2026-03-23 03:00 | 6.37 | 545 | 11400 (1991) | 167 (1954) | 1910 | 334 | 444 | 661 | 755 | 1140 | 2150 | 2700 | 4410 | 5830 |
| 2026-03-23 02:30 | 6.36 | 541 | 11400 (1991) | 167 (1954) | 1910 | 334 | 444 | 661 | 755 | 1140 | 2150 | 2700 | 4410 | 5830 |
| 2026-03-23 02:00 | 6.34 | 533 | 11400 (1991) | 167 (1954) | 1910 | 334 | 444 | 661 | 755 | 1140 | 2150 | 2700 | 4410 | 5830 |
| 2026-03-23 01:30 | 6.35 | 537 | 11400 (1991) | 167 (1954) | 1910 | 334 | 444 | 661 | 755 | 1140 | 2150 | 2700 | 4410 | 5830 |
| 2026-03-23 01:00 | 6.36 | 541 | 11400 (1991) | 167 (1954) | 1910 | 334 | 444 | 661 | 755 | 1140 | 2150 | 2700 | 4410 | 5830 |
| 2026-03-23 00:30 | 6.35 | 537 | 11400 (1991) | 167 (1954) | 1910 | 334 | 444 | 661 | 755 | 1140 | 2150 | 2700 | 4410 | 5830 |
| 2026-03-23 00:00 | 6.38 | 549 | 11400 (1991) | 167 (1954) | 1910 | 334 | 444 | 661 | 755 | 1140 | 2150 | 2700 | 4410 | 5830 |
| 2026-03-22 23:30 | 6.34 | 533 | 11400 (1991) | 167 (1954) | 1910 | 334 | 444 | 661 | 755 | 1140 | 2150 | 2700 | 4410 | 5830 |
| 2026-03-22 23:00 | 6.34 | 533 | 11400 (1991) | 167 (1954) | 1910 | 334 | 444 | 661 | 755 | 1140 | 2150 | 2700 | 4410 | 5830 |
| 2026-03-22 22:30 | 6.36 | 541 | 10300 (1955) | 157 (1954) | 2000 | 307 | 401 | 642 | 791 | 1240 | 2200 | 2950 | 4410 | 6900 |
| 2026-03-22 22:00 | 6.37 | 545 | 10300 (1955) | 157 (1954) | 2000 | 307 | 401 | 642 | 791 | 1240 | 2200 | 2950 | 4410 | 6900 |
| 2026-03-22 21:30 | 6.36 | 541 | 10300 (1955) | 157 (1954) | 2000 | 307 | 401 | 642 | 791 | 1240 | 2200 | 2950 | 4410 | 6900 |
| 2026-03-22 21:00 | 6.36 | 541 | 10300 (1955) | 157 (1954) | 2000 | 307 | 401 | 642 | 791 | 1240 | 2200 | 2950 | 4410 | 6900 |
| 2026-03-22 20:30 | 6.38 | 549 | 10300 (1955) | 157 (1954) | 2000 | 307 | 401 | 642 | 791 | 1240 | 2200 | 2950 | 4410 | 6900 |
| 2026-03-22 20:00 | 6.38 | 549 | 10300 (1955) | 157 (1954) | 2000 | 307 | 401 | 642 | 791 | 1240 | 2200 | 2950 | 4410 | 6900 |
| 2026-03-22 19:30 | 6.37 | 545 | 10300 (1955) | 157 (1954) | 2000 | 307 | 401 | 642 | 791 | 1240 | 2200 | 2950 | 4410 | 6900 |
| 2026-03-22 19:00 | 6.41 | 561 | 10300 (1955) | 157 (1954) | 2000 | 307 | 401 | 642 | 791 | 1240 | 2200 | 2950 | 4410 | 6900 |
| 2026-03-22 18:30 | 6.40 | 557 | 10300 (1955) | 157 (1954) | 2000 | 307 | 401 | 642 | 791 | 1240 | 2200 | 2950 | 4410 | 6900 |
| 2026-03-22 18:00 | 6.40 | 557 | 10300 (1955) | 157 (1954) | 2000 | 307 | 401 | 642 | 791 | 1240 | 2200 | 2950 | 4410 | 6900 |
| 2026-03-22 17:30 | 6.38 | 549 | 10300 (1955) | 157 (1954) | 2000 | 307 | 401 | 642 | 791 | 1240 | 2200 | 2950 | 4410 | 6900 |
| 2026-03-22 17:00 | 6.39 | 553 | 10300 (1955) | 157 (1954) | 2000 | 307 | 401 | 642 | 791 | 1240 | 2200 | 2950 | 4410 | 6900 |
| 2026-03-22 16:30 | 6.40 | 557 | 10300 (1955) | 157 (1954) | 2000 | 307 | 401 | 642 | 791 | 1240 | 2200 | 2950 | 4410 | 6900 |
| 2026-03-22 16:00 | 6.38 | 549 | 10300 (1955) | 157 (1954) | 2000 | 307 | 401 | 642 | 791 | 1240 | 2200 | 2950 | 4410 | 6900 |
| 2026-03-22 15:30 | 6.39 | 553 | 10300 (1955) | 157 (1954) | 2000 | 307 | 401 | 642 | 791 | 1240 | 2200 | 2950 | 4410 | 6900 |
| 2026-03-22 15:00 | 6.38 | 549 | 10300 (1955) | 157 (1954) | 2000 | 307 | 401 | 642 | 791 | 1240 | 2200 | 2950 | 4410 | 6900 |
| 2026-03-22 14:30 | 6.39 | 553 | 10300 (1955) | 157 (1954) | 2000 | 307 | 401 | 642 | 791 | 1240 | 2200 | 2950 | 4410 | 6900 |
| 2026-03-22 14:00 | 6.38 | 549 | 10300 (1955) | 157 (1954) | 2000 | 307 | 401 | 642 | 791 | 1240 | 2200 | 2950 | 4410 | 6900 |
| 2026-03-22 13:30 | 6.39 | 553 | 10300 (1955) | 157 (1954) | 2000 | 307 | 401 | 642 | 791 | 1240 | 2200 | 2950 | 4410 | 6900 |
| 2026-03-22 13:00 | 6.40 | 557 | 10300 (1955) | 157 (1954) | 2000 | 307 | 401 | 642 | 791 | 1240 | 2200 | 2950 | 4410 | 6900 |
| 2026-03-22 12:30 | 6.39 | 553 | 10300 (1955) | 157 (1954) | 2000 | 307 | 401 | 642 | 791 | 1240 | 2200 | 2950 | 4410 | 6900 |
| 2026-03-22 12:00 | 6.44 | 574 | 10300 (1955) | 157 (1954) | 2000 | 307 | 401 | 642 | 791 | 1240 | 2200 | 2950 | 4410 | 6900 |
| 2026-03-22 11:30 | 6.44 | 574 | 10300 (1955) | 157 (1954) | 2000 | 307 | 401 | 642 | 791 | 1240 | 2200 | 2950 | 4410 | 6900 |
| 2026-03-22 11:00 | 6.44 | 574 | 10300 (1955) | 157 (1954) | 2000 | 307 | 401 | 642 | 791 | 1240 | 2200 | 2950 | 4410 | 6900 |
| 2026-03-22 10:30 | 6.45 | 578 | 10300 (1955) | 157 (1954) | 2000 | 307 | 401 | 642 | 791 | 1240 | 2200 | 2950 | 4410 | 6900 |
| 2026-03-22 10:00 | 6.46 | 582 | 10300 (1955) | 157 (1954) | 2000 | 307 | 401 | 642 | 791 | 1240 | 2200 | 2950 | 4410 | 6900 |
| 2026-03-22 09:30 | 6.46 | 582 | 10300 (1955) | 157 (1954) | 2000 | 307 | 401 | 642 | 791 | 1240 | 2200 | 2950 | 4410 | 6900 |
| 2026-03-22 09:00 | 6.46 | 582 | 10300 (1955) | 157 (1954) | 2000 | 307 | 401 | 642 | 791 | 1240 | 2200 | 2950 | 4410 | 6900 |
| 2026-03-22 08:30 | 6.46 | 582 | 10300 (1955) | 157 (1954) | 2000 | 307 | 401 | 642 | 791 | 1240 | 2200 | 2950 | 4410 | 6900 |
| 2026-03-22 08:00 | 6.47 | 587 | 10300 (1955) | 157 (1954) | 2000 | 307 | 401 | 642 | 791 | 1240 | 2200 | 2950 | 4410 | 6900 |
| 2026-03-22 07:30 | 6.47 | 587 | 10300 (1955) | 157 (1954) | 2000 | 307 | 401 | 642 | 791 | 1240 | 2200 | 2950 | 4410 | 6900 |
| 2026-03-22 07:00 | 6.47 | 587 | 10300 (1955) | 157 (1954) | 2000 | 307 | 401 | 642 | 791 | 1240 | 2200 | 2950 | 4410 | 6900 |
| 2026-03-22 06:30 | 6.48 | 591 | 10300 (1955) | 157 (1954) | 2000 | 307 | 401 | 642 | 791 | 1240 | 2200 | 2950 | 4410 | 6900 |
| 2026-03-22 06:00 | 6.48 | 591 | 10300 (1955) | 157 (1954) | 2000 | 307 | 401 | 642 | 791 | 1240 | 2200 | 2950 | 4410 | 6900 |
| 2026-03-22 05:30 | 6.48 | 591 | 10300 (1955) | 157 (1954) | 2000 | 307 | 401 | 642 | 791 | 1240 | 2200 | 2950 | 4410 | 6900 |
| 2026-03-22 05:00 | 6.48 | 591 | 10300 (1955) | 157 (1954) | 2000 | 307 | 401 | 642 | 791 | 1240 | 2200 | 2950 | 4410 | 6900 |
| 2026-03-22 04:30 | 6.49 | 595 | 10300 (1955) | 157 (1954) | 2000 | 307 | 401 | 642 | 791 | 1240 | 2200 | 2950 | 4410 | 6900 |
| 2026-03-22 04:00 | 6.49 | 595 | 10300 (1955) | 157 (1954) | 2000 | 307 | 401 | 642 | 791 | 1240 | 2200 | 2950 | 4410 | 6900 |
| 2026-03-22 03:30 | 6.49 | 595 | 10300 (1955) | 157 (1954) | 2000 | 307 | 401 | 642 | 791 | 1240 | 2200 | 2950 | 4410 | 6900 |
| 2026-03-22 03:00 | 6.49 | 595 | 10300 (1955) | 157 (1954) | 2000 | 307 | 401 | 642 | 791 | 1240 | 2200 | 2950 | 4410 | 6900 |
| 2026-03-22 02:30 | 6.49 | 595 | 10300 (1955) | 157 (1954) | 2000 | 307 | 401 | 642 | 791 | 1240 | 2200 | 2950 | 4410 | 6900 |
| 2026-03-22 02:00 | 6.50 | 600 | 10300 (1955) | 157 (1954) | 2000 | 307 | 401 | 642 | 791 | 1240 | 2200 | 2950 | 4410 | 6900 |
| 2026-03-22 01:30 | 6.50 | 600 | 10300 (1955) | 157 (1954) | 2000 | 307 | 401 | 642 | 791 | 1240 | 2200 | 2950 | 4410 | 6900 |
| 2026-03-22 01:00 | 6.50 | 600 | 10300 (1955) | 157 (1954) | 2000 | 307 | 401 | 642 | 791 | 1240 | 2200 | 2950 | 4410 | 6900 |
| 2026-03-22 00:30 | 6.50 | 600 | 10300 (1955) | 157 (1954) | 2000 | 307 | 401 | 642 | 791 | 1240 | 2200 | 2950 | 4410 | 6900 |
| 2026-03-22 00:00 | 6.50 | 600 | 10300 (1955) | 157 (1954) | 2000 | 307 | 401 | 642 | 791 | 1240 | 2200 | 2950 | 4410 | 6900 |
| 2026-03-21 23:30 | 6.51 | 604 | 10300 (1955) | 157 (1954) | 2000 | 307 | 401 | 642 | 791 | 1240 | 2200 | 2950 | 4410 | 6900 |
| 2026-03-21 23:00 | 6.51 | 604 | 10300 (1955) | 157 (1954) | 2000 | 307 | 401 | 642 | 791 | 1240 | 2200 | 2950 | 4410 | 6900 |
| 2026-03-21 22:30 | 6.51 | 604 | 32300 (1962) | 160 (1954) | 2640 | 305 | 412 | 684 | 782 | 1340 | 2530 | 2870 | 5070 | 8940 |
| 2026-03-21 22:00 | 6.51 | 604 | 32300 (1962) | 160 (1954) | 2640 | 305 | 412 | 684 | 782 | 1340 | 2530 | 2870 | 5070 | 8940 |
| 2026-03-21 21:30 | 6.52 | 608 | 32300 (1962) | 160 (1954) | 2640 | 305 | 412 | 684 | 782 | 1340 | 2530 | 2870 | 5070 | 8940 |
| 2026-03-21 21:00 | 6.52 | 608 | 32300 (1962) | 160 (1954) | 2640 | 305 | 412 | 684 | 782 | 1340 | 2530 | 2870 | 5070 | 8940 |
| 2026-03-21 20:30 | 6.52 | 608 | 32300 (1962) | 160 (1954) | 2640 | 305 | 412 | 684 | 782 | 1340 | 2530 | 2870 | 5070 | 8940 |
| 2026-03-21 20:00 | 6.52 | 608 | 32300 (1962) | 160 (1954) | 2640 | 305 | 412 | 684 | 782 | 1340 | 2530 | 2870 | 5070 | 8940 |
| 2026-03-21 19:30 | 6.52 | 608 | 32300 (1962) | 160 (1954) | 2640 | 305 | 412 | 684 | 782 | 1340 | 2530 | 2870 | 5070 | 8940 |
| 2026-03-21 19:00 | 6.53 | 613 | 32300 (1962) | 160 (1954) | 2640 | 305 | 412 | 684 | 782 | 1340 | 2530 | 2870 | 5070 | 8940 |
| 2026-03-21 18:30 | 6.50 | 600 | 32300 (1962) | 160 (1954) | 2640 | 305 | 412 | 684 | 782 | 1340 | 2530 | 2870 | 5070 | 8940 |
| 2026-03-21 18:00 | 6.53 | 613 | 32300 (1962) | 160 (1954) | 2640 | 305 | 412 | 684 | 782 | 1340 | 2530 | 2870 | 5070 | 8940 |
| 2026-03-21 17:30 | 6.52 | 608 | 32300 (1962) | 160 (1954) | 2640 | 305 | 412 | 684 | 782 | 1340 | 2530 | 2870 | 5070 | 8940 |
| 2026-03-21 17:00 | 6.48 | 591 | 32300 (1962) | 160 (1954) | 2640 | 305 | 412 | 684 | 782 | 1340 | 2530 | 2870 | 5070 | 8940 |
| 2026-03-21 16:30 | 6.54 | 617 | 32300 (1962) | 160 (1954) | 2640 | 305 | 412 | 684 | 782 | 1340 | 2530 | 2870 | 5070 | 8940 |
| 2026-03-21 16:00 | 6.51 | 604 | 32300 (1962) | 160 (1954) | 2640 | 305 | 412 | 684 | 782 | 1340 | 2530 | 2870 | 5070 | 8940 |
| 2026-03-21 15:30 | 6.54 | 617 | 32300 (1962) | 160 (1954) | 2640 | 305 | 412 | 684 | 782 | 1340 | 2530 | 2870 | 5070 | 8940 |
| 2026-03-21 15:00 | 6.51 | 604 | 32300 (1962) | 160 (1954) | 2640 | 305 | 412 | 684 | 782 | 1340 | 2530 | 2870 | 5070 | 8940 |
| 2026-03-21 14:30 | 6.55 | 621 | 32300 (1962) | 160 (1954) | 2640 | 305 | 412 | 684 | 782 | 1340 | 2530 | 2870 | 5070 | 8940 |
| 2026-03-21 14:00 | 6.56 | 626 | 32300 (1962) | 160 (1954) | 2640 | 305 | 412 | 684 | 782 | 1340 | 2530 | 2870 | 5070 | 8940 |
| 2026-03-21 13:30 | 6.56 | 626 | 32300 (1962) | 160 (1954) | 2640 | 305 | 412 | 684 | 782 | 1340 | 2530 | 2870 | 5070 | 8940 |
| 2026-03-21 13:00 | 6.56 | 626 | 32300 (1962) | 160 (1954) | 2640 | 305 | 412 | 684 | 782 | 1340 | 2530 | 2870 | 5070 | 8940 |
| 2026-03-21 12:30 | 6.56 | 626 | 32300 (1962) | 160 (1954) | 2640 | 305 | 412 | 684 | 782 | 1340 | 2530 | 2870 | 5070 | 8940 |
| 2026-03-21 12:00 | 6.56 | 626 | 32300 (1962) | 160 (1954) | 2640 | 305 | 412 | 684 | 782 | 1340 | 2530 | 2870 | 5070 | 8940 |
| 2026-03-21 11:30 | 6.56 | 626 | 32300 (1962) | 160 (1954) | 2640 | 305 | 412 | 684 | 782 | 1340 | 2530 | 2870 | 5070 | 8940 |
| 2026-03-21 11:00 | 6.57 | 630 | 32300 (1962) | 160 (1954) | 2640 | 305 | 412 | 684 | 782 | 1340 | 2530 | 2870 | 5070 | 8940 |
| 2026-03-21 10:30 | 6.57 | 630 | 32300 (1962) | 160 (1954) | 2640 | 305 | 412 | 684 | 782 | 1340 | 2530 | 2870 | 5070 | 8940 |
| 2026-03-21 10:00 | 6.57 | 630 | 32300 (1962) | 160 (1954) | 2640 | 305 | 412 | 684 | 782 | 1340 | 2530 | 2870 | 5070 | 8940 |
| 2026-03-21 09:30 | 6.57 | 630 | 32300 (1962) | 160 (1954) | 2640 | 305 | 412 | 684 | 782 | 1340 | 2530 | 2870 | 5070 | 8940 |
| 2026-03-21 09:00 | 6.58 | 635 | 32300 (1962) | 160 (1954) | 2640 | 305 | 412 | 684 | 782 | 1340 | 2530 | 2870 | 5070 | 8940 |
| 2026-03-21 08:30 | 6.58 | 635 | 32300 (1962) | 160 (1954) | 2640 | 305 | 412 | 684 | 782 | 1340 | 2530 | 2870 | 5070 | 8940 |
| 2026-03-21 08:00 | 6.59 | 639 | 32300 (1962) | 160 (1954) | 2640 | 305 | 412 | 684 | 782 | 1340 | 2530 | 2870 | 5070 | 8940 |
| 2026-03-21 07:30 | 6.59 | 639 | 32300 (1962) | 160 (1954) | 2640 | 305 | 412 | 684 | 782 | 1340 | 2530 | 2870 | 5070 | 8940 |
| 2026-03-21 07:00 | 6.59 | 639 | 32300 (1962) | 160 (1954) | 2640 | 305 | 412 | 684 | 782 | 1340 | 2530 | 2870 | 5070 | 8940 |
| 2026-03-21 06:30 | 6.60 | 644 | 32300 (1962) | 160 (1954) | 2640 | 305 | 412 | 684 | 782 | 1340 | 2530 | 2870 | 5070 | 8940 |
| 2026-03-21 06:00 | 6.60 | 644 | 32300 (1962) | 160 (1954) | 2640 | 305 | 412 | 684 | 782 | 1340 | 2530 | 2870 | 5070 | 8940 |
| 2026-03-21 05:30 | 6.60 | 644 | 32300 (1962) | 160 (1954) | 2640 | 305 | 412 | 684 | 782 | 1340 | 2530 | 2870 | 5070 | 8940 |
| 2026-03-21 05:00 | 6.60 | 644 | 32300 (1962) | 160 (1954) | 2640 | 305 | 412 | 684 | 782 | 1340 | 2530 | 2870 | 5070 | 8940 |
| 2026-03-21 04:30 | 6.61 | 648 | 32300 (1962) | 160 (1954) | 2640 | 305 | 412 | 684 | 782 | 1340 | 2530 | 2870 | 5070 | 8940 |
| 2026-03-21 04:00 | 6.61 | 648 | 32300 (1962) | 160 (1954) | 2640 | 305 | 412 | 684 | 782 | 1340 | 2530 | 2870 | 5070 | 8940 |
| 2026-03-21 03:30 | 6.61 | 648 | 32300 (1962) | 160 (1954) | 2640 | 305 | 412 | 684 | 782 | 1340 | 2530 | 2870 | 5070 | 8940 |
| 2026-03-21 03:00 | 6.61 | 648 | 32300 (1962) | 160 (1954) | 2640 | 305 | 412 | 684 | 782 | 1340 | 2530 | 2870 | 5070 | 8940 |
| 2026-03-21 02:30 | 6.62 | 653 | 32300 (1962) | 160 (1954) | 2640 | 305 | 412 | 684 | 782 | 1340 | 2530 | 2870 | 5070 | 8940 |
| 2026-03-21 02:00 | 6.62 | 653 | 32300 (1962) | 160 (1954) | 2640 | 305 | 412 | 684 | 782 | 1340 | 2530 | 2870 | 5070 | 8940 |
| 2026-03-21 01:30 | 6.62 | 653 | 32300 (1962) | 160 (1954) | 2640 | 305 | 412 | 684 | 782 | 1340 | 2530 | 2870 | 5070 | 8940 |
| 2026-03-21 01:00 | 6.63 | 657 | 32300 (1962) | 160 (1954) | 2640 | 305 | 412 | 684 | 782 | 1340 | 2530 | 2870 | 5070 | 8940 |
| 2026-03-21 00:30 | 6.63 | 657 | 32300 (1962) | 160 (1954) | 2640 | 305 | 412 | 684 | 782 | 1340 | 2530 | 2870 | 5070 | 8940 |
| 2026-03-21 00:00 | 6.63 | 657 | 32300 (1962) | 160 (1954) | 2640 | 305 | 412 | 684 | 782 | 1340 | 2530 | 2870 | 5070 | 8940 |
| 2026-03-20 23:30 | 6.63 | 657 | 32300 (1962) | 160 (1954) | 2640 | 305 | 412 | 684 | 782 | 1340 | 2530 | 2870 | 5070 | 8940 |
| 2026-03-20 23:00 | 6.64 | 662 | 32300 (1962) | 160 (1954) | 2640 | 305 | 412 | 684 | 782 | 1340 | 2530 | 2870 | 5070 | 8940 |
| 2026-03-20 22:30 | 6.64 | 662 | 44000 (2008) | 164 (1954) | 2810 | 319 | 424 | 679 | 774 | 1320 | 2580 | 3610 | 5700 | 10100 |
| 2026-03-20 22:00 | 6.64 | 662 | 44000 (2008) | 164 (1954) | 2810 | 319 | 424 | 679 | 774 | 1320 | 2580 | 3610 | 5700 | 10100 |
| 2026-03-20 21:30 | 6.64 | 662 | 44000 (2008) | 164 (1954) | 2810 | 319 | 424 | 679 | 774 | 1320 | 2580 | 3610 | 5700 | 10100 |
| 2026-03-20 21:00 | 6.65 | 666 | 44000 (2008) | 164 (1954) | 2810 | 319 | 424 | 679 | 774 | 1320 | 2580 | 3610 | 5700 | 10100 |
| 2026-03-20 20:30 | 6.65 | 666 | 44000 (2008) | 164 (1954) | 2810 | 319 | 424 | 679 | 774 | 1320 | 2580 | 3610 | 5700 | 10100 |
| 2026-03-20 20:00 | 6.65 | 666 | 44000 (2008) | 164 (1954) | 2810 | 319 | 424 | 679 | 774 | 1320 | 2580 | 3610 | 5700 | 10100 |
| 2026-03-20 19:30 | 6.66 | 671 | 44000 (2008) | 164 (1954) | 2810 | 319 | 424 | 679 | 774 | 1320 | 2580 | 3610 | 5700 | 10100 |
| 2026-03-20 19:00 | 6.66 | 671 | 44000 (2008) | 164 (1954) | 2810 | 319 | 424 | 679 | 774 | 1320 | 2580 | 3610 | 5700 | 10100 |
| 2026-03-20 18:30 | 6.66 | 671 | 44000 (2008) | 164 (1954) | 2810 | 319 | 424 | 679 | 774 | 1320 | 2580 | 3610 | 5700 | 10100 |
| 2026-03-20 18:00 | 6.65 | 666 | 44000 (2008) | 164 (1954) | 2810 | 319 | 424 | 679 | 774 | 1320 | 2580 | 3610 | 5700 | 10100 |
| 2026-03-20 17:30 | 6.62 | 653 | 44000 (2008) | 164 (1954) | 2810 | 319 | 424 | 679 | 774 | 1320 | 2580 | 3610 | 5700 | 10100 |
| 2026-03-20 17:00 | 6.67 | 676 | 44000 (2008) | 164 (1954) | 2810 | 319 | 424 | 679 | 774 | 1320 | 2580 | 3610 | 5700 | 10100 |
| 2026-03-20 16:30 | 6.67 | 676 | 44000 (2008) | 164 (1954) | 2810 | 319 | 424 | 679 | 774 | 1320 | 2580 | 3610 | 5700 | 10100 |
| 2026-03-20 16:00 | 6.67 | 676 | 44000 (2008) | 164 (1954) | 2810 | 319 | 424 | 679 | 774 | 1320 | 2580 | 3610 | 5700 | 10100 |
| 2026-03-20 15:30 | 6.67 | 676 | 44000 (2008) | 164 (1954) | 2810 | 319 | 424 | 679 | 774 | 1320 | 2580 | 3610 | 5700 | 10100 |
| 2026-03-20 15:00 | 6.68 | 680 | 44000 (2008) | 164 (1954) | 2810 | 319 | 424 | 679 | 774 | 1320 | 2580 | 3610 | 5700 | 10100 |
| 2026-03-20 14:30 | 6.69 | 685 | 44000 (2008) | 164 (1954) | 2810 | 319 | 424 | 679 | 774 | 1320 | 2580 | 3610 | 5700 | 10100 |
| 2026-03-20 14:00 | 6.69 | 685 | 44000 (2008) | 164 (1954) | 2810 | 319 | 424 | 679 | 774 | 1320 | 2580 | 3610 | 5700 | 10100 |
| 2026-03-20 13:30 | 6.69 | 685 | 44000 (2008) | 164 (1954) | 2810 | 319 | 424 | 679 | 774 | 1320 | 2580 | 3610 | 5700 | 10100 |
| 2026-03-20 13:00 | 6.69 | 685 | 44000 (2008) | 164 (1954) | 2810 | 319 | 424 | 679 | 774 | 1320 | 2580 | 3610 | 5700 | 10100 |
| 2026-03-20 12:30 | 6.70 | 689 | 44000 (2008) | 164 (1954) | 2810 | 319 | 424 | 679 | 774 | 1320 | 2580 | 3610 | 5700 | 10100 |
| 2026-03-20 12:00 | 6.70 | 689 | 44000 (2008) | 164 (1954) | 2810 | 319 | 424 | 679 | 774 | 1320 | 2580 | 3610 | 5700 | 10100 |
| 2026-03-20 11:30 | 6.70 | 689 | 44000 (2008) | 164 (1954) | 2810 | 319 | 424 | 679 | 774 | 1320 | 2580 | 3610 | 5700 | 10100 |
| 2026-03-20 11:00 | 6.71 | 694 | 44000 (2008) | 164 (1954) | 2810 | 319 | 424 | 679 | 774 | 1320 | 2580 | 3610 | 5700 | 10100 |
| 2026-03-20 10:30 | 6.71 | 694 | 44000 (2008) | 164 (1954) | 2810 | 319 | 424 | 679 | 774 | 1320 | 2580 | 3610 | 5700 | 10100 |
| 2026-03-20 10:00 | 6.71 | 694 | 44000 (2008) | 164 (1954) | 2810 | 319 | 424 | 679 | 774 | 1320 | 2580 | 3610 | 5700 | 10100 |
| 2026-03-20 09:30 | 6.72 | 699 | 44000 (2008) | 164 (1954) | 2810 | 319 | 424 | 679 | 774 | 1320 | 2580 | 3610 | 5700 | 10100 |
| 2026-03-20 09:00 | 6.72 | 699 | 44000 (2008) | 164 (1954) | 2810 | 319 | 424 | 679 | 774 | 1320 | 2580 | 3610 | 5700 | 10100 |
| 2026-03-20 08:30 | 6.73 | 704 | 44000 (2008) | 164 (1954) | 2810 | 319 | 424 | 679 | 774 | 1320 | 2580 | 3610 | 5700 | 10100 |
| 2026-03-20 08:00 | 6.73 | 704 | 44000 (2008) | 164 (1954) | 2810 | 319 | 424 | 679 | 774 | 1320 | 2580 | 3610 | 5700 | 10100 |
| 2026-03-20 07:30 | 6.73 | 704 | 44000 (2008) | 164 (1954) | 2810 | 319 | 424 | 679 | 774 | 1320 | 2580 | 3610 | 5700 | 10100 |
| 2026-03-20 07:00 | 6.74 | 708 | 44000 (2008) | 164 (1954) | 2810 | 319 | 424 | 679 | 774 | 1320 | 2580 | 3610 | 5700 | 10100 |
| 2026-03-20 06:30 | 6.74 | 708 | 44000 (2008) | 164 (1954) | 2810 | 319 | 424 | 679 | 774 | 1320 | 2580 | 3610 | 5700 | 10100 |
| 2026-03-20 06:00 | 6.75 | 713 | 44000 (2008) | 164 (1954) | 2810 | 319 | 424 | 679 | 774 | 1320 | 2580 | 3610 | 5700 | 10100 |
| 2026-03-20 05:30 | 6.75 | 713 | 44000 (2008) | 164 (1954) | 2810 | 319 | 424 | 679 | 774 | 1320 | 2580 | 3610 | 5700 | 10100 |
| 2026-03-20 05:00 | 6.75 | 713 | 44000 (2008) | 164 (1954) | 2810 | 319 | 424 | 679 | 774 | 1320 | 2580 | 3610 | 5700 | 10100 |
| 2026-03-20 04:30 | 6.75 | 713 | 44000 (2008) | 164 (1954) | 2810 | 319 | 424 | 679 | 774 | 1320 | 2580 | 3610 | 5700 | 10100 |
| 2026-03-20 04:00 | 6.76 | 718 | 44000 (2008) | 164 (1954) | 2810 | 319 | 424 | 679 | 774 | 1320 | 2580 | 3610 | 5700 | 10100 |
| 2026-03-20 03:30 | 6.76 | 718 | 44000 (2008) | 164 (1954) | 2810 | 319 | 424 | 679 | 774 | 1320 | 2580 | 3610 | 5700 | 10100 |
| 2026-03-20 03:00 | 6.76 | 718 | 44000 (2008) | 164 (1954) | 2810 | 319 | 424 | 679 | 774 | 1320 | 2580 | 3610 | 5700 | 10100 |
| 2026-03-20 02:30 | 6.77 | 723 | 44000 (2008) | 164 (1954) | 2810 | 319 | 424 | 679 | 774 | 1320 | 2580 | 3610 | 5700 | 10100 |
| 2026-03-20 02:00 | 6.77 | 723 | 44000 (2008) | 164 (1954) | 2810 | 319 | 424 | 679 | 774 | 1320 | 2580 | 3610 | 5700 | 10100 |
| 2026-03-20 01:30 | 6.77 | 723 | 44000 (2008) | 164 (1954) | 2810 | 319 | 424 | 679 | 774 | 1320 | 2580 | 3610 | 5700 | 10100 |
| 2026-03-20 01:00 | 6.78 | 727 | 44000 (2008) | 164 (1954) | 2810 | 319 | 424 | 679 | 774 | 1320 | 2580 | 3610 | 5700 | 10100 |
| 2026-03-20 00:30 | 6.78 | 727 | 44000 (2008) | 164 (1954) | 2810 | 319 | 424 | 679 | 774 | 1320 | 2580 | 3610 | 5700 | 10100 |
| 2026-03-20 00:00 | 6.78 | 727 | 44000 (2008) | 164 (1954) | 2810 | 319 | 424 | 679 | 774 | 1320 | 2580 | 3610 | 5700 | 10100 |
| 2026-03-19 23:30 | 6.79 | 732 | 44000 (2008) | 164 (1954) | 2810 | 319 | 424 | 679 | 774 | 1320 | 2580 | 3610 | 5700 | 10100 |
| 2026-03-19 23:00 | 6.79 | 732 | 44000 (2008) | 164 (1954) | 2810 | 319 | 424 | 679 | 774 | 1320 | 2580 | 3610 | 5700 | 10100 |
| 2026-03-19 22:30 | 6.79 | 732 | 73700 (2008) | 164 (1954) | 2840 | 324 | 412 | 601 | 727 | 1300 | 2400 | 3010 | 4730 | 8790 |
| 2026-03-19 22:00 | 6.80 | 737 | 73700 (2008) | 164 (1954) | 2840 | 324 | 412 | 601 | 727 | 1300 | 2400 | 3010 | 4730 | 8790 |
| 2026-03-19 21:30 | 6.80 | 737 | 73700 (2008) | 164 (1954) | 2840 | 324 | 412 | 601 | 727 | 1300 | 2400 | 3010 | 4730 | 8790 |
| 2026-03-19 21:00 | 6.80 | 737 | 73700 (2008) | 164 (1954) | 2840 | 324 | 412 | 601 | 727 | 1300 | 2400 | 3010 | 4730 | 8790 |
| 2026-03-19 20:30 | 6.81 | 742 | 73700 (2008) | 164 (1954) | 2840 | 324 | 412 | 601 | 727 | 1300 | 2400 | 3010 | 4730 | 8790 |
| 2026-03-19 20:00 | 6.81 | 742 | 73700 (2008) | 164 (1954) | 2840 | 324 | 412 | 601 | 727 | 1300 | 2400 | 3010 | 4730 | 8790 |
| 2026-03-19 19:30 | 6.81 | 742 | 73700 (2008) | 164 (1954) | 2840 | 324 | 412 | 601 | 727 | 1300 | 2400 | 3010 | 4730 | 8790 |
| 2026-03-19 19:00 | 6.81 | 742 | 73700 (2008) | 164 (1954) | 2840 | 324 | 412 | 601 | 727 | 1300 | 2400 | 3010 | 4730 | 8790 |
| 2026-03-19 18:30 | 6.82 | 747 | 73700 (2008) | 164 (1954) | 2840 | 324 | 412 | 601 | 727 | 1300 | 2400 | 3010 | 4730 | 8790 |
| 2026-03-19 18:00 | 6.80 | 737 | 73700 (2008) | 164 (1954) | 2840 | 324 | 412 | 601 | 727 | 1300 | 2400 | 3010 | 4730 | 8790 |
| 2026-03-19 17:30 | 6.81 | 742 | 73700 (2008) | 164 (1954) | 2840 | 324 | 412 | 601 | 727 | 1300 | 2400 | 3010 | 4730 | 8790 |
| 2026-03-19 17:00 | 6.80 | 737 | 73700 (2008) | 164 (1954) | 2840 | 324 | 412 | 601 | 727 | 1300 | 2400 | 3010 | 4730 | 8790 |
| 2026-03-19 16:30 | 6.80 | 737 | 73700 (2008) | 164 (1954) | 2840 | 324 | 412 | 601 | 727 | 1300 | 2400 | 3010 | 4730 | 8790 |
| 2026-03-19 16:00 | 6.84 | 757 | 73700 (2008) | 164 (1954) | 2840 | 324 | 412 | 601 | 727 | 1300 | 2400 | 3010 | 4730 | 8790 |
| 2026-03-19 15:30 | 6.81 | 742 | 73700 (2008) | 164 (1954) | 2840 | 324 | 412 | 601 | 727 | 1300 | 2400 | 3010 | 4730 | 8790 |
| 2026-03-19 15:00 | 6.83 | 752 | 73700 (2008) | 164 (1954) | 2840 | 324 | 412 | 601 | 727 | 1300 | 2400 | 3010 | 4730 | 8790 |
| 2026-03-19 14:30 | 6.85 | 762 | 73700 (2008) | 164 (1954) | 2840 | 324 | 412 | 601 | 727 | 1300 | 2400 | 3010 | 4730 | 8790 |
| 2026-03-19 14:00 | 6.85 | 762 | 73700 (2008) | 164 (1954) | 2840 | 324 | 412 | 601 | 727 | 1300 | 2400 | 3010 | 4730 | 8790 |
| 2026-03-19 13:30 | 6.86 | 767 | 73700 (2008) | 164 (1954) | 2840 | 324 | 412 | 601 | 727 | 1300 | 2400 | 3010 | 4730 | 8790 |
| 2026-03-19 13:00 | 6.86 | 767 | 73700 (2008) | 164 (1954) | 2840 | 324 | 412 | 601 | 727 | 1300 | 2400 | 3010 | 4730 | 8790 |
| 2026-03-19 12:30 | 6.86 | 767 | 73700 (2008) | 164 (1954) | 2840 | 324 | 412 | 601 | 727 | 1300 | 2400 | 3010 | 4730 | 8790 |
| 2026-03-19 12:00 | 6.87 | 771 | 73700 (2008) | 164 (1954) | 2840 | 324 | 412 | 601 | 727 | 1300 | 2400 | 3010 | 4730 | 8790 |
| 2026-03-19 11:30 | 6.87 | 771 | 73700 (2008) | 164 (1954) | 2840 | 324 | 412 | 601 | 727 | 1300 | 2400 | 3010 | 4730 | 8790 |
| 2026-03-19 11:00 | 6.88 | 776 | 73700 (2008) | 164 (1954) | 2840 | 324 | 412 | 601 | 727 | 1300 | 2400 | 3010 | 4730 | 8790 |
| 2026-03-19 10:30 | 6.88 | 776 | 73700 (2008) | 164 (1954) | 2840 | 324 | 412 | 601 | 727 | 1300 | 2400 | 3010 | 4730 | 8790 |
| 2026-03-19 10:00 | 6.88 | 776 | 73700 (2008) | 164 (1954) | 2840 | 324 | 412 | 601 | 727 | 1300 | 2400 | 3010 | 4730 | 8790 |
| 2026-03-19 09:30 | 6.89 | 781 | 73700 (2008) | 164 (1954) | 2840 | 324 | 412 | 601 | 727 | 1300 | 2400 | 3010 | 4730 | 8790 |
| 2026-03-19 09:00 | 6.89 | 781 | 73700 (2008) | 164 (1954) | 2840 | 324 | 412 | 601 | 727 | 1300 | 2400 | 3010 | 4730 | 8790 |
| 2026-03-19 08:30 | 6.90 | 786 | 73700 (2008) | 164 (1954) | 2840 | 324 | 412 | 601 | 727 | 1300 | 2400 | 3010 | 4730 | 8790 |
| 2026-03-19 08:00 | 6.90 | 786 | 73700 (2008) | 164 (1954) | 2840 | 324 | 412 | 601 | 727 | 1300 | 2400 | 3010 | 4730 | 8790 |
| 2026-03-19 07:30 | 6.91 | 792 | 73700 (2008) | 164 (1954) | 2840 | 324 | 412 | 601 | 727 | 1300 | 2400 | 3010 | 4730 | 8790 |
| 2026-03-19 07:00 | 6.91 | 792 | 73700 (2008) | 164 (1954) | 2840 | 324 | 412 | 601 | 727 | 1300 | 2400 | 3010 | 4730 | 8790 |
| 2026-03-19 06:30 | 6.91 | 792 | 73700 (2008) | 164 (1954) | 2840 | 324 | 412 | 601 | 727 | 1300 | 2400 | 3010 | 4730 | 8790 |
| 2026-03-19 06:00 | 6.92 | 797 | 73700 (2008) | 164 (1954) | 2840 | 324 | 412 | 601 | 727 | 1300 | 2400 | 3010 | 4730 | 8790 |
| 2026-03-19 05:30 | 6.92 | 797 | 73700 (2008) | 164 (1954) | 2840 | 324 | 412 | 601 | 727 | 1300 | 2400 | 3010 | 4730 | 8790 |
| 2026-03-19 05:00 | 6.92 | 797 | 73700 (2008) | 164 (1954) | 2840 | 324 | 412 | 601 | 727 | 1300 | 2400 | 3010 | 4730 | 8790 |
| 2026-03-19 04:30 | 6.93 | 802 | 73700 (2008) | 164 (1954) | 2840 | 324 | 412 | 601 | 727 | 1300 | 2400 | 3010 | 4730 | 8790 |
| 2026-03-19 04:00 | 6.93 | 802 | 73700 (2008) | 164 (1954) | 2840 | 324 | 412 | 601 | 727 | 1300 | 2400 | 3010 | 4730 | 8790 |
| 2026-03-19 03:30 | 6.94 | 807 | 73700 (2008) | 164 (1954) | 2840 | 324 | 412 | 601 | 727 | 1300 | 2400 | 3010 | 4730 | 8790 |
| 2026-03-19 03:00 | 6.94 | 807 | 73700 (2008) | 164 (1954) | 2840 | 324 | 412 | 601 | 727 | 1300 | 2400 | 3010 | 4730 | 8790 |
| 2026-03-19 02:30 | 6.95 | 812 | 73700 (2008) | 164 (1954) | 2840 | 324 | 412 | 601 | 727 | 1300 | 2400 | 3010 | 4730 | 8790 |
| 2026-03-19 02:00 | 6.95 | 812 | 73700 (2008) | 164 (1954) | 2840 | 324 | 412 | 601 | 727 | 1300 | 2400 | 3010 | 4730 | 8790 |
| 2026-03-19 01:30 | 6.95 | 812 | 73700 (2008) | 164 (1954) | 2840 | 324 | 412 | 601 | 727 | 1300 | 2400 | 3010 | 4730 | 8790 |
| 2026-03-19 01:00 | 6.96 | 817 | 73700 (2008) | 164 (1954) | 2840 | 324 | 412 | 601 | 727 | 1300 | 2400 | 3010 | 4730 | 8790 |
| 2026-03-19 00:30 | 6.96 | 817 | 73700 (2008) | 164 (1954) | 2840 | 324 | 412 | 601 | 727 | 1300 | 2400 | 3010 | 4730 | 8790 |
| 2026-03-19 00:00 | 6.97 | 822 | 73700 (2008) | 164 (1954) | 2840 | 324 | 412 | 601 | 727 | 1300 | 2400 | 3010 | 4730 | 8790 |
| 2026-03-18 23:30 | 6.97 | 822 | 73700 (2008) | 164 (1954) | 2840 | 324 | 412 | 601 | 727 | 1300 | 2400 | 3010 | 4730 | 8790 |
| 2026-03-18 23:00 | 6.98 | 827 | 73700 (2008) | 164 (1954) | 2840 | 324 | 412 | 601 | 727 | 1300 | 2400 | 3010 | 4730 | 8790 |
| 2026-03-18 22:30 | 6.98 | 827 | 28400 (2008) | 153 (1954) | 2240 | 342 | 418 | 614 | 689 | 1250 | 2250 | 2440 | 4330 | 9780 |
| 2026-03-18 22:00 | 6.99 | 833 | 28400 (2008) | 153 (1954) | 2240 | 342 | 418 | 614 | 689 | 1250 | 2250 | 2440 | 4330 | 9780 |
| 2026-03-18 21:30 | 6.99 | 833 | 28400 (2008) | 153 (1954) | 2240 | 342 | 418 | 614 | 689 | 1250 | 2250 | 2440 | 4330 | 9780 |
| 2026-03-18 21:00 | 7.00 | 838 | 28400 (2008) | 153 (1954) | 2240 | 342 | 418 | 614 | 689 | 1250 | 2250 | 2440 | 4330 | 9780 |
| 2026-03-18 20:30 | 7.00 | 838 | 28400 (2008) | 153 (1954) | 2240 | 342 | 418 | 614 | 689 | 1250 | 2250 | 2440 | 4330 | 9780 |
| 2026-03-18 20:00 | 7.01 | 843 | 28400 (2008) | 153 (1954) | 2240 | 342 | 418 | 614 | 689 | 1250 | 2250 | 2440 | 4330 | 9780 |
| 2026-03-18 19:30 | 7.01 | 843 | 28400 (2008) | 153 (1954) | 2240 | 342 | 418 | 614 | 689 | 1250 | 2250 | 2440 | 4330 | 9780 |
| 2026-03-18 19:00 | 7.02 | 848 | 28400 (2008) | 153 (1954) | 2240 | 342 | 418 | 614 | 689 | 1250 | 2250 | 2440 | 4330 | 9780 |
| 2026-03-18 18:30 | 7.02 | 848 | 28400 (2008) | 153 (1954) | 2240 | 342 | 418 | 614 | 689 | 1250 | 2250 | 2440 | 4330 | 9780 |
| 2026-03-18 18:00 | 7.03 | 854 | 28400 (2008) | 153 (1954) | 2240 | 342 | 418 | 614 | 689 | 1250 | 2250 | 2440 | 4330 | 9780 |
| 2026-03-18 17:30 | 7.04 | 859 | 28400 (2008) | 153 (1954) | 2240 | 342 | 418 | 614 | 689 | 1250 | 2250 | 2440 | 4330 | 9780 |
| 2026-03-18 17:00 | 7.03 | 854 | 28400 (2008) | 153 (1954) | 2240 | 342 | 418 | 614 | 689 | 1250 | 2250 | 2440 | 4330 | 9780 |
| 2026-03-18 16:30 | 7.05 | 864 | 28400 (2008) | 153 (1954) | 2240 | 342 | 418 | 614 | 689 | 1250 | 2250 | 2440 | 4330 | 9780 |
| 2026-03-18 16:00 | 7.02 | 848 | 28400 (2008) | 153 (1954) | 2240 | 342 | 418 | 614 | 689 | 1250 | 2250 | 2440 | 4330 | 9780 |
| 2026-03-18 15:30 | 7.06 | 869 | 28400 (2008) | 153 (1954) | 2240 | 342 | 418 | 614 | 689 | 1250 | 2250 | 2440 | 4330 | 9780 |
| 2026-03-18 15:00 | 7.06 | 869 | 28400 (2008) | 153 (1954) | 2240 | 342 | 418 | 614 | 689 | 1250 | 2250 | 2440 | 4330 | 9780 |
| 2026-03-18 14:30 | 7.07 | 875 | 28400 (2008) | 153 (1954) | 2240 | 342 | 418 | 614 | 689 | 1250 | 2250 | 2440 | 4330 | 9780 |
| 2026-03-18 14:00 | 7.07 | 875 | 28400 (2008) | 153 (1954) | 2240 | 342 | 418 | 614 | 689 | 1250 | 2250 | 2440 | 4330 | 9780 |
| 2026-03-18 13:30 | 7.09 | 885 | 28400 (2008) | 153 (1954) | 2240 | 342 | 418 | 614 | 689 | 1250 | 2250 | 2440 | 4330 | 9780 |
| 2026-03-18 13:00 | 7.09 | 885 | 28400 (2008) | 153 (1954) | 2240 | 342 | 418 | 614 | 689 | 1250 | 2250 | 2440 | 4330 | 9780 |
| 2026-03-18 12:30 | 7.08 | 880 | 28400 (2008) | 153 (1954) | 2240 | 342 | 418 | 614 | 689 | 1250 | 2250 | 2440 | 4330 | 9780 |
| 2026-03-18 12:00 | 7.07 | 875 | 28400 (2008) | 153 (1954) | 2240 | 342 | 418 | 614 | 689 | 1250 | 2250 | 2440 | 4330 | 9780 |
| 2026-03-18 11:30 | 7.09 | 885 | 28400 (2008) | 153 (1954) | 2240 | 342 | 418 | 614 | 689 | 1250 | 2250 | 2440 | 4330 | 9780 |
| 2026-03-18 11:00 | 7.12 | 902 | 28400 (2008) | 153 (1954) | 2240 | 342 | 418 | 614 | 689 | 1250 | 2250 | 2440 | 4330 | 9780 |
| 2026-03-18 10:30 | 7.10 | 891 | 28400 (2008) | 153 (1954) | 2240 | 342 | 418 | 614 | 689 | 1250 | 2250 | 2440 | 4330 | 9780 |
| 2026-03-18 10:00 | 7.13 | 907 | 28400 (2008) | 153 (1954) | 2240 | 342 | 418 | 614 | 689 | 1250 | 2250 | 2440 | 4330 | 9780 |
| 2026-03-18 09:30 | 7.14 | 913 | 28400 (2008) | 153 (1954) | 2240 | 342 | 418 | 614 | 689 | 1250 | 2250 | 2440 | 4330 | 9780 |
| 2026-03-18 09:00 | 7.15 | 918 | 28400 (2008) | 153 (1954) | 2240 | 342 | 418 | 614 | 689 | 1250 | 2250 | 2440 | 4330 | 9780 |
| 2026-03-18 08:30 | 7.16 | 924 | 28400 (2008) | 153 (1954) | 2240 | 342 | 418 | 614 | 689 | 1250 | 2250 | 2440 | 4330 | 9780 |
| 2026-03-18 08:00 | 7.17 | 929 | 28400 (2008) | 153 (1954) | 2240 | 342 | 418 | 614 | 689 | 1250 | 2250 | 2440 | 4330 | 9780 |
| 2026-03-18 07:30 | 7.18 | 935 | 28400 (2008) | 153 (1954) | 2240 | 342 | 418 | 614 | 689 | 1250 | 2250 | 2440 | 4330 | 9780 |
| 2026-03-18 07:00 | 7.19 | 940 | 28400 (2008) | 153 (1954) | 2240 | 342 | 418 | 614 | 689 | 1250 | 2250 | 2440 | 4330 | 9780 |
| 2026-03-18 06:30 | 7.19 | 940 | 28400 (2008) | 153 (1954) | 2240 | 342 | 418 | 614 | 689 | 1250 | 2250 | 2440 | 4330 | 9780 |
| 2026-03-18 06:00 | 7.20 | 946 | 28400 (2008) | 153 (1954) | 2240 | 342 | 418 | 614 | 689 | 1250 | 2250 | 2440 | 4330 | 9780 |
| 2026-03-18 05:30 | 7.21 | 951 | 28400 (2008) | 153 (1954) | 2240 | 342 | 418 | 614 | 689 | 1250 | 2250 | 2440 | 4330 | 9780 |
| 2026-03-18 05:00 | 7.22 | 957 | 28400 (2008) | 153 (1954) | 2240 | 342 | 418 | 614 | 689 | 1250 | 2250 | 2440 | 4330 | 9780 |
| 2026-03-18 04:30 | 7.22 | 957 | 28400 (2008) | 153 (1954) | 2240 | 342 | 418 | 614 | 689 | 1250 | 2250 | 2440 | 4330 | 9780 |
| 2026-03-18 04:00 | 7.23 | 963 | 28400 (2008) | 153 (1954) | 2240 | 342 | 418 | 614 | 689 | 1250 | 2250 | 2440 | 4330 | 9780 |
| 2026-03-18 03:30 | 7.24 | 968 | 28400 (2008) | 153 (1954) | 2240 | 342 | 418 | 614 | 689 | 1250 | 2250 | 2440 | 4330 | 9780 |
| 2026-03-18 03:00 | 7.24 | 968 | 28400 (2008) | 153 (1954) | 2240 | 342 | 418 | 614 | 689 | 1250 | 2250 | 2440 | 4330 | 9780 |
| 2026-03-18 02:30 | 7.26 | 980 | 28400 (2008) | 153 (1954) | 2240 | 342 | 418 | 614 | 689 | 1250 | 2250 | 2440 | 4330 | 9780 |
| 2026-03-18 02:00 | 7.26 | 980 | 28400 (2008) | 153 (1954) | 2240 | 342 | 418 | 614 | 689 | 1250 | 2250 | 2440 | 4330 | 9780 |
| 2026-03-18 01:30 | 7.25 | 974 | 28400 (2008) | 153 (1954) | 2240 | 342 | 418 | 614 | 689 | 1250 | 2250 | 2440 | 4330 | 9780 |
| 2026-03-18 01:00 | 7.28 | 991 | 28400 (2008) | 153 (1954) | 2240 | 342 | 418 | 614 | 689 | 1250 | 2250 | 2440 | 4330 | 9780 |
| 2026-03-18 00:30 | 7.29 | 997 | 28400 (2008) | 153 (1954) | 2240 | 342 | 418 | 614 | 689 | 1250 | 2250 | 2440 | 4330 | 9780 |
| 2026-03-18 00:00 | 7.30 | 1000 | 28400 (2008) | 153 (1954) | 2240 | 342 | 418 | 614 | 689 | 1250 | 2250 | 2440 | 4330 | 9780 |
| 2026-03-17 23:30 | 7.31 | 1010 | 28400 (2008) | 153 (1954) | 2240 | 342 | 418 | 614 | 689 | 1250 | 2250 | 2440 | 4330 | 9780 |
| 2026-03-17 23:00 | 7.32 | 1010 | 28400 (2008) | 153 (1954) | 2240 | 342 | 418 | 614 | 689 | 1250 | 2250 | 2440 | 4330 | 9780 |
| 2026-03-17 22:30 | 7.33 | 1020 | 12000 (2012) | 160 (1954) | 1760 | 354 | 419 | 572 | 694 | 1240 | 2080 | 2470 | 4070 | 6030 |
| 2026-03-17 22:00 | 7.34 | 1030 | 12000 (2012) | 160 (1954) | 1760 | 354 | 419 | 572 | 694 | 1240 | 2080 | 2470 | 4070 | 6030 |
| 2026-03-17 21:30 | 7.34 | 1030 | 12000 (2012) | 160 (1954) | 1760 | 354 | 419 | 572 | 694 | 1240 | 2080 | 2470 | 4070 | 6030 |
| 2026-03-17 21:00 | 7.35 | 1030 | 12000 (2012) | 160 (1954) | 1760 | 354 | 419 | 572 | 694 | 1240 | 2080 | 2470 | 4070 | 6030 |
| 2026-03-17 20:30 | 7.36 | 1040 | 12000 (2012) | 160 (1954) | 1760 | 354 | 419 | 572 | 694 | 1240 | 2080 | 2470 | 4070 | 6030 |
| 2026-03-17 20:00 | 7.37 | 1040 | 12000 (2012) | 160 (1954) | 1760 | 354 | 419 | 572 | 694 | 1240 | 2080 | 2470 | 4070 | 6030 |
| 2026-03-17 19:30 | 7.36 | 1040 | 12000 (2012) | 160 (1954) | 1760 | 354 | 419 | 572 | 694 | 1240 | 2080 | 2470 | 4070 | 6030 |
| 2026-03-17 19:00 | 7.41 | 1070 | 12000 (2012) | 160 (1954) | 1760 | 354 | 419 | 572 | 694 | 1240 | 2080 | 2470 | 4070 | 6030 |
| 2026-03-17 18:30 | 7.42 | 1070 | 12000 (2012) | 160 (1954) | 1760 | 354 | 419 | 572 | 694 | 1240 | 2080 | 2470 | 4070 | 6030 |
| 2026-03-17 18:00 | 7.43 | 1080 | 12000 (2012) | 160 (1954) | 1760 | 354 | 419 | 572 | 694 | 1240 | 2080 | 2470 | 4070 | 6030 |
| 2026-03-17 17:30 | 7.44 | 1090 | 12000 (2012) | 160 (1954) | 1760 | 354 | 419 | 572 | 694 | 1240 | 2080 | 2470 | 4070 | 6030 |
| 2026-03-17 17:00 | 7.45 | 1090 | 12000 (2012) | 160 (1954) | 1760 | 354 | 419 | 572 | 694 | 1240 | 2080 | 2470 | 4070 | 6030 |
| 2026-03-17 16:30 | 7.47 | 1100 | 12000 (2012) | 160 (1954) | 1760 | 354 | 419 | 572 | 694 | 1240 | 2080 | 2470 | 4070 | 6030 |
| 2026-03-17 16:00 | 7.48 | 1110 | 12000 (2012) | 160 (1954) | 1760 | 354 | 419 | 572 | 694 | 1240 | 2080 | 2470 | 4070 | 6030 |
| 2026-03-17 15:30 | 7.49 | 1120 | 12000 (2012) | 160 (1954) | 1760 | 354 | 419 | 572 | 694 | 1240 | 2080 | 2470 | 4070 | 6030 |
| 2026-03-17 15:00 | 7.51 | 1130 | 12000 (2012) | 160 (1954) | 1760 | 354 | 419 | 572 | 694 | 1240 | 2080 | 2470 | 4070 | 6030 |
| 2026-03-17 14:30 | 7.51 | 1130 | 12000 (2012) | 160 (1954) | 1760 | 354 | 419 | 572 | 694 | 1240 | 2080 | 2470 | 4070 | 6030 |
| 2026-03-17 14:00 | 7.53 | 1140 | 12000 (2012) | 160 (1954) | 1760 | 354 | 419 | 572 | 694 | 1240 | 2080 | 2470 | 4070 | 6030 |
| 2026-03-17 13:30 | 7.54 | 1150 | 12000 (2012) | 160 (1954) | 1760 | 354 | 419 | 572 | 694 | 1240 | 2080 | 2470 | 4070 | 6030 |
| 2026-03-17 13:00 | 7.55 | 1150 | 12000 (2012) | 160 (1954) | 1760 | 354 | 419 | 572 | 694 | 1240 | 2080 | 2470 | 4070 | 6030 |
| 2026-03-17 12:30 | 7.55 | 1150 | 12000 (2012) | 160 (1954) | 1760 | 354 | 419 | 572 | 694 | 1240 | 2080 | 2470 | 4070 | 6030 |
| 2026-03-17 12:00 | 7.57 | 1170 | 12000 (2012) | 160 (1954) | 1760 | 354 | 419 | 572 | 694 | 1240 | 2080 | 2470 | 4070 | 6030 |
| 2026-03-17 11:30 | 7.58 | 1170 | 12000 (2012) | 160 (1954) | 1760 | 354 | 419 | 572 | 694 | 1240 | 2080 | 2470 | 4070 | 6030 |
| 2026-03-17 11:00 | 7.59 | 1180 | 12000 (2012) | 160 (1954) | 1760 | 354 | 419 | 572 | 694 | 1240 | 2080 | 2470 | 4070 | 6030 |
| 2026-03-17 10:30 | 7.60 | 1180 | 12000 (2012) | 160 (1954) | 1760 | 354 | 419 | 572 | 694 | 1240 | 2080 | 2470 | 4070 | 6030 |
| 2026-03-17 10:00 | 7.60 | 1180 | 12000 (2012) | 160 (1954) | 1760 | 354 | 419 | 572 | 694 | 1240 | 2080 | 2470 | 4070 | 6030 |
| 2026-03-17 09:30 | 7.61 | 1190 | 12000 (2012) | 160 (1954) | 1760 | 354 | 419 | 572 | 694 | 1240 | 2080 | 2470 | 4070 | 6030 |
| 2026-03-17 09:00 | 7.62 | 1200 | 12000 (2012) | 160 (1954) | 1760 | 354 | 419 | 572 | 694 | 1240 | 2080 | 2470 | 4070 | 6030 |
| 2026-03-17 08:30 | 7.63 | 1200 | 12000 (2012) | 160 (1954) | 1760 | 354 | 419 | 572 | 694 | 1240 | 2080 | 2470 | 4070 | 6030 |
| 2026-03-17 08:00 | 7.63 | 1200 | 12000 (2012) | 160 (1954) | 1760 | 354 | 419 | 572 | 694 | 1240 | 2080 | 2470 | 4070 | 6030 |
| 2026-03-17 07:30 | 7.64 | 1210 | 12000 (2012) | 160 (1954) | 1760 | 354 | 419 | 572 | 694 | 1240 | 2080 | 2470 | 4070 | 6030 |
| 2026-03-17 07:00 | 7.64 | 1210 | 12000 (2012) | 160 (1954) | 1760 | 354 | 419 | 572 | 694 | 1240 | 2080 | 2470 | 4070 | 6030 |
| 2026-03-17 06:30 | 7.64 | 1210 | 12000 (2012) | 160 (1954) | 1760 | 354 | 419 | 572 | 694 | 1240 | 2080 | 2470 | 4070 | 6030 |
| 2026-03-17 06:00 | 7.63 | 1200 | 12000 (2012) | 160 (1954) | 1760 | 354 | 419 | 572 | 694 | 1240 | 2080 | 2470 | 4070 | 6030 |
| 2026-03-17 05:30 | 7.63 | 1200 | 12000 (2012) | 160 (1954) | 1760 | 354 | 419 | 572 | 694 | 1240 | 2080 | 2470 | 4070 | 6030 |
| 2026-03-17 05:00 | 7.61 | 1190 | 12000 (2012) | 160 (1954) | 1760 | 354 | 419 | 572 | 694 | 1240 | 2080 | 2470 | 4070 | 6030 |
| 2026-03-17 04:30 | 7.60 | 1180 | 12000 (2012) | 160 (1954) | 1760 | 354 | 419 | 572 | 694 | 1240 | 2080 | 2470 | 4070 | 6030 |
| 2026-03-17 04:00 | 7.58 | 1170 | 12000 (2012) | 160 (1954) | 1760 | 354 | 419 | 572 | 694 | 1240 | 2080 | 2470 | 4070 | 6030 |
| 2026-03-17 03:30 | 7.56 | 1160 | 12000 (2012) | 160 (1954) | 1760 | 354 | 419 | 572 | 694 | 1240 | 2080 | 2470 | 4070 | 6030 |
| 2026-03-17 03:00 | 7.53 | 1140 | 12000 (2012) | 160 (1954) | 1760 | 354 | 419 | 572 | 694 | 1240 | 2080 | 2470 | 4070 | 6030 |
| 2026-03-17 02:30 | 7.50 | 1120 | 12000 (2012) | 160 (1954) | 1760 | 354 | 419 | 572 | 694 | 1240 | 2080 | 2470 | 4070 | 6030 |
| 2026-03-17 02:00 | 7.46 | 1100 | 12000 (2012) | 160 (1954) | 1760 | 354 | 419 | 572 | 694 | 1240 | 2080 | 2470 | 4070 | 6030 |
| 2026-03-17 01:30 | 7.42 | 1070 | 12000 (2012) | 160 (1954) | 1760 | 354 | 419 | 572 | 694 | 1240 | 2080 | 2470 | 4070 | 6030 |
| 2026-03-17 01:00 | 7.37 | 1040 | 12000 (2012) | 160 (1954) | 1760 | 354 | 419 | 572 | 694 | 1240 | 2080 | 2470 | 4070 | 6030 |
| 2026-03-17 00:30 | 7.33 | 1020 | 12000 (2012) | 160 (1954) | 1760 | 354 | 419 | 572 | 694 | 1240 | 2080 | 2470 | 4070 | 6030 |
| 2026-03-17 00:00 | 7.28 | 991 | 12000 (2012) | 160 (1954) | 1760 | 354 | 419 | 572 | 694 | 1240 | 2080 | 2470 | 4070 | 6030 |
| 2026-03-16 23:30 | 7.24 | 968 | 12000 (2012) | 160 (1954) | 1760 | 354 | 419 | 572 | 694 | 1240 | 2080 | 2470 | 4070 | 6030 |
| 2026-03-16 23:00 | 7.20 | 946 | 12000 (2012) | 160 (1954) | 1760 | 354 | 419 | 572 | 694 | 1240 | 2080 | 2470 | 4070 | 6030 |
| 2026-03-16 22:30 | 7.16 | 924 | 34600 (1923) | 167 (1954) | 2250 | 315 | 424 | 559 | 621 | 1190 | 2060 | 3250 | 5080 | 7430 |
| 2026-03-16 22:00 | 7.13 | 907 | 34600 (1923) | 167 (1954) | 2250 | 315 | 424 | 559 | 621 | 1190 | 2060 | 3250 | 5080 | 7430 |
| 2026-03-16 21:30 | 7.11 | 896 | 34600 (1923) | 167 (1954) | 2250 | 315 | 424 | 559 | 621 | 1190 | 2060 | 3250 | 5080 | 7430 |
| 2026-03-16 21:00 | 7.09 | 885 | 34600 (1923) | 167 (1954) | 2250 | 315 | 424 | 559 | 621 | 1190 | 2060 | 3250 | 5080 | 7430 |
| 2026-03-16 20:30 | 7.06 | 869 | 34600 (1923) | 167 (1954) | 2250 | 315 | 424 | 559 | 621 | 1190 | 2060 | 3250 | 5080 | 7430 |
| 2026-03-16 20:00 | 7.02 | 848 | 34600 (1923) | 167 (1954) | 2250 | 315 | 424 | 559 | 621 | 1190 | 2060 | 3250 | 5080 | 7430 |
| 2026-03-16 19:30 | 7.03 | 854 | 34600 (1923) | 167 (1954) | 2250 | 315 | 424 | 559 | 621 | 1190 | 2060 | 3250 | 5080 | 7430 |
| 2026-03-16 19:00 | 7.00 | 838 | 34600 (1923) | 167 (1954) | 2250 | 315 | 424 | 559 | 621 | 1190 | 2060 | 3250 | 5080 | 7430 |
| 2026-03-16 18:30 | 7.01 | 843 | 34600 (1923) | 167 (1954) | 2250 | 315 | 424 | 559 | 621 | 1190 | 2060 | 3250 | 5080 | 7430 |
| 2026-03-16 18:00 | 6.99 | 833 | 34600 (1923) | 167 (1954) | 2250 | 315 | 424 | 559 | 621 | 1190 | 2060 | 3250 | 5080 | 7430 |
| 2026-03-16 17:30 | 7.00 | 838 | 34600 (1923) | 167 (1954) | 2250 | 315 | 424 | 559 | 621 | 1190 | 2060 | 3250 | 5080 | 7430 |
| 2026-03-16 17:00 | 7.00 | 838 | 34600 (1923) | 167 (1954) | 2250 | 315 | 424 | 559 | 621 | 1190 | 2060 | 3250 | 5080 | 7430 |
| 2026-03-16 16:30 | 6.96 | 817 | 34600 (1923) | 167 (1954) | 2250 | 315 | 424 | 559 | 621 | 1190 | 2060 | 3250 | 5080 | 7430 |
| 2026-03-16 16:00 | 6.96 | 817 | 34600 (1923) | 167 (1954) | 2250 | 315 | 424 | 559 | 621 | 1190 | 2060 | 3250 | 5080 | 7430 |
| 2026-03-16 15:30 | 6.97 | 822 | 34600 (1923) | 167 (1954) | 2250 | 315 | 424 | 559 | 621 | 1190 | 2060 | 3250 | 5080 | 7430 |
| 2026-03-16 15:00 | 6.93 | 802 | 34600 (1923) | 167 (1954) | 2250 | 315 | 424 | 559 | 621 | 1190 | 2060 | 3250 | 5080 | 7430 |
| 2026-03-16 14:30 | 6.97 | 822 | 34600 (1923) | 167 (1954) | 2250 | 315 | 424 | 559 | 621 | 1190 | 2060 | 3250 | 5080 | 7430 |
| 2026-03-16 14:00 | 6.96 | 817 | 34600 (1923) | 167 (1954) | 2250 | 315 | 424 | 559 | 621 | 1190 | 2060 | 3250 | 5080 | 7430 |
| 2026-03-16 13:30 | 6.97 | 822 | 34600 (1923) | 167 (1954) | 2250 | 315 | 424 | 559 | 621 | 1190 | 2060 | 3250 | 5080 | 7430 |
| 2026-03-16 13:00 | 6.94 | 807 | 34600 (1923) | 167 (1954) | 2250 | 315 | 424 | 559 | 621 | 1190 | 2060 | 3250 | 5080 | 7430 |
| 2026-03-16 12:30 | 6.94 | 807 | 34600 (1923) | 167 (1954) | 2250 | 315 | 424 | 559 | 621 | 1190 | 2060 | 3250 | 5080 | 7430 |
| 2026-03-16 12:00 | 6.91 | 792 | 34600 (1923) | 167 (1954) | 2250 | 315 | 424 | 559 | 621 | 1190 | 2060 | 3250 | 5080 | 7430 |
| 2026-03-16 11:30 | 6.94 | 807 | 34600 (1923) | 167 (1954) | 2250 | 315 | 424 | 559 | 621 | 1190 | 2060 | 3250 | 5080 | 7430 |
| 2026-03-16 11:00 | 6.94 | 807 | 34600 (1923) | 167 (1954) | 2250 | 315 | 424 | 559 | 621 | 1190 | 2060 | 3250 | 5080 | 7430 |
| 2026-03-16 10:30 | 6.91 | 792 | 34600 (1923) | 167 (1954) | 2250 | 315 | 424 | 559 | 621 | 1190 | 2060 | 3250 | 5080 | 7430 |
| 2026-03-16 10:00 | 6.94 | 807 | 34600 (1923) | 167 (1954) | 2250 | 315 | 424 | 559 | 621 | 1190 | 2060 | 3250 | 5080 | 7430 |
| 2026-03-16 09:30 | 6.95 | 812 | 34600 (1923) | 167 (1954) | 2250 | 315 | 424 | 559 | 621 | 1190 | 2060 | 3250 | 5080 | 7430 |
| 2026-03-16 09:00 | 6.95 | 812 | 34600 (1923) | 167 (1954) | 2250 | 315 | 424 | 559 | 621 | 1190 | 2060 | 3250 | 5080 | 7430 |
| 2026-03-16 08:30 | 6.91 | 792 | 34600 (1923) | 167 (1954) | 2250 | 315 | 424 | 559 | 621 | 1190 | 2060 | 3250 | 5080 | 7430 |
| 2026-03-16 08:00 | 6.94 | 807 | 34600 (1923) | 167 (1954) | 2250 | 315 | 424 | 559 | 621 | 1190 | 2060 | 3250 | 5080 | 7430 |
| 2026-03-16 07:30 | 6.96 | 817 | 34600 (1923) | 167 (1954) | 2250 | 315 | 424 | 559 | 621 | 1190 | 2060 | 3250 | 5080 | 7430 |
| 2026-03-16 07:00 | 6.95 | 812 | 34600 (1923) | 167 (1954) | 2250 | 315 | 424 | 559 | 621 | 1190 | 2060 | 3250 | 5080 | 7430 |
| 2026-03-16 06:30 | 6.94 | 807 | 34600 (1923) | 167 (1954) | 2250 | 315 | 424 | 559 | 621 | 1190 | 2060 | 3250 | 5080 | 7430 |
| 2026-03-16 06:00 | 6.97 | 822 | 34600 (1923) | 167 (1954) | 2250 | 315 | 424 | 559 | 621 | 1190 | 2060 | 3250 | 5080 | 7430 |
| 2026-03-16 05:30 | 6.95 | 812 | 34600 (1923) | 167 (1954) | 2250 | 315 | 424 | 559 | 621 | 1190 | 2060 | 3250 | 5080 | 7430 |
| 2026-03-16 05:00 | 6.95 | 812 | 34600 (1923) | 167 (1954) | 2250 | 315 | 424 | 559 | 621 | 1190 | 2060 | 3250 | 5080 | 7430 |
| 2026-03-16 04:30 | 6.95 | 812 | 34600 (1923) | 167 (1954) | 2250 | 315 | 424 | 559 | 621 | 1190 | 2060 | 3250 | 5080 | 7430 |
| 2026-03-16 04:00 | 6.94 | 807 | 34600 (1923) | 167 (1954) | 2250 | 315 | 424 | 559 | 621 | 1190 | 2060 | 3250 | 5080 | 7430 |
| 2026-03-16 03:30 | 6.95 | 812 | 34600 (1923) | 167 (1954) | 2250 | 315 | 424 | 559 | 621 | 1190 | 2060 | 3250 | 5080 | 7430 |
| 2026-03-16 03:00 | 6.96 | 817 | 34600 (1923) | 167 (1954) | 2250 | 315 | 424 | 559 | 621 | 1190 | 2060 | 3250 | 5080 | 7430 |
| 2026-03-16 02:30 | 6.93 | 802 | 34600 (1923) | 167 (1954) | 2250 | 315 | 424 | 559 | 621 | 1190 | 2060 | 3250 | 5080 | 7430 |
| 2026-03-16 02:00 | 6.95 | 812 | 34600 (1923) | 167 (1954) | 2250 | 315 | 424 | 559 | 621 | 1190 | 2060 | 3250 | 5080 | 7430 |
| 2026-03-16 01:30 | 6.94 | 807 | 34600 (1923) | 167 (1954) | 2250 | 315 | 424 | 559 | 621 | 1190 | 2060 | 3250 | 5080 | 7430 |
| 2026-03-16 01:00 | 6.96 | 817 | 34600 (1923) | 167 (1954) | 2250 | 315 | 424 | 559 | 621 | 1190 | 2060 | 3250 | 5080 | 7430 |
| 2026-03-16 00:30 | 6.94 | 807 | 34600 (1923) | 167 (1954) | 2250 | 315 | 424 | 559 | 621 | 1190 | 2060 | 3250 | 5080 | 7430 |
| 2026-03-16 00:00 | 6.96 | 817 | 34600 (1923) | 167 (1954) | 2250 | 315 | 424 | 559 | 621 | 1190 | 2060 | 3250 | 5080 | 7430 |
| 2026-03-15 23:30 | 6.94 | 807 | 34600 (1923) | 167 (1954) | 2250 | 315 | 424 | 559 | 621 | 1190 | 2060 | 3250 | 5080 | 7430 |
| 2026-03-15 23:00 | 6.95 | 812 | 34600 (1923) | 167 (1954) | 2250 | 315 | 424 | 559 | 621 | 1190 | 2060 | 3250 | 5080 | 7430 |
| 2026-03-15 22:30 | 6.92 | 797 | 11700 (1922) | 174 (1941) | 1950 | 329 | 431 | 539 | 615 | 1200 | 2180 | 2570 | 4520 | 7270 |
| 2026-03-15 22:00 | 6.92 | 797 | 11700 (1922) | 174 (1941) | 1950 | 329 | 431 | 539 | 615 | 1200 | 2180 | 2570 | 4520 | 7270 |
| 2026-03-15 21:30 | 6.94 | 807 | 11700 (1922) | 174 (1941) | 1950 | 329 | 431 | 539 | 615 | 1200 | 2180 | 2570 | 4520 | 7270 |
| 2026-03-15 21:00 | 6.94 | 807 | 11700 (1922) | 174 (1941) | 1950 | 329 | 431 | 539 | 615 | 1200 | 2180 | 2570 | 4520 | 7270 |
| 2026-03-15 20:30 | 6.93 | 802 | 11700 (1922) | 174 (1941) | 1950 | 329 | 431 | 539 | 615 | 1200 | 2180 | 2570 | 4520 | 7270 |
| 2026-03-15 20:00 | 6.97 | 822 | 11700 (1922) | 174 (1941) | 1950 | 329 | 431 | 539 | 615 | 1200 | 2180 | 2570 | 4520 | 7270 |
| 2026-03-15 19:30 | 6.93 | 802 | 11700 (1922) | 174 (1941) | 1950 | 329 | 431 | 539 | 615 | 1200 | 2180 | 2570 | 4520 | 7270 |
| 2026-03-15 19:00 | 6.95 | 812 | 11700 (1922) | 174 (1941) | 1950 | 329 | 431 | 539 | 615 | 1200 | 2180 | 2570 | 4520 | 7270 |
| 2026-03-15 18:30 | 6.93 | 802 | 11700 (1922) | 174 (1941) | 1950 | 329 | 431 | 539 | 615 | 1200 | 2180 | 2570 | 4520 | 7270 |
| 2026-03-15 18:00 | 6.95 | 812 | 11700 (1922) | 174 (1941) | 1950 | 329 | 431 | 539 | 615 | 1200 | 2180 | 2570 | 4520 | 7270 |
| 2026-03-15 17:30 | 6.90 | 786 | 11700 (1922) | 174 (1941) | 1950 | 329 | 431 | 539 | 615 | 1200 | 2180 | 2570 | 4520 | 7270 |
| 2026-03-15 17:00 | 6.91 | 792 | 11700 (1922) | 174 (1941) | 1950 | 329 | 431 | 539 | 615 | 1200 | 2180 | 2570 | 4520 | 7270 |
| 2026-03-15 16:30 | 6.91 | 792 | 11700 (1922) | 174 (1941) | 1950 | 329 | 431 | 539 | 615 | 1200 | 2180 | 2570 | 4520 | 7270 |
| 2026-03-15 16:00 | 6.91 | 792 | 11700 (1922) | 174 (1941) | 1950 | 329 | 431 | 539 | 615 | 1200 | 2180 | 2570 | 4520 | 7270 |
| 2026-03-15 15:30 | 6.92 | 797 | 11700 (1922) | 174 (1941) | 1950 | 329 | 431 | 539 | 615 | 1200 | 2180 | 2570 | 4520 | 7270 |
| 2026-03-15 15:00 | 6.93 | 802 | 11700 (1922) | 174 (1941) | 1950 | 329 | 431 | 539 | 615 | 1200 | 2180 | 2570 | 4520 | 7270 |
| 2026-03-15 14:30 | 6.93 | 802 | 11700 (1922) | 174 (1941) | 1950 | 329 | 431 | 539 | 615 | 1200 | 2180 | 2570 | 4520 | 7270 |
| 2026-03-15 14:00 | 6.95 | 812 | 11700 (1922) | 174 (1941) | 1950 | 329 | 431 | 539 | 615 | 1200 | 2180 | 2570 | 4520 | 7270 |
| 2026-03-15 13:30 | 6.95 | 812 | 11700 (1922) | 174 (1941) | 1950 | 329 | 431 | 539 | 615 | 1200 | 2180 | 2570 | 4520 | 7270 |
| 2026-03-15 13:00 | 6.96 | 817 | 11700 (1922) | 174 (1941) | 1950 | 329 | 431 | 539 | 615 | 1200 | 2180 | 2570 | 4520 | 7270 |
| 2026-03-15 12:30 | 6.97 | 822 | 11700 (1922) | 174 (1941) | 1950 | 329 | 431 | 539 | 615 | 1200 | 2180 | 2570 | 4520 | 7270 |
| 2026-03-15 12:00 | 6.95 | 812 | 11700 (1922) | 174 (1941) | 1950 | 329 | 431 | 539 | 615 | 1200 | 2180 | 2570 | 4520 | 7270 |
| 2026-03-15 11:30 | 6.95 | 812 | 11700 (1922) | 174 (1941) | 1950 | 329 | 431 | 539 | 615 | 1200 | 2180 | 2570 | 4520 | 7270 |
| 2026-03-15 11:00 | 6.97 | 822 | 11700 (1922) | 174 (1941) | 1950 | 329 | 431 | 539 | 615 | 1200 | 2180 | 2570 | 4520 | 7270 |
| 2026-03-15 10:30 | 6.97 | 822 | 11700 (1922) | 174 (1941) | 1950 | 329 | 431 | 539 | 615 | 1200 | 2180 | 2570 | 4520 | 7270 |
| 2026-03-15 10:00 | 6.95 | 812 | 11700 (1922) | 174 (1941) | 1950 | 329 | 431 | 539 | 615 | 1200 | 2180 | 2570 | 4520 | 7270 |
| 2026-03-15 09:30 | 6.98 | 827 | 11700 (1922) | 174 (1941) | 1950 | 329 | 431 | 539 | 615 | 1200 | 2180 | 2570 | 4520 | 7270 |
| 2026-03-15 09:00 | 6.99 | 833 | 11700 (1922) | 174 (1941) | 1950 | 329 | 431 | 539 | 615 | 1200 | 2180 | 2570 | 4520 | 7270 |
| 2026-03-15 08:30 | 6.98 | 827 | 11700 (1922) | 174 (1941) | 1950 | 329 | 431 | 539 | 615 | 1200 | 2180 | 2570 | 4520 | 7270 |
| 2026-03-15 08:00 | 6.99 | 833 | 11700 (1922) | 174 (1941) | 1950 | 329 | 431 | 539 | 615 | 1200 | 2180 | 2570 | 4520 | 7270 |
| 2026-03-15 07:30 | 7.01 | 843 | 11700 (1922) | 174 (1941) | 1950 | 329 | 431 | 539 | 615 | 1200 | 2180 | 2570 | 4520 | 7270 |
| 2026-03-15 07:00 | 7.03 | 854 | 11700 (1922) | 174 (1941) | 1950 | 329 | 431 | 539 | 615 | 1200 | 2180 | 2570 | 4520 | 7270 |
| 2026-03-15 06:30 | 7.03 | 854 | 11700 (1922) | 174 (1941) | 1950 | 329 | 431 | 539 | 615 | 1200 | 2180 | 2570 | 4520 | 7270 |
| 2026-03-15 06:00 | 7.04 | 859 | 11700 (1922) | 174 (1941) | 1950 | 329 | 431 | 539 | 615 | 1200 | 2180 | 2570 | 4520 | 7270 |
| 2026-03-15 05:30 | 7.05 | 864 | 11700 (1922) | 174 (1941) | 1950 | 329 | 431 | 539 | 615 | 1200 | 2180 | 2570 | 4520 | 7270 |
| 2026-03-15 05:00 | 7.07 | 875 | 11700 (1922) | 174 (1941) | 1950 | 329 | 431 | 539 | 615 | 1200 | 2180 | 2570 | 4520 | 7270 |
| 2026-03-15 04:30 | 7.07 | 875 | 11700 (1922) | 174 (1941) | 1950 | 329 | 431 | 539 | 615 | 1200 | 2180 | 2570 | 4520 | 7270 |
| 2026-03-15 04:00 | 7.08 | 880 | 11700 (1922) | 174 (1941) | 1950 | 329 | 431 | 539 | 615 | 1200 | 2180 | 2570 | 4520 | 7270 |
| 2026-03-15 03:30 | 7.08 | 880 | 11700 (1922) | 174 (1941) | 1950 | 329 | 431 | 539 | 615 | 1200 | 2180 | 2570 | 4520 | 7270 |
| 2026-03-15 03:00 | 7.09 | 885 | 11700 (1922) | 174 (1941) | 1950 | 329 | 431 | 539 | 615 | 1200 | 2180 | 2570 | 4520 | 7270 |
| 2026-03-15 02:30 | 7.09 | 885 | 11700 (1922) | 174 (1941) | 1950 | 329 | 431 | 539 | 615 | 1200 | 2180 | 2570 | 4520 | 7270 |
| 2026-03-15 02:00 | 7.10 | 891 | 11700 (1922) | 174 (1941) | 1950 | 329 | 431 | 539 | 615 | 1200 | 2180 | 2570 | 4520 | 7270 |
| 2026-03-15 01:30 | 7.10 | 891 | 11700 (1922) | 174 (1941) | 1950 | 329 | 431 | 539 | 615 | 1200 | 2180 | 2570 | 4520 | 7270 |
| 2026-03-15 01:00 | 7.11 | 896 | 11700 (1922) | 174 (1941) | 1950 | 329 | 431 | 539 | 615 | 1200 | 2180 | 2570 | 4520 | 7270 |
| 2026-03-15 00:30 | 7.11 | 896 | 11700 (1922) | 174 (1941) | 1950 | 329 | 431 | 539 | 615 | 1200 | 2180 | 2570 | 4520 | 7270 |
| 2026-03-15 00:00 | 7.12 | 902 | 11700 (1922) | 174 (1941) | 1950 | 329 | 431 | 539 | 615 | 1200 | 2180 | 2570 | 4520 | 7270 |
| 2026-03-14 23:30 | 7.12 | 902 | 11700 (1922) | 174 (1941) | 1950 | 329 | 431 | 539 | 615 | 1200 | 2180 | 2570 | 4520 | 7270 |
| 2026-03-14 23:00 | 7.13 | 907 | 11700 (1922) | 174 (1941) | 1950 | 329 | 431 | 539 | 615 | 1200 | 2180 | 2570 | 4520 | 7270 |
| 2026-03-14 22:30 | 7.14 | 913 | 15000 (2015) | 172 (1941) | 2020 | 322 | 431 | 560 | 663 | 1050 | 2590 | 2900 | 4390 | 6980 |
| 2026-03-14 22:00 | 7.14 | 913 | 15000 (2015) | 172 (1941) | 2020 | 322 | 431 | 560 | 663 | 1050 | 2590 | 2900 | 4390 | 6980 |
| 2026-03-14 21:30 | 7.15 | 918 | 15000 (2015) | 172 (1941) | 2020 | 322 | 431 | 560 | 663 | 1050 | 2590 | 2900 | 4390 | 6980 |
| 2026-03-14 21:00 | 7.15 | 918 | 15000 (2015) | 172 (1941) | 2020 | 322 | 431 | 560 | 663 | 1050 | 2590 | 2900 | 4390 | 6980 |
| 2026-03-14 20:30 | 7.16 | 924 | 15000 (2015) | 172 (1941) | 2020 | 322 | 431 | 560 | 663 | 1050 | 2590 | 2900 | 4390 | 6980 |
| 2026-03-14 20:00 | 7.16 | 924 | 15000 (2015) | 172 (1941) | 2020 | 322 | 431 | 560 | 663 | 1050 | 2590 | 2900 | 4390 | 6980 |
| 2026-03-14 19:30 | 7.17 | 929 | 15000 (2015) | 172 (1941) | 2020 | 322 | 431 | 560 | 663 | 1050 | 2590 | 2900 | 4390 | 6980 |
| 2026-03-14 19:00 | 7.17 | 929 | 15000 (2015) | 172 (1941) | 2020 | 322 | 431 | 560 | 663 | 1050 | 2590 | 2900 | 4390 | 6980 |
| 2026-03-14 18:30 | 7.16 | 924 | 15000 (2015) | 172 (1941) | 2020 | 322 | 431 | 560 | 663 | 1050 | 2590 | 2900 | 4390 | 6980 |
| 2026-03-14 18:00 | 7.15 | 918 | 15000 (2015) | 172 (1941) | 2020 | 322 | 431 | 560 | 663 | 1050 | 2590 | 2900 | 4390 | 6980 |
| 2026-03-14 17:30 | 7.15 | 918 | 15000 (2015) | 172 (1941) | 2020 | 322 | 431 | 560 | 663 | 1050 | 2590 | 2900 | 4390 | 6980 |
| 2026-03-14 17:00 | 7.15 | 918 | 15000 (2015) | 172 (1941) | 2020 | 322 | 431 | 560 | 663 | 1050 | 2590 | 2900 | 4390 | 6980 |
| 2026-03-14 16:30 | 7.16 | 924 | 15000 (2015) | 172 (1941) | 2020 | 322 | 431 | 560 | 663 | 1050 | 2590 | 2900 | 4390 | 6980 |
| 2026-03-14 16:00 | 7.16 | 924 | 15000 (2015) | 172 (1941) | 2020 | 322 | 431 | 560 | 663 | 1050 | 2590 | 2900 | 4390 | 6980 |
| 2026-03-14 15:30 | 7.16 | 924 | 15000 (2015) | 172 (1941) | 2020 | 322 | 431 | 560 | 663 | 1050 | 2590 | 2900 | 4390 | 6980 |
| 2026-03-14 15:00 | 7.19 | 940 | 15000 (2015) | 172 (1941) | 2020 | 322 | 431 | 560 | 663 | 1050 | 2590 | 2900 | 4390 | 6980 |
| 2026-03-14 14:30 | 7.19 | 940 | 15000 (2015) | 172 (1941) | 2020 | 322 | 431 | 560 | 663 | 1050 | 2590 | 2900 | 4390 | 6980 |
| 2026-03-14 14:00 | 7.23 | 963 | 15000 (2015) | 172 (1941) | 2020 | 322 | 431 | 560 | 663 | 1050 | 2590 | 2900 | 4390 | 6980 |
| 2026-03-14 13:30 | 7.20 | 946 | 15000 (2015) | 172 (1941) | 2020 | 322 | 431 | 560 | 663 | 1050 | 2590 | 2900 | 4390 | 6980 |
| 2026-03-14 13:00 | 7.23 | 963 | 15000 (2015) | 172 (1941) | 2020 | 322 | 431 | 560 | 663 | 1050 | 2590 | 2900 | 4390 | 6980 |
| 2026-03-14 12:30 | 7.21 | 951 | 15000 (2015) | 172 (1941) | 2020 | 322 | 431 | 560 | 663 | 1050 | 2590 | 2900 | 4390 | 6980 |
| 2026-03-14 12:00 | 7.23 | 963 | 15000 (2015) | 172 (1941) | 2020 | 322 | 431 | 560 | 663 | 1050 | 2590 | 2900 | 4390 | 6980 |
| 2026-03-14 11:30 | 7.25 | 974 | 15000 (2015) | 172 (1941) | 2020 | 322 | 431 | 560 | 663 | 1050 | 2590 | 2900 | 4390 | 6980 |
| 2026-03-14 11:00 | 7.24 | 968 | 15000 (2015) | 172 (1941) | 2020 | 322 | 431 | 560 | 663 | 1050 | 2590 | 2900 | 4390 | 6980 |
| 2026-03-14 10:30 | 7.25 | 974 | 15000 (2015) | 172 (1941) | 2020 | 322 | 431 | 560 | 663 | 1050 | 2590 | 2900 | 4390 | 6980 |
| 2026-03-14 10:00 | 7.26 | 980 | 15000 (2015) | 172 (1941) | 2020 | 322 | 431 | 560 | 663 | 1050 | 2590 | 2900 | 4390 | 6980 |
| 2026-03-14 09:30 | 7.28 | 991 | 15000 (2015) | 172 (1941) | 2020 | 322 | 431 | 560 | 663 | 1050 | 2590 | 2900 | 4390 | 6980 |
| 2026-03-14 09:00 | 7.29 | 997 | 15000 (2015) | 172 (1941) | 2020 | 322 | 431 | 560 | 663 | 1050 | 2590 | 2900 | 4390 | 6980 |
| 2026-03-14 08:30 | 7.30 | 1000 | 15000 (2015) | 172 (1941) | 2020 | 322 | 431 | 560 | 663 | 1050 | 2590 | 2900 | 4390 | 6980 |
| 2026-03-14 08:00 | 7.30 | 1000 | 15000 (2015) | 172 (1941) | 2020 | 322 | 431 | 560 | 663 | 1050 | 2590 | 2900 | 4390 | 6980 |
| 2026-03-14 07:30 | 7.31 | 1010 | 15000 (2015) | 172 (1941) | 2020 | 322 | 431 | 560 | 663 | 1050 | 2590 | 2900 | 4390 | 6980 |
| 2026-03-14 07:00 | 7.31 | 1010 | 15000 (2015) | 172 (1941) | 2020 | 322 | 431 | 560 | 663 | 1050 | 2590 | 2900 | 4390 | 6980 |
| 2026-03-14 06:30 | 7.32 | 1010 | 15000 (2015) | 172 (1941) | 2020 | 322 | 431 | 560 | 663 | 1050 | 2590 | 2900 | 4390 | 6980 |
| 2026-03-14 06:00 | 7.33 | 1020 | 15000 (2015) | 172 (1941) | 2020 | 322 | 431 | 560 | 663 | 1050 | 2590 | 2900 | 4390 | 6980 |
| 2026-03-14 05:30 | 7.33 | 1020 | 15000 (2015) | 172 (1941) | 2020 | 322 | 431 | 560 | 663 | 1050 | 2590 | 2900 | 4390 | 6980 |
| 2026-03-14 05:00 | 7.34 | 1030 | 15000 (2015) | 172 (1941) | 2020 | 322 | 431 | 560 | 663 | 1050 | 2590 | 2900 | 4390 | 6980 |
| 2026-03-14 04:30 | 7.35 | 1030 | 15000 (2015) | 172 (1941) | 2020 | 322 | 431 | 560 | 663 | 1050 | 2590 | 2900 | 4390 | 6980 |
| 2026-03-14 04:00 | 7.36 | 1040 | 15000 (2015) | 172 (1941) | 2020 | 322 | 431 | 560 | 663 | 1050 | 2590 | 2900 | 4390 | 6980 |
| 2026-03-14 03:30 | 7.36 | 1040 | 15000 (2015) | 172 (1941) | 2020 | 322 | 431 | 560 | 663 | 1050 | 2590 | 2900 | 4390 | 6980 |
| 2026-03-14 03:00 | 7.37 | 1040 | 15000 (2015) | 172 (1941) | 2020 | 322 | 431 | 560 | 663 | 1050 | 2590 | 2900 | 4390 | 6980 |
| 2026-03-14 02:30 | 7.38 | 1050 | 15000 (2015) | 172 (1941) | 2020 | 322 | 431 | 560 | 663 | 1050 | 2590 | 2900 | 4390 | 6980 |
| 2026-03-14 02:00 | 7.38 | 1050 | 15000 (2015) | 172 (1941) | 2020 | 322 | 431 | 560 | 663 | 1050 | 2590 | 2900 | 4390 | 6980 |
| 2026-03-14 01:30 | 7.39 | 1060 | 15000 (2015) | 172 (1941) | 2020 | 322 | 431 | 560 | 663 | 1050 | 2590 | 2900 | 4390 | 6980 |
| 2026-03-14 01:00 | 7.39 | 1060 | 15000 (2015) | 172 (1941) | 2020 | 322 | 431 | 560 | 663 | 1050 | 2590 | 2900 | 4390 | 6980 |
| 2026-03-14 00:30 | 7.40 | 1060 | 15000 (2015) | 172 (1941) | 2020 | 322 | 431 | 560 | 663 | 1050 | 2590 | 2900 | 4390 | 6980 |
| 2026-03-14 00:00 | 7.41 | 1070 | 15000 (2015) | 172 (1941) | 2020 | 322 | 431 | 560 | 663 | 1050 | 2590 | 2900 | 4390 | 6980 |
| 2026-03-13 23:30 | 7.41 | 1070 | 15000 (2015) | 172 (1941) | 2020 | 322 | 431 | 560 | 663 | 1050 | 2590 | 2900 | 4390 | 6980 |
| 2026-03-13 23:00 | 7.42 | 1070 | 15000 (2015) | 172 (1941) | 2020 | 322 | 431 | 560 | 663 | 1050 | 2590 | 2900 | 4390 | 6980 |
| 2026-03-13 22:30 | 7.43 | 1080 | 27000 (2021) | 178 (1941) | 2290 | 324 | 429 | 552 | 603 | 1110 | 2300 | 3020 | 4730 | 8150 |
| 2026-03-13 22:00 | 7.43 | 1080 | 27000 (2021) | 178 (1941) | 2290 | 324 | 429 | 552 | 603 | 1110 | 2300 | 3020 | 4730 | 8150 |
| 2026-03-13 21:30 | 7.43 | 1080 | 27000 (2021) | 178 (1941) | 2290 | 324 | 429 | 552 | 603 | 1110 | 2300 | 3020 | 4730 | 8150 |
| 2026-03-13 21:00 | 7.44 | 1090 | 27000 (2021) | 178 (1941) | 2290 | 324 | 429 | 552 | 603 | 1110 | 2300 | 3020 | 4730 | 8150 |
| 2026-03-13 20:30 | 7.45 | 1090 | 27000 (2021) | 178 (1941) | 2290 | 324 | 429 | 552 | 603 | 1110 | 2300 | 3020 | 4730 | 8150 |
| 2026-03-13 20:00 | 7.46 | 1100 | 27000 (2021) | 178 (1941) | 2290 | 324 | 429 | 552 | 603 | 1110 | 2300 | 3020 | 4730 | 8150 |
| 2026-03-13 19:30 | 7.47 | 1100 | 27000 (2021) | 178 (1941) | 2290 | 324 | 429 | 552 | 603 | 1110 | 2300 | 3020 | 4730 | 8150 |
| 2026-03-13 19:00 | 7.47 | 1100 | 27000 (2021) | 178 (1941) | 2290 | 324 | 429 | 552 | 603 | 1110 | 2300 | 3020 | 4730 | 8150 |
| 2026-03-13 18:30 | 7.48 | 1110 | 27000 (2021) | 178 (1941) | 2290 | 324 | 429 | 552 | 603 | 1110 | 2300 | 3020 | 4730 | 8150 |
| 2026-03-13 18:00 | 7.48 | 1110 | 27000 (2021) | 178 (1941) | 2290 | 324 | 429 | 552 | 603 | 1110 | 2300 | 3020 | 4730 | 8150 |
| 2026-03-13 17:30 | 7.49 | 1120 | 27000 (2021) | 178 (1941) | 2290 | 324 | 429 | 552 | 603 | 1110 | 2300 | 3020 | 4730 | 8150 |
| 2026-03-13 17:00 | 7.50 | 1120 | 27000 (2021) | 178 (1941) | 2290 | 324 | 429 | 552 | 603 | 1110 | 2300 | 3020 | 4730 | 8150 |
| 2026-03-13 16:30 | 7.51 | 1130 | 27000 (2021) | 178 (1941) | 2290 | 324 | 429 | 552 | 603 | 1110 | 2300 | 3020 | 4730 | 8150 |
| 2026-03-13 16:00 | 7.51 | 1130 | 27000 (2021) | 178 (1941) | 2290 | 324 | 429 | 552 | 603 | 1110 | 2300 | 3020 | 4730 | 8150 |
| 2026-03-13 15:30 | 7.52 | 1130 | 27000 (2021) | 178 (1941) | 2290 | 324 | 429 | 552 | 603 | 1110 | 2300 | 3020 | 4730 | 8150 |
| 2026-03-13 15:00 | 7.52 | 1130 | 27000 (2021) | 178 (1941) | 2290 | 324 | 429 | 552 | 603 | 1110 | 2300 | 3020 | 4730 | 8150 |
| 2026-03-13 14:30 | 7.53 | 1140 | 27000 (2021) | 178 (1941) | 2290 | 324 | 429 | 552 | 603 | 1110 | 2300 | 3020 | 4730 | 8150 |
| 2026-03-13 14:00 | 7.54 | 1150 | 27000 (2021) | 178 (1941) | 2290 | 324 | 429 | 552 | 603 | 1110 | 2300 | 3020 | 4730 | 8150 |
| 2026-03-13 13:30 | 7.54 | 1150 | 27000 (2021) | 178 (1941) | 2290 | 324 | 429 | 552 | 603 | 1110 | 2300 | 3020 | 4730 | 8150 |
| 2026-03-13 13:00 | 7.55 | 1150 | 27000 (2021) | 178 (1941) | 2290 | 324 | 429 | 552 | 603 | 1110 | 2300 | 3020 | 4730 | 8150 |
| 2026-03-13 12:30 | 7.55 | 1150 | 27000 (2021) | 178 (1941) | 2290 | 324 | 429 | 552 | 603 | 1110 | 2300 | 3020 | 4730 | 8150 |
| 2026-03-13 12:00 | 7.55 | 1150 | 27000 (2021) | 178 (1941) | 2290 | 324 | 429 | 552 | 603 | 1110 | 2300 | 3020 | 4730 | 8150 |
| 2026-03-13 11:30 | 7.57 | 1170 | 27000 (2021) | 178 (1941) | 2290 | 324 | 429 | 552 | 603 | 1110 | 2300 | 3020 | 4730 | 8150 |
| 2026-03-13 11:00 | 7.58 | 1170 | 27000 (2021) | 178 (1941) | 2290 | 324 | 429 | 552 | 603 | 1110 | 2300 | 3020 | 4730 | 8150 |
| 2026-03-13 10:30 | 7.60 | 1180 | 27000 (2021) | 178 (1941) | 2290 | 324 | 429 | 552 | 603 | 1110 | 2300 | 3020 | 4730 | 8150 |
| 2026-03-13 10:00 | 7.59 | 1180 | 27000 (2021) | 178 (1941) | 2290 | 324 | 429 | 552 | 603 | 1110 | 2300 | 3020 | 4730 | 8150 |
| 2026-03-13 09:30 | 7.61 | 1190 | 27000 (2021) | 178 (1941) | 2290 | 324 | 429 | 552 | 603 | 1110 | 2300 | 3020 | 4730 | 8150 |
| 2026-03-13 09:00 | 7.62 | 1200 | 27000 (2021) | 178 (1941) | 2290 | 324 | 429 | 552 | 603 | 1110 | 2300 | 3020 | 4730 | 8150 |
| 2026-03-13 08:30 | 7.63 | 1200 | 27000 (2021) | 178 (1941) | 2290 | 324 | 429 | 552 | 603 | 1110 | 2300 | 3020 | 4730 | 8150 |
| 2026-03-13 08:00 | 7.65 | 1220 | 27000 (2021) | 178 (1941) | 2290 | 324 | 429 | 552 | 603 | 1110 | 2300 | 3020 | 4730 | 8150 |
| 2026-03-13 07:30 | 7.66 | 1220 | 27000 (2021) | 178 (1941) | 2290 | 324 | 429 | 552 | 603 | 1110 | 2300 | 3020 | 4730 | 8150 |
| 2026-03-13 07:00 | 7.66 | 1220 | 27000 (2021) | 178 (1941) | 2290 | 324 | 429 | 552 | 603 | 1110 | 2300 | 3020 | 4730 | 8150 |
| 2026-03-13 06:30 | 7.67 | 1230 | 27000 (2021) | 178 (1941) | 2290 | 324 | 429 | 552 | 603 | 1110 | 2300 | 3020 | 4730 | 8150 |
| 2026-03-13 06:00 | 7.68 | 1240 | 27000 (2021) | 178 (1941) | 2290 | 324 | 429 | 552 | 603 | 1110 | 2300 | 3020 | 4730 | 8150 |
| 2026-03-13 05:30 | 7.69 | 1240 | 27000 (2021) | 178 (1941) | 2290 | 324 | 429 | 552 | 603 | 1110 | 2300 | 3020 | 4730 | 8150 |
| 2026-03-13 05:00 | 7.70 | 1250 | 27000 (2021) | 178 (1941) | 2290 | 324 | 429 | 552 | 603 | 1110 | 2300 | 3020 | 4730 | 8150 |
| 2026-03-13 04:30 | 7.70 | 1250 | 27000 (2021) | 178 (1941) | 2290 | 324 | 429 | 552 | 603 | 1110 | 2300 | 3020 | 4730 | 8150 |
| 2026-03-13 04:00 | 7.71 | 1260 | 27000 (2021) | 178 (1941) | 2290 | 324 | 429 | 552 | 603 | 1110 | 2300 | 3020 | 4730 | 8150 |
| 2026-03-13 03:30 | 7.72 | 1260 | 27000 (2021) | 178 (1941) | 2290 | 324 | 429 | 552 | 603 | 1110 | 2300 | 3020 | 4730 | 8150 |
| 2026-03-13 03:00 | 7.73 | 1270 | 27000 (2021) | 178 (1941) | 2290 | 324 | 429 | 552 | 603 | 1110 | 2300 | 3020 | 4730 | 8150 |
| 2026-03-13 02:30 | 7.74 | 1280 | 27000 (2021) | 178 (1941) | 2290 | 324 | 429 | 552 | 603 | 1110 | 2300 | 3020 | 4730 | 8150 |
| 2026-03-13 02:00 | 7.75 | 1280 | 27000 (2021) | 178 (1941) | 2290 | 324 | 429 | 552 | 603 | 1110 | 2300 | 3020 | 4730 | 8150 |
| 2026-03-13 01:30 | 7.76 | 1290 | 27000 (2021) | 178 (1941) | 2290 | 324 | 429 | 552 | 603 | 1110 | 2300 | 3020 | 4730 | 8150 |
| 2026-03-13 01:00 | 7.77 | 1300 | 27000 (2021) | 178 (1941) | 2290 | 324 | 429 | 552 | 603 | 1110 | 2300 | 3020 | 4730 | 8150 |
| 2026-03-13 00:30 | 7.78 | 1300 | 27000 (2021) | 178 (1941) | 2290 | 324 | 429 | 552 | 603 | 1110 | 2300 | 3020 | 4730 | 8150 |
| 2026-03-13 00:00 | 7.79 | 1310 | 27000 (2021) | 178 (1941) | 2290 | 324 | 429 | 552 | 603 | 1110 | 2300 | 3020 | 4730 | 8150 |
| 2026-03-12 23:30 | 7.80 | 1320 | 27000 (2021) | 178 (1941) | 2290 | 324 | 429 | 552 | 603 | 1110 | 2300 | 3020 | 4730 | 8150 |
| 2026-03-12 23:00 | 7.81 | 1320 | 27000 (2021) | 178 (1941) | 2290 | 324 | 429 | 552 | 603 | 1110 | 2300 | 3020 | 4730 | 8150 |
| 2026-03-12 22:30 | 7.82 | 1330 | 48600 (1935) | 176 (1941) | 2830 | 344 | 445 | 568 | 640 | 1110 | 2320 | 3270 | 7820 | 10800 |
| 2026-03-12 22:00 | 7.82 | 1330 | 48600 (1935) | 176 (1941) | 2830 | 344 | 445 | 568 | 640 | 1110 | 2320 | 3270 | 7820 | 10800 |
| 2026-03-12 21:30 | 7.83 | 1340 | 48600 (1935) | 176 (1941) | 2830 | 344 | 445 | 568 | 640 | 1110 | 2320 | 3270 | 7820 | 10800 |
| 2026-03-12 21:00 | 7.84 | 1340 | 48600 (1935) | 176 (1941) | 2830 | 344 | 445 | 568 | 640 | 1110 | 2320 | 3270 | 7820 | 10800 |
| 2026-03-12 20:30 | 7.85 | 1350 | 48600 (1935) | 176 (1941) | 2830 | 344 | 445 | 568 | 640 | 1110 | 2320 | 3270 | 7820 | 10800 |
| 2026-03-12 20:00 | 7.86 | 1360 | 48600 (1935) | 176 (1941) | 2830 | 344 | 445 | 568 | 640 | 1110 | 2320 | 3270 | 7820 | 10800 |
| 2026-03-12 19:30 | 7.86 | 1360 | 48600 (1935) | 176 (1941) | 2830 | 344 | 445 | 568 | 640 | 1110 | 2320 | 3270 | 7820 | 10800 |
| 2026-03-12 19:00 | 7.86 | 1360 | 48600 (1935) | 176 (1941) | 2830 | 344 | 445 | 568 | 640 | 1110 | 2320 | 3270 | 7820 | 10800 |
| 2026-03-12 18:30 | 7.86 | 1360 | 48600 (1935) | 176 (1941) | 2830 | 344 | 445 | 568 | 640 | 1110 | 2320 | 3270 | 7820 | 10800 |
| 2026-03-12 18:00 | 7.86 | 1360 | 48600 (1935) | 176 (1941) | 2830 | 344 | 445 | 568 | 640 | 1110 | 2320 | 3270 | 7820 | 10800 |
| 2026-03-12 17:30 | 7.89 | 1380 | 48600 (1935) | 176 (1941) | 2830 | 344 | 445 | 568 | 640 | 1110 | 2320 | 3270 | 7820 | 10800 |
| 2026-03-12 17:00 | 7.89 | 1380 | 48600 (1935) | 176 (1941) | 2830 | 344 | 445 | 568 | 640 | 1110 | 2320 | 3270 | 7820 | 10800 |
| 2026-03-12 16:30 | 7.90 | 1390 | 48600 (1935) | 176 (1941) | 2830 | 344 | 445 | 568 | 640 | 1110 | 2320 | 3270 | 7820 | 10800 |
| 2026-03-12 16:00 | 7.90 | 1390 | 48600 (1935) | 176 (1941) | 2830 | 344 | 445 | 568 | 640 | 1110 | 2320 | 3270 | 7820 | 10800 |
| 2026-03-12 15:30 | 7.91 | 1400 | 48600 (1935) | 176 (1941) | 2830 | 344 | 445 | 568 | 640 | 1110 | 2320 | 3270 | 7820 | 10800 |
| 2026-03-12 15:00 | 7.92 | 1410 | 48600 (1935) | 176 (1941) | 2830 | 344 | 445 | 568 | 640 | 1110 | 2320 | 3270 | 7820 | 10800 |
| 2026-03-12 14:30 | 7.91 | 1400 | 48600 (1935) | 176 (1941) | 2830 | 344 | 445 | 568 | 640 | 1110 | 2320 | 3270 | 7820 | 10800 |
| 2026-03-12 14:00 | 7.91 | 1400 | 48600 (1935) | 176 (1941) | 2830 | 344 | 445 | 568 | 640 | 1110 | 2320 | 3270 | 7820 | 10800 |
| 2026-03-12 13:30 | 7.92 | 1410 | 48600 (1935) | 176 (1941) | 2830 | 344 | 445 | 568 | 640 | 1110 | 2320 | 3270 | 7820 | 10800 |
| 2026-03-12 13:00 | 7.92 | 1410 | 48600 (1935) | 176 (1941) | 2830 | 344 | 445 | 568 | 640 | 1110 | 2320 | 3270 | 7820 | 10800 |
| 2026-03-12 12:30 | 7.92 | 1410 | 48600 (1935) | 176 (1941) | 2830 | 344 | 445 | 568 | 640 | 1110 | 2320 | 3270 | 7820 | 10800 |
| 2026-03-12 12:00 | 7.92 | 1410 | 48600 (1935) | 176 (1941) | 2830 | 344 | 445 | 568 | 640 | 1110 | 2320 | 3270 | 7820 | 10800 |
| 2026-03-12 11:30 | 7.91 | 1400 | 48600 (1935) | 176 (1941) | 2830 | 344 | 445 | 568 | 640 | 1110 | 2320 | 3270 | 7820 | 10800 |
| 2026-03-12 11:00 | 7.92 | 1410 | 48600 (1935) | 176 (1941) | 2830 | 344 | 445 | 568 | 640 | 1110 | 2320 | 3270 | 7820 | 10800 |
| 2026-03-12 10:30 | 7.91 | 1400 | 48600 (1935) | 176 (1941) | 2830 | 344 | 445 | 568 | 640 | 1110 | 2320 | 3270 | 7820 | 10800 |
| 2026-03-12 10:00 | 7.91 | 1400 | 48600 (1935) | 176 (1941) | 2830 | 344 | 445 | 568 | 640 | 1110 | 2320 | 3270 | 7820 | 10800 |
| 2026-03-12 09:30 | 7.91 | 1400 | 48600 (1935) | 176 (1941) | 2830 | 344 | 445 | 568 | 640 | 1110 | 2320 | 3270 | 7820 | 10800 |
| 2026-03-12 09:00 | 7.90 | 1390 | 48600 (1935) | 176 (1941) | 2830 | 344 | 445 | 568 | 640 | 1110 | 2320 | 3270 | 7820 | 10800 |
| 2026-03-12 08:30 | 7.89 | 1380 | 48600 (1935) | 176 (1941) | 2830 | 344 | 445 | 568 | 640 | 1110 | 2320 | 3270 | 7820 | 10800 |
| 2026-03-12 08:00 | 7.90 | 1390 | 48600 (1935) | 176 (1941) | 2830 | 344 | 445 | 568 | 640 | 1110 | 2320 | 3270 | 7820 | 10800 |
| 2026-03-12 07:30 | 7.89 | 1380 | 48600 (1935) | 176 (1941) | 2830 | 344 | 445 | 568 | 640 | 1110 | 2320 | 3270 | 7820 | 10800 |
| 2026-03-12 07:00 | 7.90 | 1390 | 48600 (1935) | 176 (1941) | 2830 | 344 | 445 | 568 | 640 | 1110 | 2320 | 3270 | 7820 | 10800 |
| 2026-03-12 06:30 | 7.89 | 1380 | 48600 (1935) | 176 (1941) | 2830 | 344 | 445 | 568 | 640 | 1110 | 2320 | 3270 | 7820 | 10800 |
| 2026-03-12 06:00 | 7.89 | 1380 | 48600 (1935) | 176 (1941) | 2830 | 344 | 445 | 568 | 640 | 1110 | 2320 | 3270 | 7820 | 10800 |
| 2026-03-12 05:30 | 7.88 | 1370 | 48600 (1935) | 176 (1941) | 2830 | 344 | 445 | 568 | 640 | 1110 | 2320 | 3270 | 7820 | 10800 |
| 2026-03-12 05:00 | 7.88 | 1370 | 48600 (1935) | 176 (1941) | 2830 | 344 | 445 | 568 | 640 | 1110 | 2320 | 3270 | 7820 | 10800 |
| 2026-03-12 04:30 | 7.88 | 1370 | 48600 (1935) | 176 (1941) | 2830 | 344 | 445 | 568 | 640 | 1110 | 2320 | 3270 | 7820 | 10800 |
| 2026-03-12 04:00 | 7.88 | 1370 | 48600 (1935) | 176 (1941) | 2830 | 344 | 445 | 568 | 640 | 1110 | 2320 | 3270 | 7820 | 10800 |
| 2026-03-12 03:30 | 7.89 | 1380 | 48600 (1935) | 176 (1941) | 2830 | 344 | 445 | 568 | 640 | 1110 | 2320 | 3270 | 7820 | 10800 |
| 2026-03-12 03:00 | 7.88 | 1370 | 48600 (1935) | 176 (1941) | 2830 | 344 | 445 | 568 | 640 | 1110 | 2320 | 3270 | 7820 | 10800 |
| 2026-03-12 02:30 | 7.89 | 1380 | 48600 (1935) | 176 (1941) | 2830 | 344 | 445 | 568 | 640 | 1110 | 2320 | 3270 | 7820 | 10800 |
| 2026-03-12 02:00 | 7.87 | 1370 | 48600 (1935) | 176 (1941) | 2830 | 344 | 445 | 568 | 640 | 1110 | 2320 | 3270 | 7820 | 10800 |
| 2026-03-12 01:30 | 7.88 | 1370 | 48600 (1935) | 176 (1941) | 2830 | 344 | 445 | 568 | 640 | 1110 | 2320 | 3270 | 7820 | 10800 |
| 2026-03-12 01:00 | 7.88 | 1370 | 48600 (1935) | 176 (1941) | 2830 | 344 | 445 | 568 | 640 | 1110 | 2320 | 3270 | 7820 | 10800 |
| 2026-03-12 00:30 | 7.88 | 1370 | 48600 (1935) | 176 (1941) | 2830 | 344 | 445 | 568 | 640 | 1110 | 2320 | 3270 | 7820 | 10800 |
| 2026-03-12 00:00 | 7.86 | 1360 | 48600 (1935) | 176 (1941) | 2830 | 344 | 445 | 568 | 640 | 1110 | 2320 | 3270 | 7820 | 10800 |
| 2026-03-11 23:30 | 7.87 | 1370 | 48600 (1935) | 176 (1941) | 2830 | 344 | 445 | 568 | 640 | 1110 | 2320 | 3270 | 7820 | 10800 |
| 2026-03-11 23:00 | 7.88 | 1370 | 48600 (1935) | 176 (1941) | 2830 | 344 | 445 | 568 | 640 | 1110 | 2320 | 3270 | 7820 | 10800 |
| 2026-03-11 22:30 | 7.88 | 1370 | 75500 (1935) | 153 (1968) | 2950 | 330 | 406 | 572 | 658 | 1140 | 2150 | 2560 | 4550 | 12900 |
| 2026-03-11 22:00 | 7.89 | 1380 | 75500 (1935) | 153 (1968) | 2950 | 330 | 406 | 572 | 658 | 1140 | 2150 | 2560 | 4550 | 12900 |
| 2026-03-11 21:30 | 7.88 | 1370 | 75500 (1935) | 153 (1968) | 2950 | 330 | 406 | 572 | 658 | 1140 | 2150 | 2560 | 4550 | 12900 |
| 2026-03-11 21:00 | 7.87 | 1370 | 75500 (1935) | 153 (1968) | 2950 | 330 | 406 | 572 | 658 | 1140 | 2150 | 2560 | 4550 | 12900 |
| 2026-03-11 20:30 | 7.85 | 1350 | 75500 (1935) | 153 (1968) | 2950 | 330 | 406 | 572 | 658 | 1140 | 2150 | 2560 | 4550 | 12900 |
| 2026-03-11 20:00 | 7.90 | 1390 | 75500 (1935) | 153 (1968) | 2950 | 330 | 406 | 572 | 658 | 1140 | 2150 | 2560 | 4550 | 12900 |
| 2026-03-11 19:30 | 7.89 | 1380 | 75500 (1935) | 153 (1968) | 2950 | 330 | 406 | 572 | 658 | 1140 | 2150 | 2560 | 4550 | 12900 |
| 2026-03-11 19:00 | 7.89 | 1380 | 75500 (1935) | 153 (1968) | 2950 | 330 | 406 | 572 | 658 | 1140 | 2150 | 2560 | 4550 | 12900 |
| 2026-03-11 18:30 | 7.91 | 1400 | 75500 (1935) | 153 (1968) | 2950 | 330 | 406 | 572 | 658 | 1140 | 2150 | 2560 | 4550 | 12900 |
| 2026-03-11 18:00 | 7.92 | 1410 | 75500 (1935) | 153 (1968) | 2950 | 330 | 406 | 572 | 658 | 1140 | 2150 | 2560 | 4550 | 12900 |
| 2026-03-11 17:30 | 7.93 | 1420 | 75500 (1935) | 153 (1968) | 2950 | 330 | 406 | 572 | 658 | 1140 | 2150 | 2560 | 4550 | 12900 |
| 2026-03-11 17:00 | 7.93 | 1420 | 75500 (1935) | 153 (1968) | 2950 | 330 | 406 | 572 | 658 | 1140 | 2150 | 2560 | 4550 | 12900 |
| 2026-03-11 16:30 | 7.91 | 1400 | 75500 (1935) | 153 (1968) | 2950 | 330 | 406 | 572 | 658 | 1140 | 2150 | 2560 | 4550 | 12900 |
| 2026-03-11 16:00 | 7.92 | 1410 | 75500 (1935) | 153 (1968) | 2950 | 330 | 406 | 572 | 658 | 1140 | 2150 | 2560 | 4550 | 12900 |
| 2026-03-11 15:30 | 7.96 | 1440 | 75500 (1935) | 153 (1968) | 2950 | 330 | 406 | 572 | 658 | 1140 | 2150 | 2560 | 4550 | 12900 |
| 2026-03-11 15:00 | 7.92 | 1410 | 75500 (1935) | 153 (1968) | 2950 | 330 | 406 | 572 | 658 | 1140 | 2150 | 2560 | 4550 | 12900 |
| 2026-03-11 14:30 | 7.93 | 1420 | 75500 (1935) | 153 (1968) | 2950 | 330 | 406 | 572 | 658 | 1140 | 2150 | 2560 | 4550 | 12900 |
| 2026-03-11 14:00 | 7.95 | 1430 | 75500 (1935) | 153 (1968) | 2950 | 330 | 406 | 572 | 658 | 1140 | 2150 | 2560 | 4550 | 12900 |
| 2026-03-11 13:30 | 7.99 | 1470 | 75500 (1935) | 153 (1968) | 2950 | 330 | 406 | 572 | 658 | 1140 | 2150 | 2560 | 4550 | 12900 |
| 2026-03-11 13:00 | 7.99 | 1470 | 75500 (1935) | 153 (1968) | 2950 | 330 | 406 | 572 | 658 | 1140 | 2150 | 2560 | 4550 | 12900 |
| 2026-03-11 12:30 | 8.00 | 1470 | 75500 (1935) | 153 (1968) | 2950 | 330 | 406 | 572 | 658 | 1140 | 2150 | 2560 | 4550 | 12900 |
| 2026-03-11 12:00 | 7.99 | 1470 | 75500 (1935) | 153 (1968) | 2950 | 330 | 406 | 572 | 658 | 1140 | 2150 | 2560 | 4550 | 12900 |
| 2026-03-11 11:30 | 8.02 | 1490 | 75500 (1935) | 153 (1968) | 2950 | 330 | 406 | 572 | 658 | 1140 | 2150 | 2560 | 4550 | 12900 |
| 2026-03-11 11:00 | 8.03 | 1500 | 75500 (1935) | 153 (1968) | 2950 | 330 | 406 | 572 | 658 | 1140 | 2150 | 2560 | 4550 | 12900 |
| 2026-03-11 10:30 | 8.04 | 1510 | 75500 (1935) | 153 (1968) | 2950 | 330 | 406 | 572 | 658 | 1140 | 2150 | 2560 | 4550 | 12900 |
| 2026-03-11 10:00 | 8.06 | 1530 | 75500 (1935) | 153 (1968) | 2950 | 330 | 406 | 572 | 658 | 1140 | 2150 | 2560 | 4550 | 12900 |
| 2026-03-11 09:30 | 8.06 | 1530 | 75500 (1935) | 153 (1968) | 2950 | 330 | 406 | 572 | 658 | 1140 | 2150 | 2560 | 4550 | 12900 |
| 2026-03-11 09:00 | 8.08 | 1540 | 75500 (1935) | 153 (1968) | 2950 | 330 | 406 | 572 | 658 | 1140 | 2150 | 2560 | 4550 | 12900 |
| 2026-03-11 08:30 | 8.09 | 1550 | 75500 (1935) | 153 (1968) | 2950 | 330 | 406 | 572 | 658 | 1140 | 2150 | 2560 | 4550 | 12900 |
| 2026-03-11 08:00 | 8.10 | 1560 | 75500 (1935) | 153 (1968) | 2950 | 330 | 406 | 572 | 658 | 1140 | 2150 | 2560 | 4550 | 12900 |
| 2026-03-11 07:30 | 8.11 | 1570 | 75500 (1935) | 153 (1968) | 2950 | 330 | 406 | 572 | 658 | 1140 | 2150 | 2560 | 4550 | 12900 |
| 2026-03-11 07:00 | 8.12 | 1580 | 75500 (1935) | 153 (1968) | 2950 | 330 | 406 | 572 | 658 | 1140 | 2150 | 2560 | 4550 | 12900 |
| 2026-03-11 06:30 | 8.13 | 1590 | 75500 (1935) | 153 (1968) | 2950 | 330 | 406 | 572 | 658 | 1140 | 2150 | 2560 | 4550 | 12900 |
| 2026-03-11 06:00 | 8.13 | 1590 | 75500 (1935) | 153 (1968) | 2950 | 330 | 406 | 572 | 658 | 1140 | 2150 | 2560 | 4550 | 12900 |
| 2026-03-11 05:30 | 8.14 | 1600 | 75500 (1935) | 153 (1968) | 2950 | 330 | 406 | 572 | 658 | 1140 | 2150 | 2560 | 4550 | 12900 |
| 2026-03-11 05:00 | 8.17 | 1620 | 75500 (1935) | 153 (1968) | 2950 | 330 | 406 | 572 | 658 | 1140 | 2150 | 2560 | 4550 | 12900 |
| 2026-03-11 04:30 | 8.17 | 1620 | 75500 (1935) | 153 (1968) | 2950 | 330 | 406 | 572 | 658 | 1140 | 2150 | 2560 | 4550 | 12900 |
| 2026-03-11 04:00 | 8.17 | 1620 | 75500 (1935) | 153 (1968) | 2950 | 330 | 406 | 572 | 658 | 1140 | 2150 | 2560 | 4550 | 12900 |
| 2026-03-11 03:30 | 8.18 | 1630 | 75500 (1935) | 153 (1968) | 2950 | 330 | 406 | 572 | 658 | 1140 | 2150 | 2560 | 4550 | 12900 |
| 2026-03-11 03:00 | 8.21 | 1660 | 75500 (1935) | 153 (1968) | 2950 | 330 | 406 | 572 | 658 | 1140 | 2150 | 2560 | 4550 | 12900 |
| 2026-03-11 02:30 | 8.21 | 1660 | 75500 (1935) | 153 (1968) | 2950 | 330 | 406 | 572 | 658 | 1140 | 2150 | 2560 | 4550 | 12900 |
| 2026-03-11 02:00 | 8.23 | 1680 | 75500 (1935) | 153 (1968) | 2950 | 330 | 406 | 572 | 658 | 1140 | 2150 | 2560 | 4550 | 12900 |
| 2026-03-11 01:30 | 8.25 | 1690 | 75500 (1935) | 153 (1968) | 2950 | 330 | 406 | 572 | 658 | 1140 | 2150 | 2560 | 4550 | 12900 |
| 2026-03-11 01:00 | 8.26 | 1700 | 75500 (1935) | 153 (1968) | 2950 | 330 | 406 | 572 | 658 | 1140 | 2150 | 2560 | 4550 | 12900 |
| 2026-03-11 00:30 | 8.28 | 1720 | 75500 (1935) | 153 (1968) | 2950 | 330 | 406 | 572 | 658 | 1140 | 2150 | 2560 | 4550 | 12900 |
| 2026-03-11 00:00 | 8.30 | 1740 | 75500 (1935) | 153 (1968) | 2950 | 330 | 406 | 572 | 658 | 1140 | 2150 | 2560 | 4550 | 12900 |
| 2026-03-10 23:30 | 8.30 | 1740 | 75500 (1935) | 153 (1968) | 2950 | 330 | 406 | 572 | 658 | 1140 | 2150 | 2560 | 4550 | 12900 |
| 2026-03-10 23:00 | 8.32 | 1760 | 75500 (1935) | 153 (1968) | 2950 | 330 | 406 | 572 | 658 | 1140 | 2150 | 2560 | 4550 | 12900 |
| 2026-03-10 22:30 | 8.32 | 1760 | 38100 (1964) | 153 (1968) | 2110 | 346 | 398 | 502 | 602 | 1060 | 1840 | 2340 | 4010 | 5360 |
| 2026-03-10 22:00 | 8.34 | 1780 | 38100 (1964) | 153 (1968) | 2110 | 346 | 398 | 502 | 602 | 1060 | 1840 | 2340 | 4010 | 5360 |
| 2026-03-10 21:30 | 8.36 | 1800 | 38100 (1964) | 153 (1968) | 2110 | 346 | 398 | 502 | 602 | 1060 | 1840 | 2340 | 4010 | 5360 |
| 2026-03-10 21:00 | 8.38 | 1820 | 38100 (1964) | 153 (1968) | 2110 | 346 | 398 | 502 | 602 | 1060 | 1840 | 2340 | 4010 | 5360 |
| 2026-03-10 20:30 | 8.39 | 1830 | 38100 (1964) | 153 (1968) | 2110 | 346 | 398 | 502 | 602 | 1060 | 1840 | 2340 | 4010 | 5360 |
| 2026-03-10 20:00 | 8.41 | 1850 | 38100 (1964) | 153 (1968) | 2110 | 346 | 398 | 502 | 602 | 1060 | 1840 | 2340 | 4010 | 5360 |
| 2026-03-10 19:30 | 8.43 | 1860 | 38100 (1964) | 153 (1968) | 2110 | 346 | 398 | 502 | 602 | 1060 | 1840 | 2340 | 4010 | 5360 |
| 2026-03-10 19:00 | 8.43 | 1860 | 38100 (1964) | 153 (1968) | 2110 | 346 | 398 | 502 | 602 | 1060 | 1840 | 2340 | 4010 | 5360 |
| 2026-03-10 18:30 | 8.45 | 1880 | 38100 (1964) | 153 (1968) | 2110 | 346 | 398 | 502 | 602 | 1060 | 1840 | 2340 | 4010 | 5360 |
| 2026-03-10 18:00 | 8.47 | 1900 | 38100 (1964) | 153 (1968) | 2110 | 346 | 398 | 502 | 602 | 1060 | 1840 | 2340 | 4010 | 5360 |
| 2026-03-10 17:30 | 8.49 | 1920 | 38100 (1964) | 153 (1968) | 2110 | 346 | 398 | 502 | 602 | 1060 | 1840 | 2340 | 4010 | 5360 |
| 2026-03-10 17:00 | 8.51 | 1940 | 38100 (1964) | 153 (1968) | 2110 | 346 | 398 | 502 | 602 | 1060 | 1840 | 2340 | 4010 | 5360 |
| 2026-03-10 16:30 | 8.51 | 1940 | 38100 (1964) | 153 (1968) | 2110 | 346 | 398 | 502 | 602 | 1060 | 1840 | 2340 | 4010 | 5360 |
| 2026-03-10 16:00 | 8.53 | 1960 | 38100 (1964) | 153 (1968) | 2110 | 346 | 398 | 502 | 602 | 1060 | 1840 | 2340 | 4010 | 5360 |
| 2026-03-10 15:30 | 8.54 | 1970 | 38100 (1964) | 153 (1968) | 2110 | 346 | 398 | 502 | 602 | 1060 | 1840 | 2340 | 4010 | 5360 |
| 2026-03-10 15:00 | 8.57 | 2000 | 38100 (1964) | 153 (1968) | 2110 | 346 | 398 | 502 | 602 | 1060 | 1840 | 2340 | 4010 | 5360 |
| 2026-03-10 14:30 | 8.58 | 2010 | 38100 (1964) | 153 (1968) | 2110 | 346 | 398 | 502 | 602 | 1060 | 1840 | 2340 | 4010 | 5360 |
| 2026-03-10 14:00 | 8.60 | 2030 | 38100 (1964) | 153 (1968) | 2110 | 346 | 398 | 502 | 602 | 1060 | 1840 | 2340 | 4010 | 5360 |
| 2026-03-10 13:30 | 8.61 | 2040 | 38100 (1964) | 153 (1968) | 2110 | 346 | 398 | 502 | 602 | 1060 | 1840 | 2340 | 4010 | 5360 |
| 2026-03-10 13:00 | 8.64 | 2070 | 38100 (1964) | 153 (1968) | 2110 | 346 | 398 | 502 | 602 | 1060 | 1840 | 2340 | 4010 | 5360 |
| 2026-03-10 12:30 | 8.65 | 2080 | 38100 (1964) | 153 (1968) | 2110 | 346 | 398 | 502 | 602 | 1060 | 1840 | 2340 | 4010 | 5360 |
| 2026-03-10 12:00 | 8.66 | 2100 | 38100 (1964) | 153 (1968) | 2110 | 346 | 398 | 502 | 602 | 1060 | 1840 | 2340 | 4010 | 5360 |
| 2026-03-10 11:30 | 8.69 | 2130 | 38100 (1964) | 153 (1968) | 2110 | 346 | 398 | 502 | 602 | 1060 | 1840 | 2340 | 4010 | 5360 |
| 2026-03-10 11:00 | 8.69 | 2130 | 38100 (1964) | 153 (1968) | 2110 | 346 | 398 | 502 | 602 | 1060 | 1840 | 2340 | 4010 | 5360 |
| 2026-03-10 10:30 | 8.72 | 2160 | 38100 (1964) | 153 (1968) | 2110 | 346 | 398 | 502 | 602 | 1060 | 1840 | 2340 | 4010 | 5360 |
| 2026-03-10 10:00 | 8.74 | 2180 | 38100 (1964) | 153 (1968) | 2110 | 346 | 398 | 502 | 602 | 1060 | 1840 | 2340 | 4010 | 5360 |
| 2026-03-10 09:30 | 8.75 | 2190 | 38100 (1964) | 153 (1968) | 2110 | 346 | 398 | 502 | 602 | 1060 | 1840 | 2340 | 4010 | 5360 |
| 2026-03-10 09:00 | 8.78 | 2220 | 38100 (1964) | 153 (1968) | 2110 | 346 | 398 | 502 | 602 | 1060 | 1840 | 2340 | 4010 | 5360 |
| 2026-03-10 08:30 | 8.79 | 2230 | 38100 (1964) | 153 (1968) | 2110 | 346 | 398 | 502 | 602 | 1060 | 1840 | 2340 | 4010 | 5360 |
| 2026-03-10 08:00 | 8.81 | 2250 | 38100 (1964) | 153 (1968) | 2110 | 346 | 398 | 502 | 602 | 1060 | 1840 | 2340 | 4010 | 5360 |
| 2026-03-10 07:30 | 8.84 | 2290 | 38100 (1964) | 153 (1968) | 2110 | 346 | 398 | 502 | 602 | 1060 | 1840 | 2340 | 4010 | 5360 |
| 2026-03-10 07:00 | 8.85 | 2300 | 38100 (1964) | 153 (1968) | 2110 | 346 | 398 | 502 | 602 | 1060 | 1840 | 2340 | 4010 | 5360 |
| 2026-03-10 06:30 | 8.88 | 2330 | 38100 (1964) | 153 (1968) | 2110 | 346 | 398 | 502 | 602 | 1060 | 1840 | 2340 | 4010 | 5360 |
| 2026-03-10 06:00 | 8.89 | 2340 | 38100 (1964) | 153 (1968) | 2110 | 346 | 398 | 502 | 602 | 1060 | 1840 | 2340 | 4010 | 5360 |
| 2026-03-10 05:30 | 8.92 | 2370 | 38100 (1964) | 153 (1968) | 2110 | 346 | 398 | 502 | 602 | 1060 | 1840 | 2340 | 4010 | 5360 |
| 2026-03-10 05:00 | 8.93 | 2390 | 38100 (1964) | 153 (1968) | 2110 | 346 | 398 | 502 | 602 | 1060 | 1840 | 2340 | 4010 | 5360 |
| 2026-03-10 04:30 | 8.96 | 2420 | 38100 (1964) | 153 (1968) | 2110 | 346 | 398 | 502 | 602 | 1060 | 1840 | 2340 | 4010 | 5360 |
| 2026-03-10 04:00 | 8.99 | 2450 | 38100 (1964) | 153 (1968) | 2110 | 346 | 398 | 502 | 602 | 1060 | 1840 | 2340 | 4010 | 5360 |
| 2026-03-10 03:30 | 9.01 | 2480 | 38100 (1964) | 153 (1968) | 2110 | 346 | 398 | 502 | 602 | 1060 | 1840 | 2340 | 4010 | 5360 |
| 2026-03-10 03:00 | 9.04 | 2510 | 38100 (1964) | 153 (1968) | 2110 | 346 | 398 | 502 | 602 | 1060 | 1840 | 2340 | 4010 | 5360 |
| 2026-03-10 02:30 | 9.07 | 2540 | 38100 (1964) | 153 (1968) | 2110 | 346 | 398 | 502 | 602 | 1060 | 1840 | 2340 | 4010 | 5360 |
| 2026-03-10 02:00 | 9.08 | 2560 | 38100 (1964) | 153 (1968) | 2110 | 346 | 398 | 502 | 602 | 1060 | 1840 | 2340 | 4010 | 5360 |
| 2026-03-10 01:30 | 9.12 | 2600 | 38100 (1964) | 153 (1968) | 2110 | 346 | 398 | 502 | 602 | 1060 | 1840 | 2340 | 4010 | 5360 |
| 2026-03-10 01:00 | 9.14 | 2630 | 38100 (1964) | 153 (1968) | 2110 | 346 | 398 | 502 | 602 | 1060 | 1840 | 2340 | 4010 | 5360 |
| 2026-03-10 00:30 | 9.18 | 2670 | 38100 (1964) | 153 (1968) | 2110 | 346 | 398 | 502 | 602 | 1060 | 1840 | 2340 | 4010 | 5360 |
| 2026-03-10 00:00 | 9.20 | 2700 | 38100 (1964) | 153 (1968) | 2110 | 346 | 398 | 502 | 602 | 1060 | 1840 | 2340 | 4010 | 5360 |
| 2026-03-09 23:30 | 9.24 | 2740 | 38100 (1964) | 153 (1968) | 2110 | 346 | 398 | 502 | 602 | 1060 | 1840 | 2340 | 4010 | 5360 |
| 2026-03-09 23:00 | 9.26 | 2760 | 38100 (1964) | 153 (1968) | 2110 | 346 | 398 | 502 | 602 | 1060 | 1840 | 2340 | 4010 | 5360 |
| 2026-03-09 22:30 | 9.29 | 2800 | 31400 (1964) | 146 (1968) | 1920 | 346 | 386 | 547 | 630 | 1090 | 1800 | 2030 | 3510 | 5700 |
| 2026-03-09 22:00 | 9.31 | 2820 | 31400 (1964) | 146 (1968) | 1920 | 346 | 386 | 547 | 630 | 1090 | 1800 | 2030 | 3510 | 5700 |
| 2026-03-09 21:30 | 9.35 | 2870 | 31400 (1964) | 146 (1968) | 1920 | 346 | 386 | 547 | 630 | 1090 | 1800 | 2030 | 3510 | 5700 |
| 2026-03-09 21:00 | 9.38 | 2900 | 31400 (1964) | 146 (1968) | 1920 | 346 | 386 | 547 | 630 | 1090 | 1800 | 2030 | 3510 | 5700 |
| 2026-03-09 20:30 | 9.40 | 2920 | 31400 (1964) | 146 (1968) | 1920 | 346 | 386 | 547 | 630 | 1090 | 1800 | 2030 | 3510 | 5700 |
| 2026-03-09 20:00 | 9.45 | 2980 | 31400 (1964) | 146 (1968) | 1920 | 346 | 386 | 547 | 630 | 1090 | 1800 | 2030 | 3510 | 5700 |
| 2026-03-09 19:30 | 9.48 | 3020 | 31400 (1964) | 146 (1968) | 1920 | 346 | 386 | 547 | 630 | 1090 | 1800 | 2030 | 3510 | 5700 |
| 2026-03-09 19:00 | 9.52 | 3070 | 31400 (1964) | 146 (1968) | 1920 | 346 | 386 | 547 | 630 | 1090 | 1800 | 2030 | 3510 | 5700 |
| 2026-03-09 18:30 | 9.56 | 3110 | 31400 (1964) | 146 (1968) | 1920 | 346 | 386 | 547 | 630 | 1090 | 1800 | 2030 | 3510 | 5700 |
| 2026-03-09 18:00 | 9.57 | 3120 | 31400 (1964) | 146 (1968) | 1920 | 346 | 386 | 547 | 630 | 1090 | 1800 | 2030 | 3510 | 5700 |
| 2026-03-09 17:30 | 9.62 | 3190 | 31400 (1964) | 146 (1968) | 1920 | 346 | 386 | 547 | 630 | 1090 | 1800 | 2030 | 3510 | 5700 |
| 2026-03-09 17:00 | 9.65 | 3220 | 31400 (1964) | 146 (1968) | 1920 | 346 | 386 | 547 | 630 | 1090 | 1800 | 2030 | 3510 | 5700 |
| 2026-03-09 16:30 | 9.69 | 3270 | 31400 (1964) | 146 (1968) | 1920 | 346 | 386 | 547 | 630 | 1090 | 1800 | 2030 | 3510 | 5700 |
| 2026-03-09 16:00 | 9.71 | 3300 | 31400 (1964) | 146 (1968) | 1920 | 346 | 386 | 547 | 630 | 1090 | 1800 | 2030 | 3510 | 5700 |
| 2026-03-09 15:30 | 9.76 | 3360 | 31400 (1964) | 146 (1968) | 1920 | 346 | 386 | 547 | 630 | 1090 | 1800 | 2030 | 3510 | 5700 |
| 2026-03-09 15:00 | 9.80 | 3410 | 31400 (1964) | 146 (1968) | 1920 | 346 | 386 | 547 | 630 | 1090 | 1800 | 2030 | 3510 | 5700 |
| 2026-03-09 14:30 | 9.84 | 3460 | 31400 (1964) | 146 (1968) | 1920 | 346 | 386 | 547 | 630 | 1090 | 1800 | 2030 | 3510 | 5700 |
| 2026-03-09 14:00 | 9.88 | 3510 | 31400 (1964) | 146 (1968) | 1920 | 346 | 386 | 547 | 630 | 1090 | 1800 | 2030 | 3510 | 5700 |
| 2026-03-09 13:30 | 9.92 | 3560 | 31400 (1964) | 146 (1968) | 1920 | 346 | 386 | 547 | 630 | 1090 | 1800 | 2030 | 3510 | 5700 |
| 2026-03-09 13:00 | 9.96 | 3610 | 31400 (1964) | 146 (1968) | 1920 | 346 | 386 | 547 | 630 | 1090 | 1800 | 2030 | 3510 | 5700 |
| 2026-03-09 12:30 | 10.01 | 3680 | 31400 (1964) | 146 (1968) | 1920 | 346 | 386 | 547 | 630 | 1090 | 1800 | 2030 | 3510 | 5700 |
| 2026-03-09 12:00 | 10.05 | 3730 | 31400 (1964) | 146 (1968) | 1920 | 346 | 386 | 547 | 630 | 1090 | 1800 | 2030 | 3510 | 5700 |
| 2026-03-09 11:30 | 10.11 | 3810 | 31400 (1964) | 146 (1968) | 1920 | 346 | 386 | 547 | 630 | 1090 | 1800 | 2030 | 3510 | 5700 |
| 2026-03-09 11:00 | 10.15 | 3860 | 31400 (1964) | 146 (1968) | 1920 | 346 | 386 | 547 | 630 | 1090 | 1800 | 2030 | 3510 | 5700 |
| 2026-03-09 10:30 | 10.20 | 3930 | 31400 (1964) | 146 (1968) | 1920 | 346 | 386 | 547 | 630 | 1090 | 1800 | 2030 | 3510 | 5700 |
| 2026-03-09 10:00 | 10.25 | 4000 | 31400 (1964) | 146 (1968) | 1920 | 346 | 386 | 547 | 630 | 1090 | 1800 | 2030 | 3510 | 5700 |
| 2026-03-09 09:30 | 10.30 | 4070 | 31400 (1964) | 146 (1968) | 1920 | 346 | 386 | 547 | 630 | 1090 | 1800 | 2030 | 3510 | 5700 |
| 2026-03-09 09:00 | 10.35 | 4140 | 31400 (1964) | 146 (1968) | 1920 | 346 | 386 | 547 | 630 | 1090 | 1800 | 2030 | 3510 | 5700 |
| 2026-03-09 08:30 | 10.40 | 4210 | 31400 (1964) | 146 (1968) | 1920 | 346 | 386 | 547 | 630 | 1090 | 1800 | 2030 | 3510 | 5700 |
| 2026-03-09 08:00 | 10.44 | 4270 | 31400 (1964) | 146 (1968) | 1920 | 346 | 386 | 547 | 630 | 1090 | 1800 | 2030 | 3510 | 5700 |
| 2026-03-09 07:30 | 10.50 | 4350 | 31400 (1964) | 146 (1968) | 1920 | 346 | 386 | 547 | 630 | 1090 | 1800 | 2030 | 3510 | 5700 |
| 2026-03-09 07:00 | 10.56 | 4440 | 31400 (1964) | 146 (1968) | 1920 | 346 | 386 | 547 | 630 | 1090 | 1800 | 2030 | 3510 | 5700 |
| 2026-03-09 06:30 | 10.62 | 4520 | 31400 (1964) | 146 (1968) | 1920 | 346 | 386 | 547 | 630 | 1090 | 1800 | 2030 | 3510 | 5700 |
| 2026-03-09 06:00 | 10.69 | 4630 | 31400 (1964) | 146 (1968) | 1920 | 346 | 386 | 547 | 630 | 1090 | 1800 | 2030 | 3510 | 5700 |
| 2026-03-09 05:30 | 10.74 | 4700 | 31400 (1964) | 146 (1968) | 1920 | 346 | 386 | 547 | 630 | 1090 | 1800 | 2030 | 3510 | 5700 |
| 2026-03-09 05:00 | 10.81 | 4810 | 31400 (1964) | 146 (1968) | 1920 | 346 | 386 | 547 | 630 | 1090 | 1800 | 2030 | 3510 | 5700 |
| 2026-03-09 04:30 | 10.89 | 4930 | 31400 (1964) | 146 (1968) | 1920 | 346 | 386 | 547 | 630 | 1090 | 1800 | 2030 | 3510 | 5700 |
| 2026-03-09 04:00 | 10.95 | 5020 | 31400 (1964) | 146 (1968) | 1920 | 346 | 386 | 547 | 630 | 1090 | 1800 | 2030 | 3510 | 5700 |
| 2026-03-09 03:30 | 11.02 | 5130 | 31400 (1964) | 146 (1968) | 1920 | 346 | 386 | 547 | 630 | 1090 | 1800 | 2030 | 3510 | 5700 |
| 2026-03-09 03:00 | 11.09 | 5240 | 31400 (1964) | 146 (1968) | 1920 | 346 | 386 | 547 | 630 | 1090 | 1800 | 2030 | 3510 | 5700 |
| 2026-03-09 02:30 | 11.17 | 5370 | 31400 (1964) | 146 (1968) | 1920 | 346 | 386 | 547 | 630 | 1090 | 1800 | 2030 | 3510 | 5700 |
| 2026-03-09 02:00 | 11.24 | 5480 | 31400 (1964) | 146 (1968) | 1920 | 346 | 386 | 547 | 630 | 1090 | 1800 | 2030 | 3510 | 5700 |
| 2026-03-09 01:30 | 11.33 | 5630 | 31400 (1964) | 146 (1968) | 1920 | 346 | 386 | 547 | 630 | 1090 | 1800 | 2030 | 3510 | 5700 |
| 2026-03-09 01:00 | 11.43 | 5800 | 31400 (1964) | 146 (1968) | 1920 | 346 | 386 | 547 | 630 | 1090 | 1800 | 2030 | 3510 | 5700 |
| 2026-03-09 00:30 | 11.52 | 5950 | 31400 (1964) | 146 (1968) | 1920 | 346 | 386 | 547 | 630 | 1090 | 1800 | 2030 | 3510 | 5700 |
| 2026-03-09 00:00 | 11.63 | 6140 | 31400 (1964) | 146 (1968) | 1920 | 346 | 386 | 547 | 630 | 1090 | 1800 | 2030 | 3510 | 5700 |
| 2026-03-08 23:30 | 11.74 | 6330 | 31400 (1964) | 146 (1968) | 1920 | 346 | 386 | 547 | 630 | 1090 | 1800 | 2030 | 3510 | 5700 |
| 2026-03-08 23:00 | 11.86 | 6540 | 31400 (1964) | 146 (1968) | 1920 | 346 | 386 | 547 | 630 | 1090 | 1800 | 2030 | 3510 | 5700 |
| 2026-03-08 22:30 | 11.98 | 6760 | 21200 (1978) | 148 (1968) | 2010 | 347 | 378 | 541 | 645 | 1090 | 1990 | 2340 | 4120 | 7550 |
| 2026-03-08 22:00 | 12.13 | 7030 | 21200 (1978) | 148 (1968) | 2010 | 347 | 378 | 541 | 645 | 1090 | 1990 | 2340 | 4120 | 7550 |
| 2026-03-08 21:30 | 12.27 | 7290 | 21200 (1978) | 148 (1968) | 2010 | 347 | 378 | 541 | 645 | 1090 | 1990 | 2340 | 4120 | 7550 |
| 2026-03-08 21:00 | 12.42 | 7580 | 21200 (1978) | 148 (1968) | 2010 | 347 | 378 | 541 | 645 | 1090 | 1990 | 2340 | 4120 | 7550 |
| 2026-03-08 20:30 | 12.59 | 7910 | 21200 (1978) | 148 (1968) | 2010 | 347 | 378 | 541 | 645 | 1090 | 1990 | 2340 | 4120 | 7550 |
| 2026-03-08 20:00 | 12.76 | 8250 | 21200 (1978) | 148 (1968) | 2010 | 347 | 378 | 541 | 645 | 1090 | 1990 | 2340 | 4120 | 7550 |
| 2026-03-08 19:30 | 12.93 | 8600 | 21200 (1978) | 148 (1968) | 2010 | 347 | 378 | 541 | 645 | 1090 | 1990 | 2340 | 4120 | 7550 |
| 2026-03-08 19:00 | 13.11 | 8980 | 21200 (1978) | 148 (1968) | 2010 | 347 | 378 | 541 | 645 | 1090 | 1990 | 2340 | 4120 | 7550 |
| 2026-03-08 18:30 | 13.31 | 9400 | 21200 (1978) | 148 (1968) | 2010 | 347 | 378 | 541 | 645 | 1090 | 1990 | 2340 | 4120 | 7550 |
| 2026-03-08 18:00 | 13.47 | 9760 | 21200 (1978) | 148 (1968) | 2010 | 347 | 378 | 541 | 645 | 1090 | 1990 | 2340 | 4120 | 7550 |
| 2026-03-08 17:30 | 13.66 | 10200 | 21200 (1978) | 148 (1968) | 2010 | 347 | 378 | 541 | 645 | 1090 | 1990 | 2340 | 4120 | 7550 |
| 2026-03-08 17:00 | 13.83 | 10600 | 21200 (1978) | 148 (1968) | 2010 | 347 | 378 | 541 | 645 | 1090 | 1990 | 2340 | 4120 | 7550 |
| 2026-03-08 16:30 | 14.00 | 11000 | 21200 (1978) | 148 (1968) | 2010 | 347 | 378 | 541 | 645 | 1090 | 1990 | 2340 | 4120 | 7550 |
| 2026-03-08 16:00 | 14.17 | 11400 | 21200 (1978) | 148 (1968) | 2010 | 347 | 378 | 541 | 645 | 1090 | 1990 | 2340 | 4120 | 7550 |
| 2026-03-08 15:30 | 14.34 | 11800 | 21200 (1978) | 148 (1968) | 2010 | 347 | 378 | 541 | 645 | 1090 | 1990 | 2340 | 4120 | 7550 |
| 2026-03-08 15:00 | 14.49 | 12200 | 21200 (1978) | 148 (1968) | 2010 | 347 | 378 | 541 | 645 | 1090 | 1990 | 2340 | 4120 | 7550 |
| 2026-03-08 14:30 | 14.62 | 12500 | 21200 (1978) | 148 (1968) | 2010 | 347 | 378 | 541 | 645 | 1090 | 1990 | 2340 | 4120 | 7550 |
| 2026-03-08 14:00 | 14.78 | 12900 | 21200 (1978) | 148 (1968) | 2010 | 347 | 378 | 541 | 645 | 1090 | 1990 | 2340 | 4120 | 7550 |
| 2026-03-08 13:30 | 14.91 | 13200 | 21200 (1978) | 148 (1968) | 2010 | 347 | 378 | 541 | 645 | 1090 | 1990 | 2340 | 4120 | 7550 |
| 2026-03-08 13:00 | 15.05 | 13600 | 21200 (1978) | 148 (1968) | 2010 | 347 | 378 | 541 | 645 | 1090 | 1990 | 2340 | 4120 | 7550 |
| 2026-03-08 12:30 | 15.18 | 13900 | 21200 (1978) | 148 (1968) | 2010 | 347 | 378 | 541 | 645 | 1090 | 1990 | 2340 | 4120 | 7550 |
| 2026-03-08 12:00 | 15.31 | 14200 | 21200 (1978) | 148 (1968) | 2010 | 347 | 378 | 541 | 645 | 1090 | 1990 | 2340 | 4120 | 7550 |
| 2026-03-08 11:30 | 15.42 | 14400 | 21200 (1978) | 148 (1968) | 2010 | 347 | 378 | 541 | 645 | 1090 | 1990 | 2340 | 4120 | 7550 |
| 2026-03-08 11:00 | 15.51 | 14600 | 21200 (1978) | 148 (1968) | 2010 | 347 | 378 | 541 | 645 | 1090 | 1990 | 2340 | 4120 | 7550 |
| 2026-03-08 10:30 | 15.61 | 14900 | 21200 (1978) | 148 (1968) | 2010 | 347 | 378 | 541 | 645 | 1090 | 1990 | 2340 | 4120 | 7550 |
| 2026-03-08 10:00 | 15.70 | 15100 | 21200 (1978) | 148 (1968) | 2010 | 347 | 378 | 541 | 645 | 1090 | 1990 | 2340 | 4120 | 7550 |
| 2026-03-08 09:30 | 15.79 | 15300 | 21200 (1978) | 148 (1968) | 2010 | 347 | 378 | 541 | 645 | 1090 | 1990 | 2340 | 4120 | 7550 |
| 2026-03-08 09:00 | 15.85 | 15400 | 21200 (1978) | 148 (1968) | 2010 | 347 | 378 | 541 | 645 | 1090 | 1990 | 2340 | 4120 | 7550 |
| 2026-03-08 08:30 | 15.91 | 15600 | 21200 (1978) | 148 (1968) | 2010 | 347 | 378 | 541 | 645 | 1090 | 1990 | 2340 | 4120 | 7550 |
| 2026-03-08 08:00 | 15.93 | 15600 | 21200 (1978) | 148 (1968) | 2010 | 347 | 378 | 541 | 645 | 1090 | 1990 | 2340 | 4120 | 7550 |
| 2026-03-08 07:30 | 15.95 | 15700 | 21200 (1978) | 148 (1968) | 2010 | 347 | 378 | 541 | 645 | 1090 | 1990 | 2340 | 4120 | 7550 |
| 2026-03-08 07:00 | 15.96 | 15700 | 21200 (1978) | 148 (1968) | 2010 | 347 | 378 | 541 | 645 | 1090 | 1990 | 2340 | 4120 | 7550 |
| 2026-03-08 06:30 | 15.93 | 15600 | 21200 (1978) | 148 (1968) | 2010 | 347 | 378 | 541 | 645 | 1090 | 1990 | 2340 | 4120 | 7550 |
| 2026-03-08 06:00 | 15.90 | 15500 | 21200 (1978) | 148 (1968) | 2010 | 347 | 378 | 541 | 645 | 1090 | 1990 | 2340 | 4120 | 7550 |
| 2026-03-08 05:30 | 15.88 | 15500 | 21200 (1978) | 148 (1968) | 2010 | 347 | 378 | 541 | 645 | 1090 | 1990 | 2340 | 4120 | 7550 |
| 2026-03-08 05:00 | 15.80 | 15300 | 21200 (1978) | 148 (1968) | 2010 | 347 | 378 | 541 | 645 | 1090 | 1990 | 2340 | 4120 | 7550 |
| 2026-03-08 04:30 | 15.72 | 15100 | 21200 (1978) | 148 (1968) | 2010 | 347 | 378 | 541 | 645 | 1090 | 1990 | 2340 | 4120 | 7550 |
| 2026-03-08 04:00 | 15.63 | 14900 | 21200 (1978) | 148 (1968) | 2010 | 347 | 378 | 541 | 645 | 1090 | 1990 | 2340 | 4120 | 7550 |
| 2026-03-08 03:30 | 15.52 | 14600 | 21200 (1978) | 148 (1968) | 2010 | 347 | 378 | 541 | 645 | 1090 | 1990 | 2340 | 4120 | 7550 |
| 2026-03-08 03:00 | 15.37 | 14300 | 21200 (1978) | 148 (1968) | 2010 | 347 | 378 | 541 | 645 | 1090 | 1990 | 2340 | 4120 | 7550 |
| 2026-03-08 01:30 | 15.19 | 13900 | 21200 (1978) | 148 (1968) | 2010 | 347 | 378 | 541 | 645 | 1090 | 1990 | 2340 | 4120 | 7550 |
| 2026-03-08 01:00 | 15.03 | 13500 | 21200 (1978) | 148 (1968) | 2010 | 347 | 378 | 541 | 645 | 1090 | 1990 | 2340 | 4120 | 7550 |
| 2026-03-08 00:30 | 14.82 | 13000 | 21200 (1978) | 148 (1968) | 2010 | 347 | 378 | 541 | 645 | 1090 | 1990 | 2340 | 4120 | 7550 |
| 2026-03-08 00:00 | 14.58 | 12400 | 21200 (1978) | 148 (1968) | 2010 | 347 | 378 | 541 | 645 | 1090 | 1990 | 2340 | 4120 | 7550 |
| 2026-03-07 23:30 | 14.27 | 11600 | 21200 (1978) | 148 (1968) | 2010 | 347 | 378 | 541 | 645 | 1090 | 1990 | 2340 | 4120 | 7550 |
| 2026-03-07 23:00 | 14.01 | 11000 | 21200 (1978) | 148 (1968) | 2010 | 347 | 378 | 541 | 645 | 1090 | 1990 | 2340 | 4120 | 7550 |
| 2026-03-07 22:30 | 13.71 | 10300 | 18000 (1945) | 153 (1968) | 1950 | 269 | 388 | 530 | 678 | 1080 | 2290 | 2470 | 3820 | 7910 |
| 2026-03-07 22:00 | 13.40 | 9600 | 18000 (1945) | 153 (1968) | 1950 | 269 | 388 | 530 | 678 | 1080 | 2290 | 2470 | 3820 | 7910 |
| 2026-03-07 21:30 | 13.08 | 8910 | 18000 (1945) | 153 (1968) | 1950 | 269 | 388 | 530 | 678 | 1080 | 2290 | 2470 | 3820 | 7910 |
| 2026-03-07 21:00 | 12.74 | 8210 | 18000 (1945) | 153 (1968) | 1950 | 269 | 388 | 530 | 678 | 1080 | 2290 | 2470 | 3820 | 7910 |
| 2026-03-07 20:30 | 12.44 | 7620 | 18000 (1945) | 153 (1968) | 1950 | 269 | 388 | 530 | 678 | 1080 | 2290 | 2470 | 3820 | 7910 |
| 2026-03-07 20:00 | 12.16 | 7090 | 18000 (1945) | 153 (1968) | 1950 | 269 | 388 | 530 | 678 | 1080 | 2290 | 2470 | 3820 | 7910 |
| 2026-03-07 19:30 | 11.94 | 6680 | 18000 (1945) | 153 (1968) | 1950 | 269 | 388 | 530 | 678 | 1080 | 2290 | 2470 | 3820 | 7910 |
| 2026-03-07 19:00 | 11.75 | 6340 | 18000 (1945) | 153 (1968) | 1950 | 269 | 388 | 530 | 678 | 1080 | 2290 | 2470 | 3820 | 7910 |
| 2026-03-07 18:30 | 11.58 | 6050 | 18000 (1945) | 153 (1968) | 1950 | 269 | 388 | 530 | 678 | 1080 | 2290 | 2470 | 3820 | 7910 |
| 2026-03-07 18:00 | 11.45 | 5830 | 18000 (1945) | 153 (1968) | 1950 | 269 | 388 | 530 | 678 | 1080 | 2290 | 2470 | 3820 | 7910 |
| 2026-03-07 17:30 | 11.34 | 5650 | 18000 (1945) | 153 (1968) | 1950 | 269 | 388 | 530 | 678 | 1080 | 2290 | 2470 | 3820 | 7910 |
| 2026-03-07 17:00 | 11.27 | 5530 | 18000 (1945) | 153 (1968) | 1950 | 269 | 388 | 530 | 678 | 1080 | 2290 | 2470 | 3820 | 7910 |
| 2026-03-07 16:30 | 11.19 | 5400 | 18000 (1945) | 153 (1968) | 1950 | 269 | 388 | 530 | 678 | 1080 | 2290 | 2470 | 3820 | 7910 |
| 2026-03-07 16:00 | 11.14 | 5320 | 18000 (1945) | 153 (1968) | 1950 | 269 | 388 | 530 | 678 | 1080 | 2290 | 2470 | 3820 | 7910 |
| 2026-03-07 15:30 | 11.07 | 5210 | 18000 (1945) | 153 (1968) | 1950 | 269 | 388 | 530 | 678 | 1080 | 2290 | 2470 | 3820 | 7910 |
| 2026-03-07 15:00 | 11.02 | 5130 | 18000 (1945) | 153 (1968) | 1950 | 269 | 388 | 530 | 678 | 1080 | 2290 | 2470 | 3820 | 7910 |
| 2026-03-07 14:30 | 10.98 | 5070 | 18000 (1945) | 153 (1968) | 1950 | 269 | 388 | 530 | 678 | 1080 | 2290 | 2470 | 3820 | 7910 |
| 2026-03-07 14:00 | 10.91 | 4960 | 18000 (1945) | 153 (1968) | 1950 | 269 | 388 | 530 | 678 | 1080 | 2290 | 2470 | 3820 | 7910 |
| 2026-03-07 13:30 | 10.86 | 4880 | 18000 (1945) | 153 (1968) | 1950 | 269 | 388 | 530 | 678 | 1080 | 2290 | 2470 | 3820 | 7910 |
| 2026-03-07 13:00 | 10.82 | 4820 | 18000 (1945) | 153 (1968) | 1950 | 269 | 388 | 530 | 678 | 1080 | 2290 | 2470 | 3820 | 7910 |
| 2026-03-07 12:30 | 10.77 | 4750 | 18000 (1945) | 153 (1968) | 1950 | 269 | 388 | 530 | 678 | 1080 | 2290 | 2470 | 3820 | 7910 |
| 2026-03-07 12:00 | 10.70 | 4640 | 18000 (1945) | 153 (1968) | 1950 | 269 | 388 | 530 | 678 | 1080 | 2290 | 2470 | 3820 | 7910 |
| 2026-03-07 11:30 | 10.66 | 4580 | 18000 (1945) | 153 (1968) | 1950 | 269 | 388 | 530 | 678 | 1080 | 2290 | 2470 | 3820 | 7910 |
| 2026-03-07 11:00 | 10.61 | 4510 | 18000 (1945) | 153 (1968) | 1950 | 269 | 388 | 530 | 678 | 1080 | 2290 | 2470 | 3820 | 7910 |
| 2026-03-07 10:30 | 10.59 | 4480 | 18000 (1945) | 153 (1968) | 1950 | 269 | 388 | 530 | 678 | 1080 | 2290 | 2470 | 3820 | 7910 |
| 2026-03-07 10:00 | 10.55 | 4420 | 18000 (1945) | 153 (1968) | 1950 | 269 | 388 | 530 | 678 | 1080 | 2290 | 2470 | 3820 | 7910 |
| 2026-03-07 09:30 | 10.54 | 4410 | 18000 (1945) | 153 (1968) | 1950 | 269 | 388 | 530 | 678 | 1080 | 2290 | 2470 | 3820 | 7910 |
| 2026-03-07 09:00 | 10.56 | 4440 | 18000 (1945) | 153 (1968) | 1950 | 269 | 388 | 530 | 678 | 1080 | 2290 | 2470 | 3820 | 7910 |
| 2026-03-07 08:30 | 10.56 | 4440 | 18000 (1945) | 153 (1968) | 1950 | 269 | 388 | 530 | 678 | 1080 | 2290 | 2470 | 3820 | 7910 |
| 2026-03-07 08:00 | 10.59 | 4480 | 18000 (1945) | 153 (1968) | 1950 | 269 | 388 | 530 | 678 | 1080 | 2290 | 2470 | 3820 | 7910 |
| 2026-03-07 07:30 | 10.65 | 4570 | 18000 (1945) | 153 (1968) | 1950 | 269 | 388 | 530 | 678 | 1080 | 2290 | 2470 | 3820 | 7910 |
| 2026-03-07 07:00 | 10.68 | 4610 | 18000 (1945) | 153 (1968) | 1950 | 269 | 388 | 530 | 678 | 1080 | 2290 | 2470 | 3820 | 7910 |
| 2026-03-07 06:30 | 10.71 | 4660 | 18000 (1945) | 153 (1968) | 1950 | 269 | 388 | 530 | 678 | 1080 | 2290 | 2470 | 3820 | 7910 |
| 2026-03-07 06:00 | 10.76 | 4730 | 18000 (1945) | 153 (1968) | 1950 | 269 | 388 | 530 | 678 | 1080 | 2290 | 2470 | 3820 | 7910 |
| 2026-03-07 05:30 | 10.79 | 4780 | 18000 (1945) | 153 (1968) | 1950 | 269 | 388 | 530 | 678 | 1080 | 2290 | 2470 | 3820 | 7910 |
| 2026-03-07 05:00 | 10.85 | 4870 | 18000 (1945) | 153 (1968) | 1950 | 269 | 388 | 530 | 678 | 1080 | 2290 | 2470 | 3820 | 7910 |
| 2026-03-07 04:30 | 10.92 | 4980 | 18000 (1945) | 153 (1968) | 1950 | 269 | 388 | 530 | 678 | 1080 | 2290 | 2470 | 3820 | 7910 |
| 2026-03-07 04:00 | 10.98 | 5070 | 18000 (1945) | 153 (1968) | 1950 | 269 | 388 | 530 | 678 | 1080 | 2290 | 2470 | 3820 | 7910 |
| 2026-03-07 03:30 | 11.05 | 5180 | 18000 (1945) | 153 (1968) | 1950 | 269 | 388 | 530 | 678 | 1080 | 2290 | 2470 | 3820 | 7910 |
| 2026-03-07 03:00 | 11.11 | 5270 | 18000 (1945) | 153 (1968) | 1950 | 269 | 388 | 530 | 678 | 1080 | 2290 | 2470 | 3820 | 7910 |
| 2026-03-07 02:30 | 11.17 | 5370 | 18000 (1945) | 153 (1968) | 1950 | 269 | 388 | 530 | 678 | 1080 | 2290 | 2470 | 3820 | 7910 |
| 2026-03-07 02:00 | 11.25 | 5500 | 18000 (1945) | 153 (1968) | 1950 | 269 | 388 | 530 | 678 | 1080 | 2290 | 2470 | 3820 | 7910 |
| 2026-03-07 01:30 | 11.34 | 5650 | 18000 (1945) | 153 (1968) | 1950 | 269 | 388 | 530 | 678 | 1080 | 2290 | 2470 | 3820 | 7910 |
| 2026-03-07 01:00 | 11.41 | 5760 | 18000 (1945) | 153 (1968) | 1950 | 269 | 388 | 530 | 678 | 1080 | 2290 | 2470 | 3820 | 7910 |
| 2026-03-07 00:30 | 11.50 | 5910 | 18000 (1945) | 153 (1968) | 1950 | 269 | 388 | 530 | 678 | 1080 | 2290 | 2470 | 3820 | 7910 |
| 2026-03-07 00:00 | 11.57 | 6030 | 18000 (1945) | 153 (1968) | 1950 | 269 | 388 | 530 | 678 | 1080 | 2290 | 2470 | 3820 | 7910 |
| 2026-03-06 23:30 | 11.67 | 6210 | 18000 (1945) | 153 (1968) | 1950 | 269 | 388 | 530 | 678 | 1080 | 2290 | 2470 | 3820 | 7910 |
| 2026-03-06 23:00 | 11.76 | 6360 | 18000 (1945) | 153 (1968) | 1950 | 269 | 388 | 530 | 678 | 1080 | 2290 | 2470 | 3820 | 7910 |
| 2026-03-06 22:30 | 11.84 | 6500 | 22900 (1961) | 161 (1968) | 2010 | 256 | 347 | 499 | 588 | 974 | 1970 | 2510 | 3990 | 8610 |
| 2026-03-06 22:00 | 11.94 | 6680 | 22900 (1961) | 161 (1968) | 2010 | 256 | 347 | 499 | 588 | 974 | 1970 | 2510 | 3990 | 8610 |
| 2026-03-06 21:30 | 12.05 | 6880 | 22900 (1961) | 161 (1968) | 2010 | 256 | 347 | 499 | 588 | 974 | 1970 | 2510 | 3990 | 8610 |
| 2026-03-06 21:00 | 12.18 | 7120 | 22900 (1961) | 161 (1968) | 2010 | 256 | 347 | 499 | 588 | 974 | 1970 | 2510 | 3990 | 8610 |
| 2026-03-06 20:30 | 12.29 | 7330 | 22900 (1961) | 161 (1968) | 2010 | 256 | 347 | 499 | 588 | 974 | 1970 | 2510 | 3990 | 8610 |
| 2026-03-06 20:00 | 12.44 | 7620 | 22900 (1961) | 161 (1968) | 2010 | 256 | 347 | 499 | 588 | 974 | 1970 | 2510 | 3990 | 8610 |
| 2026-03-06 19:30 | 12.61 | 7950 | 22900 (1961) | 161 (1968) | 2010 | 256 | 347 | 499 | 588 | 974 | 1970 | 2510 | 3990 | 8610 |
| 2026-03-06 19:00 | 12.77 | 8270 | 22900 (1961) | 161 (1968) | 2010 | 256 | 347 | 499 | 588 | 974 | 1970 | 2510 | 3990 | 8610 |
| 2026-03-06 18:30 | 12.96 | 8660 | 22900 (1961) | 161 (1968) | 2010 | 256 | 347 | 499 | 588 | 974 | 1970 | 2510 | 3990 | 8610 |
| 2026-03-06 18:00 | 13.18 | 9130 | 22900 (1961) | 161 (1968) | 2010 | 256 | 347 | 499 | 588 | 974 | 1970 | 2510 | 3990 | 8610 |
| 2026-03-06 17:30 | 13.44 | 9690 | 22900 (1961) | 161 (1968) | 2010 | 256 | 347 | 499 | 588 | 974 | 1970 | 2510 | 3990 | 8610 |
| 2026-03-06 17:00 | 13.70 | 10300 | 22900 (1961) | 161 (1968) | 2010 | 256 | 347 | 499 | 588 | 974 | 1970 | 2510 | 3990 | 8610 |
| 2026-03-06 16:30 | 14.02 | 11000 | 22900 (1961) | 161 (1968) | 2010 | 256 | 347 | 499 | 588 | 974 | 1970 | 2510 | 3990 | 8610 |
| 2026-03-06 16:00 | 14.37 | 11900 | 22900 (1961) | 161 (1968) | 2010 | 256 | 347 | 499 | 588 | 974 | 1970 | 2510 | 3990 | 8610 |
| 2026-03-06 15:30 | 14.73 | 12800 | 22900 (1961) | 161 (1968) | 2010 | 256 | 347 | 499 | 588 | 974 | 1970 | 2510 | 3990 | 8610 |
| 2026-03-06 15:00 | 15.12 | 13700 | 22900 (1961) | 161 (1968) | 2010 | 256 | 347 | 499 | 588 | 974 | 1970 | 2510 | 3990 | 8610 |
| 2026-03-06 14:30 | 15.51 | 14600 | 22900 (1961) | 161 (1968) | 2010 | 256 | 347 | 499 | 588 | 974 | 1970 | 2510 | 3990 | 8610 |
| 2026-03-06 14:00 | 15.90 | 15500 | 22900 (1961) | 161 (1968) | 2010 | 256 | 347 | 499 | 588 | 974 | 1970 | 2510 | 3990 | 8610 |
| 2026-03-06 13:30 | 16.30 | 16500 | 22900 (1961) | 161 (1968) | 2010 | 256 | 347 | 499 | 588 | 974 | 1970 | 2510 | 3990 | 8610 |
| 2026-03-06 13:00 | 16.69 | 17500 | 22900 (1961) | 161 (1968) | 2010 | 256 | 347 | 499 | 588 | 974 | 1970 | 2510 | 3990 | 8610 |
| 2026-03-06 12:30 | 17.07 | 18500 | 22900 (1961) | 161 (1968) | 2010 | 256 | 347 | 499 | 588 | 974 | 1970 | 2510 | 3990 | 8610 |
| 2026-03-06 12:00 | 17.44 | 19500 | 22900 (1961) | 161 (1968) | 2010 | 256 | 347 | 499 | 588 | 974 | 1970 | 2510 | 3990 | 8610 |
| 2026-03-06 11:30 | 17.81 | 20500 | 22900 (1961) | 161 (1968) | 2010 | 256 | 347 | 499 | 588 | 974 | 1970 | 2510 | 3990 | 8610 |
| 2026-03-06 11:00 | 18.14 | 21500 | 22900 (1961) | 161 (1968) | 2010 | 256 | 347 | 499 | 588 | 974 | 1970 | 2510 | 3990 | 8610 |
| 2026-03-06 10:30 | 18.46 | 22400 | 22900 (1961) | 161 (1968) | 2010 | 256 | 347 | 499 | 588 | 974 | 1970 | 2510 | 3990 | 8610 |
| 2026-03-06 10:00 | 18.75 | 23300 | 22900 (1961) | 161 (1968) | 2010 | 256 | 347 | 499 | 588 | 974 | 1970 | 2510 | 3990 | 8610 |
| 2026-03-06 09:30 | 19.05 | 24200 | 22900 (1961) | 161 (1968) | 2010 | 256 | 347 | 499 | 588 | 974 | 1970 | 2510 | 3990 | 8610 |
| 2026-03-06 09:00 | 19.35 | 25200 | 22900 (1961) | 161 (1968) | 2010 | 256 | 347 | 499 | 588 | 974 | 1970 | 2510 | 3990 | 8610 |
| 2026-03-06 08:30 | 19.58 | 25900 | 22900 (1961) | 161 (1968) | 2010 | 256 | 347 | 499 | 588 | 974 | 1970 | 2510 | 3990 | 8610 |
| 2026-03-06 08:00 | 19.80 | 26600 | 22900 (1961) | 161 (1968) | 2010 | 256 | 347 | 499 | 588 | 974 | 1970 | 2510 | 3990 | 8610 |
| 2026-03-06 07:30 | 20.03 | 27400 | 22900 (1961) | 161 (1968) | 2010 | 256 | 347 | 499 | 588 | 974 | 1970 | 2510 | 3990 | 8610 |
| 2026-03-06 07:00 | 20.22 | 28000 | 22900 (1961) | 161 (1968) | 2010 | 256 | 347 | 499 | 588 | 974 | 1970 | 2510 | 3990 | 8610 |
| 2026-03-06 06:30 | 20.41 | 28700 | 22900 (1961) | 161 (1968) | 2010 | 256 | 347 | 499 | 588 | 974 | 1970 | 2510 | 3990 | 8610 |
| 2026-03-06 06:00 | 20.55 | 29100 | 22900 (1961) | 161 (1968) | 2010 | 256 | 347 | 499 | 588 | 974 | 1970 | 2510 | 3990 | 8610 |
| 2026-03-06 05:30 | 20.70 | 29600 | 22900 (1961) | 161 (1968) | 2010 | 256 | 347 | 499 | 588 | 974 | 1970 | 2510 | 3990 | 8610 |
| 2026-03-06 05:00 | 20.86 | 30200 | 22900 (1961) | 161 (1968) | 2010 | 256 | 347 | 499 | 588 | 974 | 1970 | 2510 | 3990 | 8610 |
| 2026-03-06 04:30 | 20.97 | 30600 | 22900 (1961) | 161 (1968) | 2010 | 256 | 347 | 499 | 588 | 974 | 1970 | 2510 | 3990 | 8610 |
| 2026-03-06 04:00 | 21.08 | 31000 | 22900 (1961) | 161 (1968) | 2010 | 256 | 347 | 499 | 588 | 974 | 1970 | 2510 | 3990 | 8610 |
| 2026-03-06 03:30 | 21.16 | 31300 | 22900 (1961) | 161 (1968) | 2010 | 256 | 347 | 499 | 588 | 974 | 1970 | 2510 | 3990 | 8610 |
| 2026-03-06 03:00 | 21.27 | 31700 | 22900 (1961) | 161 (1968) | 2010 | 256 | 347 | 499 | 588 | 974 | 1970 | 2510 | 3990 | 8610 |
| 2026-03-06 02:30 | 21.27 | 31700 | 22900 (1961) | 161 (1968) | 2010 | 256 | 347 | 499 | 588 | 974 | 1970 | 2510 | 3990 | 8610 |
| 2026-03-06 02:00 | 21.34 | 31900 | 22900 (1961) | 161 (1968) | 2010 | 256 | 347 | 499 | 588 | 974 | 1970 | 2510 | 3990 | 8610 |
| 2026-03-06 01:30 | 21.40 | 32100 | 22900 (1961) | 161 (1968) | 2010 | 256 | 347 | 499 | 588 | 974 | 1970 | 2510 | 3990 | 8610 |
| 2026-03-06 01:00 | 21.39 | 32100 | 22900 (1961) | 161 (1968) | 2010 | 256 | 347 | 499 | 588 | 974 | 1970 | 2510 | 3990 | 8610 |
| 2026-03-06 00:30 | 21.39 | 32100 | 22900 (1961) | 161 (1968) | 2010 | 256 | 347 | 499 | 588 | 974 | 1970 | 2510 | 3990 | 8610 |
| 2026-03-06 00:00 | 21.35 | 31900 | 22900 (1961) | 161 (1968) | 2010 | 256 | 347 | 499 | 588 | 974 | 1970 | 2510 | 3990 | 8610 |
| 2026-03-05 23:30 | 21.35 | 31900 | 22900 (1961) | 161 (1968) | 2010 | 256 | 347 | 499 | 588 | 974 | 1970 | 2510 | 3990 | 8610 |
| 2026-03-05 23:00 | 21.28 | 31700 | 22900 (1961) | 161 (1968) | 2010 | 256 | 347 | 499 | 588 | 974 | 1970 | 2510 | 3990 | 8610 |
| 2026-03-05 22:30 | 21.26 | 31600 | 24700 (1939) | 168 (1968) | 1910 | 208 | 356 | 492 | 552 | 1000 | 1650 | 1960 | 4070 | 6150 |
| 2026-03-05 22:00 | 21.15 | 31200 | 24700 (1939) | 168 (1968) | 1910 | 208 | 356 | 492 | 552 | 1000 | 1650 | 1960 | 4070 | 6150 |
| 2026-03-05 21:30 | 21.11 | 31100 | 24700 (1939) | 168 (1968) | 1910 | 208 | 356 | 492 | 552 | 1000 | 1650 | 1960 | 4070 | 6150 |
| 2026-03-05 21:00 | 20.97 | 30600 | 24700 (1939) | 168 (1968) | 1910 | 208 | 356 | 492 | 552 | 1000 | 1650 | 1960 | 4070 | 6150 |
| 2026-03-05 20:30 | 20.86 | 30200 | 24700 (1939) | 168 (1968) | 1910 | 208 | 356 | 492 | 552 | 1000 | 1650 | 1960 | 4070 | 6150 |
| 2026-03-05 20:00 | 20.75 | 29800 | 24700 (1939) | 168 (1968) | 1910 | 208 | 356 | 492 | 552 | 1000 | 1650 | 1960 | 4070 | 6150 |
| 2026-03-05 19:30 | 20.60 | 29300 | 24700 (1939) | 168 (1968) | 1910 | 208 | 356 | 492 | 552 | 1000 | 1650 | 1960 | 4070 | 6150 |
| 2026-03-05 19:00 | 20.46 | 28800 | 24700 (1939) | 168 (1968) | 1910 | 208 | 356 | 492 | 552 | 1000 | 1650 | 1960 | 4070 | 6150 |
| 2026-03-05 18:30 | 20.23 | 28000 | 24700 (1939) | 168 (1968) | 1910 | 208 | 356 | 492 | 552 | 1000 | 1650 | 1960 | 4070 | 6150 |
| 2026-03-05 18:00 | 20.08 | 27500 | 24700 (1939) | 168 (1968) | 1910 | 208 | 356 | 492 | 552 | 1000 | 1650 | 1960 | 4070 | 6150 |
| 2026-03-05 17:30 | 19.87 | 26800 | 24700 (1939) | 168 (1968) | 1910 | 208 | 356 | 492 | 552 | 1000 | 1650 | 1960 | 4070 | 6150 |
| 2026-03-05 17:00 | 19.62 | 26000 | 24700 (1939) | 168 (1968) | 1910 | 208 | 356 | 492 | 552 | 1000 | 1650 | 1960 | 4070 | 6150 |
| 2026-03-05 16:30 | 19.37 | 25200 | 24700 (1939) | 168 (1968) | 1910 | 208 | 356 | 492 | 552 | 1000 | 1650 | 1960 | 4070 | 6150 |
| 2026-03-05 16:00 | 19.11 | 24400 | 24700 (1939) | 168 (1968) | 1910 | 208 | 356 | 492 | 552 | 1000 | 1650 | 1960 | 4070 | 6150 |
| 2026-03-05 15:30 | 18.86 | 23600 | 24700 (1939) | 168 (1968) | 1910 | 208 | 356 | 492 | 552 | 1000 | 1650 | 1960 | 4070 | 6150 |
| 2026-03-05 15:00 | 18.52 | 22600 | 24700 (1939) | 168 (1968) | 1910 | 208 | 356 | 492 | 552 | 1000 | 1650 | 1960 | 4070 | 6150 |
| 2026-03-05 14:30 | 18.17 | 21600 | 24700 (1939) | 168 (1968) | 1910 | 208 | 356 | 492 | 552 | 1000 | 1650 | 1960 | 4070 | 6150 |
| 2026-03-05 14:00 | 17.83 | 20600 | 24700 (1939) | 168 (1968) | 1910 | 208 | 356 | 492 | 552 | 1000 | 1650 | 1960 | 4070 | 6150 |
| 2026-03-05 13:30 | 17.45 | 19500 | 24700 (1939) | 168 (1968) | 1910 | 208 | 356 | 492 | 552 | 1000 | 1650 | 1960 | 4070 | 6150 |
| 2026-03-05 13:00 | 17.09 | 18500 | 24700 (1939) | 168 (1968) | 1910 | 208 | 356 | 492 | 552 | 1000 | 1650 | 1960 | 4070 | 6150 |
| 2026-03-05 12:30 | 16.67 | 17500 | 24700 (1939) | 168 (1968) | 1910 | 208 | 356 | 492 | 552 | 1000 | 1650 | 1960 | 4070 | 6150 |
| 2026-03-05 12:00 | 16.20 | 16300 | 24700 (1939) | 168 (1968) | 1910 | 208 | 356 | 492 | 552 | 1000 | 1650 | 1960 | 4070 | 6150 |
| 2026-03-05 11:30 | 15.72 | 15100 | 24700 (1939) | 168 (1968) | 1910 | 208 | 356 | 492 | 552 | 1000 | 1650 | 1960 | 4070 | 6150 |
| 2026-03-05 11:00 | 15.14 | 13800 | 24700 (1939) | 168 (1968) | 1910 | 208 | 356 | 492 | 552 | 1000 | 1650 | 1960 | 4070 | 6150 |
| 2026-03-05 10:30 | 14.57 | 12400 | 24700 (1939) | 168 (1968) | 1910 | 208 | 356 | 492 | 552 | 1000 | 1650 | 1960 | 4070 | 6150 |
| 2026-03-05 10:00 | 13.99 | 10900 | 24700 (1939) | 168 (1968) | 1910 | 208 | 356 | 492 | 552 | 1000 | 1650 | 1960 | 4070 | 6150 |
| 2026-03-05 09:30 | 13.37 | 9540 | 24700 (1939) | 168 (1968) | 1910 | 208 | 356 | 492 | 552 | 1000 | 1650 | 1960 | 4070 | 6150 |
| 2026-03-05 09:00 | 12.78 | 8290 | 24700 (1939) | 168 (1968) | 1910 | 208 | 356 | 492 | 552 | 1000 | 1650 | 1960 | 4070 | 6150 |
| 2026-03-05 08:30 | 12.23 | 7220 | 24700 (1939) | 168 (1968) | 1910 | 208 | 356 | 492 | 552 | 1000 | 1650 | 1960 | 4070 | 6150 |
| 2026-03-05 08:00 | 11.66 | 6190 | 24700 (1939) | 168 (1968) | 1910 | 208 | 356 | 492 | 552 | 1000 | 1650 | 1960 | 4070 | 6150 |
| 2026-03-05 07:30 | 11.03 | 5150 | 24700 (1939) | 168 (1968) | 1910 | 208 | 356 | 492 | 552 | 1000 | 1650 | 1960 | 4070 | 6150 |
| 2026-03-05 07:00 | 10.35 | 4140 | 24700 (1939) | 168 (1968) | 1910 | 208 | 356 | 492 | 552 | 1000 | 1650 | 1960 | 4070 | 6150 |
| 2026-03-05 06:30 | 9.59 | 3150 | 24700 (1939) | 168 (1968) | 1910 | 208 | 356 | 492 | 552 | 1000 | 1650 | 1960 | 4070 | 6150 |
| 2026-03-05 06:00 | 8.83 | 2280 | 24700 (1939) | 168 (1968) | 1910 | 208 | 356 | 492 | 552 | 1000 | 1650 | 1960 | 4070 | 6150 |
| 2026-03-05 05:30 | 8.14 | 1600 | 24700 (1939) | 168 (1968) | 1910 | 208 | 356 | 492 | 552 | 1000 | 1650 | 1960 | 4070 | 6150 |
| 2026-03-05 05:00 | 7.36 | 1040 | 24700 (1939) | 168 (1968) | 1910 | 208 | 356 | 492 | 552 | 1000 | 1650 | 1960 | 4070 | 6150 |
| 2026-03-05 04:30 | 6.98 | 827 | 24700 (1939) | 168 (1968) | 1910 | 208 | 356 | 492 | 552 | 1000 | 1650 | 1960 | 4070 | 6150 |
| 2026-03-05 04:00 | 6.74 | 708 | 24700 (1939) | 168 (1968) | 1910 | 208 | 356 | 492 | 552 | 1000 | 1650 | 1960 | 4070 | 6150 |
| 2026-03-05 03:30 | 6.69 | 685 | 24700 (1939) | 168 (1968) | 1910 | 208 | 356 | 492 | 552 | 1000 | 1650 | 1960 | 4070 | 6150 |
| 2026-03-05 03:00 | 6.61 | 648 | 24700 (1939) | 168 (1968) | 1910 | 208 | 356 | 492 | 552 | 1000 | 1650 | 1960 | 4070 | 6150 |
| 2026-03-05 02:30 | 6.52 | 608 | 24700 (1939) | 168 (1968) | 1910 | 208 | 356 | 492 | 552 | 1000 | 1650 | 1960 | 4070 | 6150 |
| 2026-03-05 02:00 | 6.49 | 595 | 24700 (1939) | 168 (1968) | 1910 | 208 | 356 | 492 | 552 | 1000 | 1650 | 1960 | 4070 | 6150 |
| 2026-03-05 01:30 | 6.45 | 578 | 24700 (1939) | 168 (1968) | 1910 | 208 | 356 | 492 | 552 | 1000 | 1650 | 1960 | 4070 | 6150 |
| 2026-03-05 01:00 | 6.41 | 561 | 24700 (1939) | 168 (1968) | 1910 | 208 | 356 | 492 | 552 | 1000 | 1650 | 1960 | 4070 | 6150 |
| 2026-03-05 00:30 | 6.39 | 553 | 24700 (1939) | 168 (1968) | 1910 | 208 | 356 | 492 | 552 | 1000 | 1650 | 1960 | 4070 | 6150 |
| 2026-03-05 00:00 | 6.37 | 545 | 24700 (1939) | 168 (1968) | 1910 | 208 | 356 | 492 | 552 | 1000 | 1650 | 1960 | 4070 | 6150 |
| 2026-03-04 23:30 | 6.37 | 545 | 24700 (1939) | 168 (1968) | 1910 | 208 | 356 | 492 | 552 | 1000 | 1650 | 1960 | 4070 | 6150 |
| 2026-03-04 23:00 | 6.36 | 541 | 24700 (1939) | 168 (1968) | 1910 | 208 | 356 | 492 | 552 | 1000 | 1650 | 1960 | 4070 | 6150 |
| 2026-03-04 22:30 | 6.36 | 541 | 40200 (1979) | 173 (1968) | 2110 | 216 | 294 | 499 | 544 | 1000 | 1500 | 1600 | 4390 | 7180 |
| 2026-03-04 22:00 | 6.36 | 541 | 40200 (1979) | 173 (1968) | 2110 | 216 | 294 | 499 | 544 | 1000 | 1500 | 1600 | 4390 | 7180 |
| 2026-03-04 21:30 | 6.36 | 541 | 40200 (1979) | 173 (1968) | 2110 | 216 | 294 | 499 | 544 | 1000 | 1500 | 1600 | 4390 | 7180 |
| 2026-03-04 21:00 | 6.36 | 541 | 40200 (1979) | 173 (1968) | 2110 | 216 | 294 | 499 | 544 | 1000 | 1500 | 1600 | 4390 | 7180 |
| 2026-03-04 20:30 | 6.33 | 529 | 40200 (1979) | 173 (1968) | 2110 | 216 | 294 | 499 | 544 | 1000 | 1500 | 1600 | 4390 | 7180 |
| 2026-03-04 20:00 | 6.33 | 529 | 40200 (1979) | 173 (1968) | 2110 | 216 | 294 | 499 | 544 | 1000 | 1500 | 1600 | 4390 | 7180 |
| 2026-03-04 19:30 | 6.34 | 533 | 40200 (1979) | 173 (1968) | 2110 | 216 | 294 | 499 | 544 | 1000 | 1500 | 1600 | 4390 | 7180 |
| 2026-03-04 19:00 | 6.34 | 533 | 40200 (1979) | 173 (1968) | 2110 | 216 | 294 | 499 | 544 | 1000 | 1500 | 1600 | 4390 | 7180 |
| 2026-03-04 18:30 | 6.35 | 537 | 40200 (1979) | 173 (1968) | 2110 | 216 | 294 | 499 | 544 | 1000 | 1500 | 1600 | 4390 | 7180 |
| 2026-03-04 18:00 | 6.36 | 541 | 40200 (1979) | 173 (1968) | 2110 | 216 | 294 | 499 | 544 | 1000 | 1500 | 1600 | 4390 | 7180 |
| 2026-03-04 17:30 | 6.33 | 529 | 40200 (1979) | 173 (1968) | 2110 | 216 | 294 | 499 | 544 | 1000 | 1500 | 1600 | 4390 | 7180 |
| 2026-03-04 17:00 | 6.34 | 533 | 40200 (1979) | 173 (1968) | 2110 | 216 | 294 | 499 | 544 | 1000 | 1500 | 1600 | 4390 | 7180 |
| 2026-03-04 16:30 | 6.37 | 545 | 40200 (1979) | 173 (1968) | 2110 | 216 | 294 | 499 | 544 | 1000 | 1500 | 1600 | 4390 | 7180 |
| 2026-03-04 16:00 | 6.37 | 545 | 40200 (1979) | 173 (1968) | 2110 | 216 | 294 | 499 | 544 | 1000 | 1500 | 1600 | 4390 | 7180 |
| 2026-03-04 15:30 | 6.37 | 545 | 40200 (1979) | 173 (1968) | 2110 | 216 | 294 | 499 | 544 | 1000 | 1500 | 1600 | 4390 | 7180 |
| 2026-03-04 15:00 | 6.36 | 541 | 40200 (1979) | 173 (1968) | 2110 | 216 | 294 | 499 | 544 | 1000 | 1500 | 1600 | 4390 | 7180 |
| 2026-03-04 14:30 | 6.35 | 537 | 40200 (1979) | 173 (1968) | 2110 | 216 | 294 | 499 | 544 | 1000 | 1500 | 1600 | 4390 | 7180 |
| 2026-03-04 14:00 | 6.33 | 529 | 40200 (1979) | 173 (1968) | 2110 | 216 | 294 | 499 | 544 | 1000 | 1500 | 1600 | 4390 | 7180 |
| 2026-03-04 13:30 | 6.32 | 525 | 40200 (1979) | 173 (1968) | 2110 | 216 | 294 | 499 | 544 | 1000 | 1500 | 1600 | 4390 | 7180 |
| 2026-03-04 13:00 | 6.31 | 521 | 40200 (1979) | 173 (1968) | 2110 | 216 | 294 | 499 | 544 | 1000 | 1500 | 1600 | 4390 | 7180 |
| 2026-03-04 12:30 | 6.28 | 509 | 40200 (1979) | 173 (1968) | 2110 | 216 | 294 | 499 | 544 | 1000 | 1500 | 1600 | 4390 | 7180 |
| 2026-03-04 12:00 | 6.29 | 513 | 40200 (1979) | 173 (1968) | 2110 | 216 | 294 | 499 | 544 | 1000 | 1500 | 1600 | 4390 | 7180 |
| 2026-03-04 11:30 | 6.26 | 501 | 40200 (1979) | 173 (1968) | 2110 | 216 | 294 | 499 | 544 | 1000 | 1500 | 1600 | 4390 | 7180 |
| 2026-03-04 11:00 | 6.25 | 497 | 40200 (1979) | 173 (1968) | 2110 | 216 | 294 | 499 | 544 | 1000 | 1500 | 1600 | 4390 | 7180 |
| 2026-03-04 10:30 | 6.27 | 505 | 40200 (1979) | 173 (1968) | 2110 | 216 | 294 | 499 | 544 | 1000 | 1500 | 1600 | 4390 | 7180 |
| 2026-03-04 10:00 | 6.27 | 505 | 40200 (1979) | 173 (1968) | 2110 | 216 | 294 | 499 | 544 | 1000 | 1500 | 1600 | 4390 | 7180 |
| 2026-03-04 09:30 | 6.30 | 517 | 40200 (1979) | 173 (1968) | 2110 | 216 | 294 | 499 | 544 | 1000 | 1500 | 1600 | 4390 | 7180 |
| 2026-03-04 09:00 | 6.31 | 521 | 40200 (1979) | 173 (1968) | 2110 | 216 | 294 | 499 | 544 | 1000 | 1500 | 1600 | 4390 | 7180 |
| 2026-03-04 08:30 | 6.31 | 521 | 40200 (1979) | 173 (1968) | 2110 | 216 | 294 | 499 | 544 | 1000 | 1500 | 1600 | 4390 | 7180 |
| 2026-03-04 08:00 | 6.32 | 525 | 40200 (1979) | 173 (1968) | 2110 | 216 | 294 | 499 | 544 | 1000 | 1500 | 1600 | 4390 | 7180 |
| 2026-03-04 07:30 | 6.32 | 525 | 40200 (1979) | 173 (1968) | 2110 | 216 | 294 | 499 | 544 | 1000 | 1500 | 1600 | 4390 | 7180 |
| 2026-03-04 07:00 | 6.32 | 525 | 40200 (1979) | 173 (1968) | 2110 | 216 | 294 | 499 | 544 | 1000 | 1500 | 1600 | 4390 | 7180 |
| 2026-03-04 06:30 | 6.33 | 529 | 40200 (1979) | 173 (1968) | 2110 | 216 | 294 | 499 | 544 | 1000 | 1500 | 1600 | 4390 | 7180 |
| 2026-03-04 06:00 | 6.33 | 529 | 40200 (1979) | 173 (1968) | 2110 | 216 | 294 | 499 | 544 | 1000 | 1500 | 1600 | 4390 | 7180 |
| 2026-03-04 05:30 | 6.33 | 529 | 40200 (1979) | 173 (1968) | 2110 | 216 | 294 | 499 | 544 | 1000 | 1500 | 1600 | 4390 | 7180 |
| 2026-03-04 05:00 | 6.33 | 529 | 40200 (1979) | 173 (1968) | 2110 | 216 | 294 | 499 | 544 | 1000 | 1500 | 1600 | 4390 | 7180 |
| 2026-03-04 04:30 | 6.33 | 529 | 40200 (1979) | 173 (1968) | 2110 | 216 | 294 | 499 | 544 | 1000 | 1500 | 1600 | 4390 | 7180 |
| 2026-03-04 04:00 | 6.33 | 529 | 40200 (1979) | 173 (1968) | 2110 | 216 | 294 | 499 | 544 | 1000 | 1500 | 1600 | 4390 | 7180 |
| 2026-03-04 03:30 | 6.33 | 529 | 40200 (1979) | 173 (1968) | 2110 | 216 | 294 | 499 | 544 | 1000 | 1500 | 1600 | 4390 | 7180 |
| 2026-03-04 03:00 | 6.32 | 525 | 40200 (1979) | 173 (1968) | 2110 | 216 | 294 | 499 | 544 | 1000 | 1500 | 1600 | 4390 | 7180 |
| 2026-03-04 02:30 | 6.31 | 521 | 40200 (1979) | 173 (1968) | 2110 | 216 | 294 | 499 | 544 | 1000 | 1500 | 1600 | 4390 | 7180 |
| 2026-03-04 02:00 | 6.29 | 513 | 40200 (1979) | 173 (1968) | 2110 | 216 | 294 | 499 | 544 | 1000 | 1500 | 1600 | 4390 | 7180 |
| 2026-03-04 01:30 | 6.27 | 505 | 40200 (1979) | 173 (1968) | 2110 | 216 | 294 | 499 | 544 | 1000 | 1500 | 1600 | 4390 | 7180 |
| 2026-03-04 01:00 | 6.23 | 489 | 40200 (1979) | 173 (1968) | 2110 | 216 | 294 | 499 | 544 | 1000 | 1500 | 1600 | 4390 | 7180 |
| 2026-03-04 00:30 | 6.18 | 470 | 40200 (1979) | 173 (1968) | 2110 | 216 | 294 | 499 | 544 | 1000 | 1500 | 1600 | 4390 | 7180 |
| 2026-03-04 00:00 | 6.12 | 448 | 40200 (1979) | 173 (1968) | 2110 | 216 | 294 | 499 | 544 | 1000 | 1500 | 1600 | 4390 | 7180 |
| 2026-03-03 23:30 | 6.02 | 412 | 40200 (1979) | 173 (1968) | 2110 | 216 | 294 | 499 | 544 | 1000 | 1500 | 1600 | 4390 | 7180 |
| 2026-03-03 23:00 | 5.91 | 375 | 40200 (1979) | 173 (1968) | 2110 | 216 | 294 | 499 | 544 | 1000 | 1500 | 1600 | 4390 | 7180 |
| 2026-03-03 22:30 | 5.79 | 336 | 18500 (1979) | 173 (1963) | 1680 | 213 | 276 | 457 | 573 | 890 | 1480 | 1750 | 2740 | 8960 |
| 2026-03-03 22:00 | 5.69 | 306 | 18500 (1979) | 173 (1963) | 1680 | 213 | 276 | 457 | 573 | 890 | 1480 | 1750 | 2740 | 8960 |
| 2026-03-03 21:30 | 5.62 | 286 | 18500 (1979) | 173 (1963) | 1680 | 213 | 276 | 457 | 573 | 890 | 1480 | 1750 | 2740 | 8960 |
| 2026-03-03 21:00 | 5.58 | 275 | 18500 (1979) | 173 (1963) | 1680 | 213 | 276 | 457 | 573 | 890 | 1480 | 1750 | 2740 | 8960 |
| 2026-03-03 20:30 | 5.56 | 269 | 18500 (1979) | 173 (1963) | 1680 | 213 | 276 | 457 | 573 | 890 | 1480 | 1750 | 2740 | 8960 |
| 2026-03-03 20:00 | 5.55 | 266 | 18500 (1979) | 173 (1963) | 1680 | 213 | 276 | 457 | 573 | 890 | 1480 | 1750 | 2740 | 8960 |
| 2026-03-03 19:30 | 5.54 | 264 | 18500 (1979) | 173 (1963) | 1680 | 213 | 276 | 457 | 573 | 890 | 1480 | 1750 | 2740 | 8960 |
| 2026-03-03 19:00 | 5.54 | 264 | 18500 (1979) | 173 (1963) | 1680 | 213 | 276 | 457 | 573 | 890 | 1480 | 1750 | 2740 | 8960 |
| 2026-03-03 18:30 | 5.54 | 264 | 18500 (1979) | 173 (1963) | 1680 | 213 | 276 | 457 | 573 | 890 | 1480 | 1750 | 2740 | 8960 |
| 2026-03-03 18:00 | 5.54 | 264 | 18500 (1979) | 173 (1963) | 1680 | 213 | 276 | 457 | 573 | 890 | 1480 | 1750 | 2740 | 8960 |
| 2026-03-03 17:30 | 5.54 | 264 | 18500 (1979) | 173 (1963) | 1680 | 213 | 276 | 457 | 573 | 890 | 1480 | 1750 | 2740 | 8960 |
| 2026-03-03 17:00 | 5.51 | 256 | 18500 (1979) | 173 (1963) | 1680 | 213 | 276 | 457 | 573 | 890 | 1480 | 1750 | 2740 | 8960 |
| 2026-03-03 16:30 | 5.50 | 253 | 18500 (1979) | 173 (1963) | 1680 | 213 | 276 | 457 | 573 | 890 | 1480 | 1750 | 2740 | 8960 |
| 2026-03-03 16:00 | 5.49 | 250 | 18500 (1979) | 173 (1963) | 1680 | 213 | 276 | 457 | 573 | 890 | 1480 | 1750 | 2740 | 8960 |
| 2026-03-03 15:30 | 5.48 | 248 | 18500 (1979) | 173 (1963) | 1680 | 213 | 276 | 457 | 573 | 890 | 1480 | 1750 | 2740 | 8960 |
| 2026-03-03 15:00 | 5.49 | 250 | 18500 (1979) | 173 (1963) | 1680 | 213 | 276 | 457 | 573 | 890 | 1480 | 1750 | 2740 | 8960 |
| 2026-03-03 14:30 | 5.48 | 248 | 18500 (1979) | 173 (1963) | 1680 | 213 | 276 | 457 | 573 | 890 | 1480 | 1750 | 2740 | 8960 |
| 2026-03-03 14:00 | 5.49 | 250 | 18500 (1979) | 173 (1963) | 1680 | 213 | 276 | 457 | 573 | 890 | 1480 | 1750 | 2740 | 8960 |
| 2026-03-03 13:30 | 5.52 | 258 | 18500 (1979) | 173 (1963) | 1680 | 213 | 276 | 457 | 573 | 890 | 1480 | 1750 | 2740 | 8960 |
| 2026-03-03 13:00 | 5.49 | 250 | 18500 (1979) | 173 (1963) | 1680 | 213 | 276 | 457 | 573 | 890 | 1480 | 1750 | 2740 | 8960 |
| 2026-03-03 12:30 | 5.48 | 248 | 18500 (1979) | 173 (1963) | 1680 | 213 | 276 | 457 | 573 | 890 | 1480 | 1750 | 2740 | 8960 |
| 2026-03-03 12:00 | 5.51 | 256 | 18500 (1979) | 173 (1963) | 1680 | 213 | 276 | 457 | 573 | 890 | 1480 | 1750 | 2740 | 8960 |
| 2026-03-03 11:30 | 5.49 | 250 | 18500 (1979) | 173 (1963) | 1680 | 213 | 276 | 457 | 573 | 890 | 1480 | 1750 | 2740 | 8960 |
| 2026-03-03 11:00 | 5.53 | 261 | 18500 (1979) | 173 (1963) | 1680 | 213 | 276 | 457 | 573 | 890 | 1480 | 1750 | 2740 | 8960 |
| 2026-03-03 10:30 | 5.53 | 261 | 18500 (1979) | 173 (1963) | 1680 | 213 | 276 | 457 | 573 | 890 | 1480 | 1750 | 2740 | 8960 |
| 2026-03-03 10:00 | 5.53 | 261 | 18500 (1979) | 173 (1963) | 1680 | 213 | 276 | 457 | 573 | 890 | 1480 | 1750 | 2740 | 8960 |
| 2026-03-03 09:30 | 5.53 | 261 | 18500 (1979) | 173 (1963) | 1680 | 213 | 276 | 457 | 573 | 890 | 1480 | 1750 | 2740 | 8960 |
| 2026-03-03 09:00 | 5.53 | 261 | 18500 (1979) | 173 (1963) | 1680 | 213 | 276 | 457 | 573 | 890 | 1480 | 1750 | 2740 | 8960 |
| 2026-03-03 08:30 | 5.53 | 261 | 18500 (1979) | 173 (1963) | 1680 | 213 | 276 | 457 | 573 | 890 | 1480 | 1750 | 2740 | 8960 |
| 2026-03-03 08:00 | 5.53 | 261 | 18500 (1979) | 173 (1963) | 1680 | 213 | 276 | 457 | 573 | 890 | 1480 | 1750 | 2740 | 8960 |
| 2026-03-03 07:30 | 5.53 | 261 | 18500 (1979) | 173 (1963) | 1680 | 213 | 276 | 457 | 573 | 890 | 1480 | 1750 | 2740 | 8960 |
| 2026-03-03 07:00 | 5.53 | 261 | 18500 (1979) | 173 (1963) | 1680 | 213 | 276 | 457 | 573 | 890 | 1480 | 1750 | 2740 | 8960 |
| 2026-03-03 06:30 | 5.53 | 261 | 18500 (1979) | 173 (1963) | 1680 | 213 | 276 | 457 | 573 | 890 | 1480 | 1750 | 2740 | 8960 |
| 2026-03-03 06:00 | 5.53 | 261 | 18500 (1979) | 173 (1963) | 1680 | 213 | 276 | 457 | 573 | 890 | 1480 | 1750 | 2740 | 8960 |
| 2026-03-03 05:30 | 5.53 | 261 | 18500 (1979) | 173 (1963) | 1680 | 213 | 276 | 457 | 573 | 890 | 1480 | 1750 | 2740 | 8960 |
| 2026-03-03 05:00 | 5.53 | 261 | 18500 (1979) | 173 (1963) | 1680 | 213 | 276 | 457 | 573 | 890 | 1480 | 1750 | 2740 | 8960 |
| 2026-03-03 04:30 | 5.54 | 264 | 18500 (1979) | 173 (1963) | 1680 | 213 | 276 | 457 | 573 | 890 | 1480 | 1750 | 2740 | 8960 |
| 2026-03-03 04:00 | 5.54 | 264 | 18500 (1979) | 173 (1963) | 1680 | 213 | 276 | 457 | 573 | 890 | 1480 | 1750 | 2740 | 8960 |
| 2026-03-03 03:30 | 5.54 | 264 | 18500 (1979) | 173 (1963) | 1680 | 213 | 276 | 457 | 573 | 890 | 1480 | 1750 | 2740 | 8960 |
| 2026-03-03 03:00 | 5.54 | 264 | 18500 (1979) | 173 (1963) | 1680 | 213 | 276 | 457 | 573 | 890 | 1480 | 1750 | 2740 | 8960 |
| 2026-03-03 02:30 | 5.54 | 264 | 18500 (1979) | 173 (1963) | 1680 | 213 | 276 | 457 | 573 | 890 | 1480 | 1750 | 2740 | 8960 |
| 2026-03-03 02:00 | 5.54 | 264 | 18500 (1979) | 173 (1963) | 1680 | 213 | 276 | 457 | 573 | 890 | 1480 | 1750 | 2740 | 8960 |
| 2026-03-03 01:30 | 5.54 | 264 | 18500 (1979) | 173 (1963) | 1680 | 213 | 276 | 457 | 573 | 890 | 1480 | 1750 | 2740 | 8960 |
| 2026-03-03 01:00 | 5.54 | 264 | 18500 (1979) | 173 (1963) | 1680 | 213 | 276 | 457 | 573 | 890 | 1480 | 1750 | 2740 | 8960 |
| 2026-03-03 00:30 | 5.54 | 264 | 18500 (1979) | 173 (1963) | 1680 | 213 | 276 | 457 | 573 | 890 | 1480 | 1750 | 2740 | 8960 |
| 2026-03-03 00:00 | 5.54 | 264 | 18500 (1979) | 173 (1963) | 1680 | 213 | 276 | 457 | 573 | 890 | 1480 | 1750 | 2740 | 8960 |
| 2026-03-02 23:30 | 5.54 | 264 | 18500 (1979) | 173 (1963) | 1680 | 213 | 276 | 457 | 573 | 890 | 1480 | 1750 | 2740 | 8960 |
| 2026-03-02 23:00 | 5.54 | 264 | 18500 (1979) | 173 (1963) | 1680 | 213 | 276 | 457 | 573 | 890 | 1480 | 1750 | 2740 | 8960 |
| 2026-03-02 22:30 | 5.54 | 264 | 10100 (1997) | 159 (1963) | 1350 | 215 | 258 | 450 | 558 | 930 | 1620 | 1780 | 2720 | 4100 |
| 2026-03-02 22:00 | 5.55 | 266 | 10100 (1997) | 159 (1963) | 1350 | 215 | 258 | 450 | 558 | 930 | 1620 | 1780 | 2720 | 4100 |
| 2026-03-02 21:30 | 5.55 | 266 | 10100 (1997) | 159 (1963) | 1350 | 215 | 258 | 450 | 558 | 930 | 1620 | 1780 | 2720 | 4100 |
| 2026-03-02 21:00 | 5.55 | 266 | 10100 (1997) | 159 (1963) | 1350 | 215 | 258 | 450 | 558 | 930 | 1620 | 1780 | 2720 | 4100 |
| 2026-03-02 20:30 | 5.55 | 266 | 10100 (1997) | 159 (1963) | 1350 | 215 | 258 | 450 | 558 | 930 | 1620 | 1780 | 2720 | 4100 |
| 2026-03-02 20:00 | 5.55 | 266 | 10100 (1997) | 159 (1963) | 1350 | 215 | 258 | 450 | 558 | 930 | 1620 | 1780 | 2720 | 4100 |
| 2026-03-02 19:30 | 5.55 | 266 | 10100 (1997) | 159 (1963) | 1350 | 215 | 258 | 450 | 558 | 930 | 1620 | 1780 | 2720 | 4100 |
| 2026-03-02 19:00 | 5.55 | 266 | 10100 (1997) | 159 (1963) | 1350 | 215 | 258 | 450 | 558 | 930 | 1620 | 1780 | 2720 | 4100 |
| 2026-03-02 18:30 | 5.55 | 266 | 10100 (1997) | 159 (1963) | 1350 | 215 | 258 | 450 | 558 | 930 | 1620 | 1780 | 2720 | 4100 |
| 2026-03-02 18:00 | 5.55 | 266 | 10100 (1997) | 159 (1963) | 1350 | 215 | 258 | 450 | 558 | 930 | 1620 | 1780 | 2720 | 4100 |
| 2026-03-02 17:30 | 5.55 | 266 | 10100 (1997) | 159 (1963) | 1350 | 215 | 258 | 450 | 558 | 930 | 1620 | 1780 | 2720 | 4100 |
| 2026-03-02 17:00 | 5.55 | 266 | 10100 (1997) | 159 (1963) | 1350 | 215 | 258 | 450 | 558 | 930 | 1620 | 1780 | 2720 | 4100 |
| 2026-03-02 16:30 | 5.55 | 266 | 10100 (1997) | 159 (1963) | 1350 | 215 | 258 | 450 | 558 | 930 | 1620 | 1780 | 2720 | 4100 |
| 2026-03-02 16:00 | 5.54 | 264 | 10100 (1997) | 159 (1963) | 1350 | 215 | 258 | 450 | 558 | 930 | 1620 | 1780 | 2720 | 4100 |
| 2026-03-02 15:30 | 5.55 | 266 | 10100 (1997) | 159 (1963) | 1350 | 215 | 258 | 450 | 558 | 930 | 1620 | 1780 | 2720 | 4100 |
| 2026-03-02 15:00 | 5.55 | 266 | 10100 (1997) | 159 (1963) | 1350 | 215 | 258 | 450 | 558 | 930 | 1620 | 1780 | 2720 | 4100 |
| 2026-03-02 14:30 | 5.55 | 266 | 10100 (1997) | 159 (1963) | 1350 | 215 | 258 | 450 | 558 | 930 | 1620 | 1780 | 2720 | 4100 |
| 2026-03-02 14:00 | 5.55 | 266 | 10100 (1997) | 159 (1963) | 1350 | 215 | 258 | 450 | 558 | 930 | 1620 | 1780 | 2720 | 4100 |
| 2026-03-02 13:30 | 5.56 | 269 | 10100 (1997) | 159 (1963) | 1350 | 215 | 258 | 450 | 558 | 930 | 1620 | 1780 | 2720 | 4100 |
| 2026-03-02 13:00 | 5.54 | 264 | 10100 (1997) | 159 (1963) | 1350 | 215 | 258 | 450 | 558 | 930 | 1620 | 1780 | 2720 | 4100 |
| 2026-03-02 12:30 | 5.56 | 269 | 10100 (1997) | 159 (1963) | 1350 | 215 | 258 | 450 | 558 | 930 | 1620 | 1780 | 2720 | 4100 |
| 2026-03-02 12:00 | 5.56 | 269 | 10100 (1997) | 159 (1963) | 1350 | 215 | 258 | 450 | 558 | 930 | 1620 | 1780 | 2720 | 4100 |
| 2026-03-02 11:30 | 5.56 | 269 | 10100 (1997) | 159 (1963) | 1350 | 215 | 258 | 450 | 558 | 930 | 1620 | 1780 | 2720 | 4100 |
| 2026-03-02 11:00 | 5.56 | 269 | 10100 (1997) | 159 (1963) | 1350 | 215 | 258 | 450 | 558 | 930 | 1620 | 1780 | 2720 | 4100 |
| 2026-03-02 10:30 | 5.56 | 269 | 10100 (1997) | 159 (1963) | 1350 | 215 | 258 | 450 | 558 | 930 | 1620 | 1780 | 2720 | 4100 |
| 2026-03-02 10:00 | 5.56 | 269 | 10100 (1997) | 159 (1963) | 1350 | 215 | 258 | 450 | 558 | 930 | 1620 | 1780 | 2720 | 4100 |
| 2026-03-02 09:30 | 5.56 | 269 | 10100 (1997) | 159 (1963) | 1350 | 215 | 258 | 450 | 558 | 930 | 1620 | 1780 | 2720 | 4100 |
| 2026-03-02 09:00 | 5.56 | 269 | 10100 (1997) | 159 (1963) | 1350 | 215 | 258 | 450 | 558 | 930 | 1620 | 1780 | 2720 | 4100 |
| 2026-03-02 08:30 | 5.56 | 277 | 10100 (1997) | 159 (1963) | 1350 | 215 | 258 | 450 | 558 | 930 | 1620 | 1780 | 2720 | 4100 |
| 2026-03-02 08:00 | 5.57 | 280 | 10100 (1997) | 159 (1963) | 1350 | 215 | 258 | 450 | 558 | 930 | 1620 | 1780 | 2720 | 4100 |
| 2026-03-02 07:30 | 5.57 | 280 | 10100 (1997) | 159 (1963) | 1350 | 215 | 258 | 450 | 558 | 930 | 1620 | 1780 | 2720 | 4100 |
| 2026-03-02 07:00 | 5.57 | 280 | 10100 (1997) | 159 (1963) | 1350 | 215 | 258 | 450 | 558 | 930 | 1620 | 1780 | 2720 | 4100 |
| 2026-03-02 06:30 | 5.57 | 280 | 10100 (1997) | 159 (1963) | 1350 | 215 | 258 | 450 | 558 | 930 | 1620 | 1780 | 2720 | 4100 |
| 2026-03-02 06:00 | 5.57 | 280 | 10100 (1997) | 159 (1963) | 1350 | 215 | 258 | 450 | 558 | 930 | 1620 | 1780 | 2720 | 4100 |
| 2026-03-02 05:30 | 5.57 | 280 | 10100 (1997) | 159 (1963) | 1350 | 215 | 258 | 450 | 558 | 930 | 1620 | 1780 | 2720 | 4100 |
| 2026-03-02 05:00 | 5.57 | 280 | 10100 (1997) | 159 (1963) | 1350 | 215 | 258 | 450 | 558 | 930 | 1620 | 1780 | 2720 | 4100 |
| 2026-03-02 04:30 | 5.57 | 280 | 10100 (1997) | 159 (1963) | 1350 | 215 | 258 | 450 | 558 | 930 | 1620 | 1780 | 2720 | 4100 |
| 2026-03-02 04:00 | 5.55 | 275 | 10100 (1997) | 159 (1963) | 1350 | 215 | 258 | 450 | 558 | 930 | 1620 | 1780 | 2720 | 4100 |
| 2026-03-02 03:30 | 5.57 | 280 | 10100 (1997) | 159 (1963) | 1350 | 215 | 258 | 450 | 558 | 930 | 1620 | 1780 | 2720 | 4100 |
| 2026-03-02 03:00 | 5.56 | 277 | 10100 (1997) | 159 (1963) | 1350 | 215 | 258 | 450 | 558 | 930 | 1620 | 1780 | 2720 | 4100 |
| 2026-03-02 02:30 | 5.57 | 280 | 10100 (1997) | 159 (1963) | 1350 | 215 | 258 | 450 | 558 | 930 | 1620 | 1780 | 2720 | 4100 |
| 2026-03-02 02:00 | 5.57 | 280 | 10100 (1997) | 159 (1963) | 1350 | 215 | 258 | 450 | 558 | 930 | 1620 | 1780 | 2720 | 4100 |
| 2026-03-02 01:30 | 5.54 | 272 | 10100 (1997) | 159 (1963) | 1350 | 215 | 258 | 450 | 558 | 930 | 1620 | 1780 | 2720 | 4100 |
| 2026-03-02 01:00 | 5.57 | 280 | 10100 (1997) | 159 (1963) | 1350 | 215 | 258 | 450 | 558 | 930 | 1620 | 1780 | 2720 | 4100 |
| 2026-03-02 00:30 | 5.57 | 280 | 10100 (1997) | 159 (1963) | 1350 | 215 | 258 | 450 | 558 | 930 | 1620 | 1780 | 2720 | 4100 |
| 2026-03-02 00:00 | 5.57 | 280 | 10100 (1997) | 159 (1963) | 1350 | 215 | 258 | 450 | 558 | 930 | 1620 | 1780 | 2720 | 4100 |
| 2026-03-01 23:30 | 5.57 | 280 | 10100 (1997) | 159 (1963) | 1350 | 215 | 258 | 450 | 558 | 930 | 1620 | 1780 | 2720 | 4100 |
| 2026-03-01 23:00 | 5.56 | 277 | 10100 (1997) | 159 (1963) | 1350 | 215 | 258 | 450 | 558 | 930 | 1620 | 1780 | 2720 | 4100 |
| 2026-03-01 22:30 | 5.55 | 275 | 11600 (2021) | 133 (1934) | 1510 | 219 | 264 | 434 | 543 | 990 | 1770 | 1940 | 3400 | 4860 |
| 2026-03-01 22:00 | 5.55 | 275 | 11600 (2021) | 133 (1934) | 1510 | 219 | 264 | 434 | 543 | 990 | 1770 | 1940 | 3400 | 4860 |
| 2026-03-01 21:30 | 5.54 | 272 | 11600 (2021) | 133 (1934) | 1510 | 219 | 264 | 434 | 543 | 990 | 1770 | 1940 | 3400 | 4860 |
| 2026-03-01 21:00 | 5.53 | 269 | 11600 (2021) | 133 (1934) | 1510 | 219 | 264 | 434 | 543 | 990 | 1770 | 1940 | 3400 | 4860 |
| 2026-03-01 20:30 | 5.54 | 272 | 11600 (2021) | 133 (1934) | 1510 | 219 | 264 | 434 | 543 | 990 | 1770 | 1940 | 3400 | 4860 |
| 2026-03-01 20:00 | 5.55 | 275 | 11600 (2021) | 133 (1934) | 1510 | 219 | 264 | 434 | 543 | 990 | 1770 | 1940 | 3400 | 4860 |
| 2026-03-01 19:30 | 5.55 | 275 | 11600 (2021) | 133 (1934) | 1510 | 219 | 264 | 434 | 543 | 990 | 1770 | 1940 | 3400 | 4860 |
| 2026-03-01 19:00 | 5.55 | 275 | 11600 (2021) | 133 (1934) | 1510 | 219 | 264 | 434 | 543 | 990 | 1770 | 1940 | 3400 | 4860 |
| 2026-03-01 18:30 | 5.55 | 275 | 11600 (2021) | 133 (1934) | 1510 | 219 | 264 | 434 | 543 | 990 | 1770 | 1940 | 3400 | 4860 |
| 2026-03-01 18:00 | 5.55 | 275 | 11600 (2021) | 133 (1934) | 1510 | 219 | 264 | 434 | 543 | 990 | 1770 | 1940 | 3400 | 4860 |
| 2026-03-01 17:30 | 5.55 | 275 | 11600 (2021) | 133 (1934) | 1510 | 219 | 264 | 434 | 543 | 990 | 1770 | 1940 | 3400 | 4860 |
| 2026-03-01 17:00 | 5.55 | 275 | 11600 (2021) | 133 (1934) | 1510 | 219 | 264 | 434 | 543 | 990 | 1770 | 1940 | 3400 | 4860 |
| 2026-03-01 16:30 | 5.56 | 277 | 11600 (2021) | 133 (1934) | 1510 | 219 | 264 | 434 | 543 | 990 | 1770 | 1940 | 3400 | 4860 |
| 2026-03-01 16:00 | 5.55 | 275 | 11600 (2021) | 133 (1934) | 1510 | 219 | 264 | 434 | 543 | 990 | 1770 | 1940 | 3400 | 4860 |
| 2026-03-01 15:30 | 5.55 | 275 | 11600 (2021) | 133 (1934) | 1510 | 219 | 264 | 434 | 543 | 990 | 1770 | 1940 | 3400 | 4860 |
| 2026-03-01 15:00 | 5.55 | 275 | 11600 (2021) | 133 (1934) | 1510 | 219 | 264 | 434 | 543 | 990 | 1770 | 1940 | 3400 | 4860 |
| 2026-03-01 14:30 | 5.52 | 266 | 11600 (2021) | 133 (1934) | 1510 | 219 | 264 | 434 | 543 | 990 | 1770 | 1940 | 3400 | 4860 |
| 2026-03-01 14:00 | 5.54 | 272 | 11600 (2021) | 133 (1934) | 1510 | 219 | 264 | 434 | 543 | 990 | 1770 | 1940 | 3400 | 4860 |
| 2026-03-01 13:30 | 5.56 | 277 | 11600 (2021) | 133 (1934) | 1510 | 219 | 264 | 434 | 543 | 990 | 1770 | 1940 | 3400 | 4860 |
| 2026-03-01 13:00 | 5.55 | 275 | 11600 (2021) | 133 (1934) | 1510 | 219 | 264 | 434 | 543 | 990 | 1770 | 1940 | 3400 | 4860 |
| 2026-03-01 12:30 | 5.55 | 275 | 11600 (2021) | 133 (1934) | 1510 | 219 | 264 | 434 | 543 | 990 | 1770 | 1940 | 3400 | 4860 |
| 2026-03-01 12:00 | 5.54 | 272 | 11600 (2021) | 133 (1934) | 1510 | 219 | 264 | 434 | 543 | 990 | 1770 | 1940 | 3400 | 4860 |
| 2026-03-01 11:30 | 5.52 | 266 | 11600 (2021) | 133 (1934) | 1510 | 219 | 264 | 434 | 543 | 990 | 1770 | 1940 | 3400 | 4860 |
| 2026-03-01 11:00 | 5.57 | 280 | 11600 (2021) | 133 (1934) | 1510 | 219 | 264 | 434 | 543 | 990 | 1770 | 1940 | 3400 | 4860 |
| 2026-03-01 10:30 | 5.57 | 280 | 11600 (2021) | 133 (1934) | 1510 | 219 | 264 | 434 | 543 | 990 | 1770 | 1940 | 3400 | 4860 |
| 2026-03-01 10:00 | 5.54 | 272 | 11600 (2021) | 133 (1934) | 1510 | 219 | 264 | 434 | 543 | 990 | 1770 | 1940 | 3400 | 4860 |
| 2026-03-01 09:30 | 5.57 | 280 | 11600 (2021) | 133 (1934) | 1510 | 219 | 264 | 434 | 543 | 990 | 1770 | 1940 | 3400 | 4860 |
| 2026-03-01 09:00 | 5.57 | 280 | 11600 (2021) | 133 (1934) | 1510 | 219 | 264 | 434 | 543 | 990 | 1770 | 1940 | 3400 | 4860 |
| 2026-03-01 08:30 | 5.57 | 280 | 11600 (2021) | 133 (1934) | 1510 | 219 | 264 | 434 | 543 | 990 | 1770 | 1940 | 3400 | 4860 |
| 2026-03-01 08:00 | 5.58 | 283 | 11600 (2021) | 133 (1934) | 1510 | 219 | 264 | 434 | 543 | 990 | 1770 | 1940 | 3400 | 4860 |
| 2026-03-01 07:30 | 5.58 | 283 | 11600 (2021) | 133 (1934) | 1510 | 219 | 264 | 434 | 543 | 990 | 1770 | 1940 | 3400 | 4860 |
| 2026-03-01 07:00 | 5.57 | 280 | 11600 (2021) | 133 (1934) | 1510 | 219 | 264 | 434 | 543 | 990 | 1770 | 1940 | 3400 | 4860 |
| 2026-03-01 06:30 | 5.58 | 283 | 11600 (2021) | 133 (1934) | 1510 | 219 | 264 | 434 | 543 | 990 | 1770 | 1940 | 3400 | 4860 |
| 2026-03-01 06:00 | 5.58 | 283 | 11600 (2021) | 133 (1934) | 1510 | 219 | 264 | 434 | 543 | 990 | 1770 | 1940 | 3400 | 4860 |
| 2026-03-01 05:30 | 5.58 | 283 | 11600 (2021) | 133 (1934) | 1510 | 219 | 264 | 434 | 543 | 990 | 1770 | 1940 | 3400 | 4860 |
| 2026-03-01 05:00 | 5.58 | 283 | 11600 (2021) | 133 (1934) | 1510 | 219 | 264 | 434 | 543 | 990 | 1770 | 1940 | 3400 | 4860 |
| 2026-03-01 04:30 | 5.58 | 283 | 11600 (2021) | 133 (1934) | 1510 | 219 | 264 | 434 | 543 | 990 | 1770 | 1940 | 3400 | 4860 |
| 2026-03-01 04:00 | 5.58 | 283 | 11600 (2021) | 133 (1934) | 1510 | 219 | 264 | 434 | 543 | 990 | 1770 | 1940 | 3400 | 4860 |
| 2026-03-01 03:30 | 5.59 | 286 | 11600 (2021) | 133 (1934) | 1510 | 219 | 264 | 434 | 543 | 990 | 1770 | 1940 | 3400 | 4860 |
| 2026-03-01 03:00 | 5.59 | 286 | 11600 (2021) | 133 (1934) | 1510 | 219 | 264 | 434 | 543 | 990 | 1770 | 1940 | 3400 | 4860 |
| 2026-03-01 02:30 | 5.59 | 286 | 11600 (2021) | 133 (1934) | 1510 | 219 | 264 | 434 | 543 | 990 | 1770 | 1940 | 3400 | 4860 |
| 2026-03-01 02:00 | 5.55 | 275 | 11600 (2021) | 133 (1934) | 1510 | 219 | 264 | 434 | 543 | 990 | 1770 | 1940 | 3400 | 4860 |
| 2026-03-01 01:30 | 5.59 | 286 | 11600 (2021) | 133 (1934) | 1510 | 219 | 264 | 434 | 543 | 990 | 1770 | 1940 | 3400 | 4860 |
| 2026-03-01 01:00 | 5.59 | 286 | 11600 (2021) | 133 (1934) | 1510 | 219 | 264 | 434 | 543 | 990 | 1770 | 1940 | 3400 | 4860 |
| 2026-03-01 00:30 | 5.59 | 286 | 11600 (2021) | 133 (1934) | 1510 | 219 | 264 | 434 | 543 | 990 | 1770 | 1940 | 3400 | 4860 |
| 2026-03-01 00:00 | 5.59 | 286 | 11600 (2021) | 133 (1934) | 1510 | 219 | 264 | 434 | 543 | 990 | 1770 | 1940 | 3400 | 4860 |
| 2026-02-28 23:30 | 5.59 | 286 | 11600 (2021) | 133 (1934) | 1510 | 219 | 264 | 434 | 543 | 990 | 1770 | 1940 | 3400 | 4860 |
| 2026-02-28 23:00 | 5.59 | 286 | 11600 (2021) | 133 (1934) | 1510 | 219 | 264 | 434 | 543 | 990 | 1770 | 1940 | 3400 | 4860 |
| 2026-02-28 22:30 | 5.59 | 286 | 14800 (1939) | 108 (1963) | 1710 | 221 | 277 | 447 | 531 | 1010 | 2060 | 2480 | 3580 | 6050 |
| 2026-02-28 22:00 | 5.59 | 286 | 14800 (1939) | 108 (1963) | 1710 | 221 | 277 | 447 | 531 | 1010 | 2060 | 2480 | 3580 | 6050 |
| 2026-02-28 21:30 | 5.59 | 286 | 14800 (1939) | 108 (1963) | 1710 | 221 | 277 | 447 | 531 | 1010 | 2060 | 2480 | 3580 | 6050 |
| 2026-02-28 21:00 | 5.59 | 286 | 14800 (1939) | 108 (1963) | 1710 | 221 | 277 | 447 | 531 | 1010 | 2060 | 2480 | 3580 | 6050 |
| 2026-02-28 20:30 | 5.59 | 286 | 14800 (1939) | 108 (1963) | 1710 | 221 | 277 | 447 | 531 | 1010 | 2060 | 2480 | 3580 | 6050 |
| 2026-02-28 20:00 | 5.60 | 289 | 14800 (1939) | 108 (1963) | 1710 | 221 | 277 | 447 | 531 | 1010 | 2060 | 2480 | 3580 | 6050 |
| 2026-02-28 19:30 | 5.60 | 289 | 14800 (1939) | 108 (1963) | 1710 | 221 | 277 | 447 | 531 | 1010 | 2060 | 2480 | 3580 | 6050 |
| 2026-02-28 19:00 | 5.60 | 289 | 14800 (1939) | 108 (1963) | 1710 | 221 | 277 | 447 | 531 | 1010 | 2060 | 2480 | 3580 | 6050 |
| 2026-02-28 18:30 | 5.60 | 289 | 14800 (1939) | 108 (1963) | 1710 | 221 | 277 | 447 | 531 | 1010 | 2060 | 2480 | 3580 | 6050 |
| 2026-02-28 18:00 | 5.60 | 289 | 14800 (1939) | 108 (1963) | 1710 | 221 | 277 | 447 | 531 | 1010 | 2060 | 2480 | 3580 | 6050 |
| 2026-02-28 17:30 | 5.60 | 289 | 14800 (1939) | 108 (1963) | 1710 | 221 | 277 | 447 | 531 | 1010 | 2060 | 2480 | 3580 | 6050 |
| 2026-02-28 17:00 | 5.60 | 289 | 14800 (1939) | 108 (1963) | 1710 | 221 | 277 | 447 | 531 | 1010 | 2060 | 2480 | 3580 | 6050 |
| 2026-02-28 16:30 | 5.58 | 283 | 14800 (1939) | 108 (1963) | 1710 | 221 | 277 | 447 | 531 | 1010 | 2060 | 2480 | 3580 | 6050 |
| 2026-02-28 16:00 | 5.61 | 291 | 14800 (1939) | 108 (1963) | 1710 | 221 | 277 | 447 | 531 | 1010 | 2060 | 2480 | 3580 | 6050 |
| 2026-02-28 15:30 | 5.60 | 289 | 14800 (1939) | 108 (1963) | 1710 | 221 | 277 | 447 | 531 | 1010 | 2060 | 2480 | 3580 | 6050 |
| 2026-02-28 15:00 | 5.61 | 291 | 14800 (1939) | 108 (1963) | 1710 | 221 | 277 | 447 | 531 | 1010 | 2060 | 2480 | 3580 | 6050 |
| 2026-02-28 14:30 | 5.61 | 291 | 14800 (1939) | 108 (1963) | 1710 | 221 | 277 | 447 | 531 | 1010 | 2060 | 2480 | 3580 | 6050 |
| 2026-02-28 14:00 | 5.61 | 291 | 14800 (1939) | 108 (1963) | 1710 | 221 | 277 | 447 | 531 | 1010 | 2060 | 2480 | 3580 | 6050 |
| 2026-02-28 13:30 | 5.59 | 286 | 14800 (1939) | 108 (1963) | 1710 | 221 | 277 | 447 | 531 | 1010 | 2060 | 2480 | 3580 | 6050 |
| 2026-02-28 13:00 | 5.61 | 291 | 14800 (1939) | 108 (1963) | 1710 | 221 | 277 | 447 | 531 | 1010 | 2060 | 2480 | 3580 | 6050 |
| 2026-02-28 12:30 | 5.61 | 291 | 14800 (1939) | 108 (1963) | 1710 | 221 | 277 | 447 | 531 | 1010 | 2060 | 2480 | 3580 | 6050 |
| 2026-02-28 12:00 | 5.62 | 294 | 14800 (1939) | 108 (1963) | 1710 | 221 | 277 | 447 | 531 | 1010 | 2060 | 2480 | 3580 | 6050 |
| 2026-02-28 11:30 | 5.61 | 291 | 14800 (1939) | 108 (1963) | 1710 | 221 | 277 | 447 | 531 | 1010 | 2060 | 2480 | 3580 | 6050 |
| 2026-02-28 11:00 | 5.62 | 294 | 14800 (1939) | 108 (1963) | 1710 | 221 | 277 | 447 | 531 | 1010 | 2060 | 2480 | 3580 | 6050 |
| 2026-02-28 10:30 | 5.62 | 294 | 14800 (1939) | 108 (1963) | 1710 | 221 | 277 | 447 | 531 | 1010 | 2060 | 2480 | 3580 | 6050 |
| 2026-02-28 10:00 | 5.60 | 289 | 14800 (1939) | 108 (1963) | 1710 | 221 | 277 | 447 | 531 | 1010 | 2060 | 2480 | 3580 | 6050 |
| 2026-02-28 09:30 | 5.62 | 294 | 14800 (1939) | 108 (1963) | 1710 | 221 | 277 | 447 | 531 | 1010 | 2060 | 2480 | 3580 | 6050 |
| 2026-02-28 09:00 | 5.62 | 294 | 14800 (1939) | 108 (1963) | 1710 | 221 | 277 | 447 | 531 | 1010 | 2060 | 2480 | 3580 | 6050 |
| 2026-02-28 08:30 | 5.62 | 294 | 14800 (1939) | 108 (1963) | 1710 | 221 | 277 | 447 | 531 | 1010 | 2060 | 2480 | 3580 | 6050 |
| 2026-02-28 08:00 | 5.62 | 294 | 14800 (1939) | 108 (1963) | 1710 | 221 | 277 | 447 | 531 | 1010 | 2060 | 2480 | 3580 | 6050 |
| 2026-02-28 07:30 | 5.63 | 297 | 14800 (1939) | 108 (1963) | 1710 | 221 | 277 | 447 | 531 | 1010 | 2060 | 2480 | 3580 | 6050 |
| 2026-02-28 07:00 | 5.63 | 297 | 14800 (1939) | 108 (1963) | 1710 | 221 | 277 | 447 | 531 | 1010 | 2060 | 2480 | 3580 | 6050 |
| 2026-02-28 06:30 | 5.63 | 297 | 14800 (1939) | 108 (1963) | 1710 | 221 | 277 | 447 | 531 | 1010 | 2060 | 2480 | 3580 | 6050 |
| 2026-02-28 06:00 | 5.63 | 297 | 14800 (1939) | 108 (1963) | 1710 | 221 | 277 | 447 | 531 | 1010 | 2060 | 2480 | 3580 | 6050 |
| 2026-02-28 05:30 | 5.63 | 297 | 14800 (1939) | 108 (1963) | 1710 | 221 | 277 | 447 | 531 | 1010 | 2060 | 2480 | 3580 | 6050 |
| 2026-02-28 05:00 | 5.63 | 297 | 14800 (1939) | 108 (1963) | 1710 | 221 | 277 | 447 | 531 | 1010 | 2060 | 2480 | 3580 | 6050 |
| 2026-02-28 04:30 | 5.63 | 297 | 14800 (1939) | 108 (1963) | 1710 | 221 | 277 | 447 | 531 | 1010 | 2060 | 2480 | 3580 | 6050 |
| 2026-02-28 04:00 | 5.64 | 300 | 14800 (1939) | 108 (1963) | 1710 | 221 | 277 | 447 | 531 | 1010 | 2060 | 2480 | 3580 | 6050 |
| 2026-02-28 03:30 | 5.64 | 300 | 14800 (1939) | 108 (1963) | 1710 | 221 | 277 | 447 | 531 | 1010 | 2060 | 2480 | 3580 | 6050 |
| 2026-02-28 03:00 | 5.64 | 300 | 14800 (1939) | 108 (1963) | 1710 | 221 | 277 | 447 | 531 | 1010 | 2060 | 2480 | 3580 | 6050 |
| 2026-02-28 02:30 | 5.64 | 300 | 14800 (1939) | 108 (1963) | 1710 | 221 | 277 | 447 | 531 | 1010 | 2060 | 2480 | 3580 | 6050 |
| 2026-02-28 02:00 | 5.64 | 300 | 14800 (1939) | 108 (1963) | 1710 | 221 | 277 | 447 | 531 | 1010 | 2060 | 2480 | 3580 | 6050 |
| 2026-02-28 01:30 | 5.64 | 300 | 14800 (1939) | 108 (1963) | 1710 | 221 | 277 | 447 | 531 | 1010 | 2060 | 2480 | 3580 | 6050 |
| 2026-02-28 01:00 | 5.64 | 300 | 14800 (1939) | 108 (1963) | 1710 | 221 | 277 | 447 | 531 | 1010 | 2060 | 2480 | 3580 | 6050 |
| 2026-02-28 00:30 | 5.64 | 300 | 14800 (1939) | 108 (1963) | 1710 | 221 | 277 | 447 | 531 | 1010 | 2060 | 2480 | 3580 | 6050 |
| 2026-02-28 00:00 | 5.65 | 303 | 14800 (1939) | 108 (1963) | 1710 | 221 | 277 | 447 | 531 | 1010 | 2060 | 2480 | 3580 | 6050 |
| 2026-02-27 23:30 | 5.65 | 303 | 14800 (1939) | 108 (1963) | 1710 | 221 | 277 | 447 | 531 | 1010 | 2060 | 2480 | 3580 | 6050 |
| 2026-02-27 23:00 | 5.65 | 303 | 14800 (1939) | 108 (1963) | 1710 | 221 | 277 | 447 | 531 | 1010 | 2060 | 2480 | 3580 | 6050 |
| 2026-02-27 22:30 | 5.65 | 303 | 18300 (1945) | 110 (1963) | 1960 | 226 | 311 | 432 | 548 | 1090 | 1820 | 2310 | 4070 | 9180 |
| 2026-02-27 22:00 | 5.65 | 303 | 18300 (1945) | 110 (1963) | 1960 | 226 | 311 | 432 | 548 | 1090 | 1820 | 2310 | 4070 | 9180 |
| 2026-02-27 21:30 | 5.65 | 303 | 18300 (1945) | 110 (1963) | 1960 | 226 | 311 | 432 | 548 | 1090 | 1820 | 2310 | 4070 | 9180 |
| 2026-02-27 21:00 | 5.65 | 303 | 18300 (1945) | 110 (1963) | 1960 | 226 | 311 | 432 | 548 | 1090 | 1820 | 2310 | 4070 | 9180 |
| 2026-02-27 20:30 | 5.65 | 303 | 18300 (1945) | 110 (1963) | 1960 | 226 | 311 | 432 | 548 | 1090 | 1820 | 2310 | 4070 | 9180 |
| 2026-02-27 20:00 | 5.65 | 303 | 18300 (1945) | 110 (1963) | 1960 | 226 | 311 | 432 | 548 | 1090 | 1820 | 2310 | 4070 | 9180 |
| 2026-02-27 19:30 | 5.65 | 303 | 18300 (1945) | 110 (1963) | 1960 | 226 | 311 | 432 | 548 | 1090 | 1820 | 2310 | 4070 | 9180 |
| 2026-02-27 19:00 | 5.66 | 306 | 18300 (1945) | 110 (1963) | 1960 | 226 | 311 | 432 | 548 | 1090 | 1820 | 2310 | 4070 | 9180 |
| 2026-02-27 18:30 | 5.66 | 306 | 18300 (1945) | 110 (1963) | 1960 | 226 | 311 | 432 | 548 | 1090 | 1820 | 2310 | 4070 | 9180 |
| 2026-02-27 18:00 | 5.66 | 306 | 18300 (1945) | 110 (1963) | 1960 | 226 | 311 | 432 | 548 | 1090 | 1820 | 2310 | 4070 | 9180 |
| 2026-02-27 17:30 | 5.66 | 306 | 18300 (1945) | 110 (1963) | 1960 | 226 | 311 | 432 | 548 | 1090 | 1820 | 2310 | 4070 | 9180 |
| 2026-02-27 17:00 | 5.66 | 306 | 18300 (1945) | 110 (1963) | 1960 | 226 | 311 | 432 | 548 | 1090 | 1820 | 2310 | 4070 | 9180 |
| 2026-02-27 16:30 | 5.66 | 306 | 18300 (1945) | 110 (1963) | 1960 | 226 | 311 | 432 | 548 | 1090 | 1820 | 2310 | 4070 | 9180 |
| 2026-02-27 16:00 | 5.66 | 306 | 18300 (1945) | 110 (1963) | 1960 | 226 | 311 | 432 | 548 | 1090 | 1820 | 2310 | 4070 | 9180 |
| 2026-02-27 15:30 | 5.67 | 309 | 18300 (1945) | 110 (1963) | 1960 | 226 | 311 | 432 | 548 | 1090 | 1820 | 2310 | 4070 | 9180 |
| 2026-02-27 15:00 | 5.66 | 306 | 18300 (1945) | 110 (1963) | 1960 | 226 | 311 | 432 | 548 | 1090 | 1820 | 2310 | 4070 | 9180 |
| 2026-02-27 14:30 | 5.67 | 309 | 18300 (1945) | 110 (1963) | 1960 | 226 | 311 | 432 | 548 | 1090 | 1820 | 2310 | 4070 | 9180 |
| 2026-02-27 14:00 | 5.67 | 309 | 18300 (1945) | 110 (1963) | 1960 | 226 | 311 | 432 | 548 | 1090 | 1820 | 2310 | 4070 | 9180 |
| 2026-02-27 13:30 | 5.66 | 306 | 18300 (1945) | 110 (1963) | 1960 | 226 | 311 | 432 | 548 | 1090 | 1820 | 2310 | 4070 | 9180 |
| 2026-02-27 13:00 | 5.67 | 309 | 18300 (1945) | 110 (1963) | 1960 | 226 | 311 | 432 | 548 | 1090 | 1820 | 2310 | 4070 | 9180 |
| 2026-02-27 12:30 | 5.67 | 309 | 18300 (1945) | 110 (1963) | 1960 | 226 | 311 | 432 | 548 | 1090 | 1820 | 2310 | 4070 | 9180 |
| 2026-02-27 12:00 | 5.66 | 306 | 18300 (1945) | 110 (1963) | 1960 | 226 | 311 | 432 | 548 | 1090 | 1820 | 2310 | 4070 | 9180 |
| 2026-02-27 11:30 | 5.67 | 309 | 18300 (1945) | 110 (1963) | 1960 | 226 | 311 | 432 | 548 | 1090 | 1820 | 2310 | 4070 | 9180 |
| 2026-02-27 11:00 | 5.68 | 312 | 18300 (1945) | 110 (1963) | 1960 | 226 | 311 | 432 | 548 | 1090 | 1820 | 2310 | 4070 | 9180 |
| 2026-02-27 10:30 | 5.67 | 309 | 18300 (1945) | 110 (1963) | 1960 | 226 | 311 | 432 | 548 | 1090 | 1820 | 2310 | 4070 | 9180 |
| 2026-02-27 10:00 | 5.68 | 312 | 18300 (1945) | 110 (1963) | 1960 | 226 | 311 | 432 | 548 | 1090 | 1820 | 2310 | 4070 | 9180 |
| 2026-02-27 09:30 | 5.68 | 312 | 18300 (1945) | 110 (1963) | 1960 | 226 | 311 | 432 | 548 | 1090 | 1820 | 2310 | 4070 | 9180 |
| 2026-02-27 09:00 | 5.68 | 312 | 18300 (1945) | 110 (1963) | 1960 | 226 | 311 | 432 | 548 | 1090 | 1820 | 2310 | 4070 | 9180 |
| 2026-02-27 08:30 | 5.68 | 312 | 18300 (1945) | 110 (1963) | 1960 | 226 | 311 | 432 | 548 | 1090 | 1820 | 2310 | 4070 | 9180 |
| 2026-02-27 08:00 | 5.69 | 315 | 18300 (1945) | 110 (1963) | 1960 | 226 | 311 | 432 | 548 | 1090 | 1820 | 2310 | 4070 | 9180 |
| 2026-02-27 07:30 | 5.69 | 315 | 18300 (1945) | 110 (1963) | 1960 | 226 | 311 | 432 | 548 | 1090 | 1820 | 2310 | 4070 | 9180 |
| 2026-02-27 07:00 | 5.69 | 315 | 18300 (1945) | 110 (1963) | 1960 | 226 | 311 | 432 | 548 | 1090 | 1820 | 2310 | 4070 | 9180 |
| 2026-02-27 06:30 | 5.69 | 315 | 18300 (1945) | 110 (1963) | 1960 | 226 | 311 | 432 | 548 | 1090 | 1820 | 2310 | 4070 | 9180 |
| 2026-02-27 06:00 | 5.69 | 315 | 18300 (1945) | 110 (1963) | 1960 | 226 | 311 | 432 | 548 | 1090 | 1820 | 2310 | 4070 | 9180 |
| 2026-02-27 05:30 | 5.70 | 318 | 18300 (1945) | 110 (1963) | 1960 | 226 | 311 | 432 | 548 | 1090 | 1820 | 2310 | 4070 | 9180 |
| 2026-02-27 05:00 | 5.70 | 318 | 18300 (1945) | 110 (1963) | 1960 | 226 | 311 | 432 | 548 | 1090 | 1820 | 2310 | 4070 | 9180 |
| 2026-02-27 04:30 | 5.70 | 318 | 18300 (1945) | 110 (1963) | 1960 | 226 | 311 | 432 | 548 | 1090 | 1820 | 2310 | 4070 | 9180 |
| 2026-02-27 04:00 | 5.70 | 318 | 18300 (1945) | 110 (1963) | 1960 | 226 | 311 | 432 | 548 | 1090 | 1820 | 2310 | 4070 | 9180 |
| 2026-02-27 03:30 | 5.70 | 318 | 18300 (1945) | 110 (1963) | 1960 | 226 | 311 | 432 | 548 | 1090 | 1820 | 2310 | 4070 | 9180 |
| 2026-02-27 03:00 | 5.70 | 318 | 18300 (1945) | 110 (1963) | 1960 | 226 | 311 | 432 | 548 | 1090 | 1820 | 2310 | 4070 | 9180 |
| 2026-02-27 02:30 | 5.70 | 318 | 18300 (1945) | 110 (1963) | 1960 | 226 | 311 | 432 | 548 | 1090 | 1820 | 2310 | 4070 | 9180 |
| 2026-02-27 02:00 | 5.70 | 318 | 18300 (1945) | 110 (1963) | 1960 | 226 | 311 | 432 | 548 | 1090 | 1820 | 2310 | 4070 | 9180 |
| 2026-02-27 01:30 | 5.71 | 321 | 18300 (1945) | 110 (1963) | 1960 | 226 | 311 | 432 | 548 | 1090 | 1820 | 2310 | 4070 | 9180 |
| 2026-02-27 01:00 | 5.71 | 321 | 18300 (1945) | 110 (1963) | 1960 | 226 | 311 | 432 | 548 | 1090 | 1820 | 2310 | 4070 | 9180 |
| 2026-02-27 00:30 | 5.71 | 321 | 18300 (1945) | 110 (1963) | 1960 | 226 | 311 | 432 | 548 | 1090 | 1820 | 2310 | 4070 | 9180 |
| 2026-02-27 00:00 | 5.71 | 321 | 18300 (1945) | 110 (1963) | 1960 | 226 | 311 | 432 | 548 | 1090 | 1820 | 2310 | 4070 | 9180 |
| 2026-02-26 23:30 | 5.71 | 321 | 18300 (1945) | 110 (1963) | 1960 | 226 | 311 | 432 | 548 | 1090 | 1820 | 2310 | 4070 | 9180 |
| 2026-02-26 23:00 | 5.71 | 321 | 18300 (1945) | 110 (1963) | 1960 | 226 | 311 | 432 | 548 | 1090 | 1820 | 2310 | 4070 | 9180 |
| 2026-02-26 22:30 | 5.71 | 321 | 27000 (1945) | 112 (1963) | 2170 | 233 | 272 | 445 | 510 | 980 | 2130 | 2560 | 5810 | 9640 |
| 2026-02-26 22:00 | 5.71 | 321 | 27000 (1945) | 112 (1963) | 2170 | 233 | 272 | 445 | 510 | 980 | 2130 | 2560 | 5810 | 9640 |
| 2026-02-26 21:30 | 5.71 | 321 | 27000 (1945) | 112 (1963) | 2170 | 233 | 272 | 445 | 510 | 980 | 2130 | 2560 | 5810 | 9640 |
| 2026-02-26 21:00 | 5.71 | 321 | 27000 (1945) | 112 (1963) | 2170 | 233 | 272 | 445 | 510 | 980 | 2130 | 2560 | 5810 | 9640 |
| 2026-02-26 20:30 | 5.72 | 324 | 27000 (1945) | 112 (1963) | 2170 | 233 | 272 | 445 | 510 | 980 | 2130 | 2560 | 5810 | 9640 |
| 2026-02-26 20:00 | 5.72 | 324 | 27000 (1945) | 112 (1963) | 2170 | 233 | 272 | 445 | 510 | 980 | 2130 | 2560 | 5810 | 9640 |
| 2026-02-26 19:30 | 5.72 | 324 | 27000 (1945) | 112 (1963) | 2170 | 233 | 272 | 445 | 510 | 980 | 2130 | 2560 | 5810 | 9640 |
| 2026-02-26 19:00 | 5.72 | 324 | 27000 (1945) | 112 (1963) | 2170 | 233 | 272 | 445 | 510 | 980 | 2130 | 2560 | 5810 | 9640 |
| 2026-02-26 18:30 | 5.72 | 324 | 27000 (1945) | 112 (1963) | 2170 | 233 | 272 | 445 | 510 | 980 | 2130 | 2560 | 5810 | 9640 |
| 2026-02-26 18:00 | 5.72 | 324 | 27000 (1945) | 112 (1963) | 2170 | 233 | 272 | 445 | 510 | 980 | 2130 | 2560 | 5810 | 9640 |
| 2026-02-26 17:30 | 5.72 | 324 | 27000 (1945) | 112 (1963) | 2170 | 233 | 272 | 445 | 510 | 980 | 2130 | 2560 | 5810 | 9640 |
| 2026-02-26 17:00 | 5.73 | 327 | 27000 (1945) | 112 (1963) | 2170 | 233 | 272 | 445 | 510 | 980 | 2130 | 2560 | 5810 | 9640 |
| 2026-02-26 16:30 | 5.73 | 327 | 27000 (1945) | 112 (1963) | 2170 | 233 | 272 | 445 | 510 | 980 | 2130 | 2560 | 5810 | 9640 |
| 2026-02-26 16:00 | 5.73 | 327 | 27000 (1945) | 112 (1963) | 2170 | 233 | 272 | 445 | 510 | 980 | 2130 | 2560 | 5810 | 9640 |
| 2026-02-26 15:30 | 5.73 | 327 | 27000 (1945) | 112 (1963) | 2170 | 233 | 272 | 445 | 510 | 980 | 2130 | 2560 | 5810 | 9640 |
| 2026-02-26 15:00 | 5.73 | 327 | 27000 (1945) | 112 (1963) | 2170 | 233 | 272 | 445 | 510 | 980 | 2130 | 2560 | 5810 | 9640 |
| 2026-02-26 14:30 | 5.73 | 327 | 27000 (1945) | 112 (1963) | 2170 | 233 | 272 | 445 | 510 | 980 | 2130 | 2560 | 5810 | 9640 |
| 2026-02-26 14:00 | 5.73 | 327 | 27000 (1945) | 112 (1963) | 2170 | 233 | 272 | 445 | 510 | 980 | 2130 | 2560 | 5810 | 9640 |
| 2026-02-26 13:30 | 5.73 | 327 | 27000 (1945) | 112 (1963) | 2170 | 233 | 272 | 445 | 510 | 980 | 2130 | 2560 | 5810 | 9640 |
| 2026-02-26 13:00 | 5.73 | 327 | 27000 (1945) | 112 (1963) | 2170 | 233 | 272 | 445 | 510 | 980 | 2130 | 2560 | 5810 | 9640 |
| 2026-02-26 12:30 | 5.74 | 330 | 27000 (1945) | 112 (1963) | 2170 | 233 | 272 | 445 | 510 | 980 | 2130 | 2560 | 5810 | 9640 |
| 2026-02-26 12:00 | 5.74 | 330 | 27000 (1945) | 112 (1963) | 2170 | 233 | 272 | 445 | 510 | 980 | 2130 | 2560 | 5810 | 9640 |
| 2026-02-26 11:30 | 5.74 | 330 | 27000 (1945) | 112 (1963) | 2170 | 233 | 272 | 445 | 510 | 980 | 2130 | 2560 | 5810 | 9640 |
| 2026-02-26 11:00 | 5.74 | 330 | 27000 (1945) | 112 (1963) | 2170 | 233 | 272 | 445 | 510 | 980 | 2130 | 2560 | 5810 | 9640 |
| 2026-02-26 10:30 | 5.74 | 330 | 27000 (1945) | 112 (1963) | 2170 | 233 | 272 | 445 | 510 | 980 | 2130 | 2560 | 5810 | 9640 |
| 2026-02-26 10:00 | 5.74 | 330 | 27000 (1945) | 112 (1963) | 2170 | 233 | 272 | 445 | 510 | 980 | 2130 | 2560 | 5810 | 9640 |
| 2026-02-26 09:30 | 5.74 | 330 | 27000 (1945) | 112 (1963) | 2170 | 233 | 272 | 445 | 510 | 980 | 2130 | 2560 | 5810 | 9640 |
| 2026-02-26 09:00 | 5.74 | 330 | 27000 (1945) | 112 (1963) | 2170 | 233 | 272 | 445 | 510 | 980 | 2130 | 2560 | 5810 | 9640 |
| 2026-02-26 08:30 | 5.75 | 333 | 27000 (1945) | 112 (1963) | 2170 | 233 | 272 | 445 | 510 | 980 | 2130 | 2560 | 5810 | 9640 |
| 2026-02-26 08:00 | 5.75 | 333 | 27000 (1945) | 112 (1963) | 2170 | 233 | 272 | 445 | 510 | 980 | 2130 | 2560 | 5810 | 9640 |
| 2026-02-26 07:30 | 5.75 | 333 | 27000 (1945) | 112 (1963) | 2170 | 233 | 272 | 445 | 510 | 980 | 2130 | 2560 | 5810 | 9640 |
| 2026-02-26 07:00 | 5.75 | 333 | 27000 (1945) | 112 (1963) | 2170 | 233 | 272 | 445 | 510 | 980 | 2130 | 2560 | 5810 | 9640 |
| 2026-02-26 06:30 | 5.75 | 333 | 27000 (1945) | 112 (1963) | 2170 | 233 | 272 | 445 | 510 | 980 | 2130 | 2560 | 5810 | 9640 |
| 2026-02-26 06:00 | 5.75 | 333 | 27000 (1945) | 112 (1963) | 2170 | 233 | 272 | 445 | 510 | 980 | 2130 | 2560 | 5810 | 9640 |
| 2026-02-26 05:30 | 5.75 | 333 | 27000 (1945) | 112 (1963) | 2170 | 233 | 272 | 445 | 510 | 980 | 2130 | 2560 | 5810 | 9640 |
| 2026-02-26 05:00 | 5.75 | 333 | 27000 (1945) | 112 (1963) | 2170 | 233 | 272 | 445 | 510 | 980 | 2130 | 2560 | 5810 | 9640 |
| 2026-02-26 04:30 | 5.75 | 333 | 27000 (1945) | 112 (1963) | 2170 | 233 | 272 | 445 | 510 | 980 | 2130 | 2560 | 5810 | 9640 |
| 2026-02-26 04:00 | 5.75 | 333 | 27000 (1945) | 112 (1963) | 2170 | 233 | 272 | 445 | 510 | 980 | 2130 | 2560 | 5810 | 9640 |
| 2026-02-26 03:30 | 5.75 | 333 | 27000 (1945) | 112 (1963) | 2170 | 233 | 272 | 445 | 510 | 980 | 2130 | 2560 | 5810 | 9640 |
| 2026-02-26 03:00 | 5.76 | 336 | 27000 (1945) | 112 (1963) | 2170 | 233 | 272 | 445 | 510 | 980 | 2130 | 2560 | 5810 | 9640 |
| 2026-02-26 02:30 | 5.76 | 336 | 27000 (1945) | 112 (1963) | 2170 | 233 | 272 | 445 | 510 | 980 | 2130 | 2560 | 5810 | 9640 |
| 2026-02-26 02:00 | 5.76 | 336 | 27000 (1945) | 112 (1963) | 2170 | 233 | 272 | 445 | 510 | 980 | 2130 | 2560 | 5810 | 9640 |
| 2026-02-26 01:30 | 5.76 | 336 | 27000 (1945) | 112 (1963) | 2170 | 233 | 272 | 445 | 510 | 980 | 2130 | 2560 | 5810 | 9640 |
| 2026-02-26 01:00 | 5.76 | 336 | 27000 (1945) | 112 (1963) | 2170 | 233 | 272 | 445 | 510 | 980 | 2130 | 2560 | 5810 | 9640 |
| 2026-02-26 00:30 | 5.76 | 336 | 27000 (1945) | 112 (1963) | 2170 | 233 | 272 | 445 | 510 | 980 | 2130 | 2560 | 5810 | 9640 |
| 2026-02-26 00:00 | 5.76 | 336 | 27000 (1945) | 112 (1963) | 2170 | 233 | 272 | 445 | 510 | 980 | 2130 | 2560 | 5810 | 9640 |
| 2026-02-25 23:30 | 5.76 | 336 | 27000 (1945) | 112 (1963) | 2170 | 233 | 272 | 445 | 510 | 980 | 2130 | 2560 | 5810 | 9640 |
| 2026-02-25 23:00 | 5.77 | 339 | 27000 (1945) | 112 (1963) | 2170 | 233 | 272 | 445 | 510 | 980 | 2130 | 2560 | 5810 | 9640 |
| 2026-02-25 22:30 | 5.77 | 339 | 28300 (2018) | 112 (1963) | 2070 | 244 | 287 | 434 | 500 | 965 | 1830 | 2290 | 4360 | 6950 |
| 2026-02-25 22:00 | 5.77 | 339 | 28300 (2018) | 112 (1963) | 2070 | 244 | 287 | 434 | 500 | 965 | 1830 | 2290 | 4360 | 6950 |
| 2026-02-25 21:30 | 5.77 | 339 | 28300 (2018) | 112 (1963) | 2070 | 244 | 287 | 434 | 500 | 965 | 1830 | 2290 | 4360 | 6950 |
| 2026-02-25 21:00 | 5.77 | 339 | 28300 (2018) | 112 (1963) | 2070 | 244 | 287 | 434 | 500 | 965 | 1830 | 2290 | 4360 | 6950 |
| 2026-02-25 20:30 | 5.77 | 339 | 28300 (2018) | 112 (1963) | 2070 | 244 | 287 | 434 | 500 | 965 | 1830 | 2290 | 4360 | 6950 |
| 2026-02-25 20:00 | 5.77 | 339 | 28300 (2018) | 112 (1963) | 2070 | 244 | 287 | 434 | 500 | 965 | 1830 | 2290 | 4360 | 6950 |
| 2026-02-25 19:30 | 5.77 | 339 | 28300 (2018) | 112 (1963) | 2070 | 244 | 287 | 434 | 500 | 965 | 1830 | 2290 | 4360 | 6950 |
| 2026-02-25 19:00 | 5.78 | 343 | 28300 (2018) | 112 (1963) | 2070 | 244 | 287 | 434 | 500 | 965 | 1830 | 2290 | 4360 | 6950 |
| 2026-02-25 18:30 | 5.78 | 343 | 28300 (2018) | 112 (1963) | 2070 | 244 | 287 | 434 | 500 | 965 | 1830 | 2290 | 4360 | 6950 |
| 2026-02-25 18:00 | 5.78 | 343 | 28300 (2018) | 112 (1963) | 2070 | 244 | 287 | 434 | 500 | 965 | 1830 | 2290 | 4360 | 6950 |
| 2026-02-25 17:30 | 5.78 | 343 | 28300 (2018) | 112 (1963) | 2070 | 244 | 287 | 434 | 500 | 965 | 1830 | 2290 | 4360 | 6950 |
| 2026-02-25 17:00 | 5.78 | 343 | 28300 (2018) | 112 (1963) | 2070 | 244 | 287 | 434 | 500 | 965 | 1830 | 2290 | 4360 | 6950 |
| 2026-02-25 16:30 | 5.78 | 343 | 28300 (2018) | 112 (1963) | 2070 | 244 | 287 | 434 | 500 | 965 | 1830 | 2290 | 4360 | 6950 |
| 2026-02-25 16:00 | 5.78 | 343 | 28300 (2018) | 112 (1963) | 2070 | 244 | 287 | 434 | 500 | 965 | 1830 | 2290 | 4360 | 6950 |
| 2026-02-25 15:30 | 5.78 | 343 | 28300 (2018) | 112 (1963) | 2070 | 244 | 287 | 434 | 500 | 965 | 1830 | 2290 | 4360 | 6950 |
| 2026-02-25 15:00 | 5.79 | 346 | 28300 (2018) | 112 (1963) | 2070 | 244 | 287 | 434 | 500 | 965 | 1830 | 2290 | 4360 | 6950 |
| 2026-02-25 14:30 | 5.79 | 346 | 28300 (2018) | 112 (1963) | 2070 | 244 | 287 | 434 | 500 | 965 | 1830 | 2290 | 4360 | 6950 |
| 2026-02-25 14:00 | 5.79 | 346 | 28300 (2018) | 112 (1963) | 2070 | 244 | 287 | 434 | 500 | 965 | 1830 | 2290 | 4360 | 6950 |
| 2026-02-25 13:30 | 5.79 | 346 | 28300 (2018) | 112 (1963) | 2070 | 244 | 287 | 434 | 500 | 965 | 1830 | 2290 | 4360 | 6950 |
| 2026-02-25 13:00 | 5.79 | 346 | 28300 (2018) | 112 (1963) | 2070 | 244 | 287 | 434 | 500 | 965 | 1830 | 2290 | 4360 | 6950 |
| 2026-02-25 12:30 | 5.79 | 346 | 28300 (2018) | 112 (1963) | 2070 | 244 | 287 | 434 | 500 | 965 | 1830 | 2290 | 4360 | 6950 |
| 2026-02-25 12:00 | 5.80 | 349 | 28300 (2018) | 112 (1963) | 2070 | 244 | 287 | 434 | 500 | 965 | 1830 | 2290 | 4360 | 6950 |
| 2026-02-25 11:30 | 5.80 | 349 | 28300 (2018) | 112 (1963) | 2070 | 244 | 287 | 434 | 500 | 965 | 1830 | 2290 | 4360 | 6950 |
| 2026-02-25 11:00 | 5.80 | 349 | 28300 (2018) | 112 (1963) | 2070 | 244 | 287 | 434 | 500 | 965 | 1830 | 2290 | 4360 | 6950 |
| 2026-02-25 10:30 | 5.80 | 349 | 28300 (2018) | 112 (1963) | 2070 | 244 | 287 | 434 | 500 | 965 | 1830 | 2290 | 4360 | 6950 |
| 2026-02-25 10:00 | 5.80 | 349 | 28300 (2018) | 112 (1963) | 2070 | 244 | 287 | 434 | 500 | 965 | 1830 | 2290 | 4360 | 6950 |
| 2026-02-25 09:30 | 5.81 | 352 | 28300 (2018) | 112 (1963) | 2070 | 244 | 287 | 434 | 500 | 965 | 1830 | 2290 | 4360 | 6950 |
| 2026-02-25 09:00 | 5.81 | 352 | 28300 (2018) | 112 (1963) | 2070 | 244 | 287 | 434 | 500 | 965 | 1830 | 2290 | 4360 | 6950 |
| 2026-02-25 08:30 | 5.81 | 352 | 28300 (2018) | 112 (1963) | 2070 | 244 | 287 | 434 | 500 | 965 | 1830 | 2290 | 4360 | 6950 |
| 2026-02-25 08:00 | 5.81 | 352 | 28300 (2018) | 112 (1963) | 2070 | 244 | 287 | 434 | 500 | 965 | 1830 | 2290 | 4360 | 6950 |
| 2026-02-25 07:30 | 5.81 | 352 | 28300 (2018) | 112 (1963) | 2070 | 244 | 287 | 434 | 500 | 965 | 1830 | 2290 | 4360 | 6950 |
| 2026-02-25 07:00 | 5.81 | 352 | 28300 (2018) | 112 (1963) | 2070 | 244 | 287 | 434 | 500 | 965 | 1830 | 2290 | 4360 | 6950 |
| 2026-02-25 06:30 | 5.81 | 352 | 28300 (2018) | 112 (1963) | 2070 | 244 | 287 | 434 | 500 | 965 | 1830 | 2290 | 4360 | 6950 |
| 2026-02-25 06:00 | 5.82 | 355 | 28300 (2018) | 112 (1963) | 2070 | 244 | 287 | 434 | 500 | 965 | 1830 | 2290 | 4360 | 6950 |
| 2026-02-25 05:30 | 5.82 | 355 | 28300 (2018) | 112 (1963) | 2070 | 244 | 287 | 434 | 500 | 965 | 1830 | 2290 | 4360 | 6950 |
| 2026-02-25 05:00 | 5.82 | 355 | 28300 (2018) | 112 (1963) | 2070 | 244 | 287 | 434 | 500 | 965 | 1830 | 2290 | 4360 | 6950 |
| 2026-02-25 04:30 | 5.82 | 355 | 28300 (2018) | 112 (1963) | 2070 | 244 | 287 | 434 | 500 | 965 | 1830 | 2290 | 4360 | 6950 |
| 2026-02-25 04:00 | 5.82 | 355 | 28300 (2018) | 112 (1963) | 2070 | 244 | 287 | 434 | 500 | 965 | 1830 | 2290 | 4360 | 6950 |
| 2026-02-25 03:30 | 5.82 | 355 | 28300 (2018) | 112 (1963) | 2070 | 244 | 287 | 434 | 500 | 965 | 1830 | 2290 | 4360 | 6950 |
| 2026-02-25 03:00 | 5.83 | 358 | 28300 (2018) | 112 (1963) | 2070 | 244 | 287 | 434 | 500 | 965 | 1830 | 2290 | 4360 | 6950 |
| 2026-02-25 02:30 | 5.83 | 358 | 28300 (2018) | 112 (1963) | 2070 | 244 | 287 | 434 | 500 | 965 | 1830 | 2290 | 4360 | 6950 |
| 2026-02-25 02:00 | 5.83 | 358 | 28300 (2018) | 112 (1963) | 2070 | 244 | 287 | 434 | 500 | 965 | 1830 | 2290 | 4360 | 6950 |
| 2026-02-25 01:30 | 5.83 | 358 | 28300 (2018) | 112 (1963) | 2070 | 244 | 287 | 434 | 500 | 965 | 1830 | 2290 | 4360 | 6950 |
| 2026-02-25 01:00 | 5.83 | 358 | 28300 (2018) | 112 (1963) | 2070 | 244 | 287 | 434 | 500 | 965 | 1830 | 2290 | 4360 | 6950 |
| 2026-02-25 00:30 | 5.83 | 358 | 28300 (2018) | 112 (1963) | 2070 | 244 | 287 | 434 | 500 | 965 | 1830 | 2290 | 4360 | 6950 |
| 2026-02-25 00:00 | 5.84 | 362 | 28300 (2018) | 112 (1963) | 2070 | 244 | 287 | 434 | 500 | 965 | 1830 | 2290 | 4360 | 6950 |
| 2026-02-24 23:30 | 5.84 | 362 | 28300 (2018) | 112 (1963) | 2070 | 244 | 287 | 434 | 500 | 965 | 1830 | 2290 | 4360 | 6950 |
| 2026-02-24 23:00 | 5.84 | 362 | 28300 (2018) | 112 (1963) | 2070 | 244 | 287 | 434 | 500 | 965 | 1830 | 2290 | 4360 | 6950 |
| 2026-02-24 22:30 | 5.84 | 362 | 34900 (1985) | 114 (1963) | 2060 | 251 | 307 | 441 | 502 | 1000 | 1780 | 2100 | 3930 | 9740 |
| 2026-02-24 22:00 | 5.84 | 362 | 34900 (1985) | 114 (1963) | 2060 | 251 | 307 | 441 | 502 | 1000 | 1780 | 2100 | 3930 | 9740 |
| 2026-02-24 21:30 | 5.84 | 362 | 34900 (1985) | 114 (1963) | 2060 | 251 | 307 | 441 | 502 | 1000 | 1780 | 2100 | 3930 | 9740 |
| 2026-02-24 21:00 | 5.84 | 362 | 34900 (1985) | 114 (1963) | 2060 | 251 | 307 | 441 | 502 | 1000 | 1780 | 2100 | 3930 | 9740 |
| 2026-02-24 20:30 | 5.84 | 362 | 34900 (1985) | 114 (1963) | 2060 | 251 | 307 | 441 | 502 | 1000 | 1780 | 2100 | 3930 | 9740 |
| 2026-02-24 20:00 | 5.85 | 365 | 34900 (1985) | 114 (1963) | 2060 | 251 | 307 | 441 | 502 | 1000 | 1780 | 2100 | 3930 | 9740 |
| 2026-02-24 19:30 | 5.85 | 365 | 34900 (1985) | 114 (1963) | 2060 | 251 | 307 | 441 | 502 | 1000 | 1780 | 2100 | 3930 | 9740 |
| 2026-02-24 19:00 | 5.85 | 365 | 34900 (1985) | 114 (1963) | 2060 | 251 | 307 | 441 | 502 | 1000 | 1780 | 2100 | 3930 | 9740 |
| 2026-02-24 18:30 | 5.85 | 365 | 34900 (1985) | 114 (1963) | 2060 | 251 | 307 | 441 | 502 | 1000 | 1780 | 2100 | 3930 | 9740 |
| 2026-02-24 18:00 | 5.84 | 362 | 34900 (1985) | 114 (1963) | 2060 | 251 | 307 | 441 | 502 | 1000 | 1780 | 2100 | 3930 | 9740 |
| 2026-02-24 17:30 | 5.85 | 365 | 34900 (1985) | 114 (1963) | 2060 | 251 | 307 | 441 | 502 | 1000 | 1780 | 2100 | 3930 | 9740 |
| 2026-02-24 17:00 | 5.84 | 362 | 34900 (1985) | 114 (1963) | 2060 | 251 | 307 | 441 | 502 | 1000 | 1780 | 2100 | 3930 | 9740 |
| 2026-02-24 16:30 | 5.83 | 358 | 34900 (1985) | 114 (1963) | 2060 | 251 | 307 | 441 | 502 | 1000 | 1780 | 2100 | 3930 | 9740 |
| 2026-02-24 16:00 | 5.83 | 358 | 34900 (1985) | 114 (1963) | 2060 | 251 | 307 | 441 | 502 | 1000 | 1780 | 2100 | 3930 | 9740 |
| 2026-02-24 15:30 | 5.86 | 368 | 34900 (1985) | 114 (1963) | 2060 | 251 | 307 | 441 | 502 | 1000 | 1780 | 2100 | 3930 | 9740 |
| 2026-02-24 15:00 | 5.82 | 355 | 34900 (1985) | 114 (1963) | 2060 | 251 | 307 | 441 | 502 | 1000 | 1780 | 2100 | 3930 | 9740 |
| 2026-02-24 14:30 | 5.84 | 362 | 34900 (1985) | 114 (1963) | 2060 | 251 | 307 | 441 | 502 | 1000 | 1780 | 2100 | 3930 | 9740 |
| 2026-02-24 14:00 | 5.85 | 365 | 34900 (1985) | 114 (1963) | 2060 | 251 | 307 | 441 | 502 | 1000 | 1780 | 2100 | 3930 | 9740 |
| 2026-02-24 13:30 | 5.84 | 362 | 34900 (1985) | 114 (1963) | 2060 | 251 | 307 | 441 | 502 | 1000 | 1780 | 2100 | 3930 | 9740 |
| 2026-02-24 13:00 | 5.84 | 362 | 34900 (1985) | 114 (1963) | 2060 | 251 | 307 | 441 | 502 | 1000 | 1780 | 2100 | 3930 | 9740 |
| 2026-02-24 12:30 | 5.82 | 355 | 34900 (1985) | 114 (1963) | 2060 | 251 | 307 | 441 | 502 | 1000 | 1780 | 2100 | 3930 | 9740 |
| 2026-02-24 12:00 | 5.83 | 358 | 34900 (1985) | 114 (1963) | 2060 | 251 | 307 | 441 | 502 | 1000 | 1780 | 2100 | 3930 | 9740 |
| 2026-02-24 11:30 | 5.84 | 362 | 34900 (1985) | 114 (1963) | 2060 | 251 | 307 | 441 | 502 | 1000 | 1780 | 2100 | 3930 | 9740 |
| 2026-02-24 11:00 | 5.84 | 362 | 34900 (1985) | 114 (1963) | 2060 | 251 | 307 | 441 | 502 | 1000 | 1780 | 2100 | 3930 | 9740 |
| 2026-02-24 10:30 | 5.84 | 362 | 34900 (1985) | 114 (1963) | 2060 | 251 | 307 | 441 | 502 | 1000 | 1780 | 2100 | 3930 | 9740 |
| 2026-02-24 10:00 | 5.83 | 358 | 34900 (1985) | 114 (1963) | 2060 | 251 | 307 | 441 | 502 | 1000 | 1780 | 2100 | 3930 | 9740 |
| 2026-02-24 09:30 | 5.84 | 362 | 34900 (1985) | 114 (1963) | 2060 | 251 | 307 | 441 | 502 | 1000 | 1780 | 2100 | 3930 | 9740 |
| 2026-02-24 09:00 | 5.86 | 368 | 34900 (1985) | 114 (1963) | 2060 | 251 | 307 | 441 | 502 | 1000 | 1780 | 2100 | 3930 | 9740 |
| 2026-02-24 08:30 | 5.89 | 378 | 34900 (1985) | 114 (1963) | 2060 | 251 | 307 | 441 | 502 | 1000 | 1780 | 2100 | 3930 | 9740 |
| 2026-02-24 08:00 | 5.90 | 381 | 34900 (1985) | 114 (1963) | 2060 | 251 | 307 | 441 | 502 | 1000 | 1780 | 2100 | 3930 | 9740 |
| 2026-02-24 07:30 | 5.90 | 381 | 34900 (1985) | 114 (1963) | 2060 | 251 | 307 | 441 | 502 | 1000 | 1780 | 2100 | 3930 | 9740 |
| 2026-02-24 07:00 | 5.90 | 381 | 34900 (1985) | 114 (1963) | 2060 | 251 | 307 | 441 | 502 | 1000 | 1780 | 2100 | 3930 | 9740 |
| 2026-02-24 06:30 | 5.90 | 381 | 34900 (1985) | 114 (1963) | 2060 | 251 | 307 | 441 | 502 | 1000 | 1780 | 2100 | 3930 | 9740 |
| 2026-02-24 06:00 | 5.90 | 381 | 34900 (1985) | 114 (1963) | 2060 | 251 | 307 | 441 | 502 | 1000 | 1780 | 2100 | 3930 | 9740 |
| 2026-02-24 05:30 | 5.91 | 385 | 34900 (1985) | 114 (1963) | 2060 | 251 | 307 | 441 | 502 | 1000 | 1780 | 2100 | 3930 | 9740 |
| 2026-02-24 05:00 | 5.91 | 385 | 34900 (1985) | 114 (1963) | 2060 | 251 | 307 | 441 | 502 | 1000 | 1780 | 2100 | 3930 | 9740 |
| 2026-02-24 04:30 | 5.91 | 385 | 34900 (1985) | 114 (1963) | 2060 | 251 | 307 | 441 | 502 | 1000 | 1780 | 2100 | 3930 | 9740 |
| 2026-02-24 04:00 | 5.91 | 385 | 34900 (1985) | 114 (1963) | 2060 | 251 | 307 | 441 | 502 | 1000 | 1780 | 2100 | 3930 | 9740 |
| 2026-02-24 03:30 | 5.91 | 385 | 34900 (1985) | 114 (1963) | 2060 | 251 | 307 | 441 | 502 | 1000 | 1780 | 2100 | 3930 | 9740 |
| 2026-02-24 03:00 | 5.92 | 388 | 34900 (1985) | 114 (1963) | 2060 | 251 | 307 | 441 | 502 | 1000 | 1780 | 2100 | 3930 | 9740 |
| 2026-02-24 02:30 | 5.92 | 388 | 34900 (1985) | 114 (1963) | 2060 | 251 | 307 | 441 | 502 | 1000 | 1780 | 2100 | 3930 | 9740 |
| 2026-02-24 02:00 | 5.92 | 388 | 34900 (1985) | 114 (1963) | 2060 | 251 | 307 | 441 | 502 | 1000 | 1780 | 2100 | 3930 | 9740 |
| 2026-02-24 01:30 | 5.92 | 388 | 34900 (1985) | 114 (1963) | 2060 | 251 | 307 | 441 | 502 | 1000 | 1780 | 2100 | 3930 | 9740 |
| 2026-02-24 01:00 | 5.92 | 388 | 34900 (1985) | 114 (1963) | 2060 | 251 | 307 | 441 | 502 | 1000 | 1780 | 2100 | 3930 | 9740 |
| 2026-02-24 00:30 | 5.93 | 392 | 34900 (1985) | 114 (1963) | 2060 | 251 | 307 | 441 | 502 | 1000 | 1780 | 2100 | 3930 | 9740 |
| 2026-02-24 00:00 | 5.93 | 392 | 34900 (1985) | 114 (1963) | 2060 | 251 | 307 | 441 | 502 | 1000 | 1780 | 2100 | 3930 | 9740 |
| 2026-02-23 23:30 | 5.93 | 392 | 34900 (1985) | 114 (1963) | 2060 | 251 | 307 | 441 | 502 | 1000 | 1780 | 2100 | 3930 | 9740 |
| 2026-02-23 23:00 | 5.93 | 392 | 34900 (1985) | 114 (1963) | 2060 | 251 | 307 | 441 | 502 | 1000 | 1780 | 2100 | 3930 | 9740 |
| 2026-02-23 22:30 | 5.93 | 392 | 25000 (1975) | 114 (1963) | 2080 | 254 | 312 | 445 | 480 | 912 | 1980 | 2230 | 4670 | 9800 |
| 2026-02-23 22:00 | 5.94 | 395 | 25000 (1975) | 114 (1963) | 2080 | 254 | 312 | 445 | 480 | 912 | 1980 | 2230 | 4670 | 9800 |
| 2026-02-23 21:30 | 5.94 | 395 | 25000 (1975) | 114 (1963) | 2080 | 254 | 312 | 445 | 480 | 912 | 1980 | 2230 | 4670 | 9800 |
| 2026-02-23 21:00 | 5.94 | 395 | 25000 (1975) | 114 (1963) | 2080 | 254 | 312 | 445 | 480 | 912 | 1980 | 2230 | 4670 | 9800 |
| 2026-02-23 20:30 | 5.94 | 395 | 25000 (1975) | 114 (1963) | 2080 | 254 | 312 | 445 | 480 | 912 | 1980 | 2230 | 4670 | 9800 |
| 2026-02-23 20:00 | 5.94 | 395 | 25000 (1975) | 114 (1963) | 2080 | 254 | 312 | 445 | 480 | 912 | 1980 | 2230 | 4670 | 9800 |
| 2026-02-23 19:30 | 5.95 | 398 | 25000 (1975) | 114 (1963) | 2080 | 254 | 312 | 445 | 480 | 912 | 1980 | 2230 | 4670 | 9800 |
| 2026-02-23 19:00 | 5.95 | 398 | 25000 (1975) | 114 (1963) | 2080 | 254 | 312 | 445 | 480 | 912 | 1980 | 2230 | 4670 | 9800 |
| 2026-02-23 18:30 | 5.95 | 398 | 25000 (1975) | 114 (1963) | 2080 | 254 | 312 | 445 | 480 | 912 | 1980 | 2230 | 4670 | 9800 |
| 2026-02-23 18:00 | 5.95 | 398 | 25000 (1975) | 114 (1963) | 2080 | 254 | 312 | 445 | 480 | 912 | 1980 | 2230 | 4670 | 9800 |
| 2026-02-23 17:30 | 5.96 | 402 | 25000 (1975) | 114 (1963) | 2080 | 254 | 312 | 445 | 480 | 912 | 1980 | 2230 | 4670 | 9800 |
| 2026-02-23 17:00 | 5.96 | 402 | 25000 (1975) | 114 (1963) | 2080 | 254 | 312 | 445 | 480 | 912 | 1980 | 2230 | 4670 | 9800 |
| 2026-02-23 16:30 | 5.96 | 402 | 25000 (1975) | 114 (1963) | 2080 | 254 | 312 | 445 | 480 | 912 | 1980 | 2230 | 4670 | 9800 |
| 2026-02-23 16:00 | 5.95 | 398 | 25000 (1975) | 114 (1963) | 2080 | 254 | 312 | 445 | 480 | 912 | 1980 | 2230 | 4670 | 9800 |
| 2026-02-23 15:30 | 5.97 | 405 | 25000 (1975) | 114 (1963) | 2080 | 254 | 312 | 445 | 480 | 912 | 1980 | 2230 | 4670 | 9800 |
| 2026-02-23 15:00 | 5.97 | 405 | 25000 (1975) | 114 (1963) | 2080 | 254 | 312 | 445 | 480 | 912 | 1980 | 2230 | 4670 | 9800 |
| 2026-02-23 14:30 | 5.97 | 405 | 25000 (1975) | 114 (1963) | 2080 | 254 | 312 | 445 | 480 | 912 | 1980 | 2230 | 4670 | 9800 |
| 2026-02-23 14:00 | 5.97 | 405 | 25000 (1975) | 114 (1963) | 2080 | 254 | 312 | 445 | 480 | 912 | 1980 | 2230 | 4670 | 9800 |
| 2026-02-23 13:30 | 5.98 | 409 | 25000 (1975) | 114 (1963) | 2080 | 254 | 312 | 445 | 480 | 912 | 1980 | 2230 | 4670 | 9800 |
| 2026-02-23 13:00 | 5.94 | 395 | 25000 (1975) | 114 (1963) | 2080 | 254 | 312 | 445 | 480 | 912 | 1980 | 2230 | 4670 | 9800 |
| 2026-02-23 12:30 | 5.94 | 395 | 25000 (1975) | 114 (1963) | 2080 | 254 | 312 | 445 | 480 | 912 | 1980 | 2230 | 4670 | 9800 |
| 2026-02-23 12:00 | 5.98 | 409 | 25000 (1975) | 114 (1963) | 2080 | 254 | 312 | 445 | 480 | 912 | 1980 | 2230 | 4670 | 9800 |
| 2026-02-23 11:30 | 5.95 | 398 | 25000 (1975) | 114 (1963) | 2080 | 254 | 312 | 445 | 480 | 912 | 1980 | 2230 | 4670 | 9800 |
| 2026-02-23 11:00 | 5.97 | 405 | 25000 (1975) | 114 (1963) | 2080 | 254 | 312 | 445 | 480 | 912 | 1980 | 2230 | 4670 | 9800 |
| 2026-02-23 10:30 | 5.94 | 395 | 25000 (1975) | 114 (1963) | 2080 | 254 | 312 | 445 | 480 | 912 | 1980 | 2230 | 4670 | 9800 |
| 2026-02-23 10:00 | 5.96 | 402 | 25000 (1975) | 114 (1963) | 2080 | 254 | 312 | 445 | 480 | 912 | 1980 | 2230 | 4670 | 9800 |
| 2026-02-23 09:30 | 5.99 | 412 | 25000 (1975) | 114 (1963) | 2080 | 254 | 312 | 445 | 480 | 912 | 1980 | 2230 | 4670 | 9800 |
| 2026-02-23 09:00 | 5.95 | 398 | 25000 (1975) | 114 (1963) | 2080 | 254 | 312 | 445 | 480 | 912 | 1980 | 2230 | 4670 | 9800 |
| 2026-02-23 08:30 | 5.99 | 412 | 25000 (1975) | 114 (1963) | 2080 | 254 | 312 | 445 | 480 | 912 | 1980 | 2230 | 4670 | 9800 |
| 2026-02-23 08:00 | 5.97 | 405 | 25000 (1975) | 114 (1963) | 2080 | 254 | 312 | 445 | 480 | 912 | 1980 | 2230 | 4670 | 9800 |
| 2026-02-23 07:30 | 5.98 | 409 | 25000 (1975) | 114 (1963) | 2080 | 254 | 312 | 445 | 480 | 912 | 1980 | 2230 | 4670 | 9800 |
| 2026-02-23 07:00 | 5.97 | 405 | 25000 (1975) | 114 (1963) | 2080 | 254 | 312 | 445 | 480 | 912 | 1980 | 2230 | 4670 | 9800 |
| 2026-02-23 06:30 | 6.02 | 423 | 25000 (1975) | 114 (1963) | 2080 | 254 | 312 | 445 | 480 | 912 | 1980 | 2230 | 4670 | 9800 |
| 2026-02-23 06:00 | 6.02 | 423 | 25000 (1975) | 114 (1963) | 2080 | 254 | 312 | 445 | 480 | 912 | 1980 | 2230 | 4670 | 9800 |
| 2026-02-23 05:30 | 5.97 | 405 | 25000 (1975) | 114 (1963) | 2080 | 254 | 312 | 445 | 480 | 912 | 1980 | 2230 | 4670 | 9800 |
| 2026-02-23 05:00 | 6.02 | 423 | 25000 (1975) | 114 (1963) | 2080 | 254 | 312 | 445 | 480 | 912 | 1980 | 2230 | 4670 | 9800 |
| 2026-02-23 04:30 | 5.99 | 412 | 25000 (1975) | 114 (1963) | 2080 | 254 | 312 | 445 | 480 | 912 | 1980 | 2230 | 4670 | 9800 |
| 2026-02-23 04:00 | 6.00 | 416 | 25000 (1975) | 114 (1963) | 2080 | 254 | 312 | 445 | 480 | 912 | 1980 | 2230 | 4670 | 9800 |
| 2026-02-23 03:30 | 6.03 | 426 | 25000 (1975) | 114 (1963) | 2080 | 254 | 312 | 445 | 480 | 912 | 1980 | 2230 | 4670 | 9800 |
| 2026-02-23 03:00 | 6.00 | 416 | 25000 (1975) | 114 (1963) | 2080 | 254 | 312 | 445 | 480 | 912 | 1980 | 2230 | 4670 | 9800 |
| 2026-02-23 02:30 | 6.00 | 416 | 25000 (1975) | 114 (1963) | 2080 | 254 | 312 | 445 | 480 | 912 | 1980 | 2230 | 4670 | 9800 |
| 2026-02-23 02:00 | 5.99 | 412 | 25000 (1975) | 114 (1963) | 2080 | 254 | 312 | 445 | 480 | 912 | 1980 | 2230 | 4670 | 9800 |
| 2026-02-23 01:30 | 6.00 | 416 | 25000 (1975) | 114 (1963) | 2080 | 254 | 312 | 445 | 480 | 912 | 1980 | 2230 | 4670 | 9800 |
| 2026-02-23 01:00 | 6.01 | 419 | 25000 (1975) | 114 (1963) | 2080 | 254 | 312 | 445 | 480 | 912 | 1980 | 2230 | 4670 | 9800 |
| 2026-02-23 00:30 | 6.01 | 419 | 25000 (1975) | 114 (1963) | 2080 | 254 | 312 | 445 | 480 | 912 | 1980 | 2230 | 4670 | 9800 |
| 2026-02-23 00:00 | 6.04 | 430 | 25000 (1975) | 114 (1963) | 2080 | 254 | 312 | 445 | 480 | 912 | 1980 | 2230 | 4670 | 9800 |
| 2026-02-22 23:30 | 6.05 | 434 | 25000 (1975) | 114 (1963) | 2080 | 254 | 312 | 445 | 480 | 912 | 1980 | 2230 | 4670 | 9800 |
| 2026-02-22 23:00 | 6.05 | 434 | 25000 (1975) | 114 (1963) | 2080 | 254 | 312 | 445 | 480 | 912 | 1980 | 2230 | 4670 | 9800 |
| 2026-02-22 22:30 | 6.06 | 437 | 17400 (2018) | 116 (1963) | 1760 | 237 | 316 | 416 | 530 | 900 | 1690 | 2130 | 3340 | 6000 |
| 2026-02-22 22:00 | 6.06 | 437 | 17400 (2018) | 116 (1963) | 1760 | 237 | 316 | 416 | 530 | 900 | 1690 | 2130 | 3340 | 6000 |
| 2026-02-22 21:30 | 6.06 | 437 | 17400 (2018) | 116 (1963) | 1760 | 237 | 316 | 416 | 530 | 900 | 1690 | 2130 | 3340 | 6000 |
| 2026-02-22 21:00 | 6.06 | 437 | 17400 (2018) | 116 (1963) | 1760 | 237 | 316 | 416 | 530 | 900 | 1690 | 2130 | 3340 | 6000 |
| 2026-02-22 20:30 | 6.07 | 441 | 17400 (2018) | 116 (1963) | 1760 | 237 | 316 | 416 | 530 | 900 | 1690 | 2130 | 3340 | 6000 |
| 2026-02-22 20:00 | 6.04 | 430 | 17400 (2018) | 116 (1963) | 1760 | 237 | 316 | 416 | 530 | 900 | 1690 | 2130 | 3340 | 6000 |
| 2026-02-22 19:30 | 6.03 | 426 | 17400 (2018) | 116 (1963) | 1760 | 237 | 316 | 416 | 530 | 900 | 1690 | 2130 | 3340 | 6000 |
| 2026-02-22 19:00 | 6.05 | 434 | 17400 (2018) | 116 (1963) | 1760 | 237 | 316 | 416 | 530 | 900 | 1690 | 2130 | 3340 | 6000 |
| 2026-02-22 18:30 | 6.05 | 434 | 17400 (2018) | 116 (1963) | 1760 | 237 | 316 | 416 | 530 | 900 | 1690 | 2130 | 3340 | 6000 |
| 2026-02-22 18:00 | 6.08 | 444 | 17400 (2018) | 116 (1963) | 1760 | 237 | 316 | 416 | 530 | 900 | 1690 | 2130 | 3340 | 6000 |
| 2026-02-22 17:30 | 6.04 | 430 | 17400 (2018) | 116 (1963) | 1760 | 237 | 316 | 416 | 530 | 900 | 1690 | 2130 | 3340 | 6000 |
| 2026-02-22 17:00 | 6.04 | 430 | 17400 (2018) | 116 (1963) | 1760 | 237 | 316 | 416 | 530 | 900 | 1690 | 2130 | 3340 | 6000 |
| 2026-02-22 16:30 | 6.05 | 434 | 17400 (2018) | 116 (1963) | 1760 | 237 | 316 | 416 | 530 | 900 | 1690 | 2130 | 3340 | 6000 |
| 2026-02-22 16:00 | 6.06 | 437 | 17400 (2018) | 116 (1963) | 1760 | 237 | 316 | 416 | 530 | 900 | 1690 | 2130 | 3340 | 6000 |
| 2026-02-22 15:30 | 6.06 | 437 | 17400 (2018) | 116 (1963) | 1760 | 237 | 316 | 416 | 530 | 900 | 1690 | 2130 | 3340 | 6000 |
| 2026-02-22 15:00 | 6.08 | 444 | 17400 (2018) | 116 (1963) | 1760 | 237 | 316 | 416 | 530 | 900 | 1690 | 2130 | 3340 | 6000 |
| 2026-02-22 14:30 | 6.05 | 434 | 17400 (2018) | 116 (1963) | 1760 | 237 | 316 | 416 | 530 | 900 | 1690 | 2130 | 3340 | 6000 |
| 2026-02-22 14:00 | 6.06 | 437 | 17400 (2018) | 116 (1963) | 1760 | 237 | 316 | 416 | 530 | 900 | 1690 | 2130 | 3340 | 6000 |
| 2026-02-22 13:30 | 6.06 | 437 | 17400 (2018) | 116 (1963) | 1760 | 237 | 316 | 416 | 530 | 900 | 1690 | 2130 | 3340 | 6000 |
| 2026-02-22 13:00 | 6.06 | 437 | 17400 (2018) | 116 (1963) | 1760 | 237 | 316 | 416 | 530 | 900 | 1690 | 2130 | 3340 | 6000 |
| 2026-02-22 12:30 | 6.07 | 441 | 17400 (2018) | 116 (1963) | 1760 | 237 | 316 | 416 | 530 | 900 | 1690 | 2130 | 3340 | 6000 |
| 2026-02-22 12:00 | 6.06 | 437 | 17400 (2018) | 116 (1963) | 1760 | 237 | 316 | 416 | 530 | 900 | 1690 | 2130 | 3340 | 6000 |
| 2026-02-22 11:30 | 6.06 | 437 | 17400 (2018) | 116 (1963) | 1760 | 237 | 316 | 416 | 530 | 900 | 1690 | 2130 | 3340 | 6000 |
| 2026-02-22 11:00 | 6.06 | 437 | 17400 (2018) | 116 (1963) | 1760 | 237 | 316 | 416 | 530 | 900 | 1690 | 2130 | 3340 | 6000 |
| 2026-02-22 10:30 | 6.08 | 444 | 17400 (2018) | 116 (1963) | 1760 | 237 | 316 | 416 | 530 | 900 | 1690 | 2130 | 3340 | 6000 |
| 2026-02-22 10:00 | 6.08 | 444 | 17400 (2018) | 116 (1963) | 1760 | 237 | 316 | 416 | 530 | 900 | 1690 | 2130 | 3340 | 6000 |
| 2026-02-22 09:30 | 6.06 | 437 | 17400 (2018) | 116 (1963) | 1760 | 237 | 316 | 416 | 530 | 900 | 1690 | 2130 | 3340 | 6000 |
| 2026-02-22 09:00 | 6.08 | 444 | 17400 (2018) | 116 (1963) | 1760 | 237 | 316 | 416 | 530 | 900 | 1690 | 2130 | 3340 | 6000 |
| 2026-02-22 08:30 | 6.09 | 448 | 17400 (2018) | 116 (1963) | 1760 | 237 | 316 | 416 | 530 | 900 | 1690 | 2130 | 3340 | 6000 |
| 2026-02-22 08:00 | 6.13 | 463 | 17400 (2018) | 116 (1963) | 1760 | 237 | 316 | 416 | 530 | 900 | 1690 | 2130 | 3340 | 6000 |
| 2026-02-22 07:30 | 6.14 | 467 | 17400 (2018) | 116 (1963) | 1760 | 237 | 316 | 416 | 530 | 900 | 1690 | 2130 | 3340 | 6000 |
| 2026-02-22 07:00 | 6.14 | 467 | 17400 (2018) | 116 (1963) | 1760 | 237 | 316 | 416 | 530 | 900 | 1690 | 2130 | 3340 | 6000 |
| 2026-02-22 06:30 | 6.15 | 470 | 17400 (2018) | 116 (1963) | 1760 | 237 | 316 | 416 | 530 | 900 | 1690 | 2130 | 3340 | 6000 |
| 2026-02-22 06:00 | 6.15 | 470 | 17400 (2018) | 116 (1963) | 1760 | 237 | 316 | 416 | 530 | 900 | 1690 | 2130 | 3340 | 6000 |
| 2026-02-22 05:30 | 6.16 | 474 | 17400 (2018) | 116 (1963) | 1760 | 237 | 316 | 416 | 530 | 900 | 1690 | 2130 | 3340 | 6000 |
| 2026-02-22 05:00 | 6.16 | 474 | 17400 (2018) | 116 (1963) | 1760 | 237 | 316 | 416 | 530 | 900 | 1690 | 2130 | 3340 | 6000 |
| 2026-02-22 04:30 | 6.16 | 474 | 17400 (2018) | 116 (1963) | 1760 | 237 | 316 | 416 | 530 | 900 | 1690 | 2130 | 3340 | 6000 |
| 2026-02-22 04:00 | 6.13 | 463 | 17400 (2018) | 116 (1963) | 1760 | 237 | 316 | 416 | 530 | 900 | 1690 | 2130 | 3340 | 6000 |
| 2026-02-22 03:30 | 6.14 | 467 | 17400 (2018) | 116 (1963) | 1760 | 237 | 316 | 416 | 530 | 900 | 1690 | 2130 | 3340 | 6000 |
| 2026-02-22 03:00 | 6.14 | 467 | 17400 (2018) | 116 (1963) | 1760 | 237 | 316 | 416 | 530 | 900 | 1690 | 2130 | 3340 | 6000 |
| 2026-02-22 02:30 | 6.15 | 470 | 17400 (2018) | 116 (1963) | 1760 | 237 | 316 | 416 | 530 | 900 | 1690 | 2130 | 3340 | 6000 |
| 2026-02-22 02:00 | 6.15 | 470 | 17400 (2018) | 116 (1963) | 1760 | 237 | 316 | 416 | 530 | 900 | 1690 | 2130 | 3340 | 6000 |
| 2026-02-22 01:30 | 6.18 | 482 | 17400 (2018) | 116 (1963) | 1760 | 237 | 316 | 416 | 530 | 900 | 1690 | 2130 | 3340 | 6000 |
| 2026-02-22 01:00 | 6.18 | 482 | 17400 (2018) | 116 (1963) | 1760 | 237 | 316 | 416 | 530 | 900 | 1690 | 2130 | 3340 | 6000 |
| 2026-02-22 00:30 | 6.19 | 486 | 17400 (2018) | 116 (1963) | 1760 | 237 | 316 | 416 | 530 | 900 | 1690 | 2130 | 3340 | 6000 |
| 2026-02-22 00:00 | 6.19 | 486 | 17400 (2018) | 116 (1963) | 1760 | 237 | 316 | 416 | 530 | 900 | 1690 | 2130 | 3340 | 6000 |
| 2026-02-21 23:30 | 6.20 | 489 | 17400 (2018) | 116 (1963) | 1760 | 237 | 316 | 416 | 530 | 900 | 1690 | 2130 | 3340 | 6000 |
| 2026-02-21 23:00 | 6.20 | 489 | 17400 (2018) | 116 (1963) | 1760 | 237 | 316 | 416 | 530 | 900 | 1690 | 2130 | 3340 | 6000 |
| 2026-02-21 22:30 | 6.20 | 489 | 19300 (1951) | 118 (1934) | 1780 | 244 | 333 | 419 | 513 | 925 | 1420 | 1860 | 3710 | 8270 |
| 2026-02-21 22:00 | 6.20 | 489 | 19300 (1951) | 118 (1934) | 1780 | 244 | 333 | 419 | 513 | 925 | 1420 | 1860 | 3710 | 8270 |
| 2026-02-21 21:30 | 6.21 | 493 | 19300 (1951) | 118 (1934) | 1780 | 244 | 333 | 419 | 513 | 925 | 1420 | 1860 | 3710 | 8270 |
| 2026-02-21 21:00 | 6.21 | 493 | 19300 (1951) | 118 (1934) | 1780 | 244 | 333 | 419 | 513 | 925 | 1420 | 1860 | 3710 | 8270 |
| 2026-02-21 20:30 | 6.16 | 474 | 19300 (1951) | 118 (1934) | 1780 | 244 | 333 | 419 | 513 | 925 | 1420 | 1860 | 3710 | 8270 |
| 2026-02-21 20:00 | 6.18 | 482 | 19300 (1951) | 118 (1934) | 1780 | 244 | 333 | 419 | 513 | 925 | 1420 | 1860 | 3710 | 8270 |
| 2026-02-21 19:30 | 6.18 | 482 | 19300 (1951) | 118 (1934) | 1780 | 244 | 333 | 419 | 513 | 925 | 1420 | 1860 | 3710 | 8270 |
| 2026-02-21 19:00 | 6.22 | 497 | 19300 (1951) | 118 (1934) | 1780 | 244 | 333 | 419 | 513 | 925 | 1420 | 1860 | 3710 | 8270 |
| 2026-02-21 18:30 | 6.21 | 493 | 19300 (1951) | 118 (1934) | 1780 | 244 | 333 | 419 | 513 | 925 | 1420 | 1860 | 3710 | 8270 |
| 2026-02-21 18:00 | 6.23 | 501 | 19300 (1951) | 118 (1934) | 1780 | 244 | 333 | 419 | 513 | 925 | 1420 | 1860 | 3710 | 8270 |
| 2026-02-21 17:30 | 6.19 | 486 | 19300 (1951) | 118 (1934) | 1780 | 244 | 333 | 419 | 513 | 925 | 1420 | 1860 | 3710 | 8270 |
| 2026-02-21 17:00 | 6.20 | 489 | 19300 (1951) | 118 (1934) | 1780 | 244 | 333 | 419 | 513 | 925 | 1420 | 1860 | 3710 | 8270 |
| 2026-02-21 16:30 | 6.25 | 509 | 19300 (1951) | 118 (1934) | 1780 | 244 | 333 | 419 | 513 | 925 | 1420 | 1860 | 3710 | 8270 |
| 2026-02-21 16:00 | 6.23 | 501 | 19300 (1951) | 118 (1934) | 1780 | 244 | 333 | 419 | 513 | 925 | 1420 | 1860 | 3710 | 8270 |
| 2026-02-21 15:30 | 6.25 | 509 | 19300 (1951) | 118 (1934) | 1780 | 244 | 333 | 419 | 513 | 925 | 1420 | 1860 | 3710 | 8270 |
| 2026-02-21 15:00 | 6.26 | 513 | 19300 (1951) | 118 (1934) | 1780 | 244 | 333 | 419 | 513 | 925 | 1420 | 1860 | 3710 | 8270 |
| 2026-02-21 14:30 | 6.26 | 513 | 19300 (1951) | 118 (1934) | 1780 | 244 | 333 | 419 | 513 | 925 | 1420 | 1860 | 3710 | 8270 |
| 2026-02-21 14:00 | 6.27 | 517 | 19300 (1951) | 118 (1934) | 1780 | 244 | 333 | 419 | 513 | 925 | 1420 | 1860 | 3710 | 8270 |
| 2026-02-21 13:30 | 6.27 | 517 | 19300 (1951) | 118 (1934) | 1780 | 244 | 333 | 419 | 513 | 925 | 1420 | 1860 | 3710 | 8270 |
| 2026-02-21 13:00 | 6.27 | 517 | 19300 (1951) | 118 (1934) | 1780 | 244 | 333 | 419 | 513 | 925 | 1420 | 1860 | 3710 | 8270 |
| 2026-02-21 12:30 | 6.27 | 517 | 19300 (1951) | 118 (1934) | 1780 | 244 | 333 | 419 | 513 | 925 | 1420 | 1860 | 3710 | 8270 |
| 2026-02-21 12:00 | 6.27 | 517 | 19300 (1951) | 118 (1934) | 1780 | 244 | 333 | 419 | 513 | 925 | 1420 | 1860 | 3710 | 8270 |
| 2026-02-21 11:30 | 6.28 | 521 | 19300 (1951) | 118 (1934) | 1780 | 244 | 333 | 419 | 513 | 925 | 1420 | 1860 | 3710 | 8270 |
| 2026-02-21 11:00 | 6.28 | 521 | 19300 (1951) | 118 (1934) | 1780 | 244 | 333 | 419 | 513 | 925 | 1420 | 1860 | 3710 | 8270 |
| 2026-02-21 10:30 | 6.29 | 525 | 19300 (1951) | 118 (1934) | 1780 | 244 | 333 | 419 | 513 | 925 | 1420 | 1860 | 3710 | 8270 |
| 2026-02-21 10:00 | 6.28 | 521 | 19300 (1951) | 118 (1934) | 1780 | 244 | 333 | 419 | 513 | 925 | 1420 | 1860 | 3710 | 8270 |
| 2026-02-21 09:30 | 6.30 | 529 | 19300 (1951) | 118 (1934) | 1780 | 244 | 333 | 419 | 513 | 925 | 1420 | 1860 | 3710 | 8270 |
| 2026-02-21 09:00 | 6.30 | 529 | 19300 (1951) | 118 (1934) | 1780 | 244 | 333 | 419 | 513 | 925 | 1420 | 1860 | 3710 | 8270 |
| 2026-02-21 08:30 | 6.28 | 521 | 19300 (1951) | 118 (1934) | 1780 | 244 | 333 | 419 | 513 | 925 | 1420 | 1860 | 3710 | 8270 |
| 2026-02-21 08:00 | 6.30 | 529 | 19300 (1951) | 118 (1934) | 1780 | 244 | 333 | 419 | 513 | 925 | 1420 | 1860 | 3710 | 8270 |
| 2026-02-21 07:30 | 6.31 | 533 | 19300 (1951) | 118 (1934) | 1780 | 244 | 333 | 419 | 513 | 925 | 1420 | 1860 | 3710 | 8270 |
| 2026-02-21 07:00 | 6.31 | 533 | 19300 (1951) | 118 (1934) | 1780 | 244 | 333 | 419 | 513 | 925 | 1420 | 1860 | 3710 | 8270 |
| 2026-02-21 06:30 | 6.31 | 533 | 19300 (1951) | 118 (1934) | 1780 | 244 | 333 | 419 | 513 | 925 | 1420 | 1860 | 3710 | 8270 |
| 2026-02-21 06:00 | 6.32 | 537 | 19300 (1951) | 118 (1934) | 1780 | 244 | 333 | 419 | 513 | 925 | 1420 | 1860 | 3710 | 8270 |
| 2026-02-21 05:30 | 6.32 | 537 | 19300 (1951) | 118 (1934) | 1780 | 244 | 333 | 419 | 513 | 925 | 1420 | 1860 | 3710 | 8270 |
| 2026-02-21 05:00 | 6.32 | 537 | 19300 (1951) | 118 (1934) | 1780 | 244 | 333 | 419 | 513 | 925 | 1420 | 1860 | 3710 | 8270 |
| 2026-02-21 04:30 | 6.33 | 541 | 19300 (1951) | 118 (1934) | 1780 | 244 | 333 | 419 | 513 | 925 | 1420 | 1860 | 3710 | 8270 |
| 2026-02-21 04:00 | 6.33 | 541 | 19300 (1951) | 118 (1934) | 1780 | 244 | 333 | 419 | 513 | 925 | 1420 | 1860 | 3710 | 8270 |
| 2026-02-21 03:30 | 6.34 | 545 | 19300 (1951) | 118 (1934) | 1780 | 244 | 333 | 419 | 513 | 925 | 1420 | 1860 | 3710 | 8270 |
| 2026-02-21 03:00 | 6.34 | 545 | 19300 (1951) | 118 (1934) | 1780 | 244 | 333 | 419 | 513 | 925 | 1420 | 1860 | 3710 | 8270 |
| 2026-02-21 02:30 | 6.35 | 549 | 19300 (1951) | 118 (1934) | 1780 | 244 | 333 | 419 | 513 | 925 | 1420 | 1860 | 3710 | 8270 |
| 2026-02-21 02:00 | 6.35 | 549 | 19300 (1951) | 118 (1934) | 1780 | 244 | 333 | 419 | 513 | 925 | 1420 | 1860 | 3710 | 8270 |
| 2026-02-21 01:30 | 6.35 | 549 | 19300 (1951) | 118 (1934) | 1780 | 244 | 333 | 419 | 513 | 925 | 1420 | 1860 | 3710 | 8270 |
| 2026-02-21 01:00 | 6.36 | 553 | 19300 (1951) | 118 (1934) | 1780 | 244 | 333 | 419 | 513 | 925 | 1420 | 1860 | 3710 | 8270 |
| 2026-02-21 00:30 | 6.36 | 553 | 19300 (1951) | 118 (1934) | 1780 | 244 | 333 | 419 | 513 | 925 | 1420 | 1860 | 3710 | 8270 |
| 2026-02-21 00:00 | 6.36 | 553 | 19300 (1951) | 118 (1934) | 1780 | 244 | 333 | 419 | 513 | 925 | 1420 | 1860 | 3710 | 8270 |
| 2026-02-20 23:30 | 6.37 | 557 | 19300 (1951) | 118 (1934) | 1780 | 244 | 333 | 419 | 513 | 925 | 1420 | 1860 | 3710 | 8270 |
| 2026-02-20 23:00 | 6.37 | 557 | 19300 (1951) | 118 (1934) | 1780 | 244 | 333 | 419 | 513 | 925 | 1420 | 1860 | 3710 | 8270 |
| 2026-02-20 22:30 | 6.38 | 561 | 11500 (1951) | 116 (1934) | 1560 | 244 | 314 | 396 | 457 | 910 | 1590 | 1650 | 3440 | 7960 |
| 2026-02-20 22:00 | 6.38 | 561 | 11500 (1951) | 116 (1934) | 1560 | 244 | 314 | 396 | 457 | 910 | 1590 | 1650 | 3440 | 7960 |
| 2026-02-20 21:30 | 6.38 | 561 | 11500 (1951) | 116 (1934) | 1560 | 244 | 314 | 396 | 457 | 910 | 1590 | 1650 | 3440 | 7960 |
| 2026-02-20 21:00 | 6.39 | 566 | 11500 (1951) | 116 (1934) | 1560 | 244 | 314 | 396 | 457 | 910 | 1590 | 1650 | 3440 | 7960 |
| 2026-02-20 20:30 | 6.39 | 566 | 11500 (1951) | 116 (1934) | 1560 | 244 | 314 | 396 | 457 | 910 | 1590 | 1650 | 3440 | 7960 |
| 2026-02-20 20:00 | 6.40 | 570 | 11500 (1951) | 116 (1934) | 1560 | 244 | 314 | 396 | 457 | 910 | 1590 | 1650 | 3440 | 7960 |
| 2026-02-20 19:30 | 6.40 | 570 | 11500 (1951) | 116 (1934) | 1560 | 244 | 314 | 396 | 457 | 910 | 1590 | 1650 | 3440 | 7960 |
| 2026-02-20 19:00 | 6.41 | 574 | 11500 (1951) | 116 (1934) | 1560 | 244 | 314 | 396 | 457 | 910 | 1590 | 1650 | 3440 | 7960 |
| 2026-02-20 18:30 | 6.41 | 574 | 11500 (1951) | 116 (1934) | 1560 | 244 | 314 | 396 | 457 | 910 | 1590 | 1650 | 3440 | 7960 |
| 2026-02-20 18:00 | 6.41 | 574 | 11500 (1951) | 116 (1934) | 1560 | 244 | 314 | 396 | 457 | 910 | 1590 | 1650 | 3440 | 7960 |
| 2026-02-20 17:30 | 6.42 | 578 | 11500 (1951) | 116 (1934) | 1560 | 244 | 314 | 396 | 457 | 910 | 1590 | 1650 | 3440 | 7960 |
| 2026-02-20 17:00 | 6.43 | 582 | 11500 (1951) | 116 (1934) | 1560 | 244 | 314 | 396 | 457 | 910 | 1590 | 1650 | 3440 | 7960 |
| 2026-02-20 16:30 | 6.43 | 582 | 11500 (1951) | 116 (1934) | 1560 | 244 | 314 | 396 | 457 | 910 | 1590 | 1650 | 3440 | 7960 |
| 2026-02-20 16:00 | 6.43 | 582 | 11500 (1951) | 116 (1934) | 1560 | 244 | 314 | 396 | 457 | 910 | 1590 | 1650 | 3440 | 7960 |
| 2026-02-20 15:30 | 6.44 | 587 | 11500 (1951) | 116 (1934) | 1560 | 244 | 314 | 396 | 457 | 910 | 1590 | 1650 | 3440 | 7960 |
| 2026-02-20 15:00 | 6.44 | 587 | 11500 (1951) | 116 (1934) | 1560 | 244 | 314 | 396 | 457 | 910 | 1590 | 1650 | 3440 | 7960 |
| 2026-02-20 14:30 | 6.45 | 591 | 11500 (1951) | 116 (1934) | 1560 | 244 | 314 | 396 | 457 | 910 | 1590 | 1650 | 3440 | 7960 |
| 2026-02-20 14:00 | 6.45 | 591 | 11500 (1951) | 116 (1934) | 1560 | 244 | 314 | 396 | 457 | 910 | 1590 | 1650 | 3440 | 7960 |
| 2026-02-20 13:30 | 6.45 | 591 | 11500 (1951) | 116 (1934) | 1560 | 244 | 314 | 396 | 457 | 910 | 1590 | 1650 | 3440 | 7960 |
| 2026-02-20 13:00 | 6.46 | 595 | 11500 (1951) | 116 (1934) | 1560 | 244 | 314 | 396 | 457 | 910 | 1590 | 1650 | 3440 | 7960 |
| 2026-02-20 12:30 | 6.46 | 595 | 11500 (1951) | 116 (1934) | 1560 | 244 | 314 | 396 | 457 | 910 | 1590 | 1650 | 3440 | 7960 |
| 2026-02-20 12:00 | 6.47 | 600 | 11500 (1951) | 116 (1934) | 1560 | 244 | 314 | 396 | 457 | 910 | 1590 | 1650 | 3440 | 7960 |
| 2026-02-20 11:30 | 6.45 | 591 | 11500 (1951) | 116 (1934) | 1560 | 244 | 314 | 396 | 457 | 910 | 1590 | 1650 | 3440 | 7960 |
| 2026-02-20 11:00 | 6.45 | 591 | 11500 (1951) | 116 (1934) | 1560 | 244 | 314 | 396 | 457 | 910 | 1590 | 1650 | 3440 | 7960 |
| 2026-02-20 10:30 | 6.48 | 604 | 11500 (1951) | 116 (1934) | 1560 | 244 | 314 | 396 | 457 | 910 | 1590 | 1650 | 3440 | 7960 |
| 2026-02-20 10:00 | 6.48 | 604 | 11500 (1951) | 116 (1934) | 1560 | 244 | 314 | 396 | 457 | 910 | 1590 | 1650 | 3440 | 7960 |
| 2026-02-20 09:30 | 6.48 | 604 | 11500 (1951) | 116 (1934) | 1560 | 244 | 314 | 396 | 457 | 910 | 1590 | 1650 | 3440 | 7960 |
| 2026-02-20 09:00 | 6.49 | 608 | 11500 (1951) | 116 (1934) | 1560 | 244 | 314 | 396 | 457 | 910 | 1590 | 1650 | 3440 | 7960 |
| 2026-02-20 08:30 | 6.49 | 608 | 11500 (1951) | 116 (1934) | 1560 | 244 | 314 | 396 | 457 | 910 | 1590 | 1650 | 3440 | 7960 |
| 2026-02-20 08:00 | 6.50 | 613 | 11500 (1951) | 116 (1934) | 1560 | 244 | 314 | 396 | 457 | 910 | 1590 | 1650 | 3440 | 7960 |
| 2026-02-20 07:30 | 6.51 | 617 | 11500 (1951) | 116 (1934) | 1560 | 244 | 314 | 396 | 457 | 910 | 1590 | 1650 | 3440 | 7960 |
| 2026-02-20 07:00 | 6.51 | 617 | 11500 (1951) | 116 (1934) | 1560 | 244 | 314 | 396 | 457 | 910 | 1590 | 1650 | 3440 | 7960 |
| 2026-02-20 06:30 | 6.52 | 621 | 11500 (1951) | 116 (1934) | 1560 | 244 | 314 | 396 | 457 | 910 | 1590 | 1650 | 3440 | 7960 |
| 2026-02-20 06:00 | 6.52 | 621 | 11500 (1951) | 116 (1934) | 1560 | 244 | 314 | 396 | 457 | 910 | 1590 | 1650 | 3440 | 7960 |
| 2026-02-20 05:30 | 6.52 | 621 | 11500 (1951) | 116 (1934) | 1560 | 244 | 314 | 396 | 457 | 910 | 1590 | 1650 | 3440 | 7960 |
| 2026-02-20 05:00 | 6.53 | 626 | 11500 (1951) | 116 (1934) | 1560 | 244 | 314 | 396 | 457 | 910 | 1590 | 1650 | 3440 | 7960 |
| 2026-02-20 04:30 | 6.53 | 626 | 11500 (1951) | 116 (1934) | 1560 | 244 | 314 | 396 | 457 | 910 | 1590 | 1650 | 3440 | 7960 |
| 2026-02-20 04:00 | 6.54 | 630 | 11500 (1951) | 116 (1934) | 1560 | 244 | 314 | 396 | 457 | 910 | 1590 | 1650 | 3440 | 7960 |
| 2026-02-20 03:30 | 6.54 | 630 | 11500 (1951) | 116 (1934) | 1560 | 244 | 314 | 396 | 457 | 910 | 1590 | 1650 | 3440 | 7960 |
| 2026-02-20 03:00 | 6.54 | 630 | 11500 (1951) | 116 (1934) | 1560 | 244 | 314 | 396 | 457 | 910 | 1590 | 1650 | 3440 | 7960 |
| 2026-02-20 02:30 | 6.55 | 635 | 11500 (1951) | 116 (1934) | 1560 | 244 | 314 | 396 | 457 | 910 | 1590 | 1650 | 3440 | 7960 |
| 2026-02-20 02:00 | 6.56 | 639 | 11500 (1951) | 116 (1934) | 1560 | 244 | 314 | 396 | 457 | 910 | 1590 | 1650 | 3440 | 7960 |
| 2026-02-20 01:30 | 6.56 | 639 | 11500 (1951) | 116 (1934) | 1560 | 244 | 314 | 396 | 457 | 910 | 1590 | 1650 | 3440 | 7960 |
| 2026-02-20 01:00 | 6.57 | 644 | 11500 (1951) | 116 (1934) | 1560 | 244 | 314 | 396 | 457 | 910 | 1590 | 1650 | 3440 | 7960 |
| 2026-02-20 00:30 | 6.55 | 635 | 11500 (1951) | 116 (1934) | 1560 | 244 | 314 | 396 | 457 | 910 | 1590 | 1650 | 3440 | 7960 |
| 2026-02-20 00:00 | 6.57 | 644 | 11500 (1951) | 116 (1934) | 1560 | 244 | 314 | 396 | 457 | 910 | 1590 | 1650 | 3440 | 7960 |
| 2026-02-19 23:30 | 6.56 | 639 | 11500 (1951) | 116 (1934) | 1560 | 244 | 314 | 396 | 457 | 910 | 1590 | 1650 | 3440 | 7960 |
| 2026-02-19 23:00 | 6.58 | 648 | 11500 (1951) | 116 (1934) | 1560 | 244 | 314 | 396 | 457 | 910 | 1590 | 1650 | 3440 | 7960 |
| 2026-02-19 22:30 | 6.59 | 653 | 20200 (1938) | 114 (1934) | 1520 | 233 | 300 | 386 | 445 | 860 | 1560 | 1820 | 2640 | 6390 |
| 2026-02-19 22:00 | 6.59 | 653 | 20200 (1938) | 114 (1934) | 1520 | 233 | 300 | 386 | 445 | 860 | 1560 | 1820 | 2640 | 6390 |
| 2026-02-19 21:30 | 6.60 | 657 | 20200 (1938) | 114 (1934) | 1520 | 233 | 300 | 386 | 445 | 860 | 1560 | 1820 | 2640 | 6390 |
| 2026-02-19 21:00 | 6.58 | 648 | 20200 (1938) | 114 (1934) | 1520 | 233 | 300 | 386 | 445 | 860 | 1560 | 1820 | 2640 | 6390 |
| 2026-02-19 20:30 | 6.60 | 657 | 20200 (1938) | 114 (1934) | 1520 | 233 | 300 | 386 | 445 | 860 | 1560 | 1820 | 2640 | 6390 |
| 2026-02-19 20:00 | 6.62 | 666 | 20200 (1938) | 114 (1934) | 1520 | 233 | 300 | 386 | 445 | 860 | 1560 | 1820 | 2640 | 6390 |
| 2026-02-19 19:30 | 6.62 | 666 | 20200 (1938) | 114 (1934) | 1520 | 233 | 300 | 386 | 445 | 860 | 1560 | 1820 | 2640 | 6390 |
| 2026-02-19 19:00 | 6.63 | 671 | 20200 (1938) | 114 (1934) | 1520 | 233 | 300 | 386 | 445 | 860 | 1560 | 1820 | 2640 | 6390 |
| 2026-02-19 18:30 | 6.63 | 671 | 20200 (1938) | 114 (1934) | 1520 | 233 | 300 | 386 | 445 | 860 | 1560 | 1820 | 2640 | 6390 |
| 2026-02-19 18:00 | 6.64 | 676 | 20200 (1938) | 114 (1934) | 1520 | 233 | 300 | 386 | 445 | 860 | 1560 | 1820 | 2640 | 6390 |
| 2026-02-19 17:30 | 6.64 | 676 | 20200 (1938) | 114 (1934) | 1520 | 233 | 300 | 386 | 445 | 860 | 1560 | 1820 | 2640 | 6390 |
| 2026-02-19 17:00 | 6.65 | 680 | 20200 (1938) | 114 (1934) | 1520 | 233 | 300 | 386 | 445 | 860 | 1560 | 1820 | 2640 | 6390 |
| 2026-02-19 16:30 | 6.65 | 680 | 20200 (1938) | 114 (1934) | 1520 | 233 | 300 | 386 | 445 | 860 | 1560 | 1820 | 2640 | 6390 |
| 2026-02-19 16:00 | 6.63 | 671 | 20200 (1938) | 114 (1934) | 1520 | 233 | 300 | 386 | 445 | 860 | 1560 | 1820 | 2640 | 6390 |
| 2026-02-19 15:30 | 6.64 | 676 | 20200 (1938) | 114 (1934) | 1520 | 233 | 300 | 386 | 445 | 860 | 1560 | 1820 | 2640 | 6390 |
| 2026-02-19 15:00 | 6.65 | 680 | 20200 (1938) | 114 (1934) | 1520 | 233 | 300 | 386 | 445 | 860 | 1560 | 1820 | 2640 | 6390 |
| 2026-02-19 14:30 | 6.68 | 694 | 20200 (1938) | 114 (1934) | 1520 | 233 | 300 | 386 | 445 | 860 | 1560 | 1820 | 2640 | 6390 |
| 2026-02-19 14:00 | 6.66 | 685 | 20200 (1938) | 114 (1934) | 1520 | 233 | 300 | 386 | 445 | 860 | 1560 | 1820 | 2640 | 6390 |
| 2026-02-19 13:30 | 6.67 | 689 | 20200 (1938) | 114 (1934) | 1520 | 233 | 300 | 386 | 445 | 860 | 1560 | 1820 | 2640 | 6390 |
| 2026-02-19 13:00 | 6.65 | 680 | 20200 (1938) | 114 (1934) | 1520 | 233 | 300 | 386 | 445 | 860 | 1560 | 1820 | 2640 | 6390 |
| 2026-02-19 12:30 | 6.65 | 680 | 20200 (1938) | 114 (1934) | 1520 | 233 | 300 | 386 | 445 | 860 | 1560 | 1820 | 2640 | 6390 |
| 2026-02-19 12:00 | 6.67 | 689 | 20200 (1938) | 114 (1934) | 1520 | 233 | 300 | 386 | 445 | 860 | 1560 | 1820 | 2640 | 6390 |
| 2026-02-19 11:30 | 6.68 | 694 | 20200 (1938) | 114 (1934) | 1520 | 233 | 300 | 386 | 445 | 860 | 1560 | 1820 | 2640 | 6390 |
| 2026-02-19 11:00 | 6.68 | 694 | 20200 (1938) | 114 (1934) | 1520 | 233 | 300 | 386 | 445 | 860 | 1560 | 1820 | 2640 | 6390 |
| 2026-02-19 10:30 | 6.72 | 713 | 20200 (1938) | 114 (1934) | 1520 | 233 | 300 | 386 | 445 | 860 | 1560 | 1820 | 2640 | 6390 |
| 2026-02-19 10:00 | 6.73 | 718 | 20200 (1938) | 114 (1934) | 1520 | 233 | 300 | 386 | 445 | 860 | 1560 | 1820 | 2640 | 6390 |
| 2026-02-19 09:30 | 6.73 | 718 | 20200 (1938) | 114 (1934) | 1520 | 233 | 300 | 386 | 445 | 860 | 1560 | 1820 | 2640 | 6390 |
| 2026-02-19 09:00 | 6.74 | 723 | 20200 (1938) | 114 (1934) | 1520 | 233 | 300 | 386 | 445 | 860 | 1560 | 1820 | 2640 | 6390 |
| 2026-02-19 08:30 | 6.75 | 727 | 20200 (1938) | 114 (1934) | 1520 | 233 | 300 | 386 | 445 | 860 | 1560 | 1820 | 2640 | 6390 |
| 2026-02-19 08:00 | 6.75 | 727 | 20200 (1938) | 114 (1934) | 1520 | 233 | 300 | 386 | 445 | 860 | 1560 | 1820 | 2640 | 6390 |
| 2026-02-19 07:30 | 6.75 | 727 | 20200 (1938) | 114 (1934) | 1520 | 233 | 300 | 386 | 445 | 860 | 1560 | 1820 | 2640 | 6390 |
| 2026-02-19 07:00 | 6.76 | 732 | 20200 (1938) | 114 (1934) | 1520 | 233 | 300 | 386 | 445 | 860 | 1560 | 1820 | 2640 | 6390 |
| 2026-02-19 06:30 | 6.77 | 737 | 20200 (1938) | 114 (1934) | 1520 | 233 | 300 | 386 | 445 | 860 | 1560 | 1820 | 2640 | 6390 |
| 2026-02-19 06:00 | 6.77 | 737 | 20200 (1938) | 114 (1934) | 1520 | 233 | 300 | 386 | 445 | 860 | 1560 | 1820 | 2640 | 6390 |
| 2026-02-19 05:30 | 6.78 | 742 | 20200 (1938) | 114 (1934) | 1520 | 233 | 300 | 386 | 445 | 860 | 1560 | 1820 | 2640 | 6390 |
| 2026-02-19 05:00 | 6.79 | 747 | 20200 (1938) | 114 (1934) | 1520 | 233 | 300 | 386 | 445 | 860 | 1560 | 1820 | 2640 | 6390 |
| 2026-02-19 04:30 | 6.80 | 752 | 20200 (1938) | 114 (1934) | 1520 | 233 | 300 | 386 | 445 | 860 | 1560 | 1820 | 2640 | 6390 |
| 2026-02-19 04:00 | 6.80 | 752 | 20200 (1938) | 114 (1934) | 1520 | 233 | 300 | 386 | 445 | 860 | 1560 | 1820 | 2640 | 6390 |
| 2026-02-19 03:30 | 6.81 | 757 | 20200 (1938) | 114 (1934) | 1520 | 233 | 300 | 386 | 445 | 860 | 1560 | 1820 | 2640 | 6390 |
| 2026-02-19 03:00 | 6.81 | 757 | 20200 (1938) | 114 (1934) | 1520 | 233 | 300 | 386 | 445 | 860 | 1560 | 1820 | 2640 | 6390 |
| 2026-02-19 02:30 | 6.82 | 762 | 20200 (1938) | 114 (1934) | 1520 | 233 | 300 | 386 | 445 | 860 | 1560 | 1820 | 2640 | 6390 |
| 2026-02-19 02:00 | 6.83 | 767 | 20200 (1938) | 114 (1934) | 1520 | 233 | 300 | 386 | 445 | 860 | 1560 | 1820 | 2640 | 6390 |
| 2026-02-19 01:30 | 6.84 | 771 | 20200 (1938) | 114 (1934) | 1520 | 233 | 300 | 386 | 445 | 860 | 1560 | 1820 | 2640 | 6390 |
| 2026-02-19 01:00 | 6.84 | 771 | 20200 (1938) | 114 (1934) | 1520 | 233 | 300 | 386 | 445 | 860 | 1560 | 1820 | 2640 | 6390 |
| 2026-02-19 00:30 | 6.85 | 776 | 20200 (1938) | 114 (1934) | 1520 | 233 | 300 | 386 | 445 | 860 | 1560 | 1820 | 2640 | 6390 |
| 2026-02-19 00:00 | 6.86 | 781 | 20200 (1938) | 114 (1934) | 1520 | 233 | 300 | 386 | 445 | 860 | 1560 | 1820 | 2640 | 6390 |
| 2026-02-18 23:30 | 6.86 | 781 | 20200 (1938) | 114 (1934) | 1520 | 233 | 300 | 386 | 445 | 860 | 1560 | 1820 | 2640 | 6390 |
| 2026-02-18 23:00 | 6.87 | 786 | 20200 (1938) | 114 (1934) | 1520 | 233 | 300 | 386 | 445 | 860 | 1560 | 1820 | 2640 | 6390 |
| 2026-02-18 22:30 | 6.88 | 792 | 39700 (2022) | 118 (1934) | 2300 | 227 | 299 | 409 | 430 | 853 | 1780 | 2110 | 3340 | 10100 |
| 2026-02-18 22:00 | 6.88 | 792 | 39700 (2022) | 118 (1934) | 2300 | 227 | 299 | 409 | 430 | 853 | 1780 | 2110 | 3340 | 10100 |
| 2026-02-18 21:30 | 6.89 | 797 | 39700 (2022) | 118 (1934) | 2300 | 227 | 299 | 409 | 430 | 853 | 1780 | 2110 | 3340 | 10100 |
| 2026-02-18 21:00 | 6.89 | 797 | 39700 (2022) | 118 (1934) | 2300 | 227 | 299 | 409 | 430 | 853 | 1780 | 2110 | 3340 | 10100 |
| 2026-02-18 20:30 | 6.90 | 802 | 39700 (2022) | 118 (1934) | 2300 | 227 | 299 | 409 | 430 | 853 | 1780 | 2110 | 3340 | 10100 |
| 2026-02-18 20:00 | 6.91 | 807 | 39700 (2022) | 118 (1934) | 2300 | 227 | 299 | 409 | 430 | 853 | 1780 | 2110 | 3340 | 10100 |
| 2026-02-18 19:30 | 6.91 | 807 | 39700 (2022) | 118 (1934) | 2300 | 227 | 299 | 409 | 430 | 853 | 1780 | 2110 | 3340 | 10100 |
| 2026-02-18 19:00 | 6.92 | 812 | 39700 (2022) | 118 (1934) | 2300 | 227 | 299 | 409 | 430 | 853 | 1780 | 2110 | 3340 | 10100 |
| 2026-02-18 18:30 | 6.93 | 817 | 39700 (2022) | 118 (1934) | 2300 | 227 | 299 | 409 | 430 | 853 | 1780 | 2110 | 3340 | 10100 |
| 2026-02-18 18:00 | 6.94 | 822 | 39700 (2022) | 118 (1934) | 2300 | 227 | 299 | 409 | 430 | 853 | 1780 | 2110 | 3340 | 10100 |
| 2026-02-18 17:30 | 6.95 | 827 | 39700 (2022) | 118 (1934) | 2300 | 227 | 299 | 409 | 430 | 853 | 1780 | 2110 | 3340 | 10100 |
| 2026-02-18 17:00 | 6.95 | 827 | 39700 (2022) | 118 (1934) | 2300 | 227 | 299 | 409 | 430 | 853 | 1780 | 2110 | 3340 | 10100 |
| 2026-02-18 16:30 | 6.92 | 812 | 39700 (2022) | 118 (1934) | 2300 | 227 | 299 | 409 | 430 | 853 | 1780 | 2110 | 3340 | 10100 |
| 2026-02-18 16:00 | 6.94 | 822 | 39700 (2022) | 118 (1934) | 2300 | 227 | 299 | 409 | 430 | 853 | 1780 | 2110 | 3340 | 10100 |
| 2026-02-18 15:30 | 6.95 | 827 | 39700 (2022) | 118 (1934) | 2300 | 227 | 299 | 409 | 430 | 853 | 1780 | 2110 | 3340 | 10100 |
| 2026-02-18 15:00 | 6.97 | 838 | 39700 (2022) | 118 (1934) | 2300 | 227 | 299 | 409 | 430 | 853 | 1780 | 2110 | 3340 | 10100 |
| 2026-02-18 14:30 | 6.99 | 848 | 39700 (2022) | 118 (1934) | 2300 | 227 | 299 | 409 | 430 | 853 | 1780 | 2110 | 3340 | 10100 |
| 2026-02-18 14:00 | 7.00 | 854 | 39700 (2022) | 118 (1934) | 2300 | 227 | 299 | 409 | 430 | 853 | 1780 | 2110 | 3340 | 10100 |
| 2026-02-18 13:30 | 7.01 | 859 | 39700 (2022) | 118 (1934) | 2300 | 227 | 299 | 409 | 430 | 853 | 1780 | 2110 | 3340 | 10100 |
| 2026-02-18 13:00 | 7.02 | 864 | 39700 (2022) | 118 (1934) | 2300 | 227 | 299 | 409 | 430 | 853 | 1780 | 2110 | 3340 | 10100 |
| 2026-02-18 12:30 | 7.03 | 869 | 39700 (2022) | 118 (1934) | 2300 | 227 | 299 | 409 | 430 | 853 | 1780 | 2110 | 3340 | 10100 |
| 2026-02-18 12:00 | 7.03 | 869 | 39700 (2022) | 118 (1934) | 2300 | 227 | 299 | 409 | 430 | 853 | 1780 | 2110 | 3340 | 10100 |
| 2026-02-18 11:30 | 7.04 | 875 | 39700 (2022) | 118 (1934) | 2300 | 227 | 299 | 409 | 430 | 853 | 1780 | 2110 | 3340 | 10100 |
| 2026-02-18 11:00 | 7.05 | 880 | 39700 (2022) | 118 (1934) | 2300 | 227 | 299 | 409 | 430 | 853 | 1780 | 2110 | 3340 | 10100 |
| 2026-02-18 10:30 | 7.06 | 885 | 39700 (2022) | 118 (1934) | 2300 | 227 | 299 | 409 | 430 | 853 | 1780 | 2110 | 3340 | 10100 |
| 2026-02-18 10:00 | 7.07 | 891 | 39700 (2022) | 118 (1934) | 2300 | 227 | 299 | 409 | 430 | 853 | 1780 | 2110 | 3340 | 10100 |
| 2026-02-18 09:30 | 7.08 | 896 | 39700 (2022) | 118 (1934) | 2300 | 227 | 299 | 409 | 430 | 853 | 1780 | 2110 | 3340 | 10100 |
| 2026-02-18 08:30 | 7.10 | 907 | 39700 (2022) | 118 (1934) | 2300 | 227 | 299 | 409 | 430 | 853 | 1780 | 2110 | 3340 | 10100 |
| 2026-02-18 08:00 | 7.11 | 913 | 39700 (2022) | 118 (1934) | 2300 | 227 | 299 | 409 | 430 | 853 | 1780 | 2110 | 3340 | 10100 |
| 2026-02-18 07:30 | 7.13 | 924 | 39700 (2022) | 118 (1934) | 2300 | 227 | 299 | 409 | 430 | 853 | 1780 | 2110 | 3340 | 10100 |
| 2026-02-18 07:00 | 7.13 | 924 | 39700 (2022) | 118 (1934) | 2300 | 227 | 299 | 409 | 430 | 853 | 1780 | 2110 | 3340 | 10100 |
| 2026-02-18 06:30 | 7.14 | 929 | 39700 (2022) | 118 (1934) | 2300 | 227 | 299 | 409 | 430 | 853 | 1780 | 2110 | 3340 | 10100 |
| 2026-02-18 06:00 | 7.15 | 935 | 39700 (2022) | 118 (1934) | 2300 | 227 | 299 | 409 | 430 | 853 | 1780 | 2110 | 3340 | 10100 |
| 2026-02-18 05:30 | 7.16 | 940 | 39700 (2022) | 118 (1934) | 2300 | 227 | 299 | 409 | 430 | 853 | 1780 | 2110 | 3340 | 10100 |
| 2026-02-18 05:00 | 7.17 | 946 | 39700 (2022) | 118 (1934) | 2300 | 227 | 299 | 409 | 430 | 853 | 1780 | 2110 | 3340 | 10100 |
| 2026-02-18 04:30 | 7.18 | 951 | 39700 (2022) | 118 (1934) | 2300 | 227 | 299 | 409 | 430 | 853 | 1780 | 2110 | 3340 | 10100 |
| 2026-02-18 04:00 | 7.19 | 957 | 39700 (2022) | 118 (1934) | 2300 | 227 | 299 | 409 | 430 | 853 | 1780 | 2110 | 3340 | 10100 |
| 2026-02-18 03:30 | 7.20 | 963 | 39700 (2022) | 118 (1934) | 2300 | 227 | 299 | 409 | 430 | 853 | 1780 | 2110 | 3340 | 10100 |
| 2026-02-18 03:00 | 7.21 | 968 | 39700 (2022) | 118 (1934) | 2300 | 227 | 299 | 409 | 430 | 853 | 1780 | 2110 | 3340 | 10100 |
| 2026-02-18 02:30 | 7.22 | 974 | 39700 (2022) | 118 (1934) | 2300 | 227 | 299 | 409 | 430 | 853 | 1780 | 2110 | 3340 | 10100 |
| 2026-02-18 02:00 | 7.23 | 980 | 39700 (2022) | 118 (1934) | 2300 | 227 | 299 | 409 | 430 | 853 | 1780 | 2110 | 3340 | 10100 |
| 2026-02-18 01:30 | 7.25 | 991 | 39700 (2022) | 118 (1934) | 2300 | 227 | 299 | 409 | 430 | 853 | 1780 | 2110 | 3340 | 10100 |
| 2026-02-18 01:00 | 7.25 | 991 | 39700 (2022) | 118 (1934) | 2300 | 227 | 299 | 409 | 430 | 853 | 1780 | 2110 | 3340 | 10100 |
| 2026-02-18 00:30 | 7.25 | 991 | 39700 (2022) | 118 (1934) | 2300 | 227 | 299 | 409 | 430 | 853 | 1780 | 2110 | 3340 | 10100 |
| 2026-02-18 00:00 | 7.24 | 985 | 39700 (2022) | 118 (1934) | 2300 | 227 | 299 | 409 | 430 | 853 | 1780 | 2110 | 3340 | 10100 |
| 2026-02-17 23:30 | 7.28 | 1010 | 39700 (2022) | 118 (1934) | 2300 | 227 | 299 | 409 | 430 | 853 | 1780 | 2110 | 3340 | 10100 |
| 2026-02-17 23:00 | 7.30 | 1020 | 39700 (2022) | 118 (1934) | 2300 | 227 | 299 | 409 | 430 | 853 | 1780 | 2110 | 3340 | 10100 |
| 2026-02-17 22:30 | 7.31 | 1030 | 18000 (2022) | 122 (1934) | 1780 | 177 | 294 | 412 | 435 | 815 | 1850 | 2220 | 3740 | 9820 |
| 2026-02-17 22:00 | 7.32 | 1030 | 18000 (2022) | 122 (1934) | 1780 | 177 | 294 | 412 | 435 | 815 | 1850 | 2220 | 3740 | 9820 |
| 2026-02-17 21:30 | 7.34 | 1040 | 18000 (2022) | 122 (1934) | 1780 | 177 | 294 | 412 | 435 | 815 | 1850 | 2220 | 3740 | 9820 |
| 2026-02-17 21:00 | 7.35 | 1050 | 18000 (2022) | 122 (1934) | 1780 | 177 | 294 | 412 | 435 | 815 | 1850 | 2220 | 3740 | 9820 |
| 2026-02-17 20:30 | 7.34 | 1040 | 18000 (2022) | 122 (1934) | 1780 | 177 | 294 | 412 | 435 | 815 | 1850 | 2220 | 3740 | 9820 |
| 2026-02-17 20:00 | 7.37 | 1060 | 18000 (2022) | 122 (1934) | 1780 | 177 | 294 | 412 | 435 | 815 | 1850 | 2220 | 3740 | 9820 |
| 2026-02-17 19:30 | 7.38 | 1070 | 18000 (2022) | 122 (1934) | 1780 | 177 | 294 | 412 | 435 | 815 | 1850 | 2220 | 3740 | 9820 |
| 2026-02-17 19:00 | 7.39 | 1070 | 18000 (2022) | 122 (1934) | 1780 | 177 | 294 | 412 | 435 | 815 | 1850 | 2220 | 3740 | 9820 |
| 2026-02-17 18:30 | 7.41 | 1090 | 18000 (2022) | 122 (1934) | 1780 | 177 | 294 | 412 | 435 | 815 | 1850 | 2220 | 3740 | 9820 |
| 2026-02-17 18:00 | 7.43 | 1100 | 18000 (2022) | 122 (1934) | 1780 | 177 | 294 | 412 | 435 | 815 | 1850 | 2220 | 3740 | 9820 |
| 2026-02-17 17:30 | 7.45 | 1110 | 18000 (2022) | 122 (1934) | 1780 | 177 | 294 | 412 | 435 | 815 | 1850 | 2220 | 3740 | 9820 |
| 2026-02-17 17:00 | 7.45 | 1110 | 18000 (2022) | 122 (1934) | 1780 | 177 | 294 | 412 | 435 | 815 | 1850 | 2220 | 3740 | 9820 |
| 2026-02-17 16:30 | 7.47 | 1120 | 18000 (2022) | 122 (1934) | 1780 | 177 | 294 | 412 | 435 | 815 | 1850 | 2220 | 3740 | 9820 |
| 2026-02-17 16:00 | 7.49 | 1130 | 18000 (2022) | 122 (1934) | 1780 | 177 | 294 | 412 | 435 | 815 | 1850 | 2220 | 3740 | 9820 |
| 2026-02-17 15:30 | 7.51 | 1150 | 18000 (2022) | 122 (1934) | 1780 | 177 | 294 | 412 | 435 | 815 | 1850 | 2220 | 3740 | 9820 |
| 2026-02-17 15:00 | 7.52 | 1150 | 18000 (2022) | 122 (1934) | 1780 | 177 | 294 | 412 | 435 | 815 | 1850 | 2220 | 3740 | 9820 |
| 2026-02-17 14:30 | 7.54 | 1170 | 18000 (2022) | 122 (1934) | 1780 | 177 | 294 | 412 | 435 | 815 | 1850 | 2220 | 3740 | 9820 |
| 2026-02-17 14:00 | 7.55 | 1170 | 18000 (2022) | 122 (1934) | 1780 | 177 | 294 | 412 | 435 | 815 | 1850 | 2220 | 3740 | 9820 |
| 2026-02-17 13:30 | 7.56 | 1180 | 18000 (2022) | 122 (1934) | 1780 | 177 | 294 | 412 | 435 | 815 | 1850 | 2220 | 3740 | 9820 |
| 2026-02-17 13:00 | 7.59 | 1200 | 18000 (2022) | 122 (1934) | 1780 | 177 | 294 | 412 | 435 | 815 | 1850 | 2220 | 3740 | 9820 |
| 2026-02-17 12:30 | 7.60 | 1200 | 18000 (2022) | 122 (1934) | 1780 | 177 | 294 | 412 | 435 | 815 | 1850 | 2220 | 3740 | 9820 |
| 2026-02-17 12:00 | 7.61 | 1210 | 18000 (2022) | 122 (1934) | 1780 | 177 | 294 | 412 | 435 | 815 | 1850 | 2220 | 3740 | 9820 |
| 2026-02-17 11:30 | 7.62 | 1220 | 18000 (2022) | 122 (1934) | 1780 | 177 | 294 | 412 | 435 | 815 | 1850 | 2220 | 3740 | 9820 |
| 2026-02-17 11:00 | 7.65 | 1240 | 18000 (2022) | 122 (1934) | 1780 | 177 | 294 | 412 | 435 | 815 | 1850 | 2220 | 3740 | 9820 |
| 2026-02-17 10:30 | 7.67 | 1250 | 18000 (2022) | 122 (1934) | 1780 | 177 | 294 | 412 | 435 | 815 | 1850 | 2220 | 3740 | 9820 |
| 2026-02-17 10:00 | 7.68 | 1260 | 18000 (2022) | 122 (1934) | 1780 | 177 | 294 | 412 | 435 | 815 | 1850 | 2220 | 3740 | 9820 |
| 2026-02-17 09:30 | 7.70 | 1270 | 18000 (2022) | 122 (1934) | 1780 | 177 | 294 | 412 | 435 | 815 | 1850 | 2220 | 3740 | 9820 |
| 2026-02-17 09:00 | 7.73 | 1290 | 18000 (2022) | 122 (1934) | 1780 | 177 | 294 | 412 | 435 | 815 | 1850 | 2220 | 3740 | 9820 |
| 2026-02-17 08:30 | 7.74 | 1300 | 18000 (2022) | 122 (1934) | 1780 | 177 | 294 | 412 | 435 | 815 | 1850 | 2220 | 3740 | 9820 |
| 2026-02-17 08:00 | 7.76 | 1310 | 18000 (2022) | 122 (1934) | 1780 | 177 | 294 | 412 | 435 | 815 | 1850 | 2220 | 3740 | 9820 |
| 2026-02-17 07:30 | 7.77 | 1320 | 18000 (2022) | 122 (1934) | 1780 | 177 | 294 | 412 | 435 | 815 | 1850 | 2220 | 3740 | 9820 |
| 2026-02-17 07:00 | 7.79 | 1330 | 18000 (2022) | 122 (1934) | 1780 | 177 | 294 | 412 | 435 | 815 | 1850 | 2220 | 3740 | 9820 |
| 2026-02-17 06:30 | 7.82 | 1350 | 18000 (2022) | 122 (1934) | 1780 | 177 | 294 | 412 | 435 | 815 | 1850 | 2220 | 3740 | 9820 |
| 2026-02-17 06:00 | 7.83 | 1360 | 18000 (2022) | 122 (1934) | 1780 | 177 | 294 | 412 | 435 | 815 | 1850 | 2220 | 3740 | 9820 |
| 2026-02-17 05:30 | 7.85 | 1370 | 18000 (2022) | 122 (1934) | 1780 | 177 | 294 | 412 | 435 | 815 | 1850 | 2220 | 3740 | 9820 |
| 2026-02-17 05:00 | 7.86 | 1380 | 18000 (2022) | 122 (1934) | 1780 | 177 | 294 | 412 | 435 | 815 | 1850 | 2220 | 3740 | 9820 |
| 2026-02-17 04:30 | 7.89 | 1400 | 18000 (2022) | 122 (1934) | 1780 | 177 | 294 | 412 | 435 | 815 | 1850 | 2220 | 3740 | 9820 |
| 2026-02-17 04:00 | 7.91 | 1420 | 18000 (2022) | 122 (1934) | 1780 | 177 | 294 | 412 | 435 | 815 | 1850 | 2220 | 3740 | 9820 |
| 2026-02-17 03:30 | 7.93 | 1440 | 18000 (2022) | 122 (1934) | 1780 | 177 | 294 | 412 | 435 | 815 | 1850 | 2220 | 3740 | 9820 |
| 2026-02-17 03:00 | 7.95 | 1450 | 18000 (2022) | 122 (1934) | 1780 | 177 | 294 | 412 | 435 | 815 | 1850 | 2220 | 3740 | 9820 |
| 2026-02-17 02:30 | 7.97 | 1470 | 18000 (2022) | 122 (1934) | 1780 | 177 | 294 | 412 | 435 | 815 | 1850 | 2220 | 3740 | 9820 |
| 2026-02-17 02:00 | 7.98 | 1480 | 18000 (2022) | 122 (1934) | 1780 | 177 | 294 | 412 | 435 | 815 | 1850 | 2220 | 3740 | 9820 |
| 2026-02-17 01:30 | 8.01 | 1500 | 18000 (2022) | 122 (1934) | 1780 | 177 | 294 | 412 | 435 | 815 | 1850 | 2220 | 3740 | 9820 |
| 2026-02-17 01:00 | 8.02 | 1510 | 18000 (2022) | 122 (1934) | 1780 | 177 | 294 | 412 | 435 | 815 | 1850 | 2220 | 3740 | 9820 |
| 2026-02-17 00:30 | 8.05 | 1540 | 18000 (2022) | 122 (1934) | 1780 | 177 | 294 | 412 | 435 | 815 | 1850 | 2220 | 3740 | 9820 |
| 2026-02-17 00:00 | 8.07 | 1560 | 18000 (2022) | 122 (1934) | 1780 | 177 | 294 | 412 | 435 | 815 | 1850 | 2220 | 3740 | 9820 |
| 2026-02-16 23:30 | 8.09 | 1570 | 18000 (2022) | 122 (1934) | 1780 | 177 | 294 | 412 | 435 | 815 | 1850 | 2220 | 3740 | 9820 |
| 2026-02-16 23:00 | 8.11 | 1590 | 18000 (2022) | 122 (1934) | 1780 | 177 | 294 | 412 | 435 | 815 | 1850 | 2220 | 3740 | 9820 |
| 2026-02-16 22:30 | 8.15 | 1630 | 11200 (1990) | 102 (1945) | 1530 | 174 | 273 | 396 | 450 | 870 | 1760 | 1980 | 3740 | 6240 |
| 2026-02-16 22:00 | 8.16 | 1640 | 11200 (1990) | 102 (1945) | 1530 | 174 | 273 | 396 | 450 | 870 | 1760 | 1980 | 3740 | 6240 |
| 2026-02-16 21:30 | 8.19 | 1660 | 11200 (1990) | 102 (1945) | 1530 | 174 | 273 | 396 | 450 | 870 | 1760 | 1980 | 3740 | 6240 |
| 2026-02-16 21:00 | 8.20 | 1670 | 11200 (1990) | 102 (1945) | 1530 | 174 | 273 | 396 | 450 | 870 | 1760 | 1980 | 3740 | 6240 |
| 2026-02-16 20:30 | 8.23 | 1700 | 11200 (1990) | 102 (1945) | 1530 | 174 | 273 | 396 | 450 | 870 | 1760 | 1980 | 3740 | 6240 |
| 2026-02-16 20:00 | 8.25 | 1720 | 11200 (1990) | 102 (1945) | 1530 | 174 | 273 | 396 | 450 | 870 | 1760 | 1980 | 3740 | 6240 |
| 2026-02-16 19:30 | 8.28 | 1740 | 11200 (1990) | 102 (1945) | 1530 | 174 | 273 | 396 | 450 | 870 | 1760 | 1980 | 3740 | 6240 |
| 2026-02-16 19:00 | 8.30 | 1760 | 11200 (1990) | 102 (1945) | 1530 | 174 | 273 | 396 | 450 | 870 | 1760 | 1980 | 3740 | 6240 |
| 2026-02-16 18:30 | 8.33 | 1790 | 11200 (1990) | 102 (1945) | 1530 | 174 | 273 | 396 | 450 | 870 | 1760 | 1980 | 3740 | 6240 |
| 2026-02-16 18:00 | 8.35 | 1810 | 11200 (1990) | 102 (1945) | 1530 | 174 | 273 | 396 | 450 | 870 | 1760 | 1980 | 3740 | 6240 |
| 2026-02-16 17:30 | 8.38 | 1840 | 11200 (1990) | 102 (1945) | 1530 | 174 | 273 | 396 | 450 | 870 | 1760 | 1980 | 3740 | 6240 |
| 2026-02-16 17:00 | 8.39 | 1850 | 11200 (1990) | 102 (1945) | 1530 | 174 | 273 | 396 | 450 | 870 | 1760 | 1980 | 3740 | 6240 |
| 2026-02-16 16:30 | 8.41 | 1870 | 11200 (1990) | 102 (1945) | 1530 | 174 | 273 | 396 | 450 | 870 | 1760 | 1980 | 3740 | 6240 |
| 2026-02-16 16:00 | 8.44 | 1900 | 11200 (1990) | 102 (1945) | 1530 | 174 | 273 | 396 | 450 | 870 | 1760 | 1980 | 3740 | 6240 |
| 2026-02-16 15:30 | 8.46 | 1920 | 11200 (1990) | 102 (1945) | 1530 | 174 | 273 | 396 | 450 | 870 | 1760 | 1980 | 3740 | 6240 |
| 2026-02-16 15:00 | 8.49 | 1950 | 11200 (1990) | 102 (1945) | 1530 | 174 | 273 | 396 | 450 | 870 | 1760 | 1980 | 3740 | 6240 |
| 2026-02-16 14:30 | 8.51 | 1970 | 11200 (1990) | 102 (1945) | 1530 | 174 | 273 | 396 | 450 | 870 | 1760 | 1980 | 3740 | 6240 |
| 2026-02-16 14:00 | 8.54 | 2000 | 11200 (1990) | 102 (1945) | 1530 | 174 | 273 | 396 | 450 | 870 | 1760 | 1980 | 3740 | 6240 |
| 2026-02-16 13:30 | 8.57 | 2030 | 11200 (1990) | 102 (1945) | 1530 | 174 | 273 | 396 | 450 | 870 | 1760 | 1980 | 3740 | 6240 |
| 2026-02-16 13:00 | 8.59 | 2050 | 11200 (1990) | 102 (1945) | 1530 | 174 | 273 | 396 | 450 | 870 | 1760 | 1980 | 3740 | 6240 |
| 2026-02-16 12:30 | 8.62 | 2080 | 11200 (1990) | 102 (1945) | 1530 | 174 | 273 | 396 | 450 | 870 | 1760 | 1980 | 3740 | 6240 |
| 2026-02-16 12:00 | 8.64 | 2100 | 11200 (1990) | 102 (1945) | 1530 | 174 | 273 | 396 | 450 | 870 | 1760 | 1980 | 3740 | 6240 |
| 2026-02-16 11:30 | 8.67 | 2130 | 11200 (1990) | 102 (1945) | 1530 | 174 | 273 | 396 | 450 | 870 | 1760 | 1980 | 3740 | 6240 |
| 2026-02-16 11:00 | 8.69 | 2150 | 11200 (1990) | 102 (1945) | 1530 | 174 | 273 | 396 | 450 | 870 | 1760 | 1980 | 3740 | 6240 |
| 2026-02-16 10:30 | 8.72 | 2180 | 11200 (1990) | 102 (1945) | 1530 | 174 | 273 | 396 | 450 | 870 | 1760 | 1980 | 3740 | 6240 |
| 2026-02-16 10:00 | 8.76 | 2220 | 11200 (1990) | 102 (1945) | 1530 | 174 | 273 | 396 | 450 | 870 | 1760 | 1980 | 3740 | 6240 |
| 2026-02-16 09:30 | 8.78 | 2250 | 11200 (1990) | 102 (1945) | 1530 | 174 | 273 | 396 | 450 | 870 | 1760 | 1980 | 3740 | 6240 |
| 2026-02-16 09:00 | 8.80 | 2270 | 11200 (1990) | 102 (1945) | 1530 | 174 | 273 | 396 | 450 | 870 | 1760 | 1980 | 3740 | 6240 |
| 2026-02-16 08:30 | 8.83 | 2300 | 11200 (1990) | 102 (1945) | 1530 | 174 | 273 | 396 | 450 | 870 | 1760 | 1980 | 3740 | 6240 |
| 2026-02-16 08:00 | 8.87 | 2340 | 11200 (1990) | 102 (1945) | 1530 | 174 | 273 | 396 | 450 | 870 | 1760 | 1980 | 3740 | 6240 |
| 2026-02-16 07:30 | 8.90 | 2380 | 11200 (1990) | 102 (1945) | 1530 | 174 | 273 | 396 | 450 | 870 | 1760 | 1980 | 3740 | 6240 |
| 2026-02-16 07:00 | 8.92 | 2400 | 11200 (1990) | 102 (1945) | 1530 | 174 | 273 | 396 | 450 | 870 | 1760 | 1980 | 3740 | 6240 |
| 2026-02-16 06:30 | 8.95 | 2430 | 11200 (1990) | 102 (1945) | 1530 | 174 | 273 | 396 | 450 | 870 | 1760 | 1980 | 3740 | 6240 |
| 2026-02-16 06:00 | 8.97 | 2450 | 11200 (1990) | 102 (1945) | 1530 | 174 | 273 | 396 | 450 | 870 | 1760 | 1980 | 3740 | 6240 |
| 2026-02-16 05:30 | 9.00 | 2490 | 11200 (1990) | 102 (1945) | 1530 | 174 | 273 | 396 | 450 | 870 | 1760 | 1980 | 3740 | 6240 |
| 2026-02-16 05:00 | 9.01 | 2500 | 11200 (1990) | 102 (1945) | 1530 | 174 | 273 | 396 | 450 | 870 | 1760 | 1980 | 3740 | 6240 |
| 2026-02-16 04:30 | 9.03 | 2520 | 11200 (1990) | 102 (1945) | 1530 | 174 | 273 | 396 | 450 | 870 | 1760 | 1980 | 3740 | 6240 |
| 2026-02-16 04:00 | 9.03 | 2520 | 11200 (1990) | 102 (1945) | 1530 | 174 | 273 | 396 | 450 | 870 | 1760 | 1980 | 3740 | 6240 |
| 2026-02-16 03:30 | 9.05 | 2550 | 11200 (1990) | 102 (1945) | 1530 | 174 | 273 | 396 | 450 | 870 | 1760 | 1980 | 3740 | 6240 |
| 2026-02-16 03:00 | 9.05 | 2550 | 11200 (1990) | 102 (1945) | 1530 | 174 | 273 | 396 | 450 | 870 | 1760 | 1980 | 3740 | 6240 |
| 2026-02-16 02:30 | 9.05 | 2550 | 11200 (1990) | 102 (1945) | 1530 | 174 | 273 | 396 | 450 | 870 | 1760 | 1980 | 3740 | 6240 |
| 2026-02-16 02:00 | 9.04 | 2530 | 11200 (1990) | 102 (1945) | 1530 | 174 | 273 | 396 | 450 | 870 | 1760 | 1980 | 3740 | 6240 |
| 2026-02-16 01:30 | 9.02 | 2510 | 11200 (1990) | 102 (1945) | 1530 | 174 | 273 | 396 | 450 | 870 | 1760 | 1980 | 3740 | 6240 |
| 2026-02-16 01:00 | 9.01 | 2500 | 11200 (1990) | 102 (1945) | 1530 | 174 | 273 | 396 | 450 | 870 | 1760 | 1980 | 3740 | 6240 |
| 2026-02-16 00:30 | 8.97 | 2450 | 11200 (1990) | 102 (1945) | 1530 | 174 | 273 | 396 | 450 | 870 | 1760 | 1980 | 3740 | 6240 |
| 2026-02-16 00:00 | 8.94 | 2420 | 11200 (1990) | 102 (1945) | 1530 | 174 | 273 | 396 | 450 | 870 | 1760 | 1980 | 3740 | 6240 |
| 2026-02-15 23:30 | 8.90 | 2380 | 11200 (1990) | 102 (1945) | 1530 | 174 | 273 | 396 | 450 | 870 | 1760 | 1980 | 3740 | 6240 |
| 2026-02-15 23:00 | 8.85 | 2320 | 11200 (1990) | 102 (1945) | 1530 | 174 | 273 | 396 | 450 | 870 | 1760 | 1980 | 3740 | 6240 |
| 2026-02-15 22:30 | 8.78 | 2250 | 19200 (1949) | 95 (1945) | 1610 | 148 | 284 | 385 | 453 | 780 | 1630 | 1930 | 2990 | 6270 |
| 2026-02-15 22:00 | 8.72 | 2180 | 19200 (1949) | 95 (1945) | 1610 | 148 | 284 | 385 | 453 | 780 | 1630 | 1930 | 2990 | 6270 |
| 2026-02-15 21:30 | 8.64 | 2100 | 19200 (1949) | 95 (1945) | 1610 | 148 | 284 | 385 | 453 | 780 | 1630 | 1930 | 2990 | 6270 |
| 2026-02-15 21:00 | 8.56 | 2020 | 19200 (1949) | 95 (1945) | 1610 | 148 | 284 | 385 | 453 | 780 | 1630 | 1930 | 2990 | 6270 |
| 2026-02-15 20:30 | 8.47 | 1930 | 19200 (1949) | 95 (1945) | 1610 | 148 | 284 | 385 | 453 | 780 | 1630 | 1930 | 2990 | 6270 |
| 2026-02-15 20:00 | 8.38 | 1840 | 19200 (1949) | 95 (1945) | 1610 | 148 | 284 | 385 | 453 | 780 | 1630 | 1930 | 2990 | 6270 |
| 2026-02-15 19:30 | 8.30 | 1760 | 19200 (1949) | 95 (1945) | 1610 | 148 | 284 | 385 | 453 | 780 | 1630 | 1930 | 2990 | 6270 |
| 2026-02-15 19:00 | 8.22 | 1690 | 19200 (1949) | 95 (1945) | 1610 | 148 | 284 | 385 | 453 | 780 | 1630 | 1930 | 2990 | 6270 |
| 2026-02-15 18:30 | 8.13 | 1610 | 19200 (1949) | 95 (1945) | 1610 | 148 | 284 | 385 | 453 | 780 | 1630 | 1930 | 2990 | 6270 |
| 2026-02-15 18:00 | 8.04 | 1530 | 19200 (1949) | 95 (1945) | 1610 | 148 | 284 | 385 | 453 | 780 | 1630 | 1930 | 2990 | 6270 |
| 2026-02-15 17:30 | 7.91 | 1420 | 19200 (1949) | 95 (1945) | 1610 | 148 | 284 | 385 | 453 | 780 | 1630 | 1930 | 2990 | 6270 |
| 2026-02-15 17:00 | 7.79 | 1330 | 19200 (1949) | 95 (1945) | 1610 | 148 | 284 | 385 | 453 | 780 | 1630 | 1930 | 2990 | 6270 |
| 2026-02-15 16:30 | 7.68 | 1260 | 19200 (1949) | 95 (1945) | 1610 | 148 | 284 | 385 | 453 | 780 | 1630 | 1930 | 2990 | 6270 |
| 2026-02-15 16:00 | 7.55 | 1170 | 19200 (1949) | 95 (1945) | 1610 | 148 | 284 | 385 | 453 | 780 | 1630 | 1930 | 2990 | 6270 |
| 2026-02-15 15:30 | 7.40 | 1080 | 19200 (1949) | 95 (1945) | 1610 | 148 | 284 | 385 | 453 | 780 | 1630 | 1930 | 2990 | 6270 |
| 2026-02-15 15:00 | 7.25 | 991 | 19200 (1949) | 95 (1945) | 1610 | 148 | 284 | 385 | 453 | 780 | 1630 | 1930 | 2990 | 6270 |
| 2026-02-15 14:30 | 7.15 | 935 | 19200 (1949) | 95 (1945) | 1610 | 148 | 284 | 385 | 453 | 780 | 1630 | 1930 | 2990 | 6270 |
| 2026-02-15 14:00 | 6.99 | 848 | 19200 (1949) | 95 (1945) | 1610 | 148 | 284 | 385 | 453 | 780 | 1630 | 1930 | 2990 | 6270 |
| 2026-02-15 13:30 | 6.84 | 771 | 19200 (1949) | 95 (1945) | 1610 | 148 | 284 | 385 | 453 | 780 | 1630 | 1930 | 2990 | 6270 |
| 2026-02-15 13:00 | 6.73 | 718 | 19200 (1949) | 95 (1945) | 1610 | 148 | 284 | 385 | 453 | 780 | 1630 | 1930 | 2990 | 6270 |
| 2026-02-15 12:30 | 6.59 | 653 | 19200 (1949) | 95 (1945) | 1610 | 148 | 284 | 385 | 453 | 780 | 1630 | 1930 | 2990 | 6270 |
| 2026-02-15 12:00 | 6.46 | 595 | 19200 (1949) | 95 (1945) | 1610 | 148 | 284 | 385 | 453 | 780 | 1630 | 1930 | 2990 | 6270 |
| 2026-02-15 11:30 | 6.38 | 561 | 19200 (1949) | 95 (1945) | 1610 | 148 | 284 | 385 | 453 | 780 | 1630 | 1930 | 2990 | 6270 |
| 2026-02-15 11:00 | 6.28 | 521 | 19200 (1949) | 95 (1945) | 1610 | 148 | 284 | 385 | 453 | 780 | 1630 | 1930 | 2990 | 6270 |
| 2026-02-15 10:30 | 6.23 | 501 | 19200 (1949) | 95 (1945) | 1610 | 148 | 284 | 385 | 453 | 780 | 1630 | 1930 | 2990 | 6270 |
| 2026-02-15 10:00 | 6.18 | 482 | 19200 (1949) | 95 (1945) | 1610 | 148 | 284 | 385 | 453 | 780 | 1630 | 1930 | 2990 | 6270 |
| 2026-02-15 09:30 | 6.14 | 467 | 19200 (1949) | 95 (1945) | 1610 | 148 | 284 | 385 | 453 | 780 | 1630 | 1930 | 2990 | 6270 |
| 2026-02-15 09:00 | 6.11 | 455 | 19200 (1949) | 95 (1945) | 1610 | 148 | 284 | 385 | 453 | 780 | 1630 | 1930 | 2990 | 6270 |
| 2026-02-15 08:30 | 6.09 | 448 | 19200 (1949) | 95 (1945) | 1610 | 148 | 284 | 385 | 453 | 780 | 1630 | 1930 | 2990 | 6270 |
| 2026-02-15 08:00 | 6.05 | 434 | 19200 (1949) | 95 (1945) | 1610 | 148 | 284 | 385 | 453 | 780 | 1630 | 1930 | 2990 | 6270 |
| 2026-02-15 07:30 | 6.05 | 434 | 19200 (1949) | 95 (1945) | 1610 | 148 | 284 | 385 | 453 | 780 | 1630 | 1930 | 2990 | 6270 |
| 2026-02-15 07:00 | 6.03 | 426 | 19200 (1949) | 95 (1945) | 1610 | 148 | 284 | 385 | 453 | 780 | 1630 | 1930 | 2990 | 6270 |
| 2026-02-15 06:30 | 6.01 | 419 | 19200 (1949) | 95 (1945) | 1610 | 148 | 284 | 385 | 453 | 780 | 1630 | 1930 | 2990 | 6270 |
| 2026-02-15 06:00 | 6.00 | 416 | 19200 (1949) | 95 (1945) | 1610 | 148 | 284 | 385 | 453 | 780 | 1630 | 1930 | 2990 | 6270 |
| 2026-02-15 05:30 | 5.99 | 412 | 19200 (1949) | 95 (1945) | 1610 | 148 | 284 | 385 | 453 | 780 | 1630 | 1930 | 2990 | 6270 |
| 2026-02-15 05:00 | 5.98 | 409 | 19200 (1949) | 95 (1945) | 1610 | 148 | 284 | 385 | 453 | 780 | 1630 | 1930 | 2990 | 6270 |
| 2026-02-15 04:30 | 5.97 | 405 | 19200 (1949) | 95 (1945) | 1610 | 148 | 284 | 385 | 453 | 780 | 1630 | 1930 | 2990 | 6270 |
| 2026-02-15 04:00 | 5.96 | 402 | 19200 (1949) | 95 (1945) | 1610 | 148 | 284 | 385 | 453 | 780 | 1630 | 1930 | 2990 | 6270 |
| 2026-02-15 03:30 | 5.95 | 398 | 19200 (1949) | 95 (1945) | 1610 | 148 | 284 | 385 | 453 | 780 | 1630 | 1930 | 2990 | 6270 |
| 2026-02-15 03:00 | 5.95 | 398 | 19200 (1949) | 95 (1945) | 1610 | 148 | 284 | 385 | 453 | 780 | 1630 | 1930 | 2990 | 6270 |
| 2026-02-15 02:30 | 5.94 | 395 | 19200 (1949) | 95 (1945) | 1610 | 148 | 284 | 385 | 453 | 780 | 1630 | 1930 | 2990 | 6270 |
| 2026-02-15 02:00 | 5.93 | 392 | 19200 (1949) | 95 (1945) | 1610 | 148 | 284 | 385 | 453 | 780 | 1630 | 1930 | 2990 | 6270 |
| 2026-02-15 01:30 | 5.92 | 388 | 19200 (1949) | 95 (1945) | 1610 | 148 | 284 | 385 | 453 | 780 | 1630 | 1930 | 2990 | 6270 |
| 2026-02-15 01:00 | 5.92 | 388 | 19200 (1949) | 95 (1945) | 1610 | 148 | 284 | 385 | 453 | 780 | 1630 | 1930 | 2990 | 6270 |
| 2026-02-15 00:30 | 5.91 | 385 | 19200 (1949) | 95 (1945) | 1610 | 148 | 284 | 385 | 453 | 780 | 1630 | 1930 | 2990 | 6270 |
| 2026-02-15 00:00 | 5.90 | 381 | 19200 (1949) | 95 (1945) | 1610 | 148 | 284 | 385 | 453 | 780 | 1630 | 1930 | 2990 | 6270 |
| 2026-02-14 23:30 | 5.90 | 381 | 19200 (1949) | 95 (1945) | 1610 | 148 | 284 | 385 | 453 | 780 | 1630 | 1930 | 2990 | 6270 |
| 2026-02-14 23:00 | 5.90 | 381 | 19200 (1949) | 95 (1945) | 1610 | 148 | 284 | 385 | 453 | 780 | 1630 | 1930 | 2990 | 6270 |
| 2026-02-14 22:30 | 5.89 | 378 | 34900 (1946) | 91 (1945) | 1810 | 146 | 272 | 388 | 446 | 710 | 1400 | 1690 | 2900 | 4990 |
| 2026-02-14 22:00 | 5.89 | 378 | 34900 (1946) | 91 (1945) | 1810 | 146 | 272 | 388 | 446 | 710 | 1400 | 1690 | 2900 | 4990 |
| 2026-02-14 21:30 | 5.88 | 375 | 34900 (1946) | 91 (1945) | 1810 | 146 | 272 | 388 | 446 | 710 | 1400 | 1690 | 2900 | 4990 |
| 2026-02-14 21:00 | 5.87 | 372 | 34900 (1946) | 91 (1945) | 1810 | 146 | 272 | 388 | 446 | 710 | 1400 | 1690 | 2900 | 4990 |
| 2026-02-14 20:30 | 5.87 | 372 | 34900 (1946) | 91 (1945) | 1810 | 146 | 272 | 388 | 446 | 710 | 1400 | 1690 | 2900 | 4990 |
| 2026-02-14 20:00 | 5.86 | 368 | 34900 (1946) | 91 (1945) | 1810 | 146 | 272 | 388 | 446 | 710 | 1400 | 1690 | 2900 | 4990 |
| 2026-02-14 19:30 | 5.85 | 365 | 34900 (1946) | 91 (1945) | 1810 | 146 | 272 | 388 | 446 | 710 | 1400 | 1690 | 2900 | 4990 |
| 2026-02-14 19:00 | 5.85 | 365 | 34900 (1946) | 91 (1945) | 1810 | 146 | 272 | 388 | 446 | 710 | 1400 | 1690 | 2900 | 4990 |
| 2026-02-14 18:30 | 5.84 | 362 | 34900 (1946) | 91 (1945) | 1810 | 146 | 272 | 388 | 446 | 710 | 1400 | 1690 | 2900 | 4990 |
| 2026-02-14 18:00 | 5.83 | 358 | 34900 (1946) | 91 (1945) | 1810 | 146 | 272 | 388 | 446 | 710 | 1400 | 1690 | 2900 | 4990 |
| 2026-02-14 17:30 | 5.83 | 358 | 34900 (1946) | 91 (1945) | 1810 | 146 | 272 | 388 | 446 | 710 | 1400 | 1690 | 2900 | 4990 |
| 2026-02-14 17:00 | 5.82 | 355 | 34900 (1946) | 91 (1945) | 1810 | 146 | 272 | 388 | 446 | 710 | 1400 | 1690 | 2900 | 4990 |
| 2026-02-14 16:30 | 5.81 | 352 | 34900 (1946) | 91 (1945) | 1810 | 146 | 272 | 388 | 446 | 710 | 1400 | 1690 | 2900 | 4990 |
| 2026-02-14 16:00 | 5.81 | 352 | 34900 (1946) | 91 (1945) | 1810 | 146 | 272 | 388 | 446 | 710 | 1400 | 1690 | 2900 | 4990 |
| 2026-02-14 15:30 | 5.81 | 352 | 34900 (1946) | 91 (1945) | 1810 | 146 | 272 | 388 | 446 | 710 | 1400 | 1690 | 2900 | 4990 |
| 2026-02-14 15:00 | 5.80 | 349 | 34900 (1946) | 91 (1945) | 1810 | 146 | 272 | 388 | 446 | 710 | 1400 | 1690 | 2900 | 4990 |
| 2026-02-14 14:30 | 5.80 | 349 | 34900 (1946) | 91 (1945) | 1810 | 146 | 272 | 388 | 446 | 710 | 1400 | 1690 | 2900 | 4990 |
| 2026-02-14 14:00 | 5.80 | 349 | 34900 (1946) | 91 (1945) | 1810 | 146 | 272 | 388 | 446 | 710 | 1400 | 1690 | 2900 | 4990 |
| 2026-02-14 13:30 | 5.78 | 343 | 34900 (1946) | 91 (1945) | 1810 | 146 | 272 | 388 | 446 | 710 | 1400 | 1690 | 2900 | 4990 |
| 2026-02-14 13:00 | 5.77 | 339 | 34900 (1946) | 91 (1945) | 1810 | 146 | 272 | 388 | 446 | 710 | 1400 | 1690 | 2900 | 4990 |
| 2026-02-14 12:30 | 5.76 | 336 | 34900 (1946) | 91 (1945) | 1810 | 146 | 272 | 388 | 446 | 710 | 1400 | 1690 | 2900 | 4990 |
| 2026-02-14 12:00 | 5.77 | 339 | 34900 (1946) | 91 (1945) | 1810 | 146 | 272 | 388 | 446 | 710 | 1400 | 1690 | 2900 | 4990 |
| 2026-02-14 11:30 | 5.73 | 327 | 34900 (1946) | 91 (1945) | 1810 | 146 | 272 | 388 | 446 | 710 | 1400 | 1690 | 2900 | 4990 |
| 2026-02-14 11:00 | 5.73 | 327 | 34900 (1946) | 91 (1945) | 1810 | 146 | 272 | 388 | 446 | 710 | 1400 | 1690 | 2900 | 4990 |
| 2026-02-14 10:30 | 5.72 | 324 | 34900 (1946) | 91 (1945) | 1810 | 146 | 272 | 388 | 446 | 710 | 1400 | 1690 | 2900 | 4990 |
| 2026-02-14 10:00 | 5.75 | 333 | 34900 (1946) | 91 (1945) | 1810 | 146 | 272 | 388 | 446 | 710 | 1400 | 1690 | 2900 | 4990 |
| 2026-02-14 09:30 | 5.75 | 333 | 34900 (1946) | 91 (1945) | 1810 | 146 | 272 | 388 | 446 | 710 | 1400 | 1690 | 2900 | 4990 |
| 2026-02-14 09:00 | 5.75 | 333 | 34900 (1946) | 91 (1945) | 1810 | 146 | 272 | 388 | 446 | 710 | 1400 | 1690 | 2900 | 4990 |
| 2026-02-14 08:30 | 5.75 | 333 | 34900 (1946) | 91 (1945) | 1810 | 146 | 272 | 388 | 446 | 710 | 1400 | 1690 | 2900 | 4990 |
| 2026-02-14 08:00 | 5.75 | 333 | 34900 (1946) | 91 (1945) | 1810 | 146 | 272 | 388 | 446 | 710 | 1400 | 1690 | 2900 | 4990 |
| 2026-02-14 07:30 | 5.76 | 336 | 34900 (1946) | 91 (1945) | 1810 | 146 | 272 | 388 | 446 | 710 | 1400 | 1690 | 2900 | 4990 |
| 2026-02-14 07:00 | 5.75 | 333 | 34900 (1946) | 91 (1945) | 1810 | 146 | 272 | 388 | 446 | 710 | 1400 | 1690 | 2900 | 4990 |
| 2026-02-14 06:30 | 5.75 | 333 | 34900 (1946) | 91 (1945) | 1810 | 146 | 272 | 388 | 446 | 710 | 1400 | 1690 | 2900 | 4990 |
| 2026-02-14 06:00 | 5.76 | 336 | 34900 (1946) | 91 (1945) | 1810 | 146 | 272 | 388 | 446 | 710 | 1400 | 1690 | 2900 | 4990 |
| 2026-02-14 05:30 | 5.76 | 336 | 34900 (1946) | 91 (1945) | 1810 | 146 | 272 | 388 | 446 | 710 | 1400 | 1690 | 2900 | 4990 |
| 2026-02-14 05:00 | 5.76 | 336 | 34900 (1946) | 91 (1945) | 1810 | 146 | 272 | 388 | 446 | 710 | 1400 | 1690 | 2900 | 4990 |
| 2026-02-14 04:30 | 5.76 | 336 | 34900 (1946) | 91 (1945) | 1810 | 146 | 272 | 388 | 446 | 710 | 1400 | 1690 | 2900 | 4990 |
| 2026-02-14 04:00 | 5.76 | 336 | 34900 (1946) | 91 (1945) | 1810 | 146 | 272 | 388 | 446 | 710 | 1400 | 1690 | 2900 | 4990 |
| 2026-02-14 03:30 | 5.76 | 336 | 34900 (1946) | 91 (1945) | 1810 | 146 | 272 | 388 | 446 | 710 | 1400 | 1690 | 2900 | 4990 |
| 2026-02-14 03:00 | 5.76 | 336 | 34900 (1946) | 91 (1945) | 1810 | 146 | 272 | 388 | 446 | 710 | 1400 | 1690 | 2900 | 4990 |
| 2026-02-14 02:30 | 5.77 | 339 | 34900 (1946) | 91 (1945) | 1810 | 146 | 272 | 388 | 446 | 710 | 1400 | 1690 | 2900 | 4990 |
| 2026-02-14 02:00 | 5.77 | 339 | 34900 (1946) | 91 (1945) | 1810 | 146 | 272 | 388 | 446 | 710 | 1400 | 1690 | 2900 | 4990 |
| 2026-02-14 01:30 | 5.77 | 339 | 34900 (1946) | 91 (1945) | 1810 | 146 | 272 | 388 | 446 | 710 | 1400 | 1690 | 2900 | 4990 |
| 2026-02-14 01:00 | 5.77 | 339 | 34900 (1946) | 91 (1945) | 1810 | 146 | 272 | 388 | 446 | 710 | 1400 | 1690 | 2900 | 4990 |
| 2026-02-14 00:30 | 5.77 | 339 | 34900 (1946) | 91 (1945) | 1810 | 146 | 272 | 388 | 446 | 710 | 1400 | 1690 | 2900 | 4990 |
| 2026-02-14 00:00 | 5.77 | 339 | 34900 (1946) | 91 (1945) | 1810 | 146 | 272 | 388 | 446 | 710 | 1400 | 1690 | 2900 | 4990 |
| 2026-02-13 23:30 | 5.77 | 339 | 34900 (1946) | 91 (1945) | 1810 | 146 | 272 | 388 | 446 | 710 | 1400 | 1690 | 2900 | 4990 |
| 2026-02-13 23:00 | 5.78 | 343 | 34900 (1946) | 91 (1945) | 1810 | 146 | 272 | 388 | 446 | 710 | 1400 | 1690 | 2900 | 4990 |
| 2026-02-13 22:30 | 5.78 | 343 | 32600 (1950) | 88 (1945) | 1510 | 140 | 219 | 384 | 410 | 780 | 1420 | 1630 | 2260 | 5480 |
| 2026-02-13 22:00 | 5.78 | 343 | 32600 (1950) | 88 (1945) | 1510 | 140 | 219 | 384 | 410 | 780 | 1420 | 1630 | 2260 | 5480 |
| 2026-02-13 21:30 | 5.78 | 343 | 32600 (1950) | 88 (1945) | 1510 | 140 | 219 | 384 | 410 | 780 | 1420 | 1630 | 2260 | 5480 |
| 2026-02-13 21:00 | 5.78 | 343 | 32600 (1950) | 88 (1945) | 1510 | 140 | 219 | 384 | 410 | 780 | 1420 | 1630 | 2260 | 5480 |
| 2026-02-13 20:30 | 5.78 | 343 | 32600 (1950) | 88 (1945) | 1510 | 140 | 219 | 384 | 410 | 780 | 1420 | 1630 | 2260 | 5480 |
| 2026-02-13 20:00 | 5.78 | 343 | 32600 (1950) | 88 (1945) | 1510 | 140 | 219 | 384 | 410 | 780 | 1420 | 1630 | 2260 | 5480 |
| 2026-02-13 19:30 | 5.78 | 343 | 32600 (1950) | 88 (1945) | 1510 | 140 | 219 | 384 | 410 | 780 | 1420 | 1630 | 2260 | 5480 |
| 2026-02-13 19:00 | 5.79 | 346 | 32600 (1950) | 88 (1945) | 1510 | 140 | 219 | 384 | 410 | 780 | 1420 | 1630 | 2260 | 5480 |
| 2026-02-13 18:30 | 5.78 | 343 | 32600 (1950) | 88 (1945) | 1510 | 140 | 219 | 384 | 410 | 780 | 1420 | 1630 | 2260 | 5480 |
| 2026-02-13 18:00 | 5.79 | 346 | 32600 (1950) | 88 (1945) | 1510 | 140 | 219 | 384 | 410 | 780 | 1420 | 1630 | 2260 | 5480 |
| 2026-02-13 17:30 | 5.79 | 346 | 32600 (1950) | 88 (1945) | 1510 | 140 | 219 | 384 | 410 | 780 | 1420 | 1630 | 2260 | 5480 |
| 2026-02-13 17:00 | 5.79 | 346 | 32600 (1950) | 88 (1945) | 1510 | 140 | 219 | 384 | 410 | 780 | 1420 | 1630 | 2260 | 5480 |
| 2026-02-13 16:30 | 5.78 | 343 | 32600 (1950) | 88 (1945) | 1510 | 140 | 219 | 384 | 410 | 780 | 1420 | 1630 | 2260 | 5480 |
| 2026-02-13 16:00 | 5.79 | 346 | 32600 (1950) | 88 (1945) | 1510 | 140 | 219 | 384 | 410 | 780 | 1420 | 1630 | 2260 | 5480 |
| 2026-02-13 15:30 | 5.78 | 343 | 32600 (1950) | 88 (1945) | 1510 | 140 | 219 | 384 | 410 | 780 | 1420 | 1630 | 2260 | 5480 |
| 2026-02-13 15:00 | 5.79 | 346 | 32600 (1950) | 88 (1945) | 1510 | 140 | 219 | 384 | 410 | 780 | 1420 | 1630 | 2260 | 5480 |
| 2026-02-13 14:30 | 5.79 | 346 | 32600 (1950) | 88 (1945) | 1510 | 140 | 219 | 384 | 410 | 780 | 1420 | 1630 | 2260 | 5480 |
| 2026-02-13 14:00 | 5.78 | 343 | 32600 (1950) | 88 (1945) | 1510 | 140 | 219 | 384 | 410 | 780 | 1420 | 1630 | 2260 | 5480 |
| 2026-02-13 13:30 | 5.78 | 343 | 32600 (1950) | 88 (1945) | 1510 | 140 | 219 | 384 | 410 | 780 | 1420 | 1630 | 2260 | 5480 |
| 2026-02-13 13:00 | 5.79 | 346 | 32600 (1950) | 88 (1945) | 1510 | 140 | 219 | 384 | 410 | 780 | 1420 | 1630 | 2260 | 5480 |
| 2026-02-13 12:30 | 5.76 | 336 | 32600 (1950) | 88 (1945) | 1510 | 140 | 219 | 384 | 410 | 780 | 1420 | 1630 | 2260 | 5480 |
| 2026-02-13 12:00 | 5.80 | 349 | 32600 (1950) | 88 (1945) | 1510 | 140 | 219 | 384 | 410 | 780 | 1420 | 1630 | 2260 | 5480 |
| 2026-02-13 11:30 | 5.80 | 349 | 32600 (1950) | 88 (1945) | 1510 | 140 | 219 | 384 | 410 | 780 | 1420 | 1630 | 2260 | 5480 |
| 2026-02-13 11:00 | 5.80 | 349 | 32600 (1950) | 88 (1945) | 1510 | 140 | 219 | 384 | 410 | 780 | 1420 | 1630 | 2260 | 5480 |
| 2026-02-13 10:30 | 5.78 | 343 | 32600 (1950) | 88 (1945) | 1510 | 140 | 219 | 384 | 410 | 780 | 1420 | 1630 | 2260 | 5480 |
| 2026-02-13 10:00 | 5.81 | 352 | 32600 (1950) | 88 (1945) | 1510 | 140 | 219 | 384 | 410 | 780 | 1420 | 1630 | 2260 | 5480 |
| 2026-02-13 09:30 | 5.81 | 352 | 32600 (1950) | 88 (1945) | 1510 | 140 | 219 | 384 | 410 | 780 | 1420 | 1630 | 2260 | 5480 |
| 2026-02-13 09:00 | 5.82 | 355 | 32600 (1950) | 88 (1945) | 1510 | 140 | 219 | 384 | 410 | 780 | 1420 | 1630 | 2260 | 5480 |
| 2026-02-13 08:30 | 5.82 | 355 | 32600 (1950) | 88 (1945) | 1510 | 140 | 219 | 384 | 410 | 780 | 1420 | 1630 | 2260 | 5480 |
| 2026-02-13 08:00 | 5.82 | 355 | 32600 (1950) | 88 (1945) | 1510 | 140 | 219 | 384 | 410 | 780 | 1420 | 1630 | 2260 | 5480 |
| 2026-02-13 07:30 | 5.82 | 355 | 32600 (1950) | 88 (1945) | 1510 | 140 | 219 | 384 | 410 | 780 | 1420 | 1630 | 2260 | 5480 |
| 2026-02-13 07:00 | 5.82 | 355 | 32600 (1950) | 88 (1945) | 1510 | 140 | 219 | 384 | 410 | 780 | 1420 | 1630 | 2260 | 5480 |
| 2026-02-13 06:30 | 5.83 | 358 | 32600 (1950) | 88 (1945) | 1510 | 140 | 219 | 384 | 410 | 780 | 1420 | 1630 | 2260 | 5480 |
| 2026-02-13 06:00 | 5.83 | 358 | 32600 (1950) | 88 (1945) | 1510 | 140 | 219 | 384 | 410 | 780 | 1420 | 1630 | 2260 | 5480 |
| 2026-02-13 05:30 | 5.83 | 358 | 32600 (1950) | 88 (1945) | 1510 | 140 | 219 | 384 | 410 | 780 | 1420 | 1630 | 2260 | 5480 |
| 2026-02-13 05:00 | 5.83 | 358 | 32600 (1950) | 88 (1945) | 1510 | 140 | 219 | 384 | 410 | 780 | 1420 | 1630 | 2260 | 5480 |
| 2026-02-13 04:30 | 5.83 | 358 | 32600 (1950) | 88 (1945) | 1510 | 140 | 219 | 384 | 410 | 780 | 1420 | 1630 | 2260 | 5480 |
| 2026-02-13 04:00 | 5.83 | 358 | 32600 (1950) | 88 (1945) | 1510 | 140 | 219 | 384 | 410 | 780 | 1420 | 1630 | 2260 | 5480 |
| 2026-02-13 03:30 | 5.83 | 358 | 32600 (1950) | 88 (1945) | 1510 | 140 | 219 | 384 | 410 | 780 | 1420 | 1630 | 2260 | 5480 |
| 2026-02-13 03:00 | 5.84 | 362 | 32600 (1950) | 88 (1945) | 1510 | 140 | 219 | 384 | 410 | 780 | 1420 | 1630 | 2260 | 5480 |
| 2026-02-13 02:30 | 5.84 | 362 | 32600 (1950) | 88 (1945) | 1510 | 140 | 219 | 384 | 410 | 780 | 1420 | 1630 | 2260 | 5480 |
| 2026-02-13 02:00 | 5.84 | 362 | 32600 (1950) | 88 (1945) | 1510 | 140 | 219 | 384 | 410 | 780 | 1420 | 1630 | 2260 | 5480 |
| 2026-02-13 01:30 | 5.84 | 362 | 32600 (1950) | 88 (1945) | 1510 | 140 | 219 | 384 | 410 | 780 | 1420 | 1630 | 2260 | 5480 |
| 2026-02-13 01:00 | 5.84 | 362 | 32600 (1950) | 88 (1945) | 1510 | 140 | 219 | 384 | 410 | 780 | 1420 | 1630 | 2260 | 5480 |
| 2026-02-13 00:30 | 5.84 | 362 | 32600 (1950) | 88 (1945) | 1510 | 140 | 219 | 384 | 410 | 780 | 1420 | 1630 | 2260 | 5480 |
| 2026-02-13 00:00 | 5.84 | 362 | 32600 (1950) | 88 (1945) | 1510 | 140 | 219 | 384 | 410 | 780 | 1420 | 1630 | 2260 | 5480 |
| 2026-02-12 23:30 | 5.84 | 362 | 32600 (1950) | 88 (1945) | 1510 | 140 | 219 | 384 | 410 | 780 | 1420 | 1630 | 2260 | 5480 |
| 2026-02-12 23:00 | 5.84 | 362 | 32600 (1950) | 88 (1945) | 1510 | 140 | 219 | 384 | 410 | 780 | 1420 | 1630 | 2260 | 5480 |
| 2026-02-12 22:30 | 5.84 | 362 | 16300 (2009) | 83 (1945) | 1210 | 135 | 178 | 352 | 418 | 759 | 1310 | 1570 | 2330 | 2690 |
| 2026-02-12 22:00 | 5.85 | 365 | 16300 (2009) | 83 (1945) | 1210 | 135 | 178 | 352 | 418 | 759 | 1310 | 1570 | 2330 | 2690 |
| 2026-02-12 21:30 | 5.84 | 362 | 16300 (2009) | 83 (1945) | 1210 | 135 | 178 | 352 | 418 | 759 | 1310 | 1570 | 2330 | 2690 |
| 2026-02-12 21:00 | 5.85 | 365 | 16300 (2009) | 83 (1945) | 1210 | 135 | 178 | 352 | 418 | 759 | 1310 | 1570 | 2330 | 2690 |
| 2026-02-12 20:30 | 5.85 | 365 | 16300 (2009) | 83 (1945) | 1210 | 135 | 178 | 352 | 418 | 759 | 1310 | 1570 | 2330 | 2690 |
| 2026-02-12 20:00 | 5.85 | 365 | 16300 (2009) | 83 (1945) | 1210 | 135 | 178 | 352 | 418 | 759 | 1310 | 1570 | 2330 | 2690 |
| 2026-02-12 19:30 | 5.85 | 365 | 16300 (2009) | 83 (1945) | 1210 | 135 | 178 | 352 | 418 | 759 | 1310 | 1570 | 2330 | 2690 |
| 2026-02-12 19:00 | 5.85 | 365 | 16300 (2009) | 83 (1945) | 1210 | 135 | 178 | 352 | 418 | 759 | 1310 | 1570 | 2330 | 2690 |
| 2026-02-12 18:30 | 5.85 | 365 | 16300 (2009) | 83 (1945) | 1210 | 135 | 178 | 352 | 418 | 759 | 1310 | 1570 | 2330 | 2690 |
| 2026-02-12 18:00 | 5.85 | 365 | 16300 (2009) | 83 (1945) | 1210 | 135 | 178 | 352 | 418 | 759 | 1310 | 1570 | 2330 | 2690 |
| 2026-02-12 17:30 | 5.85 | 365 | 16300 (2009) | 83 (1945) | 1210 | 135 | 178 | 352 | 418 | 759 | 1310 | 1570 | 2330 | 2690 |
| 2026-02-12 17:00 | 5.85 | 365 | 16300 (2009) | 83 (1945) | 1210 | 135 | 178 | 352 | 418 | 759 | 1310 | 1570 | 2330 | 2690 |
| 2026-02-12 16:30 | 5.85 | 365 | 16300 (2009) | 83 (1945) | 1210 | 135 | 178 | 352 | 418 | 759 | 1310 | 1570 | 2330 | 2690 |
| 2026-02-12 16:00 | 5.86 | 368 | 16300 (2009) | 83 (1945) | 1210 | 135 | 178 | 352 | 418 | 759 | 1310 | 1570 | 2330 | 2690 |
| 2026-02-12 15:30 | 5.86 | 368 | 16300 (2009) | 83 (1945) | 1210 | 135 | 178 | 352 | 418 | 759 | 1310 | 1570 | 2330 | 2690 |
| 2026-02-12 15:00 | 5.83 | 358 | 16300 (2009) | 83 (1945) | 1210 | 135 | 178 | 352 | 418 | 759 | 1310 | 1570 | 2330 | 2690 |
| 2026-02-12 14:30 | 5.83 | 358 | 16300 (2009) | 83 (1945) | 1210 | 135 | 178 | 352 | 418 | 759 | 1310 | 1570 | 2330 | 2690 |
| 2026-02-12 14:00 | 5.83 | 358 | 16300 (2009) | 83 (1945) | 1210 | 135 | 178 | 352 | 418 | 759 | 1310 | 1570 | 2330 | 2690 |
| 2026-02-12 13:30 | 5.84 | 362 | 16300 (2009) | 83 (1945) | 1210 | 135 | 178 | 352 | 418 | 759 | 1310 | 1570 | 2330 | 2690 |
| 2026-02-12 13:00 | 5.83 | 358 | 16300 (2009) | 83 (1945) | 1210 | 135 | 178 | 352 | 418 | 759 | 1310 | 1570 | 2330 | 2690 |
| 2026-02-12 12:30 | 5.82 | 355 | 16300 (2009) | 83 (1945) | 1210 | 135 | 178 | 352 | 418 | 759 | 1310 | 1570 | 2330 | 2690 |
| 2026-02-12 12:00 | 5.84 | 362 | 16300 (2009) | 83 (1945) | 1210 | 135 | 178 | 352 | 418 | 759 | 1310 | 1570 | 2330 | 2690 |
| 2026-02-12 11:30 | 5.84 | 362 | 16300 (2009) | 83 (1945) | 1210 | 135 | 178 | 352 | 418 | 759 | 1310 | 1570 | 2330 | 2690 |
| 2026-02-12 11:00 | 5.85 | 365 | 16300 (2009) | 83 (1945) | 1210 | 135 | 178 | 352 | 418 | 759 | 1310 | 1570 | 2330 | 2690 |
| 2026-02-12 10:30 | 5.82 | 355 | 16300 (2009) | 83 (1945) | 1210 | 135 | 178 | 352 | 418 | 759 | 1310 | 1570 | 2330 | 2690 |
| 2026-02-12 10:00 | 5.86 | 368 | 16300 (2009) | 83 (1945) | 1210 | 135 | 178 | 352 | 418 | 759 | 1310 | 1570 | 2330 | 2690 |
| 2026-02-12 09:30 | 5.86 | 368 | 16300 (2009) | 83 (1945) | 1210 | 135 | 178 | 352 | 418 | 759 | 1310 | 1570 | 2330 | 2690 |
| 2026-02-12 09:00 | 5.86 | 368 | 16300 (2009) | 83 (1945) | 1210 | 135 | 178 | 352 | 418 | 759 | 1310 | 1570 | 2330 | 2690 |
| 2026-02-12 08:30 | 5.87 | 372 | 16300 (2009) | 83 (1945) | 1210 | 135 | 178 | 352 | 418 | 759 | 1310 | 1570 | 2330 | 2690 |
| 2026-02-12 08:00 | 5.87 | 372 | 16300 (2009) | 83 (1945) | 1210 | 135 | 178 | 352 | 418 | 759 | 1310 | 1570 | 2330 | 2690 |
| 2026-02-12 07:30 | 5.87 | 372 | 16300 (2009) | 83 (1945) | 1210 | 135 | 178 | 352 | 418 | 759 | 1310 | 1570 | 2330 | 2690 |
| 2026-02-12 07:00 | 5.87 | 372 | 16300 (2009) | 83 (1945) | 1210 | 135 | 178 | 352 | 418 | 759 | 1310 | 1570 | 2330 | 2690 |
| 2026-02-12 06:30 | 5.87 | 372 | 16300 (2009) | 83 (1945) | 1210 | 135 | 178 | 352 | 418 | 759 | 1310 | 1570 | 2330 | 2690 |
| 2026-02-12 06:00 | 5.87 | 372 | 16300 (2009) | 83 (1945) | 1210 | 135 | 178 | 352 | 418 | 759 | 1310 | 1570 | 2330 | 2690 |
| 2026-02-12 05:30 | 5.87 | 372 | 16300 (2009) | 83 (1945) | 1210 | 135 | 178 | 352 | 418 | 759 | 1310 | 1570 | 2330 | 2690 |
| 2026-02-12 05:00 | 5.87 | 372 | 16300 (2009) | 83 (1945) | 1210 | 135 | 178 | 352 | 418 | 759 | 1310 | 1570 | 2330 | 2690 |
| 2026-02-12 04:30 | 5.87 | 372 | 16300 (2009) | 83 (1945) | 1210 | 135 | 178 | 352 | 418 | 759 | 1310 | 1570 | 2330 | 2690 |
| 2026-02-12 04:00 | 5.87 | 372 | 16300 (2009) | 83 (1945) | 1210 | 135 | 178 | 352 | 418 | 759 | 1310 | 1570 | 2330 | 2690 |
| 2026-02-12 03:30 | 5.87 | 372 | 16300 (2009) | 83 (1945) | 1210 | 135 | 178 | 352 | 418 | 759 | 1310 | 1570 | 2330 | 2690 |
| 2026-02-12 03:00 | 5.87 | 372 | 16300 (2009) | 83 (1945) | 1210 | 135 | 178 | 352 | 418 | 759 | 1310 | 1570 | 2330 | 2690 |
| 2026-02-12 02:30 | 5.87 | 372 | 16300 (2009) | 83 (1945) | 1210 | 135 | 178 | 352 | 418 | 759 | 1310 | 1570 | 2330 | 2690 |
| 2026-02-12 02:00 | 5.87 | 372 | 16300 (2009) | 83 (1945) | 1210 | 135 | 178 | 352 | 418 | 759 | 1310 | 1570 | 2330 | 2690 |
| 2026-02-12 01:30 | 5.87 | 372 | 16300 (2009) | 83 (1945) | 1210 | 135 | 178 | 352 | 418 | 759 | 1310 | 1570 | 2330 | 2690 |
| 2026-02-12 01:00 | 5.87 | 372 | 16300 (2009) | 83 (1945) | 1210 | 135 | 178 | 352 | 418 | 759 | 1310 | 1570 | 2330 | 2690 |
| 2026-02-12 00:30 | 5.87 | 372 | 16300 (2009) | 83 (1945) | 1210 | 135 | 178 | 352 | 418 | 759 | 1310 | 1570 | 2330 | 2690 |
| 2026-02-12 00:00 | 5.87 | 372 | 16300 (2009) | 83 (1945) | 1210 | 135 | 178 | 352 | 418 | 759 | 1310 | 1570 | 2330 | 2690 |
| 2026-02-11 23:30 | 5.87 | 372 | 16300 (2009) | 83 (1945) | 1210 | 135 | 178 | 352 | 418 | 759 | 1310 | 1570 | 2330 | 2690 |
| 2026-02-11 23:00 | 5.87 | 372 | 16300 (2009) | 83 (1945) | 1210 | 135 | 178 | 352 | 418 | 759 | 1310 | 1570 | 2330 | 2690 |
| 2026-02-11 22:30 | 5.87 | 372 | 20800 (1966) | 83 (1945) | 1410 | 137 | 177 | 350 | 412 | 776 | 1150 | 1640 | 3060 | 4020 |
| 2026-02-11 22:00 | 5.86 | 368 | 20800 (1966) | 83 (1945) | 1410 | 137 | 177 | 350 | 412 | 776 | 1150 | 1640 | 3060 | 4020 |
| 2026-02-11 21:30 | 5.86 | 368 | 20800 (1966) | 83 (1945) | 1410 | 137 | 177 | 350 | 412 | 776 | 1150 | 1640 | 3060 | 4020 |
| 2026-02-11 21:00 | 5.86 | 368 | 20800 (1966) | 83 (1945) | 1410 | 137 | 177 | 350 | 412 | 776 | 1150 | 1640 | 3060 | 4020 |
| 2026-02-11 20:30 | 5.86 | 368 | 20800 (1966) | 83 (1945) | 1410 | 137 | 177 | 350 | 412 | 776 | 1150 | 1640 | 3060 | 4020 |
| 2026-02-11 20:00 | 5.86 | 368 | 20800 (1966) | 83 (1945) | 1410 | 137 | 177 | 350 | 412 | 776 | 1150 | 1640 | 3060 | 4020 |
| 2026-02-11 19:30 | 5.86 | 368 | 20800 (1966) | 83 (1945) | 1410 | 137 | 177 | 350 | 412 | 776 | 1150 | 1640 | 3060 | 4020 |
| 2026-02-11 19:00 | 5.86 | 368 | 20800 (1966) | 83 (1945) | 1410 | 137 | 177 | 350 | 412 | 776 | 1150 | 1640 | 3060 | 4020 |
| 2026-02-11 18:30 | 5.86 | 368 | 20800 (1966) | 83 (1945) | 1410 | 137 | 177 | 350 | 412 | 776 | 1150 | 1640 | 3060 | 4020 |
| 2026-02-11 18:00 | 5.85 | 365 | 20800 (1966) | 83 (1945) | 1410 | 137 | 177 | 350 | 412 | 776 | 1150 | 1640 | 3060 | 4020 |
| 2026-02-11 17:30 | 5.85 | 365 | 20800 (1966) | 83 (1945) | 1410 | 137 | 177 | 350 | 412 | 776 | 1150 | 1640 | 3060 | 4020 |
| 2026-02-11 17:00 | 5.85 | 365 | 20800 (1966) | 83 (1945) | 1410 | 137 | 177 | 350 | 412 | 776 | 1150 | 1640 | 3060 | 4020 |
| 2026-02-11 16:30 | 5.85 | 365 | 20800 (1966) | 83 (1945) | 1410 | 137 | 177 | 350 | 412 | 776 | 1150 | 1640 | 3060 | 4020 |
| 2026-02-11 16:00 | 5.85 | 365 | 20800 (1966) | 83 (1945) | 1410 | 137 | 177 | 350 | 412 | 776 | 1150 | 1640 | 3060 | 4020 |
| 2026-02-11 15:30 | 5.85 | 365 | 20800 (1966) | 83 (1945) | 1410 | 137 | 177 | 350 | 412 | 776 | 1150 | 1640 | 3060 | 4020 |
| 2026-02-11 15:00 | 5.85 | 365 | 20800 (1966) | 83 (1945) | 1410 | 137 | 177 | 350 | 412 | 776 | 1150 | 1640 | 3060 | 4020 |
| 2026-02-11 14:30 | 5.85 | 365 | 20800 (1966) | 83 (1945) | 1410 | 137 | 177 | 350 | 412 | 776 | 1150 | 1640 | 3060 | 4020 |
| 2026-02-11 14:00 | 5.84 | 362 | 20800 (1966) | 83 (1945) | 1410 | 137 | 177 | 350 | 412 | 776 | 1150 | 1640 | 3060 | 4020 |
| 2026-02-11 13:30 | 5.84 | 362 | 20800 (1966) | 83 (1945) | 1410 | 137 | 177 | 350 | 412 | 776 | 1150 | 1640 | 3060 | 4020 |
| 2026-02-11 13:00 | 5.83 | 358 | 20800 (1966) | 83 (1945) | 1410 | 137 | 177 | 350 | 412 | 776 | 1150 | 1640 | 3060 | 4020 |
| 2026-02-11 12:30 | 5.84 | 362 | 20800 (1966) | 83 (1945) | 1410 | 137 | 177 | 350 | 412 | 776 | 1150 | 1640 | 3060 | 4020 |
| 2026-02-11 12:00 | 5.84 | 362 | 20800 (1966) | 83 (1945) | 1410 | 137 | 177 | 350 | 412 | 776 | 1150 | 1640 | 3060 | 4020 |
| 2026-02-11 11:30 | 5.79 | 346 | 20800 (1966) | 83 (1945) | 1410 | 137 | 177 | 350 | 412 | 776 | 1150 | 1640 | 3060 | 4020 |
| 2026-02-11 11:00 | 5.83 | 358 | 20800 (1966) | 83 (1945) | 1410 | 137 | 177 | 350 | 412 | 776 | 1150 | 1640 | 3060 | 4020 |
| 2026-02-11 10:30 | 5.83 | 358 | 20800 (1966) | 83 (1945) | 1410 | 137 | 177 | 350 | 412 | 776 | 1150 | 1640 | 3060 | 4020 |
| 2026-02-11 10:00 | 5.83 | 358 | 20800 (1966) | 83 (1945) | 1410 | 137 | 177 | 350 | 412 | 776 | 1150 | 1640 | 3060 | 4020 |
| 2026-02-11 09:00 | 5.80 | 349 | 20800 (1966) | 83 (1945) | 1410 | 137 | 177 | 350 | 412 | 776 | 1150 | 1640 | 3060 | 4020 |
| 2026-02-11 08:30 | 5.77 | 339 | 20800 (1966) | 83 (1945) | 1410 | 137 | 177 | 350 | 412 | 776 | 1150 | 1640 | 3060 | 4020 |
| 2026-02-11 08:00 | 5.82 | 355 | 20800 (1966) | 83 (1945) | 1410 | 137 | 177 | 350 | 412 | 776 | 1150 | 1640 | 3060 | 4020 |
| 2026-02-11 07:30 | 5.82 | 355 | 20800 (1966) | 83 (1945) | 1410 | 137 | 177 | 350 | 412 | 776 | 1150 | 1640 | 3060 | 4020 |
| 2026-02-11 07:00 | 5.82 | 355 | 20800 (1966) | 83 (1945) | 1410 | 137 | 177 | 350 | 412 | 776 | 1150 | 1640 | 3060 | 4020 |
| 2026-02-11 06:30 | 5.81 | 352 | 20800 (1966) | 83 (1945) | 1410 | 137 | 177 | 350 | 412 | 776 | 1150 | 1640 | 3060 | 4020 |
| 2026-02-11 06:00 | 5.81 | 352 | 20800 (1966) | 83 (1945) | 1410 | 137 | 177 | 350 | 412 | 776 | 1150 | 1640 | 3060 | 4020 |
| 2026-02-11 05:30 | 5.81 | 352 | 20800 (1966) | 83 (1945) | 1410 | 137 | 177 | 350 | 412 | 776 | 1150 | 1640 | 3060 | 4020 |
| 2026-02-11 05:00 | 5.81 | 352 | 20800 (1966) | 83 (1945) | 1410 | 137 | 177 | 350 | 412 | 776 | 1150 | 1640 | 3060 | 4020 |
| 2026-02-11 04:30 | 5.80 | 349 | 20800 (1966) | 83 (1945) | 1410 | 137 | 177 | 350 | 412 | 776 | 1150 | 1640 | 3060 | 4020 |
| 2026-02-11 04:00 | 5.80 | 349 | 20800 (1966) | 83 (1945) | 1410 | 137 | 177 | 350 | 412 | 776 | 1150 | 1640 | 3060 | 4020 |
| 2026-02-11 03:30 | 5.80 | 349 | 20800 (1966) | 83 (1945) | 1410 | 137 | 177 | 350 | 412 | 776 | 1150 | 1640 | 3060 | 4020 |
| 2026-02-11 03:00 | 5.78 | 343 | 20800 (1966) | 83 (1945) | 1410 | 137 | 177 | 350 | 412 | 776 | 1150 | 1640 | 3060 | 4020 |
| 2026-02-11 02:30 | 5.78 | 343 | 20800 (1966) | 83 (1945) | 1410 | 137 | 177 | 350 | 412 | 776 | 1150 | 1640 | 3060 | 4020 |
| 2026-02-11 02:00 | 5.78 | 343 | 20800 (1966) | 83 (1945) | 1410 | 137 | 177 | 350 | 412 | 776 | 1150 | 1640 | 3060 | 4020 |
| 2026-02-11 01:30 | 5.78 | 343 | 20800 (1966) | 83 (1945) | 1410 | 137 | 177 | 350 | 412 | 776 | 1150 | 1640 | 3060 | 4020 |
| 2026-02-11 01:00 | 5.75 | 333 | 20800 (1966) | 83 (1945) | 1410 | 137 | 177 | 350 | 412 | 776 | 1150 | 1640 | 3060 | 4020 |
| 2026-02-11 00:30 | 5.77 | 339 | 20800 (1966) | 83 (1945) | 1410 | 137 | 177 | 350 | 412 | 776 | 1150 | 1640 | 3060 | 4020 |
| 2026-02-11 00:00 | 5.75 | 333 | 20800 (1966) | 83 (1945) | 1410 | 137 | 177 | 350 | 412 | 776 | 1150 | 1640 | 3060 | 4020 |
| 2026-02-10 23:30 | 5.75 | 333 | 20800 (1966) | 83 (1945) | 1410 | 137 | 177 | 350 | 412 | 776 | 1150 | 1640 | 3060 | 4020 |
| 2026-02-10 23:00 | 5.72 | 324 | 20800 (1966) | 83 (1945) | 1410 | 137 | 177 | 350 | 412 | 776 | 1150 | 1640 | 3060 | 4020 |
| 2026-02-10 22:30 | 5.76 | 336 | 26600 (1966) | 85 (1945) | 1390 | 134 | 180 | 351 | 388 | 785 | 1300 | 1500 | 2890 | 3890 |
| 2026-02-10 22:00 | 5.75 | 333 | 26600 (1966) | 85 (1945) | 1390 | 134 | 180 | 351 | 388 | 785 | 1300 | 1500 | 2890 | 3890 |
| 2026-02-10 21:30 | 5.75 | 333 | 26600 (1966) | 85 (1945) | 1390 | 134 | 180 | 351 | 388 | 785 | 1300 | 1500 | 2890 | 3890 |
| 2026-02-10 21:00 | 5.75 | 333 | 26600 (1966) | 85 (1945) | 1390 | 134 | 180 | 351 | 388 | 785 | 1300 | 1500 | 2890 | 3890 |
| 2026-02-10 20:30 | 5.74 | 330 | 26600 (1966) | 85 (1945) | 1390 | 134 | 180 | 351 | 388 | 785 | 1300 | 1500 | 2890 | 3890 |
| 2026-02-10 20:00 | 5.74 | 330 | 26600 (1966) | 85 (1945) | 1390 | 134 | 180 | 351 | 388 | 785 | 1300 | 1500 | 2890 | 3890 |
| 2026-02-10 19:30 | 5.73 | 327 | 26600 (1966) | 85 (1945) | 1390 | 134 | 180 | 351 | 388 | 785 | 1300 | 1500 | 2890 | 3890 |
| 2026-02-10 19:00 | 5.71 | 321 | 26600 (1966) | 85 (1945) | 1390 | 134 | 180 | 351 | 388 | 785 | 1300 | 1500 | 2890 | 3890 |
| 2026-02-10 18:30 | 5.70 | 318 | 26600 (1966) | 85 (1945) | 1390 | 134 | 180 | 351 | 388 | 785 | 1300 | 1500 | 2890 | 3890 |
| 2026-02-10 18:00 | 5.73 | 327 | 26600 (1966) | 85 (1945) | 1390 | 134 | 180 | 351 | 388 | 785 | 1300 | 1500 | 2890 | 3890 |
| 2026-02-10 17:30 | 5.72 | 324 | 26600 (1966) | 85 (1945) | 1390 | 134 | 180 | 351 | 388 | 785 | 1300 | 1500 | 2890 | 3890 |
| 2026-02-10 17:00 | 5.72 | 324 | 26600 (1966) | 85 (1945) | 1390 | 134 | 180 | 351 | 388 | 785 | 1300 | 1500 | 2890 | 3890 |
| 2026-02-10 16:30 | 5.71 | 321 | 26600 (1966) | 85 (1945) | 1390 | 134 | 180 | 351 | 388 | 785 | 1300 | 1500 | 2890 | 3890 |
| 2026-02-10 16:00 | 5.67 | 309 | 26600 (1966) | 85 (1945) | 1390 | 134 | 180 | 351 | 388 | 785 | 1300 | 1500 | 2890 | 3890 |
| 2026-02-10 15:30 | 5.65 | 303 | 26600 (1966) | 85 (1945) | 1390 | 134 | 180 | 351 | 388 | 785 | 1300 | 1500 | 2890 | 3890 |
| 2026-02-10 15:00 | 5.66 | 306 | 26600 (1966) | 85 (1945) | 1390 | 134 | 180 | 351 | 388 | 785 | 1300 | 1500 | 2890 | 3890 |
| 2026-02-10 14:30 | 5.67 | 309 | 26600 (1966) | 85 (1945) | 1390 | 134 | 180 | 351 | 388 | 785 | 1300 | 1500 | 2890 | 3890 |
| 2026-02-10 14:00 | 5.68 | 312 | 26600 (1966) | 85 (1945) | 1390 | 134 | 180 | 351 | 388 | 785 | 1300 | 1500 | 2890 | 3890 |
| 2026-02-10 13:30 | 5.70 | 318 | 26600 (1966) | 85 (1945) | 1390 | 134 | 180 | 351 | 388 | 785 | 1300 | 1500 | 2890 | 3890 |
| 2026-02-10 13:00 | 5.70 | 318 | 26600 (1966) | 85 (1945) | 1390 | 134 | 180 | 351 | 388 | 785 | 1300 | 1500 | 2890 | 3890 |
| 2026-02-10 12:30 | 5.70 | 318 | 26600 (1966) | 85 (1945) | 1390 | 134 | 180 | 351 | 388 | 785 | 1300 | 1500 | 2890 | 3890 |
| 2026-02-10 12:00 | 5.70 | 318 | 26600 (1966) | 85 (1945) | 1390 | 134 | 180 | 351 | 388 | 785 | 1300 | 1500 | 2890 | 3890 |
| 2026-02-10 11:30 | 5.70 | 318 | 26600 (1966) | 85 (1945) | 1390 | 134 | 180 | 351 | 388 | 785 | 1300 | 1500 | 2890 | 3890 |
| 2026-02-10 11:00 | 5.70 | 318 | 26600 (1966) | 85 (1945) | 1390 | 134 | 180 | 351 | 388 | 785 | 1300 | 1500 | 2890 | 3890 |
| 2026-02-10 10:30 | 5.70 | 318 | 26600 (1966) | 85 (1945) | 1390 | 134 | 180 | 351 | 388 | 785 | 1300 | 1500 | 2890 | 3890 |
| 2026-02-10 10:00 | 5.70 | 318 | 26600 (1966) | 85 (1945) | 1390 | 134 | 180 | 351 | 388 | 785 | 1300 | 1500 | 2890 | 3890 |
| 2026-02-10 09:30 | 5.69 | 315 | 26600 (1966) | 85 (1945) | 1390 | 134 | 180 | 351 | 388 | 785 | 1300 | 1500 | 2890 | 3890 |
| 2026-02-10 09:00 | 5.69 | 315 | 26600 (1966) | 85 (1945) | 1390 | 134 | 180 | 351 | 388 | 785 | 1300 | 1500 | 2890 | 3890 |
| 2026-02-10 08:30 | 5.69 | 315 | 26600 (1966) | 85 (1945) | 1390 | 134 | 180 | 351 | 388 | 785 | 1300 | 1500 | 2890 | 3890 |
| 2026-02-10 08:00 | 5.69 | 315 | 26600 (1966) | 85 (1945) | 1390 | 134 | 180 | 351 | 388 | 785 | 1300 | 1500 | 2890 | 3890 |
| 2026-02-10 07:30 | 5.68 | 312 | 26600 (1966) | 85 (1945) | 1390 | 134 | 180 | 351 | 388 | 785 | 1300 | 1500 | 2890 | 3890 |
| 2026-02-10 07:00 | 5.68 | 312 | 26600 (1966) | 85 (1945) | 1390 | 134 | 180 | 351 | 388 | 785 | 1300 | 1500 | 2890 | 3890 |
| 2026-02-10 06:30 | 5.68 | 312 | 26600 (1966) | 85 (1945) | 1390 | 134 | 180 | 351 | 388 | 785 | 1300 | 1500 | 2890 | 3890 |
| 2026-02-10 06:00 | 5.68 | 312 | 26600 (1966) | 85 (1945) | 1390 | 134 | 180 | 351 | 388 | 785 | 1300 | 1500 | 2890 | 3890 |
| 2026-02-10 05:30 | 5.67 | 309 | 26600 (1966) | 85 (1945) | 1390 | 134 | 180 | 351 | 388 | 785 | 1300 | 1500 | 2890 | 3890 |
| 2026-02-10 05:00 | 5.67 | 309 | 26600 (1966) | 85 (1945) | 1390 | 134 | 180 | 351 | 388 | 785 | 1300 | 1500 | 2890 | 3890 |
| 2026-02-10 04:30 | 5.67 | 309 | 26600 (1966) | 85 (1945) | 1390 | 134 | 180 | 351 | 388 | 785 | 1300 | 1500 | 2890 | 3890 |
| 2026-02-10 04:00 | 5.67 | 309 | 26600 (1966) | 85 (1945) | 1390 | 134 | 180 | 351 | 388 | 785 | 1300 | 1500 | 2890 | 3890 |
| 2026-02-10 03:30 | 5.66 | 306 | 26600 (1966) | 85 (1945) | 1390 | 134 | 180 | 351 | 388 | 785 | 1300 | 1500 | 2890 | 3890 |
| 2026-02-10 03:00 | 5.66 | 306 | 26600 (1966) | 85 (1945) | 1390 | 134 | 180 | 351 | 388 | 785 | 1300 | 1500 | 2890 | 3890 |
| 2026-02-10 02:30 | 5.66 | 306 | 26600 (1966) | 85 (1945) | 1390 | 134 | 180 | 351 | 388 | 785 | 1300 | 1500 | 2890 | 3890 |
| 2026-02-10 02:00 | 5.65 | 303 | 26600 (1966) | 85 (1945) | 1390 | 134 | 180 | 351 | 388 | 785 | 1300 | 1500 | 2890 | 3890 |
| 2026-02-10 01:30 | 5.65 | 303 | 26600 (1966) | 85 (1945) | 1390 | 134 | 180 | 351 | 388 | 785 | 1300 | 1500 | 2890 | 3890 |
| 2026-02-10 01:00 | 5.65 | 303 | 26600 (1966) | 85 (1945) | 1390 | 134 | 180 | 351 | 388 | 785 | 1300 | 1500 | 2890 | 3890 |
| 2026-02-10 00:30 | 5.64 | 300 | 26600 (1966) | 85 (1945) | 1390 | 134 | 180 | 351 | 388 | 785 | 1300 | 1500 | 2890 | 3890 |
| 2026-02-10 00:00 | 5.64 | 300 | 26600 (1966) | 85 (1945) | 1390 | 134 | 180 | 351 | 388 | 785 | 1300 | 1500 | 2890 | 3890 |
| 2026-02-09 23:30 | 5.63 | 297 | 26600 (1966) | 85 (1945) | 1390 | 134 | 180 | 351 | 388 | 785 | 1300 | 1500 | 2890 | 3890 |
| 2026-02-09 23:00 | 5.63 | 297 | 26600 (1966) | 85 (1945) | 1390 | 134 | 180 | 351 | 388 | 785 | 1300 | 1500 | 2890 | 3890 |
| 2026-02-09 22:30 | 5.63 | 297 | 11500 (1937) | 85 (1945) | 1200 | 137 | 182 | 377 | 416 | 713 | 1260 | 1500 | 2540 | 4340 |
| 2026-02-09 22:00 | 5.62 | 294 | 11500 (1937) | 85 (1945) | 1200 | 137 | 182 | 377 | 416 | 713 | 1260 | 1500 | 2540 | 4340 |
| 2026-02-09 21:30 | 5.62 | 294 | 11500 (1937) | 85 (1945) | 1200 | 137 | 182 | 377 | 416 | 713 | 1260 | 1500 | 2540 | 4340 |
| 2026-02-09 21:00 | 5.61 | 291 | 11500 (1937) | 85 (1945) | 1200 | 137 | 182 | 377 | 416 | 713 | 1260 | 1500 | 2540 | 4340 |
| 2026-02-09 20:30 | 5.61 | 291 | 11500 (1937) | 85 (1945) | 1200 | 137 | 182 | 377 | 416 | 713 | 1260 | 1500 | 2540 | 4340 |
| 2026-02-09 20:00 | 5.61 | 291 | 11500 (1937) | 85 (1945) | 1200 | 137 | 182 | 377 | 416 | 713 | 1260 | 1500 | 2540 | 4340 |
| 2026-02-09 19:30 | 5.60 | 289 | 11500 (1937) | 85 (1945) | 1200 | 137 | 182 | 377 | 416 | 713 | 1260 | 1500 | 2540 | 4340 |
| 2026-02-09 19:00 | 5.60 | 289 | 11500 (1937) | 85 (1945) | 1200 | 137 | 182 | 377 | 416 | 713 | 1260 | 1500 | 2540 | 4340 |
| 2026-02-09 18:30 | 5.59 | 286 | 11500 (1937) | 85 (1945) | 1200 | 137 | 182 | 377 | 416 | 713 | 1260 | 1500 | 2540 | 4340 |
| 2026-02-09 18:00 | 5.59 | 286 | 11500 (1937) | 85 (1945) | 1200 | 137 | 182 | 377 | 416 | 713 | 1260 | 1500 | 2540 | 4340 |
| 2026-02-09 17:30 | 5.59 | 286 | 11500 (1937) | 85 (1945) | 1200 | 137 | 182 | 377 | 416 | 713 | 1260 | 1500 | 2540 | 4340 |
| 2026-02-09 17:00 | 5.58 | 283 | 11500 (1937) | 85 (1945) | 1200 | 137 | 182 | 377 | 416 | 713 | 1260 | 1500 | 2540 | 4340 |
| 2026-02-09 16:30 | 5.58 | 283 | 11500 (1937) | 85 (1945) | 1200 | 137 | 182 | 377 | 416 | 713 | 1260 | 1500 | 2540 | 4340 |
| 2026-02-09 16:00 | 5.57 | 280 | 11500 (1937) | 85 (1945) | 1200 | 137 | 182 | 377 | 416 | 713 | 1260 | 1500 | 2540 | 4340 |
| 2026-02-09 15:30 | 5.57 | 280 | 11500 (1937) | 85 (1945) | 1200 | 137 | 182 | 377 | 416 | 713 | 1260 | 1500 | 2540 | 4340 |
| 2026-02-09 15:00 | 5.56 | 277 | 11500 (1937) | 85 (1945) | 1200 | 137 | 182 | 377 | 416 | 713 | 1260 | 1500 | 2540 | 4340 |
| 2026-02-09 14:30 | 5.56 | 277 | 11500 (1937) | 85 (1945) | 1200 | 137 | 182 | 377 | 416 | 713 | 1260 | 1500 | 2540 | 4340 |
| 2026-02-09 14:00 | 5.55 | 275 | 11500 (1937) | 85 (1945) | 1200 | 137 | 182 | 377 | 416 | 713 | 1260 | 1500 | 2540 | 4340 |
| 2026-02-09 13:30 | 5.55 | 275 | 11500 (1937) | 85 (1945) | 1200 | 137 | 182 | 377 | 416 | 713 | 1260 | 1500 | 2540 | 4340 |
| 2026-02-09 13:00 | 5.55 | 275 | 11500 (1937) | 85 (1945) | 1200 | 137 | 182 | 377 | 416 | 713 | 1260 | 1500 | 2540 | 4340 |
| 2026-02-09 12:30 | 5.54 | 272 | 11500 (1937) | 85 (1945) | 1200 | 137 | 182 | 377 | 416 | 713 | 1260 | 1500 | 2540 | 4340 |
| 2026-02-09 12:00 | 5.54 | 272 | 11500 (1937) | 85 (1945) | 1200 | 137 | 182 | 377 | 416 | 713 | 1260 | 1500 | 2540 | 4340 |
| 2026-02-09 11:30 | 5.53 | 269 | 11500 (1937) | 85 (1945) | 1200 | 137 | 182 | 377 | 416 | 713 | 1260 | 1500 | 2540 | 4340 |
| 2026-02-09 11:00 | 5.53 | 269 | 11500 (1937) | 85 (1945) | 1200 | 137 | 182 | 377 | 416 | 713 | 1260 | 1500 | 2540 | 4340 |
| 2026-02-09 10:30 | 5.52 | 266 | 11500 (1937) | 85 (1945) | 1200 | 137 | 182 | 377 | 416 | 713 | 1260 | 1500 | 2540 | 4340 |
| 2026-02-09 10:00 | 5.52 | 266 | 11500 (1937) | 85 (1945) | 1200 | 137 | 182 | 377 | 416 | 713 | 1260 | 1500 | 2540 | 4340 |
| 2026-02-09 09:30 | 5.52 | 266 | 11500 (1937) | 85 (1945) | 1200 | 137 | 182 | 377 | 416 | 713 | 1260 | 1500 | 2540 | 4340 |
| 2026-02-09 09:00 | 5.51 | 264 | 11500 (1937) | 85 (1945) | 1200 | 137 | 182 | 377 | 416 | 713 | 1260 | 1500 | 2540 | 4340 |
| 2026-02-09 08:30 | 5.51 | 264 | 11500 (1937) | 85 (1945) | 1200 | 137 | 182 | 377 | 416 | 713 | 1260 | 1500 | 2540 | 4340 |
| 2026-02-09 08:00 | 5.51 | 264 | 11500 (1937) | 85 (1945) | 1200 | 137 | 182 | 377 | 416 | 713 | 1260 | 1500 | 2540 | 4340 |
| 2026-02-09 07:30 | 5.51 | 264 | 11500 (1937) | 85 (1945) | 1200 | 137 | 182 | 377 | 416 | 713 | 1260 | 1500 | 2540 | 4340 |
| 2026-02-09 07:00 | 5.50 | 261 | 11500 (1937) | 85 (1945) | 1200 | 137 | 182 | 377 | 416 | 713 | 1260 | 1500 | 2540 | 4340 |
| 2026-02-09 06:30 | 5.50 | 261 | 11500 (1937) | 85 (1945) | 1200 | 137 | 182 | 377 | 416 | 713 | 1260 | 1500 | 2540 | 4340 |
| 2026-02-09 06:00 | 5.50 | 261 | 11500 (1937) | 85 (1945) | 1200 | 137 | 182 | 377 | 416 | 713 | 1260 | 1500 | 2540 | 4340 |
| 2026-02-09 05:30 | 5.49 | 258 | 11500 (1937) | 85 (1945) | 1200 | 137 | 182 | 377 | 416 | 713 | 1260 | 1500 | 2540 | 4340 |
| 2026-02-09 05:00 | 5.49 | 258 | 11500 (1937) | 85 (1945) | 1200 | 137 | 182 | 377 | 416 | 713 | 1260 | 1500 | 2540 | 4340 |
| 2026-02-09 04:30 | 5.48 | 256 | 11500 (1937) | 85 (1945) | 1200 | 137 | 182 | 377 | 416 | 713 | 1260 | 1500 | 2540 | 4340 |
| 2026-02-09 04:00 | 5.48 | 256 | 11500 (1937) | 85 (1945) | 1200 | 137 | 182 | 377 | 416 | 713 | 1260 | 1500 | 2540 | 4340 |
| 2026-02-09 03:30 | 5.47 | 253 | 11500 (1937) | 85 (1945) | 1200 | 137 | 182 | 377 | 416 | 713 | 1260 | 1500 | 2540 | 4340 |
| 2026-02-09 03:00 | 5.47 | 253 | 11500 (1937) | 85 (1945) | 1200 | 137 | 182 | 377 | 416 | 713 | 1260 | 1500 | 2540 | 4340 |
| 2026-02-09 02:30 | 5.46 | 250 | 11500 (1937) | 85 (1945) | 1200 | 137 | 182 | 377 | 416 | 713 | 1260 | 1500 | 2540 | 4340 |
| 2026-02-09 02:00 | 5.46 | 250 | 11500 (1937) | 85 (1945) | 1200 | 137 | 182 | 377 | 416 | 713 | 1260 | 1500 | 2540 | 4340 |
| 2026-02-09 01:30 | 5.45 | 248 | 11500 (1937) | 85 (1945) | 1200 | 137 | 182 | 377 | 416 | 713 | 1260 | 1500 | 2540 | 4340 |
| 2026-02-09 01:00 | 5.45 | 248 | 11500 (1937) | 85 (1945) | 1200 | 137 | 182 | 377 | 416 | 713 | 1260 | 1500 | 2540 | 4340 |
| 2026-02-09 00:30 | 5.45 | 248 | 11500 (1937) | 85 (1945) | 1200 | 137 | 182 | 377 | 416 | 713 | 1260 | 1500 | 2540 | 4340 |
| 2026-02-09 00:00 | 5.44 | 245 | 11500 (1937) | 85 (1945) | 1200 | 137 | 182 | 377 | 416 | 713 | 1260 | 1500 | 2540 | 4340 |
| 2026-02-08 23:30 | 5.44 | 245 | 11500 (1937) | 85 (1945) | 1200 | 137 | 182 | 377 | 416 | 713 | 1260 | 1500 | 2540 | 4340 |
| 2026-02-08 23:00 | 5.43 | 242 | 11500 (1937) | 85 (1945) | 1200 | 137 | 182 | 377 | 416 | 713 | 1260 | 1500 | 2540 | 4340 |
| 2026-02-08 22:30 | 5.43 | 242 | 23900 (1999) | 88 (1945) | 1360 | 137 | 176 | 342 | 396 | 759 | 1350 | 1460 | 2280 | 3420 |
| 2026-02-08 22:00 | 5.42 | 240 | 23900 (1999) | 88 (1945) | 1360 | 137 | 176 | 342 | 396 | 759 | 1350 | 1460 | 2280 | 3420 |
| 2026-02-08 21:30 | 5.42 | 240 | 23900 (1999) | 88 (1945) | 1360 | 137 | 176 | 342 | 396 | 759 | 1350 | 1460 | 2280 | 3420 |
| 2026-02-08 21:00 | 5.42 | 240 | 23900 (1999) | 88 (1945) | 1360 | 137 | 176 | 342 | 396 | 759 | 1350 | 1460 | 2280 | 3420 |
| 2026-02-08 20:30 | 5.41 | 237 | 23900 (1999) | 88 (1945) | 1360 | 137 | 176 | 342 | 396 | 759 | 1350 | 1460 | 2280 | 3420 |
| 2026-02-08 20:00 | 5.41 | 237 | 23900 (1999) | 88 (1945) | 1360 | 137 | 176 | 342 | 396 | 759 | 1350 | 1460 | 2280 | 3420 |
| 2026-02-08 19:30 | 5.41 | 237 | 23900 (1999) | 88 (1945) | 1360 | 137 | 176 | 342 | 396 | 759 | 1350 | 1460 | 2280 | 3420 |
| 2026-02-08 19:00 | 5.40 | 235 | 23900 (1999) | 88 (1945) | 1360 | 137 | 176 | 342 | 396 | 759 | 1350 | 1460 | 2280 | 3420 |
| 2026-02-08 18:30 | 5.40 | 235 | 23900 (1999) | 88 (1945) | 1360 | 137 | 176 | 342 | 396 | 759 | 1350 | 1460 | 2280 | 3420 |
| 2026-02-08 18:00 | 5.40 | 235 | 23900 (1999) | 88 (1945) | 1360 | 137 | 176 | 342 | 396 | 759 | 1350 | 1460 | 2280 | 3420 |
| 2026-02-08 17:30 | 5.39 | 232 | 23900 (1999) | 88 (1945) | 1360 | 137 | 176 | 342 | 396 | 759 | 1350 | 1460 | 2280 | 3420 |
| 2026-02-08 17:00 | 5.39 | 232 | 23900 (1999) | 88 (1945) | 1360 | 137 | 176 | 342 | 396 | 759 | 1350 | 1460 | 2280 | 3420 |
| 2026-02-08 16:30 | 5.39 | 232 | 23900 (1999) | 88 (1945) | 1360 | 137 | 176 | 342 | 396 | 759 | 1350 | 1460 | 2280 | 3420 |
| 2026-02-08 16:00 | 5.35 | 222 | 23900 (1999) | 88 (1945) | 1360 | 137 | 176 | 342 | 396 | 759 | 1350 | 1460 | 2280 | 3420 |
| 2026-02-08 15:30 | 5.37 | 227 | 23900 (1999) | 88 (1945) | 1360 | 137 | 176 | 342 | 396 | 759 | 1350 | 1460 | 2280 | 3420 |
| 2026-02-08 15:00 | 5.38 | 230 | 23900 (1999) | 88 (1945) | 1360 | 137 | 176 | 342 | 396 | 759 | 1350 | 1460 | 2280 | 3420 |
| 2026-02-08 14:30 | 5.38 | 230 | 23900 (1999) | 88 (1945) | 1360 | 137 | 176 | 342 | 396 | 759 | 1350 | 1460 | 2280 | 3420 |
| 2026-02-08 14:00 | 5.37 | 227 | 23900 (1999) | 88 (1945) | 1360 | 137 | 176 | 342 | 396 | 759 | 1350 | 1460 | 2280 | 3420 |
| 2026-02-08 13:30 | 5.37 | 227 | 23900 (1999) | 88 (1945) | 1360 | 137 | 176 | 342 | 396 | 759 | 1350 | 1460 | 2280 | 3420 |
| 2026-02-08 13:00 | 5.37 | 227 | 23900 (1999) | 88 (1945) | 1360 | 137 | 176 | 342 | 396 | 759 | 1350 | 1460 | 2280 | 3420 |
| 2026-02-08 12:30 | 5.36 | 225 | 23900 (1999) | 88 (1945) | 1360 | 137 | 176 | 342 | 396 | 759 | 1350 | 1460 | 2280 | 3420 |
| 2026-02-08 12:00 | 5.36 | 225 | 23900 (1999) | 88 (1945) | 1360 | 137 | 176 | 342 | 396 | 759 | 1350 | 1460 | 2280 | 3420 |
| 2026-02-08 11:30 | 5.32 | 215 | 23900 (1999) | 88 (1945) | 1360 | 137 | 176 | 342 | 396 | 759 | 1350 | 1460 | 2280 | 3420 |
| 2026-02-08 11:00 | 5.36 | 225 | 23900 (1999) | 88 (1945) | 1360 | 137 | 176 | 342 | 396 | 759 | 1350 | 1460 | 2280 | 3420 |
| 2026-02-08 10:30 | 5.33 | 217 | 23900 (1999) | 88 (1945) | 1360 | 137 | 176 | 342 | 396 | 759 | 1350 | 1460 | 2280 | 3420 |
| 2026-02-08 10:00 | 5.35 | 222 | 23900 (1999) | 88 (1945) | 1360 | 137 | 176 | 342 | 396 | 759 | 1350 | 1460 | 2280 | 3420 |
| 2026-02-08 09:30 | 5.31 | 213 | 23900 (1999) | 88 (1945) | 1360 | 137 | 176 | 342 | 396 | 759 | 1350 | 1460 | 2280 | 3420 |
| 2026-02-08 09:00 | 5.34 | 220 | 23900 (1999) | 88 (1945) | 1360 | 137 | 176 | 342 | 396 | 759 | 1350 | 1460 | 2280 | 3420 |
| 2026-02-08 08:30 | 5.34 | 220 | 23900 (1999) | 88 (1945) | 1360 | 137 | 176 | 342 | 396 | 759 | 1350 | 1460 | 2280 | 3420 |
| 2026-02-08 08:00 | 5.34 | 220 | 23900 (1999) | 88 (1945) | 1360 | 137 | 176 | 342 | 396 | 759 | 1350 | 1460 | 2280 | 3420 |
| 2026-02-08 07:30 | 5.34 | 220 | 23900 (1999) | 88 (1945) | 1360 | 137 | 176 | 342 | 396 | 759 | 1350 | 1460 | 2280 | 3420 |
| 2026-02-08 07:00 | 5.34 | 220 | 23900 (1999) | 88 (1945) | 1360 | 137 | 176 | 342 | 396 | 759 | 1350 | 1460 | 2280 | 3420 |
| 2026-02-08 06:30 | 5.34 | 220 | 23900 (1999) | 88 (1945) | 1360 | 137 | 176 | 342 | 396 | 759 | 1350 | 1460 | 2280 | 3420 |
| 2026-02-08 06:00 | 5.34 | 220 | 23900 (1999) | 88 (1945) | 1360 | 137 | 176 | 342 | 396 | 759 | 1350 | 1460 | 2280 | 3420 |
| 2026-02-08 05:30 | 5.34 | 220 | 23900 (1999) | 88 (1945) | 1360 | 137 | 176 | 342 | 396 | 759 | 1350 | 1460 | 2280 | 3420 |
| 2026-02-08 05:00 | 5.33 | 217 | 23900 (1999) | 88 (1945) | 1360 | 137 | 176 | 342 | 396 | 759 | 1350 | 1460 | 2280 | 3420 |
| 2026-02-08 04:30 | 5.33 | 217 | 23900 (1999) | 88 (1945) | 1360 | 137 | 176 | 342 | 396 | 759 | 1350 | 1460 | 2280 | 3420 |
| 2026-02-08 04:00 | 5.33 | 217 | 23900 (1999) | 88 (1945) | 1360 | 137 | 176 | 342 | 396 | 759 | 1350 | 1460 | 2280 | 3420 |
| 2026-02-08 03:30 | 5.33 | 217 | 23900 (1999) | 88 (1945) | 1360 | 137 | 176 | 342 | 396 | 759 | 1350 | 1460 | 2280 | 3420 |
| 2026-02-08 03:00 | 5.33 | 217 | 23900 (1999) | 88 (1945) | 1360 | 137 | 176 | 342 | 396 | 759 | 1350 | 1460 | 2280 | 3420 |
| 2026-02-08 02:30 | 5.32 | 215 | 23900 (1999) | 88 (1945) | 1360 | 137 | 176 | 342 | 396 | 759 | 1350 | 1460 | 2280 | 3420 |
| 2026-02-08 02:00 | 5.32 | 215 | 23900 (1999) | 88 (1945) | 1360 | 137 | 176 | 342 | 396 | 759 | 1350 | 1460 | 2280 | 3420 |
| 2026-02-08 01:30 | 5.32 | 215 | 23900 (1999) | 88 (1945) | 1360 | 137 | 176 | 342 | 396 | 759 | 1350 | 1460 | 2280 | 3420 |
| 2026-02-08 01:00 | 5.32 | 215 | 23900 (1999) | 88 (1945) | 1360 | 137 | 176 | 342 | 396 | 759 | 1350 | 1460 | 2280 | 3420 |
| 2026-02-08 00:30 | 5.31 | 213 | 23900 (1999) | 88 (1945) | 1360 | 137 | 176 | 342 | 396 | 759 | 1350 | 1460 | 2280 | 3420 |
| 2026-02-08 00:00 | 5.31 | 213 | 23900 (1999) | 88 (1945) | 1360 | 137 | 176 | 342 | 396 | 759 | 1350 | 1460 | 2280 | 3420 |
| 2026-02-07 23:30 | 5.31 | 213 | 23900 (1999) | 88 (1945) | 1360 | 137 | 176 | 342 | 396 | 759 | 1350 | 1460 | 2280 | 3420 |
| 2026-02-07 23:00 | 5.31 | 213 | 23900 (1999) | 88 (1945) | 1360 | 137 | 176 | 342 | 396 | 759 | 1350 | 1460 | 2280 | 3420 |
| 2026-02-07 22:30 | 5.31 | 213 | 17900 (1951) | 91 (1945) | 1510 | 129 | 164 | 351 | 408 | 777 | 1550 | 1690 | 2390 | 4840 |
| 2026-02-07 22:00 | 5.31 | 213 | 17900 (1951) | 91 (1945) | 1510 | 129 | 164 | 351 | 408 | 777 | 1550 | 1690 | 2390 | 4840 |
| 2026-02-07 21:30 | 5.31 | 213 | 17900 (1951) | 91 (1945) | 1510 | 129 | 164 | 351 | 408 | 777 | 1550 | 1690 | 2390 | 4840 |
| 2026-02-07 21:00 | 5.31 | 213 | 17900 (1951) | 91 (1945) | 1510 | 129 | 164 | 351 | 408 | 777 | 1550 | 1690 | 2390 | 4840 |
| 2026-02-07 20:30 | 5.30 | 210 | 17900 (1951) | 91 (1945) | 1510 | 129 | 164 | 351 | 408 | 777 | 1550 | 1690 | 2390 | 4840 |
| 2026-02-07 20:00 | 5.30 | 210 | 17900 (1951) | 91 (1945) | 1510 | 129 | 164 | 351 | 408 | 777 | 1550 | 1690 | 2390 | 4840 |
| 2026-02-07 19:30 | 5.30 | 210 | 17900 (1951) | 91 (1945) | 1510 | 129 | 164 | 351 | 408 | 777 | 1550 | 1690 | 2390 | 4840 |
| 2026-02-07 19:00 | 5.30 | 210 | 17900 (1951) | 91 (1945) | 1510 | 129 | 164 | 351 | 408 | 777 | 1550 | 1690 | 2390 | 4840 |
| 2026-02-07 18:30 | 5.30 | 210 | 17900 (1951) | 91 (1945) | 1510 | 129 | 164 | 351 | 408 | 777 | 1550 | 1690 | 2390 | 4840 |
| 2026-02-07 18:00 | 5.28 | 205 | 17900 (1951) | 91 (1945) | 1510 | 129 | 164 | 351 | 408 | 777 | 1550 | 1690 | 2390 | 4840 |
| 2026-02-07 17:30 | 5.30 | 210 | 17900 (1951) | 91 (1945) | 1510 | 129 | 164 | 351 | 408 | 777 | 1550 | 1690 | 2390 | 4840 |
| 2026-02-07 17:00 | 5.25 | 198 | 17900 (1951) | 91 (1945) | 1510 | 129 | 164 | 351 | 408 | 777 | 1550 | 1690 | 2390 | 4840 |
| 2026-02-07 16:30 | 5.29 | 208 | 17900 (1951) | 91 (1945) | 1510 | 129 | 164 | 351 | 408 | 777 | 1550 | 1690 | 2390 | 4840 |
| 2026-02-07 16:00 | 5.29 | 208 | 17900 (1951) | 91 (1945) | 1510 | 129 | 164 | 351 | 408 | 777 | 1550 | 1690 | 2390 | 4840 |
| 2026-02-07 15:30 | 5.29 | 208 | 17900 (1951) | 91 (1945) | 1510 | 129 | 164 | 351 | 408 | 777 | 1550 | 1690 | 2390 | 4840 |
| 2026-02-07 15:00 | 5.26 | 201 | 17900 (1951) | 91 (1945) | 1510 | 129 | 164 | 351 | 408 | 777 | 1550 | 1690 | 2390 | 4840 |
| 2026-02-07 14:30 | 5.29 | 208 | 17900 (1951) | 91 (1945) | 1510 | 129 | 164 | 351 | 408 | 777 | 1550 | 1690 | 2390 | 4840 |
| 2026-02-07 14:00 | 5.29 | 208 | 17900 (1951) | 91 (1945) | 1510 | 129 | 164 | 351 | 408 | 777 | 1550 | 1690 | 2390 | 4840 |
| 2026-02-07 13:30 | 5.29 | 208 | 17900 (1951) | 91 (1945) | 1510 | 129 | 164 | 351 | 408 | 777 | 1550 | 1690 | 2390 | 4840 |
| 2026-02-07 13:00 | 5.29 | 208 | 17900 (1951) | 91 (1945) | 1510 | 129 | 164 | 351 | 408 | 777 | 1550 | 1690 | 2390 | 4840 |
| 2026-02-07 12:30 | 5.28 | 205 | 17900 (1951) | 91 (1945) | 1510 | 129 | 164 | 351 | 408 | 777 | 1550 | 1690 | 2390 | 4840 |
| 2026-02-07 12:00 | 5.24 | 196 | 17900 (1951) | 91 (1945) | 1510 | 129 | 164 | 351 | 408 | 777 | 1550 | 1690 | 2390 | 4840 |
| 2026-02-07 11:30 | 5.28 | 205 | 17900 (1951) | 91 (1945) | 1510 | 129 | 164 | 351 | 408 | 777 | 1550 | 1690 | 2390 | 4840 |
| 2026-02-07 11:00 | 5.28 | 205 | 17900 (1951) | 91 (1945) | 1510 | 129 | 164 | 351 | 408 | 777 | 1550 | 1690 | 2390 | 4840 |
| 2026-02-07 10:30 | 5.27 | 203 | 17900 (1951) | 91 (1945) | 1510 | 129 | 164 | 351 | 408 | 777 | 1550 | 1690 | 2390 | 4840 |
| 2026-02-07 10:00 | 5.25 | 198 | 17900 (1951) | 91 (1945) | 1510 | 129 | 164 | 351 | 408 | 777 | 1550 | 1690 | 2390 | 4840 |
| 2026-02-07 09:30 | 5.27 | 203 | 17900 (1951) | 91 (1945) | 1510 | 129 | 164 | 351 | 408 | 777 | 1550 | 1690 | 2390 | 4840 |
| 2026-02-07 09:00 | 5.25 | 198 | 17900 (1951) | 91 (1945) | 1510 | 129 | 164 | 351 | 408 | 777 | 1550 | 1690 | 2390 | 4840 |
| 2026-02-07 08:30 | 5.27 | 203 | 17900 (1951) | 91 (1945) | 1510 | 129 | 164 | 351 | 408 | 777 | 1550 | 1690 | 2390 | 4840 |
| 2026-02-07 08:00 | 5.27 | 203 | 17900 (1951) | 91 (1945) | 1510 | 129 | 164 | 351 | 408 | 777 | 1550 | 1690 | 2390 | 4840 |
| 2026-02-07 07:30 | 5.27 | 203 | 17900 (1951) | 91 (1945) | 1510 | 129 | 164 | 351 | 408 | 777 | 1550 | 1690 | 2390 | 4840 |
| 2026-02-07 07:00 | 5.27 | 203 | 17900 (1951) | 91 (1945) | 1510 | 129 | 164 | 351 | 408 | 777 | 1550 | 1690 | 2390 | 4840 |
| 2026-02-07 06:30 | 5.27 | 203 | 17900 (1951) | 91 (1945) | 1510 | 129 | 164 | 351 | 408 | 777 | 1550 | 1690 | 2390 | 4840 |
| 2026-02-07 06:00 | 5.27 | 203 | 17900 (1951) | 91 (1945) | 1510 | 129 | 164 | 351 | 408 | 777 | 1550 | 1690 | 2390 | 4840 |
| 2026-02-07 05:30 | 5.27 | 203 | 17900 (1951) | 91 (1945) | 1510 | 129 | 164 | 351 | 408 | 777 | 1550 | 1690 | 2390 | 4840 |
| 2026-02-07 05:00 | 5.26 | 201 | 17900 (1951) | 91 (1945) | 1510 | 129 | 164 | 351 | 408 | 777 | 1550 | 1690 | 2390 | 4840 |
| 2026-02-07 04:30 | 5.26 | 201 | 17900 (1951) | 91 (1945) | 1510 | 129 | 164 | 351 | 408 | 777 | 1550 | 1690 | 2390 | 4840 |
| 2026-02-07 04:00 | 5.26 | 201 | 17900 (1951) | 91 (1945) | 1510 | 129 | 164 | 351 | 408 | 777 | 1550 | 1690 | 2390 | 4840 |
| 2026-02-07 03:30 | 5.26 | 201 | 17900 (1951) | 91 (1945) | 1510 | 129 | 164 | 351 | 408 | 777 | 1550 | 1690 | 2390 | 4840 |
| 2026-02-07 03:00 | 5.25 | 198 | 17900 (1951) | 91 (1945) | 1510 | 129 | 164 | 351 | 408 | 777 | 1550 | 1690 | 2390 | 4840 |
| 2026-02-07 02:30 | 5.25 | 198 | 17900 (1951) | 91 (1945) | 1510 | 129 | 164 | 351 | 408 | 777 | 1550 | 1690 | 2390 | 4840 |
| 2026-02-07 02:00 | 5.25 | 198 | 17900 (1951) | 91 (1945) | 1510 | 129 | 164 | 351 | 408 | 777 | 1550 | 1690 | 2390 | 4840 |
| 2026-02-07 01:30 | 5.25 | 198 | 17900 (1951) | 91 (1945) | 1510 | 129 | 164 | 351 | 408 | 777 | 1550 | 1690 | 2390 | 4840 |
| 2026-02-07 01:00 | 5.25 | 198 | 17900 (1951) | 91 (1945) | 1510 | 129 | 164 | 351 | 408 | 777 | 1550 | 1690 | 2390 | 4840 |
| 2026-02-07 00:30 | 5.24 | 196 | 17900 (1951) | 91 (1945) | 1510 | 129 | 164 | 351 | 408 | 777 | 1550 | 1690 | 2390 | 4840 |
| 2026-02-07 00:00 | 5.24 | 196 | 17900 (1951) | 91 (1945) | 1510 | 129 | 164 | 351 | 408 | 777 | 1550 | 1690 | 2390 | 4840 |
| 2026-02-06 23:30 | 5.24 | 196 | 17900 (1951) | 91 (1945) | 1510 | 129 | 164 | 351 | 408 | 777 | 1550 | 1690 | 2390 | 4840 |
| 2026-02-06 23:00 | 5.24 | 196 | 17900 (1951) | 91 (1945) | 1510 | 129 | 164 | 351 | 408 | 777 | 1550 | 1690 | 2390 | 4840 |
| 2026-02-06 22:30 | 5.24 | 196 | 6140 (2010) | 93 (1945) | 1210 | 136 | 164 | 348 | 414 | 765 | 1650 | 1900 | 2900 | 4430 |
| 2026-02-06 22:00 | 5.24 | 196 | 6140 (2010) | 93 (1945) | 1210 | 136 | 164 | 348 | 414 | 765 | 1650 | 1900 | 2900 | 4430 |
| 2026-02-06 21:30 | 5.23 | 194 | 6140 (2010) | 93 (1945) | 1210 | 136 | 164 | 348 | 414 | 765 | 1650 | 1900 | 2900 | 4430 |
| 2026-02-06 21:00 | 5.23 | 194 | 6140 (2010) | 93 (1945) | 1210 | 136 | 164 | 348 | 414 | 765 | 1650 | 1900 | 2900 | 4430 |
| 2026-02-06 20:30 | 5.23 | 194 | 6140 (2010) | 93 (1945) | 1210 | 136 | 164 | 348 | 414 | 765 | 1650 | 1900 | 2900 | 4430 |
| 2026-02-06 20:00 | 5.23 | 194 | 6140 (2010) | 93 (1945) | 1210 | 136 | 164 | 348 | 414 | 765 | 1650 | 1900 | 2900 | 4430 |
| 2026-02-06 19:30 | 5.22 | 192 | 6140 (2010) | 93 (1945) | 1210 | 136 | 164 | 348 | 414 | 765 | 1650 | 1900 | 2900 | 4430 |
| 2026-02-06 19:00 | 5.22 | 192 | 6140 (2010) | 93 (1945) | 1210 | 136 | 164 | 348 | 414 | 765 | 1650 | 1900 | 2900 | 4430 |
| 2026-02-06 18:30 | 5.22 | 192 | 6140 (2010) | 93 (1945) | 1210 | 136 | 164 | 348 | 414 | 765 | 1650 | 1900 | 2900 | 4430 |
| 2026-02-06 18:00 | 5.22 | 192 | 6140 (2010) | 93 (1945) | 1210 | 136 | 164 | 348 | 414 | 765 | 1650 | 1900 | 2900 | 4430 |
| 2026-02-06 17:30 | 5.21 | 189 | 6140 (2010) | 93 (1945) | 1210 | 136 | 164 | 348 | 414 | 765 | 1650 | 1900 | 2900 | 4430 |
| 2026-02-06 17:00 | 5.21 | 189 | 6140 (2010) | 93 (1945) | 1210 | 136 | 164 | 348 | 414 | 765 | 1650 | 1900 | 2900 | 4430 |
| 2026-02-06 16:30 | 5.18 | 183 | 6140 (2010) | 93 (1945) | 1210 | 136 | 164 | 348 | 414 | 765 | 1650 | 1900 | 2900 | 4430 |
| 2026-02-06 16:00 | 5.19 | 185 | 6140 (2010) | 93 (1945) | 1210 | 136 | 164 | 348 | 414 | 765 | 1650 | 1900 | 2900 | 4430 |
| 2026-02-06 15:30 | 5.18 | 183 | 6140 (2010) | 93 (1945) | 1210 | 136 | 164 | 348 | 414 | 765 | 1650 | 1900 | 2900 | 4430 |
| 2026-02-06 15:00 | 5.17 | 180 | 6140 (2010) | 93 (1945) | 1210 | 136 | 164 | 348 | 414 | 765 | 1650 | 1900 | 2900 | 4430 |
| 2026-02-06 14:30 | 5.18 | 183 | 6140 (2010) | 93 (1945) | 1210 | 136 | 164 | 348 | 414 | 765 | 1650 | 1900 | 2900 | 4430 |
| 2026-02-06 14:00 | 5.15 | 176 | 6140 (2010) | 93 (1945) | 1210 | 136 | 164 | 348 | 414 | 765 | 1650 | 1900 | 2900 | 4430 |
| 2026-02-06 13:30 | 5.15 | 176 | 6140 (2010) | 93 (1945) | 1210 | 136 | 164 | 348 | 414 | 765 | 1650 | 1900 | 2900 | 4430 |
| 2026-02-06 13:00 | 5.18 | 183 | 6140 (2010) | 93 (1945) | 1210 | 136 | 164 | 348 | 414 | 765 | 1650 | 1900 | 2900 | 4430 |
| 2026-02-06 12:30 | 5.15 | 176 | 6140 (2010) | 93 (1945) | 1210 | 136 | 164 | 348 | 414 | 765 | 1650 | 1900 | 2900 | 4430 |
| 2026-02-06 12:00 | 5.16 | 178 | 6140 (2010) | 93 (1945) | 1210 | 136 | 164 | 348 | 414 | 765 | 1650 | 1900 | 2900 | 4430 |
| 2026-02-06 11:30 | 5.15 | 176 | 6140 (2010) | 93 (1945) | 1210 | 136 | 164 | 348 | 414 | 765 | 1650 | 1900 | 2900 | 4430 |
| 2026-02-06 11:00 | 5.20 | 187 | 6140 (2010) | 93 (1945) | 1210 | 136 | 164 | 348 | 414 | 765 | 1650 | 1900 | 2900 | 4430 |
| 2026-02-06 10:30 | 5.14 | 174 | 6140 (2010) | 93 (1945) | 1210 | 136 | 164 | 348 | 414 | 765 | 1650 | 1900 | 2900 | 4430 |
| 2026-02-06 10:00 | 5.20 | 187 | 6140 (2010) | 93 (1945) | 1210 | 136 | 164 | 348 | 414 | 765 | 1650 | 1900 | 2900 | 4430 |
| 2026-02-06 09:30 | 5.20 | 187 | 6140 (2010) | 93 (1945) | 1210 | 136 | 164 | 348 | 414 | 765 | 1650 | 1900 | 2900 | 4430 |
| 2026-02-06 09:00 | 5.20 | 187 | 6140 (2010) | 93 (1945) | 1210 | 136 | 164 | 348 | 414 | 765 | 1650 | 1900 | 2900 | 4430 |
| 2026-02-06 08:30 | 5.20 | 187 | 6140 (2010) | 93 (1945) | 1210 | 136 | 164 | 348 | 414 | 765 | 1650 | 1900 | 2900 | 4430 |
| 2026-02-06 08:00 | 5.20 | 187 | 6140 (2010) | 93 (1945) | 1210 | 136 | 164 | 348 | 414 | 765 | 1650 | 1900 | 2900 | 4430 |
| 2026-02-06 07:30 | 5.21 | 189 | 6140 (2010) | 93 (1945) | 1210 | 136 | 164 | 348 | 414 | 765 | 1650 | 1900 | 2900 | 4430 |
| 2026-02-06 07:00 | 5.21 | 189 | 6140 (2010) | 93 (1945) | 1210 | 136 | 164 | 348 | 414 | 765 | 1650 | 1900 | 2900 | 4430 |
| 2026-02-06 06:30 | 5.20 | 187 | 6140 (2010) | 93 (1945) | 1210 | 136 | 164 | 348 | 414 | 765 | 1650 | 1900 | 2900 | 4430 |
| 2026-02-06 06:00 | 5.20 | 187 | 6140 (2010) | 93 (1945) | 1210 | 136 | 164 | 348 | 414 | 765 | 1650 | 1900 | 2900 | 4430 |
| 2026-02-06 05:30 | 5.21 | 189 | 6140 (2010) | 93 (1945) | 1210 | 136 | 164 | 348 | 414 | 765 | 1650 | 1900 | 2900 | 4430 |
| 2026-02-06 05:00 | 5.20 | 187 | 6140 (2010) | 93 (1945) | 1210 | 136 | 164 | 348 | 414 | 765 | 1650 | 1900 | 2900 | 4430 |
| 2026-02-06 04:30 | 5.20 | 187 | 6140 (2010) | 93 (1945) | 1210 | 136 | 164 | 348 | 414 | 765 | 1650 | 1900 | 2900 | 4430 |
| 2026-02-06 04:00 | 5.20 | 187 | 6140 (2010) | 93 (1945) | 1210 | 136 | 164 | 348 | 414 | 765 | 1650 | 1900 | 2900 | 4430 |
| 2026-02-06 03:30 | 5.20 | 187 | 6140 (2010) | 93 (1945) | 1210 | 136 | 164 | 348 | 414 | 765 | 1650 | 1900 | 2900 | 4430 |
| 2026-02-06 03:00 | 5.20 | 187 | 6140 (2010) | 93 (1945) | 1210 | 136 | 164 | 348 | 414 | 765 | 1650 | 1900 | 2900 | 4430 |
| 2026-02-06 02:30 | 5.20 | 187 | 6140 (2010) | 93 (1945) | 1210 | 136 | 164 | 348 | 414 | 765 | 1650 | 1900 | 2900 | 4430 |
| 2026-02-06 02:00 | 5.20 | 187 | 6140 (2010) | 93 (1945) | 1210 | 136 | 164 | 348 | 414 | 765 | 1650 | 1900 | 2900 | 4430 |
| 2026-02-06 01:30 | 5.20 | 187 | 6140 (2010) | 93 (1945) | 1210 | 136 | 164 | 348 | 414 | 765 | 1650 | 1900 | 2900 | 4430 |
| 2026-02-06 01:00 | 5.20 | 187 | 6140 (2010) | 93 (1945) | 1210 | 136 | 164 | 348 | 414 | 765 | 1650 | 1900 | 2900 | 4430 |
| 2026-02-06 00:30 | 5.20 | 187 | 6140 (2010) | 93 (1945) | 1210 | 136 | 164 | 348 | 414 | 765 | 1650 | 1900 | 2900 | 4430 |
| 2026-02-06 00:00 | 5.20 | 187 | 6140 (2010) | 93 (1945) | 1210 | 136 | 164 | 348 | 414 | 765 | 1650 | 1900 | 2900 | 4430 |
| 2026-02-05 23:30 | 5.20 | 187 | 6140 (2010) | 93 (1945) | 1210 | 136 | 164 | 348 | 414 | 765 | 1650 | 1900 | 2900 | 4430 |
| 2026-02-05 23:00 | 5.20 | 187 | 6140 (2010) | 93 (1945) | 1210 | 136 | 164 | 348 | 414 | 765 | 1650 | 1900 | 2900 | 4430 |
| 2026-02-05 22:30 | 5.20 | 187 | 8260 (1930) | 95 (1945) | 1180 | 139 | 166 | 291 | 400 | 729 | 1540 | 1790 | 2710 | 3710 |
| 2026-02-05 22:00 | 5.19 | 185 | 8260 (1930) | 95 (1945) | 1180 | 139 | 166 | 291 | 400 | 729 | 1540 | 1790 | 2710 | 3710 |
| 2026-02-05 21:30 | 5.19 | 185 | 8260 (1930) | 95 (1945) | 1180 | 139 | 166 | 291 | 400 | 729 | 1540 | 1790 | 2710 | 3710 |
| 2026-02-05 21:00 | 5.19 | 185 | 8260 (1930) | 95 (1945) | 1180 | 139 | 166 | 291 | 400 | 729 | 1540 | 1790 | 2710 | 3710 |
| 2026-02-05 20:30 | 5.19 | 185 | 8260 (1930) | 95 (1945) | 1180 | 139 | 166 | 291 | 400 | 729 | 1540 | 1790 | 2710 | 3710 |
| 2026-02-05 20:00 | 5.19 | 185 | 8260 (1930) | 95 (1945) | 1180 | 139 | 166 | 291 | 400 | 729 | 1540 | 1790 | 2710 | 3710 |
| 2026-02-05 19:30 | 5.19 | 185 | 8260 (1930) | 95 (1945) | 1180 | 139 | 166 | 291 | 400 | 729 | 1540 | 1790 | 2710 | 3710 |
| 2026-02-05 19:00 | 5.19 | 185 | 8260 (1930) | 95 (1945) | 1180 | 139 | 166 | 291 | 400 | 729 | 1540 | 1790 | 2710 | 3710 |
| 2026-02-05 18:30 | 5.19 | 185 | 8260 (1930) | 95 (1945) | 1180 | 139 | 166 | 291 | 400 | 729 | 1540 | 1790 | 2710 | 3710 |
| 2026-02-05 18:00 | 5.19 | 185 | 8260 (1930) | 95 (1945) | 1180 | 139 | 166 | 291 | 400 | 729 | 1540 | 1790 | 2710 | 3710 |
| 2026-02-05 17:30 | 5.19 | 185 | 8260 (1930) | 95 (1945) | 1180 | 139 | 166 | 291 | 400 | 729 | 1540 | 1790 | 2710 | 3710 |
| 2026-02-05 17:00 | 5.19 | 185 | 8260 (1930) | 95 (1945) | 1180 | 139 | 166 | 291 | 400 | 729 | 1540 | 1790 | 2710 | 3710 |
| 2026-02-05 16:30 | 5.17 | 180 | 8260 (1930) | 95 (1945) | 1180 | 139 | 166 | 291 | 400 | 729 | 1540 | 1790 | 2710 | 3710 |
| 2026-02-05 16:00 | 5.18 | 183 | 8260 (1930) | 95 (1945) | 1180 | 139 | 166 | 291 | 400 | 729 | 1540 | 1790 | 2710 | 3710 |
| 2026-02-05 15:30 | 5.18 | 183 | 8260 (1930) | 95 (1945) | 1180 | 139 | 166 | 291 | 400 | 729 | 1540 | 1790 | 2710 | 3710 |
| 2026-02-05 15:00 | 5.15 | 176 | 8260 (1930) | 95 (1945) | 1180 | 139 | 166 | 291 | 400 | 729 | 1540 | 1790 | 2710 | 3710 |
| 2026-02-05 14:30 | 5.16 | 178 | 8260 (1930) | 95 (1945) | 1180 | 139 | 166 | 291 | 400 | 729 | 1540 | 1790 | 2710 | 3710 |
| 2026-02-05 14:00 | 5.15 | 222 | 8260 (1930) | 95 (1945) | 1180 | 139 | 166 | 291 | 400 | 729 | 1540 | 1790 | 2710 | 3710 |
| 2026-02-05 13:30 | 5.16 | 225 | 8260 (1930) | 95 (1945) | 1180 | 139 | 166 | 291 | 400 | 729 | 1540 | 1790 | 2710 | 3710 |
| 2026-02-05 13:00 | 5.16 | 225 | 8260 (1930) | 95 (1945) | 1180 | 139 | 166 | 291 | 400 | 729 | 1540 | 1790 | 2710 | 3710 |
| 2026-02-05 12:30 | 5.16 | 225 | 8260 (1930) | 95 (1945) | 1180 | 139 | 166 | 291 | 400 | 729 | 1540 | 1790 | 2710 | 3710 |
| 2026-02-05 12:00 | 5.14 | 220 | 8260 (1930) | 95 (1945) | 1180 | 139 | 166 | 291 | 400 | 729 | 1540 | 1790 | 2710 | 3710 |
| 2026-02-05 11:30 | 5.19 | 232 | 8260 (1930) | 95 (1945) | 1180 | 139 | 166 | 291 | 400 | 729 | 1540 | 1790 | 2710 | 3710 |
| 2026-02-05 11:00 | 5.19 | 232 | 8260 (1930) | 95 (1945) | 1180 | 139 | 166 | 291 | 400 | 729 | 1540 | 1790 | 2710 | 3710 |
| 2026-02-05 10:30 | 5.19 | 232 | 8260 (1930) | 95 (1945) | 1180 | 139 | 166 | 291 | 400 | 729 | 1540 | 1790 | 2710 | 3710 |
| 2026-02-05 10:00 | 5.19 | 232 | 8260 (1930) | 95 (1945) | 1180 | 139 | 166 | 291 | 400 | 729 | 1540 | 1790 | 2710 | 3710 |
| 2026-02-05 09:30 | 5.19 | 232 | 8260 (1930) | 95 (1945) | 1180 | 139 | 166 | 291 | 400 | 729 | 1540 | 1790 | 2710 | 3710 |
| 2026-02-05 09:00 | 5.19 | 232 | 8260 (1930) | 95 (1945) | 1180 | 139 | 166 | 291 | 400 | 729 | 1540 | 1790 | 2710 | 3710 |
| 2026-02-05 08:30 | 5.19 | 232 | 8260 (1930) | 95 (1945) | 1180 | 139 | 166 | 291 | 400 | 729 | 1540 | 1790 | 2710 | 3710 |
| 2026-02-05 08:00 | 5.19 | 232 | 8260 (1930) | 95 (1945) | 1180 | 139 | 166 | 291 | 400 | 729 | 1540 | 1790 | 2710 | 3710 |
| 2026-02-05 07:30 | 5.19 | 232 | 8260 (1930) | 95 (1945) | 1180 | 139 | 166 | 291 | 400 | 729 | 1540 | 1790 | 2710 | 3710 |
| 2026-02-05 07:00 | 5.19 | 232 | 8260 (1930) | 95 (1945) | 1180 | 139 | 166 | 291 | 400 | 729 | 1540 | 1790 | 2710 | 3710 |
| 2026-02-05 06:30 | 5.19 | 232 | 8260 (1930) | 95 (1945) | 1180 | 139 | 166 | 291 | 400 | 729 | 1540 | 1790 | 2710 | 3710 |
| 2026-02-05 06:00 | 5.19 | 232 | 8260 (1930) | 95 (1945) | 1180 | 139 | 166 | 291 | 400 | 729 | 1540 | 1790 | 2710 | 3710 |
| 2026-02-05 05:30 | 5.19 | 232 | 8260 (1930) | 95 (1945) | 1180 | 139 | 166 | 291 | 400 | 729 | 1540 | 1790 | 2710 | 3710 |
| 2026-02-05 05:00 | 5.19 | 232 | 8260 (1930) | 95 (1945) | 1180 | 139 | 166 | 291 | 400 | 729 | 1540 | 1790 | 2710 | 3710 |
| 2026-02-05 04:30 | 5.19 | 232 | 8260 (1930) | 95 (1945) | 1180 | 139 | 166 | 291 | 400 | 729 | 1540 | 1790 | 2710 | 3710 |
| 2026-02-05 04:00 | 5.18 | 230 | 8260 (1930) | 95 (1945) | 1180 | 139 | 166 | 291 | 400 | 729 | 1540 | 1790 | 2710 | 3710 |
| 2026-02-05 03:30 | 5.19 | 232 | 8260 (1930) | 95 (1945) | 1180 | 139 | 166 | 291 | 400 | 729 | 1540 | 1790 | 2710 | 3710 |
| 2026-02-05 03:00 | 5.19 | 232 | 8260 (1930) | 95 (1945) | 1180 | 139 | 166 | 291 | 400 | 729 | 1540 | 1790 | 2710 | 3710 |
| 2026-02-05 02:30 | 5.19 | 232 | 8260 (1930) | 95 (1945) | 1180 | 139 | 166 | 291 | 400 | 729 | 1540 | 1790 | 2710 | 3710 |
| 2026-02-05 02:00 | 5.18 | 230 | 8260 (1930) | 95 (1945) | 1180 | 139 | 166 | 291 | 400 | 729 | 1540 | 1790 | 2710 | 3710 |
| 2026-02-05 01:30 | 5.18 | 230 | 8260 (1930) | 95 (1945) | 1180 | 139 | 166 | 291 | 400 | 729 | 1540 | 1790 | 2710 | 3710 |
| 2026-02-05 01:00 | 5.18 | 230 | 8260 (1930) | 95 (1945) | 1180 | 139 | 166 | 291 | 400 | 729 | 1540 | 1790 | 2710 | 3710 |
| 2026-02-05 00:30 | 5.18 | 230 | 8260 (1930) | 95 (1945) | 1180 | 139 | 166 | 291 | 400 | 729 | 1540 | 1790 | 2710 | 3710 |
| 2026-02-05 00:00 | 5.18 | 230 | 8260 (1930) | 95 (1945) | 1180 | 139 | 166 | 291 | 400 | 729 | 1540 | 1790 | 2710 | 3710 |
| 2026-02-04 23:30 | 5.18 | 230 | 8260 (1930) | 95 (1945) | 1180 | 139 | 166 | 291 | 400 | 729 | 1540 | 1790 | 2710 | 3710 |
| 2026-02-04 23:00 | 5.18 | 230 | 8260 (1930) | 95 (1945) | 1180 | 139 | 166 | 291 | 400 | 729 | 1540 | 1790 | 2710 | 3710 |
| 2026-02-04 22:30 | 5.18 | 230 | 6730 (1989) | 72 (1977) | 1190 | 139 | 170 | 268 | 353 | 704 | 1520 | 1860 | 2800 | 4150 |
| 2026-02-04 22:00 | 5.18 | 230 | 6730 (1989) | 72 (1977) | 1190 | 139 | 170 | 268 | 353 | 704 | 1520 | 1860 | 2800 | 4150 |
| 2026-02-04 21:30 | 5.18 | 230 | 6730 (1989) | 72 (1977) | 1190 | 139 | 170 | 268 | 353 | 704 | 1520 | 1860 | 2800 | 4150 |
| 2026-02-04 21:00 | 5.18 | 230 | 6730 (1989) | 72 (1977) | 1190 | 139 | 170 | 268 | 353 | 704 | 1520 | 1860 | 2800 | 4150 |
| 2026-02-04 20:30 | 5.18 | 230 | 6730 (1989) | 72 (1977) | 1190 | 139 | 170 | 268 | 353 | 704 | 1520 | 1860 | 2800 | 4150 |
| 2026-02-04 20:00 | 5.17 | 227 | 6730 (1989) | 72 (1977) | 1190 | 139 | 170 | 268 | 353 | 704 | 1520 | 1860 | 2800 | 4150 |
| 2026-02-04 19:30 | 5.18 | 230 | 6730 (1989) | 72 (1977) | 1190 | 139 | 170 | 268 | 353 | 704 | 1520 | 1860 | 2800 | 4150 |
| 2026-02-04 19:00 | 5.18 | 230 | 6730 (1989) | 72 (1977) | 1190 | 139 | 170 | 268 | 353 | 704 | 1520 | 1860 | 2800 | 4150 |
| 2026-02-04 18:30 | 5.17 | 227 | 6730 (1989) | 72 (1977) | 1190 | 139 | 170 | 268 | 353 | 704 | 1520 | 1860 | 2800 | 4150 |
| 2026-02-04 18:00 | 5.17 | 227 | 6730 (1989) | 72 (1977) | 1190 | 139 | 170 | 268 | 353 | 704 | 1520 | 1860 | 2800 | 4150 |
| 2026-02-04 17:30 | 5.17 | 227 | 6730 (1989) | 72 (1977) | 1190 | 139 | 170 | 268 | 353 | 704 | 1520 | 1860 | 2800 | 4150 |
| 2026-02-04 17:00 | 5.17 | 227 | 6730 (1989) | 72 (1977) | 1190 | 139 | 170 | 268 | 353 | 704 | 1520 | 1860 | 2800 | 4150 |
| 2026-02-04 16:30 | 5.17 | 227 | 6730 (1989) | 72 (1977) | 1190 | 139 | 170 | 268 | 353 | 704 | 1520 | 1860 | 2800 | 4150 |
| 2026-02-04 16:00 | 5.14 | 220 | 6730 (1989) | 72 (1977) | 1190 | 139 | 170 | 268 | 353 | 704 | 1520 | 1860 | 2800 | 4150 |
| 2026-02-04 15:30 | 5.14 | 220 | 6730 (1989) | 72 (1977) | 1190 | 139 | 170 | 268 | 353 | 704 | 1520 | 1860 | 2800 | 4150 |
| 2026-02-04 15:00 | 5.14 | 220 | 6730 (1989) | 72 (1977) | 1190 | 139 | 170 | 268 | 353 | 704 | 1520 | 1860 | 2800 | 4150 |
| 2026-02-04 14:30 | 5.17 | 227 | 6730 (1989) | 72 (1977) | 1190 | 139 | 170 | 268 | 353 | 704 | 1520 | 1860 | 2800 | 4150 |
| 2026-02-04 14:00 | 5.14 | 220 | 6730 (1989) | 72 (1977) | 1190 | 139 | 170 | 268 | 353 | 704 | 1520 | 1860 | 2800 | 4150 |
| 2026-02-04 13:30 | 5.17 | 227 | 6730 (1989) | 72 (1977) | 1190 | 139 | 170 | 268 | 353 | 704 | 1520 | 1860 | 2800 | 4150 |
| 2026-02-04 13:00 | 5.11 | 213 | 6730 (1989) | 72 (1977) | 1190 | 139 | 170 | 268 | 353 | 704 | 1520 | 1860 | 2800 | 4150 |
| 2026-02-04 12:30 | 5.14 | 220 | 6730 (1989) | 72 (1977) | 1190 | 139 | 170 | 268 | 353 | 704 | 1520 | 1860 | 2800 | 4150 |
| 2026-02-04 12:00 | 5.16 | 225 | 6730 (1989) | 72 (1977) | 1190 | 139 | 170 | 268 | 353 | 704 | 1520 | 1860 | 2800 | 4150 |
| 2026-02-04 11:30 | 220 | 6730 (1989) | 72 (1977) | 1190 | 139 | 170 | 268 | 353 | 704 | 1520 | 1860 | 2800 | 4150 | |
| 2026-02-04 11:00 | 5.13 | 6730 (1989) | 72 (1977) | 1190 | 139 | 170 | 268 | 353 | 704 | 1520 | 1860 | 2800 | 4150 | |
| 2026-02-04 10:30 | 5.13 | 217 | 6730 (1989) | 72 (1977) | 1190 | 139 | 170 | 268 | 353 | 704 | 1520 | 1860 | 2800 | 4150 |
| 2026-02-04 10:00 | 5.13 | 217 | 6730 (1989) | 72 (1977) | 1190 | 139 | 170 | 268 | 353 | 704 | 1520 | 1860 | 2800 | 4150 |
| 2026-02-04 09:30 | 5.13 | 217 | 6730 (1989) | 72 (1977) | 1190 | 139 | 170 | 268 | 353 | 704 | 1520 | 1860 | 2800 | 4150 |
| 2026-02-04 09:00 | 5.13 | 217 | 6730 (1989) | 72 (1977) | 1190 | 139 | 170 | 268 | 353 | 704 | 1520 | 1860 | 2800 | 4150 |
| 2026-02-04 08:30 | 5.15 | 222 | 6730 (1989) | 72 (1977) | 1190 | 139 | 170 | 268 | 353 | 704 | 1520 | 1860 | 2800 | 4150 |
| 2026-02-04 08:00 | 5.16 | 225 | 6730 (1989) | 72 (1977) | 1190 | 139 | 170 | 268 | 353 | 704 | 1520 | 1860 | 2800 | 4150 |
| 2026-02-04 07:30 | 5.16 | 225 | 6730 (1989) | 72 (1977) | 1190 | 139 | 170 | 268 | 353 | 704 | 1520 | 1860 | 2800 | 4150 |
| 2026-02-04 07:00 | 5.17 | 227 | 6730 (1989) | 72 (1977) | 1190 | 139 | 170 | 268 | 353 | 704 | 1520 | 1860 | 2800 | 4150 |
| 2026-02-04 06:30 | 5.17 | 227 | 6730 (1989) | 72 (1977) | 1190 | 139 | 170 | 268 | 353 | 704 | 1520 | 1860 | 2800 | 4150 |
| 2026-02-04 06:00 | 5.17 | 227 | 6730 (1989) | 72 (1977) | 1190 | 139 | 170 | 268 | 353 | 704 | 1520 | 1860 | 2800 | 4150 |
| 2026-02-04 05:30 | 5.16 | 225 | 6730 (1989) | 72 (1977) | 1190 | 139 | 170 | 268 | 353 | 704 | 1520 | 1860 | 2800 | 4150 |
| 2026-02-04 05:00 | 5.16 | 225 | 6730 (1989) | 72 (1977) | 1190 | 139 | 170 | 268 | 353 | 704 | 1520 | 1860 | 2800 | 4150 |
| 2026-02-04 04:30 | 5.16 | 225 | 6730 (1989) | 72 (1977) | 1190 | 139 | 170 | 268 | 353 | 704 | 1520 | 1860 | 2800 | 4150 |
| 2026-02-04 04:00 | 5.13 | 217 | 6730 (1989) | 72 (1977) | 1190 | 139 | 170 | 268 | 353 | 704 | 1520 | 1860 | 2800 | 4150 |
| 2026-02-04 03:30 | 5.16 | 225 | 6730 (1989) | 72 (1977) | 1190 | 139 | 170 | 268 | 353 | 704 | 1520 | 1860 | 2800 | 4150 |
| 2026-02-04 03:00 | 5.14 | 220 | 6730 (1989) | 72 (1977) | 1190 | 139 | 170 | 268 | 353 | 704 | 1520 | 1860 | 2800 | 4150 |
| 2026-02-04 02:30 | 5.16 | 225 | 6730 (1989) | 72 (1977) | 1190 | 139 | 170 | 268 | 353 | 704 | 1520 | 1860 | 2800 | 4150 |
| 2026-02-04 02:00 | 5.16 | 225 | 6730 (1989) | 72 (1977) | 1190 | 139 | 170 | 268 | 353 | 704 | 1520 | 1860 | 2800 | 4150 |
| 2026-02-04 01:30 | 5.16 | 225 | 6730 (1989) | 72 (1977) | 1190 | 139 | 170 | 268 | 353 | 704 | 1520 | 1860 | 2800 | 4150 |
| 2026-02-04 01:00 | 5.16 | 225 | 6730 (1989) | 72 (1977) | 1190 | 139 | 170 | 268 | 353 | 704 | 1520 | 1860 | 2800 | 4150 |
| 2026-02-04 00:30 | 5.15 | 222 | 6730 (1989) | 72 (1977) | 1190 | 139 | 170 | 268 | 353 | 704 | 1520 | 1860 | 2800 | 4150 |
| 2026-02-04 00:00 | 5.16 | 225 | 6730 (1989) | 72 (1977) | 1190 | 139 | 170 | 268 | 353 | 704 | 1520 | 1860 | 2800 | 4150 |
| 2026-02-03 23:30 | 5.11 | 213 | 6730 (1989) | 72 (1977) | 1190 | 139 | 170 | 268 | 353 | 704 | 1520 | 1860 | 2800 | 4150 |
| 2026-02-03 23:00 | 5.13 | 217 | 6730 (1989) | 72 (1977) | 1190 | 139 | 170 | 268 | 353 | 704 | 1520 | 1860 | 2800 | 4150 |
| 2026-02-03 22:30 | 5.15 | 222 | 11900 (1923) | 72 (1977) | 1440 | 141 | 169 | 236 | 331 | 652 | 1680 | 1900 | 3150 | 5290 |
| 2026-02-03 22:00 | 5.16 | 225 | 11900 (1923) | 72 (1977) | 1440 | 141 | 169 | 236 | 331 | 652 | 1680 | 1900 | 3150 | 5290 |
| 2026-02-03 21:30 | 5.16 | 225 | 11900 (1923) | 72 (1977) | 1440 | 141 | 169 | 236 | 331 | 652 | 1680 | 1900 | 3150 | 5290 |
| 2026-02-03 21:00 | 5.16 | 225 | 11900 (1923) | 72 (1977) | 1440 | 141 | 169 | 236 | 331 | 652 | 1680 | 1900 | 3150 | 5290 |
| 2026-02-03 20:30 | 5.16 | 225 | 11900 (1923) | 72 (1977) | 1440 | 141 | 169 | 236 | 331 | 652 | 1680 | 1900 | 3150 | 5290 |
| 2026-02-03 20:00 | 5.16 | 225 | 11900 (1923) | 72 (1977) | 1440 | 141 | 169 | 236 | 331 | 652 | 1680 | 1900 | 3150 | 5290 |
| 2026-02-03 19:30 | 5.16 | 225 | 11900 (1923) | 72 (1977) | 1440 | 141 | 169 | 236 | 331 | 652 | 1680 | 1900 | 3150 | 5290 |
| 2026-02-03 19:00 | 5.15 | 222 | 11900 (1923) | 72 (1977) | 1440 | 141 | 169 | 236 | 331 | 652 | 1680 | 1900 | 3150 | 5290 |
| 2026-02-03 18:30 | 5.15 | 222 | 11900 (1923) | 72 (1977) | 1440 | 141 | 169 | 236 | 331 | 652 | 1680 | 1900 | 3150 | 5290 |
| 2026-02-03 18:00 | 5.14 | 220 | 11900 (1923) | 72 (1977) | 1440 | 141 | 169 | 236 | 331 | 652 | 1680 | 1900 | 3150 | 5290 |
| 2026-02-03 17:30 | 5.15 | 222 | 11900 (1923) | 72 (1977) | 1440 | 141 | 169 | 236 | 331 | 652 | 1680 | 1900 | 3150 | 5290 |
| 2026-02-03 17:00 | 5.15 | 222 | 11900 (1923) | 72 (1977) | 1440 | 141 | 169 | 236 | 331 | 652 | 1680 | 1900 | 3150 | 5290 |
| 2026-02-03 16:30 | 5.12 | 215 | 11900 (1923) | 72 (1977) | 1440 | 141 | 169 | 236 | 331 | 652 | 1680 | 1900 | 3150 | 5290 |
| 2026-02-03 16:00 | 5.12 | 215 | 11900 (1923) | 72 (1977) | 1440 | 141 | 169 | 236 | 331 | 652 | 1680 | 1900 | 3150 | 5290 |
| 2026-02-03 15:30 | 5.13 | 217 | 11900 (1923) | 72 (1977) | 1440 | 141 | 169 | 236 | 331 | 652 | 1680 | 1900 | 3150 | 5290 |
| 2026-02-03 15:00 | 5.12 | 215 | 11900 (1923) | 72 (1977) | 1440 | 141 | 169 | 236 | 331 | 652 | 1680 | 1900 | 3150 | 5290 |
| 2026-02-03 14:30 | 5.15 | 222 | 11900 (1923) | 72 (1977) | 1440 | 141 | 169 | 236 | 331 | 652 | 1680 | 1900 | 3150 | 5290 |
| 2026-02-03 14:00 | 5.11 | 213 | 11900 (1923) | 72 (1977) | 1440 | 141 | 169 | 236 | 331 | 652 | 1680 | 1900 | 3150 | 5290 |
| 2026-02-03 13:30 | 5.11 | 213 | 11900 (1923) | 72 (1977) | 1440 | 141 | 169 | 236 | 331 | 652 | 1680 | 1900 | 3150 | 5290 |
| 2026-02-03 13:00 | 5.14 | 220 | 11900 (1923) | 72 (1977) | 1440 | 141 | 169 | 236 | 331 | 652 | 1680 | 1900 | 3150 | 5290 |
| 2026-02-03 12:30 | 5.11 | 213 | 11900 (1923) | 72 (1977) | 1440 | 141 | 169 | 236 | 331 | 652 | 1680 | 1900 | 3150 | 5290 |
| 2026-02-03 12:00 | 5.11 | 213 | 11900 (1923) | 72 (1977) | 1440 | 141 | 169 | 236 | 331 | 652 | 1680 | 1900 | 3150 | 5290 |
| 2026-02-03 11:30 | 5.15 | 222 | 11900 (1923) | 72 (1977) | 1440 | 141 | 169 | 236 | 331 | 652 | 1680 | 1900 | 3150 | 5290 |
| 2026-02-03 11:00 | 5.09 | 208 | 11900 (1923) | 72 (1977) | 1440 | 141 | 169 | 236 | 331 | 652 | 1680 | 1900 | 3150 | 5290 |
| 2026-02-03 10:30 | 5.15 | 222 | 11900 (1923) | 72 (1977) | 1440 | 141 | 169 | 236 | 331 | 652 | 1680 | 1900 | 3150 | 5290 |
| 2026-02-03 10:00 | 5.15 | 222 | 11900 (1923) | 72 (1977) | 1440 | 141 | 169 | 236 | 331 | 652 | 1680 | 1900 | 3150 | 5290 |
| 2026-02-03 09:30 | 5.15 | 222 | 11900 (1923) | 72 (1977) | 1440 | 141 | 169 | 236 | 331 | 652 | 1680 | 1900 | 3150 | 5290 |
| 2026-02-03 09:00 | 5.15 | 222 | 11900 (1923) | 72 (1977) | 1440 | 141 | 169 | 236 | 331 | 652 | 1680 | 1900 | 3150 | 5290 |
| 2026-02-03 08:30 | 5.15 | 222 | 11900 (1923) | 72 (1977) | 1440 | 141 | 169 | 236 | 331 | 652 | 1680 | 1900 | 3150 | 5290 |
| 2026-02-03 08:00 | 5.15 | 222 | 11900 (1923) | 72 (1977) | 1440 | 141 | 169 | 236 | 331 | 652 | 1680 | 1900 | 3150 | 5290 |
| 2026-02-03 07:30 | 5.15 | 222 | 11900 (1923) | 72 (1977) | 1440 | 141 | 169 | 236 | 331 | 652 | 1680 | 1900 | 3150 | 5290 |
| 2026-02-03 07:00 | 5.15 | 222 | 11900 (1923) | 72 (1977) | 1440 | 141 | 169 | 236 | 331 | 652 | 1680 | 1900 | 3150 | 5290 |
| 2026-02-03 06:30 | 5.15 | 222 | 11900 (1923) | 72 (1977) | 1440 | 141 | 169 | 236 | 331 | 652 | 1680 | 1900 | 3150 | 5290 |
| 2026-02-03 06:00 | 5.15 | 222 | 11900 (1923) | 72 (1977) | 1440 | 141 | 169 | 236 | 331 | 652 | 1680 | 1900 | 3150 | 5290 |
| 2026-02-03 05:30 | 5.15 | 222 | 11900 (1923) | 72 (1977) | 1440 | 141 | 169 | 236 | 331 | 652 | 1680 | 1900 | 3150 | 5290 |
| 2026-02-03 05:00 | 5.15 | 222 | 11900 (1923) | 72 (1977) | 1440 | 141 | 169 | 236 | 331 | 652 | 1680 | 1900 | 3150 | 5290 |
| 2026-02-03 04:30 | 5.15 | 222 | 11900 (1923) | 72 (1977) | 1440 | 141 | 169 | 236 | 331 | 652 | 1680 | 1900 | 3150 | 5290 |
| 2026-02-03 04:00 | 5.15 | 222 | 11900 (1923) | 72 (1977) | 1440 | 141 | 169 | 236 | 331 | 652 | 1680 | 1900 | 3150 | 5290 |
| 2026-02-03 03:30 | 5.15 | 222 | 11900 (1923) | 72 (1977) | 1440 | 141 | 169 | 236 | 331 | 652 | 1680 | 1900 | 3150 | 5290 |
| 2026-02-03 03:00 | 5.15 | 222 | 11900 (1923) | 72 (1977) | 1440 | 141 | 169 | 236 | 331 | 652 | 1680 | 1900 | 3150 | 5290 |
| 2026-02-03 02:30 | 5.15 | 222 | 11900 (1923) | 72 (1977) | 1440 | 141 | 169 | 236 | 331 | 652 | 1680 | 1900 | 3150 | 5290 |
| 2026-02-03 02:00 | 5.15 | 222 | 11900 (1923) | 72 (1977) | 1440 | 141 | 169 | 236 | 331 | 652 | 1680 | 1900 | 3150 | 5290 |
| 2026-02-03 01:30 | 5.15 | 222 | 11900 (1923) | 72 (1977) | 1440 | 141 | 169 | 236 | 331 | 652 | 1680 | 1900 | 3150 | 5290 |
| 2026-02-03 01:00 | 5.15 | 222 | 11900 (1923) | 72 (1977) | 1440 | 141 | 169 | 236 | 331 | 652 | 1680 | 1900 | 3150 | 5290 |
| 2026-02-03 00:30 | 5.15 | 222 | 11900 (1923) | 72 (1977) | 1440 | 141 | 169 | 236 | 331 | 652 | 1680 | 1900 | 3150 | 5290 |
| 2026-02-03 00:00 | 5.15 | 222 | 11900 (1923) | 72 (1977) | 1440 | 141 | 169 | 236 | 331 | 652 | 1680 | 1900 | 3150 | 5290 |
| 2026-02-02 23:30 | 5.15 | 222 | 11900 (1923) | 72 (1977) | 1440 | 141 | 169 | 236 | 331 | 652 | 1680 | 1900 | 3150 | 5290 |
| 2026-02-02 23:00 | 5.15 | 222 | 11900 (1923) | 72 (1977) | 1440 | 141 | 169 | 236 | 331 | 652 | 1680 | 1900 | 3150 | 5290 |
A total of 4375 rows are displayed for years 1922 through 2025.